<?xml version="1.0" encoding="UTF-8" standalone="no" ?>
<gpx xmlns="http://www.topografix.com/GPX/1/1" xmlns:xsi="http://www.w3.org/2001/XMLSchema-instance" xsi:schemaLocation="http://www.topografix.com/GPX/1/1 http://www.topografix.com/GPX/1/1/gpx.xsd" version="1.1" creator="VisuGPX - https://www.visugpx.com">
  <metadata>
    <name>ronde des roches 2012 Belbeuf</name>
    <desc><![CDATA[rando organisée du 6 mai 2012. Parcours superbe mais très physique]]></desc>
  </metadata>
  <trk>
    <name><![CDATA[06/05/2012 8:42]]></name>
    <desc><![CDATA[]]></desc>
    <trkseg>
      <trkpt lat="49.38932" lon="1.14146">
        <ele>185.3</ele>
        <time>2012-05-06T06:42:40.005Z</time>
      </trkpt>
      <trkpt lat="49.38817" lon="1.13903">
        <ele>195.5</ele>
        <time>2012-05-06T06:42:41.005Z</time>
      </trkpt>
      <trkpt lat="49.38832" lon="1.13918">
        <ele>193.1</ele>
        <time>2012-05-06T06:42:41.997Z</time>
      </trkpt>
      <trkpt lat="49.38948" lon="1.14119">
        <ele>178.1</ele>
        <time>2012-05-06T06:42:42.998Z</time>
      </trkpt>
      <trkpt lat="49.38939" lon="1.14128">
        <ele>191.3</ele>
        <time>2012-05-06T06:42:43.998Z</time>
      </trkpt>
      <trkpt lat="49.38936" lon="1.14136">
        <ele>193.3</ele>
        <time>2012-05-06T06:42:48.075Z</time>
      </trkpt>
      <trkpt lat="49.38934" lon="1.14143">
        <ele>187.3</ele>
        <time>2012-05-06T06:42:51.074Z</time>
      </trkpt>
      <trkpt lat="49.38927" lon="1.14145">
        <ele>181.1</ele>
        <time>2012-05-06T06:42:56.098Z</time>
      </trkpt>
      <trkpt lat="49.38923" lon="1.14146">
        <ele>181.2</ele>
        <time>2012-05-06T06:43:14.095Z</time>
      </trkpt>
      <trkpt lat="49.38925" lon="1.14156">
        <ele>180</ele>
        <time>2012-05-06T06:43:19.090Z</time>
      </trkpt>
      <trkpt lat="49.38927" lon="1.14164">
        <ele>179.9</ele>
        <time>2012-05-06T06:43:21.086Z</time>
      </trkpt>
      <trkpt lat="49.38931" lon="1.14173">
        <ele>179.9</ele>
        <time>2012-05-06T06:43:23.090Z</time>
      </trkpt>
      <trkpt lat="49.38934" lon="1.14184">
        <ele>179.6</ele>
        <time>2012-05-06T06:43:25.086Z</time>
      </trkpt>
      <trkpt lat="49.38938" lon="1.14195">
        <ele>180.4</ele>
        <time>2012-05-06T06:43:27.096Z</time>
      </trkpt>
      <trkpt lat="49.38942" lon="1.14206">
        <ele>181.1</ele>
        <time>2012-05-06T06:43:29.094Z</time>
      </trkpt>
      <trkpt lat="49.38946" lon="1.14218">
        <ele>181.8</ele>
        <time>2012-05-06T06:43:31.093Z</time>
      </trkpt>
      <trkpt lat="49.38947" lon="1.14225">
        <ele>181.8</ele>
        <time>2012-05-06T06:43:32.118Z</time>
      </trkpt>
      <trkpt lat="49.38951" lon="1.14237">
        <ele>181.6</ele>
        <time>2012-05-06T06:43:34.093Z</time>
      </trkpt>
      <trkpt lat="49.38953" lon="1.14244">
        <ele>181.8</ele>
        <time>2012-05-06T06:43:35.088Z</time>
      </trkpt>
      <trkpt lat="49.38956" lon="1.14256">
        <ele>181.3</ele>
        <time>2012-05-06T06:43:37.097Z</time>
      </trkpt>
      <trkpt lat="49.3896" lon="1.14268">
        <ele>181.4</ele>
        <time>2012-05-06T06:43:39.093Z</time>
      </trkpt>
      <trkpt lat="49.38964" lon="1.1428">
        <ele>180.7</ele>
        <time>2012-05-06T06:43:41.079Z</time>
      </trkpt>
      <trkpt lat="49.38967" lon="1.14292">
        <ele>181.1</ele>
        <time>2012-05-06T06:43:43.092Z</time>
      </trkpt>
      <trkpt lat="49.38971" lon="1.14302">
        <ele>181.3</ele>
        <time>2012-05-06T06:43:45.092Z</time>
      </trkpt>
      <trkpt lat="49.38975" lon="1.14313">
        <ele>181.5</ele>
        <time>2012-05-06T06:43:47.090Z</time>
      </trkpt>
      <trkpt lat="49.38979" lon="1.14325">
        <ele>182.1</ele>
        <time>2012-05-06T06:43:49.135Z</time>
      </trkpt>
      <trkpt lat="49.38983" lon="1.14336">
        <ele>182.5</ele>
        <time>2012-05-06T06:43:51.087Z</time>
      </trkpt>
      <trkpt lat="49.38987" lon="1.14349">
        <ele>182.6</ele>
        <time>2012-05-06T06:43:53.150Z</time>
      </trkpt>
      <trkpt lat="49.3899" lon="1.1436">
        <ele>182.3</ele>
        <time>2012-05-06T06:43:55.083Z</time>
      </trkpt>
      <trkpt lat="49.38994" lon="1.14372">
        <ele>182.3</ele>
        <time>2012-05-06T06:43:57.154Z</time>
      </trkpt>
      <trkpt lat="49.38998" lon="1.14384">
        <ele>182.6</ele>
        <time>2012-05-06T06:43:59.080Z</time>
      </trkpt>
      <trkpt lat="49.39002" lon="1.14395">
        <ele>183.1</ele>
        <time>2012-05-06T06:44:01.093Z</time>
      </trkpt>
      <trkpt lat="49.39007" lon="1.14408">
        <ele>182.9</ele>
        <time>2012-05-06T06:44:03.387Z</time>
      </trkpt>
      <trkpt lat="49.3901" lon="1.14417">
        <ele>183.1</ele>
        <time>2012-05-06T06:44:04.787Z</time>
      </trkpt>
      <trkpt lat="49.39012" lon="1.14425">
        <ele>183.3</ele>
        <time>2012-05-06T06:44:06.091Z</time>
      </trkpt>
      <trkpt lat="49.39014" lon="1.14431">
        <ele>183</ele>
        <time>2012-05-06T06:44:07.089Z</time>
      </trkpt>
      <trkpt lat="49.39016" lon="1.14437">
        <ele>182.9</ele>
        <time>2012-05-06T06:44:08.082Z</time>
      </trkpt>
      <trkpt lat="49.39017" lon="1.14444">
        <ele>182.9</ele>
        <time>2012-05-06T06:44:09.090Z</time>
      </trkpt>
      <trkpt lat="49.39017" lon="1.14457">
        <ele>183.4</ele>
        <time>2012-05-06T06:44:11.086Z</time>
      </trkpt>
      <trkpt lat="49.39013" lon="1.14468">
        <ele>183.9</ele>
        <time>2012-05-06T06:44:13.085Z</time>
      </trkpt>
      <trkpt lat="49.39009" lon="1.14472">
        <ele>184</ele>
        <time>2012-05-06T06:44:14.095Z</time>
      </trkpt>
      <trkpt lat="49.39002" lon="1.14479">
        <ele>184.8</ele>
        <time>2012-05-06T06:44:16.095Z</time>
      </trkpt>
      <trkpt lat="49.38995" lon="1.14486">
        <ele>185.1</ele>
        <time>2012-05-06T06:44:18.084Z</time>
      </trkpt>
      <trkpt lat="49.38988" lon="1.14493">
        <ele>185.5</ele>
        <time>2012-05-06T06:44:20.154Z</time>
      </trkpt>
      <trkpt lat="49.38983" lon="1.14499">
        <ele>185.8</ele>
        <time>2012-05-06T06:44:21.788Z</time>
      </trkpt>
      <trkpt lat="49.38979" lon="1.14506">
        <ele>185.9</ele>
        <time>2012-05-06T06:44:23.212Z</time>
      </trkpt>
      <trkpt lat="49.38976" lon="1.14517">
        <ele>185.8</ele>
        <time>2012-05-06T06:44:25.093Z</time>
      </trkpt>
      <trkpt lat="49.38975" lon="1.14525">
        <ele>185.8</ele>
        <time>2012-05-06T06:44:26.093Z</time>
      </trkpt>
      <trkpt lat="49.38972" lon="1.14538">
        <ele>186.5</ele>
        <time>2012-05-06T06:44:28.095Z</time>
      </trkpt>
      <trkpt lat="49.38971" lon="1.14552">
        <ele>186.1</ele>
        <time>2012-05-06T06:44:30.094Z</time>
      </trkpt>
      <trkpt lat="49.3897" lon="1.14559">
        <ele>186.1</ele>
        <time>2012-05-06T06:44:31.092Z</time>
      </trkpt>
      <trkpt lat="49.3897" lon="1.14566">
        <ele>186.4</ele>
        <time>2012-05-06T06:44:32.091Z</time>
      </trkpt>
      <trkpt lat="49.38969" lon="1.14573">
        <ele>186.7</ele>
        <time>2012-05-06T06:44:33.095Z</time>
      </trkpt>
      <trkpt lat="49.38969" lon="1.1458">
        <ele>186.9</ele>
        <time>2012-05-06T06:44:34.089Z</time>
      </trkpt>
      <trkpt lat="49.38969" lon="1.14587">
        <ele>187.4</ele>
        <time>2012-05-06T06:44:35.091Z</time>
      </trkpt>
      <trkpt lat="49.38969" lon="1.14594">
        <ele>187.9</ele>
        <time>2012-05-06T06:44:36.083Z</time>
      </trkpt>
      <trkpt lat="49.38968" lon="1.14607">
        <ele>188.2</ele>
        <time>2012-05-06T06:44:38.085Z</time>
      </trkpt>
      <trkpt lat="49.38968" lon="1.14621">
        <ele>188.4</ele>
        <time>2012-05-06T06:44:40.075Z</time>
      </trkpt>
      <trkpt lat="49.38968" lon="1.14628">
        <ele>188.8</ele>
        <time>2012-05-06T06:44:41.090Z</time>
      </trkpt>
      <trkpt lat="49.38968" lon="1.14641">
        <ele>189</ele>
        <time>2012-05-06T06:44:43.088Z</time>
      </trkpt>
      <trkpt lat="49.38967" lon="1.14654">
        <ele>189.7</ele>
        <time>2012-05-06T06:44:45.090Z</time>
      </trkpt>
      <trkpt lat="49.38967" lon="1.14661">
        <ele>189.9</ele>
        <time>2012-05-06T06:44:46.079Z</time>
      </trkpt>
      <trkpt lat="49.38967" lon="1.14668">
        <ele>189.6</ele>
        <time>2012-05-06T06:44:47.096Z</time>
      </trkpt>
      <trkpt lat="49.38968" lon="1.14681">
        <ele>189.7</ele>
        <time>2012-05-06T06:44:49.091Z</time>
      </trkpt>
      <trkpt lat="49.38968" lon="1.14695">
        <ele>189.9</ele>
        <time>2012-05-06T06:44:51.092Z</time>
      </trkpt>
      <trkpt lat="49.38968" lon="1.14702">
        <ele>189.9</ele>
        <time>2012-05-06T06:44:52.094Z</time>
      </trkpt>
      <trkpt lat="49.38969" lon="1.14709">
        <ele>189.9</ele>
        <time>2012-05-06T06:44:53.093Z</time>
      </trkpt>
      <trkpt lat="49.38969" lon="1.14717">
        <ele>190</ele>
        <time>2012-05-06T06:44:54.092Z</time>
      </trkpt>
      <trkpt lat="49.3897" lon="1.14724">
        <ele>190.3</ele>
        <time>2012-05-06T06:44:55.096Z</time>
      </trkpt>
      <trkpt lat="49.3897" lon="1.14731">
        <ele>190.3</ele>
        <time>2012-05-06T06:44:56.092Z</time>
      </trkpt>
      <trkpt lat="49.3897" lon="1.14738">
        <ele>190.4</ele>
        <time>2012-05-06T06:44:57.096Z</time>
      </trkpt>
      <trkpt lat="49.3897" lon="1.14746">
        <ele>190.2</ele>
        <time>2012-05-06T06:44:58.095Z</time>
      </trkpt>
      <trkpt lat="49.38971" lon="1.14759">
        <ele>190.2</ele>
        <time>2012-05-06T06:45:00.096Z</time>
      </trkpt>
      <trkpt lat="49.38972" lon="1.14766">
        <ele>189.8</ele>
        <time>2012-05-06T06:45:01.094Z</time>
      </trkpt>
      <trkpt lat="49.38973" lon="1.14773">
        <ele>189.8</ele>
        <time>2012-05-06T06:45:02.095Z</time>
      </trkpt>
      <trkpt lat="49.38974" lon="1.1478">
        <ele>189.6</ele>
        <time>2012-05-06T06:45:03.098Z</time>
      </trkpt>
      <trkpt lat="49.38976" lon="1.14794">
        <ele>189.5</ele>
        <time>2012-05-06T06:45:05.096Z</time>
      </trkpt>
      <trkpt lat="49.38978" lon="1.14807">
        <ele>189.4</ele>
        <time>2012-05-06T06:45:07.097Z</time>
      </trkpt>
      <trkpt lat="49.38978" lon="1.14814">
        <ele>189.2</ele>
        <time>2012-05-06T06:45:08.096Z</time>
      </trkpt>
      <trkpt lat="49.38979" lon="1.14821">
        <ele>188.9</ele>
        <time>2012-05-06T06:45:09.082Z</time>
      </trkpt>
      <trkpt lat="49.38979" lon="1.14828">
        <ele>188.5</ele>
        <time>2012-05-06T06:45:10.084Z</time>
      </trkpt>
      <trkpt lat="49.38981" lon="1.14835">
        <ele>189</ele>
        <time>2012-05-06T06:45:11.095Z</time>
      </trkpt>
      <trkpt lat="49.38982" lon="1.14849">
        <ele>189</ele>
        <time>2012-05-06T06:45:13.091Z</time>
      </trkpt>
      <trkpt lat="49.38984" lon="1.14856">
        <ele>189</ele>
        <time>2012-05-06T06:45:14.089Z</time>
      </trkpt>
      <trkpt lat="49.38984" lon="1.14864">
        <ele>189</ele>
        <time>2012-05-06T06:45:15.080Z</time>
      </trkpt>
      <trkpt lat="49.38985" lon="1.14871">
        <ele>189</ele>
        <time>2012-05-06T06:45:16.092Z</time>
      </trkpt>
      <trkpt lat="49.38986" lon="1.14879">
        <ele>189</ele>
        <time>2012-05-06T06:45:17.081Z</time>
      </trkpt>
      <trkpt lat="49.38987" lon="1.14886">
        <ele>188.5</ele>
        <time>2012-05-06T06:45:18.094Z</time>
      </trkpt>
      <trkpt lat="49.38988" lon="1.14894">
        <ele>188.3</ele>
        <time>2012-05-06T06:45:19.093Z</time>
      </trkpt>
      <trkpt lat="49.38988" lon="1.14902">
        <ele>188.5</ele>
        <time>2012-05-06T06:45:20.094Z</time>
      </trkpt>
      <trkpt lat="49.38989" lon="1.1491">
        <ele>188.2</ele>
        <time>2012-05-06T06:45:21.092Z</time>
      </trkpt>
      <trkpt lat="49.3899" lon="1.14918">
        <ele>188.3</ele>
        <time>2012-05-06T06:45:22.081Z</time>
      </trkpt>
      <trkpt lat="49.38991" lon="1.14925">
        <ele>188</ele>
        <time>2012-05-06T06:45:23.092Z</time>
      </trkpt>
      <trkpt lat="49.38992" lon="1.14933">
        <ele>187.5</ele>
        <time>2012-05-06T06:45:24.094Z</time>
      </trkpt>
      <trkpt lat="49.38993" lon="1.14941">
        <ele>187.1</ele>
        <time>2012-05-06T06:45:25.093Z</time>
      </trkpt>
      <trkpt lat="49.38994" lon="1.14949">
        <ele>187.3</ele>
        <time>2012-05-06T06:45:26.091Z</time>
      </trkpt>
      <trkpt lat="49.38995" lon="1.14957">
        <ele>187.2</ele>
        <time>2012-05-06T06:45:27.081Z</time>
      </trkpt>
      <trkpt lat="49.38996" lon="1.14965">
        <ele>187.3</ele>
        <time>2012-05-06T06:45:28.087Z</time>
      </trkpt>
      <trkpt lat="49.38997" lon="1.14973">
        <ele>187.3</ele>
        <time>2012-05-06T06:45:29.095Z</time>
      </trkpt>
      <trkpt lat="49.38998" lon="1.14981">
        <ele>187.3</ele>
        <time>2012-05-06T06:45:30.096Z</time>
      </trkpt>
      <trkpt lat="49.38999" lon="1.1499">
        <ele>187.3</ele>
        <time>2012-05-06T06:45:31.088Z</time>
      </trkpt>
      <trkpt lat="49.39" lon="1.14997">
        <ele>187.6</ele>
        <time>2012-05-06T06:45:32.094Z</time>
      </trkpt>
      <trkpt lat="49.39002" lon="1.15005">
        <ele>187.7</ele>
        <time>2012-05-06T06:45:33.093Z</time>
      </trkpt>
      <trkpt lat="49.39003" lon="1.15013">
        <ele>187.7</ele>
        <time>2012-05-06T06:45:34.096Z</time>
      </trkpt>
      <trkpt lat="49.39004" lon="1.15021">
        <ele>187.4</ele>
        <time>2012-05-06T06:45:35.096Z</time>
      </trkpt>
      <trkpt lat="49.39005" lon="1.15029">
        <ele>187.8</ele>
        <time>2012-05-06T06:45:36.086Z</time>
      </trkpt>
      <trkpt lat="49.39007" lon="1.15037">
        <ele>187.8</ele>
        <time>2012-05-06T06:45:37.092Z</time>
      </trkpt>
      <trkpt lat="49.39008" lon="1.15044">
        <ele>187.7</ele>
        <time>2012-05-06T06:45:38.096Z</time>
      </trkpt>
      <trkpt lat="49.3901" lon="1.15052">
        <ele>187.8</ele>
        <time>2012-05-06T06:45:39.093Z</time>
      </trkpt>
      <trkpt lat="49.39011" lon="1.1506">
        <ele>188</ele>
        <time>2012-05-06T06:45:40.096Z</time>
      </trkpt>
      <trkpt lat="49.39013" lon="1.15068">
        <ele>187.7</ele>
        <time>2012-05-06T06:45:41.084Z</time>
      </trkpt>
      <trkpt lat="49.39015" lon="1.15076">
        <ele>187.3</ele>
        <time>2012-05-06T06:45:42.095Z</time>
      </trkpt>
      <trkpt lat="49.39016" lon="1.15084">
        <ele>187</ele>
        <time>2012-05-06T06:45:43.095Z</time>
      </trkpt>
      <trkpt lat="49.39018" lon="1.15092">
        <ele>187.3</ele>
        <time>2012-05-06T06:45:44.096Z</time>
      </trkpt>
      <trkpt lat="49.3902" lon="1.151">
        <ele>187.2</ele>
        <time>2012-05-06T06:45:45.089Z</time>
      </trkpt>
      <trkpt lat="49.39022" lon="1.15108">
        <ele>187.4</ele>
        <time>2012-05-06T06:45:46.091Z</time>
      </trkpt>
      <trkpt lat="49.39023" lon="1.15116">
        <ele>187.2</ele>
        <time>2012-05-06T06:45:47.089Z</time>
      </trkpt>
      <trkpt lat="49.39025" lon="1.15124">
        <ele>186.9</ele>
        <time>2012-05-06T06:45:48.092Z</time>
      </trkpt>
      <trkpt lat="49.39028" lon="1.15137">
        <ele>186.9</ele>
        <time>2012-05-06T06:45:49.787Z</time>
      </trkpt>
      <trkpt lat="49.39029" lon="1.15145">
        <ele>186.9</ele>
        <time>2012-05-06T06:45:50.787Z</time>
      </trkpt>
      <trkpt lat="49.3903" lon="1.15154">
        <ele>186.8</ele>
        <time>2012-05-06T06:45:51.787Z</time>
      </trkpt>
      <trkpt lat="49.39032" lon="1.15166">
        <ele>186.5</ele>
        <time>2012-05-06T06:45:53.093Z</time>
      </trkpt>
      <trkpt lat="49.39033" lon="1.15174">
        <ele>186.6</ele>
        <time>2012-05-06T06:45:54.090Z</time>
      </trkpt>
      <trkpt lat="49.39035" lon="1.15182">
        <ele>186.2</ele>
        <time>2012-05-06T06:45:55.090Z</time>
      </trkpt>
      <trkpt lat="49.39036" lon="1.15191">
        <ele>186.3</ele>
        <time>2012-05-06T06:45:56.093Z</time>
      </trkpt>
      <trkpt lat="49.39037" lon="1.152">
        <ele>186.3</ele>
        <time>2012-05-06T06:45:57.093Z</time>
      </trkpt>
      <trkpt lat="49.39038" lon="1.15209">
        <ele>186.5</ele>
        <time>2012-05-06T06:45:58.079Z</time>
      </trkpt>
      <trkpt lat="49.39039" lon="1.15218">
        <ele>186.4</ele>
        <time>2012-05-06T06:45:59.093Z</time>
      </trkpt>
      <trkpt lat="49.39041" lon="1.15227">
        <ele>186</ele>
        <time>2012-05-06T06:46:00.091Z</time>
      </trkpt>
      <trkpt lat="49.39042" lon="1.15235">
        <ele>185.5</ele>
        <time>2012-05-06T06:46:01.090Z</time>
      </trkpt>
      <trkpt lat="49.39044" lon="1.15242">
        <ele>186.2</ele>
        <time>2012-05-06T06:46:02.095Z</time>
      </trkpt>
      <trkpt lat="49.39045" lon="1.1525">
        <ele>186.1</ele>
        <time>2012-05-06T06:46:03.086Z</time>
      </trkpt>
      <trkpt lat="49.39046" lon="1.15258">
        <ele>186.1</ele>
        <time>2012-05-06T06:46:04.094Z</time>
      </trkpt>
      <trkpt lat="49.39046" lon="1.15265">
        <ele>186.7</ele>
        <time>2012-05-06T06:46:05.093Z</time>
      </trkpt>
      <trkpt lat="49.39047" lon="1.15273">
        <ele>187</ele>
        <time>2012-05-06T06:46:06.097Z</time>
      </trkpt>
      <trkpt lat="49.39048" lon="1.1528">
        <ele>186.9</ele>
        <time>2012-05-06T06:46:07.095Z</time>
      </trkpt>
      <trkpt lat="49.39048" lon="1.15287">
        <ele>187.3</ele>
        <time>2012-05-06T06:46:08.085Z</time>
      </trkpt>
      <trkpt lat="49.39049" lon="1.15294">
        <ele>187.5</ele>
        <time>2012-05-06T06:46:09.094Z</time>
      </trkpt>
      <trkpt lat="49.3905" lon="1.153">
        <ele>187.4</ele>
        <time>2012-05-06T06:46:10.090Z</time>
      </trkpt>
      <trkpt lat="49.39052" lon="1.15314">
        <ele>188</ele>
        <time>2012-05-06T06:46:12.082Z</time>
      </trkpt>
      <trkpt lat="49.39052" lon="1.15321">
        <ele>187.9</ele>
        <time>2012-05-06T06:46:13.095Z</time>
      </trkpt>
      <trkpt lat="49.39054" lon="1.15328">
        <ele>187.9</ele>
        <time>2012-05-06T06:46:14.099Z</time>
      </trkpt>
      <trkpt lat="49.39055" lon="1.15341">
        <ele>189</ele>
        <time>2012-05-06T06:46:16.095Z</time>
      </trkpt>
      <trkpt lat="49.39058" lon="1.15354">
        <ele>189.2</ele>
        <time>2012-05-06T06:46:18.093Z</time>
      </trkpt>
      <trkpt lat="49.39059" lon="1.1536">
        <ele>189.1</ele>
        <time>2012-05-06T06:46:19.091Z</time>
      </trkpt>
      <trkpt lat="49.3906" lon="1.15368">
        <ele>188.9</ele>
        <time>2012-05-06T06:46:20.089Z</time>
      </trkpt>
      <trkpt lat="49.39061" lon="1.15374">
        <ele>188.8</ele>
        <time>2012-05-06T06:46:21.082Z</time>
      </trkpt>
      <trkpt lat="49.39062" lon="1.15381">
        <ele>188.9</ele>
        <time>2012-05-06T06:46:22.084Z</time>
      </trkpt>
      <trkpt lat="49.39063" lon="1.15388">
        <ele>189.4</ele>
        <time>2012-05-06T06:46:23.094Z</time>
      </trkpt>
      <trkpt lat="49.39066" lon="1.15402">
        <ele>190.4</ele>
        <time>2012-05-06T06:46:25.096Z</time>
      </trkpt>
      <trkpt lat="49.39068" lon="1.15409">
        <ele>190.7</ele>
        <time>2012-05-06T06:46:26.097Z</time>
      </trkpt>
      <trkpt lat="49.3907" lon="1.15423">
        <ele>190.7</ele>
        <time>2012-05-06T06:46:28.094Z</time>
      </trkpt>
      <trkpt lat="49.39072" lon="1.15431">
        <ele>191.4</ele>
        <time>2012-05-06T06:46:29.093Z</time>
      </trkpt>
      <trkpt lat="49.39074" lon="1.15437">
        <ele>192.2</ele>
        <time>2012-05-06T06:46:30.093Z</time>
      </trkpt>
      <trkpt lat="49.39075" lon="1.15444">
        <ele>192.4</ele>
        <time>2012-05-06T06:46:31.089Z</time>
      </trkpt>
      <trkpt lat="49.39078" lon="1.15451">
        <ele>192.7</ele>
        <time>2012-05-06T06:46:32.082Z</time>
      </trkpt>
      <trkpt lat="49.39081" lon="1.15458">
        <ele>193.2</ele>
        <time>2012-05-06T06:46:33.095Z</time>
      </trkpt>
      <trkpt lat="49.39082" lon="1.15464">
        <ele>192.1</ele>
        <time>2012-05-06T06:46:34.091Z</time>
      </trkpt>
      <trkpt lat="49.39086" lon="1.15479">
        <ele>193.6</ele>
        <time>2012-05-06T06:46:36.094Z</time>
      </trkpt>
      <trkpt lat="49.39088" lon="1.15485">
        <ele>193.7</ele>
        <time>2012-05-06T06:46:37.089Z</time>
      </trkpt>
      <trkpt lat="49.39089" lon="1.15498">
        <ele>193.2</ele>
        <time>2012-05-06T06:46:39.079Z</time>
      </trkpt>
      <trkpt lat="49.3909" lon="1.15505">
        <ele>192.8</ele>
        <time>2012-05-06T06:46:40.085Z</time>
      </trkpt>
      <trkpt lat="49.39093" lon="1.15518">
        <ele>193.4</ele>
        <time>2012-05-06T06:46:42.091Z</time>
      </trkpt>
      <trkpt lat="49.39094" lon="1.15525">
        <ele>193.2</ele>
        <time>2012-05-06T06:46:43.082Z</time>
      </trkpt>
      <trkpt lat="49.39096" lon="1.15532">
        <ele>193.4</ele>
        <time>2012-05-06T06:46:44.096Z</time>
      </trkpt>
      <trkpt lat="49.39097" lon="1.1554">
        <ele>193</ele>
        <time>2012-05-06T06:46:45.092Z</time>
      </trkpt>
      <trkpt lat="49.39099" lon="1.15546">
        <ele>192.7</ele>
        <time>2012-05-06T06:46:46.094Z</time>
      </trkpt>
      <trkpt lat="49.39101" lon="1.15553">
        <ele>193</ele>
        <time>2012-05-06T06:46:47.090Z</time>
      </trkpt>
      <trkpt lat="49.39102" lon="1.15559">
        <ele>193.3</ele>
        <time>2012-05-06T06:46:48.082Z</time>
      </trkpt>
      <trkpt lat="49.39104" lon="1.15566">
        <ele>193</ele>
        <time>2012-05-06T06:46:49.091Z</time>
      </trkpt>
      <trkpt lat="49.39106" lon="1.15573">
        <ele>192.6</ele>
        <time>2012-05-06T06:46:50.093Z</time>
      </trkpt>
      <trkpt lat="49.39107" lon="1.1558">
        <ele>192.6</ele>
        <time>2012-05-06T06:46:51.090Z</time>
      </trkpt>
      <trkpt lat="49.39109" lon="1.15587">
        <ele>192.8</ele>
        <time>2012-05-06T06:46:52.090Z</time>
      </trkpt>
      <trkpt lat="49.3911" lon="1.15594">
        <ele>192.9</ele>
        <time>2012-05-06T06:46:53.084Z</time>
      </trkpt>
      <trkpt lat="49.39112" lon="1.15601">
        <ele>193.2</ele>
        <time>2012-05-06T06:46:54.084Z</time>
      </trkpt>
      <trkpt lat="49.39114" lon="1.15608">
        <ele>193.1</ele>
        <time>2012-05-06T06:46:55.091Z</time>
      </trkpt>
      <trkpt lat="49.39116" lon="1.15615">
        <ele>192.9</ele>
        <time>2012-05-06T06:46:56.095Z</time>
      </trkpt>
      <trkpt lat="49.39117" lon="1.15622">
        <ele>192.6</ele>
        <time>2012-05-06T06:46:57.091Z</time>
      </trkpt>
      <trkpt lat="49.39119" lon="1.1563">
        <ele>192.5</ele>
        <time>2012-05-06T06:46:58.083Z</time>
      </trkpt>
      <trkpt lat="49.3912" lon="1.15637">
        <ele>192.4</ele>
        <time>2012-05-06T06:46:59.093Z</time>
      </trkpt>
      <trkpt lat="49.39122" lon="1.15644">
        <ele>192</ele>
        <time>2012-05-06T06:47:00.092Z</time>
      </trkpt>
      <trkpt lat="49.39124" lon="1.15651">
        <ele>192.3</ele>
        <time>2012-05-06T06:47:01.094Z</time>
      </trkpt>
      <trkpt lat="49.39125" lon="1.15658">
        <ele>192.5</ele>
        <time>2012-05-06T06:47:02.077Z</time>
      </trkpt>
      <trkpt lat="49.39127" lon="1.15665">
        <ele>192.6</ele>
        <time>2012-05-06T06:47:03.091Z</time>
      </trkpt>
      <trkpt lat="49.39129" lon="1.15672">
        <ele>192.4</ele>
        <time>2012-05-06T06:47:04.091Z</time>
      </trkpt>
      <trkpt lat="49.3913" lon="1.1568">
        <ele>192.3</ele>
        <time>2012-05-06T06:47:05.090Z</time>
      </trkpt>
      <trkpt lat="49.39132" lon="1.15687">
        <ele>192.2</ele>
        <time>2012-05-06T06:47:06.094Z</time>
      </trkpt>
      <trkpt lat="49.39134" lon="1.15694">
        <ele>192.4</ele>
        <time>2012-05-06T06:47:07.079Z</time>
      </trkpt>
      <trkpt lat="49.39135" lon="1.15701">
        <ele>192.4</ele>
        <time>2012-05-06T06:47:08.092Z</time>
      </trkpt>
      <trkpt lat="49.39137" lon="1.15708">
        <ele>192.3</ele>
        <time>2012-05-06T06:47:09.095Z</time>
      </trkpt>
      <trkpt lat="49.39138" lon="1.15716">
        <ele>192.5</ele>
        <time>2012-05-06T06:47:10.095Z</time>
      </trkpt>
      <trkpt lat="49.3914" lon="1.15724">
        <ele>192.2</ele>
        <time>2012-05-06T06:47:11.092Z</time>
      </trkpt>
      <trkpt lat="49.39142" lon="1.15731">
        <ele>191.8</ele>
        <time>2012-05-06T06:47:12.094Z</time>
      </trkpt>
      <trkpt lat="49.39145" lon="1.15743">
        <ele>191.9</ele>
        <time>2012-05-06T06:47:14.093Z</time>
      </trkpt>
      <trkpt lat="49.39143" lon="1.15752">
        <ele>191.2</ele>
        <time>2012-05-06T06:47:16.092Z</time>
      </trkpt>
      <trkpt lat="49.39137" lon="1.15757">
        <ele>190.4</ele>
        <time>2012-05-06T06:47:18.093Z</time>
      </trkpt>
      <trkpt lat="49.39131" lon="1.15762">
        <ele>189.5</ele>
        <time>2012-05-06T06:47:20.092Z</time>
      </trkpt>
      <trkpt lat="49.39124" lon="1.15768">
        <ele>189.1</ele>
        <time>2012-05-06T06:47:22.092Z</time>
      </trkpt>
      <trkpt lat="49.39117" lon="1.15772">
        <ele>188.5</ele>
        <time>2012-05-06T06:47:24.095Z</time>
      </trkpt>
      <trkpt lat="49.39111" lon="1.15776">
        <ele>187.9</ele>
        <time>2012-05-06T06:47:26.090Z</time>
      </trkpt>
      <trkpt lat="49.39105" lon="1.15781">
        <ele>187.6</ele>
        <time>2012-05-06T06:47:28.097Z</time>
      </trkpt>
      <trkpt lat="49.39099" lon="1.15786">
        <ele>187.2</ele>
        <time>2012-05-06T06:47:30.094Z</time>
      </trkpt>
      <trkpt lat="49.39093" lon="1.1579">
        <ele>187.1</ele>
        <time>2012-05-06T06:47:32.093Z</time>
      </trkpt>
      <trkpt lat="49.39088" lon="1.15794">
        <ele>186.7</ele>
        <time>2012-05-06T06:47:34.077Z</time>
      </trkpt>
      <trkpt lat="49.39083" lon="1.15798">
        <ele>186.4</ele>
        <time>2012-05-06T06:47:36.094Z</time>
      </trkpt>
      <trkpt lat="49.39077" lon="1.15803">
        <ele>186.3</ele>
        <time>2012-05-06T06:47:38.092Z</time>
      </trkpt>
      <trkpt lat="49.3907" lon="1.15809">
        <ele>186.2</ele>
        <time>2012-05-06T06:47:40.089Z</time>
      </trkpt>
      <trkpt lat="49.39066" lon="1.15812">
        <ele>186.1</ele>
        <time>2012-05-06T06:47:41.094Z</time>
      </trkpt>
      <trkpt lat="49.39059" lon="1.15818">
        <ele>185.7</ele>
        <time>2012-05-06T06:47:43.096Z</time>
      </trkpt>
      <trkpt lat="49.39055" lon="1.15822">
        <ele>185.4</ele>
        <time>2012-05-06T06:47:44.094Z</time>
      </trkpt>
      <trkpt lat="49.39051" lon="1.15825">
        <ele>185.2</ele>
        <time>2012-05-06T06:47:45.095Z</time>
      </trkpt>
      <trkpt lat="49.39047" lon="1.15829">
        <ele>185.3</ele>
        <time>2012-05-06T06:47:46.096Z</time>
      </trkpt>
      <trkpt lat="49.39043" lon="1.15832">
        <ele>185.5</ele>
        <time>2012-05-06T06:47:47.089Z</time>
      </trkpt>
      <trkpt lat="49.39038" lon="1.15835">
        <ele>185.7</ele>
        <time>2012-05-06T06:47:48.085Z</time>
      </trkpt>
      <trkpt lat="49.39034" lon="1.15839">
        <ele>185.6</ele>
        <time>2012-05-06T06:47:49.086Z</time>
      </trkpt>
      <trkpt lat="49.3903" lon="1.15842">
        <ele>185.3</ele>
        <time>2012-05-06T06:47:50.096Z</time>
      </trkpt>
      <trkpt lat="49.39026" lon="1.15846">
        <ele>184.8</ele>
        <time>2012-05-06T06:47:51.093Z</time>
      </trkpt>
      <trkpt lat="49.39021" lon="1.15849">
        <ele>184.6</ele>
        <time>2012-05-06T06:47:52.082Z</time>
      </trkpt>
      <trkpt lat="49.39014" lon="1.15854">
        <ele>184.5</ele>
        <time>2012-05-06T06:47:54.097Z</time>
      </trkpt>
      <trkpt lat="49.39007" lon="1.1586">
        <ele>184.3</ele>
        <time>2012-05-06T06:47:56.090Z</time>
      </trkpt>
      <trkpt lat="49.39" lon="1.15866">
        <ele>184.2</ele>
        <time>2012-05-06T06:47:58.089Z</time>
      </trkpt>
      <trkpt lat="49.38992" lon="1.15872">
        <ele>183.8</ele>
        <time>2012-05-06T06:48:00.094Z</time>
      </trkpt>
      <trkpt lat="49.38984" lon="1.15878">
        <ele>183</ele>
        <time>2012-05-06T06:48:02.084Z</time>
      </trkpt>
      <trkpt lat="49.38976" lon="1.15882">
        <ele>182.4</ele>
        <time>2012-05-06T06:48:04.092Z</time>
      </trkpt>
      <trkpt lat="49.3897" lon="1.15885">
        <ele>181.7</ele>
        <time>2012-05-06T06:48:06.081Z</time>
      </trkpt>
      <trkpt lat="49.38966" lon="1.1588">
        <ele>180.7</ele>
        <time>2012-05-06T06:48:08.094Z</time>
      </trkpt>
      <trkpt lat="49.38961" lon="1.15874">
        <ele>179.8</ele>
        <time>2012-05-06T06:48:10.096Z</time>
      </trkpt>
      <trkpt lat="49.38955" lon="1.15869">
        <ele>179.2</ele>
        <time>2012-05-06T06:48:12.090Z</time>
      </trkpt>
      <trkpt lat="49.3895" lon="1.15867">
        <ele>179.7</ele>
        <time>2012-05-06T06:48:14.092Z</time>
      </trkpt>
      <trkpt lat="49.38946" lon="1.15874">
        <ele>179.7</ele>
        <time>2012-05-06T06:48:16.085Z</time>
      </trkpt>
      <trkpt lat="49.38944" lon="1.15882">
        <ele>179.2</ele>
        <time>2012-05-06T06:48:18.091Z</time>
      </trkpt>
      <trkpt lat="49.38941" lon="1.1589">
        <ele>180.1</ele>
        <time>2012-05-06T06:48:20.081Z</time>
      </trkpt>
      <trkpt lat="49.38938" lon="1.15895">
        <ele>178.5</ele>
        <time>2012-05-06T06:48:21.089Z</time>
      </trkpt>
      <trkpt lat="49.38934" lon="1.15903">
        <ele>177.5</ele>
        <time>2012-05-06T06:48:23.086Z</time>
      </trkpt>
      <trkpt lat="49.38929" lon="1.15907">
        <ele>176.4</ele>
        <time>2012-05-06T06:48:25.090Z</time>
      </trkpt>
      <trkpt lat="49.38923" lon="1.15917">
        <ele>173.9</ele>
        <time>2012-05-06T06:48:27.095Z</time>
      </trkpt>
      <trkpt lat="49.38917" lon="1.15929">
        <ele>173.2</ele>
        <time>2012-05-06T06:48:29.078Z</time>
      </trkpt>
      <trkpt lat="49.38914" lon="1.15936">
        <ele>172.9</ele>
        <time>2012-05-06T06:48:30.079Z</time>
      </trkpt>
      <trkpt lat="49.38912" lon="1.15946">
        <ele>172.3</ele>
        <time>2012-05-06T06:48:31.094Z</time>
      </trkpt>
      <trkpt lat="49.3891" lon="1.15956">
        <ele>172.7</ele>
        <time>2012-05-06T06:48:32.098Z</time>
      </trkpt>
      <trkpt lat="49.38909" lon="1.15967">
        <ele>172.3</ele>
        <time>2012-05-06T06:48:33.206Z</time>
      </trkpt>
      <trkpt lat="49.38909" lon="1.15977">
        <ele>172.1</ele>
        <time>2012-05-06T06:48:34.206Z</time>
      </trkpt>
      <trkpt lat="49.38912" lon="1.15986">
        <ele>169.3</ele>
        <time>2012-05-06T06:48:35.206Z</time>
      </trkpt>
      <trkpt lat="49.38912" lon="1.15996">
        <ele>168.5</ele>
        <time>2012-05-06T06:48:36.206Z</time>
      </trkpt>
      <trkpt lat="49.38913" lon="1.16006">
        <ele>168</ele>
        <time>2012-05-06T06:48:37.206Z</time>
      </trkpt>
      <trkpt lat="49.38913" lon="1.16015">
        <ele>167.1</ele>
        <time>2012-05-06T06:48:38.206Z</time>
      </trkpt>
      <trkpt lat="49.38916" lon="1.16022">
        <ele>165.9</ele>
        <time>2012-05-06T06:48:39.206Z</time>
      </trkpt>
      <trkpt lat="49.3892" lon="1.16037">
        <ele>165.1</ele>
        <time>2012-05-06T06:48:41.080Z</time>
      </trkpt>
      <trkpt lat="49.38924" lon="1.16047">
        <ele>164.8</ele>
        <time>2012-05-06T06:48:42.080Z</time>
      </trkpt>
      <trkpt lat="49.38934" lon="1.16064">
        <ele>163.2</ele>
        <time>2012-05-06T06:48:44.090Z</time>
      </trkpt>
      <trkpt lat="49.38939" lon="1.16074">
        <ele>163.6</ele>
        <time>2012-05-06T06:48:45.091Z</time>
      </trkpt>
      <trkpt lat="49.38944" lon="1.16084">
        <ele>163.3</ele>
        <time>2012-05-06T06:48:46.076Z</time>
      </trkpt>
      <trkpt lat="49.38951" lon="1.16094">
        <ele>163.4</ele>
        <time>2012-05-06T06:48:47.092Z</time>
      </trkpt>
      <trkpt lat="49.38951" lon="1.16108">
        <ele>165.8</ele>
        <time>2012-05-06T06:48:48.089Z</time>
      </trkpt>
      <trkpt lat="49.38952" lon="1.16122">
        <ele>167.7</ele>
        <time>2012-05-06T06:48:49.080Z</time>
      </trkpt>
      <trkpt lat="49.38959" lon="1.16124">
        <ele>165.6</ele>
        <time>2012-05-06T06:48:50.089Z</time>
      </trkpt>
      <trkpt lat="49.38962" lon="1.16131">
        <ele>164.5</ele>
        <time>2012-05-06T06:48:51.089Z</time>
      </trkpt>
      <trkpt lat="49.38966" lon="1.16137">
        <ele>163.2</ele>
        <time>2012-05-06T06:48:52.083Z</time>
      </trkpt>
      <trkpt lat="49.38969" lon="1.16142">
        <ele>161.8</ele>
        <time>2012-05-06T06:48:53.091Z</time>
      </trkpt>
      <trkpt lat="49.3897" lon="1.16151">
        <ele>161.6</ele>
        <time>2012-05-06T06:48:54.094Z</time>
      </trkpt>
      <trkpt lat="49.38974" lon="1.16159">
        <ele>161.2</ele>
        <time>2012-05-06T06:48:55.086Z</time>
      </trkpt>
      <trkpt lat="49.38981" lon="1.16166">
        <ele>160.7</ele>
        <time>2012-05-06T06:48:56.083Z</time>
      </trkpt>
      <trkpt lat="49.38983" lon="1.16175">
        <ele>160.7</ele>
        <time>2012-05-06T06:48:57.091Z</time>
      </trkpt>
      <trkpt lat="49.38984" lon="1.16182">
        <ele>160.3</ele>
        <time>2012-05-06T06:48:58.091Z</time>
      </trkpt>
      <trkpt lat="49.38986" lon="1.16191">
        <ele>160.6</ele>
        <time>2012-05-06T06:48:59.083Z</time>
      </trkpt>
      <trkpt lat="49.38991" lon="1.162">
        <ele>160.5</ele>
        <time>2012-05-06T06:49:00.090Z</time>
      </trkpt>
      <trkpt lat="49.38993" lon="1.16208">
        <ele>160.7</ele>
        <time>2012-05-06T06:49:01.084Z</time>
      </trkpt>
      <trkpt lat="49.38995" lon="1.16218">
        <ele>160.7</ele>
        <time>2012-05-06T06:49:02.083Z</time>
      </trkpt>
      <trkpt lat="49.38999" lon="1.16226">
        <ele>160.7</ele>
        <time>2012-05-06T06:49:03.089Z</time>
      </trkpt>
      <trkpt lat="49.39002" lon="1.16237">
        <ele>157.2</ele>
        <time>2012-05-06T06:49:05.087Z</time>
      </trkpt>
      <trkpt lat="49.39005" lon="1.16247">
        <ele>155.5</ele>
        <time>2012-05-06T06:49:06.085Z</time>
      </trkpt>
      <trkpt lat="49.39011" lon="1.16258">
        <ele>151.3</ele>
        <time>2012-05-06T06:49:08.094Z</time>
      </trkpt>
      <trkpt lat="49.39013" lon="1.16265">
        <ele>151</ele>
        <time>2012-05-06T06:49:09.077Z</time>
      </trkpt>
      <trkpt lat="49.39016" lon="1.16271">
        <ele>151.4</ele>
        <time>2012-05-06T06:49:10.085Z</time>
      </trkpt>
      <trkpt lat="49.39018" lon="1.16278">
        <ele>150.9</ele>
        <time>2012-05-06T06:49:11.083Z</time>
      </trkpt>
      <trkpt lat="49.39021" lon="1.16288">
        <ele>147.7</ele>
        <time>2012-05-06T06:49:13.093Z</time>
      </trkpt>
      <trkpt lat="49.39026" lon="1.16294">
        <ele>147.3</ele>
        <time>2012-05-06T06:49:15.091Z</time>
      </trkpt>
      <trkpt lat="49.39032" lon="1.16301">
        <ele>147.3</ele>
        <time>2012-05-06T06:49:16.788Z</time>
      </trkpt>
      <trkpt lat="49.39028" lon="1.16309">
        <ele>146.9</ele>
        <time>2012-05-06T06:49:19.095Z</time>
      </trkpt>
      <trkpt lat="49.39022" lon="1.16311">
        <ele>147.3</ele>
        <time>2012-05-06T06:49:20.088Z</time>
      </trkpt>
      <trkpt lat="49.39014" lon="1.16311">
        <ele>145.2</ele>
        <time>2012-05-06T06:49:22.068Z</time>
      </trkpt>
      <trkpt lat="49.39009" lon="1.16304">
        <ele>146</ele>
        <time>2012-05-06T06:49:24.089Z</time>
      </trkpt>
      <trkpt lat="49.39005" lon="1.16298">
        <ele>148.7</ele>
        <time>2012-05-06T06:49:27.091Z</time>
      </trkpt>
      <trkpt lat="49.38999" lon="1.16292">
        <ele>149.3</ele>
        <time>2012-05-06T06:49:30.093Z</time>
      </trkpt>
      <trkpt lat="49.38994" lon="1.16285">
        <ele>148.5</ele>
        <time>2012-05-06T06:49:33.100Z</time>
      </trkpt>
      <trkpt lat="49.38984" lon="1.16277">
        <ele>145.7</ele>
        <time>2012-05-06T06:49:38.095Z</time>
      </trkpt>
      <trkpt lat="49.38976" lon="1.16268">
        <ele>143</ele>
        <time>2012-05-06T06:49:41.090Z</time>
      </trkpt>
      <trkpt lat="49.38971" lon="1.16265">
        <ele>142.1</ele>
        <time>2012-05-06T06:49:42.575Z</time>
      </trkpt>
      <trkpt lat="49.38969" lon="1.16259">
        <ele>142.3</ele>
        <time>2012-05-06T06:49:44.077Z</time>
      </trkpt>
      <trkpt lat="49.38965" lon="1.1625">
        <ele>139.9</ele>
        <time>2012-05-06T06:49:46.076Z</time>
      </trkpt>
      <trkpt lat="49.38962" lon="1.1624">
        <ele>140.3</ele>
        <time>2012-05-06T06:49:48.093Z</time>
      </trkpt>
      <trkpt lat="49.38958" lon="1.16233">
        <ele>140.3</ele>
        <time>2012-05-06T06:49:49.092Z</time>
      </trkpt>
      <trkpt lat="49.38953" lon="1.16229">
        <ele>139.4</ele>
        <time>2012-05-06T06:49:50.091Z</time>
      </trkpt>
      <trkpt lat="49.38948" lon="1.16224">
        <ele>137.5</ele>
        <time>2012-05-06T06:49:51.081Z</time>
      </trkpt>
      <trkpt lat="49.38944" lon="1.1622">
        <ele>135.7</ele>
        <time>2012-05-06T06:49:52.093Z</time>
      </trkpt>
      <trkpt lat="49.38939" lon="1.16216">
        <ele>134.6</ele>
        <time>2012-05-06T06:49:53.076Z</time>
      </trkpt>
      <trkpt lat="49.38934" lon="1.16206">
        <ele>132.4</ele>
        <time>2012-05-06T06:49:55.093Z</time>
      </trkpt>
      <trkpt lat="49.3893" lon="1.16195">
        <ele>131.5</ele>
        <time>2012-05-06T06:49:57.076Z</time>
      </trkpt>
      <trkpt lat="49.38927" lon="1.16186">
        <ele>131.7</ele>
        <time>2012-05-06T06:49:59.093Z</time>
      </trkpt>
      <trkpt lat="49.38922" lon="1.16184">
        <ele>132.5</ele>
        <time>2012-05-06T06:50:00.094Z</time>
      </trkpt>
      <trkpt lat="49.38918" lon="1.16181">
        <ele>131.1</ele>
        <time>2012-05-06T06:50:01.076Z</time>
      </trkpt>
      <trkpt lat="49.38912" lon="1.16175">
        <ele>130.7</ele>
        <time>2012-05-06T06:50:03.094Z</time>
      </trkpt>
      <trkpt lat="49.38911" lon="1.16166">
        <ele>130.3</ele>
        <time>2012-05-06T06:50:06.077Z</time>
      </trkpt>
      <trkpt lat="49.38908" lon="1.16159">
        <ele>130.3</ele>
        <time>2012-05-06T06:50:08.092Z</time>
      </trkpt>
      <trkpt lat="49.38905" lon="1.16152">
        <ele>129.5</ele>
        <time>2012-05-06T06:50:10.077Z</time>
      </trkpt>
      <trkpt lat="49.38901" lon="1.16143">
        <ele>132.4</ele>
        <time>2012-05-06T06:50:14.095Z</time>
      </trkpt>
      <trkpt lat="49.38897" lon="1.16137">
        <ele>136.4</ele>
        <time>2012-05-06T06:50:17.079Z</time>
      </trkpt>
      <trkpt lat="49.38893" lon="1.16133">
        <ele>137.2</ele>
        <time>2012-05-06T06:50:19.092Z</time>
      </trkpt>
      <trkpt lat="49.38885" lon="1.16131">
        <ele>137.5</ele>
        <time>2012-05-06T06:50:21.095Z</time>
      </trkpt>
      <trkpt lat="49.38879" lon="1.16126">
        <ele>136.1</ele>
        <time>2012-05-06T06:50:22.093Z</time>
      </trkpt>
      <trkpt lat="49.38873" lon="1.16121">
        <ele>135.5</ele>
        <time>2012-05-06T06:50:23.094Z</time>
      </trkpt>
      <trkpt lat="49.38867" lon="1.16117">
        <ele>133.9</ele>
        <time>2012-05-06T06:50:24.088Z</time>
      </trkpt>
      <trkpt lat="49.38861" lon="1.1611">
        <ele>132.3</ele>
        <time>2012-05-06T06:50:25.083Z</time>
      </trkpt>
      <trkpt lat="49.38856" lon="1.16102">
        <ele>130.7</ele>
        <time>2012-05-06T06:50:26.092Z</time>
      </trkpt>
      <trkpt lat="49.38852" lon="1.16091">
        <ele>129.9</ele>
        <time>2012-05-06T06:50:28.094Z</time>
      </trkpt>
      <trkpt lat="49.38851" lon="1.16083">
        <ele>129.8</ele>
        <time>2012-05-06T06:50:29.092Z</time>
      </trkpt>
      <trkpt lat="49.38849" lon="1.16073">
        <ele>129.4</ele>
        <time>2012-05-06T06:50:31.094Z</time>
      </trkpt>
      <trkpt lat="49.38847" lon="1.16064">
        <ele>129.3</ele>
        <time>2012-05-06T06:50:33.090Z</time>
      </trkpt>
      <trkpt lat="49.38843" lon="1.16055">
        <ele>130.1</ele>
        <time>2012-05-06T06:50:35.088Z</time>
      </trkpt>
      <trkpt lat="49.3884" lon="1.16044">
        <ele>124.4</ele>
        <time>2012-05-06T06:50:37.081Z</time>
      </trkpt>
      <trkpt lat="49.38837" lon="1.16034">
        <ele>121</ele>
        <time>2012-05-06T06:50:39.093Z</time>
      </trkpt>
      <trkpt lat="49.38834" lon="1.16024">
        <ele>119.4</ele>
        <time>2012-05-06T06:50:41.056Z</time>
      </trkpt>
      <trkpt lat="49.38832" lon="1.16017">
        <ele>119.1</ele>
        <time>2012-05-06T06:50:42.464Z</time>
      </trkpt>
      <trkpt lat="49.38835" lon="1.16004">
        <ele>120.4</ele>
        <time>2012-05-06T06:50:44.081Z</time>
      </trkpt>
      <trkpt lat="49.38837" lon="1.15998">
        <ele>121.6</ele>
        <time>2012-05-06T06:50:45.083Z</time>
      </trkpt>
      <trkpt lat="49.38841" lon="1.15988">
        <ele>122</ele>
        <time>2012-05-06T06:50:47.078Z</time>
      </trkpt>
      <trkpt lat="49.38841" lon="1.1598">
        <ele>122.4</ele>
        <time>2012-05-06T06:50:49.088Z</time>
      </trkpt>
      <trkpt lat="49.38842" lon="1.15973">
        <ele>123.4</ele>
        <time>2012-05-06T06:50:50.073Z</time>
      </trkpt>
      <trkpt lat="49.38843" lon="1.15966">
        <ele>124.3</ele>
        <time>2012-05-06T06:50:51.088Z</time>
      </trkpt>
      <trkpt lat="49.38843" lon="1.15956">
        <ele>124.3</ele>
        <time>2012-05-06T06:50:52.076Z</time>
      </trkpt>
      <trkpt lat="49.3884" lon="1.15944">
        <ele>125.9</ele>
        <time>2012-05-06T06:50:54.091Z</time>
      </trkpt>
      <trkpt lat="49.38833" lon="1.15932">
        <ele>129.3</ele>
        <time>2012-05-06T06:50:56.091Z</time>
      </trkpt>
      <trkpt lat="49.38833" lon="1.15925">
        <ele>130.9</ele>
        <time>2012-05-06T06:50:57.079Z</time>
      </trkpt>
      <trkpt lat="49.38832" lon="1.15913">
        <ele>133.1</ele>
        <time>2012-05-06T06:50:59.093Z</time>
      </trkpt>
      <trkpt lat="49.38841" lon="1.15908">
        <ele>130.5</ele>
        <time>2012-05-06T06:51:01.076Z</time>
      </trkpt>
      <trkpt lat="49.38844" lon="1.15898">
        <ele>128.9</ele>
        <time>2012-05-06T06:51:03.083Z</time>
      </trkpt>
      <trkpt lat="49.38848" lon="1.15887">
        <ele>128.6</ele>
        <time>2012-05-06T06:51:05.086Z</time>
      </trkpt>
      <trkpt lat="49.38851" lon="1.15881">
        <ele>129.8</ele>
        <time>2012-05-06T06:51:06.086Z</time>
      </trkpt>
      <trkpt lat="49.38852" lon="1.15873">
        <ele>128.7</ele>
        <time>2012-05-06T06:51:07.096Z</time>
      </trkpt>
      <trkpt lat="49.38855" lon="1.1586">
        <ele>130.3</ele>
        <time>2012-05-06T06:51:09.094Z</time>
      </trkpt>
      <trkpt lat="49.38853" lon="1.15851">
        <ele>127.3</ele>
        <time>2012-05-06T06:51:11.074Z</time>
      </trkpt>
      <trkpt lat="49.38852" lon="1.15842">
        <ele>126.3</ele>
        <time>2012-05-06T06:51:12.089Z</time>
      </trkpt>
      <trkpt lat="49.38847" lon="1.1583">
        <ele>123.9</ele>
        <time>2012-05-06T06:51:14.083Z</time>
      </trkpt>
      <trkpt lat="49.38843" lon="1.15822">
        <ele>123.6</ele>
        <time>2012-05-06T06:51:16.093Z</time>
      </trkpt>
      <trkpt lat="49.38847" lon="1.15816">
        <ele>125</ele>
        <time>2012-05-06T06:51:18.076Z</time>
      </trkpt>
      <trkpt lat="49.38848" lon="1.1581">
        <ele>126.3</ele>
        <time>2012-05-06T06:51:20.077Z</time>
      </trkpt>
      <trkpt lat="49.38849" lon="1.15802">
        <ele>122.1</ele>
        <time>2012-05-06T06:51:23.092Z</time>
      </trkpt>
      <trkpt lat="49.38849" lon="1.15793">
        <ele>120.9</ele>
        <time>2012-05-06T06:51:25.082Z</time>
      </trkpt>
      <trkpt lat="49.3885" lon="1.15781">
        <ele>121</ele>
        <time>2012-05-06T06:51:27.080Z</time>
      </trkpt>
      <trkpt lat="49.3885" lon="1.15771">
        <ele>122.6</ele>
        <time>2012-05-06T06:51:29.091Z</time>
      </trkpt>
      <trkpt lat="49.38845" lon="1.1576">
        <ele>123.1</ele>
        <time>2012-05-06T06:51:31.077Z</time>
      </trkpt>
      <trkpt lat="49.38843" lon="1.15752">
        <ele>124.1</ele>
        <time>2012-05-06T06:51:32.084Z</time>
      </trkpt>
      <trkpt lat="49.3884" lon="1.15745">
        <ele>124.1</ele>
        <time>2012-05-06T06:51:33.094Z</time>
      </trkpt>
      <trkpt lat="49.38836" lon="1.15741">
        <ele>123.5</ele>
        <time>2012-05-06T06:51:34.088Z</time>
      </trkpt>
      <trkpt lat="49.38834" lon="1.15729">
        <ele>123.9</ele>
        <time>2012-05-06T06:51:36.076Z</time>
      </trkpt>
      <trkpt lat="49.38832" lon="1.15722">
        <ele>124.1</ele>
        <time>2012-05-06T06:51:37.090Z</time>
      </trkpt>
      <trkpt lat="49.38832" lon="1.15712">
        <ele>123.3</ele>
        <time>2012-05-06T06:51:39.077Z</time>
      </trkpt>
      <trkpt lat="49.38832" lon="1.15699">
        <ele>124.6</ele>
        <time>2012-05-06T06:51:41.077Z</time>
      </trkpt>
      <trkpt lat="49.38834" lon="1.15692">
        <ele>128</ele>
        <time>2012-05-06T06:51:42.543Z</time>
      </trkpt>
      <trkpt lat="49.38837" lon="1.15684">
        <ele>127.3</ele>
        <time>2012-05-06T06:51:44.093Z</time>
      </trkpt>
      <trkpt lat="49.38837" lon="1.15676">
        <ele>128.2</ele>
        <time>2012-05-06T06:51:46.082Z</time>
      </trkpt>
      <trkpt lat="49.38835" lon="1.15669">
        <ele>128.4</ele>
        <time>2012-05-06T06:51:47.091Z</time>
      </trkpt>
      <trkpt lat="49.38831" lon="1.15664">
        <ele>128</ele>
        <time>2012-05-06T06:51:48.092Z</time>
      </trkpt>
      <trkpt lat="49.38828" lon="1.15658">
        <ele>130.2</ele>
        <time>2012-05-06T06:51:49.080Z</time>
      </trkpt>
      <trkpt lat="49.38826" lon="1.1565">
        <ele>132.7</ele>
        <time>2012-05-06T06:51:51.093Z</time>
      </trkpt>
      <trkpt lat="49.38822" lon="1.1564">
        <ele>131</ele>
        <time>2012-05-06T06:51:53.076Z</time>
      </trkpt>
      <trkpt lat="49.38819" lon="1.15633">
        <ele>129.4</ele>
        <time>2012-05-06T06:51:55.093Z</time>
      </trkpt>
      <trkpt lat="49.38816" lon="1.15626">
        <ele>125.1</ele>
        <time>2012-05-06T06:51:58.080Z</time>
      </trkpt>
      <trkpt lat="49.38814" lon="1.15614">
        <ele>129</ele>
        <time>2012-05-06T06:52:00.090Z</time>
      </trkpt>
      <trkpt lat="49.38811" lon="1.15606">
        <ele>128.9</ele>
        <time>2012-05-06T06:52:02.080Z</time>
      </trkpt>
      <trkpt lat="49.38809" lon="1.15597">
        <ele>129.4</ele>
        <time>2012-05-06T06:52:04.191Z</time>
      </trkpt>
      <trkpt lat="49.3881" lon="1.15586">
        <ele>129.7</ele>
        <time>2012-05-06T06:52:06.191Z</time>
      </trkpt>
      <trkpt lat="49.38811" lon="1.15575">
        <ele>129.9</ele>
        <time>2012-05-06T06:52:08.191Z</time>
      </trkpt>
      <trkpt lat="49.38811" lon="1.15564">
        <ele>130.5</ele>
        <time>2012-05-06T06:52:10.191Z</time>
      </trkpt>
      <trkpt lat="49.38812" lon="1.15552">
        <ele>131.8</ele>
        <time>2012-05-06T06:52:12.191Z</time>
      </trkpt>
      <trkpt lat="49.3881" lon="1.15544">
        <ele>129.9</ele>
        <time>2012-05-06T06:52:13.191Z</time>
      </trkpt>
      <trkpt lat="49.38808" lon="1.15529">
        <ele>130.1</ele>
        <time>2012-05-06T06:52:15.191Z</time>
      </trkpt>
      <trkpt lat="49.38809" lon="1.15522">
        <ele>130.9</ele>
        <time>2012-05-06T06:52:16.191Z</time>
      </trkpt>
      <trkpt lat="49.38812" lon="1.15512">
        <ele>131.9</ele>
        <time>2012-05-06T06:52:19.088Z</time>
      </trkpt>
      <trkpt lat="49.38811" lon="1.15505">
        <ele>131.6</ele>
        <time>2012-05-06T06:52:20.076Z</time>
      </trkpt>
      <trkpt lat="49.38812" lon="1.15498">
        <ele>132.3</ele>
        <time>2012-05-06T06:52:21.075Z</time>
      </trkpt>
      <trkpt lat="49.38813" lon="1.1549">
        <ele>132.7</ele>
        <time>2012-05-06T06:52:22.090Z</time>
      </trkpt>
      <trkpt lat="49.38811" lon="1.15483">
        <ele>132.5</ele>
        <time>2012-05-06T06:52:23.078Z</time>
      </trkpt>
      <trkpt lat="49.38807" lon="1.15476">
        <ele>130.8</ele>
        <time>2012-05-06T06:52:24.077Z</time>
      </trkpt>
      <trkpt lat="49.38802" lon="1.15466">
        <ele>128.8</ele>
        <time>2012-05-06T06:52:26.097Z</time>
      </trkpt>
      <trkpt lat="49.38798" lon="1.15458">
        <ele>128.4</ele>
        <time>2012-05-06T06:52:27.093Z</time>
      </trkpt>
      <trkpt lat="49.38798" lon="1.15449">
        <ele>128.1</ele>
        <time>2012-05-06T06:52:29.081Z</time>
      </trkpt>
      <trkpt lat="49.38796" lon="1.15438">
        <ele>127.9</ele>
        <time>2012-05-06T06:52:31.083Z</time>
      </trkpt>
      <trkpt lat="49.38796" lon="1.15428">
        <ele>129.1</ele>
        <time>2012-05-06T06:52:33.094Z</time>
      </trkpt>
      <trkpt lat="49.38797" lon="1.15421">
        <ele>129.8</ele>
        <time>2012-05-06T06:52:34.085Z</time>
      </trkpt>
      <trkpt lat="49.38797" lon="1.1541">
        <ele>129.3</ele>
        <time>2012-05-06T06:52:36.091Z</time>
      </trkpt>
      <trkpt lat="49.38796" lon="1.154">
        <ele>128.2</ele>
        <time>2012-05-06T06:52:38.089Z</time>
      </trkpt>
      <trkpt lat="49.38795" lon="1.15386">
        <ele>126.7</ele>
        <time>2012-05-06T06:52:41.064Z</time>
      </trkpt>
      <trkpt lat="49.38796" lon="1.15378">
        <ele>124.4</ele>
        <time>2012-05-06T06:52:42.550Z</time>
      </trkpt>
      <trkpt lat="49.38798" lon="1.15366">
        <ele>127.6</ele>
        <time>2012-05-06T06:52:45.076Z</time>
      </trkpt>
      <trkpt lat="49.38799" lon="1.15356">
        <ele>132.6</ele>
        <time>2012-05-06T06:52:47.082Z</time>
      </trkpt>
      <trkpt lat="49.38801" lon="1.15349">
        <ele>133.6</ele>
        <time>2012-05-06T06:52:49.077Z</time>
      </trkpt>
      <trkpt lat="49.38804" lon="1.15343">
        <ele>134</ele>
        <time>2012-05-06T06:52:50.076Z</time>
      </trkpt>
      <trkpt lat="49.38806" lon="1.15335">
        <ele>133.9</ele>
        <time>2012-05-06T06:52:51.091Z</time>
      </trkpt>
      <trkpt lat="49.38809" lon="1.15328">
        <ele>133.9</ele>
        <time>2012-05-06T06:52:52.076Z</time>
      </trkpt>
      <trkpt lat="49.38808" lon="1.15318">
        <ele>135</ele>
        <time>2012-05-06T06:52:54.076Z</time>
      </trkpt>
      <trkpt lat="49.38812" lon="1.15308">
        <ele>130.3</ele>
        <time>2012-05-06T06:52:56.092Z</time>
      </trkpt>
      <trkpt lat="49.38817" lon="1.15297">
        <ele>127.9</ele>
        <time>2012-05-06T06:52:58.088Z</time>
      </trkpt>
      <trkpt lat="49.38819" lon="1.15291">
        <ele>127.3</ele>
        <time>2012-05-06T06:52:59.092Z</time>
      </trkpt>
      <trkpt lat="49.38825" lon="1.15282">
        <ele>126.8</ele>
        <time>2012-05-06T06:53:01.092Z</time>
      </trkpt>
      <trkpt lat="49.38828" lon="1.15276">
        <ele>126.9</ele>
        <time>2012-05-06T06:53:02.085Z</time>
      </trkpt>
      <trkpt lat="49.38831" lon="1.15265">
        <ele>127.3</ele>
        <time>2012-05-06T06:53:04.096Z</time>
      </trkpt>
      <trkpt lat="49.38828" lon="1.15255">
        <ele>129.4</ele>
        <time>2012-05-06T06:53:06.077Z</time>
      </trkpt>
      <trkpt lat="49.38828" lon="1.15245">
        <ele>128.8</ele>
        <time>2012-05-06T06:53:08.076Z</time>
      </trkpt>
      <trkpt lat="49.38826" lon="1.15237">
        <ele>127.3</ele>
        <time>2012-05-06T06:53:09.089Z</time>
      </trkpt>
      <trkpt lat="49.38826" lon="1.1523">
        <ele>127.1</ele>
        <time>2012-05-06T06:53:10.075Z</time>
      </trkpt>
      <trkpt lat="49.38822" lon="1.15221">
        <ele>125.3</ele>
        <time>2012-05-06T06:53:11.089Z</time>
      </trkpt>
      <trkpt lat="49.38818" lon="1.15207">
        <ele>122.2</ele>
        <time>2012-05-06T06:53:13.075Z</time>
      </trkpt>
      <trkpt lat="49.38814" lon="1.15201">
        <ele>120.7</ele>
        <time>2012-05-06T06:53:14.092Z</time>
      </trkpt>
      <trkpt lat="49.38809" lon="1.15194">
        <ele>118.1</ele>
        <time>2012-05-06T06:53:15.077Z</time>
      </trkpt>
      <trkpt lat="49.38806" lon="1.15188">
        <ele>116.9</ele>
        <time>2012-05-06T06:53:16.090Z</time>
      </trkpt>
      <trkpt lat="49.38803" lon="1.15182">
        <ele>117.5</ele>
        <time>2012-05-06T06:53:17.076Z</time>
      </trkpt>
      <trkpt lat="49.388" lon="1.15176">
        <ele>116.3</ele>
        <time>2012-05-06T06:53:19.092Z</time>
      </trkpt>
      <trkpt lat="49.38799" lon="1.15167">
        <ele>116.1</ele>
        <time>2012-05-06T06:53:21.092Z</time>
      </trkpt>
      <trkpt lat="49.38797" lon="1.15157">
        <ele>108.7</ele>
        <time>2012-05-06T06:53:23.086Z</time>
      </trkpt>
      <trkpt lat="49.38793" lon="1.15146">
        <ele>106.2</ele>
        <time>2012-05-06T06:53:25.080Z</time>
      </trkpt>
      <trkpt lat="49.38792" lon="1.15135">
        <ele>106.8</ele>
        <time>2012-05-06T06:53:27.078Z</time>
      </trkpt>
      <trkpt lat="49.38791" lon="1.15124">
        <ele>108.3</ele>
        <time>2012-05-06T06:53:29.093Z</time>
      </trkpt>
      <trkpt lat="49.38785" lon="1.15111">
        <ele>108.3</ele>
        <time>2012-05-06T06:53:31.090Z</time>
      </trkpt>
      <trkpt lat="49.38781" lon="1.15108">
        <ele>108.9</ele>
        <time>2012-05-06T06:53:32.093Z</time>
      </trkpt>
      <trkpt lat="49.38775" lon="1.15104">
        <ele>111</ele>
        <time>2012-05-06T06:53:33.091Z</time>
      </trkpt>
      <trkpt lat="49.38772" lon="1.15099">
        <ele>111.6</ele>
        <time>2012-05-06T06:53:34.078Z</time>
      </trkpt>
      <trkpt lat="49.38768" lon="1.15095">
        <ele>111.9</ele>
        <time>2012-05-06T06:53:35.076Z</time>
      </trkpt>
      <trkpt lat="49.38764" lon="1.15089">
        <ele>111</ele>
        <time>2012-05-06T06:53:36.076Z</time>
      </trkpt>
      <trkpt lat="49.38758" lon="1.15078">
        <ele>113.5</ele>
        <time>2012-05-06T06:53:38.092Z</time>
      </trkpt>
      <trkpt lat="49.38755" lon="1.15072">
        <ele>112.6</ele>
        <time>2012-05-06T06:53:39.079Z</time>
      </trkpt>
      <trkpt lat="49.3875" lon="1.15062">
        <ele>113.3</ele>
        <time>2012-05-06T06:53:41.106Z</time>
      </trkpt>
      <trkpt lat="49.38746" lon="1.15054">
        <ele>112.3</ele>
        <time>2012-05-06T06:53:42.106Z</time>
      </trkpt>
      <trkpt lat="49.38736" lon="1.15037">
        <ele>108.8</ele>
        <time>2012-05-06T06:53:44.094Z</time>
      </trkpt>
      <trkpt lat="49.38731" lon="1.15032">
        <ele>107</ele>
        <time>2012-05-06T06:53:45.085Z</time>
      </trkpt>
      <trkpt lat="49.38728" lon="1.15021">
        <ele>107.3</ele>
        <time>2012-05-06T06:53:47.092Z</time>
      </trkpt>
      <trkpt lat="49.38722" lon="1.15016">
        <ele>106.5</ele>
        <time>2012-05-06T06:53:48.079Z</time>
      </trkpt>
      <trkpt lat="49.38721" lon="1.15003">
        <ele>106.2</ele>
        <time>2012-05-06T06:53:50.075Z</time>
      </trkpt>
      <trkpt lat="49.38715" lon="1.14995">
        <ele>105.8</ele>
        <time>2012-05-06T06:53:51.085Z</time>
      </trkpt>
      <trkpt lat="49.38713" lon="1.14989">
        <ele>104.3</ele>
        <time>2012-05-06T06:53:52.086Z</time>
      </trkpt>
      <trkpt lat="49.3871" lon="1.14982">
        <ele>103.8</ele>
        <time>2012-05-06T06:53:53.087Z</time>
      </trkpt>
      <trkpt lat="49.38703" lon="1.14969">
        <ele>102.1</ele>
        <time>2012-05-06T06:53:55.093Z</time>
      </trkpt>
      <trkpt lat="49.38701" lon="1.14962">
        <ele>102.5</ele>
        <time>2012-05-06T06:53:56.077Z</time>
      </trkpt>
      <trkpt lat="49.38698" lon="1.14955">
        <ele>102.4</ele>
        <time>2012-05-06T06:53:57.092Z</time>
      </trkpt>
      <trkpt lat="49.38689" lon="1.14943">
        <ele>100.3</ele>
        <time>2012-05-06T06:53:59.091Z</time>
      </trkpt>
      <trkpt lat="49.38684" lon="1.14939">
        <ele>98.1</ele>
        <time>2012-05-06T06:54:00.094Z</time>
      </trkpt>
      <trkpt lat="49.38679" lon="1.14937">
        <ele>97.3</ele>
        <time>2012-05-06T06:54:01.086Z</time>
      </trkpt>
      <trkpt lat="49.38674" lon="1.14932">
        <ele>96.6</ele>
        <time>2012-05-06T06:54:02.082Z</time>
      </trkpt>
      <trkpt lat="49.38667" lon="1.14927">
        <ele>96.7</ele>
        <time>2012-05-06T06:54:04.075Z</time>
      </trkpt>
      <trkpt lat="49.38662" lon="1.14921">
        <ele>97.1</ele>
        <time>2012-05-06T06:54:06.079Z</time>
      </trkpt>
      <trkpt lat="49.3866" lon="1.14914">
        <ele>99.3</ele>
        <time>2012-05-06T06:54:09.092Z</time>
      </trkpt>
      <trkpt lat="49.38653" lon="1.14908">
        <ele>101</ele>
        <time>2012-05-06T06:54:12.088Z</time>
      </trkpt>
      <trkpt lat="49.38645" lon="1.14906">
        <ele>102.9</ele>
        <time>2012-05-06T06:54:15.090Z</time>
      </trkpt>
      <trkpt lat="49.3864" lon="1.14904">
        <ele>104.3</ele>
        <time>2012-05-06T06:54:16.080Z</time>
      </trkpt>
      <trkpt lat="49.38633" lon="1.14899">
        <ele>104</ele>
        <time>2012-05-06T06:54:18.077Z</time>
      </trkpt>
      <trkpt lat="49.38624" lon="1.14894">
        <ele>104.4</ele>
        <time>2012-05-06T06:54:20.091Z</time>
      </trkpt>
      <trkpt lat="49.3862" lon="1.14895">
        <ele>104.8</ele>
        <time>2012-05-06T06:54:21.082Z</time>
      </trkpt>
      <trkpt lat="49.38614" lon="1.14894">
        <ele>103.9</ele>
        <time>2012-05-06T06:54:22.086Z</time>
      </trkpt>
      <trkpt lat="49.3861" lon="1.14896">
        <ele>105.4</ele>
        <time>2012-05-06T06:54:23.099Z</time>
      </trkpt>
      <trkpt lat="49.38606" lon="1.14893">
        <ele>106.5</ele>
        <time>2012-05-06T06:54:24.089Z</time>
      </trkpt>
      <trkpt lat="49.38598" lon="1.14894">
        <ele>105.1</ele>
        <time>2012-05-06T06:54:26.098Z</time>
      </trkpt>
      <trkpt lat="49.38592" lon="1.14894">
        <ele>105.4</ele>
        <time>2012-05-06T06:54:28.094Z</time>
      </trkpt>
      <trkpt lat="49.38586" lon="1.14893">
        <ele>107.1</ele>
        <time>2012-05-06T06:54:30.088Z</time>
      </trkpt>
      <trkpt lat="49.38579" lon="1.1489">
        <ele>108.1</ele>
        <time>2012-05-06T06:54:32.093Z</time>
      </trkpt>
      <trkpt lat="49.38572" lon="1.14887">
        <ele>107</ele>
        <time>2012-05-06T06:54:34.092Z</time>
      </trkpt>
      <trkpt lat="49.38566" lon="1.14887">
        <ele>106.4</ele>
        <time>2012-05-06T06:54:36.095Z</time>
      </trkpt>
      <trkpt lat="49.38561" lon="1.14883">
        <ele>105.9</ele>
        <time>2012-05-06T06:54:38.077Z</time>
      </trkpt>
      <trkpt lat="49.38555" lon="1.14882">
        <ele>105.3</ele>
        <time>2012-05-06T06:54:41.077Z</time>
      </trkpt>
      <trkpt lat="49.38548" lon="1.14885">
        <ele>106.5</ele>
        <time>2012-05-06T06:54:42.575Z</time>
      </trkpt>
      <trkpt lat="49.38542" lon="1.14886">
        <ele>107.9</ele>
        <time>2012-05-06T06:54:44.095Z</time>
      </trkpt>
      <trkpt lat="49.38537" lon="1.14884">
        <ele>106</ele>
        <time>2012-05-06T06:54:45.078Z</time>
      </trkpt>
      <trkpt lat="49.38528" lon="1.14883">
        <ele>106.3</ele>
        <time>2012-05-06T06:54:47.088Z</time>
      </trkpt>
      <trkpt lat="49.38519" lon="1.14883">
        <ele>106</ele>
        <time>2012-05-06T06:54:49.093Z</time>
      </trkpt>
      <trkpt lat="49.38514" lon="1.14883">
        <ele>103.9</ele>
        <time>2012-05-06T06:54:50.090Z</time>
      </trkpt>
      <trkpt lat="49.38508" lon="1.14882">
        <ele>103</ele>
        <time>2012-05-06T06:54:52.089Z</time>
      </trkpt>
      <trkpt lat="49.38501" lon="1.14884">
        <ele>102.8</ele>
        <time>2012-05-06T06:54:53.080Z</time>
      </trkpt>
      <trkpt lat="49.38495" lon="1.14886">
        <ele>103.8</ele>
        <time>2012-05-06T06:54:54.095Z</time>
      </trkpt>
      <trkpt lat="49.38488" lon="1.14888">
        <ele>102.9</ele>
        <time>2012-05-06T06:54:56.089Z</time>
      </trkpt>
      <trkpt lat="49.3848" lon="1.14886">
        <ele>104</ele>
        <time>2012-05-06T06:54:59.084Z</time>
      </trkpt>
      <trkpt lat="49.38475" lon="1.14886">
        <ele>102.5</ele>
        <time>2012-05-06T06:55:00.077Z</time>
      </trkpt>
      <trkpt lat="49.38468" lon="1.14888">
        <ele>102.2</ele>
        <time>2012-05-06T06:55:02.093Z</time>
      </trkpt>
      <trkpt lat="49.38461" lon="1.14888">
        <ele>102.1</ele>
        <time>2012-05-06T06:55:04.086Z</time>
      </trkpt>
      <trkpt lat="49.38454" lon="1.14888">
        <ele>101</ele>
        <time>2012-05-06T06:55:06.095Z</time>
      </trkpt>
      <trkpt lat="49.38449" lon="1.14887">
        <ele>101.5</ele>
        <time>2012-05-06T06:55:07.087Z</time>
      </trkpt>
      <trkpt lat="49.38442" lon="1.14886">
        <ele>102.7</ele>
        <time>2012-05-06T06:55:09.089Z</time>
      </trkpt>
      <trkpt lat="49.38437" lon="1.14886">
        <ele>102.6</ele>
        <time>2012-05-06T06:55:10.085Z</time>
      </trkpt>
      <trkpt lat="49.38431" lon="1.14884">
        <ele>102</ele>
        <time>2012-05-06T06:55:11.094Z</time>
      </trkpt>
      <trkpt lat="49.38425" lon="1.14879">
        <ele>102.5</ele>
        <time>2012-05-06T06:55:13.095Z</time>
      </trkpt>
      <trkpt lat="49.38419" lon="1.14878">
        <ele>100.1</ele>
        <time>2012-05-06T06:55:14.079Z</time>
      </trkpt>
      <trkpt lat="49.38414" lon="1.14875">
        <ele>97.5</ele>
        <time>2012-05-06T06:55:15.086Z</time>
      </trkpt>
      <trkpt lat="49.38406" lon="1.14875">
        <ele>97.6</ele>
        <time>2012-05-06T06:55:17.078Z</time>
      </trkpt>
      <trkpt lat="49.384" lon="1.14877">
        <ele>95.6</ele>
        <time>2012-05-06T06:55:18.094Z</time>
      </trkpt>
      <trkpt lat="49.38392" lon="1.14878">
        <ele>94.9</ele>
        <time>2012-05-06T06:55:20.077Z</time>
      </trkpt>
      <trkpt lat="49.38388" lon="1.14878">
        <ele>95.4</ele>
        <time>2012-05-06T06:55:21.098Z</time>
      </trkpt>
      <trkpt lat="49.38382" lon="1.14878">
        <ele>94.4</ele>
        <time>2012-05-06T06:55:22.094Z</time>
      </trkpt>
      <trkpt lat="49.38375" lon="1.14876">
        <ele>94.6</ele>
        <time>2012-05-06T06:55:24.095Z</time>
      </trkpt>
      <trkpt lat="49.3837" lon="1.14876">
        <ele>94.5</ele>
        <time>2012-05-06T06:55:25.077Z</time>
      </trkpt>
      <trkpt lat="49.38366" lon="1.14869">
        <ele>93.7</ele>
        <time>2012-05-06T06:55:26.095Z</time>
      </trkpt>
      <trkpt lat="49.38359" lon="1.1486">
        <ele>94.2</ele>
        <time>2012-05-06T06:55:28.084Z</time>
      </trkpt>
      <trkpt lat="49.38355" lon="1.14855">
        <ele>94.9</ele>
        <time>2012-05-06T06:55:29.095Z</time>
      </trkpt>
      <trkpt lat="49.3835" lon="1.1485">
        <ele>95.8</ele>
        <time>2012-05-06T06:55:30.088Z</time>
      </trkpt>
      <trkpt lat="49.38343" lon="1.14837">
        <ele>96.1</ele>
        <time>2012-05-06T06:55:32.083Z</time>
      </trkpt>
      <trkpt lat="49.38339" lon="1.14831">
        <ele>96.7</ele>
        <time>2012-05-06T06:55:33.088Z</time>
      </trkpt>
      <trkpt lat="49.38335" lon="1.14824">
        <ele>95.2</ele>
        <time>2012-05-06T06:55:34.079Z</time>
      </trkpt>
      <trkpt lat="49.3833" lon="1.14817">
        <ele>93.6</ele>
        <time>2012-05-06T06:55:35.076Z</time>
      </trkpt>
      <trkpt lat="49.38326" lon="1.14811">
        <ele>92.3</ele>
        <time>2012-05-06T06:55:36.090Z</time>
      </trkpt>
      <trkpt lat="49.38322" lon="1.14804">
        <ele>91.6</ele>
        <time>2012-05-06T06:55:37.077Z</time>
      </trkpt>
      <trkpt lat="49.38317" lon="1.14799">
        <ele>88.8</ele>
        <time>2012-05-06T06:55:38.081Z</time>
      </trkpt>
      <trkpt lat="49.38312" lon="1.14795">
        <ele>88.9</ele>
        <time>2012-05-06T06:55:39.093Z</time>
      </trkpt>
      <trkpt lat="49.38302" lon="1.14781">
        <ele>87.2</ele>
        <time>2012-05-06T06:55:41.081Z</time>
      </trkpt>
      <trkpt lat="49.38298" lon="1.14774">
        <ele>86.7</ele>
        <time>2012-05-06T06:55:42.081Z</time>
      </trkpt>
      <trkpt lat="49.3829" lon="1.14761">
        <ele>85.2</ele>
        <time>2012-05-06T06:55:44.095Z</time>
      </trkpt>
      <trkpt lat="49.38289" lon="1.14752">
        <ele>86.2</ele>
        <time>2012-05-06T06:55:45.088Z</time>
      </trkpt>
      <trkpt lat="49.38286" lon="1.14744">
        <ele>85.8</ele>
        <time>2012-05-06T06:55:46.080Z</time>
      </trkpt>
      <trkpt lat="49.38284" lon="1.14737">
        <ele>86.8</ele>
        <time>2012-05-06T06:55:47.092Z</time>
      </trkpt>
      <trkpt lat="49.3828" lon="1.14731">
        <ele>85.8</ele>
        <time>2012-05-06T06:55:48.081Z</time>
      </trkpt>
      <trkpt lat="49.38275" lon="1.1472">
        <ele>87</ele>
        <time>2012-05-06T06:55:50.078Z</time>
      </trkpt>
      <trkpt lat="49.38272" lon="1.1471">
        <ele>88.5</ele>
        <time>2012-05-06T06:55:51.092Z</time>
      </trkpt>
      <trkpt lat="49.38269" lon="1.14704">
        <ele>88.5</ele>
        <time>2012-05-06T06:55:52.090Z</time>
      </trkpt>
      <trkpt lat="49.38266" lon="1.14698">
        <ele>88.8</ele>
        <time>2012-05-06T06:55:53.080Z</time>
      </trkpt>
      <trkpt lat="49.38261" lon="1.14687">
        <ele>88.2</ele>
        <time>2012-05-06T06:55:55.083Z</time>
      </trkpt>
      <trkpt lat="49.38255" lon="1.14678">
        <ele>87.4</ele>
        <time>2012-05-06T06:55:57.093Z</time>
      </trkpt>
      <trkpt lat="49.38252" lon="1.14671">
        <ele>87.5</ele>
        <time>2012-05-06T06:55:58.077Z</time>
      </trkpt>
      <trkpt lat="49.38248" lon="1.14664">
        <ele>86.9</ele>
        <time>2012-05-06T06:55:59.095Z</time>
      </trkpt>
      <trkpt lat="49.38242" lon="1.14659">
        <ele>86.2</ele>
        <time>2012-05-06T06:56:00.078Z</time>
      </trkpt>
      <trkpt lat="49.38238" lon="1.14654">
        <ele>85.9</ele>
        <time>2012-05-06T06:56:01.093Z</time>
      </trkpt>
      <trkpt lat="49.38232" lon="1.14648">
        <ele>87.9</ele>
        <time>2012-05-06T06:56:03.080Z</time>
      </trkpt>
      <trkpt lat="49.38233" lon="1.1464">
        <ele>89.7</ele>
        <time>2012-05-06T06:56:05.078Z</time>
      </trkpt>
      <trkpt lat="49.38231" lon="1.14632">
        <ele>90.6</ele>
        <time>2012-05-06T06:56:07.093Z</time>
      </trkpt>
      <trkpt lat="49.38229" lon="1.14621">
        <ele>91</ele>
        <time>2012-05-06T06:56:09.082Z</time>
      </trkpt>
      <trkpt lat="49.38229" lon="1.14613">
        <ele>92.5</ele>
        <time>2012-05-06T06:56:11.078Z</time>
      </trkpt>
      <trkpt lat="49.38228" lon="1.14602">
        <ele>93.4</ele>
        <time>2012-05-06T06:56:13.089Z</time>
      </trkpt>
      <trkpt lat="49.38222" lon="1.14594">
        <ele>91.8</ele>
        <time>2012-05-06T06:56:14.082Z</time>
      </trkpt>
      <trkpt lat="49.38219" lon="1.14582">
        <ele>91.2</ele>
        <time>2012-05-06T06:56:16.087Z</time>
      </trkpt>
      <trkpt lat="49.38214" lon="1.14574">
        <ele>88.8</ele>
        <time>2012-05-06T06:56:17.090Z</time>
      </trkpt>
      <trkpt lat="49.38211" lon="1.14568">
        <ele>87.7</ele>
        <time>2012-05-06T06:56:18.079Z</time>
      </trkpt>
      <trkpt lat="49.38207" lon="1.14563">
        <ele>87.2</ele>
        <time>2012-05-06T06:56:19.092Z</time>
      </trkpt>
      <trkpt lat="49.38201" lon="1.14559">
        <ele>85.1</ele>
        <time>2012-05-06T06:56:20.093Z</time>
      </trkpt>
      <trkpt lat="49.38197" lon="1.14552">
        <ele>84.6</ele>
        <time>2012-05-06T06:56:21.091Z</time>
      </trkpt>
      <trkpt lat="49.38192" lon="1.14545">
        <ele>83.4</ele>
        <time>2012-05-06T06:56:22.078Z</time>
      </trkpt>
      <trkpt lat="49.38189" lon="1.14539">
        <ele>81.8</ele>
        <time>2012-05-06T06:56:23.095Z</time>
      </trkpt>
      <trkpt lat="49.38184" lon="1.14535">
        <ele>81.7</ele>
        <time>2012-05-06T06:56:24.083Z</time>
      </trkpt>
      <trkpt lat="49.38181" lon="1.14527">
        <ele>81.8</ele>
        <time>2012-05-06T06:56:26.078Z</time>
      </trkpt>
      <trkpt lat="49.38178" lon="1.14516">
        <ele>81.9</ele>
        <time>2012-05-06T06:56:28.075Z</time>
      </trkpt>
      <trkpt lat="49.38179" lon="1.14509">
        <ele>81.8</ele>
        <time>2012-05-06T06:56:30.094Z</time>
      </trkpt>
      <trkpt lat="49.38178" lon="1.14499">
        <ele>81.2</ele>
        <time>2012-05-06T06:56:32.091Z</time>
      </trkpt>
      <trkpt lat="49.38176" lon="1.14491">
        <ele>82.1</ele>
        <time>2012-05-06T06:56:34.075Z</time>
      </trkpt>
      <trkpt lat="49.38171" lon="1.14486">
        <ele>80.7</ele>
        <time>2012-05-06T06:56:35.092Z</time>
      </trkpt>
      <trkpt lat="49.38168" lon="1.1448">
        <ele>80.3</ele>
        <time>2012-05-06T06:56:36.077Z</time>
      </trkpt>
      <trkpt lat="49.38164" lon="1.14468">
        <ele>80.5</ele>
        <time>2012-05-06T06:56:38.080Z</time>
      </trkpt>
      <trkpt lat="49.38162" lon="1.14461">
        <ele>80.6</ele>
        <time>2012-05-06T06:56:39.076Z</time>
      </trkpt>
      <trkpt lat="49.38156" lon="1.14448">
        <ele>79.2</ele>
        <time>2012-05-06T06:56:41.099Z</time>
      </trkpt>
      <trkpt lat="49.38152" lon="1.14444">
        <ele>78.1</ele>
        <time>2012-05-06T06:56:42.099Z</time>
      </trkpt>
      <trkpt lat="49.38148" lon="1.14433">
        <ele>78.7</ele>
        <time>2012-05-06T06:56:44.075Z</time>
      </trkpt>
      <trkpt lat="49.38145" lon="1.14427">
        <ele>78.5</ele>
        <time>2012-05-06T06:56:45.087Z</time>
      </trkpt>
      <trkpt lat="49.38141" lon="1.14422">
        <ele>78.9</ele>
        <time>2012-05-06T06:56:46.083Z</time>
      </trkpt>
      <trkpt lat="49.38133" lon="1.14413">
        <ele>77.5</ele>
        <time>2012-05-06T06:56:48.092Z</time>
      </trkpt>
      <trkpt lat="49.38129" lon="1.14407">
        <ele>76.7</ele>
        <time>2012-05-06T06:56:49.077Z</time>
      </trkpt>
      <trkpt lat="49.38125" lon="1.14402">
        <ele>76.3</ele>
        <time>2012-05-06T06:56:50.093Z</time>
      </trkpt>
      <trkpt lat="49.38118" lon="1.14393">
        <ele>76.9</ele>
        <time>2012-05-06T06:56:52.077Z</time>
      </trkpt>
      <trkpt lat="49.38113" lon="1.14383">
        <ele>76.8</ele>
        <time>2012-05-06T06:56:54.080Z</time>
      </trkpt>
      <trkpt lat="49.3811" lon="1.14377">
        <ele>77.9</ele>
        <time>2012-05-06T06:56:55.088Z</time>
      </trkpt>
      <trkpt lat="49.38104" lon="1.14368">
        <ele>79</ele>
        <time>2012-05-06T06:56:57.089Z</time>
      </trkpt>
      <trkpt lat="49.38096" lon="1.14366">
        <ele>74.5</ele>
        <time>2012-05-06T06:56:58.090Z</time>
      </trkpt>
      <trkpt lat="49.38091" lon="1.14363">
        <ele>73.3</ele>
        <time>2012-05-06T06:56:59.080Z</time>
      </trkpt>
      <trkpt lat="49.38087" lon="1.14358">
        <ele>74.7</ele>
        <time>2012-05-06T06:57:00.092Z</time>
      </trkpt>
      <trkpt lat="49.38083" lon="1.14353">
        <ele>74.9</ele>
        <time>2012-05-06T06:57:01.079Z</time>
      </trkpt>
      <trkpt lat="49.38078" lon="1.14348">
        <ele>74</ele>
        <time>2012-05-06T06:57:02.089Z</time>
      </trkpt>
      <trkpt lat="49.38074" lon="1.14342">
        <ele>73.7</ele>
        <time>2012-05-06T06:57:03.079Z</time>
      </trkpt>
      <trkpt lat="49.38066" lon="1.14335">
        <ele>74.1</ele>
        <time>2012-05-06T06:57:05.088Z</time>
      </trkpt>
      <trkpt lat="49.38061" lon="1.14331">
        <ele>73.6</ele>
        <time>2012-05-06T06:57:06.078Z</time>
      </trkpt>
      <trkpt lat="49.38057" lon="1.14328">
        <ele>72.7</ele>
        <time>2012-05-06T06:57:07.077Z</time>
      </trkpt>
      <trkpt lat="49.38048" lon="1.14323">
        <ele>71.6</ele>
        <time>2012-05-06T06:57:09.085Z</time>
      </trkpt>
      <trkpt lat="49.38044" lon="1.14311">
        <ele>73</ele>
        <time>2012-05-06T06:57:11.092Z</time>
      </trkpt>
      <trkpt lat="49.38044" lon="1.14304">
        <ele>73.7</ele>
        <time>2012-05-06T06:57:12.081Z</time>
      </trkpt>
      <trkpt lat="49.38038" lon="1.14293">
        <ele>77.8</ele>
        <time>2012-05-06T06:57:14.087Z</time>
      </trkpt>
      <trkpt lat="49.38034" lon="1.14287">
        <ele>79.1</ele>
        <time>2012-05-06T06:57:15.082Z</time>
      </trkpt>
      <trkpt lat="49.3803" lon="1.14282">
        <ele>80.6</ele>
        <time>2012-05-06T06:57:16.099Z</time>
      </trkpt>
      <trkpt lat="49.38028" lon="1.14276">
        <ele>80.9</ele>
        <time>2012-05-06T06:57:17.077Z</time>
      </trkpt>
      <trkpt lat="49.38022" lon="1.14272">
        <ele>80.9</ele>
        <time>2012-05-06T06:57:18.093Z</time>
      </trkpt>
      <trkpt lat="49.38014" lon="1.14265">
        <ele>78.6</ele>
        <time>2012-05-06T06:57:19.075Z</time>
      </trkpt>
      <trkpt lat="49.3801" lon="1.14259">
        <ele>77.9</ele>
        <time>2012-05-06T06:57:20.093Z</time>
      </trkpt>
      <trkpt lat="49.38001" lon="1.14245">
        <ele>76.8</ele>
        <time>2012-05-06T06:57:22.082Z</time>
      </trkpt>
      <trkpt lat="49.37996" lon="1.1424">
        <ele>76.1</ele>
        <time>2012-05-06T06:57:23.074Z</time>
      </trkpt>
      <trkpt lat="49.37992" lon="1.14236">
        <ele>75.7</ele>
        <time>2012-05-06T06:57:24.075Z</time>
      </trkpt>
      <trkpt lat="49.37983" lon="1.14227">
        <ele>74.3</ele>
        <time>2012-05-06T06:57:26.075Z</time>
      </trkpt>
      <trkpt lat="49.37979" lon="1.14217">
        <ele>75.1</ele>
        <time>2012-05-06T06:57:28.092Z</time>
      </trkpt>
      <trkpt lat="49.37971" lon="1.14206">
        <ele>76.3</ele>
        <time>2012-05-06T06:57:30.084Z</time>
      </trkpt>
      <trkpt lat="49.37962" lon="1.14197">
        <ele>75.8</ele>
        <time>2012-05-06T06:57:32.074Z</time>
      </trkpt>
      <trkpt lat="49.37957" lon="1.14186">
        <ele>76.3</ele>
        <time>2012-05-06T06:57:34.083Z</time>
      </trkpt>
      <trkpt lat="49.37952" lon="1.14182">
        <ele>75.7</ele>
        <time>2012-05-06T06:57:35.093Z</time>
      </trkpt>
      <trkpt lat="49.37948" lon="1.14176">
        <ele>76.2</ele>
        <time>2012-05-06T06:57:36.093Z</time>
      </trkpt>
      <trkpt lat="49.37944" lon="1.14172">
        <ele>75.9</ele>
        <time>2012-05-06T06:57:37.075Z</time>
      </trkpt>
      <trkpt lat="49.37939" lon="1.14168">
        <ele>75.7</ele>
        <time>2012-05-06T06:57:38.088Z</time>
      </trkpt>
      <trkpt lat="49.37928" lon="1.14155">
        <ele>76.5</ele>
        <time>2012-05-06T06:57:41.072Z</time>
      </trkpt>
      <trkpt lat="49.37922" lon="1.14152">
        <ele>77.5</ele>
        <time>2012-05-06T06:57:42.540Z</time>
      </trkpt>
      <trkpt lat="49.37913" lon="1.14143">
        <ele>75.8</ele>
        <time>2012-05-06T06:57:44.088Z</time>
      </trkpt>
      <trkpt lat="49.37906" lon="1.14137">
        <ele>73.9</ele>
        <time>2012-05-06T06:57:45.086Z</time>
      </trkpt>
      <trkpt lat="49.379" lon="1.1413">
        <ele>74</ele>
        <time>2012-05-06T06:57:46.086Z</time>
      </trkpt>
      <trkpt lat="49.37895" lon="1.14123">
        <ele>73.7</ele>
        <time>2012-05-06T06:57:47.093Z</time>
      </trkpt>
      <trkpt lat="49.37891" lon="1.14116">
        <ele>72.1</ele>
        <time>2012-05-06T06:57:48.094Z</time>
      </trkpt>
      <trkpt lat="49.37886" lon="1.1411">
        <ele>69.9</ele>
        <time>2012-05-06T06:57:49.094Z</time>
      </trkpt>
      <trkpt lat="49.3788" lon="1.14101">
        <ele>70.4</ele>
        <time>2012-05-06T06:57:51.094Z</time>
      </trkpt>
      <trkpt lat="49.37876" lon="1.14095">
        <ele>69.4</ele>
        <time>2012-05-06T06:57:52.089Z</time>
      </trkpt>
      <trkpt lat="49.3787" lon="1.14086">
        <ele>69.5</ele>
        <time>2012-05-06T06:57:54.076Z</time>
      </trkpt>
      <trkpt lat="49.37863" lon="1.14079">
        <ele>69.7</ele>
        <time>2012-05-06T06:57:56.092Z</time>
      </trkpt>
      <trkpt lat="49.37859" lon="1.14075">
        <ele>70.7</ele>
        <time>2012-05-06T06:57:57.077Z</time>
      </trkpt>
      <trkpt lat="49.37854" lon="1.1407">
        <ele>71.3</ele>
        <time>2012-05-06T06:57:58.088Z</time>
      </trkpt>
      <trkpt lat="49.37849" lon="1.14065">
        <ele>69.8</ele>
        <time>2012-05-06T06:57:59.076Z</time>
      </trkpt>
      <trkpt lat="49.3784" lon="1.14056">
        <ele>69.8</ele>
        <time>2012-05-06T06:58:01.087Z</time>
      </trkpt>
      <trkpt lat="49.37836" lon="1.14054">
        <ele>69.5</ele>
        <time>2012-05-06T06:58:02.085Z</time>
      </trkpt>
      <trkpt lat="49.37831" lon="1.1405">
        <ele>68.3</ele>
        <time>2012-05-06T06:58:03.076Z</time>
      </trkpt>
      <trkpt lat="49.37826" lon="1.14047">
        <ele>66.5</ele>
        <time>2012-05-06T06:58:04.092Z</time>
      </trkpt>
      <trkpt lat="49.3782" lon="1.14042">
        <ele>66.9</ele>
        <time>2012-05-06T06:58:06.089Z</time>
      </trkpt>
      <trkpt lat="49.37815" lon="1.1404">
        <ele>65.6</ele>
        <time>2012-05-06T06:58:07.082Z</time>
      </trkpt>
      <trkpt lat="49.3781" lon="1.14037">
        <ele>64.9</ele>
        <time>2012-05-06T06:58:09.092Z</time>
      </trkpt>
      <trkpt lat="49.37805" lon="1.14032">
        <ele>63.9</ele>
        <time>2012-05-06T06:58:12.080Z</time>
      </trkpt>
      <trkpt lat="49.37802" lon="1.14037">
        <ele>63.4</ele>
        <time>2012-05-06T06:58:15.087Z</time>
      </trkpt>
      <trkpt lat="49.37807" lon="1.14034">
        <ele>61.3</ele>
        <time>2012-05-06T06:58:20.081Z</time>
      </trkpt>
      <trkpt lat="49.3781" lon="1.14025">
        <ele>63.2</ele>
        <time>2012-05-06T06:58:23.093Z</time>
      </trkpt>
      <trkpt lat="49.37812" lon="1.14019">
        <ele>64.7</ele>
        <time>2012-05-06T06:58:25.088Z</time>
      </trkpt>
      <trkpt lat="49.37815" lon="1.14013">
        <ele>66.7</ele>
        <time>2012-05-06T06:58:27.096Z</time>
      </trkpt>
      <trkpt lat="49.37818" lon="1.14008">
        <ele>68.3</ele>
        <time>2012-05-06T06:58:29.075Z</time>
      </trkpt>
      <trkpt lat="49.37822" lon="1.14">
        <ele>70.8</ele>
        <time>2012-05-06T06:58:32.085Z</time>
      </trkpt>
      <trkpt lat="49.37826" lon="1.13991">
        <ele>73.2</ele>
        <time>2012-05-06T06:58:35.077Z</time>
      </trkpt>
      <trkpt lat="49.3783" lon="1.13984">
        <ele>75.5</ele>
        <time>2012-05-06T06:58:38.091Z</time>
      </trkpt>
      <trkpt lat="49.37833" lon="1.13977">
        <ele>76.9</ele>
        <time>2012-05-06T06:58:41.244Z</time>
      </trkpt>
      <trkpt lat="49.37837" lon="1.1397">
        <ele>79.9</ele>
        <time>2012-05-06T06:58:44.094Z</time>
      </trkpt>
      <trkpt lat="49.37839" lon="1.13962">
        <ele>81.2</ele>
        <time>2012-05-06T06:58:47.095Z</time>
      </trkpt>
      <trkpt lat="49.3784" lon="1.13955">
        <ele>81.7</ele>
        <time>2012-05-06T06:58:50.098Z</time>
      </trkpt>
      <trkpt lat="49.37842" lon="1.13947">
        <ele>83.5</ele>
        <time>2012-05-06T06:58:53.089Z</time>
      </trkpt>
      <trkpt lat="49.37843" lon="1.13939">
        <ele>86.6</ele>
        <time>2012-05-06T06:58:56.094Z</time>
      </trkpt>
      <trkpt lat="49.37847" lon="1.13934">
        <ele>88.6</ele>
        <time>2012-05-06T06:58:58.076Z</time>
      </trkpt>
      <trkpt lat="49.37851" lon="1.13929">
        <ele>89.8</ele>
        <time>2012-05-06T06:59:01.075Z</time>
      </trkpt>
      <trkpt lat="49.37854" lon="1.13922">
        <ele>90.9</ele>
        <time>2012-05-06T06:59:04.085Z</time>
      </trkpt>
      <trkpt lat="49.37859" lon="1.13924">
        <ele>93.7</ele>
        <time>2012-05-06T06:59:08.090Z</time>
      </trkpt>
      <trkpt lat="49.3786" lon="1.1393">
        <ele>94.3</ele>
        <time>2012-05-06T06:59:10.095Z</time>
      </trkpt>
      <trkpt lat="49.37861" lon="1.13923">
        <ele>98.5</ele>
        <time>2012-05-06T06:59:21.075Z</time>
      </trkpt>
      <trkpt lat="49.37862" lon="1.13914">
        <ele>100.6</ele>
        <time>2012-05-06T06:59:26.091Z</time>
      </trkpt>
      <trkpt lat="49.37862" lon="1.13907">
        <ele>101.7</ele>
        <time>2012-05-06T06:59:29.094Z</time>
      </trkpt>
      <trkpt lat="49.37865" lon="1.139">
        <ele>102.9</ele>
        <time>2012-05-06T06:59:34.089Z</time>
      </trkpt>
      <trkpt lat="49.37869" lon="1.13905">
        <ele>103.9</ele>
        <time>2012-05-06T06:59:39.093Z</time>
      </trkpt>
      <trkpt lat="49.37865" lon="1.139">
        <ele>103</ele>
        <time>2012-05-06T06:59:48.093Z</time>
      </trkpt>
      <trkpt lat="49.37866" lon="1.13893">
        <ele>103.7</ele>
        <time>2012-05-06T06:59:52.097Z</time>
      </trkpt>
      <trkpt lat="49.37867" lon="1.13885">
        <ele>104.5</ele>
        <time>2012-05-06T06:59:56.091Z</time>
      </trkpt>
      <trkpt lat="49.37869" lon="1.13878">
        <ele>107.6</ele>
        <time>2012-05-06T06:59:59.092Z</time>
      </trkpt>
      <trkpt lat="49.37873" lon="1.13872">
        <ele>108</ele>
        <time>2012-05-06T07:00:03.094Z</time>
      </trkpt>
      <trkpt lat="49.37876" lon="1.13866">
        <ele>108.5</ele>
        <time>2012-05-06T07:00:07.087Z</time>
      </trkpt>
      <trkpt lat="49.37881" lon="1.1386">
        <ele>110.8</ele>
        <time>2012-05-06T07:00:11.095Z</time>
      </trkpt>
      <trkpt lat="49.37884" lon="1.13853">
        <ele>112.5</ele>
        <time>2012-05-06T07:00:15.079Z</time>
      </trkpt>
      <trkpt lat="49.37886" lon="1.13847">
        <ele>116.2</ele>
        <time>2012-05-06T07:00:18.085Z</time>
      </trkpt>
      <trkpt lat="49.37888" lon="1.1384">
        <ele>117</ele>
        <time>2012-05-06T07:00:21.092Z</time>
      </trkpt>
      <trkpt lat="49.37889" lon="1.13832">
        <ele>120.1</ele>
        <time>2012-05-06T07:00:25.080Z</time>
      </trkpt>
      <trkpt lat="49.37884" lon="1.13828">
        <ele>121.6</ele>
        <time>2012-05-06T07:00:38.092Z</time>
      </trkpt>
      <trkpt lat="49.37879" lon="1.13829">
        <ele>121.5</ele>
        <time>2012-05-06T07:00:41.075Z</time>
      </trkpt>
      <trkpt lat="49.37874" lon="1.13834">
        <ele>121.7</ele>
        <time>2012-05-06T07:00:43.603Z</time>
      </trkpt>
      <trkpt lat="49.37869" lon="1.13836">
        <ele>121.1</ele>
        <time>2012-05-06T07:00:45.094Z</time>
      </trkpt>
      <trkpt lat="49.37864" lon="1.13839">
        <ele>122.6</ele>
        <time>2012-05-06T07:00:47.079Z</time>
      </trkpt>
      <trkpt lat="49.37859" lon="1.13841">
        <ele>121.9</ele>
        <time>2012-05-06T07:00:50.084Z</time>
      </trkpt>
      <trkpt lat="49.37854" lon="1.13843">
        <ele>121.5</ele>
        <time>2012-05-06T07:00:53.075Z</time>
      </trkpt>
      <trkpt lat="49.37849" lon="1.13845">
        <ele>123.3</ele>
        <time>2012-05-06T07:00:57.092Z</time>
      </trkpt>
      <trkpt lat="49.37843" lon="1.13849">
        <ele>124.1</ele>
        <time>2012-05-06T07:01:00.091Z</time>
      </trkpt>
      <trkpt lat="49.37838" lon="1.13853">
        <ele>124</ele>
        <time>2012-05-06T07:01:03.206Z</time>
      </trkpt>
      <trkpt lat="49.37834" lon="1.13856">
        <ele>124.7</ele>
        <time>2012-05-06T07:01:06.206Z</time>
      </trkpt>
      <trkpt lat="49.3783" lon="1.1386">
        <ele>124.8</ele>
        <time>2012-05-06T07:01:09.206Z</time>
      </trkpt>
      <trkpt lat="49.37825" lon="1.13861">
        <ele>127</ele>
        <time>2012-05-06T07:01:47.075Z</time>
      </trkpt>
      <trkpt lat="49.37819" lon="1.13863">
        <ele>125.1</ele>
        <time>2012-05-06T07:01:57.087Z</time>
      </trkpt>
      <trkpt lat="49.37813" lon="1.13864">
        <ele>120.8</ele>
        <time>2012-05-06T07:02:00.094Z</time>
      </trkpt>
      <trkpt lat="49.37808" lon="1.13866">
        <ele>119.8</ele>
        <time>2012-05-06T07:02:01.092Z</time>
      </trkpt>
      <trkpt lat="49.37802" lon="1.13867">
        <ele>117.3</ele>
        <time>2012-05-06T07:02:03.087Z</time>
      </trkpt>
      <trkpt lat="49.37795" lon="1.13865">
        <ele>114.2</ele>
        <time>2012-05-06T07:02:05.080Z</time>
      </trkpt>
      <trkpt lat="49.37789" lon="1.13861">
        <ele>111.9</ele>
        <time>2012-05-06T07:02:07.094Z</time>
      </trkpt>
      <trkpt lat="49.37783" lon="1.13856">
        <ele>109.4</ele>
        <time>2012-05-06T07:02:09.077Z</time>
      </trkpt>
      <trkpt lat="49.37774" lon="1.13849">
        <ele>108.9</ele>
        <time>2012-05-06T07:02:11.094Z</time>
      </trkpt>
      <trkpt lat="49.37767" lon="1.13845">
        <ele>108.8</ele>
        <time>2012-05-06T07:02:13.089Z</time>
      </trkpt>
      <trkpt lat="49.37762" lon="1.13839">
        <ele>109.8</ele>
        <time>2012-05-06T07:02:15.078Z</time>
      </trkpt>
      <trkpt lat="49.37753" lon="1.13834">
        <ele>108.2</ele>
        <time>2012-05-06T07:02:17.077Z</time>
      </trkpt>
      <trkpt lat="49.37745" lon="1.13834">
        <ele>108.1</ele>
        <time>2012-05-06T07:02:19.088Z</time>
      </trkpt>
      <trkpt lat="49.37739" lon="1.13842">
        <ele>108.4</ele>
        <time>2012-05-06T07:02:21.089Z</time>
      </trkpt>
      <trkpt lat="49.37734" lon="1.13857">
        <ele>109.1</ele>
        <time>2012-05-06T07:02:23.094Z</time>
      </trkpt>
      <trkpt lat="49.37731" lon="1.13864">
        <ele>109.2</ele>
        <time>2012-05-06T07:02:24.075Z</time>
      </trkpt>
      <trkpt lat="49.37726" lon="1.13872">
        <ele>107.1</ele>
        <time>2012-05-06T07:02:25.076Z</time>
      </trkpt>
      <trkpt lat="49.37723" lon="1.1388">
        <ele>106.7</ele>
        <time>2012-05-06T07:02:27.094Z</time>
      </trkpt>
      <trkpt lat="49.37718" lon="1.13881">
        <ele>107.7</ele>
        <time>2012-05-06T07:02:30.085Z</time>
      </trkpt>
      <trkpt lat="49.37712" lon="1.13884">
        <ele>108.7</ele>
        <time>2012-05-06T07:02:33.079Z</time>
      </trkpt>
      <trkpt lat="49.37706" lon="1.13886">
        <ele>111.3</ele>
        <time>2012-05-06T07:02:34.097Z</time>
      </trkpt>
      <trkpt lat="49.37698" lon="1.13888">
        <ele>110.2</ele>
        <time>2012-05-06T07:02:36.079Z</time>
      </trkpt>
      <trkpt lat="49.3769" lon="1.13886">
        <ele>106.6</ele>
        <time>2012-05-06T07:02:38.090Z</time>
      </trkpt>
      <trkpt lat="49.37676" lon="1.13883">
        <ele>104.7</ele>
        <time>2012-05-06T07:02:41.053Z</time>
      </trkpt>
      <trkpt lat="49.37668" lon="1.13883">
        <ele>105</ele>
        <time>2012-05-06T07:02:42.053Z</time>
      </trkpt>
      <trkpt lat="49.37661" lon="1.13882">
        <ele>102.4</ele>
        <time>2012-05-06T07:02:42.502Z</time>
      </trkpt>
      <trkpt lat="49.37648" lon="1.13877">
        <ele>100.6</ele>
        <time>2012-05-06T07:02:44.093Z</time>
      </trkpt>
      <trkpt lat="49.37639" lon="1.13874">
        <ele>99.7</ele>
        <time>2012-05-06T07:02:45.089Z</time>
      </trkpt>
      <trkpt lat="49.37631" lon="1.13872">
        <ele>99.3</ele>
        <time>2012-05-06T07:02:46.080Z</time>
      </trkpt>
      <trkpt lat="49.37622" lon="1.13866">
        <ele>97.9</ele>
        <time>2012-05-06T07:02:47.091Z</time>
      </trkpt>
      <trkpt lat="49.37614" lon="1.13865">
        <ele>97.4</ele>
        <time>2012-05-06T07:02:48.077Z</time>
      </trkpt>
      <trkpt lat="49.37605" lon="1.13862">
        <ele>97.4</ele>
        <time>2012-05-06T07:02:49.092Z</time>
      </trkpt>
      <trkpt lat="49.37595" lon="1.13859">
        <ele>97.3</ele>
        <time>2012-05-06T07:02:50.077Z</time>
      </trkpt>
      <trkpt lat="49.37584" lon="1.13852">
        <ele>95.1</ele>
        <time>2012-05-06T07:02:51.092Z</time>
      </trkpt>
      <trkpt lat="49.37575" lon="1.13846">
        <ele>93.6</ele>
        <time>2012-05-06T07:02:52.078Z</time>
      </trkpt>
      <trkpt lat="49.37561" lon="1.13839">
        <ele>89.5</ele>
        <time>2012-05-06T07:02:53.080Z</time>
      </trkpt>
      <trkpt lat="49.37547" lon="1.13832">
        <ele>86</ele>
        <time>2012-05-06T07:02:54.092Z</time>
      </trkpt>
      <trkpt lat="49.37534" lon="1.13827">
        <ele>83</ele>
        <time>2012-05-06T07:02:55.088Z</time>
      </trkpt>
      <trkpt lat="49.37521" lon="1.13822">
        <ele>80.6</ele>
        <time>2012-05-06T07:02:56.078Z</time>
      </trkpt>
      <trkpt lat="49.37509" lon="1.13818">
        <ele>78.7</ele>
        <time>2012-05-06T07:02:57.076Z</time>
      </trkpt>
      <trkpt lat="49.37499" lon="1.13814">
        <ele>77.1</ele>
        <time>2012-05-06T07:02:58.085Z</time>
      </trkpt>
      <trkpt lat="49.3749" lon="1.13809">
        <ele>75.7</ele>
        <time>2012-05-06T07:02:59.091Z</time>
      </trkpt>
      <trkpt lat="49.37482" lon="1.13805">
        <ele>75.2</ele>
        <time>2012-05-06T07:03:00.095Z</time>
      </trkpt>
      <trkpt lat="49.37476" lon="1.138">
        <ele>73.5</ele>
        <time>2012-05-06T07:03:01.110Z</time>
      </trkpt>
      <trkpt lat="49.3747" lon="1.13796">
        <ele>72.1</ele>
        <time>2012-05-06T07:03:02.075Z</time>
      </trkpt>
      <trkpt lat="49.37464" lon="1.13791">
        <ele>71.8</ele>
        <time>2012-05-06T07:03:03.078Z</time>
      </trkpt>
      <trkpt lat="49.37457" lon="1.13783">
        <ele>71.4</ele>
        <time>2012-05-06T07:03:05.094Z</time>
      </trkpt>
      <trkpt lat="49.3745" lon="1.13774">
        <ele>70.8</ele>
        <time>2012-05-06T07:03:07.080Z</time>
      </trkpt>
      <trkpt lat="49.37446" lon="1.13768">
        <ele>69.8</ele>
        <time>2012-05-06T07:03:09.090Z</time>
      </trkpt>
      <trkpt lat="49.37443" lon="1.13762">
        <ele>69.2</ele>
        <time>2012-05-06T07:03:12.094Z</time>
      </trkpt>
      <trkpt lat="49.37443" lon="1.13755">
        <ele>68.9</ele>
        <time>2012-05-06T07:03:15.093Z</time>
      </trkpt>
      <trkpt lat="49.37445" lon="1.13747">
        <ele>69.4</ele>
        <time>2012-05-06T07:03:19.090Z</time>
      </trkpt>
      <trkpt lat="49.37449" lon="1.13742">
        <ele>69.7</ele>
        <time>2012-05-06T07:03:26.076Z</time>
      </trkpt>
      <trkpt lat="49.37451" lon="1.13736">
        <ele>69.7</ele>
        <time>2012-05-06T07:03:31.077Z</time>
      </trkpt>
      <trkpt lat="49.37453" lon="1.13729">
        <ele>69.5</ele>
        <time>2012-05-06T07:03:35.084Z</time>
      </trkpt>
      <trkpt lat="49.37457" lon="1.13724">
        <ele>70.8</ele>
        <time>2012-05-06T07:03:39.089Z</time>
      </trkpt>
      <trkpt lat="49.37461" lon="1.13724">
        <ele>73.9</ele>
        <time>2012-05-06T07:03:42.510Z</time>
      </trkpt>
      <trkpt lat="49.37466" lon="1.13725">
        <ele>74.8</ele>
        <time>2012-05-06T07:03:52.093Z</time>
      </trkpt>
      <trkpt lat="49.3747" lon="1.1372">
        <ele>77.3</ele>
        <time>2012-05-06T07:04:10.078Z</time>
      </trkpt>
      <trkpt lat="49.37474" lon="1.13716">
        <ele>78.8</ele>
        <time>2012-05-06T07:04:14.091Z</time>
      </trkpt>
      <trkpt lat="49.37479" lon="1.13714">
        <ele>79.7</ele>
        <time>2012-05-06T07:04:18.092Z</time>
      </trkpt>
      <trkpt lat="49.37476" lon="1.13707">
        <ele>79.3</ele>
        <time>2012-05-06T07:04:23.093Z</time>
      </trkpt>
      <trkpt lat="49.37473" lon="1.13702">
        <ele>80.6</ele>
        <time>2012-05-06T07:04:30.085Z</time>
      </trkpt>
      <trkpt lat="49.3747" lon="1.13695">
        <ele>82</ele>
        <time>2012-05-06T07:04:34.227Z</time>
      </trkpt>
      <trkpt lat="49.37468" lon="1.13686">
        <ele>84.1</ele>
        <time>2012-05-06T07:04:38.227Z</time>
      </trkpt>
      <trkpt lat="49.37468" lon="1.13679">
        <ele>86.6</ele>
        <time>2012-05-06T07:04:41.227Z</time>
      </trkpt>
      <trkpt lat="49.37466" lon="1.13672">
        <ele>87.8</ele>
        <time>2012-05-06T07:04:45.227Z</time>
      </trkpt>
      <trkpt lat="49.37462" lon="1.13668">
        <ele>86.3</ele>
        <time>2012-05-06T07:04:50.088Z</time>
      </trkpt>
      <trkpt lat="49.37458" lon="1.13663">
        <ele>86.6</ele>
        <time>2012-05-06T07:04:54.086Z</time>
      </trkpt>
      <trkpt lat="49.37454" lon="1.13656">
        <ele>87.1</ele>
        <time>2012-05-06T07:04:58.092Z</time>
      </trkpt>
      <trkpt lat="49.37452" lon="1.1365">
        <ele>86</ele>
        <time>2012-05-06T07:05:05.076Z</time>
      </trkpt>
      <trkpt lat="49.3745" lon="1.13643">
        <ele>85.9</ele>
        <time>2012-05-06T07:05:09.095Z</time>
      </trkpt>
      <trkpt lat="49.37447" lon="1.13636">
        <ele>87.2</ele>
        <time>2012-05-06T07:05:13.093Z</time>
      </trkpt>
      <trkpt lat="49.37447" lon="1.13628">
        <ele>90.9</ele>
        <time>2012-05-06T07:05:23.077Z</time>
      </trkpt>
      <trkpt lat="49.37444" lon="1.13622">
        <ele>93.5</ele>
        <time>2012-05-06T07:05:27.094Z</time>
      </trkpt>
      <trkpt lat="49.37444" lon="1.13614">
        <ele>96.9</ele>
        <time>2012-05-06T07:05:32.096Z</time>
      </trkpt>
      <trkpt lat="49.37442" lon="1.13607">
        <ele>99.6</ele>
        <time>2012-05-06T07:05:36.092Z</time>
      </trkpt>
      <trkpt lat="49.3744" lon="1.13601">
        <ele>101.2</ele>
        <time>2012-05-06T07:05:40.093Z</time>
      </trkpt>
      <trkpt lat="49.37438" lon="1.13593">
        <ele>102.7</ele>
        <time>2012-05-06T07:05:45.091Z</time>
      </trkpt>
      <trkpt lat="49.37437" lon="1.13586">
        <ele>105.5</ele>
        <time>2012-05-06T07:05:49.094Z</time>
      </trkpt>
      <trkpt lat="49.37436" lon="1.13578">
        <ele>106.7</ele>
        <time>2012-05-06T07:05:53.093Z</time>
      </trkpt>
      <trkpt lat="49.37434" lon="1.13571">
        <ele>108.6</ele>
        <time>2012-05-06T07:05:57.091Z</time>
      </trkpt>
      <trkpt lat="49.37433" lon="1.13564">
        <ele>109.1</ele>
        <time>2012-05-06T07:06:01.082Z</time>
      </trkpt>
      <trkpt lat="49.37432" lon="1.13556">
        <ele>110.1</ele>
        <time>2012-05-06T07:06:05.089Z</time>
      </trkpt>
      <trkpt lat="49.37432" lon="1.13548">
        <ele>108</ele>
        <time>2012-05-06T07:06:09.076Z</time>
      </trkpt>
      <trkpt lat="49.37432" lon="1.13541">
        <ele>109.4</ele>
        <time>2012-05-06T07:06:13.091Z</time>
      </trkpt>
      <trkpt lat="49.37428" lon="1.13535">
        <ele>110.2</ele>
        <time>2012-05-06T07:06:17.092Z</time>
      </trkpt>
      <trkpt lat="49.37425" lon="1.13529">
        <ele>110.6</ele>
        <time>2012-05-06T07:06:20.087Z</time>
      </trkpt>
      <trkpt lat="49.37424" lon="1.13521">
        <ele>113</ele>
        <time>2012-05-06T07:06:24.078Z</time>
      </trkpt>
      <trkpt lat="49.37422" lon="1.13514">
        <ele>115.4</ele>
        <time>2012-05-06T07:06:27.095Z</time>
      </trkpt>
      <trkpt lat="49.3742" lon="1.13505">
        <ele>115.4</ele>
        <time>2012-05-06T07:06:31.094Z</time>
      </trkpt>
      <trkpt lat="49.37419" lon="1.13497">
        <ele>117</ele>
        <time>2012-05-06T07:06:36.099Z</time>
      </trkpt>
      <trkpt lat="49.37418" lon="1.13489">
        <ele>117.4</ele>
        <time>2012-05-06T07:06:40.092Z</time>
      </trkpt>
      <trkpt lat="49.37418" lon="1.13481">
        <ele>117.8</ele>
        <time>2012-05-06T07:06:44.094Z</time>
      </trkpt>
      <trkpt lat="49.3742" lon="1.13474">
        <ele>120.1</ele>
        <time>2012-05-06T07:06:48.097Z</time>
      </trkpt>
      <trkpt lat="49.37421" lon="1.13467">
        <ele>119.9</ele>
        <time>2012-05-06T07:06:52.093Z</time>
      </trkpt>
      <trkpt lat="49.37422" lon="1.1346">
        <ele>121.5</ele>
        <time>2012-05-06T07:06:56.095Z</time>
      </trkpt>
      <trkpt lat="49.37423" lon="1.13452">
        <ele>122.1</ele>
        <time>2012-05-06T07:07:00.093Z</time>
      </trkpt>
      <trkpt lat="49.37423" lon="1.13444">
        <ele>122.1</ele>
        <time>2012-05-06T07:07:04.096Z</time>
      </trkpt>
      <trkpt lat="49.3742" lon="1.13437">
        <ele>122.2</ele>
        <time>2012-05-06T07:07:08.095Z</time>
      </trkpt>
      <trkpt lat="49.37418" lon="1.13429">
        <ele>122.3</ele>
        <time>2012-05-06T07:07:12.092Z</time>
      </trkpt>
      <trkpt lat="49.37413" lon="1.13422">
        <ele>120.8</ele>
        <time>2012-05-06T07:07:16.094Z</time>
      </trkpt>
      <trkpt lat="49.37409" lon="1.13416">
        <ele>120.1</ele>
        <time>2012-05-06T07:07:20.093Z</time>
      </trkpt>
      <trkpt lat="49.37406" lon="1.13409">
        <ele>120.7</ele>
        <time>2012-05-06T07:07:24.094Z</time>
      </trkpt>
      <trkpt lat="49.37402" lon="1.13403">
        <ele>122.2</ele>
        <time>2012-05-06T07:07:27.096Z</time>
      </trkpt>
      <trkpt lat="49.37398" lon="1.134">
        <ele>124.7</ele>
        <time>2012-05-06T07:07:30.092Z</time>
      </trkpt>
      <trkpt lat="49.37393" lon="1.13395">
        <ele>126.3</ele>
        <time>2012-05-06T07:07:33.097Z</time>
      </trkpt>
      <trkpt lat="49.3739" lon="1.13388">
        <ele>127.3</ele>
        <time>2012-05-06T07:07:36.092Z</time>
      </trkpt>
      <trkpt lat="49.37389" lon="1.1338">
        <ele>126.5</ele>
        <time>2012-05-06T07:07:39.089Z</time>
      </trkpt>
      <trkpt lat="49.37388" lon="1.13372">
        <ele>127.8</ele>
        <time>2012-05-06T07:07:42.092Z</time>
      </trkpt>
      <trkpt lat="49.37387" lon="1.13365">
        <ele>127.6</ele>
        <time>2012-05-06T07:07:45.077Z</time>
      </trkpt>
      <trkpt lat="49.37385" lon="1.13357">
        <ele>128.5</ele>
        <time>2012-05-06T07:07:48.091Z</time>
      </trkpt>
      <trkpt lat="49.37386" lon="1.13348">
        <ele>127.2</ele>
        <time>2012-05-06T07:07:51.095Z</time>
      </trkpt>
      <trkpt lat="49.37386" lon="1.1334">
        <ele>127.9</ele>
        <time>2012-05-06T07:07:54.091Z</time>
      </trkpt>
      <trkpt lat="49.37384" lon="1.13331">
        <ele>129</ele>
        <time>2012-05-06T07:07:58.096Z</time>
      </trkpt>
      <trkpt lat="49.37382" lon="1.13323">
        <ele>130</ele>
        <time>2012-05-06T07:08:01.091Z</time>
      </trkpt>
      <trkpt lat="49.3738" lon="1.13314">
        <ele>130.7</ele>
        <time>2012-05-06T07:08:04.091Z</time>
      </trkpt>
      <trkpt lat="49.37379" lon="1.13305">
        <ele>132.1</ele>
        <time>2012-05-06T07:08:07.092Z</time>
      </trkpt>
      <trkpt lat="49.37377" lon="1.13297">
        <ele>132.9</ele>
        <time>2012-05-06T07:08:10.083Z</time>
      </trkpt>
      <trkpt lat="49.37375" lon="1.13291">
        <ele>133.9</ele>
        <time>2012-05-06T07:08:13.091Z</time>
      </trkpt>
      <trkpt lat="49.37372" lon="1.13283">
        <ele>134.9</ele>
        <time>2012-05-06T07:08:16.102Z</time>
      </trkpt>
      <trkpt lat="49.37371" lon="1.13273">
        <ele>134.3</ele>
        <time>2012-05-06T07:08:20.096Z</time>
      </trkpt>
      <trkpt lat="49.3737" lon="1.13266">
        <ele>134.4</ele>
        <time>2012-05-06T07:08:23.078Z</time>
      </trkpt>
      <trkpt lat="49.37368" lon="1.13259">
        <ele>133.9</ele>
        <time>2012-05-06T07:08:26.093Z</time>
      </trkpt>
      <trkpt lat="49.37366" lon="1.13251">
        <ele>134.3</ele>
        <time>2012-05-06T07:08:29.130Z</time>
      </trkpt>
      <trkpt lat="49.37362" lon="1.13245">
        <ele>134</ele>
        <time>2012-05-06T07:08:32.142Z</time>
      </trkpt>
      <trkpt lat="49.37361" lon="1.13236">
        <ele>132.7</ele>
        <time>2012-05-06T07:08:35.100Z</time>
      </trkpt>
      <trkpt lat="49.37359" lon="1.13228">
        <ele>133.9</ele>
        <time>2012-05-06T07:08:38.078Z</time>
      </trkpt>
      <trkpt lat="49.37356" lon="1.13221">
        <ele>134</ele>
        <time>2012-05-06T07:08:41.095Z</time>
      </trkpt>
      <trkpt lat="49.37356" lon="1.13214">
        <ele>133.9</ele>
        <time>2012-05-06T07:08:43.095Z</time>
      </trkpt>
      <trkpt lat="49.37354" lon="1.13205">
        <ele>134.5</ele>
        <time>2012-05-06T07:08:46.094Z</time>
      </trkpt>
      <trkpt lat="49.37353" lon="1.13197">
        <ele>134.1</ele>
        <time>2012-05-06T07:08:49.078Z</time>
      </trkpt>
      <trkpt lat="49.37352" lon="1.13188">
        <ele>135.2</ele>
        <time>2012-05-06T07:08:52.090Z</time>
      </trkpt>
      <trkpt lat="49.37351" lon="1.13181">
        <ele>134.7</ele>
        <time>2012-05-06T07:08:55.078Z</time>
      </trkpt>
      <trkpt lat="49.37351" lon="1.13173">
        <ele>135.2</ele>
        <time>2012-05-06T07:08:58.092Z</time>
      </trkpt>
      <trkpt lat="49.3735" lon="1.13166">
        <ele>136.3</ele>
        <time>2012-05-06T07:09:01.092Z</time>
      </trkpt>
      <trkpt lat="49.3735" lon="1.13157">
        <ele>136.8</ele>
        <time>2012-05-06T07:09:04.094Z</time>
      </trkpt>
      <trkpt lat="49.37348" lon="1.1315">
        <ele>136.9</ele>
        <time>2012-05-06T07:09:07.095Z</time>
      </trkpt>
      <trkpt lat="49.37348" lon="1.13143">
        <ele>136.5</ele>
        <time>2012-05-06T07:09:10.093Z</time>
      </trkpt>
      <trkpt lat="49.37348" lon="1.13134">
        <ele>137.9</ele>
        <time>2012-05-06T07:09:14.078Z</time>
      </trkpt>
      <trkpt lat="49.37347" lon="1.13126">
        <ele>137.8</ele>
        <time>2012-05-06T07:09:17.090Z</time>
      </trkpt>
      <trkpt lat="49.37347" lon="1.13119">
        <ele>138.7</ele>
        <time>2012-05-06T07:09:20.096Z</time>
      </trkpt>
      <trkpt lat="49.37348" lon="1.13112">
        <ele>139.8</ele>
        <time>2012-05-06T07:09:23.094Z</time>
      </trkpt>
      <trkpt lat="49.37349" lon="1.13105">
        <ele>142.2</ele>
        <time>2012-05-06T07:09:26.088Z</time>
      </trkpt>
      <trkpt lat="49.37351" lon="1.13098">
        <ele>144.2</ele>
        <time>2012-05-06T07:09:30.079Z</time>
      </trkpt>
      <trkpt lat="49.37353" lon="1.13092">
        <ele>144.9</ele>
        <time>2012-05-06T07:09:34.093Z</time>
      </trkpt>
      <trkpt lat="49.37354" lon="1.13084">
        <ele>145.1</ele>
        <time>2012-05-06T07:09:38.094Z</time>
      </trkpt>
      <trkpt lat="49.37354" lon="1.13077">
        <ele>146.5</ele>
        <time>2012-05-06T07:09:42.087Z</time>
      </trkpt>
      <trkpt lat="49.37354" lon="1.1307">
        <ele>146.6</ele>
        <time>2012-05-06T07:09:45.092Z</time>
      </trkpt>
      <trkpt lat="49.37355" lon="1.13063">
        <ele>148.1</ele>
        <time>2012-05-06T07:10:09.092Z</time>
      </trkpt>
      <trkpt lat="49.37352" lon="1.13056">
        <ele>147.4</ele>
        <time>2012-05-06T07:10:13.085Z</time>
      </trkpt>
      <trkpt lat="49.37349" lon="1.13051">
        <ele>147.5</ele>
        <time>2012-05-06T07:10:15.092Z</time>
      </trkpt>
      <trkpt lat="49.37346" lon="1.13045">
        <ele>148.2</ele>
        <time>2012-05-06T07:10:18.092Z</time>
      </trkpt>
      <trkpt lat="49.37343" lon="1.13036">
        <ele>147.2</ele>
        <time>2012-05-06T07:10:21.090Z</time>
      </trkpt>
      <trkpt lat="49.3734" lon="1.13029">
        <ele>146.6</ele>
        <time>2012-05-06T07:10:23.094Z</time>
      </trkpt>
      <trkpt lat="49.3734" lon="1.13021">
        <ele>148.4</ele>
        <time>2012-05-06T07:10:27.109Z</time>
      </trkpt>
      <trkpt lat="49.37337" lon="1.13014">
        <ele>147.8</ele>
        <time>2012-05-06T07:10:32.089Z</time>
      </trkpt>
      <trkpt lat="49.37336" lon="1.13006">
        <ele>150.2</ele>
        <time>2012-05-06T07:10:36.088Z</time>
      </trkpt>
      <trkpt lat="49.37335" lon="1.12998">
        <ele>150.3</ele>
        <time>2012-05-06T07:10:39.086Z</time>
      </trkpt>
      <trkpt lat="49.37335" lon="1.12989">
        <ele>150.2</ele>
        <time>2012-05-06T07:10:43.091Z</time>
      </trkpt>
      <trkpt lat="49.37336" lon="1.12982">
        <ele>150.4</ele>
        <time>2012-05-06T07:10:46.084Z</time>
      </trkpt>
      <trkpt lat="49.3734" lon="1.12976">
        <ele>150.7</ele>
        <time>2012-05-06T07:10:50.090Z</time>
      </trkpt>
      <trkpt lat="49.37344" lon="1.12971">
        <ele>152.3</ele>
        <time>2012-05-06T07:10:53.090Z</time>
      </trkpt>
      <trkpt lat="49.37339" lon="1.12966">
        <ele>154.4</ele>
        <time>2012-05-06T07:11:41.093Z</time>
      </trkpt>
      <trkpt lat="49.37335" lon="1.1296">
        <ele>152.7</ele>
        <time>2012-05-06T07:11:43.080Z</time>
      </trkpt>
      <trkpt lat="49.37327" lon="1.12952">
        <ele>150.9</ele>
        <time>2012-05-06T07:11:45.094Z</time>
      </trkpt>
      <trkpt lat="49.37324" lon="1.12944">
        <ele>151.9</ele>
        <time>2012-05-06T07:11:47.098Z</time>
      </trkpt>
      <trkpt lat="49.3732" lon="1.1294">
        <ele>152.5</ele>
        <time>2012-05-06T07:11:49.092Z</time>
      </trkpt>
      <trkpt lat="49.37316" lon="1.12936">
        <ele>150.9</ele>
        <time>2012-05-06T07:11:51.081Z</time>
      </trkpt>
      <trkpt lat="49.37311" lon="1.12934">
        <ele>149.8</ele>
        <time>2012-05-06T07:11:53.082Z</time>
      </trkpt>
      <trkpt lat="49.37306" lon="1.12931">
        <ele>149.4</ele>
        <time>2012-05-06T07:11:55.080Z</time>
      </trkpt>
      <trkpt lat="49.373" lon="1.12926">
        <ele>149.1</ele>
        <time>2012-05-06T07:11:58.081Z</time>
      </trkpt>
      <trkpt lat="49.37296" lon="1.12925">
        <ele>148.6</ele>
        <time>2012-05-06T07:12:21.082Z</time>
      </trkpt>
      <trkpt lat="49.37291" lon="1.12922">
        <ele>147.4</ele>
        <time>2012-05-06T07:12:24.093Z</time>
      </trkpt>
      <trkpt lat="49.37284" lon="1.12923">
        <ele>146.7</ele>
        <time>2012-05-06T07:12:27.081Z</time>
      </trkpt>
      <trkpt lat="49.37277" lon="1.12921">
        <ele>145.4</ele>
        <time>2012-05-06T07:12:29.079Z</time>
      </trkpt>
      <trkpt lat="49.37273" lon="1.12918">
        <ele>144.7</ele>
        <time>2012-05-06T07:12:30.087Z</time>
      </trkpt>
      <trkpt lat="49.37268" lon="1.12915">
        <ele>143.9</ele>
        <time>2012-05-06T07:12:31.082Z</time>
      </trkpt>
      <trkpt lat="49.37263" lon="1.12911">
        <ele>143</ele>
        <time>2012-05-06T07:12:32.076Z</time>
      </trkpt>
      <trkpt lat="49.37258" lon="1.12908">
        <ele>142.6</ele>
        <time>2012-05-06T07:12:33.077Z</time>
      </trkpt>
      <trkpt lat="49.37252" lon="1.12903">
        <ele>142.3</ele>
        <time>2012-05-06T07:12:34.087Z</time>
      </trkpt>
      <trkpt lat="49.37246" lon="1.129">
        <ele>141.7</ele>
        <time>2012-05-06T07:12:35.088Z</time>
      </trkpt>
      <trkpt lat="49.3724" lon="1.12896">
        <ele>141.1</ele>
        <time>2012-05-06T07:12:36.087Z</time>
      </trkpt>
      <trkpt lat="49.37235" lon="1.12892">
        <ele>141.1</ele>
        <time>2012-05-06T07:12:37.089Z</time>
      </trkpt>
      <trkpt lat="49.3723" lon="1.12888">
        <ele>141.7</ele>
        <time>2012-05-06T07:12:38.087Z</time>
      </trkpt>
      <trkpt lat="49.37225" lon="1.12884">
        <ele>141.6</ele>
        <time>2012-05-06T07:12:39.088Z</time>
      </trkpt>
      <trkpt lat="49.37221" lon="1.12881">
        <ele>141.8</ele>
        <time>2012-05-06T07:12:40.087Z</time>
      </trkpt>
      <trkpt lat="49.37213" lon="1.12874">
        <ele>141.5</ele>
        <time>2012-05-06T07:12:42.089Z</time>
      </trkpt>
      <trkpt lat="49.37207" lon="1.1287">
        <ele>141.9</ele>
        <time>2012-05-06T07:12:44.090Z</time>
      </trkpt>
      <trkpt lat="49.37202" lon="1.12865">
        <ele>141.9</ele>
        <time>2012-05-06T07:12:46.086Z</time>
      </trkpt>
      <trkpt lat="49.37197" lon="1.12861">
        <ele>142.9</ele>
        <time>2012-05-06T07:12:48.089Z</time>
      </trkpt>
      <trkpt lat="49.37192" lon="1.12857">
        <ele>143.8</ele>
        <time>2012-05-06T07:12:50.087Z</time>
      </trkpt>
      <trkpt lat="49.37189" lon="1.12852">
        <ele>144.6</ele>
        <time>2012-05-06T07:12:53.088Z</time>
      </trkpt>
      <trkpt lat="49.37183" lon="1.12849">
        <ele>144.1</ele>
        <time>2012-05-06T07:12:56.086Z</time>
      </trkpt>
      <trkpt lat="49.37179" lon="1.12846">
        <ele>143.7</ele>
        <time>2012-05-06T07:12:59.119Z</time>
      </trkpt>
      <trkpt lat="49.37174" lon="1.12843">
        <ele>143.6</ele>
        <time>2012-05-06T07:13:03.086Z</time>
      </trkpt>
      <trkpt lat="49.37168" lon="1.12842">
        <ele>142.6</ele>
        <time>2012-05-06T07:13:06.086Z</time>
      </trkpt>
      <trkpt lat="49.37162" lon="1.12841">
        <ele>141.5</ele>
        <time>2012-05-06T07:13:08.085Z</time>
      </trkpt>
      <trkpt lat="49.37154" lon="1.1284">
        <ele>139.9</ele>
        <time>2012-05-06T07:13:10.086Z</time>
      </trkpt>
      <trkpt lat="49.37146" lon="1.12837">
        <ele>138.7</ele>
        <time>2012-05-06T07:13:12.091Z</time>
      </trkpt>
      <trkpt lat="49.37138" lon="1.12833">
        <ele>138.1</ele>
        <time>2012-05-06T07:13:14.089Z</time>
      </trkpt>
      <trkpt lat="49.37132" lon="1.12828">
        <ele>137.7</ele>
        <time>2012-05-06T07:13:16.094Z</time>
      </trkpt>
      <trkpt lat="49.37127" lon="1.12826">
        <ele>137.2</ele>
        <time>2012-05-06T07:13:18.096Z</time>
      </trkpt>
      <trkpt lat="49.37122" lon="1.1283">
        <ele>135.8</ele>
        <time>2012-05-06T07:13:21.107Z</time>
      </trkpt>
      <trkpt lat="49.37118" lon="1.12833">
        <ele>134.8</ele>
        <time>2012-05-06T07:13:23.097Z</time>
      </trkpt>
      <trkpt lat="49.37114" lon="1.12837">
        <ele>133.1</ele>
        <time>2012-05-06T07:13:25.092Z</time>
      </trkpt>
      <trkpt lat="49.37109" lon="1.12841">
        <ele>131.4</ele>
        <time>2012-05-06T07:13:27.097Z</time>
      </trkpt>
      <trkpt lat="49.37104" lon="1.12844">
        <ele>129.4</ele>
        <time>2012-05-06T07:13:29.082Z</time>
      </trkpt>
      <trkpt lat="49.37098" lon="1.12844">
        <ele>128.2</ele>
        <time>2012-05-06T07:13:32.100Z</time>
      </trkpt>
      <trkpt lat="49.37097" lon="1.12852">
        <ele>126.7</ele>
        <time>2012-05-06T07:13:36.236Z</time>
      </trkpt>
      <trkpt lat="49.37101" lon="1.12858">
        <ele>126.8</ele>
        <time>2012-05-06T07:13:38.236Z</time>
      </trkpt>
      <trkpt lat="49.37106" lon="1.12865">
        <ele>127.1</ele>
        <time>2012-05-06T07:13:40.236Z</time>
      </trkpt>
      <trkpt lat="49.37112" lon="1.1287">
        <ele>127.7</ele>
        <time>2012-05-06T07:13:42.081Z</time>
      </trkpt>
      <trkpt lat="49.37118" lon="1.12875">
        <ele>127.5</ele>
        <time>2012-05-06T07:13:44.093Z</time>
      </trkpt>
      <trkpt lat="49.37123" lon="1.1288">
        <ele>128.1</ele>
        <time>2012-05-06T07:13:46.087Z</time>
      </trkpt>
      <trkpt lat="49.37128" lon="1.12885">
        <ele>128.7</ele>
        <time>2012-05-06T07:13:48.089Z</time>
      </trkpt>
      <trkpt lat="49.37134" lon="1.1289">
        <ele>128.6</ele>
        <time>2012-05-06T07:13:50.088Z</time>
      </trkpt>
      <trkpt lat="49.3714" lon="1.12895">
        <ele>128.4</ele>
        <time>2012-05-06T07:13:52.099Z</time>
      </trkpt>
      <trkpt lat="49.37147" lon="1.12902">
        <ele>128.6</ele>
        <time>2012-05-06T07:13:54.085Z</time>
      </trkpt>
      <trkpt lat="49.37153" lon="1.12907">
        <ele>128.8</ele>
        <time>2012-05-06T07:13:56.122Z</time>
      </trkpt>
      <trkpt lat="49.3716" lon="1.12912">
        <ele>129.1</ele>
        <time>2012-05-06T07:13:58.099Z</time>
      </trkpt>
      <trkpt lat="49.37166" lon="1.12918">
        <ele>129.3</ele>
        <time>2012-05-06T07:14:00.099Z</time>
      </trkpt>
      <trkpt lat="49.37173" lon="1.12924">
        <ele>129.2</ele>
        <time>2012-05-06T07:14:02.098Z</time>
      </trkpt>
      <trkpt lat="49.3718" lon="1.12931">
        <ele>128.8</ele>
        <time>2012-05-06T07:14:04.097Z</time>
      </trkpt>
      <trkpt lat="49.37186" lon="1.12935">
        <ele>128.9</ele>
        <time>2012-05-06T07:14:06.092Z</time>
      </trkpt>
      <trkpt lat="49.37193" lon="1.12939">
        <ele>129.5</ele>
        <time>2012-05-06T07:14:08.081Z</time>
      </trkpt>
      <trkpt lat="49.37198" lon="1.12942">
        <ele>129.6</ele>
        <time>2012-05-06T07:14:10.086Z</time>
      </trkpt>
      <trkpt lat="49.37204" lon="1.12946">
        <ele>129.2</ele>
        <time>2012-05-06T07:14:12.081Z</time>
      </trkpt>
      <trkpt lat="49.37209" lon="1.12949">
        <ele>129.3</ele>
        <time>2012-05-06T07:14:14.088Z</time>
      </trkpt>
      <trkpt lat="49.37214" lon="1.12951">
        <ele>129.9</ele>
        <time>2012-05-06T07:14:16.096Z</time>
      </trkpt>
      <trkpt lat="49.37218" lon="1.12955">
        <ele>130.3</ele>
        <time>2012-05-06T07:14:19.087Z</time>
      </trkpt>
      <trkpt lat="49.37212" lon="1.12956">
        <ele>125.5</ele>
        <time>2012-05-06T07:14:59.098Z</time>
      </trkpt>
      <trkpt lat="49.37206" lon="1.12956">
        <ele>123.4</ele>
        <time>2012-05-06T07:15:02.087Z</time>
      </trkpt>
      <trkpt lat="49.37201" lon="1.12955">
        <ele>122.6</ele>
        <time>2012-05-06T07:15:04.089Z</time>
      </trkpt>
      <trkpt lat="49.37193" lon="1.12953">
        <ele>120.8</ele>
        <time>2012-05-06T07:15:06.092Z</time>
      </trkpt>
      <trkpt lat="49.37185" lon="1.12951">
        <ele>119.6</ele>
        <time>2012-05-06T07:15:08.087Z</time>
      </trkpt>
      <trkpt lat="49.37178" lon="1.12948">
        <ele>118.6</ele>
        <time>2012-05-06T07:15:10.087Z</time>
      </trkpt>
      <trkpt lat="49.3717" lon="1.12945">
        <ele>117.7</ele>
        <time>2012-05-06T07:15:12.098Z</time>
      </trkpt>
      <trkpt lat="49.37163" lon="1.12942">
        <ele>117</ele>
        <time>2012-05-06T07:15:14.090Z</time>
      </trkpt>
      <trkpt lat="49.37157" lon="1.1294">
        <ele>116.3</ele>
        <time>2012-05-06T07:15:16.094Z</time>
      </trkpt>
      <trkpt lat="49.3715" lon="1.12938">
        <ele>114.8</ele>
        <time>2012-05-06T07:15:18.089Z</time>
      </trkpt>
      <trkpt lat="49.37143" lon="1.12936">
        <ele>113.4</ele>
        <time>2012-05-06T07:15:20.090Z</time>
      </trkpt>
      <trkpt lat="49.37137" lon="1.12936">
        <ele>111.9</ele>
        <time>2012-05-06T07:15:22.097Z</time>
      </trkpt>
      <trkpt lat="49.37131" lon="1.12936">
        <ele>110.8</ele>
        <time>2012-05-06T07:15:24.088Z</time>
      </trkpt>
      <trkpt lat="49.37125" lon="1.12936">
        <ele>109.2</ele>
        <time>2012-05-06T07:15:27.095Z</time>
      </trkpt>
      <trkpt lat="49.37118" lon="1.12937">
        <ele>107.7</ele>
        <time>2012-05-06T07:15:30.091Z</time>
      </trkpt>
      <trkpt lat="49.37113" lon="1.12937">
        <ele>106.2</ele>
        <time>2012-05-06T07:15:32.087Z</time>
      </trkpt>
      <trkpt lat="49.37108" lon="1.12938">
        <ele>104.8</ele>
        <time>2012-05-06T07:15:34.089Z</time>
      </trkpt>
      <trkpt lat="49.37104" lon="1.12939">
        <ele>103.6</ele>
        <time>2012-05-06T07:15:36.095Z</time>
      </trkpt>
      <trkpt lat="49.37098" lon="1.1294">
        <ele>101.5</ele>
        <time>2012-05-06T07:15:39.091Z</time>
      </trkpt>
      <trkpt lat="49.37093" lon="1.12941">
        <ele>99.9</ele>
        <time>2012-05-06T07:15:41.863Z</time>
      </trkpt>
      <trkpt lat="49.37086" lon="1.12942">
        <ele>98</ele>
        <time>2012-05-06T07:15:44.079Z</time>
      </trkpt>
      <trkpt lat="49.37081" lon="1.12942">
        <ele>96.1</ele>
        <time>2012-05-06T07:15:46.093Z</time>
      </trkpt>
      <trkpt lat="49.37076" lon="1.12943">
        <ele>94.1</ele>
        <time>2012-05-06T07:15:48.090Z</time>
      </trkpt>
      <trkpt lat="49.3707" lon="1.12944">
        <ele>91.6</ele>
        <time>2012-05-06T07:15:51.087Z</time>
      </trkpt>
      <trkpt lat="49.37065" lon="1.12945">
        <ele>89.4</ele>
        <time>2012-05-06T07:15:53.101Z</time>
      </trkpt>
      <trkpt lat="49.3706" lon="1.12946">
        <ele>87.4</ele>
        <time>2012-05-06T07:15:55.086Z</time>
      </trkpt>
      <trkpt lat="49.37054" lon="1.12947">
        <ele>85</ele>
        <time>2012-05-06T07:15:58.095Z</time>
      </trkpt>
      <trkpt lat="49.37048" lon="1.12948">
        <ele>82.7</ele>
        <time>2012-05-06T07:16:01.084Z</time>
      </trkpt>
      <trkpt lat="49.37042" lon="1.12947">
        <ele>80.7</ele>
        <time>2012-05-06T07:16:04.128Z</time>
      </trkpt>
      <trkpt lat="49.37037" lon="1.12947">
        <ele>78.7</ele>
        <time>2012-05-06T07:16:07.085Z</time>
      </trkpt>
      <trkpt lat="49.3703" lon="1.12947">
        <ele>77.1</ele>
        <time>2012-05-06T07:16:10.095Z</time>
      </trkpt>
      <trkpt lat="49.37025" lon="1.12947">
        <ele>74.9</ele>
        <time>2012-05-06T07:16:12.096Z</time>
      </trkpt>
      <trkpt lat="49.37019" lon="1.12947">
        <ele>73.1</ele>
        <time>2012-05-06T07:16:14.104Z</time>
      </trkpt>
      <trkpt lat="49.37014" lon="1.12945">
        <ele>71.5</ele>
        <time>2012-05-06T07:16:16.098Z</time>
      </trkpt>
      <trkpt lat="49.37008" lon="1.12944">
        <ele>70.2</ele>
        <time>2012-05-06T07:16:18.103Z</time>
      </trkpt>
      <trkpt lat="49.37002" lon="1.12942">
        <ele>68.7</ele>
        <time>2012-05-06T07:16:20.095Z</time>
      </trkpt>
      <trkpt lat="49.36996" lon="1.1294">
        <ele>67.7</ele>
        <time>2012-05-06T07:16:22.095Z</time>
      </trkpt>
      <trkpt lat="49.3699" lon="1.12938">
        <ele>66.1</ele>
        <time>2012-05-06T07:16:25.093Z</time>
      </trkpt>
      <trkpt lat="49.36984" lon="1.12936">
        <ele>64.9</ele>
        <time>2012-05-06T07:16:28.095Z</time>
      </trkpt>
      <trkpt lat="49.36979" lon="1.12935">
        <ele>63.7</ele>
        <time>2012-05-06T07:16:30.100Z</time>
      </trkpt>
      <trkpt lat="49.36973" lon="1.12933">
        <ele>59.9</ele>
        <time>2012-05-06T07:16:34.123Z</time>
      </trkpt>
      <trkpt lat="49.36967" lon="1.12929">
        <ele>56.3</ele>
        <time>2012-05-06T07:16:37.094Z</time>
      </trkpt>
      <trkpt lat="49.36957" lon="1.12924">
        <ele>54.5</ele>
        <time>2012-05-06T07:16:41.845Z</time>
      </trkpt>
      <trkpt lat="49.36951" lon="1.12918">
        <ele>52.8</ele>
        <time>2012-05-06T07:16:45.095Z</time>
      </trkpt>
      <trkpt lat="49.36946" lon="1.12911">
        <ele>49.3</ele>
        <time>2012-05-06T07:16:48.095Z</time>
      </trkpt>
      <trkpt lat="49.36941" lon="1.12905">
        <ele>47.5</ele>
        <time>2012-05-06T07:16:50.095Z</time>
      </trkpt>
      <trkpt lat="49.36934" lon="1.129">
        <ele>46.4</ele>
        <time>2012-05-06T07:16:52.096Z</time>
      </trkpt>
      <trkpt lat="49.3693" lon="1.12894">
        <ele>44.4</ele>
        <time>2012-05-06T07:16:53.094Z</time>
      </trkpt>
      <trkpt lat="49.36926" lon="1.12888">
        <ele>43.3</ele>
        <time>2012-05-06T07:16:54.087Z</time>
      </trkpt>
      <trkpt lat="49.36921" lon="1.12882">
        <ele>42.4</ele>
        <time>2012-05-06T07:16:55.090Z</time>
      </trkpt>
      <trkpt lat="49.36917" lon="1.12878">
        <ele>41.7</ele>
        <time>2012-05-06T07:16:56.097Z</time>
      </trkpt>
      <trkpt lat="49.36911" lon="1.12872">
        <ele>40.6</ele>
        <time>2012-05-06T07:16:58.102Z</time>
      </trkpt>
      <trkpt lat="49.36906" lon="1.12868">
        <ele>39</ele>
        <time>2012-05-06T07:17:00.096Z</time>
      </trkpt>
      <trkpt lat="49.36901" lon="1.12864">
        <ele>38.6</ele>
        <time>2012-05-06T07:17:03.244Z</time>
      </trkpt>
      <trkpt lat="49.36898" lon="1.12868">
        <ele>39</ele>
        <time>2012-05-06T07:17:05.244Z</time>
      </trkpt>
      <trkpt lat="49.36893" lon="1.12872">
        <ele>40</ele>
        <time>2012-05-06T07:17:07.244Z</time>
      </trkpt>
      <trkpt lat="49.36889" lon="1.12876">
        <ele>40.7</ele>
        <time>2012-05-06T07:17:09.244Z</time>
      </trkpt>
      <trkpt lat="49.36885" lon="1.1288">
        <ele>42</ele>
        <time>2012-05-06T07:17:12.244Z</time>
      </trkpt>
      <trkpt lat="49.36882" lon="1.12885">
        <ele>43.4</ele>
        <time>2012-05-06T07:17:24.093Z</time>
      </trkpt>
      <trkpt lat="49.36878" lon="1.1289">
        <ele>43.6</ele>
        <time>2012-05-06T07:17:29.079Z</time>
      </trkpt>
      <trkpt lat="49.36874" lon="1.12893">
        <ele>43.2</ele>
        <time>2012-05-06T07:17:31.079Z</time>
      </trkpt>
      <trkpt lat="49.36868" lon="1.12897">
        <ele>42.8</ele>
        <time>2012-05-06T07:17:34.079Z</time>
      </trkpt>
      <trkpt lat="49.36862" lon="1.12902">
        <ele>42.6</ele>
        <time>2012-05-06T07:17:37.092Z</time>
      </trkpt>
      <trkpt lat="49.3686" lon="1.12909">
        <ele>42.6</ele>
        <time>2012-05-06T07:17:39.092Z</time>
      </trkpt>
      <trkpt lat="49.36862" lon="1.12915">
        <ele>43</ele>
        <time>2012-05-06T07:17:41.091Z</time>
      </trkpt>
      <trkpt lat="49.36864" lon="1.12923">
        <ele>43.2</ele>
        <time>2012-05-06T07:17:43.076Z</time>
      </trkpt>
      <trkpt lat="49.36864" lon="1.12931">
        <ele>43.8</ele>
        <time>2012-05-06T07:17:45.094Z</time>
      </trkpt>
      <trkpt lat="49.36865" lon="1.1294">
        <ele>44.3</ele>
        <time>2012-05-06T07:17:47.095Z</time>
      </trkpt>
      <trkpt lat="49.36865" lon="1.12948">
        <ele>45</ele>
        <time>2012-05-06T07:17:49.076Z</time>
      </trkpt>
      <trkpt lat="49.36864" lon="1.12956">
        <ele>45.4</ele>
        <time>2012-05-06T07:17:51.085Z</time>
      </trkpt>
      <trkpt lat="49.36864" lon="1.12965">
        <ele>45.7</ele>
        <time>2012-05-06T07:17:53.103Z</time>
      </trkpt>
      <trkpt lat="49.36862" lon="1.12971">
        <ele>46.6</ele>
        <time>2012-05-06T07:17:55.094Z</time>
      </trkpt>
      <trkpt lat="49.36857" lon="1.12973">
        <ele>47.2</ele>
        <time>2012-05-06T07:17:57.096Z</time>
      </trkpt>
      <trkpt lat="49.36853" lon="1.1297">
        <ele>48.5</ele>
        <time>2012-05-06T07:17:59.092Z</time>
      </trkpt>
      <trkpt lat="49.36847" lon="1.12965">
        <ele>50.5</ele>
        <time>2012-05-06T07:18:02.079Z</time>
      </trkpt>
      <trkpt lat="49.36842" lon="1.12961">
        <ele>51.1</ele>
        <time>2012-05-06T07:18:05.080Z</time>
      </trkpt>
      <trkpt lat="49.36837" lon="1.12957">
        <ele>51.1</ele>
        <time>2012-05-06T07:18:08.093Z</time>
      </trkpt>
      <trkpt lat="49.36831" lon="1.12952">
        <ele>53</ele>
        <time>2012-05-06T07:18:11.075Z</time>
      </trkpt>
      <trkpt lat="49.36825" lon="1.12948">
        <ele>54</ele>
        <time>2012-05-06T07:18:14.093Z</time>
      </trkpt>
      <trkpt lat="49.3682" lon="1.12944">
        <ele>55.2</ele>
        <time>2012-05-06T07:18:17.091Z</time>
      </trkpt>
      <trkpt lat="49.36815" lon="1.12942">
        <ele>59.7</ele>
        <time>2012-05-06T07:18:20.094Z</time>
      </trkpt>
      <trkpt lat="49.36809" lon="1.12941">
        <ele>61</ele>
        <time>2012-05-06T07:18:23.093Z</time>
      </trkpt>
      <trkpt lat="49.36804" lon="1.1294">
        <ele>60.9</ele>
        <time>2012-05-06T07:18:25.094Z</time>
      </trkpt>
      <trkpt lat="49.36799" lon="1.12942">
        <ele>60.9</ele>
        <time>2012-05-06T07:18:27.094Z</time>
      </trkpt>
      <trkpt lat="49.36794" lon="1.12944">
        <ele>61.6</ele>
        <time>2012-05-06T07:18:29.096Z</time>
      </trkpt>
      <trkpt lat="49.36789" lon="1.12946">
        <ele>60.9</ele>
        <time>2012-05-06T07:18:31.097Z</time>
      </trkpt>
      <trkpt lat="49.36783" lon="1.12946">
        <ele>60</ele>
        <time>2012-05-06T07:18:33.095Z</time>
      </trkpt>
      <trkpt lat="49.36777" lon="1.1295">
        <ele>60.2</ele>
        <time>2012-05-06T07:18:35.092Z</time>
      </trkpt>
      <trkpt lat="49.36773" lon="1.12953">
        <ele>59.6</ele>
        <time>2012-05-06T07:18:37.094Z</time>
      </trkpt>
      <trkpt lat="49.36769" lon="1.12956">
        <ele>59.7</ele>
        <time>2012-05-06T07:18:39.090Z</time>
      </trkpt>
      <trkpt lat="49.36764" lon="1.12962">
        <ele>58.9</ele>
        <time>2012-05-06T07:18:41.090Z</time>
      </trkpt>
      <trkpt lat="49.36761" lon="1.12968">
        <ele>58.7</ele>
        <time>2012-05-06T07:18:43.094Z</time>
      </trkpt>
      <trkpt lat="49.36758" lon="1.12973">
        <ele>59.4</ele>
        <time>2012-05-06T07:18:45.092Z</time>
      </trkpt>
      <trkpt lat="49.36753" lon="1.12977">
        <ele>62.2</ele>
        <time>2012-05-06T07:18:48.095Z</time>
      </trkpt>
      <trkpt lat="49.36748" lon="1.12979">
        <ele>65</ele>
        <time>2012-05-06T07:18:52.093Z</time>
      </trkpt>
      <trkpt lat="49.36746" lon="1.12986">
        <ele>62.8</ele>
        <time>2012-05-06T07:18:56.083Z</time>
      </trkpt>
      <trkpt lat="49.36745" lon="1.12992">
        <ele>66.4</ele>
        <time>2012-05-06T07:18:59.077Z</time>
      </trkpt>
      <trkpt lat="49.36742" lon="1.13001">
        <ele>68.9</ele>
        <time>2012-05-06T07:19:03.078Z</time>
      </trkpt>
      <trkpt lat="49.36738" lon="1.13008">
        <ele>70.7</ele>
        <time>2012-05-06T07:19:06.104Z</time>
      </trkpt>
      <trkpt lat="49.36734" lon="1.13017">
        <ele>70.9</ele>
        <time>2012-05-06T07:19:09.093Z</time>
      </trkpt>
      <trkpt lat="49.36731" lon="1.13023">
        <ele>70.7</ele>
        <time>2012-05-06T07:19:12.091Z</time>
      </trkpt>
      <trkpt lat="49.36725" lon="1.1303">
        <ele>66.6</ele>
        <time>2012-05-06T07:19:15.080Z</time>
      </trkpt>
      <trkpt lat="49.36723" lon="1.13036">
        <ele>64.4</ele>
        <time>2012-05-06T07:19:17.093Z</time>
      </trkpt>
      <trkpt lat="49.36721" lon="1.13043">
        <ele>66.1</ele>
        <time>2012-05-06T07:19:20.087Z</time>
      </trkpt>
      <trkpt lat="49.36719" lon="1.1305">
        <ele>67.1</ele>
        <time>2012-05-06T07:19:24.087Z</time>
      </trkpt>
      <trkpt lat="49.36722" lon="1.13057">
        <ele>66.8</ele>
        <time>2012-05-06T07:19:34.092Z</time>
      </trkpt>
      <trkpt lat="49.3672" lon="1.13064">
        <ele>66.2</ele>
        <time>2012-05-06T07:19:42.090Z</time>
      </trkpt>
      <trkpt lat="49.36716" lon="1.13071">
        <ele>65.2</ele>
        <time>2012-05-06T07:19:45.086Z</time>
      </trkpt>
      <trkpt lat="49.36715" lon="1.13079">
        <ele>66.3</ele>
        <time>2012-05-06T07:19:48.076Z</time>
      </trkpt>
      <trkpt lat="49.36712" lon="1.13084">
        <ele>68.1</ele>
        <time>2012-05-06T07:19:50.092Z</time>
      </trkpt>
      <trkpt lat="49.36708" lon="1.13091">
        <ele>70</ele>
        <time>2012-05-06T07:19:53.085Z</time>
      </trkpt>
      <trkpt lat="49.36705" lon="1.13099">
        <ele>70.9</ele>
        <time>2012-05-06T07:19:57.076Z</time>
      </trkpt>
      <trkpt lat="49.36704" lon="1.13107">
        <ele>72.8</ele>
        <time>2012-05-06T07:20:00.096Z</time>
      </trkpt>
      <trkpt lat="49.367" lon="1.13113">
        <ele>75.4</ele>
        <time>2012-05-06T07:20:03.093Z</time>
      </trkpt>
      <trkpt lat="49.36694" lon="1.13113">
        <ele>76.9</ele>
        <time>2012-05-06T07:20:07.085Z</time>
      </trkpt>
      <trkpt lat="49.36691" lon="1.1312">
        <ele>84.1</ele>
        <time>2012-05-06T07:20:10.076Z</time>
      </trkpt>
      <trkpt lat="49.3669" lon="1.1313">
        <ele>84</ele>
        <time>2012-05-06T07:20:13.090Z</time>
      </trkpt>
      <trkpt lat="49.3669" lon="1.13138">
        <ele>82.2</ele>
        <time>2012-05-06T07:20:16.092Z</time>
      </trkpt>
      <trkpt lat="49.36688" lon="1.13144">
        <ele>84.3</ele>
        <time>2012-05-06T07:20:19.089Z</time>
      </trkpt>
      <trkpt lat="49.36686" lon="1.13153">
        <ele>89.9</ele>
        <time>2012-05-06T07:20:23.079Z</time>
      </trkpt>
      <trkpt lat="49.36686" lon="1.13161">
        <ele>90.6</ele>
        <time>2012-05-06T07:20:26.133Z</time>
      </trkpt>
      <trkpt lat="49.36685" lon="1.1317">
        <ele>92.6</ele>
        <time>2012-05-06T07:20:30.093Z</time>
      </trkpt>
      <trkpt lat="49.36682" lon="1.13176">
        <ele>94.6</ele>
        <time>2012-05-06T07:20:33.094Z</time>
      </trkpt>
      <trkpt lat="49.36681" lon="1.13184">
        <ele>97.7</ele>
        <time>2012-05-06T07:20:37.091Z</time>
      </trkpt>
      <trkpt lat="49.36682" lon="1.13192">
        <ele>102</ele>
        <time>2012-05-06T07:20:41.089Z</time>
      </trkpt>
      <trkpt lat="49.36683" lon="1.13199">
        <ele>99.9</ele>
        <time>2012-05-06T07:20:44.077Z</time>
      </trkpt>
      <trkpt lat="49.36685" lon="1.13206">
        <ele>102.2</ele>
        <time>2012-05-06T07:20:48.089Z</time>
      </trkpt>
      <trkpt lat="49.36685" lon="1.13215">
        <ele>104.6</ele>
        <time>2012-05-06T07:20:52.077Z</time>
      </trkpt>
      <trkpt lat="49.36684" lon="1.13224">
        <ele>102.8</ele>
        <time>2012-05-06T07:20:56.076Z</time>
      </trkpt>
      <trkpt lat="49.36685" lon="1.13234">
        <ele>103</ele>
        <time>2012-05-06T07:21:00.076Z</time>
      </trkpt>
      <trkpt lat="49.36686" lon="1.13241">
        <ele>101.9</ele>
        <time>2012-05-06T07:21:03.092Z</time>
      </trkpt>
      <trkpt lat="49.36686" lon="1.13248">
        <ele>101.9</ele>
        <time>2012-05-06T07:21:06.092Z</time>
      </trkpt>
      <trkpt lat="49.36687" lon="1.13256">
        <ele>100.8</ele>
        <time>2012-05-06T07:21:10.083Z</time>
      </trkpt>
      <trkpt lat="49.3669" lon="1.13265">
        <ele>103.6</ele>
        <time>2012-05-06T07:21:14.108Z</time>
      </trkpt>
      <trkpt lat="49.36691" lon="1.13274">
        <ele>104.6</ele>
        <time>2012-05-06T07:21:18.079Z</time>
      </trkpt>
      <trkpt lat="49.36694" lon="1.1328">
        <ele>106.2</ele>
        <time>2012-05-06T07:21:21.077Z</time>
      </trkpt>
      <trkpt lat="49.36697" lon="1.13288">
        <ele>106.7</ele>
        <time>2012-05-06T07:21:24.089Z</time>
      </trkpt>
      <trkpt lat="49.36696" lon="1.13296">
        <ele>106.1</ele>
        <time>2012-05-06T07:21:30.088Z</time>
      </trkpt>
      <trkpt lat="49.36698" lon="1.13303">
        <ele>103.3</ele>
        <time>2012-05-06T07:21:34.088Z</time>
      </trkpt>
      <trkpt lat="49.36701" lon="1.13309">
        <ele>103.3</ele>
        <time>2012-05-06T07:21:37.076Z</time>
      </trkpt>
      <trkpt lat="49.36704" lon="1.13316">
        <ele>104.7</ele>
        <time>2012-05-06T07:21:41.082Z</time>
      </trkpt>
      <trkpt lat="49.36706" lon="1.13321">
        <ele>106.4</ele>
        <time>2012-05-06T07:21:45.093Z</time>
      </trkpt>
      <trkpt lat="49.36706" lon="1.13329">
        <ele>104.8</ele>
        <time>2012-05-06T07:21:50.075Z</time>
      </trkpt>
      <trkpt lat="49.36707" lon="1.13337">
        <ele>108.7</ele>
        <time>2012-05-06T07:22:00.075Z</time>
      </trkpt>
      <trkpt lat="49.36708" lon="1.13344">
        <ele>109.9</ele>
        <time>2012-05-06T07:22:06.076Z</time>
      </trkpt>
      <trkpt lat="49.36712" lon="1.13347">
        <ele>114.5</ele>
        <time>2012-05-06T07:22:09.092Z</time>
      </trkpt>
      <trkpt lat="49.36716" lon="1.13352">
        <ele>116.9</ele>
        <time>2012-05-06T07:22:12.076Z</time>
      </trkpt>
      <trkpt lat="49.3672" lon="1.13358">
        <ele>119.2</ele>
        <time>2012-05-06T07:22:17.083Z</time>
      </trkpt>
      <trkpt lat="49.36722" lon="1.13365">
        <ele>121.1</ele>
        <time>2012-05-06T07:22:21.083Z</time>
      </trkpt>
      <trkpt lat="49.36724" lon="1.13372">
        <ele>122.1</ele>
        <time>2012-05-06T07:22:24.083Z</time>
      </trkpt>
      <trkpt lat="49.36725" lon="1.13378">
        <ele>122.6</ele>
        <time>2012-05-06T07:22:26.090Z</time>
      </trkpt>
      <trkpt lat="49.36728" lon="1.13385">
        <ele>121.9</ele>
        <time>2012-05-06T07:22:30.127Z</time>
      </trkpt>
      <trkpt lat="49.36733" lon="1.13391">
        <ele>122.3</ele>
        <time>2012-05-06T07:22:35.096Z</time>
      </trkpt>
      <trkpt lat="49.36737" lon="1.13395">
        <ele>125.8</ele>
        <time>2012-05-06T07:22:38.094Z</time>
      </trkpt>
      <trkpt lat="49.36739" lon="1.13402">
        <ele>126.1</ele>
        <time>2012-05-06T07:22:42.074Z</time>
      </trkpt>
      <trkpt lat="49.36742" lon="1.13407">
        <ele>124.9</ele>
        <time>2012-05-06T07:22:45.087Z</time>
      </trkpt>
      <trkpt lat="49.36745" lon="1.13412">
        <ele>123.2</ele>
        <time>2012-05-06T07:22:48.089Z</time>
      </trkpt>
      <trkpt lat="49.36746" lon="1.1342">
        <ele>124.3</ele>
        <time>2012-05-06T07:22:52.087Z</time>
      </trkpt>
      <trkpt lat="49.36749" lon="1.13427">
        <ele>124.8</ele>
        <time>2012-05-06T07:22:55.090Z</time>
      </trkpt>
      <trkpt lat="49.36751" lon="1.13433">
        <ele>122.1</ele>
        <time>2012-05-06T07:22:59.085Z</time>
      </trkpt>
      <trkpt lat="49.36754" lon="1.1344">
        <ele>123.6</ele>
        <time>2012-05-06T07:23:03.085Z</time>
      </trkpt>
      <trkpt lat="49.36756" lon="1.13447">
        <ele>124.8</ele>
        <time>2012-05-06T07:23:07.086Z</time>
      </trkpt>
      <trkpt lat="49.36757" lon="1.13454">
        <ele>126.4</ele>
        <time>2012-05-06T07:23:11.088Z</time>
      </trkpt>
      <trkpt lat="49.36758" lon="1.13463">
        <ele>126.2</ele>
        <time>2012-05-06T07:23:17.092Z</time>
      </trkpt>
      <trkpt lat="49.3676" lon="1.13471">
        <ele>126.5</ele>
        <time>2012-05-06T07:23:21.092Z</time>
      </trkpt>
      <trkpt lat="49.36763" lon="1.13479">
        <ele>124.6</ele>
        <time>2012-05-06T07:23:26.093Z</time>
      </trkpt>
      <trkpt lat="49.36766" lon="1.13484">
        <ele>125</ele>
        <time>2012-05-06T07:23:29.081Z</time>
      </trkpt>
      <trkpt lat="49.36766" lon="1.13492">
        <ele>130.2</ele>
        <time>2012-05-06T07:23:34.092Z</time>
      </trkpt>
      <trkpt lat="49.36768" lon="1.13499">
        <ele>132.6</ele>
        <time>2012-05-06T07:23:38.091Z</time>
      </trkpt>
      <trkpt lat="49.3677" lon="1.13508">
        <ele>134.6</ele>
        <time>2012-05-06T07:23:44.101Z</time>
      </trkpt>
      <trkpt lat="49.36773" lon="1.13514">
        <ele>135.8</ele>
        <time>2012-05-06T07:23:47.091Z</time>
      </trkpt>
      <trkpt lat="49.36772" lon="1.13522">
        <ele>139</ele>
        <time>2012-05-06T07:23:51.079Z</time>
      </trkpt>
      <trkpt lat="49.36775" lon="1.13529">
        <ele>137.7</ele>
        <time>2012-05-06T07:23:55.077Z</time>
      </trkpt>
      <trkpt lat="49.36776" lon="1.13537">
        <ele>136.4</ele>
        <time>2012-05-06T07:24:00.081Z</time>
      </trkpt>
      <trkpt lat="49.36776" lon="1.13545">
        <ele>132.7</ele>
        <time>2012-05-06T07:24:12.080Z</time>
      </trkpt>
      <trkpt lat="49.36778" lon="1.13551">
        <ele>132.2</ele>
        <time>2012-05-06T07:24:15.091Z</time>
      </trkpt>
      <trkpt lat="49.36778" lon="1.13559">
        <ele>131.1</ele>
        <time>2012-05-06T07:24:19.092Z</time>
      </trkpt>
      <trkpt lat="49.3678" lon="1.13566">
        <ele>132.1</ele>
        <time>2012-05-06T07:24:22.077Z</time>
      </trkpt>
      <trkpt lat="49.36784" lon="1.13572">
        <ele>132.9</ele>
        <time>2012-05-06T07:24:25.081Z</time>
      </trkpt>
      <trkpt lat="49.36787" lon="1.13576">
        <ele>135.2</ele>
        <time>2012-05-06T07:24:28.079Z</time>
      </trkpt>
      <trkpt lat="49.36791" lon="1.13582">
        <ele>134.7</ele>
        <time>2012-05-06T07:24:33.078Z</time>
      </trkpt>
      <trkpt lat="49.3679" lon="1.1359">
        <ele>126</ele>
        <time>2012-05-06T07:24:36.079Z</time>
      </trkpt>
      <trkpt lat="49.36793" lon="1.13597">
        <ele>128.3</ele>
        <time>2012-05-06T07:24:40.079Z</time>
      </trkpt>
      <trkpt lat="49.36796" lon="1.13603">
        <ele>132</ele>
        <time>2012-05-06T07:24:45.092Z</time>
      </trkpt>
      <trkpt lat="49.36798" lon="1.13609">
        <ele>135.4</ele>
        <time>2012-05-06T07:24:49.077Z</time>
      </trkpt>
      <trkpt lat="49.36801" lon="1.13616">
        <ele>137.4</ele>
        <time>2012-05-06T07:24:54.088Z</time>
      </trkpt>
      <trkpt lat="49.36805" lon="1.13619">
        <ele>141.2</ele>
        <time>2012-05-06T07:24:58.087Z</time>
      </trkpt>
      <trkpt lat="49.36806" lon="1.13627">
        <ele>140.2</ele>
        <time>2012-05-06T07:25:03.199Z</time>
      </trkpt>
      <trkpt lat="49.36808" lon="1.13635">
        <ele>144.1</ele>
        <time>2012-05-06T07:25:06.079Z</time>
      </trkpt>
      <trkpt lat="49.36812" lon="1.13643">
        <ele>144.8</ele>
        <time>2012-05-06T07:25:10.087Z</time>
      </trkpt>
      <trkpt lat="49.36816" lon="1.13646">
        <ele>146</ele>
        <time>2012-05-06T07:25:13.077Z</time>
      </trkpt>
      <trkpt lat="49.36815" lon="1.13653">
        <ele>145.2</ele>
        <time>2012-05-06T07:25:25.074Z</time>
      </trkpt>
      <trkpt lat="49.36815" lon="1.1366">
        <ele>143.2</ele>
        <time>2012-05-06T07:25:35.091Z</time>
      </trkpt>
      <trkpt lat="49.36818" lon="1.13667">
        <ele>147.6</ele>
        <time>2012-05-06T07:25:42.090Z</time>
      </trkpt>
      <trkpt lat="49.36822" lon="1.13675">
        <ele>149</ele>
        <time>2012-05-06T07:25:46.078Z</time>
      </trkpt>
      <trkpt lat="49.36824" lon="1.13682">
        <ele>153.4</ele>
        <time>2012-05-06T07:25:50.081Z</time>
      </trkpt>
      <trkpt lat="49.36827" lon="1.13689">
        <ele>151.4</ele>
        <time>2012-05-06T07:25:54.078Z</time>
      </trkpt>
      <trkpt lat="49.36829" lon="1.13696">
        <ele>153.9</ele>
        <time>2012-05-06T07:25:59.087Z</time>
      </trkpt>
      <trkpt lat="49.36832" lon="1.13702">
        <ele>154.5</ele>
        <time>2012-05-06T07:26:02.088Z</time>
      </trkpt>
      <trkpt lat="49.36834" lon="1.1371">
        <ele>154.8</ele>
        <time>2012-05-06T07:26:07.241Z</time>
      </trkpt>
      <trkpt lat="49.36836" lon="1.13716">
        <ele>156.5</ele>
        <time>2012-05-06T07:26:12.080Z</time>
      </trkpt>
      <trkpt lat="49.36831" lon="1.1372">
        <ele>152.6</ele>
        <time>2012-05-06T07:26:15.091Z</time>
      </trkpt>
      <trkpt lat="49.36836" lon="1.13726">
        <ele>154.3</ele>
        <time>2012-05-06T07:26:18.079Z</time>
      </trkpt>
      <trkpt lat="49.36839" lon="1.13733">
        <ele>157.2</ele>
        <time>2012-05-06T07:26:24.080Z</time>
      </trkpt>
      <trkpt lat="49.36841" lon="1.13739">
        <ele>159.7</ele>
        <time>2012-05-06T07:26:27.077Z</time>
      </trkpt>
      <trkpt lat="49.36842" lon="1.13746">
        <ele>157.3</ele>
        <time>2012-05-06T07:26:30.093Z</time>
      </trkpt>
      <trkpt lat="49.36845" lon="1.13752">
        <ele>159.4</ele>
        <time>2012-05-06T07:26:33.083Z</time>
      </trkpt>
      <trkpt lat="49.36847" lon="1.1376">
        <ele>160.9</ele>
        <time>2012-05-06T07:26:37.082Z</time>
      </trkpt>
      <trkpt lat="49.36848" lon="1.13767">
        <ele>165.3</ele>
        <time>2012-05-06T07:26:41.091Z</time>
      </trkpt>
      <trkpt lat="49.36847" lon="1.13774">
        <ele>166.5</ele>
        <time>2012-05-06T07:26:44.089Z</time>
      </trkpt>
      <trkpt lat="49.3685" lon="1.1378">
        <ele>172.6</ele>
        <time>2012-05-06T07:26:48.093Z</time>
      </trkpt>
      <trkpt lat="49.3685" lon="1.13787">
        <ele>171</ele>
        <time>2012-05-06T07:26:51.082Z</time>
      </trkpt>
      <trkpt lat="49.36849" lon="1.13795">
        <ele>173.9</ele>
        <time>2012-05-06T07:26:55.082Z</time>
      </trkpt>
      <trkpt lat="49.3685" lon="1.13804">
        <ele>173.2</ele>
        <time>2012-05-06T07:26:59.078Z</time>
      </trkpt>
      <trkpt lat="49.36844" lon="1.13809">
        <ele>167</ele>
        <time>2012-05-06T07:27:02.092Z</time>
      </trkpt>
      <trkpt lat="49.36844" lon="1.13817">
        <ele>170.9</ele>
        <time>2012-05-06T07:27:07.101Z</time>
      </trkpt>
      <trkpt lat="49.36842" lon="1.13825">
        <ele>169.5</ele>
        <time>2012-05-06T07:27:12.092Z</time>
      </trkpt>
      <trkpt lat="49.3684" lon="1.13831">
        <ele>169.3</ele>
        <time>2012-05-06T07:27:16.098Z</time>
      </trkpt>
      <trkpt lat="49.36836" lon="1.13838">
        <ele>170.8</ele>
        <time>2012-05-06T07:27:20.093Z</time>
      </trkpt>
      <trkpt lat="49.36837" lon="1.13845">
        <ele>172.3</ele>
        <time>2012-05-06T07:27:24.084Z</time>
      </trkpt>
      <trkpt lat="49.36834" lon="1.1385">
        <ele>171</ele>
        <time>2012-05-06T07:27:27.093Z</time>
      </trkpt>
      <trkpt lat="49.36832" lon="1.13856">
        <ele>171.8</ele>
        <time>2012-05-06T07:27:31.091Z</time>
      </trkpt>
      <trkpt lat="49.36827" lon="1.13859">
        <ele>171.5</ele>
        <time>2012-05-06T07:27:34.098Z</time>
      </trkpt>
      <trkpt lat="49.36822" lon="1.13857">
        <ele>170.6</ele>
        <time>2012-05-06T07:27:39.100Z</time>
      </trkpt>
      <trkpt lat="49.3682" lon="1.1385">
        <ele>171</ele>
        <time>2012-05-06T07:27:43.090Z</time>
      </trkpt>
      <trkpt lat="49.36825" lon="1.13851">
        <ele>170.7</ele>
        <time>2012-05-06T07:27:47.092Z</time>
      </trkpt>
      <trkpt lat="49.36828" lon="1.13855">
        <ele>171.5</ele>
        <time>2012-05-06T07:27:51.091Z</time>
      </trkpt>
      <trkpt lat="49.36832" lon="1.13859">
        <ele>171.2</ele>
        <time>2012-05-06T07:27:55.094Z</time>
      </trkpt>
      <trkpt lat="49.36827" lon="1.13857">
        <ele>170.2</ele>
        <time>2012-05-06T07:28:03.093Z</time>
      </trkpt>
      <trkpt lat="49.36822" lon="1.13855">
        <ele>171.3</ele>
        <time>2012-05-06T07:28:08.078Z</time>
      </trkpt>
      <trkpt lat="49.36827" lon="1.13853">
        <ele>168.9</ele>
        <time>2012-05-06T07:28:15.103Z</time>
      </trkpt>
      <trkpt lat="49.36831" lon="1.13858">
        <ele>171.9</ele>
        <time>2012-05-06T07:28:19.091Z</time>
      </trkpt>
      <trkpt lat="49.36834" lon="1.13864">
        <ele>175.3</ele>
        <time>2012-05-06T07:28:24.087Z</time>
      </trkpt>
      <trkpt lat="49.36833" lon="1.13872">
        <ele>174.2</ele>
        <time>2012-05-06T07:33:27.090Z</time>
      </trkpt>
      <trkpt lat="49.36836" lon="1.13878">
        <ele>174.6</ele>
        <time>2012-05-06T07:33:30.091Z</time>
      </trkpt>
      <trkpt lat="49.36838" lon="1.13885">
        <ele>172.2</ele>
        <time>2012-05-06T07:33:32.084Z</time>
      </trkpt>
      <trkpt lat="49.36841" lon="1.13892">
        <ele>173.4</ele>
        <time>2012-05-06T07:33:36.101Z</time>
      </trkpt>
      <trkpt lat="49.36845" lon="1.13897">
        <ele>176.4</ele>
        <time>2012-05-06T07:33:39.091Z</time>
      </trkpt>
      <trkpt lat="49.36847" lon="1.13905">
        <ele>176.1</ele>
        <time>2012-05-06T07:33:41.995Z</time>
      </trkpt>
      <trkpt lat="49.36848" lon="1.13914">
        <ele>175.3</ele>
        <time>2012-05-06T07:33:45.083Z</time>
      </trkpt>
      <trkpt lat="49.3685" lon="1.13922">
        <ele>174.7</ele>
        <time>2012-05-06T07:33:48.082Z</time>
      </trkpt>
      <trkpt lat="49.36851" lon="1.13929">
        <ele>175.4</ele>
        <time>2012-05-06T07:33:52.083Z</time>
      </trkpt>
      <trkpt lat="49.36853" lon="1.13937">
        <ele>175.1</ele>
        <time>2012-05-06T07:33:55.079Z</time>
      </trkpt>
      <trkpt lat="49.36855" lon="1.13943">
        <ele>175.1</ele>
        <time>2012-05-06T07:33:57.076Z</time>
      </trkpt>
      <trkpt lat="49.36857" lon="1.13951">
        <ele>170.6</ele>
        <time>2012-05-06T07:34:00.086Z</time>
      </trkpt>
      <trkpt lat="49.36859" lon="1.1396">
        <ele>170.8</ele>
        <time>2012-05-06T07:34:03.082Z</time>
      </trkpt>
      <trkpt lat="49.36864" lon="1.13969">
        <ele>175.2</ele>
        <time>2012-05-06T07:34:05.110Z</time>
      </trkpt>
      <trkpt lat="49.36868" lon="1.13977">
        <ele>178</ele>
        <time>2012-05-06T07:34:07.099Z</time>
      </trkpt>
      <trkpt lat="49.36874" lon="1.13983">
        <ele>183.4</ele>
        <time>2012-05-06T07:34:09.081Z</time>
      </trkpt>
      <trkpt lat="49.36877" lon="1.1399">
        <ele>186.5</ele>
        <time>2012-05-06T07:34:11.082Z</time>
      </trkpt>
      <trkpt lat="49.36881" lon="1.13996">
        <ele>187.9</ele>
        <time>2012-05-06T07:34:13.102Z</time>
      </trkpt>
      <trkpt lat="49.36883" lon="1.14004">
        <ele>187.1</ele>
        <time>2012-05-06T07:34:15.083Z</time>
      </trkpt>
      <trkpt lat="49.36885" lon="1.14011">
        <ele>185.4</ele>
        <time>2012-05-06T07:34:17.083Z</time>
      </trkpt>
      <trkpt lat="49.36889" lon="1.14017">
        <ele>188.2</ele>
        <time>2012-05-06T07:34:19.080Z</time>
      </trkpt>
      <trkpt lat="49.36891" lon="1.14026">
        <ele>186.8</ele>
        <time>2012-05-06T07:34:21.089Z</time>
      </trkpt>
      <trkpt lat="49.36893" lon="1.14034">
        <ele>186.3</ele>
        <time>2012-05-06T07:34:23.094Z</time>
      </trkpt>
      <trkpt lat="49.36894" lon="1.14043">
        <ele>185.7</ele>
        <time>2012-05-06T07:34:25.092Z</time>
      </trkpt>
      <trkpt lat="49.36896" lon="1.14051">
        <ele>185.5</ele>
        <time>2012-05-06T07:34:27.090Z</time>
      </trkpt>
      <trkpt lat="49.36897" lon="1.14059">
        <ele>184.3</ele>
        <time>2012-05-06T07:34:29.093Z</time>
      </trkpt>
      <trkpt lat="49.36899" lon="1.14066">
        <ele>184.5</ele>
        <time>2012-05-06T07:34:31.084Z</time>
      </trkpt>
      <trkpt lat="49.36902" lon="1.14072">
        <ele>185.6</ele>
        <time>2012-05-06T07:34:33.094Z</time>
      </trkpt>
      <trkpt lat="49.36905" lon="1.14082">
        <ele>187.7</ele>
        <time>2012-05-06T07:34:36.088Z</time>
      </trkpt>
      <trkpt lat="49.36906" lon="1.14092">
        <ele>187.8</ele>
        <time>2012-05-06T07:34:39.091Z</time>
      </trkpt>
      <trkpt lat="49.36909" lon="1.141">
        <ele>189.3</ele>
        <time>2012-05-06T07:34:42.077Z</time>
      </trkpt>
      <trkpt lat="49.36912" lon="1.14108">
        <ele>189.4</ele>
        <time>2012-05-06T07:34:44.090Z</time>
      </trkpt>
      <trkpt lat="49.36914" lon="1.14115">
        <ele>189.9</ele>
        <time>2012-05-06T07:34:46.080Z</time>
      </trkpt>
      <trkpt lat="49.36914" lon="1.14123">
        <ele>188.4</ele>
        <time>2012-05-06T07:34:48.093Z</time>
      </trkpt>
      <trkpt lat="49.36914" lon="1.14132">
        <ele>185.3</ele>
        <time>2012-05-06T07:34:50.095Z</time>
      </trkpt>
      <trkpt lat="49.36915" lon="1.1414">
        <ele>182.9</ele>
        <time>2012-05-06T07:34:52.094Z</time>
      </trkpt>
      <trkpt lat="49.36915" lon="1.14148">
        <ele>180.9</ele>
        <time>2012-05-06T07:34:54.090Z</time>
      </trkpt>
      <trkpt lat="49.36917" lon="1.14155">
        <ele>179.2</ele>
        <time>2012-05-06T07:34:56.101Z</time>
      </trkpt>
      <trkpt lat="49.36919" lon="1.14163">
        <ele>178.7</ele>
        <time>2012-05-06T07:34:58.102Z</time>
      </trkpt>
      <trkpt lat="49.36921" lon="1.1417">
        <ele>178.4</ele>
        <time>2012-05-06T07:35:00.090Z</time>
      </trkpt>
      <trkpt lat="49.36922" lon="1.14178">
        <ele>177.6</ele>
        <time>2012-05-06T07:35:02.091Z</time>
      </trkpt>
      <trkpt lat="49.36924" lon="1.14188">
        <ele>176.5</ele>
        <time>2012-05-06T07:35:04.090Z</time>
      </trkpt>
      <trkpt lat="49.36927" lon="1.14198">
        <ele>176.3</ele>
        <time>2012-05-06T07:35:06.092Z</time>
      </trkpt>
      <trkpt lat="49.36929" lon="1.14206">
        <ele>175.8</ele>
        <time>2012-05-06T07:35:08.091Z</time>
      </trkpt>
      <trkpt lat="49.36933" lon="1.14215">
        <ele>176</ele>
        <time>2012-05-06T07:35:10.079Z</time>
      </trkpt>
      <trkpt lat="49.36936" lon="1.1422">
        <ele>179.3</ele>
        <time>2012-05-06T07:35:11.092Z</time>
      </trkpt>
      <trkpt lat="49.36942" lon="1.14229">
        <ele>183.7</ele>
        <time>2012-05-06T07:35:13.091Z</time>
      </trkpt>
      <trkpt lat="49.36945" lon="1.1424">
        <ele>185.5</ele>
        <time>2012-05-06T07:35:15.076Z</time>
      </trkpt>
      <trkpt lat="49.36946" lon="1.14251">
        <ele>182.3</ele>
        <time>2012-05-06T07:35:17.091Z</time>
      </trkpt>
      <trkpt lat="49.36949" lon="1.14262">
        <ele>182.2</ele>
        <time>2012-05-06T07:35:19.092Z</time>
      </trkpt>
      <trkpt lat="49.3695" lon="1.14272">
        <ele>181</ele>
        <time>2012-05-06T07:35:21.092Z</time>
      </trkpt>
      <trkpt lat="49.36952" lon="1.14282">
        <ele>180.8</ele>
        <time>2012-05-06T07:35:23.091Z</time>
      </trkpt>
      <trkpt lat="49.36956" lon="1.14289">
        <ele>180.7</ele>
        <time>2012-05-06T07:35:25.090Z</time>
      </trkpt>
      <trkpt lat="49.36962" lon="1.143">
        <ele>182.2</ele>
        <time>2012-05-06T07:35:27.089Z</time>
      </trkpt>
      <trkpt lat="49.36962" lon="1.14308">
        <ele>181.9</ele>
        <time>2012-05-06T07:35:29.104Z</time>
      </trkpt>
      <trkpt lat="49.36965" lon="1.14318">
        <ele>182</ele>
        <time>2012-05-06T07:35:31.105Z</time>
      </trkpt>
      <trkpt lat="49.36969" lon="1.14322">
        <ele>183.2</ele>
        <time>2012-05-06T07:35:32.089Z</time>
      </trkpt>
      <trkpt lat="49.36973" lon="1.1433">
        <ele>183.1</ele>
        <time>2012-05-06T07:35:34.091Z</time>
      </trkpt>
      <trkpt lat="49.36977" lon="1.14342">
        <ele>181.7</ele>
        <time>2012-05-06T07:35:36.091Z</time>
      </trkpt>
      <trkpt lat="49.36981" lon="1.14349">
        <ele>179.5</ele>
        <time>2012-05-06T07:35:38.091Z</time>
      </trkpt>
      <trkpt lat="49.36985" lon="1.14358">
        <ele>178.3</ele>
        <time>2012-05-06T07:35:40.091Z</time>
      </trkpt>
      <trkpt lat="49.36989" lon="1.14366">
        <ele>177.1</ele>
        <time>2012-05-06T07:35:42.094Z</time>
      </trkpt>
      <trkpt lat="49.36994" lon="1.14375">
        <ele>176.5</ele>
        <time>2012-05-06T07:35:44.100Z</time>
      </trkpt>
      <trkpt lat="49.36998" lon="1.14384">
        <ele>176.2</ele>
        <time>2012-05-06T07:35:46.107Z</time>
      </trkpt>
      <trkpt lat="49.37002" lon="1.14393">
        <ele>175.6</ele>
        <time>2012-05-06T07:35:48.094Z</time>
      </trkpt>
      <trkpt lat="49.37007" lon="1.14402">
        <ele>175</ele>
        <time>2012-05-06T07:35:50.093Z</time>
      </trkpt>
      <trkpt lat="49.37011" lon="1.14411">
        <ele>175.1</ele>
        <time>2012-05-06T07:35:52.094Z</time>
      </trkpt>
      <trkpt lat="49.37016" lon="1.14421">
        <ele>175</ele>
        <time>2012-05-06T07:35:54.075Z</time>
      </trkpt>
      <trkpt lat="49.3702" lon="1.14431">
        <ele>174.6</ele>
        <time>2012-05-06T07:35:56.082Z</time>
      </trkpt>
      <trkpt lat="49.37025" lon="1.1444">
        <ele>174.9</ele>
        <time>2012-05-06T07:35:58.077Z</time>
      </trkpt>
      <trkpt lat="49.37029" lon="1.1445">
        <ele>174.4</ele>
        <time>2012-05-06T07:36:00.080Z</time>
      </trkpt>
      <trkpt lat="49.37034" lon="1.14459">
        <ele>174.3</ele>
        <time>2012-05-06T07:36:02.092Z</time>
      </trkpt>
      <trkpt lat="49.37038" lon="1.14469">
        <ele>173.9</ele>
        <time>2012-05-06T07:36:04.081Z</time>
      </trkpt>
      <trkpt lat="49.37043" lon="1.14479">
        <ele>173.7</ele>
        <time>2012-05-06T07:36:06.091Z</time>
      </trkpt>
      <trkpt lat="49.37047" lon="1.14488">
        <ele>173.8</ele>
        <time>2012-05-06T07:36:08.089Z</time>
      </trkpt>
      <trkpt lat="49.37052" lon="1.14498">
        <ele>173.9</ele>
        <time>2012-05-06T07:36:10.081Z</time>
      </trkpt>
      <trkpt lat="49.37056" lon="1.14509">
        <ele>173.9</ele>
        <time>2012-05-06T07:36:12.088Z</time>
      </trkpt>
      <trkpt lat="49.3706" lon="1.1452">
        <ele>173.7</ele>
        <time>2012-05-06T07:36:14.089Z</time>
      </trkpt>
      <trkpt lat="49.37064" lon="1.14528">
        <ele>173.8</ele>
        <time>2012-05-06T07:36:16.078Z</time>
      </trkpt>
      <trkpt lat="49.37069" lon="1.14537">
        <ele>174.1</ele>
        <time>2012-05-06T07:36:18.084Z</time>
      </trkpt>
      <trkpt lat="49.37073" lon="1.14546">
        <ele>174.3</ele>
        <time>2012-05-06T07:36:20.090Z</time>
      </trkpt>
      <trkpt lat="49.37077" lon="1.14555">
        <ele>174.1</ele>
        <time>2012-05-06T07:36:22.094Z</time>
      </trkpt>
      <trkpt lat="49.37082" lon="1.14564">
        <ele>174.6</ele>
        <time>2012-05-06T07:36:24.092Z</time>
      </trkpt>
      <trkpt lat="49.37086" lon="1.14573">
        <ele>175.1</ele>
        <time>2012-05-06T07:36:26.086Z</time>
      </trkpt>
      <trkpt lat="49.3709" lon="1.14582">
        <ele>175</ele>
        <time>2012-05-06T07:36:28.078Z</time>
      </trkpt>
      <trkpt lat="49.37095" lon="1.14591">
        <ele>174.9</ele>
        <time>2012-05-06T07:36:30.076Z</time>
      </trkpt>
      <trkpt lat="49.371" lon="1.14599">
        <ele>174.4</ele>
        <time>2012-05-06T07:36:32.091Z</time>
      </trkpt>
      <trkpt lat="49.37104" lon="1.14609">
        <ele>174.7</ele>
        <time>2012-05-06T07:36:34.091Z</time>
      </trkpt>
      <trkpt lat="49.37109" lon="1.14618">
        <ele>175.1</ele>
        <time>2012-05-06T07:36:36.078Z</time>
      </trkpt>
      <trkpt lat="49.37112" lon="1.14628">
        <ele>175.6</ele>
        <time>2012-05-06T07:36:38.091Z</time>
      </trkpt>
      <trkpt lat="49.37115" lon="1.14638">
        <ele>176</ele>
        <time>2012-05-06T07:36:40.077Z</time>
      </trkpt>
      <trkpt lat="49.37115" lon="1.14648">
        <ele>176.1</ele>
        <time>2012-05-06T07:36:42.093Z</time>
      </trkpt>
      <trkpt lat="49.37112" lon="1.14658">
        <ele>175.8</ele>
        <time>2012-05-06T07:36:44.095Z</time>
      </trkpt>
      <trkpt lat="49.37109" lon="1.14668">
        <ele>175.2</ele>
        <time>2012-05-06T07:36:46.075Z</time>
      </trkpt>
      <trkpt lat="49.37104" lon="1.14676">
        <ele>174.6</ele>
        <time>2012-05-06T07:36:48.093Z</time>
      </trkpt>
      <trkpt lat="49.37098" lon="1.14683">
        <ele>174.2</ele>
        <time>2012-05-06T07:36:50.086Z</time>
      </trkpt>
      <trkpt lat="49.37093" lon="1.14693">
        <ele>174.1</ele>
        <time>2012-05-06T07:36:52.097Z</time>
      </trkpt>
      <trkpt lat="49.3709" lon="1.147">
        <ele>172.7</ele>
        <time>2012-05-06T07:36:54.091Z</time>
      </trkpt>
      <trkpt lat="49.37089" lon="1.14708">
        <ele>172</ele>
        <time>2012-05-06T07:36:56.092Z</time>
      </trkpt>
      <trkpt lat="49.37086" lon="1.1472">
        <ele>172.8</ele>
        <time>2012-05-06T07:36:58.078Z</time>
      </trkpt>
      <trkpt lat="49.37082" lon="1.14726">
        <ele>172.3</ele>
        <time>2012-05-06T07:36:59.077Z</time>
      </trkpt>
      <trkpt lat="49.37079" lon="1.14736">
        <ele>170.7</ele>
        <time>2012-05-06T07:37:01.090Z</time>
      </trkpt>
      <trkpt lat="49.37074" lon="1.14745">
        <ele>169.6</ele>
        <time>2012-05-06T07:37:03.092Z</time>
      </trkpt>
      <trkpt lat="49.3707" lon="1.14756">
        <ele>170</ele>
        <time>2012-05-06T07:37:05.076Z</time>
      </trkpt>
      <trkpt lat="49.37066" lon="1.14765">
        <ele>170.4</ele>
        <time>2012-05-06T07:37:07.091Z</time>
      </trkpt>
      <trkpt lat="49.37061" lon="1.14776">
        <ele>169.9</ele>
        <time>2012-05-06T07:37:09.090Z</time>
      </trkpt>
      <trkpt lat="49.37056" lon="1.14783">
        <ele>169</ele>
        <time>2012-05-06T07:37:11.078Z</time>
      </trkpt>
      <trkpt lat="49.3705" lon="1.14792">
        <ele>169.6</ele>
        <time>2012-05-06T07:37:13.080Z</time>
      </trkpt>
      <trkpt lat="49.37045" lon="1.14799">
        <ele>168.9</ele>
        <time>2012-05-06T07:37:15.110Z</time>
      </trkpt>
      <trkpt lat="49.37044" lon="1.1481">
        <ele>169.2</ele>
        <time>2012-05-06T07:37:17.096Z</time>
      </trkpt>
      <trkpt lat="49.37041" lon="1.14817">
        <ele>171.1</ele>
        <time>2012-05-06T07:37:19.084Z</time>
      </trkpt>
      <trkpt lat="49.37039" lon="1.14824">
        <ele>171.6</ele>
        <time>2012-05-06T07:37:21.084Z</time>
      </trkpt>
      <trkpt lat="49.37033" lon="1.14823">
        <ele>172.3</ele>
        <time>2012-05-06T07:37:24.089Z</time>
      </trkpt>
      <trkpt lat="49.37028" lon="1.14817">
        <ele>173</ele>
        <time>2012-05-06T07:37:26.089Z</time>
      </trkpt>
      <trkpt lat="49.3702" lon="1.14812">
        <ele>173.2</ele>
        <time>2012-05-06T07:37:28.084Z</time>
      </trkpt>
      <trkpt lat="49.37016" lon="1.14808">
        <ele>172.8</ele>
        <time>2012-05-06T07:37:29.083Z</time>
      </trkpt>
      <trkpt lat="49.37012" lon="1.14806">
        <ele>172.5</ele>
        <time>2012-05-06T07:37:30.083Z</time>
      </trkpt>
      <trkpt lat="49.37006" lon="1.14803">
        <ele>171.5</ele>
        <time>2012-05-06T07:37:31.078Z</time>
      </trkpt>
      <trkpt lat="49.37" lon="1.148">
        <ele>171.2</ele>
        <time>2012-05-06T07:37:32.098Z</time>
      </trkpt>
      <trkpt lat="49.36993" lon="1.14797">
        <ele>171.4</ele>
        <time>2012-05-06T07:37:33.084Z</time>
      </trkpt>
      <trkpt lat="49.36986" lon="1.14795">
        <ele>171.5</ele>
        <time>2012-05-06T07:37:34.079Z</time>
      </trkpt>
      <trkpt lat="49.36979" lon="1.14793">
        <ele>171.1</ele>
        <time>2012-05-06T07:37:35.091Z</time>
      </trkpt>
      <trkpt lat="49.36971" lon="1.14792">
        <ele>170.9</ele>
        <time>2012-05-06T07:37:36.093Z</time>
      </trkpt>
      <trkpt lat="49.36964" lon="1.14792">
        <ele>171.3</ele>
        <time>2012-05-06T07:37:37.082Z</time>
      </trkpt>
      <trkpt lat="49.36956" lon="1.14792">
        <ele>171.2</ele>
        <time>2012-05-06T07:37:38.083Z</time>
      </trkpt>
      <trkpt lat="49.36949" lon="1.14792">
        <ele>171.1</ele>
        <time>2012-05-06T07:37:39.095Z</time>
      </trkpt>
      <trkpt lat="49.36941" lon="1.14791">
        <ele>170.6</ele>
        <time>2012-05-06T07:37:40.136Z</time>
      </trkpt>
      <trkpt lat="49.36933" lon="1.1479">
        <ele>170.1</ele>
        <time>2012-05-06T07:37:41.088Z</time>
      </trkpt>
      <trkpt lat="49.36925" lon="1.14787">
        <ele>169.1</ele>
        <time>2012-05-06T07:37:42.094Z</time>
      </trkpt>
      <trkpt lat="49.36918" lon="1.14783">
        <ele>168.7</ele>
        <time>2012-05-06T07:37:43.079Z</time>
      </trkpt>
      <trkpt lat="49.3691" lon="1.14779">
        <ele>168.7</ele>
        <time>2012-05-06T07:37:44.090Z</time>
      </trkpt>
      <trkpt lat="49.36904" lon="1.14774">
        <ele>168.9</ele>
        <time>2012-05-06T07:37:45.078Z</time>
      </trkpt>
      <trkpt lat="49.36898" lon="1.14768">
        <ele>169.1</ele>
        <time>2012-05-06T07:37:46.088Z</time>
      </trkpt>
      <trkpt lat="49.36893" lon="1.14763">
        <ele>169.4</ele>
        <time>2012-05-06T07:37:47.087Z</time>
      </trkpt>
      <trkpt lat="49.36887" lon="1.14759">
        <ele>169.2</ele>
        <time>2012-05-06T07:37:48.095Z</time>
      </trkpt>
      <trkpt lat="49.36882" lon="1.14759">
        <ele>169.4</ele>
        <time>2012-05-06T07:37:49.081Z</time>
      </trkpt>
      <trkpt lat="49.36876" lon="1.14761">
        <ele>169.5</ele>
        <time>2012-05-06T07:37:50.083Z</time>
      </trkpt>
      <trkpt lat="49.36872" lon="1.14764">
        <ele>169.8</ele>
        <time>2012-05-06T07:37:51.095Z</time>
      </trkpt>
      <trkpt lat="49.36867" lon="1.1477">
        <ele>170.4</ele>
        <time>2012-05-06T07:37:52.088Z</time>
      </trkpt>
      <trkpt lat="49.36862" lon="1.14774">
        <ele>169.9</ele>
        <time>2012-05-06T07:37:53.101Z</time>
      </trkpt>
      <trkpt lat="49.36859" lon="1.14778">
        <ele>169.6</ele>
        <time>2012-05-06T07:37:54.101Z</time>
      </trkpt>
      <trkpt lat="49.36852" lon="1.14789">
        <ele>170.5</ele>
        <time>2012-05-06T07:37:56.142Z</time>
      </trkpt>
      <trkpt lat="49.36846" lon="1.14798">
        <ele>171.6</ele>
        <time>2012-05-06T07:37:58.093Z</time>
      </trkpt>
      <trkpt lat="49.36839" lon="1.14806">
        <ele>171.5</ele>
        <time>2012-05-06T07:38:00.112Z</time>
      </trkpt>
      <trkpt lat="49.36832" lon="1.14814">
        <ele>171.8</ele>
        <time>2012-05-06T07:38:02.101Z</time>
      </trkpt>
      <trkpt lat="49.36828" lon="1.14818">
        <ele>171.7</ele>
        <time>2012-05-06T07:38:03.099Z</time>
      </trkpt>
      <trkpt lat="49.3682" lon="1.14823">
        <ele>170.6</ele>
        <time>2012-05-06T07:38:05.091Z</time>
      </trkpt>
      <trkpt lat="49.36813" lon="1.1483">
        <ele>170.3</ele>
        <time>2012-05-06T07:38:07.081Z</time>
      </trkpt>
      <trkpt lat="49.36807" lon="1.14836">
        <ele>169.9</ele>
        <time>2012-05-06T07:38:09.093Z</time>
      </trkpt>
      <trkpt lat="49.36802" lon="1.1484">
        <ele>169.4</ele>
        <time>2012-05-06T07:38:10.090Z</time>
      </trkpt>
      <trkpt lat="49.36796" lon="1.14848">
        <ele>170.4</ele>
        <time>2012-05-06T07:38:12.076Z</time>
      </trkpt>
      <trkpt lat="49.36789" lon="1.14856">
        <ele>171.1</ele>
        <time>2012-05-06T07:38:14.089Z</time>
      </trkpt>
      <trkpt lat="49.36786" lon="1.14863">
        <ele>171.2</ele>
        <time>2012-05-06T07:38:15.078Z</time>
      </trkpt>
      <trkpt lat="49.36779" lon="1.14871">
        <ele>170.3</ele>
        <time>2012-05-06T07:38:17.090Z</time>
      </trkpt>
      <trkpt lat="49.36771" lon="1.14878">
        <ele>168.5</ele>
        <time>2012-05-06T07:38:19.091Z</time>
      </trkpt>
      <trkpt lat="49.36764" lon="1.14885">
        <ele>169.3</ele>
        <time>2012-05-06T07:38:21.087Z</time>
      </trkpt>
      <trkpt lat="49.36761" lon="1.1489">
        <ele>169.4</ele>
        <time>2012-05-06T07:38:23.080Z</time>
      </trkpt>
      <trkpt lat="49.36759" lon="1.14898">
        <ele>170.5</ele>
        <time>2012-05-06T07:38:26.092Z</time>
      </trkpt>
      <trkpt lat="49.36757" lon="1.14906">
        <ele>171.2</ele>
        <time>2012-05-06T07:38:28.091Z</time>
      </trkpt>
      <trkpt lat="49.36755" lon="1.14918">
        <ele>171.7</ele>
        <time>2012-05-06T07:38:30.094Z</time>
      </trkpt>
      <trkpt lat="49.36751" lon="1.14928">
        <ele>165.1</ele>
        <time>2012-05-06T07:38:32.089Z</time>
      </trkpt>
      <trkpt lat="49.36747" lon="1.14938">
        <ele>159.8</ele>
        <time>2012-05-06T07:38:34.206Z</time>
      </trkpt>
      <trkpt lat="49.36742" lon="1.14948">
        <ele>157.5</ele>
        <time>2012-05-06T07:38:36.206Z</time>
      </trkpt>
      <trkpt lat="49.36738" lon="1.14953">
        <ele>156.3</ele>
        <time>2012-05-06T07:38:37.206Z</time>
      </trkpt>
      <trkpt lat="49.36736" lon="1.1496">
        <ele>156.2</ele>
        <time>2012-05-06T07:38:38.206Z</time>
      </trkpt>
      <trkpt lat="49.36733" lon="1.14969">
        <ele>156.2</ele>
        <time>2012-05-06T07:38:39.206Z</time>
      </trkpt>
      <trkpt lat="49.36729" lon="1.14979">
        <ele>156.1</ele>
        <time>2012-05-06T07:38:40.714Z</time>
      </trkpt>
      <trkpt lat="49.36725" lon="1.14988">
        <ele>156.9</ele>
        <time>2012-05-06T07:38:42.078Z</time>
      </trkpt>
      <trkpt lat="49.36724" lon="1.14996">
        <ele>157.2</ele>
        <time>2012-05-06T07:38:43.076Z</time>
      </trkpt>
      <trkpt lat="49.36722" lon="1.15004">
        <ele>157.3</ele>
        <time>2012-05-06T07:38:44.077Z</time>
      </trkpt>
      <trkpt lat="49.36716" lon="1.1501">
        <ele>157.6</ele>
        <time>2012-05-06T07:38:45.090Z</time>
      </trkpt>
      <trkpt lat="49.36711" lon="1.15014">
        <ele>158</ele>
        <time>2012-05-06T07:38:46.091Z</time>
      </trkpt>
      <trkpt lat="49.36707" lon="1.15018">
        <ele>149.5</ele>
        <time>2012-05-06T07:38:48.093Z</time>
      </trkpt>
      <trkpt lat="49.36704" lon="1.15025">
        <ele>147.6</ele>
        <time>2012-05-06T07:38:50.090Z</time>
      </trkpt>
      <trkpt lat="49.36698" lon="1.15037">
        <ele>146.7</ele>
        <time>2012-05-06T07:38:52.077Z</time>
      </trkpt>
      <trkpt lat="49.36691" lon="1.15045">
        <ele>147.4</ele>
        <time>2012-05-06T07:38:53.077Z</time>
      </trkpt>
      <trkpt lat="49.36686" lon="1.15052">
        <ele>147.3</ele>
        <time>2012-05-06T07:38:54.089Z</time>
      </trkpt>
      <trkpt lat="49.36682" lon="1.15061">
        <ele>147.4</ele>
        <time>2012-05-06T07:38:55.090Z</time>
      </trkpt>
      <trkpt lat="49.36678" lon="1.15066">
        <ele>148.7</ele>
        <time>2012-05-06T07:38:56.091Z</time>
      </trkpt>
      <trkpt lat="49.36674" lon="1.15075">
        <ele>149.9</ele>
        <time>2012-05-06T07:38:57.080Z</time>
      </trkpt>
      <trkpt lat="49.36672" lon="1.15084">
        <ele>150.3</ele>
        <time>2012-05-06T07:38:58.078Z</time>
      </trkpt>
      <trkpt lat="49.36668" lon="1.15092">
        <ele>151.1</ele>
        <time>2012-05-06T07:38:59.093Z</time>
      </trkpt>
      <trkpt lat="49.36665" lon="1.15101">
        <ele>151.1</ele>
        <time>2012-05-06T07:39:00.111Z</time>
      </trkpt>
      <trkpt lat="49.3666" lon="1.15108">
        <ele>150.3</ele>
        <time>2012-05-06T07:39:01.097Z</time>
      </trkpt>
      <trkpt lat="49.36657" lon="1.15116">
        <ele>151.4</ele>
        <time>2012-05-06T07:39:02.087Z</time>
      </trkpt>
      <trkpt lat="49.36656" lon="1.15124">
        <ele>151.7</ele>
        <time>2012-05-06T07:39:03.089Z</time>
      </trkpt>
      <trkpt lat="49.36655" lon="1.15132">
        <ele>152.7</ele>
        <time>2012-05-06T07:39:04.090Z</time>
      </trkpt>
      <trkpt lat="49.36653" lon="1.15138">
        <ele>154.4</ele>
        <time>2012-05-06T07:39:05.083Z</time>
      </trkpt>
      <trkpt lat="49.36658" lon="1.15142">
        <ele>161.1</ele>
        <time>2012-05-06T07:39:06.090Z</time>
      </trkpt>
      <trkpt lat="49.36662" lon="1.15148">
        <ele>164.8</ele>
        <time>2012-05-06T07:39:08.091Z</time>
      </trkpt>
      <trkpt lat="49.36664" lon="1.15158">
        <ele>169.8</ele>
        <time>2012-05-06T07:39:11.092Z</time>
      </trkpt>
      <trkpt lat="49.36659" lon="1.15157">
        <ele>174.2</ele>
        <time>2012-05-06T07:39:15.088Z</time>
      </trkpt>
      <trkpt lat="49.36654" lon="1.15155">
        <ele>176.9</ele>
        <time>2012-05-06T07:39:19.076Z</time>
      </trkpt>
      <trkpt lat="49.36648" lon="1.15154">
        <ele>175</ele>
        <time>2012-05-06T07:39:21.078Z</time>
      </trkpt>
      <trkpt lat="49.36644" lon="1.15154">
        <ele>174.7</ele>
        <time>2012-05-06T07:39:23.077Z</time>
      </trkpt>
      <trkpt lat="49.36638" lon="1.15155">
        <ele>176.1</ele>
        <time>2012-05-06T07:39:28.078Z</time>
      </trkpt>
      <trkpt lat="49.36635" lon="1.1516">
        <ele>177.8</ele>
        <time>2012-05-06T07:39:31.076Z</time>
      </trkpt>
      <trkpt lat="49.3663" lon="1.1516">
        <ele>178.7</ele>
        <time>2012-05-06T07:39:33.076Z</time>
      </trkpt>
      <trkpt lat="49.36625" lon="1.15162">
        <ele>179.3</ele>
        <time>2012-05-06T07:39:34.075Z</time>
      </trkpt>
      <trkpt lat="49.3662" lon="1.15165">
        <ele>179.2</ele>
        <time>2012-05-06T07:39:36.093Z</time>
      </trkpt>
      <trkpt lat="49.36624" lon="1.15169">
        <ele>183.8</ele>
        <time>2012-05-06T07:39:37.087Z</time>
      </trkpt>
      <trkpt lat="49.3662" lon="1.15174">
        <ele>185.2</ele>
        <time>2012-05-06T07:39:39.092Z</time>
      </trkpt>
      <trkpt lat="49.36618" lon="1.1518">
        <ele>185.4</ele>
        <time>2012-05-06T07:39:41.084Z</time>
      </trkpt>
      <trkpt lat="49.36615" lon="1.15186">
        <ele>193</ele>
        <time>2012-05-06T07:39:45.078Z</time>
      </trkpt>
      <trkpt lat="49.36612" lon="1.15193">
        <ele>189.9</ele>
        <time>2012-05-06T07:39:48.089Z</time>
      </trkpt>
      <trkpt lat="49.3661" lon="1.15203">
        <ele>190</ele>
        <time>2012-05-06T07:39:51.076Z</time>
      </trkpt>
      <trkpt lat="49.36611" lon="1.1521">
        <ele>188.3</ele>
        <time>2012-05-06T07:39:54.075Z</time>
      </trkpt>
      <trkpt lat="49.36607" lon="1.15214">
        <ele>189.5</ele>
        <time>2012-05-06T07:39:57.077Z</time>
      </trkpt>
      <trkpt lat="49.36603" lon="1.1522">
        <ele>193.3</ele>
        <time>2012-05-06T07:40:00.090Z</time>
      </trkpt>
      <trkpt lat="49.36601" lon="1.15227">
        <ele>195.2</ele>
        <time>2012-05-06T07:40:03.091Z</time>
      </trkpt>
      <trkpt lat="49.36597" lon="1.15232">
        <ele>193.4</ele>
        <time>2012-05-06T07:40:06.091Z</time>
      </trkpt>
      <trkpt lat="49.36594" lon="1.15238">
        <ele>193.7</ele>
        <time>2012-05-06T07:40:10.089Z</time>
      </trkpt>
      <trkpt lat="49.36588" lon="1.15243">
        <ele>190</ele>
        <time>2012-05-06T07:40:14.089Z</time>
      </trkpt>
      <trkpt lat="49.36582" lon="1.15248">
        <ele>190.1</ele>
        <time>2012-05-06T07:40:16.093Z</time>
      </trkpt>
      <trkpt lat="49.36578" lon="1.1525">
        <ele>188</ele>
        <time>2012-05-06T07:40:18.088Z</time>
      </trkpt>
      <trkpt lat="49.36574" lon="1.15254">
        <ele>187.6</ele>
        <time>2012-05-06T07:40:22.081Z</time>
      </trkpt>
      <trkpt lat="49.36571" lon="1.1526">
        <ele>189.1</ele>
        <time>2012-05-06T07:40:26.077Z</time>
      </trkpt>
      <trkpt lat="49.36566" lon="1.15265">
        <ele>189.7</ele>
        <time>2012-05-06T07:40:35.078Z</time>
      </trkpt>
      <trkpt lat="49.36563" lon="1.1527">
        <ele>189</ele>
        <time>2012-05-06T07:40:39.088Z</time>
      </trkpt>
      <trkpt lat="49.36558" lon="1.15275">
        <ele>188.1</ele>
        <time>2012-05-06T07:40:41.078Z</time>
      </trkpt>
      <trkpt lat="49.36553" lon="1.15278">
        <ele>187.5</ele>
        <time>2012-05-06T07:40:43.080Z</time>
      </trkpt>
      <trkpt lat="49.36552" lon="1.15286">
        <ele>186.6</ele>
        <time>2012-05-06T07:40:46.094Z</time>
      </trkpt>
      <trkpt lat="49.36549" lon="1.15295">
        <ele>186.2</ele>
        <time>2012-05-06T07:40:50.075Z</time>
      </trkpt>
      <trkpt lat="49.36548" lon="1.15303">
        <ele>183.5</ele>
        <time>2012-05-06T07:40:55.090Z</time>
      </trkpt>
      <trkpt lat="49.36544" lon="1.1531">
        <ele>183.5</ele>
        <time>2012-05-06T07:40:58.076Z</time>
      </trkpt>
      <trkpt lat="49.36542" lon="1.15318">
        <ele>184.4</ele>
        <time>2012-05-06T07:41:01.091Z</time>
      </trkpt>
      <trkpt lat="49.36541" lon="1.15326">
        <ele>180.1</ele>
        <time>2012-05-06T07:41:06.092Z</time>
      </trkpt>
      <trkpt lat="49.3654" lon="1.15335">
        <ele>177.6</ele>
        <time>2012-05-06T07:41:09.092Z</time>
      </trkpt>
      <trkpt lat="49.36539" lon="1.15343">
        <ele>176.5</ele>
        <time>2012-05-06T07:41:12.080Z</time>
      </trkpt>
      <trkpt lat="49.36536" lon="1.1535">
        <ele>177.3</ele>
        <time>2012-05-06T07:41:15.093Z</time>
      </trkpt>
      <trkpt lat="49.36538" lon="1.15357">
        <ele>185.5</ele>
        <time>2012-05-06T07:41:18.095Z</time>
      </trkpt>
      <trkpt lat="49.36535" lon="1.15363">
        <ele>184</ele>
        <time>2012-05-06T07:41:21.090Z</time>
      </trkpt>
      <trkpt lat="49.36532" lon="1.1537">
        <ele>182</ele>
        <time>2012-05-06T07:41:24.092Z</time>
      </trkpt>
      <trkpt lat="49.36529" lon="1.15377">
        <ele>180.9</ele>
        <time>2012-05-06T07:41:27.090Z</time>
      </trkpt>
      <trkpt lat="49.36525" lon="1.15382">
        <ele>180.1</ele>
        <time>2012-05-06T07:41:31.090Z</time>
      </trkpt>
      <trkpt lat="49.36522" lon="1.15389">
        <ele>173.3</ele>
        <time>2012-05-06T07:41:37.093Z</time>
      </trkpt>
      <trkpt lat="49.36516" lon="1.15392">
        <ele>173.3</ele>
        <time>2012-05-06T07:41:40.080Z</time>
      </trkpt>
      <trkpt lat="49.36513" lon="1.15399">
        <ele>171.9</ele>
        <time>2012-05-06T07:41:43.497Z</time>
      </trkpt>
      <trkpt lat="49.3651" lon="1.15404">
        <ele>173.5</ele>
        <time>2012-05-06T07:41:46.093Z</time>
      </trkpt>
      <trkpt lat="49.36512" lon="1.15412">
        <ele>175.4</ele>
        <time>2012-05-06T07:41:50.093Z</time>
      </trkpt>
      <trkpt lat="49.36517" lon="1.15412">
        <ele>175.9</ele>
        <time>2012-05-06T07:41:54.094Z</time>
      </trkpt>
      <trkpt lat="49.36521" lon="1.15409">
        <ele>176.1</ele>
        <time>2012-05-06T07:41:58.080Z</time>
      </trkpt>
      <trkpt lat="49.36516" lon="1.15406">
        <ele>175.9</ele>
        <time>2012-05-06T07:43:05.090Z</time>
      </trkpt>
      <trkpt lat="49.36511" lon="1.15403">
        <ele>176.1</ele>
        <time>2012-05-06T07:43:08.077Z</time>
      </trkpt>
      <trkpt lat="49.36506" lon="1.15401">
        <ele>176.2</ele>
        <time>2012-05-06T07:43:10.079Z</time>
      </trkpt>
      <trkpt lat="49.36501" lon="1.15397">
        <ele>176.3</ele>
        <time>2012-05-06T07:43:12.091Z</time>
      </trkpt>
      <trkpt lat="49.36496" lon="1.15394">
        <ele>176.3</ele>
        <time>2012-05-06T07:43:14.091Z</time>
      </trkpt>
      <trkpt lat="49.36491" lon="1.15391">
        <ele>176.7</ele>
        <time>2012-05-06T07:43:17.079Z</time>
      </trkpt>
      <trkpt lat="49.36489" lon="1.15398">
        <ele>177.2</ele>
        <time>2012-05-06T07:43:21.077Z</time>
      </trkpt>
      <trkpt lat="49.36489" lon="1.1539">
        <ele>177.8</ele>
        <time>2012-05-06T07:43:27.091Z</time>
      </trkpt>
      <trkpt lat="49.36483" lon="1.15384">
        <ele>177.8</ele>
        <time>2012-05-06T07:43:30.091Z</time>
      </trkpt>
      <trkpt lat="49.36478" lon="1.1538">
        <ele>177.7</ele>
        <time>2012-05-06T07:43:32.091Z</time>
      </trkpt>
      <trkpt lat="49.36474" lon="1.15376">
        <ele>177.6</ele>
        <time>2012-05-06T07:43:36.091Z</time>
      </trkpt>
      <trkpt lat="49.36469" lon="1.1537">
        <ele>178.6</ele>
        <time>2012-05-06T07:43:39.092Z</time>
      </trkpt>
      <trkpt lat="49.36464" lon="1.15365">
        <ele>177.8</ele>
        <time>2012-05-06T07:43:42.051Z</time>
      </trkpt>
      <trkpt lat="49.36459" lon="1.15366">
        <ele>178.9</ele>
        <time>2012-05-06T07:43:45.090Z</time>
      </trkpt>
      <trkpt lat="49.36454" lon="1.15369">
        <ele>177</ele>
        <time>2012-05-06T07:43:47.090Z</time>
      </trkpt>
      <trkpt lat="49.36448" lon="1.15371">
        <ele>177</ele>
        <time>2012-05-06T07:43:49.094Z</time>
      </trkpt>
      <trkpt lat="49.36444" lon="1.15373">
        <ele>176.7</ele>
        <time>2012-05-06T07:43:51.091Z</time>
      </trkpt>
      <trkpt lat="49.36439" lon="1.15379">
        <ele>176.4</ele>
        <time>2012-05-06T07:43:54.091Z</time>
      </trkpt>
      <trkpt lat="49.36433" lon="1.15385">
        <ele>175.6</ele>
        <time>2012-05-06T07:43:56.091Z</time>
      </trkpt>
      <trkpt lat="49.36428" lon="1.15386">
        <ele>173.3</ele>
        <time>2012-05-06T07:43:58.100Z</time>
      </trkpt>
      <trkpt lat="49.36422" lon="1.15393">
        <ele>172.9</ele>
        <time>2012-05-06T07:44:01.101Z</time>
      </trkpt>
      <trkpt lat="49.36418" lon="1.15398">
        <ele>171.3</ele>
        <time>2012-05-06T07:44:03.117Z</time>
      </trkpt>
      <trkpt lat="49.36416" lon="1.15407">
        <ele>170</ele>
        <time>2012-05-06T07:44:06.093Z</time>
      </trkpt>
      <trkpt lat="49.36413" lon="1.15418">
        <ele>169.7</ele>
        <time>2012-05-06T07:44:09.094Z</time>
      </trkpt>
      <trkpt lat="49.36411" lon="1.15425">
        <ele>168.3</ele>
        <time>2012-05-06T07:44:11.087Z</time>
      </trkpt>
      <trkpt lat="49.36411" lon="1.15432">
        <ele>165.8</ele>
        <time>2012-05-06T07:44:13.088Z</time>
      </trkpt>
      <trkpt lat="49.36411" lon="1.15443">
        <ele>165.3</ele>
        <time>2012-05-06T07:44:15.089Z</time>
      </trkpt>
      <trkpt lat="49.36408" lon="1.15453">
        <ele>164.9</ele>
        <time>2012-05-06T07:44:17.089Z</time>
      </trkpt>
      <trkpt lat="49.36406" lon="1.15459">
        <ele>165.7</ele>
        <time>2012-05-06T07:44:19.089Z</time>
      </trkpt>
      <trkpt lat="49.364" lon="1.15462">
        <ele>167.5</ele>
        <time>2012-05-06T07:44:22.092Z</time>
      </trkpt>
      <trkpt lat="49.36395" lon="1.15459">
        <ele>168.5</ele>
        <time>2012-05-06T07:44:24.085Z</time>
      </trkpt>
      <trkpt lat="49.36391" lon="1.15454">
        <ele>169.4</ele>
        <time>2012-05-06T07:44:26.099Z</time>
      </trkpt>
      <trkpt lat="49.36386" lon="1.15447">
        <ele>169.7</ele>
        <time>2012-05-06T07:44:29.090Z</time>
      </trkpt>
      <trkpt lat="49.36382" lon="1.15439">
        <ele>170.1</ele>
        <time>2012-05-06T07:44:32.091Z</time>
      </trkpt>
      <trkpt lat="49.36378" lon="1.15434">
        <ele>170.6</ele>
        <time>2012-05-06T07:44:34.090Z</time>
      </trkpt>
      <trkpt lat="49.36374" lon="1.15427">
        <ele>171.4</ele>
        <time>2012-05-06T07:44:36.091Z</time>
      </trkpt>
      <trkpt lat="49.3637" lon="1.1542">
        <ele>172.1</ele>
        <time>2012-05-06T07:44:38.110Z</time>
      </trkpt>
      <trkpt lat="49.36364" lon="1.15417">
        <ele>170.9</ele>
        <time>2012-05-06T07:44:40.094Z</time>
      </trkpt>
      <trkpt lat="49.36356" lon="1.15415">
        <ele>170.5</ele>
        <time>2012-05-06T07:44:42.095Z</time>
      </trkpt>
      <trkpt lat="49.36348" lon="1.15411">
        <ele>172</ele>
        <time>2012-05-06T07:44:44.099Z</time>
      </trkpt>
      <trkpt lat="49.36343" lon="1.15407">
        <ele>171.2</ele>
        <time>2012-05-06T07:44:45.098Z</time>
      </trkpt>
      <trkpt lat="49.36338" lon="1.15404">
        <ele>170.7</ele>
        <time>2012-05-06T07:44:46.098Z</time>
      </trkpt>
      <trkpt lat="49.36333" lon="1.154">
        <ele>170.5</ele>
        <time>2012-05-06T07:44:47.098Z</time>
      </trkpt>
      <trkpt lat="49.36328" lon="1.15398">
        <ele>170.5</ele>
        <time>2012-05-06T07:44:48.102Z</time>
      </trkpt>
      <trkpt lat="49.36323" lon="1.15396">
        <ele>170.4</ele>
        <time>2012-05-06T07:44:49.097Z</time>
      </trkpt>
      <trkpt lat="49.36318" lon="1.15393">
        <ele>170.7</ele>
        <time>2012-05-06T07:44:50.080Z</time>
      </trkpt>
      <trkpt lat="49.36313" lon="1.15391">
        <ele>170.5</ele>
        <time>2012-05-06T07:44:51.080Z</time>
      </trkpt>
      <trkpt lat="49.36308" lon="1.15388">
        <ele>170</ele>
        <time>2012-05-06T07:44:52.079Z</time>
      </trkpt>
      <trkpt lat="49.36302" lon="1.15385">
        <ele>170.4</ele>
        <time>2012-05-06T07:44:53.084Z</time>
      </trkpt>
      <trkpt lat="49.36296" lon="1.15381">
        <ele>169.8</ele>
        <time>2012-05-06T07:44:54.084Z</time>
      </trkpt>
      <trkpt lat="49.3629" lon="1.15377">
        <ele>168.7</ele>
        <time>2012-05-06T07:44:55.083Z</time>
      </trkpt>
      <trkpt lat="49.36284" lon="1.15374">
        <ele>168.2</ele>
        <time>2012-05-06T07:44:56.083Z</time>
      </trkpt>
      <trkpt lat="49.36277" lon="1.15371">
        <ele>167.7</ele>
        <time>2012-05-06T07:44:57.093Z</time>
      </trkpt>
      <trkpt lat="49.3627" lon="1.15367">
        <ele>166.5</ele>
        <time>2012-05-06T07:44:58.082Z</time>
      </trkpt>
      <trkpt lat="49.36263" lon="1.15363">
        <ele>165.3</ele>
        <time>2012-05-06T07:44:59.083Z</time>
      </trkpt>
      <trkpt lat="49.36256" lon="1.15359">
        <ele>164.4</ele>
        <time>2012-05-06T07:45:00.084Z</time>
      </trkpt>
      <trkpt lat="49.3625" lon="1.15354">
        <ele>162.9</ele>
        <time>2012-05-06T07:45:01.083Z</time>
      </trkpt>
      <trkpt lat="49.36244" lon="1.15351">
        <ele>162.4</ele>
        <time>2012-05-06T07:45:02.093Z</time>
      </trkpt>
      <trkpt lat="49.36238" lon="1.15348">
        <ele>161.9</ele>
        <time>2012-05-06T07:45:03.098Z</time>
      </trkpt>
      <trkpt lat="49.36232" lon="1.15345">
        <ele>161.2</ele>
        <time>2012-05-06T07:45:04.083Z</time>
      </trkpt>
      <trkpt lat="49.36226" lon="1.15341">
        <ele>160.5</ele>
        <time>2012-05-06T07:45:05.090Z</time>
      </trkpt>
      <trkpt lat="49.3622" lon="1.15337">
        <ele>159</ele>
        <time>2012-05-06T07:45:06.090Z</time>
      </trkpt>
      <trkpt lat="49.36214" lon="1.15334">
        <ele>158.3</ele>
        <time>2012-05-06T07:45:07.079Z</time>
      </trkpt>
      <trkpt lat="49.36208" lon="1.1533">
        <ele>157</ele>
        <time>2012-05-06T07:45:08.092Z</time>
      </trkpt>
      <trkpt lat="49.36202" lon="1.15326">
        <ele>156.1</ele>
        <time>2012-05-06T07:45:09.091Z</time>
      </trkpt>
      <trkpt lat="49.36195" lon="1.15323">
        <ele>155.6</ele>
        <time>2012-05-06T07:45:10.091Z</time>
      </trkpt>
      <trkpt lat="49.36189" lon="1.15318">
        <ele>154.8</ele>
        <time>2012-05-06T07:45:11.107Z</time>
      </trkpt>
      <trkpt lat="49.36182" lon="1.15312">
        <ele>154.2</ele>
        <time>2012-05-06T07:45:12.083Z</time>
      </trkpt>
      <trkpt lat="49.36175" lon="1.15306">
        <ele>153.7</ele>
        <time>2012-05-06T07:45:13.082Z</time>
      </trkpt>
      <trkpt lat="49.36169" lon="1.153">
        <ele>153.2</ele>
        <time>2012-05-06T07:45:14.081Z</time>
      </trkpt>
      <trkpt lat="49.36164" lon="1.15295">
        <ele>152.8</ele>
        <time>2012-05-06T07:45:15.083Z</time>
      </trkpt>
      <trkpt lat="49.36158" lon="1.1529">
        <ele>152.9</ele>
        <time>2012-05-06T07:45:16.081Z</time>
      </trkpt>
      <trkpt lat="49.36153" lon="1.15284">
        <ele>152.6</ele>
        <time>2012-05-06T07:45:17.081Z</time>
      </trkpt>
      <trkpt lat="49.36147" lon="1.15279">
        <ele>152</ele>
        <time>2012-05-06T07:45:18.082Z</time>
      </trkpt>
      <trkpt lat="49.3614" lon="1.15273">
        <ele>151.4</ele>
        <time>2012-05-06T07:45:19.083Z</time>
      </trkpt>
      <trkpt lat="49.36133" lon="1.15267">
        <ele>150.9</ele>
        <time>2012-05-06T07:45:20.081Z</time>
      </trkpt>
      <trkpt lat="49.36127" lon="1.15261">
        <ele>150.7</ele>
        <time>2012-05-06T07:45:21.099Z</time>
      </trkpt>
      <trkpt lat="49.36122" lon="1.15257">
        <ele>150.8</ele>
        <time>2012-05-06T07:45:22.081Z</time>
      </trkpt>
      <trkpt lat="49.36117" lon="1.15251">
        <ele>151</ele>
        <time>2012-05-06T07:45:23.082Z</time>
      </trkpt>
      <trkpt lat="49.36111" lon="1.15245">
        <ele>151.3</ele>
        <time>2012-05-06T07:45:24.082Z</time>
      </trkpt>
      <trkpt lat="49.36108" lon="1.15241">
        <ele>151.2</ele>
        <time>2012-05-06T07:45:25.082Z</time>
      </trkpt>
      <trkpt lat="49.36102" lon="1.15237">
        <ele>151.2</ele>
        <time>2012-05-06T07:45:26.079Z</time>
      </trkpt>
      <trkpt lat="49.36096" lon="1.15234">
        <ele>151.3</ele>
        <time>2012-05-06T07:45:27.080Z</time>
      </trkpt>
      <trkpt lat="49.36087" lon="1.15226">
        <ele>152.3</ele>
        <time>2012-05-06T07:45:29.080Z</time>
      </trkpt>
      <trkpt lat="49.36082" lon="1.1522">
        <ele>151.6</ele>
        <time>2012-05-06T07:45:30.103Z</time>
      </trkpt>
      <trkpt lat="49.36074" lon="1.15212">
        <ele>150.4</ele>
        <time>2012-05-06T07:45:31.104Z</time>
      </trkpt>
      <trkpt lat="49.3607" lon="1.15206">
        <ele>149.2</ele>
        <time>2012-05-06T07:45:32.087Z</time>
      </trkpt>
      <trkpt lat="49.36066" lon="1.15201">
        <ele>148.6</ele>
        <time>2012-05-06T07:45:33.079Z</time>
      </trkpt>
      <trkpt lat="49.36061" lon="1.15196">
        <ele>149</ele>
        <time>2012-05-06T07:45:34.079Z</time>
      </trkpt>
      <trkpt lat="49.36056" lon="1.15192">
        <ele>149</ele>
        <time>2012-05-06T07:45:35.078Z</time>
      </trkpt>
      <trkpt lat="49.36052" lon="1.15187">
        <ele>148</ele>
        <time>2012-05-06T07:45:36.089Z</time>
      </trkpt>
      <trkpt lat="49.36046" lon="1.1518">
        <ele>145.9</ele>
        <time>2012-05-06T07:45:38.077Z</time>
      </trkpt>
      <trkpt lat="49.36043" lon="1.15174">
        <ele>144.8</ele>
        <time>2012-05-06T07:45:40.122Z</time>
      </trkpt>
      <trkpt lat="49.36045" lon="1.15167">
        <ele>144.4</ele>
        <time>2012-05-06T07:45:42.080Z</time>
      </trkpt>
      <trkpt lat="49.36047" lon="1.15161">
        <ele>144</ele>
        <time>2012-05-06T07:45:44.079Z</time>
      </trkpt>
      <trkpt lat="49.36048" lon="1.15154">
        <ele>143.9</ele>
        <time>2012-05-06T07:45:46.103Z</time>
      </trkpt>
      <trkpt lat="49.36044" lon="1.15147">
        <ele>142.6</ele>
        <time>2012-05-06T07:45:48.079Z</time>
      </trkpt>
      <trkpt lat="49.36036" lon="1.15143">
        <ele>141.5</ele>
        <time>2012-05-06T07:45:50.079Z</time>
      </trkpt>
      <trkpt lat="49.36029" lon="1.15138">
        <ele>140.4</ele>
        <time>2012-05-06T07:45:52.079Z</time>
      </trkpt>
      <trkpt lat="49.36022" lon="1.15134">
        <ele>139.6</ele>
        <time>2012-05-06T07:45:54.080Z</time>
      </trkpt>
      <trkpt lat="49.36015" lon="1.15131">
        <ele>138.9</ele>
        <time>2012-05-06T07:45:56.079Z</time>
      </trkpt>
      <trkpt lat="49.36006" lon="1.15128">
        <ele>138</ele>
        <time>2012-05-06T07:45:58.090Z</time>
      </trkpt>
      <trkpt lat="49.36002" lon="1.15127">
        <ele>137.4</ele>
        <time>2012-05-06T07:45:59.095Z</time>
      </trkpt>
      <trkpt lat="49.35996" lon="1.15126">
        <ele>136.9</ele>
        <time>2012-05-06T07:46:00.091Z</time>
      </trkpt>
      <trkpt lat="49.3599" lon="1.15129">
        <ele>136.3</ele>
        <time>2012-05-06T07:46:01.095Z</time>
      </trkpt>
      <trkpt lat="49.35985" lon="1.15132">
        <ele>135.7</ele>
        <time>2012-05-06T07:46:02.092Z</time>
      </trkpt>
      <trkpt lat="49.35979" lon="1.15136">
        <ele>135.1</ele>
        <time>2012-05-06T07:46:03.088Z</time>
      </trkpt>
      <trkpt lat="49.35973" lon="1.15141">
        <ele>135.2</ele>
        <time>2012-05-06T07:46:04.091Z</time>
      </trkpt>
      <trkpt lat="49.35966" lon="1.15146">
        <ele>135.1</ele>
        <time>2012-05-06T07:46:05.096Z</time>
      </trkpt>
      <trkpt lat="49.3596" lon="1.15151">
        <ele>135.2</ele>
        <time>2012-05-06T07:46:06.114Z</time>
      </trkpt>
      <trkpt lat="49.35954" lon="1.15154">
        <ele>134.4</ele>
        <time>2012-05-06T07:46:07.102Z</time>
      </trkpt>
      <trkpt lat="49.35948" lon="1.15158">
        <ele>134.1</ele>
        <time>2012-05-06T07:46:08.074Z</time>
      </trkpt>
      <trkpt lat="49.35941" lon="1.1516">
        <ele>134.1</ele>
        <time>2012-05-06T07:46:09.094Z</time>
      </trkpt>
      <trkpt lat="49.35933" lon="1.15161">
        <ele>134</ele>
        <time>2012-05-06T07:46:10.089Z</time>
      </trkpt>
      <trkpt lat="49.35926" lon="1.1516">
        <ele>133.6</ele>
        <time>2012-05-06T07:46:11.117Z</time>
      </trkpt>
      <trkpt lat="49.35919" lon="1.15159">
        <ele>133.3</ele>
        <time>2012-05-06T07:46:12.078Z</time>
      </trkpt>
      <trkpt lat="49.35912" lon="1.15158">
        <ele>132.9</ele>
        <time>2012-05-06T07:46:13.078Z</time>
      </trkpt>
      <trkpt lat="49.35905" lon="1.15156">
        <ele>132.6</ele>
        <time>2012-05-06T07:46:14.079Z</time>
      </trkpt>
      <trkpt lat="49.35899" lon="1.15155">
        <ele>132.5</ele>
        <time>2012-05-06T07:46:15.079Z</time>
      </trkpt>
      <trkpt lat="49.35892" lon="1.15155">
        <ele>132.3</ele>
        <time>2012-05-06T07:46:16.080Z</time>
      </trkpt>
      <trkpt lat="49.35885" lon="1.15155">
        <ele>132.5</ele>
        <time>2012-05-06T07:46:17.079Z</time>
      </trkpt>
      <trkpt lat="49.35878" lon="1.15157">
        <ele>132.1</ele>
        <time>2012-05-06T07:46:18.081Z</time>
      </trkpt>
      <trkpt lat="49.35871" lon="1.1516">
        <ele>131.4</ele>
        <time>2012-05-06T07:46:19.117Z</time>
      </trkpt>
      <trkpt lat="49.35864" lon="1.15164">
        <ele>131</ele>
        <time>2012-05-06T07:46:20.078Z</time>
      </trkpt>
      <trkpt lat="49.35858" lon="1.1517">
        <ele>130.7</ele>
        <time>2012-05-06T07:46:21.075Z</time>
      </trkpt>
      <trkpt lat="49.35852" lon="1.15177">
        <ele>130.8</ele>
        <time>2012-05-06T07:46:22.075Z</time>
      </trkpt>
      <trkpt lat="49.35846" lon="1.15184">
        <ele>130.7</ele>
        <time>2012-05-06T07:46:23.079Z</time>
      </trkpt>
      <trkpt lat="49.3584" lon="1.15189">
        <ele>130.8</ele>
        <time>2012-05-06T07:46:24.079Z</time>
      </trkpt>
      <trkpt lat="49.35834" lon="1.15194">
        <ele>129.9</ele>
        <time>2012-05-06T07:46:25.079Z</time>
      </trkpt>
      <trkpt lat="49.35827" lon="1.15199">
        <ele>129.8</ele>
        <time>2012-05-06T07:46:26.078Z</time>
      </trkpt>
      <trkpt lat="49.3582" lon="1.15203">
        <ele>128.9</ele>
        <time>2012-05-06T07:46:27.079Z</time>
      </trkpt>
      <trkpt lat="49.35813" lon="1.15206">
        <ele>128.3</ele>
        <time>2012-05-06T07:46:28.075Z</time>
      </trkpt>
      <trkpt lat="49.35806" lon="1.1521">
        <ele>128.1</ele>
        <time>2012-05-06T07:46:29.080Z</time>
      </trkpt>
      <trkpt lat="49.35799" lon="1.15215">
        <ele>128</ele>
        <time>2012-05-06T07:46:30.079Z</time>
      </trkpt>
      <trkpt lat="49.35792" lon="1.1522">
        <ele>127.7</ele>
        <time>2012-05-06T07:46:31.079Z</time>
      </trkpt>
      <trkpt lat="49.35786" lon="1.15224">
        <ele>127.8</ele>
        <time>2012-05-06T07:46:32.079Z</time>
      </trkpt>
      <trkpt lat="49.3578" lon="1.15229">
        <ele>127.7</ele>
        <time>2012-05-06T07:46:33.079Z</time>
      </trkpt>
      <trkpt lat="49.35772" lon="1.15232">
        <ele>127</ele>
        <time>2012-05-06T07:46:34.155Z</time>
      </trkpt>
      <trkpt lat="49.35766" lon="1.15234">
        <ele>126.8</ele>
        <time>2012-05-06T07:46:35.079Z</time>
      </trkpt>
      <trkpt lat="49.3576" lon="1.15236">
        <ele>126.8</ele>
        <time>2012-05-06T07:46:36.102Z</time>
      </trkpt>
      <trkpt lat="49.35754" lon="1.15238">
        <ele>126.5</ele>
        <time>2012-05-06T07:46:37.084Z</time>
      </trkpt>
      <trkpt lat="49.3575" lon="1.15242">
        <ele>126.6</ele>
        <time>2012-05-06T07:46:38.081Z</time>
      </trkpt>
      <trkpt lat="49.35747" lon="1.15249">
        <ele>126.4</ele>
        <time>2012-05-06T07:46:39.081Z</time>
      </trkpt>
      <trkpt lat="49.35746" lon="1.15256">
        <ele>126.3</ele>
        <time>2012-05-06T07:46:40.078Z</time>
      </trkpt>
      <trkpt lat="49.35748" lon="1.15263">
        <ele>126.5</ele>
        <time>2012-05-06T07:46:41.079Z</time>
      </trkpt>
      <trkpt lat="49.35751" lon="1.15274">
        <ele>126.9</ele>
        <time>2012-05-06T07:46:43.079Z</time>
      </trkpt>
      <trkpt lat="49.35754" lon="1.15283">
        <ele>126.8</ele>
        <time>2012-05-06T07:46:45.078Z</time>
      </trkpt>
      <trkpt lat="49.35759" lon="1.15289">
        <ele>126.6</ele>
        <time>2012-05-06T07:46:47.079Z</time>
      </trkpt>
      <trkpt lat="49.3576" lon="1.15296">
        <ele>127</ele>
        <time>2012-05-06T07:46:49.079Z</time>
      </trkpt>
      <trkpt lat="49.35757" lon="1.15306">
        <ele>128.2</ele>
        <time>2012-05-06T07:46:52.090Z</time>
      </trkpt>
      <trkpt lat="49.35754" lon="1.15315">
        <ele>128.2</ele>
        <time>2012-05-06T07:46:55.089Z</time>
      </trkpt>
      <trkpt lat="49.35752" lon="1.15323">
        <ele>128</ele>
        <time>2012-05-06T07:46:57.089Z</time>
      </trkpt>
      <trkpt lat="49.3575" lon="1.1533">
        <ele>128.5</ele>
        <time>2012-05-06T07:46:59.088Z</time>
      </trkpt>
      <trkpt lat="49.35751" lon="1.15338">
        <ele>129</ele>
        <time>2012-05-06T07:47:01.088Z</time>
      </trkpt>
      <trkpt lat="49.35752" lon="1.15346">
        <ele>129.6</ele>
        <time>2012-05-06T07:47:03.089Z</time>
      </trkpt>
      <trkpt lat="49.35753" lon="1.15353">
        <ele>129.9</ele>
        <time>2012-05-06T07:47:05.078Z</time>
      </trkpt>
      <trkpt lat="49.35754" lon="1.15361">
        <ele>130.5</ele>
        <time>2012-05-06T07:47:07.089Z</time>
      </trkpt>
      <trkpt lat="49.35755" lon="1.15368">
        <ele>131.1</ele>
        <time>2012-05-06T07:47:09.088Z</time>
      </trkpt>
      <trkpt lat="49.35756" lon="1.15376">
        <ele>131.4</ele>
        <time>2012-05-06T07:47:11.088Z</time>
      </trkpt>
      <trkpt lat="49.35757" lon="1.15383">
        <ele>131.2</ele>
        <time>2012-05-06T07:47:13.084Z</time>
      </trkpt>
      <trkpt lat="49.35759" lon="1.15391">
        <ele>131.6</ele>
        <time>2012-05-06T07:47:15.093Z</time>
      </trkpt>
      <trkpt lat="49.3576" lon="1.15398">
        <ele>132.2</ele>
        <time>2012-05-06T07:47:17.089Z</time>
      </trkpt>
      <trkpt lat="49.35762" lon="1.15405">
        <ele>132.1</ele>
        <time>2012-05-06T07:47:19.083Z</time>
      </trkpt>
      <trkpt lat="49.35764" lon="1.15414">
        <ele>132.5</ele>
        <time>2012-05-06T07:47:22.089Z</time>
      </trkpt>
      <trkpt lat="49.35765" lon="1.15421">
        <ele>132.8</ele>
        <time>2012-05-06T07:47:24.079Z</time>
      </trkpt>
      <trkpt lat="49.35766" lon="1.15428">
        <ele>133</ele>
        <time>2012-05-06T07:47:26.090Z</time>
      </trkpt>
      <trkpt lat="49.35766" lon="1.15437">
        <ele>134.3</ele>
        <time>2012-05-06T07:47:29.083Z</time>
      </trkpt>
      <trkpt lat="49.35768" lon="1.15445">
        <ele>134.2</ele>
        <time>2012-05-06T07:47:32.092Z</time>
      </trkpt>
      <trkpt lat="49.35772" lon="1.15453">
        <ele>134.5</ele>
        <time>2012-05-06T07:47:35.091Z</time>
      </trkpt>
      <trkpt lat="49.35775" lon="1.15459">
        <ele>134.4</ele>
        <time>2012-05-06T07:47:37.092Z</time>
      </trkpt>
      <trkpt lat="49.35778" lon="1.15463">
        <ele>134.7</ele>
        <time>2012-05-06T07:47:39.084Z</time>
      </trkpt>
      <trkpt lat="49.35782" lon="1.1547">
        <ele>134.4</ele>
        <time>2012-05-06T07:47:42.092Z</time>
      </trkpt>
      <trkpt lat="49.35785" lon="1.15476">
        <ele>134.8</ele>
        <time>2012-05-06T07:47:44.087Z</time>
      </trkpt>
      <trkpt lat="49.3579" lon="1.15482">
        <ele>135.1</ele>
        <time>2012-05-06T07:47:47.093Z</time>
      </trkpt>
      <trkpt lat="49.35793" lon="1.15488">
        <ele>135.5</ele>
        <time>2012-05-06T07:47:50.084Z</time>
      </trkpt>
      <trkpt lat="49.35797" lon="1.15494">
        <ele>135.8</ele>
        <time>2012-05-06T07:47:53.083Z</time>
      </trkpt>
      <trkpt lat="49.358" lon="1.15501">
        <ele>136.3</ele>
        <time>2012-05-06T07:47:56.083Z</time>
      </trkpt>
      <trkpt lat="49.35805" lon="1.15507">
        <ele>136.5</ele>
        <time>2012-05-06T07:47:59.097Z</time>
      </trkpt>
      <trkpt lat="49.35808" lon="1.15513">
        <ele>136.7</ele>
        <time>2012-05-06T07:48:02.096Z</time>
      </trkpt>
      <trkpt lat="49.35812" lon="1.15519">
        <ele>137</ele>
        <time>2012-05-06T07:48:05.079Z</time>
      </trkpt>
      <trkpt lat="49.35816" lon="1.15526">
        <ele>137.4</ele>
        <time>2012-05-06T07:48:08.079Z</time>
      </trkpt>
      <trkpt lat="49.3582" lon="1.15532">
        <ele>137.2</ele>
        <time>2012-05-06T07:48:11.079Z</time>
      </trkpt>
      <trkpt lat="49.35823" lon="1.15538">
        <ele>137.6</ele>
        <time>2012-05-06T07:48:14.083Z</time>
      </trkpt>
      <trkpt lat="49.35826" lon="1.15545">
        <ele>137.7</ele>
        <time>2012-05-06T07:48:17.089Z</time>
      </trkpt>
      <trkpt lat="49.3583" lon="1.15551">
        <ele>138</ele>
        <time>2012-05-06T07:48:20.090Z</time>
      </trkpt>
      <trkpt lat="49.35834" lon="1.15559">
        <ele>138.1</ele>
        <time>2012-05-06T07:48:23.090Z</time>
      </trkpt>
      <trkpt lat="49.35838" lon="1.15565">
        <ele>135.6</ele>
        <time>2012-05-06T07:48:26.077Z</time>
      </trkpt>
      <trkpt lat="49.3584" lon="1.15573">
        <ele>135.7</ele>
        <time>2012-05-06T07:48:29.097Z</time>
      </trkpt>
      <trkpt lat="49.35842" lon="1.1558">
        <ele>137.3</ele>
        <time>2012-05-06T07:48:32.089Z</time>
      </trkpt>
      <trkpt lat="49.35845" lon="1.15586">
        <ele>136.8</ele>
        <time>2012-05-06T07:48:35.095Z</time>
      </trkpt>
      <trkpt lat="49.35847" lon="1.15592">
        <ele>137.3</ele>
        <time>2012-05-06T07:48:38.090Z</time>
      </trkpt>
      <trkpt lat="49.3585" lon="1.15603">
        <ele>137.5</ele>
        <time>2012-05-06T07:48:42.093Z</time>
      </trkpt>
      <trkpt lat="49.35853" lon="1.15608">
        <ele>138.1</ele>
        <time>2012-05-06T07:48:45.094Z</time>
      </trkpt>
      <trkpt lat="49.35856" lon="1.15615">
        <ele>140.8</ele>
        <time>2012-05-06T07:48:48.109Z</time>
      </trkpt>
      <trkpt lat="49.35858" lon="1.15623">
        <ele>142.9</ele>
        <time>2012-05-06T07:48:50.095Z</time>
      </trkpt>
      <trkpt lat="49.3586" lon="1.1563">
        <ele>140.4</ele>
        <time>2012-05-06T07:48:53.080Z</time>
      </trkpt>
      <trkpt lat="49.35863" lon="1.15636">
        <ele>142.2</ele>
        <time>2012-05-06T07:48:56.090Z</time>
      </trkpt>
      <trkpt lat="49.35865" lon="1.15644">
        <ele>143.8</ele>
        <time>2012-05-06T07:48:59.083Z</time>
      </trkpt>
      <trkpt lat="49.35864" lon="1.15652">
        <ele>145</ele>
        <time>2012-05-06T07:49:03.079Z</time>
      </trkpt>
      <trkpt lat="49.3586" lon="1.15659">
        <ele>146.8</ele>
        <time>2012-05-06T07:49:06.103Z</time>
      </trkpt>
      <trkpt lat="49.35858" lon="1.15666">
        <ele>147.9</ele>
        <time>2012-05-06T07:49:13.080Z</time>
      </trkpt>
      <trkpt lat="49.3586" lon="1.15672">
        <ele>150</ele>
        <time>2012-05-06T07:49:23.082Z</time>
      </trkpt>
      <trkpt lat="49.35862" lon="1.1568">
        <ele>149.5</ele>
        <time>2012-05-06T07:49:27.080Z</time>
      </trkpt>
      <trkpt lat="49.35862" lon="1.15689">
        <ele>151.3</ele>
        <time>2012-05-06T07:49:31.079Z</time>
      </trkpt>
      <trkpt lat="49.35865" lon="1.15694">
        <ele>152</ele>
        <time>2012-05-06T07:49:42.079Z</time>
      </trkpt>
      <trkpt lat="49.35868" lon="1.15699">
        <ele>154.5</ele>
        <time>2012-05-06T07:49:49.098Z</time>
      </trkpt>
      <trkpt lat="49.35872" lon="1.15705">
        <ele>152.4</ele>
        <time>2012-05-06T07:49:54.099Z</time>
      </trkpt>
      <trkpt lat="49.35875" lon="1.15712">
        <ele>151.7</ele>
        <time>2012-05-06T07:49:57.092Z</time>
      </trkpt>
      <trkpt lat="49.35878" lon="1.15718">
        <ele>152.3</ele>
        <time>2012-05-06T07:49:59.090Z</time>
      </trkpt>
      <trkpt lat="49.35881" lon="1.15726">
        <ele>153</ele>
        <time>2012-05-06T07:50:02.078Z</time>
      </trkpt>
      <trkpt lat="49.35883" lon="1.15733">
        <ele>155.4</ele>
        <time>2012-05-06T07:50:05.077Z</time>
      </trkpt>
      <trkpt lat="49.35887" lon="1.15739">
        <ele>156.2</ele>
        <time>2012-05-06T07:50:08.790Z</time>
      </trkpt>
      <trkpt lat="49.35891" lon="1.15746">
        <ele>158.8</ele>
        <time>2012-05-06T07:50:11.196Z</time>
      </trkpt>
      <trkpt lat="49.35893" lon="1.15755">
        <ele>162.1</ele>
        <time>2012-05-06T07:50:16.077Z</time>
      </trkpt>
      <trkpt lat="49.35895" lon="1.15763">
        <ele>162.1</ele>
        <time>2012-05-06T07:50:21.089Z</time>
      </trkpt>
      <trkpt lat="49.35897" lon="1.15771">
        <ele>164.8</ele>
        <time>2012-05-06T07:50:24.092Z</time>
      </trkpt>
      <trkpt lat="49.35901" lon="1.15777">
        <ele>165.8</ele>
        <time>2012-05-06T07:50:28.077Z</time>
      </trkpt>
      <trkpt lat="49.35905" lon="1.15783">
        <ele>166</ele>
        <time>2012-05-06T07:50:31.224Z</time>
      </trkpt>
      <trkpt lat="49.35902" lon="1.15787">
        <ele>167.4</ele>
        <time>2012-05-06T07:50:35.802Z</time>
      </trkpt>
      <trkpt lat="49.35897" lon="1.15791">
        <ele>165.8</ele>
        <time>2012-05-06T07:50:39.090Z</time>
      </trkpt>
      <trkpt lat="49.35897" lon="1.15799">
        <ele>166.2</ele>
        <time>2012-05-06T07:50:45.089Z</time>
      </trkpt>
      <trkpt lat="49.35892" lon="1.15805">
        <ele>165.7</ele>
        <time>2012-05-06T07:50:51.802Z</time>
      </trkpt>
      <trkpt lat="49.3589" lon="1.15813">
        <ele>165.3</ele>
        <time>2012-05-06T07:51:00.089Z</time>
      </trkpt>
      <trkpt lat="49.35887" lon="1.15821">
        <ele>166.9</ele>
        <time>2012-05-06T07:51:04.239Z</time>
      </trkpt>
      <trkpt lat="49.35882" lon="1.15825">
        <ele>166.5</ele>
        <time>2012-05-06T07:51:06.239Z</time>
      </trkpt>
      <trkpt lat="49.35879" lon="1.15832">
        <ele>168.1</ele>
        <time>2012-05-06T07:51:09.239Z</time>
      </trkpt>
      <trkpt lat="49.35879" lon="1.1584">
        <ele>167</ele>
        <time>2012-05-06T07:51:12.089Z</time>
      </trkpt>
      <trkpt lat="49.35876" lon="1.15846">
        <ele>164.3</ele>
        <time>2012-05-06T07:51:15.088Z</time>
      </trkpt>
      <trkpt lat="49.35875" lon="1.15853">
        <ele>164.7</ele>
        <time>2012-05-06T07:51:18.089Z</time>
      </trkpt>
      <trkpt lat="49.35872" lon="1.1586">
        <ele>165.6</ele>
        <time>2012-05-06T07:51:20.089Z</time>
      </trkpt>
      <trkpt lat="49.3587" lon="1.15868">
        <ele>168.4</ele>
        <time>2012-05-06T07:51:23.097Z</time>
      </trkpt>
      <trkpt lat="49.35868" lon="1.15876">
        <ele>173.2</ele>
        <time>2012-05-06T07:51:27.097Z</time>
      </trkpt>
      <trkpt lat="49.35864" lon="1.15881">
        <ele>173</ele>
        <time>2012-05-06T07:51:29.076Z</time>
      </trkpt>
      <trkpt lat="49.3586" lon="1.15887">
        <ele>171.8</ele>
        <time>2012-05-06T07:51:31.096Z</time>
      </trkpt>
      <trkpt lat="49.3586" lon="1.15897">
        <ele>172.5</ele>
        <time>2012-05-06T07:51:34.099Z</time>
      </trkpt>
      <trkpt lat="49.3586" lon="1.15905">
        <ele>170.5</ele>
        <time>2012-05-06T07:51:37.102Z</time>
      </trkpt>
      <trkpt lat="49.3586" lon="1.15912">
        <ele>170.6</ele>
        <time>2012-05-06T07:51:40.088Z</time>
      </trkpt>
      <trkpt lat="49.35856" lon="1.15918">
        <ele>173.8</ele>
        <time>2012-05-06T07:51:43.089Z</time>
      </trkpt>
      <trkpt lat="49.35853" lon="1.15924">
        <ele>175.8</ele>
        <time>2012-05-06T07:51:46.088Z</time>
      </trkpt>
      <trkpt lat="49.3585" lon="1.15932">
        <ele>176.4</ele>
        <time>2012-05-06T07:51:49.082Z</time>
      </trkpt>
      <trkpt lat="49.35846" lon="1.15936">
        <ele>176.1</ele>
        <time>2012-05-06T07:51:51.089Z</time>
      </trkpt>
      <trkpt lat="49.35844" lon="1.15945">
        <ele>179</ele>
        <time>2012-05-06T07:51:55.096Z</time>
      </trkpt>
      <trkpt lat="49.35839" lon="1.15951">
        <ele>180.5</ele>
        <time>2012-05-06T07:51:58.086Z</time>
      </trkpt>
      <trkpt lat="49.35836" lon="1.1596">
        <ele>181.2</ele>
        <time>2012-05-06T07:52:01.079Z</time>
      </trkpt>
      <trkpt lat="49.35833" lon="1.15966">
        <ele>181</ele>
        <time>2012-05-06T07:52:04.141Z</time>
      </trkpt>
      <trkpt lat="49.35833" lon="1.15973">
        <ele>180.8</ele>
        <time>2012-05-06T07:52:06.089Z</time>
      </trkpt>
      <trkpt lat="49.35833" lon="1.1598">
        <ele>179.2</ele>
        <time>2012-05-06T07:52:08.098Z</time>
      </trkpt>
      <trkpt lat="49.35834" lon="1.15988">
        <ele>182.7</ele>
        <time>2012-05-06T07:52:12.096Z</time>
      </trkpt>
      <trkpt lat="49.35829" lon="1.15991">
        <ele>187.1</ele>
        <time>2012-05-06T07:52:16.094Z</time>
      </trkpt>
      <trkpt lat="49.35824" lon="1.15995">
        <ele>188.6</ele>
        <time>2012-05-06T07:52:19.087Z</time>
      </trkpt>
      <trkpt lat="49.35819" lon="1.16">
        <ele>189</ele>
        <time>2012-05-06T07:52:22.096Z</time>
      </trkpt>
      <trkpt lat="49.35816" lon="1.16005">
        <ele>189.6</ele>
        <time>2012-05-06T07:52:25.093Z</time>
      </trkpt>
      <trkpt lat="49.35812" lon="1.16011">
        <ele>189.9</ele>
        <time>2012-05-06T07:52:28.088Z</time>
      </trkpt>
      <trkpt lat="49.35812" lon="1.16018">
        <ele>189.9</ele>
        <time>2012-05-06T07:52:31.104Z</time>
      </trkpt>
      <trkpt lat="49.35812" lon="1.16027">
        <ele>189.1</ele>
        <time>2012-05-06T07:52:34.089Z</time>
      </trkpt>
      <trkpt lat="49.35812" lon="1.16038">
        <ele>187.4</ele>
        <time>2012-05-06T07:52:38.092Z</time>
      </trkpt>
      <trkpt lat="49.35809" lon="1.16045">
        <ele>185.2</ele>
        <time>2012-05-06T07:52:40.094Z</time>
      </trkpt>
      <trkpt lat="49.35807" lon="1.16052">
        <ele>184.9</ele>
        <time>2012-05-06T07:52:44.097Z</time>
      </trkpt>
      <trkpt lat="49.35803" lon="1.1606">
        <ele>183.1</ele>
        <time>2012-05-06T07:52:47.072Z</time>
      </trkpt>
      <trkpt lat="49.358" lon="1.16066">
        <ele>183.8</ele>
        <time>2012-05-06T07:52:51.094Z</time>
      </trkpt>
      <trkpt lat="49.35796" lon="1.16071">
        <ele>184.1</ele>
        <time>2012-05-06T07:52:54.094Z</time>
      </trkpt>
      <trkpt lat="49.35791" lon="1.16076">
        <ele>191.6</ele>
        <time>2012-05-06T07:52:58.094Z</time>
      </trkpt>
      <trkpt lat="49.35785" lon="1.16076">
        <ele>191.1</ele>
        <time>2012-05-06T07:53:00.094Z</time>
      </trkpt>
      <trkpt lat="49.3578" lon="1.16077">
        <ele>190.8</ele>
        <time>2012-05-06T07:53:02.091Z</time>
      </trkpt>
      <trkpt lat="49.35773" lon="1.1608">
        <ele>190.3</ele>
        <time>2012-05-06T07:53:04.088Z</time>
      </trkpt>
      <trkpt lat="49.35768" lon="1.16087">
        <ele>191</ele>
        <time>2012-05-06T07:53:06.091Z</time>
      </trkpt>
      <trkpt lat="49.35763" lon="1.16092">
        <ele>189.7</ele>
        <time>2012-05-06T07:53:08.083Z</time>
      </trkpt>
      <trkpt lat="49.35759" lon="1.16096">
        <ele>189.9</ele>
        <time>2012-05-06T07:53:10.075Z</time>
      </trkpt>
      <trkpt lat="49.35755" lon="1.161">
        <ele>188.8</ele>
        <time>2012-05-06T07:53:11.078Z</time>
      </trkpt>
      <trkpt lat="49.3575" lon="1.16101">
        <ele>188.3</ele>
        <time>2012-05-06T07:53:12.077Z</time>
      </trkpt>
      <trkpt lat="49.35742" lon="1.16106">
        <ele>187.9</ele>
        <time>2012-05-06T07:53:14.081Z</time>
      </trkpt>
      <trkpt lat="49.35734" lon="1.16113">
        <ele>186.7</ele>
        <time>2012-05-06T07:53:16.079Z</time>
      </trkpt>
      <trkpt lat="49.35727" lon="1.16118">
        <ele>184.1</ele>
        <time>2012-05-06T07:53:18.089Z</time>
      </trkpt>
      <trkpt lat="49.35719" lon="1.1612">
        <ele>183.6</ele>
        <time>2012-05-06T07:53:20.076Z</time>
      </trkpt>
      <trkpt lat="49.35712" lon="1.16124">
        <ele>184.7</ele>
        <time>2012-05-06T07:53:22.090Z</time>
      </trkpt>
      <trkpt lat="49.35707" lon="1.16128">
        <ele>183.7</ele>
        <time>2012-05-06T07:53:24.081Z</time>
      </trkpt>
      <trkpt lat="49.357" lon="1.16134">
        <ele>183.2</ele>
        <time>2012-05-06T07:53:26.080Z</time>
      </trkpt>
      <trkpt lat="49.35695" lon="1.16138">
        <ele>181.6</ele>
        <time>2012-05-06T07:53:28.082Z</time>
      </trkpt>
      <trkpt lat="49.35687" lon="1.16144">
        <ele>181.2</ele>
        <time>2012-05-06T07:53:30.080Z</time>
      </trkpt>
      <trkpt lat="49.35681" lon="1.1615">
        <ele>180.6</ele>
        <time>2012-05-06T07:53:32.080Z</time>
      </trkpt>
      <trkpt lat="49.35678" lon="1.16156">
        <ele>186.5</ele>
        <time>2012-05-06T07:53:34.102Z</time>
      </trkpt>
      <trkpt lat="49.35673" lon="1.16162">
        <ele>190.2</ele>
        <time>2012-05-06T07:53:36.082Z</time>
      </trkpt>
      <trkpt lat="49.35668" lon="1.16164">
        <ele>189.9</ele>
        <time>2012-05-06T07:53:37.080Z</time>
      </trkpt>
      <trkpt lat="49.35659" lon="1.16168">
        <ele>188.6</ele>
        <time>2012-05-06T07:53:39.080Z</time>
      </trkpt>
      <trkpt lat="49.35653" lon="1.16175">
        <ele>188.8</ele>
        <time>2012-05-06T07:53:41.082Z</time>
      </trkpt>
      <trkpt lat="49.35645" lon="1.16182">
        <ele>186.7</ele>
        <time>2012-05-06T07:53:43.092Z</time>
      </trkpt>
      <trkpt lat="49.3564" lon="1.16184">
        <ele>184.7</ele>
        <time>2012-05-06T07:53:44.079Z</time>
      </trkpt>
      <trkpt lat="49.35635" lon="1.16192">
        <ele>183.8</ele>
        <time>2012-05-06T07:53:46.089Z</time>
      </trkpt>
      <trkpt lat="49.3563" lon="1.16198">
        <ele>182.5</ele>
        <time>2012-05-06T07:53:47.785Z</time>
      </trkpt>
      <trkpt lat="49.35622" lon="1.16205">
        <ele>180.5</ele>
        <time>2012-05-06T07:53:49.785Z</time>
      </trkpt>
      <trkpt lat="49.35617" lon="1.1621">
        <ele>179.6</ele>
        <time>2012-05-06T07:53:51.237Z</time>
      </trkpt>
      <trkpt lat="49.35621" lon="1.16214">
        <ele>178.2</ele>
        <time>2012-05-06T07:53:55.080Z</time>
      </trkpt>
      <trkpt lat="49.35625" lon="1.16214">
        <ele>177</ele>
        <time>2012-05-06T07:53:58.795Z</time>
      </trkpt>
      <trkpt lat="49.3563" lon="1.16213">
        <ele>175.5</ele>
        <time>2012-05-06T07:54:01.083Z</time>
      </trkpt>
      <trkpt lat="49.35636" lon="1.1621">
        <ele>176.7</ele>
        <time>2012-05-06T07:54:04.082Z</time>
      </trkpt>
      <trkpt lat="49.35643" lon="1.16207">
        <ele>176.8</ele>
        <time>2012-05-06T07:54:08.083Z</time>
      </trkpt>
      <trkpt lat="49.3565" lon="1.16208">
        <ele>176.1</ele>
        <time>2012-05-06T07:54:10.092Z</time>
      </trkpt>
      <trkpt lat="49.35655" lon="1.16206">
        <ele>178</ele>
        <time>2012-05-06T07:54:12.084Z</time>
      </trkpt>
      <trkpt lat="49.3566" lon="1.16206">
        <ele>178.2</ele>
        <time>2012-05-06T07:54:14.088Z</time>
      </trkpt>
      <trkpt lat="49.35664" lon="1.16202">
        <ele>178.7</ele>
        <time>2012-05-06T07:54:17.078Z</time>
      </trkpt>
      <trkpt lat="49.3567" lon="1.16201">
        <ele>178.1</ele>
        <time>2012-05-06T07:54:19.092Z</time>
      </trkpt>
      <trkpt lat="49.35675" lon="1.16199">
        <ele>178.7</ele>
        <time>2012-05-06T07:54:21.080Z</time>
      </trkpt>
      <trkpt lat="49.35681" lon="1.16199">
        <ele>179.2</ele>
        <time>2012-05-06T07:54:23.089Z</time>
      </trkpt>
      <trkpt lat="49.35687" lon="1.16198">
        <ele>180.9</ele>
        <time>2012-05-06T07:54:25.081Z</time>
      </trkpt>
      <trkpt lat="49.35691" lon="1.16195">
        <ele>181.7</ele>
        <time>2012-05-06T07:54:27.094Z</time>
      </trkpt>
      <trkpt lat="49.35698" lon="1.16196">
        <ele>182.7</ele>
        <time>2012-05-06T07:54:29.092Z</time>
      </trkpt>
      <trkpt lat="49.35705" lon="1.16195">
        <ele>183.5</ele>
        <time>2012-05-06T07:54:31.090Z</time>
      </trkpt>
      <trkpt lat="49.35711" lon="1.16194">
        <ele>183.1</ele>
        <time>2012-05-06T07:54:34.233Z</time>
      </trkpt>
      <trkpt lat="49.35716" lon="1.16191">
        <ele>183.2</ele>
        <time>2012-05-06T07:54:36.233Z</time>
      </trkpt>
      <trkpt lat="49.3572" lon="1.16189">
        <ele>183.5</ele>
        <time>2012-05-06T07:54:38.233Z</time>
      </trkpt>
      <trkpt lat="49.35726" lon="1.16188">
        <ele>183.1</ele>
        <time>2012-05-06T07:54:40.233Z</time>
      </trkpt>
      <trkpt lat="49.35732" lon="1.16187">
        <ele>183</ele>
        <time>2012-05-06T07:54:42.233Z</time>
      </trkpt>
      <trkpt lat="49.35737" lon="1.16186">
        <ele>183.6</ele>
        <time>2012-05-06T07:54:44.233Z</time>
      </trkpt>
      <trkpt lat="49.35744" lon="1.16187">
        <ele>183.3</ele>
        <time>2012-05-06T07:54:47.128Z</time>
      </trkpt>
      <trkpt lat="49.35751" lon="1.16189">
        <ele>182.1</ele>
        <time>2012-05-06T07:54:50.083Z</time>
      </trkpt>
      <trkpt lat="49.35754" lon="1.16193">
        <ele>183.3</ele>
        <time>2012-05-06T07:54:52.081Z</time>
      </trkpt>
      <trkpt lat="49.35757" lon="1.16198">
        <ele>183.4</ele>
        <time>2012-05-06T07:54:55.081Z</time>
      </trkpt>
      <trkpt lat="49.35763" lon="1.16204">
        <ele>183.4</ele>
        <time>2012-05-06T07:54:58.078Z</time>
      </trkpt>
      <trkpt lat="49.35768" lon="1.16212">
        <ele>183.6</ele>
        <time>2012-05-06T07:55:00.086Z</time>
      </trkpt>
      <trkpt lat="49.35773" lon="1.16219">
        <ele>183.2</ele>
        <time>2012-05-06T07:55:02.095Z</time>
      </trkpt>
      <trkpt lat="49.35777" lon="1.16224">
        <ele>184.3</ele>
        <time>2012-05-06T07:55:04.091Z</time>
      </trkpt>
      <trkpt lat="49.35781" lon="1.16228">
        <ele>185.2</ele>
        <time>2012-05-06T07:55:06.090Z</time>
      </trkpt>
      <trkpt lat="49.35786" lon="1.16232">
        <ele>186.2</ele>
        <time>2012-05-06T07:55:08.089Z</time>
      </trkpt>
      <trkpt lat="49.35789" lon="1.16237">
        <ele>186.6</ele>
        <time>2012-05-06T07:55:10.097Z</time>
      </trkpt>
      <trkpt lat="49.35793" lon="1.16242">
        <ele>187.2</ele>
        <time>2012-05-06T07:55:12.089Z</time>
      </trkpt>
      <trkpt lat="49.35798" lon="1.16246">
        <ele>187.4</ele>
        <time>2012-05-06T07:55:14.091Z</time>
      </trkpt>
      <trkpt lat="49.35802" lon="1.16251">
        <ele>186.8</ele>
        <time>2012-05-06T07:55:16.081Z</time>
      </trkpt>
      <trkpt lat="49.35806" lon="1.16256">
        <ele>186.2</ele>
        <time>2012-05-06T07:55:18.098Z</time>
      </trkpt>
      <trkpt lat="49.3581" lon="1.16263">
        <ele>186.4</ele>
        <time>2012-05-06T07:55:21.088Z</time>
      </trkpt>
      <trkpt lat="49.35814" lon="1.16267">
        <ele>186.8</ele>
        <time>2012-05-06T07:55:23.080Z</time>
      </trkpt>
      <trkpt lat="49.35817" lon="1.16272">
        <ele>186.8</ele>
        <time>2012-05-06T07:55:26.092Z</time>
      </trkpt>
      <trkpt lat="49.35811" lon="1.16277">
        <ele>185.2</ele>
        <time>2012-05-06T07:57:09.089Z</time>
      </trkpt>
      <trkpt lat="49.35807" lon="1.16279">
        <ele>186.8</ele>
        <time>2012-05-06T07:57:11.089Z</time>
      </trkpt>
      <trkpt lat="49.35802" lon="1.16278">
        <ele>193.9</ele>
        <time>2012-05-06T07:57:13.089Z</time>
      </trkpt>
      <trkpt lat="49.35796" lon="1.16281">
        <ele>197</ele>
        <time>2012-05-06T07:57:15.090Z</time>
      </trkpt>
      <trkpt lat="49.35789" lon="1.16283">
        <ele>197.1</ele>
        <time>2012-05-06T07:57:18.089Z</time>
      </trkpt>
      <trkpt lat="49.35785" lon="1.16289">
        <ele>197.5</ele>
        <time>2012-05-06T07:57:20.095Z</time>
      </trkpt>
      <trkpt lat="49.3578" lon="1.16292">
        <ele>197.6</ele>
        <time>2012-05-06T07:57:22.082Z</time>
      </trkpt>
      <trkpt lat="49.35775" lon="1.16294">
        <ele>197.2</ele>
        <time>2012-05-06T07:57:24.092Z</time>
      </trkpt>
      <trkpt lat="49.35771" lon="1.16298">
        <ele>200.8</ele>
        <time>2012-05-06T07:57:27.091Z</time>
      </trkpt>
      <trkpt lat="49.35765" lon="1.16302">
        <ele>202.5</ele>
        <time>2012-05-06T07:57:29.090Z</time>
      </trkpt>
      <trkpt lat="49.35759" lon="1.16307">
        <ele>203.2</ele>
        <time>2012-05-06T07:57:31.091Z</time>
      </trkpt>
      <trkpt lat="49.35753" lon="1.16311">
        <ele>203.9</ele>
        <time>2012-05-06T07:57:33.093Z</time>
      </trkpt>
      <trkpt lat="49.35748" lon="1.16316">
        <ele>203.9</ele>
        <time>2012-05-06T07:57:34.094Z</time>
      </trkpt>
      <trkpt lat="49.35741" lon="1.1632">
        <ele>204.9</ele>
        <time>2012-05-06T07:57:36.094Z</time>
      </trkpt>
      <trkpt lat="49.35736" lon="1.16326">
        <ele>206.2</ele>
        <time>2012-05-06T07:57:38.092Z</time>
      </trkpt>
      <trkpt lat="49.3573" lon="1.1633">
        <ele>207.5</ele>
        <time>2012-05-06T07:57:40.075Z</time>
      </trkpt>
      <trkpt lat="49.35722" lon="1.16336">
        <ele>206.6</ele>
        <time>2012-05-06T07:57:42.089Z</time>
      </trkpt>
      <trkpt lat="49.35717" lon="1.1634">
        <ele>211.4</ele>
        <time>2012-05-06T07:57:44.089Z</time>
      </trkpt>
      <trkpt lat="49.35713" lon="1.16344">
        <ele>210</ele>
        <time>2012-05-06T07:57:45.078Z</time>
      </trkpt>
      <trkpt lat="49.35708" lon="1.16348">
        <ele>208.4</ele>
        <time>2012-05-06T07:57:46.090Z</time>
      </trkpt>
      <trkpt lat="49.35702" lon="1.16356">
        <ele>206.6</ele>
        <time>2012-05-06T07:57:48.080Z</time>
      </trkpt>
      <trkpt lat="49.35694" lon="1.16362">
        <ele>205.2</ele>
        <time>2012-05-06T07:57:50.078Z</time>
      </trkpt>
      <trkpt lat="49.35689" lon="1.16366">
        <ele>204.6</ele>
        <time>2012-05-06T07:57:51.094Z</time>
      </trkpt>
      <trkpt lat="49.35684" lon="1.1637">
        <ele>204.1</ele>
        <time>2012-05-06T07:57:52.094Z</time>
      </trkpt>
      <trkpt lat="49.35679" lon="1.16376">
        <ele>202.7</ele>
        <time>2012-05-06T07:57:53.091Z</time>
      </trkpt>
      <trkpt lat="49.35673" lon="1.16383">
        <ele>205.5</ele>
        <time>2012-05-06T07:57:55.089Z</time>
      </trkpt>
      <trkpt lat="49.35667" lon="1.16387">
        <ele>205.2</ele>
        <time>2012-05-06T07:57:56.093Z</time>
      </trkpt>
      <trkpt lat="49.35657" lon="1.16388">
        <ele>204.8</ele>
        <time>2012-05-06T07:57:58.075Z</time>
      </trkpt>
      <trkpt lat="49.35651" lon="1.16392">
        <ele>203.7</ele>
        <time>2012-05-06T07:57:59.089Z</time>
      </trkpt>
      <trkpt lat="49.35643" lon="1.16396">
        <ele>200.4</ele>
        <time>2012-05-06T07:58:01.088Z</time>
      </trkpt>
      <trkpt lat="49.35638" lon="1.16399">
        <ele>199.1</ele>
        <time>2012-05-06T07:58:02.079Z</time>
      </trkpt>
      <trkpt lat="49.35633" lon="1.16402">
        <ele>198.7</ele>
        <time>2012-05-06T07:58:03.077Z</time>
      </trkpt>
      <trkpt lat="49.35627" lon="1.16406">
        <ele>197.5</ele>
        <time>2012-05-06T07:58:04.090Z</time>
      </trkpt>
      <trkpt lat="49.35622" lon="1.16417">
        <ele>197</ele>
        <time>2012-05-06T07:58:06.079Z</time>
      </trkpt>
      <trkpt lat="49.35617" lon="1.16428">
        <ele>194.4</ele>
        <time>2012-05-06T07:58:08.090Z</time>
      </trkpt>
      <trkpt lat="49.35613" lon="1.16438">
        <ele>194.2</ele>
        <time>2012-05-06T07:58:10.092Z</time>
      </trkpt>
      <trkpt lat="49.35609" lon="1.16445">
        <ele>193.4</ele>
        <time>2012-05-06T07:58:11.080Z</time>
      </trkpt>
      <trkpt lat="49.35607" lon="1.16451">
        <ele>193</ele>
        <time>2012-05-06T07:58:12.082Z</time>
      </trkpt>
      <trkpt lat="49.35601" lon="1.16462">
        <ele>191.3</ele>
        <time>2012-05-06T07:58:14.090Z</time>
      </trkpt>
      <trkpt lat="49.35598" lon="1.16471">
        <ele>190.8</ele>
        <time>2012-05-06T07:58:15.081Z</time>
      </trkpt>
      <trkpt lat="49.35596" lon="1.16483">
        <ele>190.2</ele>
        <time>2012-05-06T07:58:17.090Z</time>
      </trkpt>
      <trkpt lat="49.35592" lon="1.16491">
        <ele>188.9</ele>
        <time>2012-05-06T07:58:19.093Z</time>
      </trkpt>
      <trkpt lat="49.35588" lon="1.165">
        <ele>188.1</ele>
        <time>2012-05-06T07:58:21.085Z</time>
      </trkpt>
      <trkpt lat="49.35581" lon="1.16509">
        <ele>187.3</ele>
        <time>2012-05-06T07:58:23.090Z</time>
      </trkpt>
      <trkpt lat="49.35574" lon="1.16514">
        <ele>185.7</ele>
        <time>2012-05-06T07:58:24.096Z</time>
      </trkpt>
      <trkpt lat="49.35567" lon="1.16518">
        <ele>186.2</ele>
        <time>2012-05-06T07:58:25.094Z</time>
      </trkpt>
      <trkpt lat="49.35558" lon="1.1652">
        <ele>184.1</ele>
        <time>2012-05-06T07:58:27.089Z</time>
      </trkpt>
      <trkpt lat="49.35552" lon="1.16523">
        <ele>184.5</ele>
        <time>2012-05-06T07:58:28.092Z</time>
      </trkpt>
      <trkpt lat="49.35546" lon="1.1652">
        <ele>184.4</ele>
        <time>2012-05-06T07:58:29.091Z</time>
      </trkpt>
      <trkpt lat="49.35536" lon="1.16522">
        <ele>181.2</ele>
        <time>2012-05-06T07:58:31.091Z</time>
      </trkpt>
      <trkpt lat="49.35532" lon="1.16518">
        <ele>181.8</ele>
        <time>2012-05-06T07:58:32.093Z</time>
      </trkpt>
      <trkpt lat="49.35525" lon="1.16511">
        <ele>182.7</ele>
        <time>2012-05-06T07:58:34.096Z</time>
      </trkpt>
      <trkpt lat="49.35522" lon="1.16504">
        <ele>182.6</ele>
        <time>2012-05-06T07:58:35.090Z</time>
      </trkpt>
      <trkpt lat="49.35519" lon="1.16497">
        <ele>181</ele>
        <time>2012-05-06T07:58:36.089Z</time>
      </trkpt>
      <trkpt lat="49.35516" lon="1.16491">
        <ele>180.4</ele>
        <time>2012-05-06T07:58:37.096Z</time>
      </trkpt>
      <trkpt lat="49.35513" lon="1.16479">
        <ele>179.8</ele>
        <time>2012-05-06T07:58:39.098Z</time>
      </trkpt>
      <trkpt lat="49.3551" lon="1.16474">
        <ele>179</ele>
        <time>2012-05-06T07:58:40.089Z</time>
      </trkpt>
      <trkpt lat="49.35504" lon="1.16462">
        <ele>179.3</ele>
        <time>2012-05-06T07:58:42.085Z</time>
      </trkpt>
      <trkpt lat="49.355" lon="1.16457">
        <ele>178.4</ele>
        <time>2012-05-06T07:58:43.091Z</time>
      </trkpt>
      <trkpt lat="49.35496" lon="1.16448">
        <ele>177.6</ele>
        <time>2012-05-06T07:58:45.091Z</time>
      </trkpt>
      <trkpt lat="49.35492" lon="1.16442">
        <ele>175.9</ele>
        <time>2012-05-06T07:58:47.091Z</time>
      </trkpt>
      <trkpt lat="49.35488" lon="1.16436">
        <ele>174.4</ele>
        <time>2012-05-06T07:58:50.091Z</time>
      </trkpt>
      <trkpt lat="49.35482" lon="1.16438">
        <ele>175.4</ele>
        <time>2012-05-06T07:58:53.091Z</time>
      </trkpt>
      <trkpt lat="49.35476" lon="1.16438">
        <ele>180.5</ele>
        <time>2012-05-06T07:58:56.095Z</time>
      </trkpt>
      <trkpt lat="49.3547" lon="1.16439">
        <ele>182.5</ele>
        <time>2012-05-06T07:58:59.088Z</time>
      </trkpt>
      <trkpt lat="49.35464" lon="1.16441">
        <ele>185.3</ele>
        <time>2012-05-06T07:59:02.083Z</time>
      </trkpt>
      <trkpt lat="49.35458" lon="1.16445">
        <ele>183.7</ele>
        <time>2012-05-06T07:59:05.096Z</time>
      </trkpt>
      <trkpt lat="49.35454" lon="1.16451">
        <ele>183.6</ele>
        <time>2012-05-06T07:59:08.088Z</time>
      </trkpt>
      <trkpt lat="49.35451" lon="1.16457">
        <ele>183.6</ele>
        <time>2012-05-06T07:59:10.093Z</time>
      </trkpt>
      <trkpt lat="49.35446" lon="1.16461">
        <ele>183.2</ele>
        <time>2012-05-06T07:59:12.093Z</time>
      </trkpt>
      <trkpt lat="49.35441" lon="1.16468">
        <ele>184.1</ele>
        <time>2012-05-06T07:59:15.081Z</time>
      </trkpt>
      <trkpt lat="49.35435" lon="1.16472">
        <ele>183.1</ele>
        <time>2012-05-06T07:59:17.098Z</time>
      </trkpt>
      <trkpt lat="49.3543" lon="1.16478">
        <ele>179.5</ele>
        <time>2012-05-06T07:59:19.789Z</time>
      </trkpt>
      <trkpt lat="49.35426" lon="1.16484">
        <ele>177.6</ele>
        <time>2012-05-06T07:59:22.089Z</time>
      </trkpt>
      <trkpt lat="49.35421" lon="1.16488">
        <ele>175.8</ele>
        <time>2012-05-06T07:59:24.139Z</time>
      </trkpt>
      <trkpt lat="49.35415" lon="1.16493">
        <ele>176.3</ele>
        <time>2012-05-06T07:59:27.076Z</time>
      </trkpt>
      <trkpt lat="49.3541" lon="1.16497">
        <ele>175.4</ele>
        <time>2012-05-06T07:59:29.085Z</time>
      </trkpt>
      <trkpt lat="49.35408" lon="1.16504">
        <ele>177.5</ele>
        <time>2012-05-06T07:59:33.076Z</time>
      </trkpt>
      <trkpt lat="49.35413" lon="1.16511">
        <ele>177</ele>
        <time>2012-05-06T07:59:38.079Z</time>
      </trkpt>
      <trkpt lat="49.35418" lon="1.16511">
        <ele>176.2</ele>
        <time>2012-05-06T07:59:41.091Z</time>
      </trkpt>
      <trkpt lat="49.35424" lon="1.16513">
        <ele>175.7</ele>
        <time>2012-05-06T07:59:43.094Z</time>
      </trkpt>
      <trkpt lat="49.3543" lon="1.16514">
        <ele>175.7</ele>
        <time>2012-05-06T07:59:45.095Z</time>
      </trkpt>
      <trkpt lat="49.35436" lon="1.16515">
        <ele>175.8</ele>
        <time>2012-05-06T07:59:47.079Z</time>
      </trkpt>
      <trkpt lat="49.35441" lon="1.16515">
        <ele>175.9</ele>
        <time>2012-05-06T07:59:49.094Z</time>
      </trkpt>
      <trkpt lat="49.35446" lon="1.16516">
        <ele>176.6</ele>
        <time>2012-05-06T07:59:51.094Z</time>
      </trkpt>
      <trkpt lat="49.35451" lon="1.16517">
        <ele>178.1</ele>
        <time>2012-05-06T07:59:53.085Z</time>
      </trkpt>
      <trkpt lat="49.35456" lon="1.1652">
        <ele>178.5</ele>
        <time>2012-05-06T07:59:54.091Z</time>
      </trkpt>
      <trkpt lat="49.35463" lon="1.16524">
        <ele>178.7</ele>
        <time>2012-05-06T07:59:56.078Z</time>
      </trkpt>
      <trkpt lat="49.35468" lon="1.16528">
        <ele>179.6</ele>
        <time>2012-05-06T07:59:58.090Z</time>
      </trkpt>
      <trkpt lat="49.3547" lon="1.16536">
        <ele>179.4</ele>
        <time>2012-05-06T08:00:00.097Z</time>
      </trkpt>
      <trkpt lat="49.35472" lon="1.16544">
        <ele>181</ele>
        <time>2012-05-06T08:00:02.090Z</time>
      </trkpt>
      <trkpt lat="49.35474" lon="1.16552">
        <ele>183.2</ele>
        <time>2012-05-06T08:00:04.092Z</time>
      </trkpt>
      <trkpt lat="49.35477" lon="1.16561">
        <ele>185.4</ele>
        <time>2012-05-06T08:00:06.090Z</time>
      </trkpt>
      <trkpt lat="49.35478" lon="1.16569">
        <ele>185.7</ele>
        <time>2012-05-06T08:00:08.091Z</time>
      </trkpt>
      <trkpt lat="49.35479" lon="1.16578">
        <ele>184.9</ele>
        <time>2012-05-06T08:00:10.078Z</time>
      </trkpt>
      <trkpt lat="49.35481" lon="1.16586">
        <ele>185.4</ele>
        <time>2012-05-06T08:00:12.078Z</time>
      </trkpt>
      <trkpt lat="49.35482" lon="1.16595">
        <ele>186.6</ele>
        <time>2012-05-06T08:00:14.079Z</time>
      </trkpt>
      <trkpt lat="49.35484" lon="1.16603">
        <ele>190.3</ele>
        <time>2012-05-06T08:00:16.094Z</time>
      </trkpt>
      <trkpt lat="49.35484" lon="1.16612">
        <ele>191.6</ele>
        <time>2012-05-06T08:00:18.090Z</time>
      </trkpt>
      <trkpt lat="49.35482" lon="1.1662">
        <ele>190.7</ele>
        <time>2012-05-06T08:00:20.089Z</time>
      </trkpt>
      <trkpt lat="49.3548" lon="1.16628">
        <ele>190</ele>
        <time>2012-05-06T08:00:22.078Z</time>
      </trkpt>
      <trkpt lat="49.35478" lon="1.16636">
        <ele>188.8</ele>
        <time>2012-05-06T08:00:24.079Z</time>
      </trkpt>
      <trkpt lat="49.35477" lon="1.16644">
        <ele>187.6</ele>
        <time>2012-05-06T08:00:26.091Z</time>
      </trkpt>
      <trkpt lat="49.35476" lon="1.16652">
        <ele>187.5</ele>
        <time>2012-05-06T08:00:28.093Z</time>
      </trkpt>
      <trkpt lat="49.35475" lon="1.1666">
        <ele>187.3</ele>
        <time>2012-05-06T08:00:30.091Z</time>
      </trkpt>
      <trkpt lat="49.35474" lon="1.16669">
        <ele>186.8</ele>
        <time>2012-05-06T08:00:32.095Z</time>
      </trkpt>
      <trkpt lat="49.35473" lon="1.16677">
        <ele>186.7</ele>
        <time>2012-05-06T08:00:34.090Z</time>
      </trkpt>
      <trkpt lat="49.35473" lon="1.16684">
        <ele>186.2</ele>
        <time>2012-05-06T08:00:36.080Z</time>
      </trkpt>
      <trkpt lat="49.35472" lon="1.16693">
        <ele>186.3</ele>
        <time>2012-05-06T08:00:38.094Z</time>
      </trkpt>
      <trkpt lat="49.35472" lon="1.16702">
        <ele>186.6</ele>
        <time>2012-05-06T08:00:40.092Z</time>
      </trkpt>
      <trkpt lat="49.35472" lon="1.16712">
        <ele>186.4</ele>
        <time>2012-05-06T08:00:42.092Z</time>
      </trkpt>
      <trkpt lat="49.35472" lon="1.16722">
        <ele>186</ele>
        <time>2012-05-06T08:00:44.090Z</time>
      </trkpt>
      <trkpt lat="49.35474" lon="1.16733">
        <ele>185.7</ele>
        <time>2012-05-06T08:00:46.090Z</time>
      </trkpt>
      <trkpt lat="49.35476" lon="1.16743">
        <ele>185.5</ele>
        <time>2012-05-06T08:00:48.092Z</time>
      </trkpt>
      <trkpt lat="49.35478" lon="1.16752">
        <ele>185.2</ele>
        <time>2012-05-06T08:00:50.091Z</time>
      </trkpt>
      <trkpt lat="49.3548" lon="1.1676">
        <ele>184.9</ele>
        <time>2012-05-06T08:00:52.089Z</time>
      </trkpt>
      <trkpt lat="49.35482" lon="1.16768">
        <ele>184.3</ele>
        <time>2012-05-06T08:00:54.092Z</time>
      </trkpt>
      <trkpt lat="49.35484" lon="1.16775">
        <ele>184</ele>
        <time>2012-05-06T08:00:56.094Z</time>
      </trkpt>
      <trkpt lat="49.35487" lon="1.16782">
        <ele>183.5</ele>
        <time>2012-05-06T08:00:58.091Z</time>
      </trkpt>
      <trkpt lat="49.35489" lon="1.1679">
        <ele>183.2</ele>
        <time>2012-05-06T08:01:00.092Z</time>
      </trkpt>
      <trkpt lat="49.35491" lon="1.16799">
        <ele>183.3</ele>
        <time>2012-05-06T08:01:02.091Z</time>
      </trkpt>
      <trkpt lat="49.35494" lon="1.16808">
        <ele>183.3</ele>
        <time>2012-05-06T08:01:04.098Z</time>
      </trkpt>
      <trkpt lat="49.35496" lon="1.16818">
        <ele>183.4</ele>
        <time>2012-05-06T08:01:06.079Z</time>
      </trkpt>
      <trkpt lat="49.35498" lon="1.16828">
        <ele>183.2</ele>
        <time>2012-05-06T08:01:08.091Z</time>
      </trkpt>
      <trkpt lat="49.35501" lon="1.16837">
        <ele>183</ele>
        <time>2012-05-06T08:01:10.079Z</time>
      </trkpt>
      <trkpt lat="49.35503" lon="1.16848">
        <ele>183.3</ele>
        <time>2012-05-06T08:01:12.091Z</time>
      </trkpt>
      <trkpt lat="49.35505" lon="1.16857">
        <ele>182.5</ele>
        <time>2012-05-06T08:01:14.093Z</time>
      </trkpt>
      <trkpt lat="49.35507" lon="1.16866">
        <ele>181.1</ele>
        <time>2012-05-06T08:01:16.090Z</time>
      </trkpt>
      <trkpt lat="49.3551" lon="1.16875">
        <ele>180.3</ele>
        <time>2012-05-06T08:01:18.079Z</time>
      </trkpt>
      <trkpt lat="49.35512" lon="1.16885">
        <ele>179.4</ele>
        <time>2012-05-06T08:01:20.080Z</time>
      </trkpt>
      <trkpt lat="49.35514" lon="1.16894">
        <ele>178.8</ele>
        <time>2012-05-06T08:01:22.091Z</time>
      </trkpt>
      <trkpt lat="49.35517" lon="1.16903">
        <ele>178</ele>
        <time>2012-05-06T08:01:24.085Z</time>
      </trkpt>
      <trkpt lat="49.35519" lon="1.16913">
        <ele>178</ele>
        <time>2012-05-06T08:01:26.091Z</time>
      </trkpt>
      <trkpt lat="49.35522" lon="1.16924">
        <ele>178.3</ele>
        <time>2012-05-06T08:01:28.079Z</time>
      </trkpt>
      <trkpt lat="49.35525" lon="1.16934">
        <ele>178.1</ele>
        <time>2012-05-06T08:01:30.091Z</time>
      </trkpt>
      <trkpt lat="49.35529" lon="1.16943">
        <ele>177.9</ele>
        <time>2012-05-06T08:01:32.094Z</time>
      </trkpt>
      <trkpt lat="49.35533" lon="1.16952">
        <ele>178.1</ele>
        <time>2012-05-06T08:01:34.090Z</time>
      </trkpt>
      <trkpt lat="49.35538" lon="1.16959">
        <ele>177.6</ele>
        <time>2012-05-06T08:01:36.099Z</time>
      </trkpt>
      <trkpt lat="49.35542" lon="1.16967">
        <ele>177</ele>
        <time>2012-05-06T08:01:38.095Z</time>
      </trkpt>
      <trkpt lat="49.35547" lon="1.16976">
        <ele>177.2</ele>
        <time>2012-05-06T08:01:40.097Z</time>
      </trkpt>
      <trkpt lat="49.35551" lon="1.16984">
        <ele>176.9</ele>
        <time>2012-05-06T08:01:42.081Z</time>
      </trkpt>
      <trkpt lat="49.35554" lon="1.16993">
        <ele>176.5</ele>
        <time>2012-05-06T08:01:44.092Z</time>
      </trkpt>
      <trkpt lat="49.35558" lon="1.17003">
        <ele>176</ele>
        <time>2012-05-06T08:01:46.097Z</time>
      </trkpt>
      <trkpt lat="49.35561" lon="1.17012">
        <ele>175.7</ele>
        <time>2012-05-06T08:01:48.089Z</time>
      </trkpt>
      <trkpt lat="49.35564" lon="1.17021">
        <ele>175.9</ele>
        <time>2012-05-06T08:01:50.095Z</time>
      </trkpt>
      <trkpt lat="49.35567" lon="1.1703">
        <ele>175.8</ele>
        <time>2012-05-06T08:01:52.094Z</time>
      </trkpt>
      <trkpt lat="49.35569" lon="1.17039">
        <ele>175.4</ele>
        <time>2012-05-06T08:01:54.092Z</time>
      </trkpt>
      <trkpt lat="49.35571" lon="1.17048">
        <ele>175.3</ele>
        <time>2012-05-06T08:01:56.082Z</time>
      </trkpt>
      <trkpt lat="49.35573" lon="1.17057">
        <ele>175</ele>
        <time>2012-05-06T08:01:58.092Z</time>
      </trkpt>
      <trkpt lat="49.35573" lon="1.17066">
        <ele>175.2</ele>
        <time>2012-05-06T08:02:00.083Z</time>
      </trkpt>
      <trkpt lat="49.35572" lon="1.17077">
        <ele>174.9</ele>
        <time>2012-05-06T08:02:02.094Z</time>
      </trkpt>
      <trkpt lat="49.35569" lon="1.17089">
        <ele>174.9</ele>
        <time>2012-05-06T08:02:04.091Z</time>
      </trkpt>
      <trkpt lat="49.35568" lon="1.17096">
        <ele>174.7</ele>
        <time>2012-05-06T08:02:05.079Z</time>
      </trkpt>
      <trkpt lat="49.35566" lon="1.17102">
        <ele>174.7</ele>
        <time>2012-05-06T08:02:06.091Z</time>
      </trkpt>
      <trkpt lat="49.35564" lon="1.17109">
        <ele>174.5</ele>
        <time>2012-05-06T08:02:07.136Z</time>
      </trkpt>
      <trkpt lat="49.35561" lon="1.17115">
        <ele>174.6</ele>
        <time>2012-05-06T08:02:08.099Z</time>
      </trkpt>
      <trkpt lat="49.35558" lon="1.17122">
        <ele>174.2</ele>
        <time>2012-05-06T08:02:09.095Z</time>
      </trkpt>
      <trkpt lat="49.35556" lon="1.17128">
        <ele>174.3</ele>
        <time>2012-05-06T08:02:10.094Z</time>
      </trkpt>
      <trkpt lat="49.35553" lon="1.17135">
        <ele>174.2</ele>
        <time>2012-05-06T08:02:11.100Z</time>
      </trkpt>
      <trkpt lat="49.3555" lon="1.17141">
        <ele>174.3</ele>
        <time>2012-05-06T08:02:12.092Z</time>
      </trkpt>
      <trkpt lat="49.35545" lon="1.17152">
        <ele>174.2</ele>
        <time>2012-05-06T08:02:13.789Z</time>
      </trkpt>
      <trkpt lat="49.35542" lon="1.17158">
        <ele>174.3</ele>
        <time>2012-05-06T08:02:15.236Z</time>
      </trkpt>
      <trkpt lat="49.35537" lon="1.17166">
        <ele>174.1</ele>
        <time>2012-05-06T08:02:17.095Z</time>
      </trkpt>
      <trkpt lat="49.35533" lon="1.17171">
        <ele>174.6</ele>
        <time>2012-05-06T08:02:19.078Z</time>
      </trkpt>
      <trkpt lat="49.3553" lon="1.1718">
        <ele>174.7</ele>
        <time>2012-05-06T08:02:21.092Z</time>
      </trkpt>
      <trkpt lat="49.35529" lon="1.17189">
        <ele>175.7</ele>
        <time>2012-05-06T08:02:23.079Z</time>
      </trkpt>
      <trkpt lat="49.35527" lon="1.17197">
        <ele>175.7</ele>
        <time>2012-05-06T08:02:25.089Z</time>
      </trkpt>
      <trkpt lat="49.35525" lon="1.17205">
        <ele>175.7</ele>
        <time>2012-05-06T08:02:27.088Z</time>
      </trkpt>
      <trkpt lat="49.35524" lon="1.17216">
        <ele>175.7</ele>
        <time>2012-05-06T08:02:30.092Z</time>
      </trkpt>
      <trkpt lat="49.35522" lon="1.17225">
        <ele>176.2</ele>
        <time>2012-05-06T08:02:32.086Z</time>
      </trkpt>
      <trkpt lat="49.3552" lon="1.17234">
        <ele>176.9</ele>
        <time>2012-05-06T08:02:34.093Z</time>
      </trkpt>
      <trkpt lat="49.35517" lon="1.17243">
        <ele>177.4</ele>
        <time>2012-05-06T08:02:37.089Z</time>
      </trkpt>
      <trkpt lat="49.35514" lon="1.1725">
        <ele>177</ele>
        <time>2012-05-06T08:02:40.097Z</time>
      </trkpt>
      <trkpt lat="49.3551" lon="1.17257">
        <ele>176.9</ele>
        <time>2012-05-06T08:02:43.091Z</time>
      </trkpt>
      <trkpt lat="49.3551" lon="1.17264">
        <ele>176.2</ele>
        <time>2012-05-06T08:02:45.090Z</time>
      </trkpt>
      <trkpt lat="49.35509" lon="1.17273">
        <ele>177.2</ele>
        <time>2012-05-06T08:02:47.091Z</time>
      </trkpt>
      <trkpt lat="49.35509" lon="1.17281">
        <ele>178.1</ele>
        <time>2012-05-06T08:02:49.090Z</time>
      </trkpt>
      <trkpt lat="49.35511" lon="1.1729">
        <ele>178.1</ele>
        <time>2012-05-06T08:02:51.091Z</time>
      </trkpt>
      <trkpt lat="49.35513" lon="1.17298">
        <ele>178.6</ele>
        <time>2012-05-06T08:02:53.088Z</time>
      </trkpt>
      <trkpt lat="49.35514" lon="1.17304">
        <ele>179.3</ele>
        <time>2012-05-06T08:02:55.081Z</time>
      </trkpt>
      <trkpt lat="49.35517" lon="1.17313">
        <ele>179.1</ele>
        <time>2012-05-06T08:02:57.092Z</time>
      </trkpt>
      <trkpt lat="49.3552" lon="1.17321">
        <ele>178.8</ele>
        <time>2012-05-06T08:02:59.078Z</time>
      </trkpt>
      <trkpt lat="49.35522" lon="1.1733">
        <ele>179.5</ele>
        <time>2012-05-06T08:03:01.086Z</time>
      </trkpt>
      <trkpt lat="49.35524" lon="1.17339">
        <ele>180</ele>
        <time>2012-05-06T08:03:03.094Z</time>
      </trkpt>
      <trkpt lat="49.35527" lon="1.17348">
        <ele>179.8</ele>
        <time>2012-05-06T08:03:05.085Z</time>
      </trkpt>
      <trkpt lat="49.3553" lon="1.17357">
        <ele>179.4</ele>
        <time>2012-05-06T08:03:07.091Z</time>
      </trkpt>
      <trkpt lat="49.35533" lon="1.17366">
        <ele>180.4</ele>
        <time>2012-05-06T08:03:09.084Z</time>
      </trkpt>
      <trkpt lat="49.35535" lon="1.17375">
        <ele>180.4</ele>
        <time>2012-05-06T08:03:11.093Z</time>
      </trkpt>
      <trkpt lat="49.35537" lon="1.17385">
        <ele>180</ele>
        <time>2012-05-06T08:03:13.095Z</time>
      </trkpt>
      <trkpt lat="49.35539" lon="1.17394">
        <ele>179.3</ele>
        <time>2012-05-06T08:03:15.091Z</time>
      </trkpt>
      <trkpt lat="49.35541" lon="1.17403">
        <ele>179.2</ele>
        <time>2012-05-06T08:03:17.085Z</time>
      </trkpt>
      <trkpt lat="49.35544" lon="1.17412">
        <ele>179.8</ele>
        <time>2012-05-06T08:03:19.083Z</time>
      </trkpt>
      <trkpt lat="49.35545" lon="1.17422">
        <ele>180.1</ele>
        <time>2012-05-06T08:03:21.092Z</time>
      </trkpt>
      <trkpt lat="49.35547" lon="1.17431">
        <ele>180.3</ele>
        <time>2012-05-06T08:03:23.091Z</time>
      </trkpt>
      <trkpt lat="49.35548" lon="1.1744">
        <ele>180</ele>
        <time>2012-05-06T08:03:25.083Z</time>
      </trkpt>
      <trkpt lat="49.3555" lon="1.17451">
        <ele>180.2</ele>
        <time>2012-05-06T08:03:27.080Z</time>
      </trkpt>
      <trkpt lat="49.3555" lon="1.1746">
        <ele>180.2</ele>
        <time>2012-05-06T08:03:29.091Z</time>
      </trkpt>
      <trkpt lat="49.35551" lon="1.17469">
        <ele>180.3</ele>
        <time>2012-05-06T08:03:31.092Z</time>
      </trkpt>
      <trkpt lat="49.35552" lon="1.17478">
        <ele>180.4</ele>
        <time>2012-05-06T08:03:33.249Z</time>
      </trkpt>
      <trkpt lat="49.35553" lon="1.17485">
        <ele>181</ele>
        <time>2012-05-06T08:03:35.249Z</time>
      </trkpt>
      <trkpt lat="49.3555" lon="1.1749">
        <ele>182</ele>
        <time>2012-05-06T08:03:38.249Z</time>
      </trkpt>
      <trkpt lat="49.3555" lon="1.17496">
        <ele>183.3</ele>
        <time>2012-05-06T08:03:44.100Z</time>
      </trkpt>
      <trkpt lat="49.35548" lon="1.17503">
        <ele>184.8</ele>
        <time>2012-05-06T08:03:54.085Z</time>
      </trkpt>
      <trkpt lat="49.35544" lon="1.17509">
        <ele>184.6</ele>
        <time>2012-05-06T08:03:56.086Z</time>
      </trkpt>
      <trkpt lat="49.35538" lon="1.17513">
        <ele>184.4</ele>
        <time>2012-05-06T08:03:58.086Z</time>
      </trkpt>
      <trkpt lat="49.35534" lon="1.1752">
        <ele>184.4</ele>
        <time>2012-05-06T08:04:00.090Z</time>
      </trkpt>
      <trkpt lat="49.35536" lon="1.1753">
        <ele>183.7</ele>
        <time>2012-05-06T08:04:03.095Z</time>
      </trkpt>
      <trkpt lat="49.35538" lon="1.17543">
        <ele>183.9</ele>
        <time>2012-05-06T08:04:05.094Z</time>
      </trkpt>
      <trkpt lat="49.35538" lon="1.17556">
        <ele>183.8</ele>
        <time>2012-05-06T08:04:07.096Z</time>
      </trkpt>
      <trkpt lat="49.35538" lon="1.17563">
        <ele>183.8</ele>
        <time>2012-05-06T08:04:08.094Z</time>
      </trkpt>
      <trkpt lat="49.35539" lon="1.17576">
        <ele>184</ele>
        <time>2012-05-06T08:04:10.094Z</time>
      </trkpt>
      <trkpt lat="49.35539" lon="1.17589">
        <ele>184.2</ele>
        <time>2012-05-06T08:04:12.093Z</time>
      </trkpt>
      <trkpt lat="49.3554" lon="1.17601">
        <ele>184</ele>
        <time>2012-05-06T08:04:14.094Z</time>
      </trkpt>
      <trkpt lat="49.3554" lon="1.17614">
        <ele>183.7</ele>
        <time>2012-05-06T08:04:16.100Z</time>
      </trkpt>
      <trkpt lat="49.3554" lon="1.17626">
        <ele>183.2</ele>
        <time>2012-05-06T08:04:18.096Z</time>
      </trkpt>
      <trkpt lat="49.3554" lon="1.17638">
        <ele>183.5</ele>
        <time>2012-05-06T08:04:20.095Z</time>
      </trkpt>
      <trkpt lat="49.3554" lon="1.1765">
        <ele>183.2</ele>
        <time>2012-05-06T08:04:22.079Z</time>
      </trkpt>
      <trkpt lat="49.35539" lon="1.17663">
        <ele>183</ele>
        <time>2012-05-06T08:04:24.096Z</time>
      </trkpt>
      <trkpt lat="49.35539" lon="1.17675">
        <ele>183.1</ele>
        <time>2012-05-06T08:04:26.078Z</time>
      </trkpt>
      <trkpt lat="49.35539" lon="1.17687">
        <ele>183.7</ele>
        <time>2012-05-06T08:04:28.087Z</time>
      </trkpt>
      <trkpt lat="49.35537" lon="1.17699">
        <ele>184</ele>
        <time>2012-05-06T08:04:30.094Z</time>
      </trkpt>
      <trkpt lat="49.35535" lon="1.1771">
        <ele>184.3</ele>
        <time>2012-05-06T08:04:32.092Z</time>
      </trkpt>
      <trkpt lat="49.35534" lon="1.17722">
        <ele>184.6</ele>
        <time>2012-05-06T08:04:34.096Z</time>
      </trkpt>
      <trkpt lat="49.35536" lon="1.17731">
        <ele>184.6</ele>
        <time>2012-05-06T08:04:36.079Z</time>
      </trkpt>
      <trkpt lat="49.35539" lon="1.17741">
        <ele>184.4</ele>
        <time>2012-05-06T08:04:38.092Z</time>
      </trkpt>
      <trkpt lat="49.3554" lon="1.17752">
        <ele>184.3</ele>
        <time>2012-05-06T08:04:40.080Z</time>
      </trkpt>
      <trkpt lat="49.35541" lon="1.17765">
        <ele>184.4</ele>
        <time>2012-05-06T08:04:42.089Z</time>
      </trkpt>
      <trkpt lat="49.35541" lon="1.17777">
        <ele>184.6</ele>
        <time>2012-05-06T08:04:44.095Z</time>
      </trkpt>
      <trkpt lat="49.35542" lon="1.1779">
        <ele>184.9</ele>
        <time>2012-05-06T08:04:46.091Z</time>
      </trkpt>
      <trkpt lat="49.35542" lon="1.17802">
        <ele>184.6</ele>
        <time>2012-05-06T08:04:48.100Z</time>
      </trkpt>
      <trkpt lat="49.35543" lon="1.17815">
        <ele>184.7</ele>
        <time>2012-05-06T08:04:50.092Z</time>
      </trkpt>
      <trkpt lat="49.35544" lon="1.17828">
        <ele>185.3</ele>
        <time>2012-05-06T08:04:52.093Z</time>
      </trkpt>
      <trkpt lat="49.35545" lon="1.1784">
        <ele>185.2</ele>
        <time>2012-05-06T08:04:54.093Z</time>
      </trkpt>
      <trkpt lat="49.35546" lon="1.17853">
        <ele>185.3</ele>
        <time>2012-05-06T08:04:56.092Z</time>
      </trkpt>
      <trkpt lat="49.35547" lon="1.17866">
        <ele>185.1</ele>
        <time>2012-05-06T08:04:58.096Z</time>
      </trkpt>
      <trkpt lat="49.35548" lon="1.17878">
        <ele>185.5</ele>
        <time>2012-05-06T08:05:00.092Z</time>
      </trkpt>
      <trkpt lat="49.3555" lon="1.1789">
        <ele>185.9</ele>
        <time>2012-05-06T08:05:02.078Z</time>
      </trkpt>
      <trkpt lat="49.3555" lon="1.17902">
        <ele>185.4</ele>
        <time>2012-05-06T08:05:04.092Z</time>
      </trkpt>
      <trkpt lat="49.35552" lon="1.17913">
        <ele>185</ele>
        <time>2012-05-06T08:05:06.091Z</time>
      </trkpt>
      <trkpt lat="49.35554" lon="1.17923">
        <ele>184.9</ele>
        <time>2012-05-06T08:05:08.093Z</time>
      </trkpt>
      <trkpt lat="49.35555" lon="1.17933">
        <ele>185</ele>
        <time>2012-05-06T08:05:10.093Z</time>
      </trkpt>
      <trkpt lat="49.35556" lon="1.17943">
        <ele>185.6</ele>
        <time>2012-05-06T08:05:12.081Z</time>
      </trkpt>
      <trkpt lat="49.35558" lon="1.17951">
        <ele>185.5</ele>
        <time>2012-05-06T08:05:14.092Z</time>
      </trkpt>
      <trkpt lat="49.3556" lon="1.1796">
        <ele>185.4</ele>
        <time>2012-05-06T08:05:16.088Z</time>
      </trkpt>
      <trkpt lat="49.35562" lon="1.17969">
        <ele>185.6</ele>
        <time>2012-05-06T08:05:18.092Z</time>
      </trkpt>
      <trkpt lat="49.3556" lon="1.17981">
        <ele>185.6</ele>
        <time>2012-05-06T08:05:20.098Z</time>
      </trkpt>
      <trkpt lat="49.35554" lon="1.17987">
        <ele>186.4</ele>
        <time>2012-05-06T08:05:22.095Z</time>
      </trkpt>
      <trkpt lat="49.35547" lon="1.17991">
        <ele>187.3</ele>
        <time>2012-05-06T08:05:24.093Z</time>
      </trkpt>
      <trkpt lat="49.3554" lon="1.17995">
        <ele>187.2</ele>
        <time>2012-05-06T08:05:26.082Z</time>
      </trkpt>
      <trkpt lat="49.35533" lon="1.17999">
        <ele>186.7</ele>
        <time>2012-05-06T08:05:28.093Z</time>
      </trkpt>
      <trkpt lat="49.35525" lon="1.18004">
        <ele>186.3</ele>
        <time>2012-05-06T08:05:30.098Z</time>
      </trkpt>
      <trkpt lat="49.35517" lon="1.18008">
        <ele>186.6</ele>
        <time>2012-05-06T08:05:32.093Z</time>
      </trkpt>
      <trkpt lat="49.3551" lon="1.18012">
        <ele>186.2</ele>
        <time>2012-05-06T08:05:34.101Z</time>
      </trkpt>
      <trkpt lat="49.35502" lon="1.18017">
        <ele>186.2</ele>
        <time>2012-05-06T08:05:36.089Z</time>
      </trkpt>
      <trkpt lat="49.35494" lon="1.18022">
        <ele>186.3</ele>
        <time>2012-05-06T08:05:38.092Z</time>
      </trkpt>
      <trkpt lat="49.35487" lon="1.18027">
        <ele>186</ele>
        <time>2012-05-06T08:05:40.080Z</time>
      </trkpt>
      <trkpt lat="49.3548" lon="1.18032">
        <ele>186</ele>
        <time>2012-05-06T08:05:42.092Z</time>
      </trkpt>
      <trkpt lat="49.35473" lon="1.18036">
        <ele>186.3</ele>
        <time>2012-05-06T08:05:44.097Z</time>
      </trkpt>
      <trkpt lat="49.35465" lon="1.1804">
        <ele>186.1</ele>
        <time>2012-05-06T08:05:46.092Z</time>
      </trkpt>
      <trkpt lat="49.35457" lon="1.18045">
        <ele>186.3</ele>
        <time>2012-05-06T08:05:48.092Z</time>
      </trkpt>
      <trkpt lat="49.3545" lon="1.18049">
        <ele>186.8</ele>
        <time>2012-05-06T08:05:50.089Z</time>
      </trkpt>
      <trkpt lat="49.35443" lon="1.18054">
        <ele>186.7</ele>
        <time>2012-05-06T08:05:52.099Z</time>
      </trkpt>
      <trkpt lat="49.35436" lon="1.18058">
        <ele>186.9</ele>
        <time>2012-05-06T08:05:54.095Z</time>
      </trkpt>
      <trkpt lat="49.35429" lon="1.18062">
        <ele>187</ele>
        <time>2012-05-06T08:05:56.091Z</time>
      </trkpt>
      <trkpt lat="49.35422" lon="1.18065">
        <ele>187.1</ele>
        <time>2012-05-06T08:05:58.094Z</time>
      </trkpt>
      <trkpt lat="49.35414" lon="1.18069">
        <ele>187.5</ele>
        <time>2012-05-06T08:06:00.092Z</time>
      </trkpt>
      <trkpt lat="49.35406" lon="1.18071">
        <ele>188.1</ele>
        <time>2012-05-06T08:06:02.097Z</time>
      </trkpt>
      <trkpt lat="49.35399" lon="1.18075">
        <ele>188</ele>
        <time>2012-05-06T08:06:04.091Z</time>
      </trkpt>
      <trkpt lat="49.35392" lon="1.18077">
        <ele>188.5</ele>
        <time>2012-05-06T08:06:06.077Z</time>
      </trkpt>
      <trkpt lat="49.35384" lon="1.1808">
        <ele>189.2</ele>
        <time>2012-05-06T08:06:08.089Z</time>
      </trkpt>
      <trkpt lat="49.35377" lon="1.18082">
        <ele>189.9</ele>
        <time>2012-05-06T08:06:10.092Z</time>
      </trkpt>
      <trkpt lat="49.3537" lon="1.18084">
        <ele>188.4</ele>
        <time>2012-05-06T08:06:12.082Z</time>
      </trkpt>
      <trkpt lat="49.35364" lon="1.18085">
        <ele>189.1</ele>
        <time>2012-05-06T08:06:13.091Z</time>
      </trkpt>
      <trkpt lat="49.35356" lon="1.18086">
        <ele>188.3</ele>
        <time>2012-05-06T08:06:15.095Z</time>
      </trkpt>
      <trkpt lat="49.35348" lon="1.18089">
        <ele>188.4</ele>
        <time>2012-05-06T08:06:17.091Z</time>
      </trkpt>
      <trkpt lat="49.3534" lon="1.18093">
        <ele>188.2</ele>
        <time>2012-05-06T08:06:19.092Z</time>
      </trkpt>
      <trkpt lat="49.35332" lon="1.18097">
        <ele>189</ele>
        <time>2012-05-06T08:06:21.085Z</time>
      </trkpt>
      <trkpt lat="49.35324" lon="1.18101">
        <ele>187.9</ele>
        <time>2012-05-06T08:06:23.093Z</time>
      </trkpt>
      <trkpt lat="49.3532" lon="1.18104">
        <ele>188.4</ele>
        <time>2012-05-06T08:06:24.102Z</time>
      </trkpt>
      <trkpt lat="49.35314" lon="1.18108">
        <ele>189.9</ele>
        <time>2012-05-06T08:06:26.081Z</time>
      </trkpt>
      <trkpt lat="49.3531" lon="1.18111">
        <ele>189.1</ele>
        <time>2012-05-06T08:06:27.090Z</time>
      </trkpt>
      <trkpt lat="49.35303" lon="1.18118">
        <ele>189.4</ele>
        <time>2012-05-06T08:06:29.085Z</time>
      </trkpt>
      <trkpt lat="49.35298" lon="1.18122">
        <ele>189.5</ele>
        <time>2012-05-06T08:06:30.091Z</time>
      </trkpt>
      <trkpt lat="49.35291" lon="1.18127">
        <ele>189.2</ele>
        <time>2012-05-06T08:06:32.081Z</time>
      </trkpt>
      <trkpt lat="49.35284" lon="1.18132">
        <ele>188.9</ele>
        <time>2012-05-06T08:06:34.079Z</time>
      </trkpt>
      <trkpt lat="49.35276" lon="1.18138">
        <ele>187.9</ele>
        <time>2012-05-06T08:06:36.093Z</time>
      </trkpt>
      <trkpt lat="49.35268" lon="1.18143">
        <ele>187.9</ele>
        <time>2012-05-06T08:06:38.092Z</time>
      </trkpt>
      <trkpt lat="49.3526" lon="1.18149">
        <ele>188.8</ele>
        <time>2012-05-06T08:06:40.087Z</time>
      </trkpt>
      <trkpt lat="49.35256" lon="1.18152">
        <ele>188.8</ele>
        <time>2012-05-06T08:06:41.093Z</time>
      </trkpt>
      <trkpt lat="49.35248" lon="1.18157">
        <ele>188.4</ele>
        <time>2012-05-06T08:06:43.095Z</time>
      </trkpt>
      <trkpt lat="49.3524" lon="1.18161">
        <ele>188.8</ele>
        <time>2012-05-06T08:06:45.079Z</time>
      </trkpt>
      <trkpt lat="49.35233" lon="1.18167">
        <ele>188.3</ele>
        <time>2012-05-06T08:06:47.087Z</time>
      </trkpt>
      <trkpt lat="49.35225" lon="1.18172">
        <ele>187.8</ele>
        <time>2012-05-06T08:06:49.092Z</time>
      </trkpt>
      <trkpt lat="49.3522" lon="1.18173">
        <ele>187.2</ele>
        <time>2012-05-06T08:06:50.091Z</time>
      </trkpt>
      <trkpt lat="49.35211" lon="1.18179">
        <ele>186.3</ele>
        <time>2012-05-06T08:06:52.077Z</time>
      </trkpt>
      <trkpt lat="49.35202" lon="1.18183">
        <ele>186.4</ele>
        <time>2012-05-06T08:06:54.081Z</time>
      </trkpt>
      <trkpt lat="49.35195" lon="1.18188">
        <ele>185.6</ele>
        <time>2012-05-06T08:06:56.097Z</time>
      </trkpt>
      <trkpt lat="49.35189" lon="1.1819">
        <ele>185.5</ele>
        <time>2012-05-06T08:06:57.092Z</time>
      </trkpt>
      <trkpt lat="49.35185" lon="1.18193">
        <ele>186</ele>
        <time>2012-05-06T08:06:58.080Z</time>
      </trkpt>
      <trkpt lat="49.3518" lon="1.18195">
        <ele>185.1</ele>
        <time>2012-05-06T08:06:59.091Z</time>
      </trkpt>
      <trkpt lat="49.35175" lon="1.18196">
        <ele>184.6</ele>
        <time>2012-05-06T08:07:00.092Z</time>
      </trkpt>
      <trkpt lat="49.3517" lon="1.18198">
        <ele>184.5</ele>
        <time>2012-05-06T08:07:01.082Z</time>
      </trkpt>
      <trkpt lat="49.35166" lon="1.182">
        <ele>185</ele>
        <time>2012-05-06T08:07:02.093Z</time>
      </trkpt>
      <trkpt lat="49.3516" lon="1.18203">
        <ele>185.1</ele>
        <time>2012-05-06T08:07:03.257Z</time>
      </trkpt>
      <trkpt lat="49.35153" lon="1.18203">
        <ele>185.5</ele>
        <time>2012-05-06T08:07:05.257Z</time>
      </trkpt>
      <trkpt lat="49.35146" lon="1.18204">
        <ele>185.5</ele>
        <time>2012-05-06T08:07:07.257Z</time>
      </trkpt>
      <trkpt lat="49.35141" lon="1.18205">
        <ele>185.6</ele>
        <time>2012-05-06T08:07:09.257Z</time>
      </trkpt>
      <trkpt lat="49.35139" lon="1.18212">
        <ele>186.4</ele>
        <time>2012-05-06T08:07:13.257Z</time>
      </trkpt>
      <trkpt lat="49.35143" lon="1.18208">
        <ele>187.1</ele>
        <time>2012-05-06T08:07:18.088Z</time>
      </trkpt>
      <trkpt lat="49.35138" lon="1.18211">
        <ele>188.9</ele>
        <time>2012-05-06T08:07:23.093Z</time>
      </trkpt>
      <trkpt lat="49.35139" lon="1.1822">
        <ele>189.1</ele>
        <time>2012-05-06T08:07:25.085Z</time>
      </trkpt>
      <trkpt lat="49.35144" lon="1.18231">
        <ele>189.4</ele>
        <time>2012-05-06T08:07:27.095Z</time>
      </trkpt>
      <trkpt lat="49.3515" lon="1.1824">
        <ele>189.3</ele>
        <time>2012-05-06T08:07:29.091Z</time>
      </trkpt>
      <trkpt lat="49.35155" lon="1.1825">
        <ele>189.4</ele>
        <time>2012-05-06T08:07:31.092Z</time>
      </trkpt>
      <trkpt lat="49.35161" lon="1.1826">
        <ele>189.9</ele>
        <time>2012-05-06T08:07:33.077Z</time>
      </trkpt>
      <trkpt lat="49.35167" lon="1.18268">
        <ele>189.8</ele>
        <time>2012-05-06T08:07:35.087Z</time>
      </trkpt>
      <trkpt lat="49.35174" lon="1.18277">
        <ele>190</ele>
        <time>2012-05-06T08:07:37.092Z</time>
      </trkpt>
      <trkpt lat="49.3518" lon="1.18285">
        <ele>190.5</ele>
        <time>2012-05-06T08:07:39.094Z</time>
      </trkpt>
      <trkpt lat="49.35186" lon="1.18293">
        <ele>190.3</ele>
        <time>2012-05-06T08:07:41.096Z</time>
      </trkpt>
      <trkpt lat="49.35193" lon="1.18301">
        <ele>190.3</ele>
        <time>2012-05-06T08:07:43.079Z</time>
      </trkpt>
      <trkpt lat="49.352" lon="1.18309">
        <ele>190.8</ele>
        <time>2012-05-06T08:07:45.091Z</time>
      </trkpt>
      <trkpt lat="49.35203" lon="1.18314">
        <ele>191</ele>
        <time>2012-05-06T08:07:46.096Z</time>
      </trkpt>
      <trkpt lat="49.35208" lon="1.18324">
        <ele>189.9</ele>
        <time>2012-05-06T08:07:48.086Z</time>
      </trkpt>
      <trkpt lat="49.35209" lon="1.18331">
        <ele>189.7</ele>
        <time>2012-05-06T08:07:49.092Z</time>
      </trkpt>
      <trkpt lat="49.35215" lon="1.18341">
        <ele>189.9</ele>
        <time>2012-05-06T08:07:51.078Z</time>
      </trkpt>
      <trkpt lat="49.35219" lon="1.18343">
        <ele>189.7</ele>
        <time>2012-05-06T08:07:52.097Z</time>
      </trkpt>
      <trkpt lat="49.35224" lon="1.18344">
        <ele>189.5</ele>
        <time>2012-05-06T08:07:53.092Z</time>
      </trkpt>
      <trkpt lat="49.35228" lon="1.18343">
        <ele>189.9</ele>
        <time>2012-05-06T08:07:54.096Z</time>
      </trkpt>
      <trkpt lat="49.35233" lon="1.18342">
        <ele>190.1</ele>
        <time>2012-05-06T08:07:55.093Z</time>
      </trkpt>
      <trkpt lat="49.35238" lon="1.18344">
        <ele>190.1</ele>
        <time>2012-05-06T08:07:56.095Z</time>
      </trkpt>
      <trkpt lat="49.35242" lon="1.18347">
        <ele>190</ele>
        <time>2012-05-06T08:07:57.079Z</time>
      </trkpt>
      <trkpt lat="49.35247" lon="1.18351">
        <ele>190.2</ele>
        <time>2012-05-06T08:07:58.089Z</time>
      </trkpt>
      <trkpt lat="49.35252" lon="1.18355">
        <ele>189.9</ele>
        <time>2012-05-06T08:07:59.093Z</time>
      </trkpt>
      <trkpt lat="49.35256" lon="1.18359">
        <ele>189.8</ele>
        <time>2012-05-06T08:08:00.098Z</time>
      </trkpt>
      <trkpt lat="49.3526" lon="1.18363">
        <ele>189.2</ele>
        <time>2012-05-06T08:08:01.092Z</time>
      </trkpt>
      <trkpt lat="49.35265" lon="1.18366">
        <ele>188.2</ele>
        <time>2012-05-06T08:08:02.081Z</time>
      </trkpt>
      <trkpt lat="49.35269" lon="1.18371">
        <ele>188.2</ele>
        <time>2012-05-06T08:08:03.093Z</time>
      </trkpt>
      <trkpt lat="49.35274" lon="1.18375">
        <ele>188</ele>
        <time>2012-05-06T08:08:04.089Z</time>
      </trkpt>
      <trkpt lat="49.35282" lon="1.18382">
        <ele>187.8</ele>
        <time>2012-05-06T08:08:06.093Z</time>
      </trkpt>
      <trkpt lat="49.35286" lon="1.18386">
        <ele>187.8</ele>
        <time>2012-05-06T08:08:07.090Z</time>
      </trkpt>
      <trkpt lat="49.3529" lon="1.1839">
        <ele>187.9</ele>
        <time>2012-05-06T08:08:08.093Z</time>
      </trkpt>
      <trkpt lat="49.35294" lon="1.18393">
        <ele>188.3</ele>
        <time>2012-05-06T08:08:09.088Z</time>
      </trkpt>
      <trkpt lat="49.35302" lon="1.18399">
        <ele>188.3</ele>
        <time>2012-05-06T08:08:11.094Z</time>
      </trkpt>
      <trkpt lat="49.35309" lon="1.18406">
        <ele>188.3</ele>
        <time>2012-05-06T08:08:13.078Z</time>
      </trkpt>
      <trkpt lat="49.35316" lon="1.18413">
        <ele>188.3</ele>
        <time>2012-05-06T08:08:15.095Z</time>
      </trkpt>
      <trkpt lat="49.3532" lon="1.18417">
        <ele>188.7</ele>
        <time>2012-05-06T08:08:16.089Z</time>
      </trkpt>
      <trkpt lat="49.35324" lon="1.18422">
        <ele>189</ele>
        <time>2012-05-06T08:08:17.091Z</time>
      </trkpt>
      <trkpt lat="49.35328" lon="1.18427">
        <ele>189.7</ele>
        <time>2012-05-06T08:08:18.092Z</time>
      </trkpt>
      <trkpt lat="49.35332" lon="1.18433">
        <ele>190.1</ele>
        <time>2012-05-06T08:08:19.088Z</time>
      </trkpt>
      <trkpt lat="49.35335" lon="1.18439">
        <ele>189.6</ele>
        <time>2012-05-06T08:08:20.082Z</time>
      </trkpt>
      <trkpt lat="49.35338" lon="1.18444">
        <ele>188.8</ele>
        <time>2012-05-06T08:08:21.089Z</time>
      </trkpt>
      <trkpt lat="49.35341" lon="1.1845">
        <ele>188.5</ele>
        <time>2012-05-06T08:08:22.079Z</time>
      </trkpt>
      <trkpt lat="49.35344" lon="1.18457">
        <ele>187.8</ele>
        <time>2012-05-06T08:08:23.089Z</time>
      </trkpt>
      <trkpt lat="49.35347" lon="1.18464">
        <ele>187.8</ele>
        <time>2012-05-06T08:08:24.084Z</time>
      </trkpt>
      <trkpt lat="49.35351" lon="1.1847">
        <ele>187.2</ele>
        <time>2012-05-06T08:08:25.086Z</time>
      </trkpt>
      <trkpt lat="49.35354" lon="1.18477">
        <ele>187.4</ele>
        <time>2012-05-06T08:08:26.095Z</time>
      </trkpt>
      <trkpt lat="49.35356" lon="1.18483">
        <ele>186.9</ele>
        <time>2012-05-06T08:08:27.088Z</time>
      </trkpt>
      <trkpt lat="49.3536" lon="1.1849">
        <ele>186</ele>
        <time>2012-05-06T08:08:28.096Z</time>
      </trkpt>
      <trkpt lat="49.35363" lon="1.18496">
        <ele>185.4</ele>
        <time>2012-05-06T08:08:29.086Z</time>
      </trkpt>
      <trkpt lat="49.35366" lon="1.18503">
        <ele>184.9</ele>
        <time>2012-05-06T08:08:30.082Z</time>
      </trkpt>
      <trkpt lat="49.35369" lon="1.18509">
        <ele>184.6</ele>
        <time>2012-05-06T08:08:31.093Z</time>
      </trkpt>
      <trkpt lat="49.35373" lon="1.18517">
        <ele>184.7</ele>
        <time>2012-05-06T08:08:32.097Z</time>
      </trkpt>
      <trkpt lat="49.35376" lon="1.18524">
        <ele>184.7</ele>
        <time>2012-05-06T08:08:33.092Z</time>
      </trkpt>
      <trkpt lat="49.35379" lon="1.18532">
        <ele>184.6</ele>
        <time>2012-05-06T08:08:34.082Z</time>
      </trkpt>
      <trkpt lat="49.35382" lon="1.18539">
        <ele>184.9</ele>
        <time>2012-05-06T08:08:35.093Z</time>
      </trkpt>
      <trkpt lat="49.35386" lon="1.18546">
        <ele>184.8</ele>
        <time>2012-05-06T08:08:36.093Z</time>
      </trkpt>
      <trkpt lat="49.35388" lon="1.18554">
        <ele>184.8</ele>
        <time>2012-05-06T08:08:37.095Z</time>
      </trkpt>
      <trkpt lat="49.35392" lon="1.18561">
        <ele>184.8</ele>
        <time>2012-05-06T08:08:38.096Z</time>
      </trkpt>
      <trkpt lat="49.35395" lon="1.18569">
        <ele>184.6</ele>
        <time>2012-05-06T08:08:39.089Z</time>
      </trkpt>
      <trkpt lat="49.35398" lon="1.18576">
        <ele>184.7</ele>
        <time>2012-05-06T08:08:40.095Z</time>
      </trkpt>
      <trkpt lat="49.35402" lon="1.18583">
        <ele>185</ele>
        <time>2012-05-06T08:08:41.088Z</time>
      </trkpt>
      <trkpt lat="49.35405" lon="1.18591">
        <ele>184.8</ele>
        <time>2012-05-06T08:08:42.088Z</time>
      </trkpt>
      <trkpt lat="49.35408" lon="1.18598">
        <ele>184.9</ele>
        <time>2012-05-06T08:08:43.087Z</time>
      </trkpt>
      <trkpt lat="49.35412" lon="1.18606">
        <ele>185.2</ele>
        <time>2012-05-06T08:08:44.092Z</time>
      </trkpt>
      <trkpt lat="49.35415" lon="1.18614">
        <ele>185.3</ele>
        <time>2012-05-06T08:08:45.092Z</time>
      </trkpt>
      <trkpt lat="49.35419" lon="1.1862">
        <ele>184.8</ele>
        <time>2012-05-06T08:08:46.095Z</time>
      </trkpt>
      <trkpt lat="49.35422" lon="1.18628">
        <ele>184.6</ele>
        <time>2012-05-06T08:08:47.082Z</time>
      </trkpt>
      <trkpt lat="49.35425" lon="1.18635">
        <ele>184.8</ele>
        <time>2012-05-06T08:08:48.086Z</time>
      </trkpt>
      <trkpt lat="49.35428" lon="1.18643">
        <ele>184.7</ele>
        <time>2012-05-06T08:08:49.092Z</time>
      </trkpt>
      <trkpt lat="49.35432" lon="1.1865">
        <ele>184.5</ele>
        <time>2012-05-06T08:08:50.095Z</time>
      </trkpt>
      <trkpt lat="49.35436" lon="1.18657">
        <ele>184.5</ele>
        <time>2012-05-06T08:08:51.091Z</time>
      </trkpt>
      <trkpt lat="49.35439" lon="1.18665">
        <ele>184.1</ele>
        <time>2012-05-06T08:08:52.082Z</time>
      </trkpt>
      <trkpt lat="49.35442" lon="1.18673">
        <ele>183.9</ele>
        <time>2012-05-06T08:08:53.087Z</time>
      </trkpt>
      <trkpt lat="49.35445" lon="1.1868">
        <ele>184.1</ele>
        <time>2012-05-06T08:08:54.092Z</time>
      </trkpt>
      <trkpt lat="49.35449" lon="1.18688">
        <ele>183.4</ele>
        <time>2012-05-06T08:08:55.089Z</time>
      </trkpt>
      <trkpt lat="49.35452" lon="1.18695">
        <ele>183.3</ele>
        <time>2012-05-06T08:08:56.085Z</time>
      </trkpt>
      <trkpt lat="49.35456" lon="1.18703">
        <ele>183.5</ele>
        <time>2012-05-06T08:08:57.089Z</time>
      </trkpt>
      <trkpt lat="49.3546" lon="1.18712">
        <ele>183.2</ele>
        <time>2012-05-06T08:08:58.095Z</time>
      </trkpt>
      <trkpt lat="49.35463" lon="1.1872">
        <ele>183</ele>
        <time>2012-05-06T08:08:59.093Z</time>
      </trkpt>
      <trkpt lat="49.35467" lon="1.18727">
        <ele>182.1</ele>
        <time>2012-05-06T08:09:00.096Z</time>
      </trkpt>
      <trkpt lat="49.3547" lon="1.18735">
        <ele>181.7</ele>
        <time>2012-05-06T08:09:01.092Z</time>
      </trkpt>
      <trkpt lat="49.35474" lon="1.18743">
        <ele>181.7</ele>
        <time>2012-05-06T08:09:02.094Z</time>
      </trkpt>
      <trkpt lat="49.35478" lon="1.18751">
        <ele>181.5</ele>
        <time>2012-05-06T08:09:03.085Z</time>
      </trkpt>
      <trkpt lat="49.35482" lon="1.18759">
        <ele>181.1</ele>
        <time>2012-05-06T08:09:04.091Z</time>
      </trkpt>
      <trkpt lat="49.35485" lon="1.18767">
        <ele>181.6</ele>
        <time>2012-05-06T08:09:05.097Z</time>
      </trkpt>
      <trkpt lat="49.35489" lon="1.18776">
        <ele>181.5</ele>
        <time>2012-05-06T08:09:06.096Z</time>
      </trkpt>
      <trkpt lat="49.35492" lon="1.18783">
        <ele>180.8</ele>
        <time>2012-05-06T08:09:07.089Z</time>
      </trkpt>
      <trkpt lat="49.35496" lon="1.1879">
        <ele>180.6</ele>
        <time>2012-05-06T08:09:08.097Z</time>
      </trkpt>
      <trkpt lat="49.355" lon="1.18799">
        <ele>180.1</ele>
        <time>2012-05-06T08:09:09.093Z</time>
      </trkpt>
      <trkpt lat="49.35504" lon="1.18807">
        <ele>179.5</ele>
        <time>2012-05-06T08:09:10.094Z</time>
      </trkpt>
      <trkpt lat="49.35507" lon="1.18815">
        <ele>179.4</ele>
        <time>2012-05-06T08:09:11.088Z</time>
      </trkpt>
      <trkpt lat="49.3551" lon="1.18822">
        <ele>179.1</ele>
        <time>2012-05-06T08:09:12.093Z</time>
      </trkpt>
      <trkpt lat="49.35514" lon="1.1883">
        <ele>178.9</ele>
        <time>2012-05-06T08:09:13.096Z</time>
      </trkpt>
      <trkpt lat="49.35517" lon="1.18838">
        <ele>179.1</ele>
        <time>2012-05-06T08:09:14.096Z</time>
      </trkpt>
      <trkpt lat="49.3552" lon="1.18846">
        <ele>179.2</ele>
        <time>2012-05-06T08:09:15.094Z</time>
      </trkpt>
      <trkpt lat="49.35523" lon="1.18854">
        <ele>179.1</ele>
        <time>2012-05-06T08:09:16.092Z</time>
      </trkpt>
      <trkpt lat="49.35525" lon="1.18862">
        <ele>179.3</ele>
        <time>2012-05-06T08:09:17.094Z</time>
      </trkpt>
      <trkpt lat="49.35528" lon="1.18869">
        <ele>179.3</ele>
        <time>2012-05-06T08:09:18.093Z</time>
      </trkpt>
      <trkpt lat="49.35531" lon="1.18877">
        <ele>179.6</ele>
        <time>2012-05-06T08:09:19.084Z</time>
      </trkpt>
      <trkpt lat="49.35534" lon="1.18884">
        <ele>179.9</ele>
        <time>2012-05-06T08:09:20.088Z</time>
      </trkpt>
      <trkpt lat="49.35537" lon="1.18891">
        <ele>180</ele>
        <time>2012-05-06T08:09:21.096Z</time>
      </trkpt>
      <trkpt lat="49.35541" lon="1.18895">
        <ele>180.3</ele>
        <time>2012-05-06T08:09:22.088Z</time>
      </trkpt>
      <trkpt lat="49.35549" lon="1.18895">
        <ele>180.7</ele>
        <time>2012-05-06T08:09:24.081Z</time>
      </trkpt>
      <trkpt lat="49.35552" lon="1.18882">
        <ele>181.2</ele>
        <time>2012-05-06T08:09:26.093Z</time>
      </trkpt>
      <trkpt lat="49.35555" lon="1.18876">
        <ele>181.9</ele>
        <time>2012-05-06T08:09:27.094Z</time>
      </trkpt>
      <trkpt lat="49.35558" lon="1.18872">
        <ele>182.4</ele>
        <time>2012-05-06T08:09:28.092Z</time>
      </trkpt>
      <trkpt lat="49.35563" lon="1.18868">
        <ele>182.7</ele>
        <time>2012-05-06T08:09:29.095Z</time>
      </trkpt>
      <trkpt lat="49.35567" lon="1.18865">
        <ele>183.1</ele>
        <time>2012-05-06T08:09:30.095Z</time>
      </trkpt>
      <trkpt lat="49.35571" lon="1.1886">
        <ele>183.4</ele>
        <time>2012-05-06T08:09:31.092Z</time>
      </trkpt>
      <trkpt lat="49.35574" lon="1.18855">
        <ele>183.7</ele>
        <time>2012-05-06T08:09:32.080Z</time>
      </trkpt>
      <trkpt lat="49.35577" lon="1.18849">
        <ele>184.1</ele>
        <time>2012-05-06T08:09:33.095Z</time>
      </trkpt>
      <trkpt lat="49.35581" lon="1.18843">
        <ele>185.1</ele>
        <time>2012-05-06T08:09:34.088Z</time>
      </trkpt>
      <trkpt lat="49.35584" lon="1.18838">
        <ele>185.8</ele>
        <time>2012-05-06T08:09:35.093Z</time>
      </trkpt>
      <trkpt lat="49.35588" lon="1.18832">
        <ele>185.8</ele>
        <time>2012-05-06T08:09:36.100Z</time>
      </trkpt>
      <trkpt lat="49.35591" lon="1.18827">
        <ele>186.1</ele>
        <time>2012-05-06T08:09:37.091Z</time>
      </trkpt>
      <trkpt lat="49.35598" lon="1.18817">
        <ele>186.4</ele>
        <time>2012-05-06T08:09:39.088Z</time>
      </trkpt>
      <trkpt lat="49.35601" lon="1.18812">
        <ele>186.7</ele>
        <time>2012-05-06T08:09:40.093Z</time>
      </trkpt>
      <trkpt lat="49.35604" lon="1.18807">
        <ele>187.2</ele>
        <time>2012-05-06T08:09:41.087Z</time>
      </trkpt>
      <trkpt lat="49.35607" lon="1.18802">
        <ele>187.3</ele>
        <time>2012-05-06T08:09:42.086Z</time>
      </trkpt>
      <trkpt lat="49.35613" lon="1.18792">
        <ele>187</ele>
        <time>2012-05-06T08:09:44.088Z</time>
      </trkpt>
      <trkpt lat="49.35616" lon="1.18787">
        <ele>187.1</ele>
        <time>2012-05-06T08:09:45.096Z</time>
      </trkpt>
      <trkpt lat="49.35622" lon="1.18777">
        <ele>187.7</ele>
        <time>2012-05-06T08:09:47.088Z</time>
      </trkpt>
      <trkpt lat="49.35628" lon="1.18766">
        <ele>187.5</ele>
        <time>2012-05-06T08:09:49.088Z</time>
      </trkpt>
      <trkpt lat="49.35632" lon="1.18761">
        <ele>187.6</ele>
        <time>2012-05-06T08:09:50.095Z</time>
      </trkpt>
      <trkpt lat="49.35635" lon="1.18756">
        <ele>187.8</ele>
        <time>2012-05-06T08:09:51.098Z</time>
      </trkpt>
      <trkpt lat="49.35638" lon="1.18751">
        <ele>187.7</ele>
        <time>2012-05-06T08:09:52.092Z</time>
      </trkpt>
      <trkpt lat="49.35642" lon="1.18746">
        <ele>188.2</ele>
        <time>2012-05-06T08:09:53.090Z</time>
      </trkpt>
      <trkpt lat="49.35647" lon="1.18737">
        <ele>188.2</ele>
        <time>2012-05-06T08:09:55.088Z</time>
      </trkpt>
      <trkpt lat="49.35653" lon="1.18728">
        <ele>188.8</ele>
        <time>2012-05-06T08:09:57.095Z</time>
      </trkpt>
      <trkpt lat="49.35659" lon="1.18718">
        <ele>189.7</ele>
        <time>2012-05-06T08:09:59.092Z</time>
      </trkpt>
      <trkpt lat="49.35662" lon="1.18713">
        <ele>189.6</ele>
        <time>2012-05-06T08:10:00.092Z</time>
      </trkpt>
      <trkpt lat="49.35668" lon="1.18704">
        <ele>189.9</ele>
        <time>2012-05-06T08:10:02.093Z</time>
      </trkpt>
      <trkpt lat="49.35674" lon="1.18695">
        <ele>190.2</ele>
        <time>2012-05-06T08:10:04.095Z</time>
      </trkpt>
      <trkpt lat="49.3568" lon="1.18687">
        <ele>190.4</ele>
        <time>2012-05-06T08:10:06.089Z</time>
      </trkpt>
      <trkpt lat="49.35686" lon="1.18679">
        <ele>190.2</ele>
        <time>2012-05-06T08:10:08.093Z</time>
      </trkpt>
      <trkpt lat="49.35692" lon="1.1867">
        <ele>190.4</ele>
        <time>2012-05-06T08:10:10.098Z</time>
      </trkpt>
      <trkpt lat="49.35699" lon="1.18663">
        <ele>190.3</ele>
        <time>2012-05-06T08:10:12.091Z</time>
      </trkpt>
      <trkpt lat="49.35705" lon="1.18656">
        <ele>190.7</ele>
        <time>2012-05-06T08:10:14.082Z</time>
      </trkpt>
      <trkpt lat="49.35712" lon="1.18649">
        <ele>191</ele>
        <time>2012-05-06T08:10:16.130Z</time>
      </trkpt>
      <trkpt lat="49.35719" lon="1.18642">
        <ele>190.6</ele>
        <time>2012-05-06T08:10:18.093Z</time>
      </trkpt>
      <trkpt lat="49.35725" lon="1.18637">
        <ele>190.8</ele>
        <time>2012-05-06T08:10:20.082Z</time>
      </trkpt>
      <trkpt lat="49.35731" lon="1.18631">
        <ele>190.3</ele>
        <time>2012-05-06T08:10:22.081Z</time>
      </trkpt>
      <trkpt lat="49.35739" lon="1.18626">
        <ele>189.5</ele>
        <time>2012-05-06T08:10:24.082Z</time>
      </trkpt>
      <trkpt lat="49.35746" lon="1.18622">
        <ele>188.7</ele>
        <time>2012-05-06T08:10:26.082Z</time>
      </trkpt>
      <trkpt lat="49.35753" lon="1.18618">
        <ele>188.3</ele>
        <time>2012-05-06T08:10:28.092Z</time>
      </trkpt>
      <trkpt lat="49.3576" lon="1.18615">
        <ele>187.9</ele>
        <time>2012-05-06T08:10:30.106Z</time>
      </trkpt>
      <trkpt lat="49.35767" lon="1.18612">
        <ele>187.9</ele>
        <time>2012-05-06T08:10:32.079Z</time>
      </trkpt>
      <trkpt lat="49.35775" lon="1.1861">
        <ele>188</ele>
        <time>2012-05-06T08:10:34.079Z</time>
      </trkpt>
      <trkpt lat="49.35783" lon="1.18608">
        <ele>188.2</ele>
        <time>2012-05-06T08:10:36.079Z</time>
      </trkpt>
      <trkpt lat="49.35791" lon="1.18607">
        <ele>188.1</ele>
        <time>2012-05-06T08:10:38.124Z</time>
      </trkpt>
      <trkpt lat="49.35799" lon="1.18605">
        <ele>187.9</ele>
        <time>2012-05-06T08:10:40.082Z</time>
      </trkpt>
      <trkpt lat="49.35807" lon="1.18602">
        <ele>188</ele>
        <time>2012-05-06T08:10:42.095Z</time>
      </trkpt>
      <trkpt lat="49.35815" lon="1.186">
        <ele>187.7</ele>
        <time>2012-05-06T08:10:44.082Z</time>
      </trkpt>
      <trkpt lat="49.35823" lon="1.18598">
        <ele>188.1</ele>
        <time>2012-05-06T08:10:46.083Z</time>
      </trkpt>
      <trkpt lat="49.3583" lon="1.18596">
        <ele>188.3</ele>
        <time>2012-05-06T08:10:48.094Z</time>
      </trkpt>
      <trkpt lat="49.35838" lon="1.18594">
        <ele>188.5</ele>
        <time>2012-05-06T08:10:50.089Z</time>
      </trkpt>
      <trkpt lat="49.35846" lon="1.18592">
        <ele>188.6</ele>
        <time>2012-05-06T08:10:52.099Z</time>
      </trkpt>
      <trkpt lat="49.35853" lon="1.1859">
        <ele>188.5</ele>
        <time>2012-05-06T08:10:54.100Z</time>
      </trkpt>
      <trkpt lat="49.3586" lon="1.18588">
        <ele>188.9</ele>
        <time>2012-05-06T08:10:56.116Z</time>
      </trkpt>
      <trkpt lat="49.35867" lon="1.18587">
        <ele>189.1</ele>
        <time>2012-05-06T08:10:58.098Z</time>
      </trkpt>
      <trkpt lat="49.35874" lon="1.18585">
        <ele>189.3</ele>
        <time>2012-05-06T08:11:00.098Z</time>
      </trkpt>
      <trkpt lat="49.35881" lon="1.18583">
        <ele>189.6</ele>
        <time>2012-05-06T08:11:02.098Z</time>
      </trkpt>
      <trkpt lat="49.35888" lon="1.18582">
        <ele>189.1</ele>
        <time>2012-05-06T08:11:04.097Z</time>
      </trkpt>
      <trkpt lat="49.35895" lon="1.1858">
        <ele>189.2</ele>
        <time>2012-05-06T08:11:06.091Z</time>
      </trkpt>
      <trkpt lat="49.35902" lon="1.18578">
        <ele>189</ele>
        <time>2012-05-06T08:11:08.097Z</time>
      </trkpt>
      <trkpt lat="49.35909" lon="1.18576">
        <ele>188.9</ele>
        <time>2012-05-06T08:11:10.090Z</time>
      </trkpt>
      <trkpt lat="49.35914" lon="1.18574">
        <ele>189</ele>
        <time>2012-05-06T08:11:12.103Z</time>
      </trkpt>
      <trkpt lat="49.35919" lon="1.18573">
        <ele>188.8</ele>
        <time>2012-05-06T08:11:14.092Z</time>
      </trkpt>
      <trkpt lat="49.35924" lon="1.18571">
        <ele>189.3</ele>
        <time>2012-05-06T08:11:16.090Z</time>
      </trkpt>
      <trkpt lat="49.35929" lon="1.18569">
        <ele>189.4</ele>
        <time>2012-05-06T08:11:18.089Z</time>
      </trkpt>
      <trkpt lat="49.35934" lon="1.18567">
        <ele>189</ele>
        <time>2012-05-06T08:11:20.089Z</time>
      </trkpt>
      <trkpt lat="49.3594" lon="1.18566">
        <ele>189.1</ele>
        <time>2012-05-06T08:11:22.090Z</time>
      </trkpt>
      <trkpt lat="49.35946" lon="1.18564">
        <ele>189.5</ele>
        <time>2012-05-06T08:11:25.095Z</time>
      </trkpt>
      <trkpt lat="49.35952" lon="1.18561">
        <ele>189.1</ele>
        <time>2012-05-06T08:11:28.097Z</time>
      </trkpt>
      <trkpt lat="49.35958" lon="1.18559">
        <ele>189.1</ele>
        <time>2012-05-06T08:11:30.099Z</time>
      </trkpt>
      <trkpt lat="49.35964" lon="1.18556">
        <ele>189</ele>
        <time>2012-05-06T08:11:32.074Z</time>
      </trkpt>
      <trkpt lat="49.3597" lon="1.18553">
        <ele>189.1</ele>
        <time>2012-05-06T08:11:34.090Z</time>
      </trkpt>
      <trkpt lat="49.35977" lon="1.1855">
        <ele>189.3</ele>
        <time>2012-05-06T08:11:36.090Z</time>
      </trkpt>
      <trkpt lat="49.35984" lon="1.18547">
        <ele>189.3</ele>
        <time>2012-05-06T08:11:38.089Z</time>
      </trkpt>
      <trkpt lat="49.35991" lon="1.18543">
        <ele>189.1</ele>
        <time>2012-05-06T08:11:40.087Z</time>
      </trkpt>
      <trkpt lat="49.35998" lon="1.18539">
        <ele>189.1</ele>
        <time>2012-05-06T08:11:42.094Z</time>
      </trkpt>
      <trkpt lat="49.36005" lon="1.18535">
        <ele>188.7</ele>
        <time>2012-05-06T08:11:44.135Z</time>
      </trkpt>
      <trkpt lat="49.36012" lon="1.1853">
        <ele>188.3</ele>
        <time>2012-05-06T08:11:46.095Z</time>
      </trkpt>
      <trkpt lat="49.3602" lon="1.18524">
        <ele>188.1</ele>
        <time>2012-05-06T08:11:48.079Z</time>
      </trkpt>
      <trkpt lat="49.36024" lon="1.1852">
        <ele>188.5</ele>
        <time>2012-05-06T08:11:49.079Z</time>
      </trkpt>
      <trkpt lat="49.36028" lon="1.18516">
        <ele>188.7</ele>
        <time>2012-05-06T08:11:50.079Z</time>
      </trkpt>
      <trkpt lat="49.36033" lon="1.18512">
        <ele>188.9</ele>
        <time>2012-05-06T08:11:51.081Z</time>
      </trkpt>
      <trkpt lat="49.36036" lon="1.18508">
        <ele>188.9</ele>
        <time>2012-05-06T08:11:52.078Z</time>
      </trkpt>
      <trkpt lat="49.3604" lon="1.18503">
        <ele>189</ele>
        <time>2012-05-06T08:11:53.081Z</time>
      </trkpt>
      <trkpt lat="49.36043" lon="1.18497">
        <ele>188.6</ele>
        <time>2012-05-06T08:11:54.079Z</time>
      </trkpt>
      <trkpt lat="49.36047" lon="1.18491">
        <ele>188.4</ele>
        <time>2012-05-06T08:11:55.089Z</time>
      </trkpt>
      <trkpt lat="49.36051" lon="1.18486">
        <ele>188.3</ele>
        <time>2012-05-06T08:11:56.078Z</time>
      </trkpt>
      <trkpt lat="49.36055" lon="1.1848">
        <ele>187.8</ele>
        <time>2012-05-06T08:11:57.092Z</time>
      </trkpt>
      <trkpt lat="49.36059" lon="1.18476">
        <ele>187.6</ele>
        <time>2012-05-06T08:11:58.078Z</time>
      </trkpt>
      <trkpt lat="49.36064" lon="1.1847">
        <ele>187.3</ele>
        <time>2012-05-06T08:11:59.095Z</time>
      </trkpt>
      <trkpt lat="49.36068" lon="1.18466">
        <ele>187.4</ele>
        <time>2012-05-06T08:12:00.092Z</time>
      </trkpt>
      <trkpt lat="49.36073" lon="1.1846">
        <ele>187.3</ele>
        <time>2012-05-06T08:12:01.094Z</time>
      </trkpt>
      <trkpt lat="49.36077" lon="1.18455">
        <ele>187.1</ele>
        <time>2012-05-06T08:12:02.088Z</time>
      </trkpt>
      <trkpt lat="49.36082" lon="1.18451">
        <ele>187.1</ele>
        <time>2012-05-06T08:12:03.095Z</time>
      </trkpt>
      <trkpt lat="49.36087" lon="1.18446">
        <ele>187.1</ele>
        <time>2012-05-06T08:12:04.079Z</time>
      </trkpt>
      <trkpt lat="49.36093" lon="1.18441">
        <ele>186.2</ele>
        <time>2012-05-06T08:12:05.094Z</time>
      </trkpt>
      <trkpt lat="49.36098" lon="1.18437">
        <ele>185.8</ele>
        <time>2012-05-06T08:12:06.089Z</time>
      </trkpt>
      <trkpt lat="49.36103" lon="1.18433">
        <ele>185.7</ele>
        <time>2012-05-06T08:12:07.096Z</time>
      </trkpt>
      <trkpt lat="49.36109" lon="1.18428">
        <ele>185.6</ele>
        <time>2012-05-06T08:12:08.089Z</time>
      </trkpt>
      <trkpt lat="49.36115" lon="1.18424">
        <ele>185.9</ele>
        <time>2012-05-06T08:12:09.095Z</time>
      </trkpt>
      <trkpt lat="49.3612" lon="1.1842">
        <ele>185.4</ele>
        <time>2012-05-06T08:12:10.088Z</time>
      </trkpt>
      <trkpt lat="49.36126" lon="1.18415">
        <ele>184.3</ele>
        <time>2012-05-06T08:12:11.097Z</time>
      </trkpt>
      <trkpt lat="49.36132" lon="1.18411">
        <ele>183.6</ele>
        <time>2012-05-06T08:12:12.096Z</time>
      </trkpt>
      <trkpt lat="49.36138" lon="1.18406">
        <ele>183.5</ele>
        <time>2012-05-06T08:12:13.099Z</time>
      </trkpt>
      <trkpt lat="49.36143" lon="1.18402">
        <ele>183.3</ele>
        <time>2012-05-06T08:12:14.088Z</time>
      </trkpt>
      <trkpt lat="49.36149" lon="1.18398">
        <ele>183.7</ele>
        <time>2012-05-06T08:12:15.095Z</time>
      </trkpt>
      <trkpt lat="49.36154" lon="1.18393">
        <ele>183.7</ele>
        <time>2012-05-06T08:12:16.100Z</time>
      </trkpt>
      <trkpt lat="49.36159" lon="1.18388">
        <ele>184.1</ele>
        <time>2012-05-06T08:12:17.098Z</time>
      </trkpt>
      <trkpt lat="49.36164" lon="1.18384">
        <ele>183.4</ele>
        <time>2012-05-06T08:12:18.096Z</time>
      </trkpt>
      <trkpt lat="49.36169" lon="1.18379">
        <ele>183.8</ele>
        <time>2012-05-06T08:12:19.089Z</time>
      </trkpt>
      <trkpt lat="49.36173" lon="1.18374">
        <ele>183.7</ele>
        <time>2012-05-06T08:12:20.096Z</time>
      </trkpt>
      <trkpt lat="49.36178" lon="1.1837">
        <ele>184.2</ele>
        <time>2012-05-06T08:12:21.099Z</time>
      </trkpt>
      <trkpt lat="49.36183" lon="1.18365">
        <ele>184.8</ele>
        <time>2012-05-06T08:12:22.098Z</time>
      </trkpt>
      <trkpt lat="49.36188" lon="1.1836">
        <ele>185</ele>
        <time>2012-05-06T08:12:23.088Z</time>
      </trkpt>
      <trkpt lat="49.36192" lon="1.18356">
        <ele>185</ele>
        <time>2012-05-06T08:12:24.089Z</time>
      </trkpt>
      <trkpt lat="49.36197" lon="1.18352">
        <ele>185</ele>
        <time>2012-05-06T08:12:25.088Z</time>
      </trkpt>
      <trkpt lat="49.36201" lon="1.18347">
        <ele>185.1</ele>
        <time>2012-05-06T08:12:26.096Z</time>
      </trkpt>
      <trkpt lat="49.36205" lon="1.18342">
        <ele>185</ele>
        <time>2012-05-06T08:12:27.092Z</time>
      </trkpt>
      <trkpt lat="49.3621" lon="1.18338">
        <ele>185.3</ele>
        <time>2012-05-06T08:12:28.087Z</time>
      </trkpt>
      <trkpt lat="49.36214" lon="1.18333">
        <ele>184.9</ele>
        <time>2012-05-06T08:12:29.095Z</time>
      </trkpt>
      <trkpt lat="49.36218" lon="1.18328">
        <ele>184.5</ele>
        <time>2012-05-06T08:12:30.094Z</time>
      </trkpt>
      <trkpt lat="49.36222" lon="1.18323">
        <ele>183.9</ele>
        <time>2012-05-06T08:12:31.092Z</time>
      </trkpt>
      <trkpt lat="49.36225" lon="1.18317">
        <ele>184.1</ele>
        <time>2012-05-06T08:12:32.094Z</time>
      </trkpt>
      <trkpt lat="49.36229" lon="1.18311">
        <ele>183.8</ele>
        <time>2012-05-06T08:12:33.089Z</time>
      </trkpt>
      <trkpt lat="49.36232" lon="1.18305">
        <ele>183.8</ele>
        <time>2012-05-06T08:12:34.094Z</time>
      </trkpt>
      <trkpt lat="49.36235" lon="1.18298">
        <ele>184</ele>
        <time>2012-05-06T08:12:35.093Z</time>
      </trkpt>
      <trkpt lat="49.3624" lon="1.18289">
        <ele>183.8</ele>
        <time>2012-05-06T08:12:37.083Z</time>
      </trkpt>
      <trkpt lat="49.36248" lon="1.18284">
        <ele>182.6</ele>
        <time>2012-05-06T08:12:39.088Z</time>
      </trkpt>
      <trkpt lat="49.36255" lon="1.1829">
        <ele>182.3</ele>
        <time>2012-05-06T08:12:41.088Z</time>
      </trkpt>
      <trkpt lat="49.36258" lon="1.18296">
        <ele>182.4</ele>
        <time>2012-05-06T08:12:42.093Z</time>
      </trkpt>
      <trkpt lat="49.36261" lon="1.18301">
        <ele>182.1</ele>
        <time>2012-05-06T08:12:43.089Z</time>
      </trkpt>
      <trkpt lat="49.36265" lon="1.18305">
        <ele>181.8</ele>
        <time>2012-05-06T08:12:44.078Z</time>
      </trkpt>
      <trkpt lat="49.3627" lon="1.1831">
        <ele>181.9</ele>
        <time>2012-05-06T08:12:45.095Z</time>
      </trkpt>
      <trkpt lat="49.36274" lon="1.18315">
        <ele>181.9</ele>
        <time>2012-05-06T08:12:46.088Z</time>
      </trkpt>
      <trkpt lat="49.36279" lon="1.18319">
        <ele>182.1</ele>
        <time>2012-05-06T08:12:47.096Z</time>
      </trkpt>
      <trkpt lat="49.36283" lon="1.18324">
        <ele>181.8</ele>
        <time>2012-05-06T08:12:48.106Z</time>
      </trkpt>
      <trkpt lat="49.36288" lon="1.18329">
        <ele>181.6</ele>
        <time>2012-05-06T08:12:49.095Z</time>
      </trkpt>
      <trkpt lat="49.36292" lon="1.18335">
        <ele>181.7</ele>
        <time>2012-05-06T08:12:50.094Z</time>
      </trkpt>
      <trkpt lat="49.36295" lon="1.1834">
        <ele>181.4</ele>
        <time>2012-05-06T08:12:51.091Z</time>
      </trkpt>
      <trkpt lat="49.36299" lon="1.18346">
        <ele>181.4</ele>
        <time>2012-05-06T08:12:52.094Z</time>
      </trkpt>
      <trkpt lat="49.36302" lon="1.18353">
        <ele>181.2</ele>
        <time>2012-05-06T08:12:53.096Z</time>
      </trkpt>
      <trkpt lat="49.36305" lon="1.1836">
        <ele>181.2</ele>
        <time>2012-05-06T08:12:54.094Z</time>
      </trkpt>
      <trkpt lat="49.36308" lon="1.18368">
        <ele>181.1</ele>
        <time>2012-05-06T08:12:55.095Z</time>
      </trkpt>
      <trkpt lat="49.36311" lon="1.18376">
        <ele>181.1</ele>
        <time>2012-05-06T08:12:56.088Z</time>
      </trkpt>
      <trkpt lat="49.36314" lon="1.18384">
        <ele>180.9</ele>
        <time>2012-05-06T08:12:57.091Z</time>
      </trkpt>
      <trkpt lat="49.36317" lon="1.18392">
        <ele>180.9</ele>
        <time>2012-05-06T08:12:58.083Z</time>
      </trkpt>
      <trkpt lat="49.3632" lon="1.184">
        <ele>181.1</ele>
        <time>2012-05-06T08:12:59.094Z</time>
      </trkpt>
      <trkpt lat="49.36323" lon="1.18408">
        <ele>181.2</ele>
        <time>2012-05-06T08:13:00.096Z</time>
      </trkpt>
      <trkpt lat="49.36326" lon="1.18416">
        <ele>181.3</ele>
        <time>2012-05-06T08:13:01.090Z</time>
      </trkpt>
      <trkpt lat="49.36329" lon="1.18423">
        <ele>181.7</ele>
        <time>2012-05-06T08:13:02.089Z</time>
      </trkpt>
      <trkpt lat="49.36332" lon="1.1843">
        <ele>182.1</ele>
        <time>2012-05-06T08:13:03.084Z</time>
      </trkpt>
      <trkpt lat="49.36336" lon="1.18437">
        <ele>182.1</ele>
        <time>2012-05-06T08:13:04.088Z</time>
      </trkpt>
      <trkpt lat="49.3634" lon="1.18443">
        <ele>182.5</ele>
        <time>2012-05-06T08:13:05.097Z</time>
      </trkpt>
      <trkpt lat="49.36343" lon="1.18449">
        <ele>182.8</ele>
        <time>2012-05-06T08:13:06.087Z</time>
      </trkpt>
      <trkpt lat="49.36346" lon="1.18455">
        <ele>183.1</ele>
        <time>2012-05-06T08:13:07.080Z</time>
      </trkpt>
      <trkpt lat="49.36349" lon="1.18462">
        <ele>183.2</ele>
        <time>2012-05-06T08:13:08.096Z</time>
      </trkpt>
      <trkpt lat="49.36353" lon="1.18467">
        <ele>183.2</ele>
        <time>2012-05-06T08:13:09.091Z</time>
      </trkpt>
      <trkpt lat="49.36357" lon="1.18474">
        <ele>183.2</ele>
        <time>2012-05-06T08:13:10.088Z</time>
      </trkpt>
      <trkpt lat="49.3636" lon="1.18479">
        <ele>183.7</ele>
        <time>2012-05-06T08:13:11.080Z</time>
      </trkpt>
      <trkpt lat="49.36363" lon="1.18486">
        <ele>183.9</ele>
        <time>2012-05-06T08:13:12.096Z</time>
      </trkpt>
      <trkpt lat="49.36367" lon="1.18492">
        <ele>184.2</ele>
        <time>2012-05-06T08:13:13.088Z</time>
      </trkpt>
      <trkpt lat="49.36371" lon="1.18499">
        <ele>184.6</ele>
        <time>2012-05-06T08:13:14.095Z</time>
      </trkpt>
      <trkpt lat="49.36374" lon="1.18506">
        <ele>185</ele>
        <time>2012-05-06T08:13:15.095Z</time>
      </trkpt>
      <trkpt lat="49.36378" lon="1.18512">
        <ele>185.4</ele>
        <time>2012-05-06T08:13:16.092Z</time>
      </trkpt>
      <trkpt lat="49.36382" lon="1.18519">
        <ele>185.2</ele>
        <time>2012-05-06T08:13:17.097Z</time>
      </trkpt>
      <trkpt lat="49.36385" lon="1.18525">
        <ele>185.3</ele>
        <time>2012-05-06T08:13:18.092Z</time>
      </trkpt>
      <trkpt lat="49.36389" lon="1.18531">
        <ele>185.3</ele>
        <time>2012-05-06T08:13:19.094Z</time>
      </trkpt>
      <trkpt lat="49.36392" lon="1.18538">
        <ele>185.5</ele>
        <time>2012-05-06T08:13:20.099Z</time>
      </trkpt>
      <trkpt lat="49.36395" lon="1.18544">
        <ele>185.6</ele>
        <time>2012-05-06T08:13:21.098Z</time>
      </trkpt>
      <trkpt lat="49.36398" lon="1.1855">
        <ele>186</ele>
        <time>2012-05-06T08:13:22.094Z</time>
      </trkpt>
      <trkpt lat="49.36401" lon="1.18556">
        <ele>185.9</ele>
        <time>2012-05-06T08:13:23.091Z</time>
      </trkpt>
      <trkpt lat="49.36404" lon="1.18562">
        <ele>186.1</ele>
        <time>2012-05-06T08:13:24.093Z</time>
      </trkpt>
      <trkpt lat="49.36406" lon="1.18568">
        <ele>186.3</ele>
        <time>2012-05-06T08:13:25.096Z</time>
      </trkpt>
      <trkpt lat="49.36409" lon="1.18575">
        <ele>186.4</ele>
        <time>2012-05-06T08:13:26.098Z</time>
      </trkpt>
      <trkpt lat="49.3641" lon="1.18581">
        <ele>186.7</ele>
        <time>2012-05-06T08:13:27.089Z</time>
      </trkpt>
      <trkpt lat="49.36413" lon="1.18588">
        <ele>186.7</ele>
        <time>2012-05-06T08:13:28.096Z</time>
      </trkpt>
      <trkpt lat="49.36414" lon="1.18596">
        <ele>187</ele>
        <time>2012-05-06T08:13:29.088Z</time>
      </trkpt>
      <trkpt lat="49.36415" lon="1.18604">
        <ele>187.1</ele>
        <time>2012-05-06T08:13:30.078Z</time>
      </trkpt>
      <trkpt lat="49.36416" lon="1.18612">
        <ele>187.3</ele>
        <time>2012-05-06T08:13:31.096Z</time>
      </trkpt>
      <trkpt lat="49.36418" lon="1.1862">
        <ele>186.9</ele>
        <time>2012-05-06T08:13:32.090Z</time>
      </trkpt>
      <trkpt lat="49.36419" lon="1.18629">
        <ele>186.7</ele>
        <time>2012-05-06T08:13:33.088Z</time>
      </trkpt>
      <trkpt lat="49.3642" lon="1.18637">
        <ele>186.4</ele>
        <time>2012-05-06T08:13:34.096Z</time>
      </trkpt>
      <trkpt lat="49.36422" lon="1.18646">
        <ele>186.1</ele>
        <time>2012-05-06T08:13:35.097Z</time>
      </trkpt>
      <trkpt lat="49.36423" lon="1.18654">
        <ele>186</ele>
        <time>2012-05-06T08:13:36.084Z</time>
      </trkpt>
      <trkpt lat="49.36424" lon="1.18663">
        <ele>186</ele>
        <time>2012-05-06T08:13:37.088Z</time>
      </trkpt>
      <trkpt lat="49.36425" lon="1.18672">
        <ele>185.6</ele>
        <time>2012-05-06T08:13:38.094Z</time>
      </trkpt>
      <trkpt lat="49.36427" lon="1.18681">
        <ele>186</ele>
        <time>2012-05-06T08:13:39.098Z</time>
      </trkpt>
      <trkpt lat="49.36428" lon="1.1869">
        <ele>185.9</ele>
        <time>2012-05-06T08:13:40.096Z</time>
      </trkpt>
      <trkpt lat="49.36429" lon="1.18698">
        <ele>185.9</ele>
        <time>2012-05-06T08:13:41.089Z</time>
      </trkpt>
      <trkpt lat="49.3643" lon="1.18707">
        <ele>185.9</ele>
        <time>2012-05-06T08:13:42.087Z</time>
      </trkpt>
      <trkpt lat="49.3643" lon="1.18714">
        <ele>185.9</ele>
        <time>2012-05-06T08:13:43.084Z</time>
      </trkpt>
      <trkpt lat="49.36431" lon="1.18723">
        <ele>185.8</ele>
        <time>2012-05-06T08:13:44.096Z</time>
      </trkpt>
      <trkpt lat="49.36433" lon="1.18731">
        <ele>185.7</ele>
        <time>2012-05-06T08:13:45.096Z</time>
      </trkpt>
      <trkpt lat="49.36434" lon="1.18738">
        <ele>186.1</ele>
        <time>2012-05-06T08:13:46.094Z</time>
      </trkpt>
      <trkpt lat="49.36435" lon="1.18746">
        <ele>186.2</ele>
        <time>2012-05-06T08:13:47.096Z</time>
      </trkpt>
      <trkpt lat="49.36436" lon="1.18753">
        <ele>186.2</ele>
        <time>2012-05-06T08:13:48.093Z</time>
      </trkpt>
      <trkpt lat="49.36438" lon="1.18761">
        <ele>186.2</ele>
        <time>2012-05-06T08:13:49.097Z</time>
      </trkpt>
      <trkpt lat="49.36439" lon="1.18768">
        <ele>185.9</ele>
        <time>2012-05-06T08:13:50.095Z</time>
      </trkpt>
      <trkpt lat="49.3644" lon="1.18775">
        <ele>185.7</ele>
        <time>2012-05-06T08:13:51.097Z</time>
      </trkpt>
      <trkpt lat="49.3644" lon="1.18782">
        <ele>185.3</ele>
        <time>2012-05-06T08:13:52.094Z</time>
      </trkpt>
      <trkpt lat="49.36442" lon="1.1879">
        <ele>185</ele>
        <time>2012-05-06T08:13:53.097Z</time>
      </trkpt>
      <trkpt lat="49.36443" lon="1.18797">
        <ele>184.7</ele>
        <time>2012-05-06T08:13:54.094Z</time>
      </trkpt>
      <trkpt lat="49.36444" lon="1.18804">
        <ele>184.7</ele>
        <time>2012-05-06T08:13:55.089Z</time>
      </trkpt>
      <trkpt lat="49.36445" lon="1.18811">
        <ele>185.1</ele>
        <time>2012-05-06T08:13:56.095Z</time>
      </trkpt>
      <trkpt lat="49.36446" lon="1.18818">
        <ele>184.4</ele>
        <time>2012-05-06T08:13:57.097Z</time>
      </trkpt>
      <trkpt lat="49.36447" lon="1.18824">
        <ele>184.1</ele>
        <time>2012-05-06T08:13:58.098Z</time>
      </trkpt>
      <trkpt lat="49.36449" lon="1.18838">
        <ele>183.7</ele>
        <time>2012-05-06T08:14:00.093Z</time>
      </trkpt>
      <trkpt lat="49.3645" lon="1.18845">
        <ele>183.2</ele>
        <time>2012-05-06T08:14:01.092Z</time>
      </trkpt>
      <trkpt lat="49.36451" lon="1.18852">
        <ele>183</ele>
        <time>2012-05-06T08:14:02.092Z</time>
      </trkpt>
      <trkpt lat="49.36452" lon="1.18859">
        <ele>183</ele>
        <time>2012-05-06T08:14:03.081Z</time>
      </trkpt>
      <trkpt lat="49.36452" lon="1.18866">
        <ele>182.4</ele>
        <time>2012-05-06T08:14:04.091Z</time>
      </trkpt>
      <trkpt lat="49.36454" lon="1.18879">
        <ele>181.5</ele>
        <time>2012-05-06T08:14:06.094Z</time>
      </trkpt>
      <trkpt lat="49.36455" lon="1.18886">
        <ele>181.2</ele>
        <time>2012-05-06T08:14:07.089Z</time>
      </trkpt>
      <trkpt lat="49.36457" lon="1.189">
        <ele>181</ele>
        <time>2012-05-06T08:14:09.104Z</time>
      </trkpt>
      <trkpt lat="49.36458" lon="1.18906">
        <ele>181</ele>
        <time>2012-05-06T08:14:10.095Z</time>
      </trkpt>
      <trkpt lat="49.36459" lon="1.18913">
        <ele>180.8</ele>
        <time>2012-05-06T08:14:11.087Z</time>
      </trkpt>
      <trkpt lat="49.3646" lon="1.18921">
        <ele>180.8</ele>
        <time>2012-05-06T08:14:12.094Z</time>
      </trkpt>
      <trkpt lat="49.36462" lon="1.18928">
        <ele>180.8</ele>
        <time>2012-05-06T08:14:13.080Z</time>
      </trkpt>
      <trkpt lat="49.36462" lon="1.18934">
        <ele>180.6</ele>
        <time>2012-05-06T08:14:14.094Z</time>
      </trkpt>
      <trkpt lat="49.36464" lon="1.18942">
        <ele>180.5</ele>
        <time>2012-05-06T08:14:15.091Z</time>
      </trkpt>
      <trkpt lat="49.36464" lon="1.18949">
        <ele>180.5</ele>
        <time>2012-05-06T08:14:16.094Z</time>
      </trkpt>
      <trkpt lat="49.36465" lon="1.18956">
        <ele>180.5</ele>
        <time>2012-05-06T08:14:17.107Z</time>
      </trkpt>
      <trkpt lat="49.36466" lon="1.18963">
        <ele>180.8</ele>
        <time>2012-05-06T08:14:18.098Z</time>
      </trkpt>
      <trkpt lat="49.36463" lon="1.18974">
        <ele>181.3</ele>
        <time>2012-05-06T08:14:20.095Z</time>
      </trkpt>
      <trkpt lat="49.36456" lon="1.18976">
        <ele>181.2</ele>
        <time>2012-05-06T08:14:22.081Z</time>
      </trkpt>
      <trkpt lat="49.36452" lon="1.1897">
        <ele>182</ele>
        <time>2012-05-06T08:14:24.094Z</time>
      </trkpt>
      <trkpt lat="49.36447" lon="1.18963">
        <ele>182.6</ele>
        <time>2012-05-06T08:14:26.095Z</time>
      </trkpt>
      <trkpt lat="49.3644" lon="1.18958">
        <ele>183</ele>
        <time>2012-05-06T08:14:28.096Z</time>
      </trkpt>
      <trkpt lat="49.36434" lon="1.18953">
        <ele>183.3</ele>
        <time>2012-05-06T08:14:30.097Z</time>
      </trkpt>
      <trkpt lat="49.36427" lon="1.1895">
        <ele>184.1</ele>
        <time>2012-05-06T08:14:32.078Z</time>
      </trkpt>
      <trkpt lat="49.36421" lon="1.18947">
        <ele>184.2</ele>
        <time>2012-05-06T08:14:34.092Z</time>
      </trkpt>
      <trkpt lat="49.36415" lon="1.18947">
        <ele>184.5</ele>
        <time>2012-05-06T08:14:36.110Z</time>
      </trkpt>
      <trkpt lat="49.36408" lon="1.18945">
        <ele>184.5</ele>
        <time>2012-05-06T08:14:38.105Z</time>
      </trkpt>
      <trkpt lat="49.36403" lon="1.18945">
        <ele>184.9</ele>
        <time>2012-05-06T08:14:40.083Z</time>
      </trkpt>
      <trkpt lat="49.36396" lon="1.18946">
        <ele>183.8</ele>
        <time>2012-05-06T08:14:42.083Z</time>
      </trkpt>
      <trkpt lat="49.3639" lon="1.18947">
        <ele>183.2</ele>
        <time>2012-05-06T08:14:44.111Z</time>
      </trkpt>
      <trkpt lat="49.36382" lon="1.18948">
        <ele>183.8</ele>
        <time>2012-05-06T08:14:46.089Z</time>
      </trkpt>
      <trkpt lat="49.36374" lon="1.1895">
        <ele>183.9</ele>
        <time>2012-05-06T08:14:48.083Z</time>
      </trkpt>
      <trkpt lat="49.36369" lon="1.18951">
        <ele>183.6</ele>
        <time>2012-05-06T08:14:49.104Z</time>
      </trkpt>
      <trkpt lat="49.3636" lon="1.18952">
        <ele>183.2</ele>
        <time>2012-05-06T08:14:51.083Z</time>
      </trkpt>
      <trkpt lat="49.36356" lon="1.18953">
        <ele>183.1</ele>
        <time>2012-05-06T08:14:52.082Z</time>
      </trkpt>
      <trkpt lat="49.3635" lon="1.18954">
        <ele>183.2</ele>
        <time>2012-05-06T08:14:53.082Z</time>
      </trkpt>
      <trkpt lat="49.36345" lon="1.18956">
        <ele>182.8</ele>
        <time>2012-05-06T08:14:54.082Z</time>
      </trkpt>
      <trkpt lat="49.3634" lon="1.18956">
        <ele>182.5</ele>
        <time>2012-05-06T08:14:55.083Z</time>
      </trkpt>
      <trkpt lat="49.36334" lon="1.18957">
        <ele>181.9</ele>
        <time>2012-05-06T08:14:56.083Z</time>
      </trkpt>
      <trkpt lat="49.36328" lon="1.18959">
        <ele>181.5</ele>
        <time>2012-05-06T08:14:57.089Z</time>
      </trkpt>
      <trkpt lat="49.36322" lon="1.1896">
        <ele>181.7</ele>
        <time>2012-05-06T08:14:58.095Z</time>
      </trkpt>
      <trkpt lat="49.36317" lon="1.18961">
        <ele>181.4</ele>
        <time>2012-05-06T08:14:59.093Z</time>
      </trkpt>
      <trkpt lat="49.36311" lon="1.18963">
        <ele>180.4</ele>
        <time>2012-05-06T08:15:00.094Z</time>
      </trkpt>
      <trkpt lat="49.36305" lon="1.18964">
        <ele>179.6</ele>
        <time>2012-05-06T08:15:01.088Z</time>
      </trkpt>
      <trkpt lat="49.36299" lon="1.18966">
        <ele>179.3</ele>
        <time>2012-05-06T08:15:02.094Z</time>
      </trkpt>
      <trkpt lat="49.36294" lon="1.18966">
        <ele>178.7</ele>
        <time>2012-05-06T08:15:03.088Z</time>
      </trkpt>
      <trkpt lat="49.36288" lon="1.18966">
        <ele>178.4</ele>
        <time>2012-05-06T08:15:04.085Z</time>
      </trkpt>
      <trkpt lat="49.36283" lon="1.18964">
        <ele>178.4</ele>
        <time>2012-05-06T08:15:05.087Z</time>
      </trkpt>
      <trkpt lat="49.36277" lon="1.18962">
        <ele>178.5</ele>
        <time>2012-05-06T08:15:06.087Z</time>
      </trkpt>
      <trkpt lat="49.36272" lon="1.1896">
        <ele>178.3</ele>
        <time>2012-05-06T08:15:07.081Z</time>
      </trkpt>
      <trkpt lat="49.36266" lon="1.18955">
        <ele>177.6</ele>
        <time>2012-05-06T08:15:08.091Z</time>
      </trkpt>
      <trkpt lat="49.3626" lon="1.18949">
        <ele>176.9</ele>
        <time>2012-05-06T08:15:09.082Z</time>
      </trkpt>
      <trkpt lat="49.36254" lon="1.18942">
        <ele>175.7</ele>
        <time>2012-05-06T08:15:10.093Z</time>
      </trkpt>
      <trkpt lat="49.36249" lon="1.18933">
        <ele>175.4</ele>
        <time>2012-05-06T08:15:11.093Z</time>
      </trkpt>
      <trkpt lat="49.36244" lon="1.18924">
        <ele>175.5</ele>
        <time>2012-05-06T08:15:12.090Z</time>
      </trkpt>
      <trkpt lat="49.36241" lon="1.18913">
        <ele>175.6</ele>
        <time>2012-05-06T08:15:13.081Z</time>
      </trkpt>
      <trkpt lat="49.36236" lon="1.18904">
        <ele>175</ele>
        <time>2012-05-06T08:15:14.086Z</time>
      </trkpt>
      <trkpt lat="49.36232" lon="1.18896">
        <ele>173.8</ele>
        <time>2012-05-06T08:15:15.092Z</time>
      </trkpt>
      <trkpt lat="49.36224" lon="1.1889">
        <ele>172.7</ele>
        <time>2012-05-06T08:15:16.090Z</time>
      </trkpt>
      <trkpt lat="49.36216" lon="1.18884">
        <ele>172</ele>
        <time>2012-05-06T08:15:17.082Z</time>
      </trkpt>
      <trkpt lat="49.36207" lon="1.18882">
        <ele>171.5</ele>
        <time>2012-05-06T08:15:18.082Z</time>
      </trkpt>
      <trkpt lat="49.36198" lon="1.18882">
        <ele>171.3</ele>
        <time>2012-05-06T08:15:19.090Z</time>
      </trkpt>
      <trkpt lat="49.36191" lon="1.18885">
        <ele>171.3</ele>
        <time>2012-05-06T08:15:20.082Z</time>
      </trkpt>
      <trkpt lat="49.36185" lon="1.18891">
        <ele>170.2</ele>
        <time>2012-05-06T08:15:21.087Z</time>
      </trkpt>
      <trkpt lat="49.36181" lon="1.18897">
        <ele>169.7</ele>
        <time>2012-05-06T08:15:22.092Z</time>
      </trkpt>
      <trkpt lat="49.36178" lon="1.18904">
        <ele>168.5</ele>
        <time>2012-05-06T08:15:23.077Z</time>
      </trkpt>
      <trkpt lat="49.36176" lon="1.18911">
        <ele>168</ele>
        <time>2012-05-06T08:15:24.087Z</time>
      </trkpt>
      <trkpt lat="49.36174" lon="1.18918">
        <ele>167.5</ele>
        <time>2012-05-06T08:15:25.086Z</time>
      </trkpt>
      <trkpt lat="49.36171" lon="1.18925">
        <ele>166.9</ele>
        <time>2012-05-06T08:15:26.088Z</time>
      </trkpt>
      <trkpt lat="49.36168" lon="1.18932">
        <ele>167</ele>
        <time>2012-05-06T08:15:27.093Z</time>
      </trkpt>
      <trkpt lat="49.36165" lon="1.1894">
        <ele>167.1</ele>
        <time>2012-05-06T08:15:28.098Z</time>
      </trkpt>
      <trkpt lat="49.36162" lon="1.18947">
        <ele>167.2</ele>
        <time>2012-05-06T08:15:29.094Z</time>
      </trkpt>
      <trkpt lat="49.3616" lon="1.18954">
        <ele>167.3</ele>
        <time>2012-05-06T08:15:30.080Z</time>
      </trkpt>
      <trkpt lat="49.36157" lon="1.18961">
        <ele>167.3</ele>
        <time>2012-05-06T08:15:31.092Z</time>
      </trkpt>
      <trkpt lat="49.36154" lon="1.18968">
        <ele>167</ele>
        <time>2012-05-06T08:15:32.092Z</time>
      </trkpt>
      <trkpt lat="49.36151" lon="1.18973">
        <ele>167.3</ele>
        <time>2012-05-06T08:15:33.101Z</time>
      </trkpt>
      <trkpt lat="49.36148" lon="1.18979">
        <ele>167.1</ele>
        <time>2012-05-06T08:15:34.081Z</time>
      </trkpt>
      <trkpt lat="49.36144" lon="1.18984">
        <ele>167.4</ele>
        <time>2012-05-06T08:15:35.088Z</time>
      </trkpt>
      <trkpt lat="49.36136" lon="1.18991">
        <ele>167.5</ele>
        <time>2012-05-06T08:15:37.103Z</time>
      </trkpt>
      <trkpt lat="49.36132" lon="1.18994">
        <ele>168.2</ele>
        <time>2012-05-06T08:15:38.098Z</time>
      </trkpt>
      <trkpt lat="49.3613" lon="1.19004">
        <ele>168.3</ele>
        <time>2012-05-06T08:15:40.095Z</time>
      </trkpt>
      <trkpt lat="49.36128" lon="1.19019">
        <ele>167.6</ele>
        <time>2012-05-06T08:15:42.090Z</time>
      </trkpt>
      <trkpt lat="49.36128" lon="1.19027">
        <ele>167</ele>
        <time>2012-05-06T08:15:43.093Z</time>
      </trkpt>
      <trkpt lat="49.36127" lon="1.19037">
        <ele>166.5</ele>
        <time>2012-05-06T08:15:44.091Z</time>
      </trkpt>
      <trkpt lat="49.36126" lon="1.19046">
        <ele>166.5</ele>
        <time>2012-05-06T08:15:45.083Z</time>
      </trkpt>
      <trkpt lat="49.36125" lon="1.19056">
        <ele>166.3</ele>
        <time>2012-05-06T08:15:46.088Z</time>
      </trkpt>
      <trkpt lat="49.36124" lon="1.19066">
        <ele>165.6</ele>
        <time>2012-05-06T08:15:47.092Z</time>
      </trkpt>
      <trkpt lat="49.36122" lon="1.19075">
        <ele>164.4</ele>
        <time>2012-05-06T08:15:48.097Z</time>
      </trkpt>
      <trkpt lat="49.36121" lon="1.19085">
        <ele>163.6</ele>
        <time>2012-05-06T08:15:49.095Z</time>
      </trkpt>
      <trkpt lat="49.3612" lon="1.19096">
        <ele>162.6</ele>
        <time>2012-05-06T08:15:50.098Z</time>
      </trkpt>
      <trkpt lat="49.36119" lon="1.19106">
        <ele>162.1</ele>
        <time>2012-05-06T08:15:51.086Z</time>
      </trkpt>
      <trkpt lat="49.36117" lon="1.19118">
        <ele>161.5</ele>
        <time>2012-05-06T08:15:52.088Z</time>
      </trkpt>
      <trkpt lat="49.36116" lon="1.1913">
        <ele>161.9</ele>
        <time>2012-05-06T08:15:53.105Z</time>
      </trkpt>
      <trkpt lat="49.36114" lon="1.19144">
        <ele>161.4</ele>
        <time>2012-05-06T08:15:54.103Z</time>
      </trkpt>
      <trkpt lat="49.36114" lon="1.19157">
        <ele>161.9</ele>
        <time>2012-05-06T08:15:55.085Z</time>
      </trkpt>
      <trkpt lat="49.36114" lon="1.19168">
        <ele>162.3</ele>
        <time>2012-05-06T08:15:56.093Z</time>
      </trkpt>
      <trkpt lat="49.36113" lon="1.19178">
        <ele>161.6</ele>
        <time>2012-05-06T08:15:57.087Z</time>
      </trkpt>
      <trkpt lat="49.36111" lon="1.19187">
        <ele>161</ele>
        <time>2012-05-06T08:15:58.079Z</time>
      </trkpt>
      <trkpt lat="49.36108" lon="1.19198">
        <ele>160.7</ele>
        <time>2012-05-06T08:15:59.092Z</time>
      </trkpt>
      <trkpt lat="49.36107" lon="1.19211">
        <ele>159.9</ele>
        <time>2012-05-06T08:16:00.095Z</time>
      </trkpt>
      <trkpt lat="49.36104" lon="1.19222">
        <ele>158.8</ele>
        <time>2012-05-06T08:16:01.088Z</time>
      </trkpt>
      <trkpt lat="49.36103" lon="1.19234">
        <ele>157.6</ele>
        <time>2012-05-06T08:16:02.085Z</time>
      </trkpt>
      <trkpt lat="49.36101" lon="1.19249">
        <ele>157.1</ele>
        <time>2012-05-06T08:16:03.193Z</time>
      </trkpt>
      <trkpt lat="49.36099" lon="1.19262">
        <ele>157.1</ele>
        <time>2012-05-06T08:16:04.193Z</time>
      </trkpt>
      <trkpt lat="49.36098" lon="1.19275">
        <ele>156.9</ele>
        <time>2012-05-06T08:16:05.193Z</time>
      </trkpt>
      <trkpt lat="49.36096" lon="1.19287">
        <ele>156.7</ele>
        <time>2012-05-06T08:16:06.193Z</time>
      </trkpt>
      <trkpt lat="49.36094" lon="1.19298">
        <ele>156.2</ele>
        <time>2012-05-06T08:16:07.193Z</time>
      </trkpt>
      <trkpt lat="49.36092" lon="1.19308">
        <ele>154.5</ele>
        <time>2012-05-06T08:16:08.193Z</time>
      </trkpt>
      <trkpt lat="49.36091" lon="1.19319">
        <ele>153</ele>
        <time>2012-05-06T08:16:09.193Z</time>
      </trkpt>
      <trkpt lat="49.36088" lon="1.1933">
        <ele>152.8</ele>
        <time>2012-05-06T08:16:10.193Z</time>
      </trkpt>
      <trkpt lat="49.36086" lon="1.19341">
        <ele>152.1</ele>
        <time>2012-05-06T08:16:11.105Z</time>
      </trkpt>
      <trkpt lat="49.36084" lon="1.19353">
        <ele>152.7</ele>
        <time>2012-05-06T08:16:12.080Z</time>
      </trkpt>
      <trkpt lat="49.36082" lon="1.19363">
        <ele>152.4</ele>
        <time>2012-05-06T08:16:13.087Z</time>
      </trkpt>
      <trkpt lat="49.3608" lon="1.19371">
        <ele>152.4</ele>
        <time>2012-05-06T08:16:14.096Z</time>
      </trkpt>
      <trkpt lat="49.36076" lon="1.19379">
        <ele>152.3</ele>
        <time>2012-05-06T08:16:15.102Z</time>
      </trkpt>
      <trkpt lat="49.36072" lon="1.19386">
        <ele>152.6</ele>
        <time>2012-05-06T08:16:16.097Z</time>
      </trkpt>
      <trkpt lat="49.36071" lon="1.19396">
        <ele>152</ele>
        <time>2012-05-06T08:16:17.101Z</time>
      </trkpt>
      <trkpt lat="49.3607" lon="1.19404">
        <ele>151.1</ele>
        <time>2012-05-06T08:16:18.079Z</time>
      </trkpt>
      <trkpt lat="49.36067" lon="1.19413">
        <ele>150.1</ele>
        <time>2012-05-06T08:16:19.079Z</time>
      </trkpt>
      <trkpt lat="49.36064" lon="1.19422">
        <ele>149.3</ele>
        <time>2012-05-06T08:16:20.079Z</time>
      </trkpt>
      <trkpt lat="49.36062" lon="1.19431">
        <ele>149.1</ele>
        <time>2012-05-06T08:16:21.079Z</time>
      </trkpt>
      <trkpt lat="49.3606" lon="1.19442">
        <ele>148.5</ele>
        <time>2012-05-06T08:16:22.089Z</time>
      </trkpt>
      <trkpt lat="49.36058" lon="1.1945">
        <ele>147.2</ele>
        <time>2012-05-06T08:16:23.093Z</time>
      </trkpt>
      <trkpt lat="49.36056" lon="1.19459">
        <ele>146.2</ele>
        <time>2012-05-06T08:16:24.128Z</time>
      </trkpt>
      <trkpt lat="49.36054" lon="1.19468">
        <ele>145.5</ele>
        <time>2012-05-06T08:16:25.086Z</time>
      </trkpt>
      <trkpt lat="49.36051" lon="1.19478">
        <ele>145.4</ele>
        <time>2012-05-06T08:16:26.077Z</time>
      </trkpt>
      <trkpt lat="49.36049" lon="1.19486">
        <ele>145</ele>
        <time>2012-05-06T08:16:27.094Z</time>
      </trkpt>
      <trkpt lat="49.36047" lon="1.19496">
        <ele>144.7</ele>
        <time>2012-05-06T08:16:28.076Z</time>
      </trkpt>
      <trkpt lat="49.36046" lon="1.19505">
        <ele>144.5</ele>
        <time>2012-05-06T08:16:29.093Z</time>
      </trkpt>
      <trkpt lat="49.36044" lon="1.19514">
        <ele>145.1</ele>
        <time>2012-05-06T08:16:30.092Z</time>
      </trkpt>
      <trkpt lat="49.3604" lon="1.19524">
        <ele>145.7</ele>
        <time>2012-05-06T08:16:31.091Z</time>
      </trkpt>
      <trkpt lat="49.36037" lon="1.19534">
        <ele>145.6</ele>
        <time>2012-05-06T08:16:32.102Z</time>
      </trkpt>
      <trkpt lat="49.36035" lon="1.19544">
        <ele>145.2</ele>
        <time>2012-05-06T08:16:33.092Z</time>
      </trkpt>
      <trkpt lat="49.36032" lon="1.19553">
        <ele>144.7</ele>
        <time>2012-05-06T08:16:34.077Z</time>
      </trkpt>
      <trkpt lat="49.3603" lon="1.19564">
        <ele>144.2</ele>
        <time>2012-05-06T08:16:35.091Z</time>
      </trkpt>
      <trkpt lat="49.36029" lon="1.19575">
        <ele>144.2</ele>
        <time>2012-05-06T08:16:36.090Z</time>
      </trkpt>
      <trkpt lat="49.36027" lon="1.19586">
        <ele>143.7</ele>
        <time>2012-05-06T08:16:37.095Z</time>
      </trkpt>
      <trkpt lat="49.36025" lon="1.19596">
        <ele>143.6</ele>
        <time>2012-05-06T08:16:38.100Z</time>
      </trkpt>
      <trkpt lat="49.36022" lon="1.19606">
        <ele>143</ele>
        <time>2012-05-06T08:16:39.079Z</time>
      </trkpt>
      <trkpt lat="49.36021" lon="1.19616">
        <ele>140.9</ele>
        <time>2012-05-06T08:16:40.076Z</time>
      </trkpt>
      <trkpt lat="49.3602" lon="1.19627">
        <ele>141</ele>
        <time>2012-05-06T08:16:41.090Z</time>
      </trkpt>
      <trkpt lat="49.36019" lon="1.19638">
        <ele>140.4</ele>
        <time>2012-05-06T08:16:42.078Z</time>
      </trkpt>
      <trkpt lat="49.36016" lon="1.19648">
        <ele>140.2</ele>
        <time>2012-05-06T08:16:43.084Z</time>
      </trkpt>
      <trkpt lat="49.36014" lon="1.19658">
        <ele>140.3</ele>
        <time>2012-05-06T08:16:44.080Z</time>
      </trkpt>
      <trkpt lat="49.36011" lon="1.19668">
        <ele>139.5</ele>
        <time>2012-05-06T08:16:45.092Z</time>
      </trkpt>
      <trkpt lat="49.36007" lon="1.19677">
        <ele>139.3</ele>
        <time>2012-05-06T08:16:46.087Z</time>
      </trkpt>
      <trkpt lat="49.36004" lon="1.19686">
        <ele>138.3</ele>
        <time>2012-05-06T08:16:47.092Z</time>
      </trkpt>
      <trkpt lat="49.36002" lon="1.19696">
        <ele>137.2</ele>
        <time>2012-05-06T08:16:48.078Z</time>
      </trkpt>
      <trkpt lat="49.36001" lon="1.19704">
        <ele>136.8</ele>
        <time>2012-05-06T08:16:49.095Z</time>
      </trkpt>
      <trkpt lat="49.36" lon="1.19713">
        <ele>136.2</ele>
        <time>2012-05-06T08:16:50.087Z</time>
      </trkpt>
      <trkpt lat="49.35997" lon="1.19722">
        <ele>135.7</ele>
        <time>2012-05-06T08:16:51.074Z</time>
      </trkpt>
      <trkpt lat="49.35995" lon="1.19732">
        <ele>135.9</ele>
        <time>2012-05-06T08:16:52.085Z</time>
      </trkpt>
      <trkpt lat="49.35994" lon="1.1974">
        <ele>135.7</ele>
        <time>2012-05-06T08:16:53.094Z</time>
      </trkpt>
      <trkpt lat="49.35993" lon="1.19748">
        <ele>135.4</ele>
        <time>2012-05-06T08:16:54.078Z</time>
      </trkpt>
      <trkpt lat="49.35991" lon="1.19758">
        <ele>135.4</ele>
        <time>2012-05-06T08:16:56.090Z</time>
      </trkpt>
      <trkpt lat="49.35987" lon="1.19763">
        <ele>138.2</ele>
        <time>2012-05-06T08:17:01.085Z</time>
      </trkpt>
      <trkpt lat="49.35982" lon="1.19762">
        <ele>140.2</ele>
        <time>2012-05-06T08:17:06.086Z</time>
      </trkpt>
      <trkpt lat="49.35977" lon="1.19761">
        <ele>138.4</ele>
        <time>2012-05-06T08:17:12.090Z</time>
      </trkpt>
      <trkpt lat="49.35972" lon="1.1976">
        <ele>142.8</ele>
        <time>2012-05-06T08:17:22.091Z</time>
      </trkpt>
      <trkpt lat="49.35968" lon="1.19758">
        <ele>149.1</ele>
        <time>2012-05-06T08:17:28.093Z</time>
      </trkpt>
      <trkpt lat="49.35963" lon="1.19758">
        <ele>152.5</ele>
        <time>2012-05-06T08:17:33.092Z</time>
      </trkpt>
      <trkpt lat="49.35958" lon="1.19755">
        <ele>159.4</ele>
        <time>2012-05-06T08:17:43.094Z</time>
      </trkpt>
      <trkpt lat="49.35952" lon="1.19755">
        <ele>161.3</ele>
        <time>2012-05-06T08:17:56.093Z</time>
      </trkpt>
      <trkpt lat="49.35948" lon="1.19752">
        <ele>163.1</ele>
        <time>2012-05-06T08:18:07.075Z</time>
      </trkpt>
      <trkpt lat="49.35944" lon="1.19757">
        <ele>170.3</ele>
        <time>2012-05-06T08:18:17.093Z</time>
      </trkpt>
      <trkpt lat="49.35939" lon="1.19754">
        <ele>172.6</ele>
        <time>2012-05-06T08:18:24.097Z</time>
      </trkpt>
      <trkpt lat="49.35935" lon="1.19753">
        <ele>174</ele>
        <time>2012-05-06T08:18:28.093Z</time>
      </trkpt>
      <trkpt lat="49.3593" lon="1.19752">
        <ele>174.9</ele>
        <time>2012-05-06T08:18:34.105Z</time>
      </trkpt>
      <trkpt lat="49.35924" lon="1.19749">
        <ele>174.2</ele>
        <time>2012-05-06T08:18:40.085Z</time>
      </trkpt>
      <trkpt lat="49.35921" lon="1.19744">
        <ele>176.8</ele>
        <time>2012-05-06T08:18:53.087Z</time>
      </trkpt>
      <trkpt lat="49.35916" lon="1.1974">
        <ele>177.1</ele>
        <time>2012-05-06T08:18:57.089Z</time>
      </trkpt>
      <trkpt lat="49.3591" lon="1.1974">
        <ele>177.1</ele>
        <time>2012-05-06T08:19:02.087Z</time>
      </trkpt>
      <trkpt lat="49.35905" lon="1.1974">
        <ele>174.2</ele>
        <time>2012-05-06T08:19:12.089Z</time>
      </trkpt>
      <trkpt lat="49.359" lon="1.1974">
        <ele>173.1</ele>
        <time>2012-05-06T08:19:17.087Z</time>
      </trkpt>
      <trkpt lat="49.35893" lon="1.19739">
        <ele>173.7</ele>
        <time>2012-05-06T08:19:19.096Z</time>
      </trkpt>
      <trkpt lat="49.35888" lon="1.19739">
        <ele>173.2</ele>
        <time>2012-05-06T08:19:21.097Z</time>
      </trkpt>
      <trkpt lat="49.35882" lon="1.1974">
        <ele>173.5</ele>
        <time>2012-05-06T08:19:24.081Z</time>
      </trkpt>
      <trkpt lat="49.35877" lon="1.19743">
        <ele>172.3</ele>
        <time>2012-05-06T08:19:26.097Z</time>
      </trkpt>
      <trkpt lat="49.35875" lon="1.19751">
        <ele>170.5</ele>
        <time>2012-05-06T08:19:28.079Z</time>
      </trkpt>
      <trkpt lat="49.35873" lon="1.19761">
        <ele>168.6</ele>
        <time>2012-05-06T08:19:30.096Z</time>
      </trkpt>
      <trkpt lat="49.35872" lon="1.19772">
        <ele>167.3</ele>
        <time>2012-05-06T08:19:32.097Z</time>
      </trkpt>
      <trkpt lat="49.35872" lon="1.19784">
        <ele>166.8</ele>
        <time>2012-05-06T08:19:34.210Z</time>
      </trkpt>
      <trkpt lat="49.35871" lon="1.19791">
        <ele>166.3</ele>
        <time>2012-05-06T08:19:35.210Z</time>
      </trkpt>
      <trkpt lat="49.35873" lon="1.19802">
        <ele>166.3</ele>
        <time>2012-05-06T08:19:37.210Z</time>
      </trkpt>
      <trkpt lat="49.35876" lon="1.19814">
        <ele>166</ele>
        <time>2012-05-06T08:19:39.210Z</time>
      </trkpt>
      <trkpt lat="49.35878" lon="1.19821">
        <ele>166.1</ele>
        <time>2012-05-06T08:19:40.210Z</time>
      </trkpt>
      <trkpt lat="49.35882" lon="1.19828">
        <ele>166</ele>
        <time>2012-05-06T08:19:41.210Z</time>
      </trkpt>
      <trkpt lat="49.35884" lon="1.19837">
        <ele>165.9</ele>
        <time>2012-05-06T08:19:42.210Z</time>
      </trkpt>
      <trkpt lat="49.35888" lon="1.19845">
        <ele>165.8</ele>
        <time>2012-05-06T08:19:43.210Z</time>
      </trkpt>
      <trkpt lat="49.35888" lon="1.19854">
        <ele>164.9</ele>
        <time>2012-05-06T08:19:44.210Z</time>
      </trkpt>
      <trkpt lat="49.3589" lon="1.19861">
        <ele>164</ele>
        <time>2012-05-06T08:19:45.210Z</time>
      </trkpt>
      <trkpt lat="49.35893" lon="1.19868">
        <ele>164</ele>
        <time>2012-05-06T08:19:46.210Z</time>
      </trkpt>
      <trkpt lat="49.35896" lon="1.19875">
        <ele>163.8</ele>
        <time>2012-05-06T08:19:47.082Z</time>
      </trkpt>
      <trkpt lat="49.359" lon="1.19884">
        <ele>164.4</ele>
        <time>2012-05-06T08:19:48.082Z</time>
      </trkpt>
      <trkpt lat="49.35904" lon="1.19897">
        <ele>163.6</ele>
        <time>2012-05-06T08:19:50.086Z</time>
      </trkpt>
      <trkpt lat="49.35904" lon="1.19906">
        <ele>163.8</ele>
        <time>2012-05-06T08:19:53.099Z</time>
      </trkpt>
      <trkpt lat="49.35913" lon="1.19909">
        <ele>161.1</ele>
        <time>2012-05-06T08:19:55.097Z</time>
      </trkpt>
      <trkpt lat="49.35917" lon="1.19913">
        <ele>159.9</ele>
        <time>2012-05-06T08:19:56.093Z</time>
      </trkpt>
      <trkpt lat="49.35921" lon="1.19917">
        <ele>159</ele>
        <time>2012-05-06T08:19:57.074Z</time>
      </trkpt>
      <trkpt lat="49.35923" lon="1.19925">
        <ele>156.3</ele>
        <time>2012-05-06T08:19:58.097Z</time>
      </trkpt>
      <trkpt lat="49.35928" lon="1.19934">
        <ele>155.6</ele>
        <time>2012-05-06T08:20:00.097Z</time>
      </trkpt>
      <trkpt lat="49.35934" lon="1.19943">
        <ele>155.5</ele>
        <time>2012-05-06T08:20:02.095Z</time>
      </trkpt>
      <trkpt lat="49.35941" lon="1.1995">
        <ele>155.3</ele>
        <time>2012-05-06T08:20:04.077Z</time>
      </trkpt>
      <trkpt lat="49.35944" lon="1.19957">
        <ele>154.2</ele>
        <time>2012-05-06T08:20:06.089Z</time>
      </trkpt>
      <trkpt lat="49.35949" lon="1.19967">
        <ele>154.5</ele>
        <time>2012-05-06T08:20:08.090Z</time>
      </trkpt>
      <trkpt lat="49.35953" lon="1.19972">
        <ele>153.9</ele>
        <time>2012-05-06T08:20:10.087Z</time>
      </trkpt>
      <trkpt lat="49.35962" lon="1.19984">
        <ele>152.6</ele>
        <time>2012-05-06T08:20:12.097Z</time>
      </trkpt>
      <trkpt lat="49.35966" lon="1.1999">
        <ele>152.9</ele>
        <time>2012-05-06T08:20:13.099Z</time>
      </trkpt>
      <trkpt lat="49.35971" lon="1.19998">
        <ele>154.4</ele>
        <time>2012-05-06T08:20:16.090Z</time>
      </trkpt>
      <trkpt lat="49.35975" lon="1.20004">
        <ele>154.3</ele>
        <time>2012-05-06T08:20:18.085Z</time>
      </trkpt>
      <trkpt lat="49.35972" lon="1.20011">
        <ele>148.4</ele>
        <time>2012-05-06T08:20:21.086Z</time>
      </trkpt>
      <trkpt lat="49.35966" lon="1.20014">
        <ele>143.1</ele>
        <time>2012-05-06T08:20:39.091Z</time>
      </trkpt>
      <trkpt lat="49.35962" lon="1.20019">
        <ele>139.9</ele>
        <time>2012-05-06T08:20:42.095Z</time>
      </trkpt>
      <trkpt lat="49.35957" lon="1.20022">
        <ele>139.6</ele>
        <time>2012-05-06T08:20:44.084Z</time>
      </trkpt>
      <trkpt lat="49.35952" lon="1.20024">
        <ele>139</ele>
        <time>2012-05-06T08:20:45.090Z</time>
      </trkpt>
      <trkpt lat="49.35945" lon="1.20026">
        <ele>137.7</ele>
        <time>2012-05-06T08:20:47.095Z</time>
      </trkpt>
      <trkpt lat="49.3594" lon="1.20026">
        <ele>140.4</ele>
        <time>2012-05-06T08:20:50.087Z</time>
      </trkpt>
      <trkpt lat="49.35933" lon="1.20027">
        <ele>141</ele>
        <time>2012-05-06T08:20:52.097Z</time>
      </trkpt>
      <trkpt lat="49.35928" lon="1.20028">
        <ele>141.2</ele>
        <time>2012-05-06T08:20:53.087Z</time>
      </trkpt>
      <trkpt lat="49.35921" lon="1.20029">
        <ele>139.8</ele>
        <time>2012-05-06T08:20:55.091Z</time>
      </trkpt>
      <trkpt lat="49.35917" lon="1.20032">
        <ele>139.7</ele>
        <time>2012-05-06T08:20:56.077Z</time>
      </trkpt>
      <trkpt lat="49.35912" lon="1.20034">
        <ele>139.6</ele>
        <time>2012-05-06T08:20:57.096Z</time>
      </trkpt>
      <trkpt lat="49.35907" lon="1.20043">
        <ele>139.7</ele>
        <time>2012-05-06T08:20:59.086Z</time>
      </trkpt>
      <trkpt lat="49.3591" lon="1.20051">
        <ele>137.8</ele>
        <time>2012-05-06T08:21:01.093Z</time>
      </trkpt>
      <trkpt lat="49.35911" lon="1.20061">
        <ele>135</ele>
        <time>2012-05-06T08:21:03.088Z</time>
      </trkpt>
      <trkpt lat="49.35912" lon="1.20068">
        <ele>135</ele>
        <time>2012-05-06T08:21:05.094Z</time>
      </trkpt>
      <trkpt lat="49.35912" lon="1.20075">
        <ele>133.3</ele>
        <time>2012-05-06T08:21:08.081Z</time>
      </trkpt>
      <trkpt lat="49.35904" lon="1.20084">
        <ele>130.8</ele>
        <time>2012-05-06T08:21:11.095Z</time>
      </trkpt>
      <trkpt lat="49.35899" lon="1.2009">
        <ele>131.2</ele>
        <time>2012-05-06T08:21:13.091Z</time>
      </trkpt>
      <trkpt lat="49.35896" lon="1.20096">
        <ele>128.7</ele>
        <time>2012-05-06T08:21:15.092Z</time>
      </trkpt>
      <trkpt lat="49.35897" lon="1.20104">
        <ele>125.6</ele>
        <time>2012-05-06T08:21:18.094Z</time>
      </trkpt>
      <trkpt lat="49.35893" lon="1.20112">
        <ele>122.4</ele>
        <time>2012-05-06T08:21:21.077Z</time>
      </trkpt>
      <trkpt lat="49.35889" lon="1.20117">
        <ele>118.2</ele>
        <time>2012-05-06T08:21:24.076Z</time>
      </trkpt>
      <trkpt lat="49.35888" lon="1.20126">
        <ele>115.1</ele>
        <time>2012-05-06T08:21:26.095Z</time>
      </trkpt>
      <trkpt lat="49.35889" lon="1.20134">
        <ele>115.8</ele>
        <time>2012-05-06T08:21:28.095Z</time>
      </trkpt>
      <trkpt lat="49.35888" lon="1.20142">
        <ele>114.9</ele>
        <time>2012-05-06T08:21:30.077Z</time>
      </trkpt>
      <trkpt lat="49.3589" lon="1.20148">
        <ele>115.2</ele>
        <time>2012-05-06T08:21:32.087Z</time>
      </trkpt>
      <trkpt lat="49.35892" lon="1.20155">
        <ele>115.2</ele>
        <time>2012-05-06T08:21:34.092Z</time>
      </trkpt>
      <trkpt lat="49.35893" lon="1.20163">
        <ele>114.6</ele>
        <time>2012-05-06T08:21:36.095Z</time>
      </trkpt>
      <trkpt lat="49.35893" lon="1.2017">
        <ele>115</ele>
        <time>2012-05-06T08:21:38.079Z</time>
      </trkpt>
      <trkpt lat="49.35896" lon="1.20179">
        <ele>113.9</ele>
        <time>2012-05-06T08:21:39.092Z</time>
      </trkpt>
      <trkpt lat="49.35897" lon="1.20185">
        <ele>113</ele>
        <time>2012-05-06T08:21:40.094Z</time>
      </trkpt>
      <trkpt lat="49.35897" lon="1.20192">
        <ele>113</ele>
        <time>2012-05-06T08:21:42.078Z</time>
      </trkpt>
      <trkpt lat="49.35901" lon="1.20195">
        <ele>114.5</ele>
        <time>2012-05-06T08:21:48.076Z</time>
      </trkpt>
      <trkpt lat="49.35908" lon="1.20199">
        <ele>115.3</ele>
        <time>2012-05-06T08:21:51.088Z</time>
      </trkpt>
      <trkpt lat="49.35912" lon="1.20202">
        <ele>116</ele>
        <time>2012-05-06T08:21:53.076Z</time>
      </trkpt>
      <trkpt lat="49.3592" lon="1.20207">
        <ele>117.3</ele>
        <time>2012-05-06T08:21:56.093Z</time>
      </trkpt>
      <trkpt lat="49.35925" lon="1.20211">
        <ele>117.3</ele>
        <time>2012-05-06T08:21:58.079Z</time>
      </trkpt>
      <trkpt lat="49.35932" lon="1.2021">
        <ele>116.9</ele>
        <time>2012-05-06T08:22:00.077Z</time>
      </trkpt>
      <trkpt lat="49.35938" lon="1.20208">
        <ele>119.1</ele>
        <time>2012-05-06T08:22:03.082Z</time>
      </trkpt>
      <trkpt lat="49.35943" lon="1.20211">
        <ele>119.9</ele>
        <time>2012-05-06T08:22:05.079Z</time>
      </trkpt>
      <trkpt lat="49.35949" lon="1.2021">
        <ele>120.6</ele>
        <time>2012-05-06T08:22:07.079Z</time>
      </trkpt>
      <trkpt lat="49.35954" lon="1.20211">
        <ele>127.8</ele>
        <time>2012-05-06T08:22:11.081Z</time>
      </trkpt>
      <trkpt lat="49.35959" lon="1.20216">
        <ele>124.9</ele>
        <time>2012-05-06T08:22:13.087Z</time>
      </trkpt>
      <trkpt lat="49.35965" lon="1.20218">
        <ele>124.7</ele>
        <time>2012-05-06T08:22:17.093Z</time>
      </trkpt>
      <trkpt lat="49.3597" lon="1.20215">
        <ele>121.3</ele>
        <time>2012-05-06T08:22:19.084Z</time>
      </trkpt>
      <trkpt lat="49.35977" lon="1.20218">
        <ele>118.6</ele>
        <time>2012-05-06T08:22:21.092Z</time>
      </trkpt>
      <trkpt lat="49.35984" lon="1.20222">
        <ele>115.6</ele>
        <time>2012-05-06T08:22:23.076Z</time>
      </trkpt>
      <trkpt lat="49.3599" lon="1.20223">
        <ele>114.3</ele>
        <time>2012-05-06T08:22:26.092Z</time>
      </trkpt>
      <trkpt lat="49.35999" lon="1.20226">
        <ele>112</ele>
        <time>2012-05-06T08:22:28.089Z</time>
      </trkpt>
      <trkpt lat="49.36007" lon="1.20228">
        <ele>112.3</ele>
        <time>2012-05-06T08:22:31.075Z</time>
      </trkpt>
      <trkpt lat="49.36013" lon="1.20229">
        <ele>113.6</ele>
        <time>2012-05-06T08:22:33.091Z</time>
      </trkpt>
      <trkpt lat="49.3602" lon="1.20235">
        <ele>112.9</ele>
        <time>2012-05-06T08:22:35.093Z</time>
      </trkpt>
      <trkpt lat="49.36027" lon="1.2024">
        <ele>111.3</ele>
        <time>2012-05-06T08:22:37.080Z</time>
      </trkpt>
      <trkpt lat="49.36032" lon="1.20243">
        <ele>110.3</ele>
        <time>2012-05-06T08:22:39.087Z</time>
      </trkpt>
      <trkpt lat="49.36038" lon="1.20248">
        <ele>110.7</ele>
        <time>2012-05-06T08:22:41.084Z</time>
      </trkpt>
      <trkpt lat="49.36043" lon="1.20253">
        <ele>110.7</ele>
        <time>2012-05-06T08:22:44.087Z</time>
      </trkpt>
      <trkpt lat="49.36047" lon="1.20257">
        <ele>111.1</ele>
        <time>2012-05-06T08:22:46.095Z</time>
      </trkpt>
      <trkpt lat="49.36051" lon="1.2026">
        <ele>110.9</ele>
        <time>2012-05-06T08:22:48.087Z</time>
      </trkpt>
      <trkpt lat="49.36056" lon="1.20267">
        <ele>110.6</ele>
        <time>2012-05-06T08:22:50.077Z</time>
      </trkpt>
      <trkpt lat="49.36062" lon="1.20271">
        <ele>110</ele>
        <time>2012-05-06T08:22:52.095Z</time>
      </trkpt>
      <trkpt lat="49.36067" lon="1.20275">
        <ele>108.8</ele>
        <time>2012-05-06T08:22:53.094Z</time>
      </trkpt>
      <trkpt lat="49.36075" lon="1.20284">
        <ele>108.5</ele>
        <time>2012-05-06T08:22:55.093Z</time>
      </trkpt>
      <trkpt lat="49.3608" lon="1.20287">
        <ele>109.6</ele>
        <time>2012-05-06T08:22:56.095Z</time>
      </trkpt>
      <trkpt lat="49.36085" lon="1.20292">
        <ele>109.4</ele>
        <time>2012-05-06T08:22:58.093Z</time>
      </trkpt>
      <trkpt lat="49.3609" lon="1.20294">
        <ele>110.4</ele>
        <time>2012-05-06T08:23:00.097Z</time>
      </trkpt>
      <trkpt lat="49.36089" lon="1.20301">
        <ele>109.9</ele>
        <time>2012-05-06T08:23:02.093Z</time>
      </trkpt>
      <trkpt lat="49.36093" lon="1.2031">
        <ele>109.9</ele>
        <time>2012-05-06T08:23:04.091Z</time>
      </trkpt>
      <trkpt lat="49.361" lon="1.20316">
        <ele>110</ele>
        <time>2012-05-06T08:23:06.088Z</time>
      </trkpt>
      <trkpt lat="49.36106" lon="1.20322">
        <ele>111.3</ele>
        <time>2012-05-06T08:23:08.084Z</time>
      </trkpt>
      <trkpt lat="49.3611" lon="1.20325">
        <ele>110.9</ele>
        <time>2012-05-06T08:23:09.087Z</time>
      </trkpt>
      <trkpt lat="49.36118" lon="1.20329">
        <ele>112.1</ele>
        <time>2012-05-06T08:23:11.087Z</time>
      </trkpt>
      <trkpt lat="49.36122" lon="1.20335">
        <ele>111.3</ele>
        <time>2012-05-06T08:23:13.091Z</time>
      </trkpt>
      <trkpt lat="49.36128" lon="1.2034">
        <ele>110</ele>
        <time>2012-05-06T08:23:15.083Z</time>
      </trkpt>
      <trkpt lat="49.36132" lon="1.20347">
        <ele>109.2</ele>
        <time>2012-05-06T08:23:17.092Z</time>
      </trkpt>
      <trkpt lat="49.36137" lon="1.20354">
        <ele>107.8</ele>
        <time>2012-05-06T08:23:19.093Z</time>
      </trkpt>
      <trkpt lat="49.36142" lon="1.20359">
        <ele>107.6</ele>
        <time>2012-05-06T08:23:21.078Z</time>
      </trkpt>
      <trkpt lat="49.36148" lon="1.20365">
        <ele>105.4</ele>
        <time>2012-05-06T08:23:23.076Z</time>
      </trkpt>
      <trkpt lat="49.36156" lon="1.20372">
        <ele>104.4</ele>
        <time>2012-05-06T08:23:25.078Z</time>
      </trkpt>
      <trkpt lat="49.36161" lon="1.20375">
        <ele>104.6</ele>
        <time>2012-05-06T08:23:26.082Z</time>
      </trkpt>
      <trkpt lat="49.36166" lon="1.20377">
        <ele>104.8</ele>
        <time>2012-05-06T08:23:27.089Z</time>
      </trkpt>
      <trkpt lat="49.3617" lon="1.20379">
        <ele>105</ele>
        <time>2012-05-06T08:23:28.100Z</time>
      </trkpt>
      <trkpt lat="49.36178" lon="1.20383">
        <ele>105.9</ele>
        <time>2012-05-06T08:23:30.091Z</time>
      </trkpt>
      <trkpt lat="49.36186" lon="1.20384">
        <ele>106.1</ele>
        <time>2012-05-06T08:23:32.089Z</time>
      </trkpt>
      <trkpt lat="49.36194" lon="1.20387">
        <ele>105.9</ele>
        <time>2012-05-06T08:23:34.095Z</time>
      </trkpt>
      <trkpt lat="49.36199" lon="1.20389">
        <ele>106.6</ele>
        <time>2012-05-06T08:23:36.089Z</time>
      </trkpt>
      <trkpt lat="49.36208" lon="1.2039">
        <ele>108.3</ele>
        <time>2012-05-06T08:23:38.099Z</time>
      </trkpt>
      <trkpt lat="49.36214" lon="1.20392">
        <ele>112.4</ele>
        <time>2012-05-06T08:23:40.078Z</time>
      </trkpt>
      <trkpt lat="49.36221" lon="1.20394">
        <ele>113.9</ele>
        <time>2012-05-06T08:23:42.088Z</time>
      </trkpt>
      <trkpt lat="49.36228" lon="1.20394">
        <ele>115.8</ele>
        <time>2012-05-06T08:23:44.089Z</time>
      </trkpt>
      <trkpt lat="49.36234" lon="1.20394">
        <ele>116.6</ele>
        <time>2012-05-06T08:23:46.076Z</time>
      </trkpt>
      <trkpt lat="49.36242" lon="1.20395">
        <ele>117</ele>
        <time>2012-05-06T08:23:48.078Z</time>
      </trkpt>
      <trkpt lat="49.36246" lon="1.20399">
        <ele>121.8</ele>
        <time>2012-05-06T08:23:50.082Z</time>
      </trkpt>
      <trkpt lat="49.36252" lon="1.204">
        <ele>123.4</ele>
        <time>2012-05-06T08:23:52.079Z</time>
      </trkpt>
      <trkpt lat="49.36258" lon="1.20399">
        <ele>123.6</ele>
        <time>2012-05-06T08:23:55.076Z</time>
      </trkpt>
      <trkpt lat="49.3626" lon="1.20389">
        <ele>122.5</ele>
        <time>2012-05-06T08:24:35.097Z</time>
      </trkpt>
      <trkpt lat="49.3626" lon="1.2038">
        <ele>124</ele>
        <time>2012-05-06T08:24:38.088Z</time>
      </trkpt>
      <trkpt lat="49.36258" lon="1.2037">
        <ele>123</ele>
        <time>2012-05-06T08:24:41.096Z</time>
      </trkpt>
      <trkpt lat="49.36256" lon="1.20362">
        <ele>122.6</ele>
        <time>2012-05-06T08:24:43.085Z</time>
      </trkpt>
      <trkpt lat="49.36253" lon="1.20356">
        <ele>123.4</ele>
        <time>2012-05-06T08:24:45.094Z</time>
      </trkpt>
      <trkpt lat="49.36251" lon="1.20349">
        <ele>124.2</ele>
        <time>2012-05-06T08:24:47.080Z</time>
      </trkpt>
      <trkpt lat="49.36249" lon="1.2034">
        <ele>124</ele>
        <time>2012-05-06T08:24:49.078Z</time>
      </trkpt>
      <trkpt lat="49.36249" lon="1.20332">
        <ele>124.1</ele>
        <time>2012-05-06T08:24:51.094Z</time>
      </trkpt>
      <trkpt lat="49.3625" lon="1.20323">
        <ele>122.1</ele>
        <time>2012-05-06T08:24:53.077Z</time>
      </trkpt>
      <trkpt lat="49.36251" lon="1.20314">
        <ele>123.5</ele>
        <time>2012-05-06T08:24:55.092Z</time>
      </trkpt>
      <trkpt lat="49.36253" lon="1.20305">
        <ele>125</ele>
        <time>2012-05-06T08:24:57.097Z</time>
      </trkpt>
      <trkpt lat="49.36256" lon="1.20298">
        <ele>125.5</ele>
        <time>2012-05-06T08:24:59.094Z</time>
      </trkpt>
      <trkpt lat="49.3626" lon="1.20289">
        <ele>126.1</ele>
        <time>2012-05-06T08:25:01.097Z</time>
      </trkpt>
      <trkpt lat="49.36262" lon="1.2028">
        <ele>126.6</ele>
        <time>2012-05-06T08:25:04.090Z</time>
      </trkpt>
      <trkpt lat="49.36264" lon="1.20272">
        <ele>127.9</ele>
        <time>2012-05-06T08:25:06.095Z</time>
      </trkpt>
      <trkpt lat="49.36266" lon="1.20264">
        <ele>126.5</ele>
        <time>2012-05-06T08:25:08.094Z</time>
      </trkpt>
      <trkpt lat="49.36268" lon="1.20256">
        <ele>127.4</ele>
        <time>2012-05-06T08:25:10.084Z</time>
      </trkpt>
      <trkpt lat="49.36271" lon="1.20247">
        <ele>127.1</ele>
        <time>2012-05-06T08:25:12.089Z</time>
      </trkpt>
      <trkpt lat="49.36273" lon="1.2024">
        <ele>127.6</ele>
        <time>2012-05-06T08:25:14.079Z</time>
      </trkpt>
      <trkpt lat="49.36276" lon="1.20231">
        <ele>127.7</ele>
        <time>2012-05-06T08:25:16.088Z</time>
      </trkpt>
      <trkpt lat="49.36278" lon="1.20222">
        <ele>127.9</ele>
        <time>2012-05-06T08:25:18.095Z</time>
      </trkpt>
      <trkpt lat="49.36282" lon="1.20214">
        <ele>128.8</ele>
        <time>2012-05-06T08:25:20.078Z</time>
      </trkpt>
      <trkpt lat="49.36285" lon="1.20209">
        <ele>129.6</ele>
        <time>2012-05-06T08:25:22.087Z</time>
      </trkpt>
      <trkpt lat="49.36287" lon="1.20203">
        <ele>130.1</ele>
        <time>2012-05-06T08:25:24.079Z</time>
      </trkpt>
      <trkpt lat="49.36291" lon="1.20194">
        <ele>131</ele>
        <time>2012-05-06T08:25:26.085Z</time>
      </trkpt>
      <trkpt lat="49.36293" lon="1.20185">
        <ele>130.8</ele>
        <time>2012-05-06T08:25:28.095Z</time>
      </trkpt>
      <trkpt lat="49.36298" lon="1.20181">
        <ele>133</ele>
        <time>2012-05-06T08:25:30.088Z</time>
      </trkpt>
      <trkpt lat="49.36302" lon="1.20176">
        <ele>133.3</ele>
        <time>2012-05-06T08:25:32.092Z</time>
      </trkpt>
      <trkpt lat="49.36307" lon="1.20171">
        <ele>136.1</ele>
        <time>2012-05-06T08:25:34.090Z</time>
      </trkpt>
      <trkpt lat="49.36312" lon="1.20167">
        <ele>136.8</ele>
        <time>2012-05-06T08:25:36.094Z</time>
      </trkpt>
      <trkpt lat="49.36316" lon="1.2016">
        <ele>138.6</ele>
        <time>2012-05-06T08:25:38.079Z</time>
      </trkpt>
      <trkpt lat="49.3632" lon="1.20152">
        <ele>141.2</ele>
        <time>2012-05-06T08:25:40.082Z</time>
      </trkpt>
      <trkpt lat="49.36323" lon="1.20143">
        <ele>143.2</ele>
        <time>2012-05-06T08:25:42.093Z</time>
      </trkpt>
      <trkpt lat="49.36327" lon="1.20135">
        <ele>139.8</ele>
        <time>2012-05-06T08:25:44.090Z</time>
      </trkpt>
      <trkpt lat="49.36331" lon="1.20126">
        <ele>136.2</ele>
        <time>2012-05-06T08:25:46.084Z</time>
      </trkpt>
      <trkpt lat="49.36334" lon="1.20116">
        <ele>133</ele>
        <time>2012-05-06T08:25:48.086Z</time>
      </trkpt>
      <trkpt lat="49.36337" lon="1.20105">
        <ele>132</ele>
        <time>2012-05-06T08:25:50.089Z</time>
      </trkpt>
      <trkpt lat="49.3634" lon="1.201">
        <ele>131.1</ele>
        <time>2012-05-06T08:25:51.083Z</time>
      </trkpt>
      <trkpt lat="49.36343" lon="1.20091">
        <ele>130.4</ele>
        <time>2012-05-06T08:25:53.083Z</time>
      </trkpt>
      <trkpt lat="49.36346" lon="1.20082">
        <ele>129.1</ele>
        <time>2012-05-06T08:25:55.082Z</time>
      </trkpt>
      <trkpt lat="49.3635" lon="1.20072">
        <ele>129.1</ele>
        <time>2012-05-06T08:25:57.087Z</time>
      </trkpt>
      <trkpt lat="49.36352" lon="1.20062">
        <ele>128.6</ele>
        <time>2012-05-06T08:25:59.093Z</time>
      </trkpt>
      <trkpt lat="49.36353" lon="1.20055">
        <ele>128.6</ele>
        <time>2012-05-06T08:26:00.094Z</time>
      </trkpt>
      <trkpt lat="49.36355" lon="1.20044">
        <ele>130.6</ele>
        <time>2012-05-06T08:26:02.087Z</time>
      </trkpt>
      <trkpt lat="49.36359" lon="1.20037">
        <ele>130.8</ele>
        <time>2012-05-06T08:26:04.077Z</time>
      </trkpt>
      <trkpt lat="49.36362" lon="1.20027">
        <ele>132</ele>
        <time>2012-05-06T08:26:06.079Z</time>
      </trkpt>
      <trkpt lat="49.36365" lon="1.20017">
        <ele>132.3</ele>
        <time>2012-05-06T08:26:08.095Z</time>
      </trkpt>
      <trkpt lat="49.36368" lon="1.20011">
        <ele>131.9</ele>
        <time>2012-05-06T08:26:10.096Z</time>
      </trkpt>
      <trkpt lat="49.36371" lon="1.20004">
        <ele>132.5</ele>
        <time>2012-05-06T08:26:12.089Z</time>
      </trkpt>
      <trkpt lat="49.36371" lon="1.19997">
        <ele>134.1</ele>
        <time>2012-05-06T08:26:14.096Z</time>
      </trkpt>
      <trkpt lat="49.36373" lon="1.19987">
        <ele>134.5</ele>
        <time>2012-05-06T08:26:16.090Z</time>
      </trkpt>
      <trkpt lat="49.36376" lon="1.19972">
        <ele>135.6</ele>
        <time>2012-05-06T08:26:18.087Z</time>
      </trkpt>
      <trkpt lat="49.3638" lon="1.19963">
        <ele>134.4</ele>
        <time>2012-05-06T08:26:20.080Z</time>
      </trkpt>
      <trkpt lat="49.36382" lon="1.19952">
        <ele>133.3</ele>
        <time>2012-05-06T08:26:22.089Z</time>
      </trkpt>
      <trkpt lat="49.36384" lon="1.19945">
        <ele>133.1</ele>
        <time>2012-05-06T08:26:23.091Z</time>
      </trkpt>
      <trkpt lat="49.36387" lon="1.19933">
        <ele>131.6</ele>
        <time>2012-05-06T08:26:25.094Z</time>
      </trkpt>
      <trkpt lat="49.36391" lon="1.19927">
        <ele>129.4</ele>
        <time>2012-05-06T08:26:27.095Z</time>
      </trkpt>
      <trkpt lat="49.36395" lon="1.19919">
        <ele>128.5</ele>
        <time>2012-05-06T08:26:29.086Z</time>
      </trkpt>
      <trkpt lat="49.36398" lon="1.1991">
        <ele>127.9</ele>
        <time>2012-05-06T08:26:31.081Z</time>
      </trkpt>
      <trkpt lat="49.36402" lon="1.199">
        <ele>128.1</ele>
        <time>2012-05-06T08:26:33.079Z</time>
      </trkpt>
      <trkpt lat="49.36406" lon="1.19891">
        <ele>127.1</ele>
        <time>2012-05-06T08:26:35.079Z</time>
      </trkpt>
      <trkpt lat="49.36412" lon="1.19883">
        <ele>128.1</ele>
        <time>2012-05-06T08:26:37.080Z</time>
      </trkpt>
      <trkpt lat="49.36416" lon="1.19874">
        <ele>127.3</ele>
        <time>2012-05-06T08:26:39.082Z</time>
      </trkpt>
      <trkpt lat="49.36421" lon="1.19866">
        <ele>127.7</ele>
        <time>2012-05-06T08:26:41.092Z</time>
      </trkpt>
      <trkpt lat="49.36425" lon="1.19866">
        <ele>128.7</ele>
        <time>2012-05-06T08:26:42.090Z</time>
      </trkpt>
      <trkpt lat="49.36433" lon="1.19861">
        <ele>130.2</ele>
        <time>2012-05-06T08:26:44.095Z</time>
      </trkpt>
      <trkpt lat="49.36441" lon="1.19858">
        <ele>130.2</ele>
        <time>2012-05-06T08:26:46.086Z</time>
      </trkpt>
      <trkpt lat="49.36448" lon="1.19856">
        <ele>129.8</ele>
        <time>2012-05-06T08:26:48.090Z</time>
      </trkpt>
      <trkpt lat="49.36455" lon="1.19851">
        <ele>130.5</ele>
        <time>2012-05-06T08:26:50.089Z</time>
      </trkpt>
      <trkpt lat="49.36463" lon="1.1985">
        <ele>129.8</ele>
        <time>2012-05-06T08:26:52.090Z</time>
      </trkpt>
      <trkpt lat="49.36468" lon="1.19854">
        <ele>126.8</ele>
        <time>2012-05-06T08:26:53.076Z</time>
      </trkpt>
      <trkpt lat="49.36474" lon="1.19858">
        <ele>126.2</ele>
        <time>2012-05-06T08:26:55.081Z</time>
      </trkpt>
      <trkpt lat="49.3648" lon="1.1986">
        <ele>125.4</ele>
        <time>2012-05-06T08:26:57.090Z</time>
      </trkpt>
      <trkpt lat="49.36487" lon="1.19862">
        <ele>124.2</ele>
        <time>2012-05-06T08:26:59.090Z</time>
      </trkpt>
      <trkpt lat="49.36492" lon="1.19864">
        <ele>123.8</ele>
        <time>2012-05-06T08:27:01.087Z</time>
      </trkpt>
      <trkpt lat="49.36499" lon="1.19869">
        <ele>123</ele>
        <time>2012-05-06T08:27:03.092Z</time>
      </trkpt>
      <trkpt lat="49.36504" lon="1.19867">
        <ele>122.4</ele>
        <time>2012-05-06T08:27:04.087Z</time>
      </trkpt>
      <trkpt lat="49.36511" lon="1.19869">
        <ele>123.4</ele>
        <time>2012-05-06T08:27:06.093Z</time>
      </trkpt>
      <trkpt lat="49.36517" lon="1.19869">
        <ele>123</ele>
        <time>2012-05-06T08:27:08.091Z</time>
      </trkpt>
      <trkpt lat="49.36525" lon="1.19873">
        <ele>122.3</ele>
        <time>2012-05-06T08:27:10.091Z</time>
      </trkpt>
      <trkpt lat="49.36531" lon="1.19874">
        <ele>121.2</ele>
        <time>2012-05-06T08:27:12.088Z</time>
      </trkpt>
      <trkpt lat="49.36537" lon="1.19874">
        <ele>121.5</ele>
        <time>2012-05-06T08:27:14.081Z</time>
      </trkpt>
      <trkpt lat="49.36543" lon="1.19872">
        <ele>121.4</ele>
        <time>2012-05-06T08:27:16.077Z</time>
      </trkpt>
      <trkpt lat="49.36552" lon="1.1987">
        <ele>123.7</ele>
        <time>2012-05-06T08:27:18.090Z</time>
      </trkpt>
      <trkpt lat="49.36559" lon="1.19868">
        <ele>123.5</ele>
        <time>2012-05-06T08:27:20.086Z</time>
      </trkpt>
      <trkpt lat="49.36566" lon="1.19867">
        <ele>123.9</ele>
        <time>2012-05-06T08:27:22.090Z</time>
      </trkpt>
      <trkpt lat="49.36573" lon="1.19862">
        <ele>124.7</ele>
        <time>2012-05-06T08:27:24.095Z</time>
      </trkpt>
      <trkpt lat="49.36579" lon="1.19857">
        <ele>127</ele>
        <time>2012-05-06T08:27:26.080Z</time>
      </trkpt>
      <trkpt lat="49.36586" lon="1.19852">
        <ele>129.5</ele>
        <time>2012-05-06T08:27:28.089Z</time>
      </trkpt>
      <trkpt lat="49.36593" lon="1.19847">
        <ele>128.3</ele>
        <time>2012-05-06T08:27:30.091Z</time>
      </trkpt>
      <trkpt lat="49.36602" lon="1.19847">
        <ele>128.3</ele>
        <time>2012-05-06T08:27:32.090Z</time>
      </trkpt>
      <trkpt lat="49.36605" lon="1.19842">
        <ele>127.9</ele>
        <time>2012-05-06T08:27:34.090Z</time>
      </trkpt>
      <trkpt lat="49.36611" lon="1.19838">
        <ele>128.6</ele>
        <time>2012-05-06T08:27:36.086Z</time>
      </trkpt>
      <trkpt lat="49.36617" lon="1.19835">
        <ele>131.3</ele>
        <time>2012-05-06T08:27:38.080Z</time>
      </trkpt>
      <trkpt lat="49.36622" lon="1.19831">
        <ele>128.8</ele>
        <time>2012-05-06T08:27:40.093Z</time>
      </trkpt>
      <trkpt lat="49.36628" lon="1.19825">
        <ele>130.2</ele>
        <time>2012-05-06T08:27:42.076Z</time>
      </trkpt>
      <trkpt lat="49.36632" lon="1.19819">
        <ele>134.5</ele>
        <time>2012-05-06T08:27:44.082Z</time>
      </trkpt>
      <trkpt lat="49.36639" lon="1.19811">
        <ele>134.1</ele>
        <time>2012-05-06T08:27:46.080Z</time>
      </trkpt>
      <trkpt lat="49.36645" lon="1.19804">
        <ele>133.8</ele>
        <time>2012-05-06T08:27:48.079Z</time>
      </trkpt>
      <trkpt lat="49.36651" lon="1.19796">
        <ele>134.2</ele>
        <time>2012-05-06T08:27:50.078Z</time>
      </trkpt>
      <trkpt lat="49.36657" lon="1.19792">
        <ele>133.1</ele>
        <time>2012-05-06T08:27:52.080Z</time>
      </trkpt>
      <trkpt lat="49.3666" lon="1.19786">
        <ele>133.4</ele>
        <time>2012-05-06T08:27:54.079Z</time>
      </trkpt>
      <trkpt lat="49.36663" lon="1.19777">
        <ele>135</ele>
        <time>2012-05-06T08:27:56.093Z</time>
      </trkpt>
      <trkpt lat="49.36665" lon="1.19768">
        <ele>134.8</ele>
        <time>2012-05-06T08:27:57.090Z</time>
      </trkpt>
      <trkpt lat="49.36668" lon="1.19762">
        <ele>134.9</ele>
        <time>2012-05-06T08:27:58.075Z</time>
      </trkpt>
      <trkpt lat="49.36672" lon="1.19756">
        <ele>136.3</ele>
        <time>2012-05-06T08:28:00.095Z</time>
      </trkpt>
      <trkpt lat="49.36676" lon="1.19746">
        <ele>136.2</ele>
        <time>2012-05-06T08:28:02.096Z</time>
      </trkpt>
      <trkpt lat="49.36681" lon="1.19738">
        <ele>138.6</ele>
        <time>2012-05-06T08:28:04.092Z</time>
      </trkpt>
      <trkpt lat="49.36685" lon="1.19736">
        <ele>139.1</ele>
        <time>2012-05-06T08:28:06.076Z</time>
      </trkpt>
      <trkpt lat="49.36692" lon="1.19732">
        <ele>139.1</ele>
        <time>2012-05-06T08:28:08.093Z</time>
      </trkpt>
      <trkpt lat="49.36697" lon="1.19731">
        <ele>140.7</ele>
        <time>2012-05-06T08:28:12.093Z</time>
      </trkpt>
      <trkpt lat="49.36702" lon="1.19729">
        <ele>143.2</ele>
        <time>2012-05-06T08:28:15.093Z</time>
      </trkpt>
      <trkpt lat="49.36707" lon="1.19727">
        <ele>140.9</ele>
        <time>2012-05-06T08:28:19.093Z</time>
      </trkpt>
      <trkpt lat="49.36712" lon="1.19727">
        <ele>144.7</ele>
        <time>2012-05-06T08:28:22.075Z</time>
      </trkpt>
      <trkpt lat="49.36717" lon="1.19726">
        <ele>144</ele>
        <time>2012-05-06T08:28:25.088Z</time>
      </trkpt>
      <trkpt lat="49.36724" lon="1.19728">
        <ele>154.1</ele>
        <time>2012-05-06T08:28:31.087Z</time>
      </trkpt>
      <trkpt lat="49.36728" lon="1.19726">
        <ele>155.1</ele>
        <time>2012-05-06T08:28:35.212Z</time>
      </trkpt>
      <trkpt lat="49.36735" lon="1.19728">
        <ele>154.8</ele>
        <time>2012-05-06T08:28:38.212Z</time>
      </trkpt>
      <trkpt lat="49.3674" lon="1.19728">
        <ele>153.5</ele>
        <time>2012-05-06T08:28:40.212Z</time>
      </trkpt>
      <trkpt lat="49.36745" lon="1.19733">
        <ele>151.7</ele>
        <time>2012-05-06T08:28:42.076Z</time>
      </trkpt>
      <trkpt lat="49.3675" lon="1.19734">
        <ele>151.2</ele>
        <time>2012-05-06T08:28:44.077Z</time>
      </trkpt>
      <trkpt lat="49.36755" lon="1.19735">
        <ele>150.8</ele>
        <time>2012-05-06T08:28:48.077Z</time>
      </trkpt>
      <trkpt lat="49.36759" lon="1.19738">
        <ele>158.4</ele>
        <time>2012-05-06T08:28:53.087Z</time>
      </trkpt>
      <trkpt lat="49.36764" lon="1.19742">
        <ele>163.9</ele>
        <time>2012-05-06T08:28:57.095Z</time>
      </trkpt>
      <trkpt lat="49.36769" lon="1.19743">
        <ele>170.6</ele>
        <time>2012-05-06T08:29:01.087Z</time>
      </trkpt>
      <trkpt lat="49.36773" lon="1.19742">
        <ele>171.6</ele>
        <time>2012-05-06T08:29:03.091Z</time>
      </trkpt>
      <trkpt lat="49.36779" lon="1.1974">
        <ele>171</ele>
        <time>2012-05-06T08:29:06.087Z</time>
      </trkpt>
      <trkpt lat="49.36784" lon="1.19743">
        <ele>170.4</ele>
        <time>2012-05-06T08:29:09.077Z</time>
      </trkpt>
      <trkpt lat="49.36789" lon="1.19742">
        <ele>171.5</ele>
        <time>2012-05-06T08:29:12.094Z</time>
      </trkpt>
      <trkpt lat="49.36795" lon="1.19742">
        <ele>170.2</ele>
        <time>2012-05-06T08:29:15.096Z</time>
      </trkpt>
      <trkpt lat="49.368" lon="1.19741">
        <ele>171.4</ele>
        <time>2012-05-06T08:29:20.094Z</time>
      </trkpt>
      <trkpt lat="49.36806" lon="1.19737">
        <ele>169.9</ele>
        <time>2012-05-06T08:29:23.081Z</time>
      </trkpt>
      <trkpt lat="49.3681" lon="1.19733">
        <ele>167.9</ele>
        <time>2012-05-06T08:29:26.078Z</time>
      </trkpt>
      <trkpt lat="49.36813" lon="1.19727">
        <ele>165.6</ele>
        <time>2012-05-06T08:29:30.087Z</time>
      </trkpt>
      <trkpt lat="49.36817" lon="1.19721">
        <ele>165.2</ele>
        <time>2012-05-06T08:29:33.092Z</time>
      </trkpt>
      <trkpt lat="49.36821" lon="1.19716">
        <ele>165.3</ele>
        <time>2012-05-06T08:29:36.087Z</time>
      </trkpt>
      <trkpt lat="49.36825" lon="1.19712">
        <ele>163.2</ele>
        <time>2012-05-06T08:29:39.086Z</time>
      </trkpt>
      <trkpt lat="49.3683" lon="1.19707">
        <ele>163</ele>
        <time>2012-05-06T08:29:42.094Z</time>
      </trkpt>
      <trkpt lat="49.36835" lon="1.19702">
        <ele>163.8</ele>
        <time>2012-05-06T08:29:46.076Z</time>
      </trkpt>
      <trkpt lat="49.36839" lon="1.19698">
        <ele>163.2</ele>
        <time>2012-05-06T08:29:50.099Z</time>
      </trkpt>
      <trkpt lat="49.36843" lon="1.19695">
        <ele>162.1</ele>
        <time>2012-05-06T08:29:54.091Z</time>
      </trkpt>
      <trkpt lat="49.36848" lon="1.1969">
        <ele>162.9</ele>
        <time>2012-05-06T08:29:58.091Z</time>
      </trkpt>
      <trkpt lat="49.36851" lon="1.19686">
        <ele>159.3</ele>
        <time>2012-05-06T08:30:02.095Z</time>
      </trkpt>
      <trkpt lat="49.36856" lon="1.19682">
        <ele>158.7</ele>
        <time>2012-05-06T08:30:06.086Z</time>
      </trkpt>
      <trkpt lat="49.36861" lon="1.19678">
        <ele>157.4</ele>
        <time>2012-05-06T08:30:10.093Z</time>
      </trkpt>
      <trkpt lat="49.36864" lon="1.19671">
        <ele>158.4</ele>
        <time>2012-05-06T08:30:14.090Z</time>
      </trkpt>
      <trkpt lat="49.36869" lon="1.19666">
        <ele>160.1</ele>
        <time>2012-05-06T08:30:18.074Z</time>
      </trkpt>
      <trkpt lat="49.36872" lon="1.19661">
        <ele>160</ele>
        <time>2012-05-06T08:30:21.076Z</time>
      </trkpt>
      <trkpt lat="49.36877" lon="1.19655">
        <ele>160.8</ele>
        <time>2012-05-06T08:30:25.076Z</time>
      </trkpt>
      <trkpt lat="49.3688" lon="1.19651">
        <ele>162.5</ele>
        <time>2012-05-06T08:30:28.089Z</time>
      </trkpt>
      <trkpt lat="49.36883" lon="1.19645">
        <ele>164.7</ele>
        <time>2012-05-06T08:30:33.087Z</time>
      </trkpt>
      <trkpt lat="49.36888" lon="1.19642">
        <ele>166.3</ele>
        <time>2012-05-06T08:30:37.094Z</time>
      </trkpt>
      <trkpt lat="49.36891" lon="1.19635">
        <ele>165.5</ele>
        <time>2012-05-06T08:30:40.080Z</time>
      </trkpt>
      <trkpt lat="49.36896" lon="1.19632">
        <ele>164.8</ele>
        <time>2012-05-06T08:30:43.087Z</time>
      </trkpt>
      <trkpt lat="49.36902" lon="1.19629">
        <ele>166.3</ele>
        <time>2012-05-06T08:30:46.082Z</time>
      </trkpt>
      <trkpt lat="49.36907" lon="1.19627">
        <ele>167.6</ele>
        <time>2012-05-06T08:30:49.076Z</time>
      </trkpt>
      <trkpt lat="49.36911" lon="1.19623">
        <ele>170.1</ele>
        <time>2012-05-06T08:30:52.086Z</time>
      </trkpt>
      <trkpt lat="49.36916" lon="1.19621">
        <ele>170.7</ele>
        <time>2012-05-06T08:30:56.076Z</time>
      </trkpt>
      <trkpt lat="49.36922" lon="1.19621">
        <ele>169.9</ele>
        <time>2012-05-06T08:30:59.096Z</time>
      </trkpt>
      <trkpt lat="49.36927" lon="1.19618">
        <ele>170.3</ele>
        <time>2012-05-06T08:31:03.089Z</time>
      </trkpt>
      <trkpt lat="49.36933" lon="1.19617">
        <ele>170.3</ele>
        <time>2012-05-06T08:31:06.087Z</time>
      </trkpt>
      <trkpt lat="49.36938" lon="1.19616">
        <ele>169.6</ele>
        <time>2012-05-06T08:31:10.094Z</time>
      </trkpt>
      <trkpt lat="49.36943" lon="1.19612">
        <ele>169.9</ele>
        <time>2012-05-06T08:31:14.092Z</time>
      </trkpt>
      <trkpt lat="49.36948" lon="1.1961">
        <ele>171.6</ele>
        <time>2012-05-06T08:31:18.080Z</time>
      </trkpt>
      <trkpt lat="49.36952" lon="1.19607">
        <ele>174.2</ele>
        <time>2012-05-06T08:31:22.094Z</time>
      </trkpt>
      <trkpt lat="49.36957" lon="1.19605">
        <ele>174.9</ele>
        <time>2012-05-06T08:31:25.085Z</time>
      </trkpt>
      <trkpt lat="49.36961" lon="1.19603">
        <ele>174.8</ele>
        <time>2012-05-06T08:31:28.084Z</time>
      </trkpt>
      <trkpt lat="49.36966" lon="1.19599">
        <ele>176.9</ele>
        <time>2012-05-06T08:31:32.089Z</time>
      </trkpt>
      <trkpt lat="49.36971" lon="1.19595">
        <ele>178.4</ele>
        <time>2012-05-06T08:31:35.076Z</time>
      </trkpt>
      <trkpt lat="49.36976" lon="1.1959">
        <ele>178.4</ele>
        <time>2012-05-06T08:31:39.079Z</time>
      </trkpt>
      <trkpt lat="49.36981" lon="1.19587">
        <ele>179.9</ele>
        <time>2012-05-06T08:31:42.279Z</time>
      </trkpt>
      <trkpt lat="49.36986" lon="1.19589">
        <ele>181.3</ele>
        <time>2012-05-06T08:31:43.745Z</time>
      </trkpt>
      <trkpt lat="49.3699" lon="1.19591">
        <ele>179.9</ele>
        <time>2012-05-06T08:31:46.084Z</time>
      </trkpt>
      <trkpt lat="49.36994" lon="1.19586">
        <ele>180.5</ele>
        <time>2012-05-06T08:31:49.084Z</time>
      </trkpt>
      <trkpt lat="49.36999" lon="1.19584">
        <ele>179.4</ele>
        <time>2012-05-06T08:31:52.085Z</time>
      </trkpt>
      <trkpt lat="49.37003" lon="1.19581">
        <ele>179.6</ele>
        <time>2012-05-06T08:31:55.084Z</time>
      </trkpt>
      <trkpt lat="49.37008" lon="1.19581">
        <ele>180.8</ele>
        <time>2012-05-06T08:31:59.080Z</time>
      </trkpt>
      <trkpt lat="49.37014" lon="1.1958">
        <ele>182.8</ele>
        <time>2012-05-06T08:32:02.799Z</time>
      </trkpt>
      <trkpt lat="49.37019" lon="1.19579">
        <ele>184.3</ele>
        <time>2012-05-06T08:32:06.199Z</time>
      </trkpt>
      <trkpt lat="49.37024" lon="1.19578">
        <ele>185.1</ele>
        <time>2012-05-06T08:32:09.199Z</time>
      </trkpt>
      <trkpt lat="49.37028" lon="1.19576">
        <ele>186.7</ele>
        <time>2012-05-06T08:32:12.199Z</time>
      </trkpt>
      <trkpt lat="49.37033" lon="1.19575">
        <ele>187.3</ele>
        <time>2012-05-06T08:32:15.199Z</time>
      </trkpt>
      <trkpt lat="49.37038" lon="1.19573">
        <ele>187.7</ele>
        <time>2012-05-06T08:32:18.085Z</time>
      </trkpt>
      <trkpt lat="49.37043" lon="1.19572">
        <ele>188.4</ele>
        <time>2012-05-06T08:32:21.093Z</time>
      </trkpt>
      <trkpt lat="49.37048" lon="1.19571">
        <ele>189</ele>
        <time>2012-05-06T08:32:24.087Z</time>
      </trkpt>
      <trkpt lat="49.37054" lon="1.19572">
        <ele>190.4</ele>
        <time>2012-05-06T08:32:28.081Z</time>
      </trkpt>
      <trkpt lat="49.3706" lon="1.19571">
        <ele>190.4</ele>
        <time>2012-05-06T08:32:31.086Z</time>
      </trkpt>
      <trkpt lat="49.37065" lon="1.19572">
        <ele>190.5</ele>
        <time>2012-05-06T08:32:33.093Z</time>
      </trkpt>
      <trkpt lat="49.3707" lon="1.19569">
        <ele>188.5</ele>
        <time>2012-05-06T08:32:36.096Z</time>
      </trkpt>
      <trkpt lat="49.37076" lon="1.19567">
        <ele>187.9</ele>
        <time>2012-05-06T08:32:39.094Z</time>
      </trkpt>
      <trkpt lat="49.37082" lon="1.19566">
        <ele>187.9</ele>
        <time>2012-05-06T08:32:42.265Z</time>
      </trkpt>
      <trkpt lat="49.37088" lon="1.19566">
        <ele>188.7</ele>
        <time>2012-05-06T08:32:45.084Z</time>
      </trkpt>
      <trkpt lat="49.37092" lon="1.19562">
        <ele>188.5</ele>
        <time>2012-05-06T08:32:47.094Z</time>
      </trkpt>
      <trkpt lat="49.37098" lon="1.19563">
        <ele>186.5</ele>
        <time>2012-05-06T08:32:49.093Z</time>
      </trkpt>
      <trkpt lat="49.37105" lon="1.19563">
        <ele>186.5</ele>
        <time>2012-05-06T08:32:52.094Z</time>
      </trkpt>
      <trkpt lat="49.3711" lon="1.19565">
        <ele>185.6</ele>
        <time>2012-05-06T08:32:54.089Z</time>
      </trkpt>
      <trkpt lat="49.37117" lon="1.19566">
        <ele>186.4</ele>
        <time>2012-05-06T08:32:56.089Z</time>
      </trkpt>
      <trkpt lat="49.37122" lon="1.19566">
        <ele>185.3</ele>
        <time>2012-05-06T08:32:58.089Z</time>
      </trkpt>
      <trkpt lat="49.37128" lon="1.19567">
        <ele>185.4</ele>
        <time>2012-05-06T08:33:00.086Z</time>
      </trkpt>
      <trkpt lat="49.37134" lon="1.19566">
        <ele>185.4</ele>
        <time>2012-05-06T08:33:02.085Z</time>
      </trkpt>
      <trkpt lat="49.37141" lon="1.19566">
        <ele>184.7</ele>
        <time>2012-05-06T08:33:04.094Z</time>
      </trkpt>
      <trkpt lat="49.37146" lon="1.19566">
        <ele>184.9</ele>
        <time>2012-05-06T08:33:06.084Z</time>
      </trkpt>
      <trkpt lat="49.37152" lon="1.19565">
        <ele>184.9</ele>
        <time>2012-05-06T08:33:08.096Z</time>
      </trkpt>
      <trkpt lat="49.37158" lon="1.19564">
        <ele>185.7</ele>
        <time>2012-05-06T08:33:10.089Z</time>
      </trkpt>
      <trkpt lat="49.37164" lon="1.19563">
        <ele>186.8</ele>
        <time>2012-05-06T08:33:12.088Z</time>
      </trkpt>
      <trkpt lat="49.37169" lon="1.19561">
        <ele>187.2</ele>
        <time>2012-05-06T08:33:14.093Z</time>
      </trkpt>
      <trkpt lat="49.37174" lon="1.1956">
        <ele>186.6</ele>
        <time>2012-05-06T08:33:16.092Z</time>
      </trkpt>
      <trkpt lat="49.37179" lon="1.19559">
        <ele>186.2</ele>
        <time>2012-05-06T08:33:18.096Z</time>
      </trkpt>
      <trkpt lat="49.37184" lon="1.19558">
        <ele>186.6</ele>
        <time>2012-05-06T08:33:20.088Z</time>
      </trkpt>
      <trkpt lat="49.3719" lon="1.19557">
        <ele>186.4</ele>
        <time>2012-05-06T08:33:22.079Z</time>
      </trkpt>
      <trkpt lat="49.37195" lon="1.19557">
        <ele>186.8</ele>
        <time>2012-05-06T08:33:24.096Z</time>
      </trkpt>
      <trkpt lat="49.37201" lon="1.19556">
        <ele>187.4</ele>
        <time>2012-05-06T08:33:26.095Z</time>
      </trkpt>
      <trkpt lat="49.37206" lon="1.19555">
        <ele>187.7</ele>
        <time>2012-05-06T08:33:28.081Z</time>
      </trkpt>
      <trkpt lat="49.37212" lon="1.19552">
        <ele>188.6</ele>
        <time>2012-05-06T08:33:30.097Z</time>
      </trkpt>
      <trkpt lat="49.37217" lon="1.19551">
        <ele>188.6</ele>
        <time>2012-05-06T08:33:32.096Z</time>
      </trkpt>
      <trkpt lat="49.37223" lon="1.19549">
        <ele>188.9</ele>
        <time>2012-05-06T08:33:34.088Z</time>
      </trkpt>
      <trkpt lat="49.37228" lon="1.19547">
        <ele>189.1</ele>
        <time>2012-05-06T08:33:36.089Z</time>
      </trkpt>
      <trkpt lat="49.37233" lon="1.19545">
        <ele>189.4</ele>
        <time>2012-05-06T08:33:38.094Z</time>
      </trkpt>
      <trkpt lat="49.37238" lon="1.19543">
        <ele>189.9</ele>
        <time>2012-05-06T08:33:40.086Z</time>
      </trkpt>
      <trkpt lat="49.37244" lon="1.1954">
        <ele>190.1</ele>
        <time>2012-05-06T08:33:42.285Z</time>
      </trkpt>
      <trkpt lat="49.37251" lon="1.19539">
        <ele>190.5</ele>
        <time>2012-05-06T08:33:45.089Z</time>
      </trkpt>
      <trkpt lat="49.37257" lon="1.19536">
        <ele>190.4</ele>
        <time>2012-05-06T08:33:47.093Z</time>
      </trkpt>
      <trkpt lat="49.37262" lon="1.19535">
        <ele>190.3</ele>
        <time>2012-05-06T08:33:49.098Z</time>
      </trkpt>
      <trkpt lat="49.37267" lon="1.19534">
        <ele>190.7</ele>
        <time>2012-05-06T08:33:51.098Z</time>
      </trkpt>
      <trkpt lat="49.37273" lon="1.19532">
        <ele>191.4</ele>
        <time>2012-05-06T08:33:53.087Z</time>
      </trkpt>
      <trkpt lat="49.37278" lon="1.1953">
        <ele>192.1</ele>
        <time>2012-05-06T08:33:55.096Z</time>
      </trkpt>
      <trkpt lat="49.37284" lon="1.19528">
        <ele>193</ele>
        <time>2012-05-06T08:33:57.087Z</time>
      </trkpt>
      <trkpt lat="49.3729" lon="1.19527">
        <ele>193.3</ele>
        <time>2012-05-06T08:33:59.086Z</time>
      </trkpt>
      <trkpt lat="49.37295" lon="1.19526">
        <ele>193.9</ele>
        <time>2012-05-06T08:34:01.089Z</time>
      </trkpt>
      <trkpt lat="49.37301" lon="1.19524">
        <ele>194</ele>
        <time>2012-05-06T08:34:03.091Z</time>
      </trkpt>
      <trkpt lat="49.37306" lon="1.19523">
        <ele>194.2</ele>
        <time>2012-05-06T08:34:05.088Z</time>
      </trkpt>
      <trkpt lat="49.37312" lon="1.19522">
        <ele>194.5</ele>
        <time>2012-05-06T08:34:07.088Z</time>
      </trkpt>
      <trkpt lat="49.37317" lon="1.1952">
        <ele>194.4</ele>
        <time>2012-05-06T08:34:09.088Z</time>
      </trkpt>
      <trkpt lat="49.37322" lon="1.19518">
        <ele>194.8</ele>
        <time>2012-05-06T08:34:11.088Z</time>
      </trkpt>
      <trkpt lat="49.37328" lon="1.19516">
        <ele>195.2</ele>
        <time>2012-05-06T08:34:13.088Z</time>
      </trkpt>
      <trkpt lat="49.37333" lon="1.19514">
        <ele>195.5</ele>
        <time>2012-05-06T08:34:15.078Z</time>
      </trkpt>
      <trkpt lat="49.37338" lon="1.19512">
        <ele>195.9</ele>
        <time>2012-05-06T08:34:17.088Z</time>
      </trkpt>
      <trkpt lat="49.37343" lon="1.19511">
        <ele>195.9</ele>
        <time>2012-05-06T08:34:19.089Z</time>
      </trkpt>
      <trkpt lat="49.37349" lon="1.1951">
        <ele>195.9</ele>
        <time>2012-05-06T08:34:21.093Z</time>
      </trkpt>
      <trkpt lat="49.37354" lon="1.19508">
        <ele>195.9</ele>
        <time>2012-05-06T08:34:23.078Z</time>
      </trkpt>
      <trkpt lat="49.3736" lon="1.19505">
        <ele>195.8</ele>
        <time>2012-05-06T08:34:25.077Z</time>
      </trkpt>
      <trkpt lat="49.37366" lon="1.19504">
        <ele>195.8</ele>
        <time>2012-05-06T08:34:27.089Z</time>
      </trkpt>
      <trkpt lat="49.37371" lon="1.19502">
        <ele>195.5</ele>
        <time>2012-05-06T08:34:29.074Z</time>
      </trkpt>
      <trkpt lat="49.37376" lon="1.19501">
        <ele>195.6</ele>
        <time>2012-05-06T08:34:31.077Z</time>
      </trkpt>
      <trkpt lat="49.37382" lon="1.19499">
        <ele>195.9</ele>
        <time>2012-05-06T08:34:33.077Z</time>
      </trkpt>
      <trkpt lat="49.37388" lon="1.19498">
        <ele>196</ele>
        <time>2012-05-06T08:34:35.076Z</time>
      </trkpt>
      <trkpt lat="49.37394" lon="1.19496">
        <ele>196.2</ele>
        <time>2012-05-06T08:34:37.077Z</time>
      </trkpt>
      <trkpt lat="49.374" lon="1.19494">
        <ele>196.3</ele>
        <time>2012-05-06T08:34:39.093Z</time>
      </trkpt>
      <trkpt lat="49.3741" lon="1.19492">
        <ele>196.5</ele>
        <time>2012-05-06T08:34:42.548Z</time>
      </trkpt>
      <trkpt lat="49.37414" lon="1.19492">
        <ele>196.1</ele>
        <time>2012-05-06T08:34:44.054Z</time>
      </trkpt>
      <trkpt lat="49.37421" lon="1.19489">
        <ele>195.2</ele>
        <time>2012-05-06T08:34:46.079Z</time>
      </trkpt>
      <trkpt lat="49.37427" lon="1.19487">
        <ele>195.6</ele>
        <time>2012-05-06T08:34:48.092Z</time>
      </trkpt>
      <trkpt lat="49.37433" lon="1.19486">
        <ele>195.6</ele>
        <time>2012-05-06T08:34:50.093Z</time>
      </trkpt>
      <trkpt lat="49.37439" lon="1.19485">
        <ele>195.7</ele>
        <time>2012-05-06T08:34:52.092Z</time>
      </trkpt>
      <trkpt lat="49.37445" lon="1.19483">
        <ele>196.2</ele>
        <time>2012-05-06T08:34:54.097Z</time>
      </trkpt>
      <trkpt lat="49.37451" lon="1.19481">
        <ele>195.7</ele>
        <time>2012-05-06T08:34:56.092Z</time>
      </trkpt>
      <trkpt lat="49.37458" lon="1.19481">
        <ele>195.8</ele>
        <time>2012-05-06T08:34:58.079Z</time>
      </trkpt>
      <trkpt lat="49.37466" lon="1.19481">
        <ele>196</ele>
        <time>2012-05-06T08:35:00.083Z</time>
      </trkpt>
      <trkpt lat="49.37474" lon="1.1948">
        <ele>195.8</ele>
        <time>2012-05-06T08:35:02.089Z</time>
      </trkpt>
      <trkpt lat="49.3748" lon="1.19481">
        <ele>195.6</ele>
        <time>2012-05-06T08:35:04.082Z</time>
      </trkpt>
      <trkpt lat="49.37488" lon="1.19482">
        <ele>195.6</ele>
        <time>2012-05-06T08:35:06.093Z</time>
      </trkpt>
      <trkpt lat="49.37495" lon="1.19483">
        <ele>195.6</ele>
        <time>2012-05-06T08:35:08.078Z</time>
      </trkpt>
      <trkpt lat="49.37503" lon="1.19484">
        <ele>195.5</ele>
        <time>2012-05-06T08:35:10.096Z</time>
      </trkpt>
      <trkpt lat="49.37511" lon="1.19484">
        <ele>195.4</ele>
        <time>2012-05-06T08:35:12.089Z</time>
      </trkpt>
      <trkpt lat="49.37518" lon="1.19485">
        <ele>195</ele>
        <time>2012-05-06T08:35:14.091Z</time>
      </trkpt>
      <trkpt lat="49.37527" lon="1.19486">
        <ele>194.9</ele>
        <time>2012-05-06T08:35:16.096Z</time>
      </trkpt>
      <trkpt lat="49.37535" lon="1.19486">
        <ele>195.1</ele>
        <time>2012-05-06T08:35:18.094Z</time>
      </trkpt>
      <trkpt lat="49.37543" lon="1.19486">
        <ele>195.3</ele>
        <time>2012-05-06T08:35:20.095Z</time>
      </trkpt>
      <trkpt lat="49.37552" lon="1.19487">
        <ele>195.2</ele>
        <time>2012-05-06T08:35:22.097Z</time>
      </trkpt>
      <trkpt lat="49.3756" lon="1.19488">
        <ele>194.8</ele>
        <time>2012-05-06T08:35:24.085Z</time>
      </trkpt>
      <trkpt lat="49.37568" lon="1.19488">
        <ele>195</ele>
        <time>2012-05-06T08:35:26.098Z</time>
      </trkpt>
      <trkpt lat="49.37577" lon="1.1949">
        <ele>195.4</ele>
        <time>2012-05-06T08:35:28.082Z</time>
      </trkpt>
      <trkpt lat="49.37585" lon="1.1949">
        <ele>195.2</ele>
        <time>2012-05-06T08:35:30.094Z</time>
      </trkpt>
      <trkpt lat="49.37593" lon="1.1949">
        <ele>195.3</ele>
        <time>2012-05-06T08:35:32.082Z</time>
      </trkpt>
      <trkpt lat="49.37601" lon="1.19491">
        <ele>195.2</ele>
        <time>2012-05-06T08:35:34.093Z</time>
      </trkpt>
      <trkpt lat="49.37606" lon="1.19491">
        <ele>195.2</ele>
        <time>2012-05-06T08:35:35.096Z</time>
      </trkpt>
      <trkpt lat="49.37615" lon="1.19492">
        <ele>195.2</ele>
        <time>2012-05-06T08:35:37.088Z</time>
      </trkpt>
      <trkpt lat="49.3762" lon="1.19492">
        <ele>195.1</ele>
        <time>2012-05-06T08:35:38.083Z</time>
      </trkpt>
      <trkpt lat="49.37628" lon="1.19493">
        <ele>195.2</ele>
        <time>2012-05-06T08:35:40.080Z</time>
      </trkpt>
      <trkpt lat="49.37637" lon="1.19494">
        <ele>195.4</ele>
        <time>2012-05-06T08:35:42.277Z</time>
      </trkpt>
      <trkpt lat="49.37644" lon="1.19495">
        <ele>195.6</ele>
        <time>2012-05-06T08:35:43.785Z</time>
      </trkpt>
      <trkpt lat="49.3765" lon="1.19495">
        <ele>196</ele>
        <time>2012-05-06T08:35:45.073Z</time>
      </trkpt>
      <trkpt lat="49.37658" lon="1.19495">
        <ele>196</ele>
        <time>2012-05-06T08:35:47.081Z</time>
      </trkpt>
      <trkpt lat="49.37663" lon="1.19495">
        <ele>195.6</ele>
        <time>2012-05-06T08:35:48.089Z</time>
      </trkpt>
      <trkpt lat="49.37672" lon="1.19495">
        <ele>195.7</ele>
        <time>2012-05-06T08:35:50.100Z</time>
      </trkpt>
      <trkpt lat="49.37676" lon="1.19496">
        <ele>195.5</ele>
        <time>2012-05-06T08:35:51.085Z</time>
      </trkpt>
      <trkpt lat="49.37681" lon="1.19496">
        <ele>195.3</ele>
        <time>2012-05-06T08:35:52.089Z</time>
      </trkpt>
      <trkpt lat="49.37686" lon="1.19497">
        <ele>195.4</ele>
        <time>2012-05-06T08:35:53.092Z</time>
      </trkpt>
      <trkpt lat="49.37691" lon="1.19498">
        <ele>195</ele>
        <time>2012-05-06T08:35:54.081Z</time>
      </trkpt>
      <trkpt lat="49.37695" lon="1.19498">
        <ele>195.2</ele>
        <time>2012-05-06T08:35:55.095Z</time>
      </trkpt>
      <trkpt lat="49.37704" lon="1.19498">
        <ele>195.1</ele>
        <time>2012-05-06T08:35:57.094Z</time>
      </trkpt>
      <trkpt lat="49.37709" lon="1.19499">
        <ele>195.3</ele>
        <time>2012-05-06T08:35:58.097Z</time>
      </trkpt>
      <trkpt lat="49.37714" lon="1.195">
        <ele>195.3</ele>
        <time>2012-05-06T08:35:59.093Z</time>
      </trkpt>
      <trkpt lat="49.37718" lon="1.19501">
        <ele>195.1</ele>
        <time>2012-05-06T08:36:00.079Z</time>
      </trkpt>
      <trkpt lat="49.37723" lon="1.19502">
        <ele>195.2</ele>
        <time>2012-05-06T08:36:01.087Z</time>
      </trkpt>
      <trkpt lat="49.37728" lon="1.19502">
        <ele>195.2</ele>
        <time>2012-05-06T08:36:02.080Z</time>
      </trkpt>
      <trkpt lat="49.37733" lon="1.19503">
        <ele>195.3</ele>
        <time>2012-05-06T08:36:03.098Z</time>
      </trkpt>
      <trkpt lat="49.37739" lon="1.19504">
        <ele>195.2</ele>
        <time>2012-05-06T08:36:04.089Z</time>
      </trkpt>
      <trkpt lat="49.37744" lon="1.19504">
        <ele>195</ele>
        <time>2012-05-06T08:36:05.095Z</time>
      </trkpt>
      <trkpt lat="49.37749" lon="1.19505">
        <ele>195.2</ele>
        <time>2012-05-06T08:36:06.094Z</time>
      </trkpt>
      <trkpt lat="49.37754" lon="1.19506">
        <ele>195.5</ele>
        <time>2012-05-06T08:36:07.088Z</time>
      </trkpt>
      <trkpt lat="49.37759" lon="1.19507">
        <ele>195.3</ele>
        <time>2012-05-06T08:36:08.078Z</time>
      </trkpt>
      <trkpt lat="49.37764" lon="1.19508">
        <ele>195.1</ele>
        <time>2012-05-06T08:36:09.090Z</time>
      </trkpt>
      <trkpt lat="49.37769" lon="1.19509">
        <ele>195.1</ele>
        <time>2012-05-06T08:36:10.088Z</time>
      </trkpt>
      <trkpt lat="49.37774" lon="1.1951">
        <ele>195.5</ele>
        <time>2012-05-06T08:36:11.084Z</time>
      </trkpt>
      <trkpt lat="49.37779" lon="1.1951">
        <ele>195.2</ele>
        <time>2012-05-06T08:36:12.095Z</time>
      </trkpt>
      <trkpt lat="49.37784" lon="1.19511">
        <ele>195.2</ele>
        <time>2012-05-06T08:36:13.090Z</time>
      </trkpt>
      <trkpt lat="49.37788" lon="1.19512">
        <ele>195.2</ele>
        <time>2012-05-06T08:36:14.092Z</time>
      </trkpt>
      <trkpt lat="49.37793" lon="1.19514">
        <ele>195.1</ele>
        <time>2012-05-06T08:36:15.088Z</time>
      </trkpt>
      <trkpt lat="49.37797" lon="1.19516">
        <ele>195</ele>
        <time>2012-05-06T08:36:16.082Z</time>
      </trkpt>
      <trkpt lat="49.37802" lon="1.19518">
        <ele>195</ele>
        <time>2012-05-06T08:36:17.097Z</time>
      </trkpt>
      <trkpt lat="49.37806" lon="1.1952">
        <ele>194.8</ele>
        <time>2012-05-06T08:36:18.095Z</time>
      </trkpt>
      <trkpt lat="49.37811" lon="1.19521">
        <ele>194.7</ele>
        <time>2012-05-06T08:36:19.088Z</time>
      </trkpt>
      <trkpt lat="49.3782" lon="1.19524">
        <ele>195.2</ele>
        <time>2012-05-06T08:36:21.098Z</time>
      </trkpt>
      <trkpt lat="49.37827" lon="1.19527">
        <ele>195.2</ele>
        <time>2012-05-06T08:36:23.082Z</time>
      </trkpt>
      <trkpt lat="49.37835" lon="1.1953">
        <ele>195.5</ele>
        <time>2012-05-06T08:36:25.094Z</time>
      </trkpt>
      <trkpt lat="49.37842" lon="1.19534">
        <ele>195.5</ele>
        <time>2012-05-06T08:36:27.093Z</time>
      </trkpt>
      <trkpt lat="49.3785" lon="1.19537">
        <ele>195.5</ele>
        <time>2012-05-06T08:36:29.096Z</time>
      </trkpt>
      <trkpt lat="49.37857" lon="1.1954">
        <ele>195.6</ele>
        <time>2012-05-06T08:36:31.082Z</time>
      </trkpt>
      <trkpt lat="49.37864" lon="1.19542">
        <ele>196</ele>
        <time>2012-05-06T08:36:33.101Z</time>
      </trkpt>
      <trkpt lat="49.37871" lon="1.19545">
        <ele>196.2</ele>
        <time>2012-05-06T08:36:35.096Z</time>
      </trkpt>
      <trkpt lat="49.37877" lon="1.19548">
        <ele>196.4</ele>
        <time>2012-05-06T08:36:37.091Z</time>
      </trkpt>
      <trkpt lat="49.37884" lon="1.1955">
        <ele>196.6</ele>
        <time>2012-05-06T08:36:39.090Z</time>
      </trkpt>
      <trkpt lat="49.37894" lon="1.19553">
        <ele>197.2</ele>
        <time>2012-05-06T08:36:42.280Z</time>
      </trkpt>
      <trkpt lat="49.37899" lon="1.19556">
        <ele>197.4</ele>
        <time>2012-05-06T08:36:43.763Z</time>
      </trkpt>
      <trkpt lat="49.37904" lon="1.19557">
        <ele>197.8</ele>
        <time>2012-05-06T08:36:45.093Z</time>
      </trkpt>
      <trkpt lat="49.3791" lon="1.19559">
        <ele>198.1</ele>
        <time>2012-05-06T08:36:47.097Z</time>
      </trkpt>
      <trkpt lat="49.37917" lon="1.19562">
        <ele>198.4</ele>
        <time>2012-05-06T08:36:49.089Z</time>
      </trkpt>
      <trkpt lat="49.37923" lon="1.19564">
        <ele>198.7</ele>
        <time>2012-05-06T08:36:51.099Z</time>
      </trkpt>
      <trkpt lat="49.37929" lon="1.19566">
        <ele>198.8</ele>
        <time>2012-05-06T08:36:53.091Z</time>
      </trkpt>
      <trkpt lat="49.37935" lon="1.19568">
        <ele>198.8</ele>
        <time>2012-05-06T08:36:55.098Z</time>
      </trkpt>
      <trkpt lat="49.3794" lon="1.1957">
        <ele>198.6</ele>
        <time>2012-05-06T08:36:57.088Z</time>
      </trkpt>
      <trkpt lat="49.37946" lon="1.19572">
        <ele>198.8</ele>
        <time>2012-05-06T08:36:59.087Z</time>
      </trkpt>
      <trkpt lat="49.37951" lon="1.19574">
        <ele>198.8</ele>
        <time>2012-05-06T08:37:01.082Z</time>
      </trkpt>
      <trkpt lat="49.37956" lon="1.19576">
        <ele>199</ele>
        <time>2012-05-06T08:37:03.085Z</time>
      </trkpt>
      <trkpt lat="49.37962" lon="1.19579">
        <ele>198.6</ele>
        <time>2012-05-06T08:37:05.082Z</time>
      </trkpt>
      <trkpt lat="49.37968" lon="1.19581">
        <ele>198.6</ele>
        <time>2012-05-06T08:37:07.082Z</time>
      </trkpt>
      <trkpt lat="49.37974" lon="1.19584">
        <ele>199</ele>
        <time>2012-05-06T08:37:09.082Z</time>
      </trkpt>
      <trkpt lat="49.37979" lon="1.19587">
        <ele>198.9</ele>
        <time>2012-05-06T08:37:11.097Z</time>
      </trkpt>
      <trkpt lat="49.37984" lon="1.19589">
        <ele>199.2</ele>
        <time>2012-05-06T08:37:13.094Z</time>
      </trkpt>
      <trkpt lat="49.37989" lon="1.19592">
        <ele>199.5</ele>
        <time>2012-05-06T08:37:15.095Z</time>
      </trkpt>
      <trkpt lat="49.37994" lon="1.19595">
        <ele>199.2</ele>
        <time>2012-05-06T08:37:18.087Z</time>
      </trkpt>
      <trkpt lat="49.37999" lon="1.19598">
        <ele>199.3</ele>
        <time>2012-05-06T08:37:22.098Z</time>
      </trkpt>
      <trkpt lat="49.38004" lon="1.19598">
        <ele>198.6</ele>
        <time>2012-05-06T08:37:33.095Z</time>
      </trkpt>
      <trkpt lat="49.37999" lon="1.19596">
        <ele>202.7</ele>
        <time>2012-05-06T08:38:34.092Z</time>
      </trkpt>
      <trkpt lat="49.38004" lon="1.19595">
        <ele>201.1</ele>
        <time>2012-05-06T08:43:09.094Z</time>
      </trkpt>
      <trkpt lat="49.38005" lon="1.19602">
        <ele>202.3</ele>
        <time>2012-05-06T08:46:30.099Z</time>
      </trkpt>
      <trkpt lat="49.38009" lon="1.19608">
        <ele>202.4</ele>
        <time>2012-05-06T08:46:32.096Z</time>
      </trkpt>
      <trkpt lat="49.38014" lon="1.19615">
        <ele>202.5</ele>
        <time>2012-05-06T08:46:34.104Z</time>
      </trkpt>
      <trkpt lat="49.38019" lon="1.19622">
        <ele>202.8</ele>
        <time>2012-05-06T08:46:36.084Z</time>
      </trkpt>
      <trkpt lat="49.38024" lon="1.19631">
        <ele>203.6</ele>
        <time>2012-05-06T08:46:38.081Z</time>
      </trkpt>
      <trkpt lat="49.3803" lon="1.1964">
        <ele>204</ele>
        <time>2012-05-06T08:46:40.100Z</time>
      </trkpt>
      <trkpt lat="49.38035" lon="1.19649">
        <ele>203.9</ele>
        <time>2012-05-06T08:46:42.252Z</time>
      </trkpt>
      <trkpt lat="49.38039" lon="1.19657">
        <ele>204.3</ele>
        <time>2012-05-06T08:46:43.739Z</time>
      </trkpt>
      <trkpt lat="49.38042" lon="1.19664">
        <ele>205.5</ele>
        <time>2012-05-06T08:46:45.080Z</time>
      </trkpt>
      <trkpt lat="49.38047" lon="1.19674">
        <ele>205.3</ele>
        <time>2012-05-06T08:46:47.092Z</time>
      </trkpt>
      <trkpt lat="49.38052" lon="1.19682">
        <ele>206.2</ele>
        <time>2012-05-06T08:46:49.085Z</time>
      </trkpt>
      <trkpt lat="49.38056" lon="1.1969">
        <ele>206.2</ele>
        <time>2012-05-06T08:46:51.092Z</time>
      </trkpt>
      <trkpt lat="49.38061" lon="1.19699">
        <ele>206.7</ele>
        <time>2012-05-06T08:46:53.100Z</time>
      </trkpt>
      <trkpt lat="49.38066" lon="1.19708">
        <ele>207</ele>
        <time>2012-05-06T08:46:55.098Z</time>
      </trkpt>
      <trkpt lat="49.3807" lon="1.19716">
        <ele>207</ele>
        <time>2012-05-06T08:46:57.092Z</time>
      </trkpt>
      <trkpt lat="49.38076" lon="1.19725">
        <ele>207.6</ele>
        <time>2012-05-06T08:46:59.093Z</time>
      </trkpt>
      <trkpt lat="49.38081" lon="1.19734">
        <ele>207.9</ele>
        <time>2012-05-06T08:47:01.077Z</time>
      </trkpt>
      <trkpt lat="49.38087" lon="1.19743">
        <ele>207.4</ele>
        <time>2012-05-06T08:47:03.096Z</time>
      </trkpt>
      <trkpt lat="49.38092" lon="1.19753">
        <ele>207.6</ele>
        <time>2012-05-06T08:47:05.093Z</time>
      </trkpt>
      <trkpt lat="49.38098" lon="1.19762">
        <ele>207.3</ele>
        <time>2012-05-06T08:47:07.089Z</time>
      </trkpt>
      <trkpt lat="49.38103" lon="1.19771">
        <ele>207.2</ele>
        <time>2012-05-06T08:47:09.097Z</time>
      </trkpt>
      <trkpt lat="49.38108" lon="1.19779">
        <ele>206.6</ele>
        <time>2012-05-06T08:47:11.090Z</time>
      </trkpt>
      <trkpt lat="49.38113" lon="1.19787">
        <ele>206.7</ele>
        <time>2012-05-06T08:47:13.094Z</time>
      </trkpt>
      <trkpt lat="49.38118" lon="1.19797">
        <ele>206.4</ele>
        <time>2012-05-06T08:47:15.094Z</time>
      </trkpt>
      <trkpt lat="49.38121" lon="1.19802">
        <ele>206.1</ele>
        <time>2012-05-06T08:47:16.094Z</time>
      </trkpt>
      <trkpt lat="49.38123" lon="1.19808">
        <ele>206.2</ele>
        <time>2012-05-06T08:47:17.095Z</time>
      </trkpt>
      <trkpt lat="49.38126" lon="1.19815">
        <ele>205.8</ele>
        <time>2012-05-06T08:47:18.096Z</time>
      </trkpt>
      <trkpt lat="49.38129" lon="1.19821">
        <ele>206</ele>
        <time>2012-05-06T08:47:19.088Z</time>
      </trkpt>
      <trkpt lat="49.38133" lon="1.19828">
        <ele>206.1</ele>
        <time>2012-05-06T08:47:20.093Z</time>
      </trkpt>
      <trkpt lat="49.38137" lon="1.19834">
        <ele>206</ele>
        <time>2012-05-06T08:47:21.096Z</time>
      </trkpt>
      <trkpt lat="49.38141" lon="1.19841">
        <ele>205.8</ele>
        <time>2012-05-06T08:47:22.101Z</time>
      </trkpt>
      <trkpt lat="49.38144" lon="1.19848">
        <ele>206.1</ele>
        <time>2012-05-06T08:47:23.089Z</time>
      </trkpt>
      <trkpt lat="49.38148" lon="1.19855">
        <ele>206.2</ele>
        <time>2012-05-06T08:47:24.093Z</time>
      </trkpt>
      <trkpt lat="49.38152" lon="1.19862">
        <ele>206.4</ele>
        <time>2012-05-06T08:47:25.094Z</time>
      </trkpt>
      <trkpt lat="49.38156" lon="1.19869">
        <ele>206.5</ele>
        <time>2012-05-06T08:47:26.094Z</time>
      </trkpt>
      <trkpt lat="49.3816" lon="1.19875">
        <ele>206.6</ele>
        <time>2012-05-06T08:47:27.087Z</time>
      </trkpt>
      <trkpt lat="49.38164" lon="1.19882">
        <ele>206.5</ele>
        <time>2012-05-06T08:47:28.081Z</time>
      </trkpt>
      <trkpt lat="49.38167" lon="1.1989">
        <ele>206.8</ele>
        <time>2012-05-06T08:47:29.091Z</time>
      </trkpt>
      <trkpt lat="49.38171" lon="1.19896">
        <ele>207</ele>
        <time>2012-05-06T08:47:30.093Z</time>
      </trkpt>
      <trkpt lat="49.38176" lon="1.19904">
        <ele>206.6</ele>
        <time>2012-05-06T08:47:31.090Z</time>
      </trkpt>
      <trkpt lat="49.38179" lon="1.1991">
        <ele>206.8</ele>
        <time>2012-05-06T08:47:32.081Z</time>
      </trkpt>
      <trkpt lat="49.38184" lon="1.19918">
        <ele>206.7</ele>
        <time>2012-05-06T08:47:33.091Z</time>
      </trkpt>
      <trkpt lat="49.38188" lon="1.19924">
        <ele>206.9</ele>
        <time>2012-05-06T08:47:34.094Z</time>
      </trkpt>
      <trkpt lat="49.38192" lon="1.19932">
        <ele>206.9</ele>
        <time>2012-05-06T08:47:35.091Z</time>
      </trkpt>
      <trkpt lat="49.38195" lon="1.19938">
        <ele>206.9</ele>
        <time>2012-05-06T08:47:36.081Z</time>
      </trkpt>
      <trkpt lat="49.38199" lon="1.19946">
        <ele>207</ele>
        <time>2012-05-06T08:47:37.091Z</time>
      </trkpt>
      <trkpt lat="49.38203" lon="1.19953">
        <ele>206.6</ele>
        <time>2012-05-06T08:47:38.094Z</time>
      </trkpt>
      <trkpt lat="49.38207" lon="1.1996">
        <ele>206.7</ele>
        <time>2012-05-06T08:47:39.092Z</time>
      </trkpt>
      <trkpt lat="49.38211" lon="1.19967">
        <ele>206.7</ele>
        <time>2012-05-06T08:47:40.090Z</time>
      </trkpt>
      <trkpt lat="49.38219" lon="1.19982">
        <ele>206.5</ele>
        <time>2012-05-06T08:47:42.092Z</time>
      </trkpt>
      <trkpt lat="49.38223" lon="1.1999">
        <ele>206.6</ele>
        <time>2012-05-06T08:47:43.092Z</time>
      </trkpt>
      <trkpt lat="49.38229" lon="1.20008">
        <ele>206.6</ele>
        <time>2012-05-06T08:47:45.091Z</time>
      </trkpt>
      <trkpt lat="49.38233" lon="1.20018">
        <ele>205.9</ele>
        <time>2012-05-06T08:47:46.094Z</time>
      </trkpt>
      <trkpt lat="49.38235" lon="1.20026">
        <ele>206.4</ele>
        <time>2012-05-06T08:47:47.094Z</time>
      </trkpt>
      <trkpt lat="49.38238" lon="1.20033">
        <ele>206.4</ele>
        <time>2012-05-06T08:47:48.085Z</time>
      </trkpt>
      <trkpt lat="49.38242" lon="1.2004">
        <ele>205.8</ele>
        <time>2012-05-06T08:47:49.077Z</time>
      </trkpt>
      <trkpt lat="49.38244" lon="1.20049">
        <ele>205.6</ele>
        <time>2012-05-06T08:47:50.092Z</time>
      </trkpt>
      <trkpt lat="49.38247" lon="1.20057">
        <ele>205.2</ele>
        <time>2012-05-06T08:47:51.092Z</time>
      </trkpt>
      <trkpt lat="49.3825" lon="1.20065">
        <ele>205.2</ele>
        <time>2012-05-06T08:47:52.091Z</time>
      </trkpt>
      <trkpt lat="49.38253" lon="1.20073">
        <ele>205.1</ele>
        <time>2012-05-06T08:47:53.101Z</time>
      </trkpt>
      <trkpt lat="49.38256" lon="1.20082">
        <ele>204.9</ele>
        <time>2012-05-06T08:47:54.097Z</time>
      </trkpt>
      <trkpt lat="49.38259" lon="1.20091">
        <ele>204.6</ele>
        <time>2012-05-06T08:47:55.094Z</time>
      </trkpt>
      <trkpt lat="49.38262" lon="1.201">
        <ele>204.3</ele>
        <time>2012-05-06T08:47:56.092Z</time>
      </trkpt>
      <trkpt lat="49.38264" lon="1.20109">
        <ele>204.1</ele>
        <time>2012-05-06T08:47:57.092Z</time>
      </trkpt>
      <trkpt lat="49.38267" lon="1.20118">
        <ele>203.9</ele>
        <time>2012-05-06T08:47:58.088Z</time>
      </trkpt>
      <trkpt lat="49.38269" lon="1.20127">
        <ele>203.7</ele>
        <time>2012-05-06T08:47:59.083Z</time>
      </trkpt>
      <trkpt lat="49.38271" lon="1.20137">
        <ele>204</ele>
        <time>2012-05-06T08:48:00.092Z</time>
      </trkpt>
      <trkpt lat="49.38273" lon="1.20148">
        <ele>203.9</ele>
        <time>2012-05-06T08:48:01.095Z</time>
      </trkpt>
      <trkpt lat="49.38276" lon="1.20158">
        <ele>203.7</ele>
        <time>2012-05-06T08:48:02.091Z</time>
      </trkpt>
      <trkpt lat="49.38278" lon="1.20168">
        <ele>203.6</ele>
        <time>2012-05-06T08:48:03.077Z</time>
      </trkpt>
      <trkpt lat="49.38279" lon="1.20178">
        <ele>203.1</ele>
        <time>2012-05-06T08:48:04.093Z</time>
      </trkpt>
      <trkpt lat="49.38281" lon="1.20189">
        <ele>202.3</ele>
        <time>2012-05-06T08:48:05.095Z</time>
      </trkpt>
      <trkpt lat="49.38283" lon="1.20199">
        <ele>202.1</ele>
        <time>2012-05-06T08:48:06.092Z</time>
      </trkpt>
      <trkpt lat="49.38285" lon="1.20209">
        <ele>201.8</ele>
        <time>2012-05-06T08:48:07.088Z</time>
      </trkpt>
      <trkpt lat="49.38285" lon="1.20218">
        <ele>201.7</ele>
        <time>2012-05-06T08:48:08.080Z</time>
      </trkpt>
      <trkpt lat="49.38284" lon="1.20227">
        <ele>201.6</ele>
        <time>2012-05-06T08:48:09.081Z</time>
      </trkpt>
      <trkpt lat="49.38281" lon="1.20234">
        <ele>201.3</ele>
        <time>2012-05-06T08:48:10.128Z</time>
      </trkpt>
      <trkpt lat="49.38277" lon="1.20239">
        <ele>201.3</ele>
        <time>2012-05-06T08:48:11.097Z</time>
      </trkpt>
      <trkpt lat="49.38273" lon="1.20244">
        <ele>200.6</ele>
        <time>2012-05-06T08:48:12.092Z</time>
      </trkpt>
      <trkpt lat="49.3827" lon="1.20253">
        <ele>200.8</ele>
        <time>2012-05-06T08:48:13.094Z</time>
      </trkpt>
      <trkpt lat="49.38267" lon="1.20261">
        <ele>200.5</ele>
        <time>2012-05-06T08:48:14.077Z</time>
      </trkpt>
      <trkpt lat="49.38265" lon="1.20271">
        <ele>200.4</ele>
        <time>2012-05-06T08:48:15.090Z</time>
      </trkpt>
      <trkpt lat="49.38262" lon="1.2028">
        <ele>200.7</ele>
        <time>2012-05-06T08:48:16.073Z</time>
      </trkpt>
      <trkpt lat="49.3826" lon="1.2029">
        <ele>200.7</ele>
        <time>2012-05-06T08:48:17.075Z</time>
      </trkpt>
      <trkpt lat="49.38258" lon="1.20299">
        <ele>201.1</ele>
        <time>2012-05-06T08:48:18.086Z</time>
      </trkpt>
      <trkpt lat="49.38256" lon="1.20308">
        <ele>200.8</ele>
        <time>2012-05-06T08:48:19.088Z</time>
      </trkpt>
      <trkpt lat="49.38254" lon="1.20317">
        <ele>200.2</ele>
        <time>2012-05-06T08:48:20.089Z</time>
      </trkpt>
      <trkpt lat="49.38252" lon="1.20326">
        <ele>199.6</ele>
        <time>2012-05-06T08:48:21.087Z</time>
      </trkpt>
      <trkpt lat="49.3825" lon="1.20335">
        <ele>199.3</ele>
        <time>2012-05-06T08:48:22.133Z</time>
      </trkpt>
      <trkpt lat="49.38248" lon="1.20343">
        <ele>199.2</ele>
        <time>2012-05-06T08:48:23.101Z</time>
      </trkpt>
      <trkpt lat="49.38245" lon="1.20353">
        <ele>200</ele>
        <time>2012-05-06T08:48:24.102Z</time>
      </trkpt>
      <trkpt lat="49.38243" lon="1.20362">
        <ele>199.7</ele>
        <time>2012-05-06T08:48:25.095Z</time>
      </trkpt>
      <trkpt lat="49.3824" lon="1.20371">
        <ele>199.5</ele>
        <time>2012-05-06T08:48:26.099Z</time>
      </trkpt>
      <trkpt lat="49.38238" lon="1.20381">
        <ele>200</ele>
        <time>2012-05-06T08:48:27.090Z</time>
      </trkpt>
      <trkpt lat="49.38236" lon="1.20391">
        <ele>200.4</ele>
        <time>2012-05-06T08:48:28.091Z</time>
      </trkpt>
      <trkpt lat="49.38234" lon="1.204">
        <ele>201</ele>
        <time>2012-05-06T08:48:29.090Z</time>
      </trkpt>
      <trkpt lat="49.38231" lon="1.20409">
        <ele>200.1</ele>
        <time>2012-05-06T08:48:30.087Z</time>
      </trkpt>
      <trkpt lat="49.3823" lon="1.20418">
        <ele>199.6</ele>
        <time>2012-05-06T08:48:31.086Z</time>
      </trkpt>
      <trkpt lat="49.38228" lon="1.20428">
        <ele>199.6</ele>
        <time>2012-05-06T08:48:32.089Z</time>
      </trkpt>
      <trkpt lat="49.38226" lon="1.20438">
        <ele>199.3</ele>
        <time>2012-05-06T08:48:33.092Z</time>
      </trkpt>
      <trkpt lat="49.38224" lon="1.20448">
        <ele>198.7</ele>
        <time>2012-05-06T08:48:34.097Z</time>
      </trkpt>
      <trkpt lat="49.38222" lon="1.20458">
        <ele>198</ele>
        <time>2012-05-06T08:48:35.081Z</time>
      </trkpt>
      <trkpt lat="49.38219" lon="1.20467">
        <ele>197.8</ele>
        <time>2012-05-06T08:48:36.090Z</time>
      </trkpt>
      <trkpt lat="49.38217" lon="1.20477">
        <ele>198.1</ele>
        <time>2012-05-06T08:48:37.093Z</time>
      </trkpt>
      <trkpt lat="49.38214" lon="1.20488">
        <ele>197.5</ele>
        <time>2012-05-06T08:48:38.094Z</time>
      </trkpt>
      <trkpt lat="49.38211" lon="1.20499">
        <ele>197.3</ele>
        <time>2012-05-06T08:48:39.095Z</time>
      </trkpt>
      <trkpt lat="49.38208" lon="1.20508">
        <ele>196.4</ele>
        <time>2012-05-06T08:48:40.093Z</time>
      </trkpt>
      <trkpt lat="49.38203" lon="1.20528">
        <ele>195.6</ele>
        <time>2012-05-06T08:48:42.281Z</time>
      </trkpt>
      <trkpt lat="49.382" lon="1.2054">
        <ele>195.3</ele>
        <time>2012-05-06T08:48:43.281Z</time>
      </trkpt>
      <trkpt lat="49.38195" lon="1.2056">
        <ele>194.4</ele>
        <time>2012-05-06T08:48:45.086Z</time>
      </trkpt>
      <trkpt lat="49.38195" lon="1.20572">
        <ele>194.5</ele>
        <time>2012-05-06T08:48:46.087Z</time>
      </trkpt>
      <trkpt lat="49.38196" lon="1.20582">
        <ele>194.1</ele>
        <time>2012-05-06T08:48:47.090Z</time>
      </trkpt>
      <trkpt lat="49.38198" lon="1.20593">
        <ele>194.3</ele>
        <time>2012-05-06T08:48:48.088Z</time>
      </trkpt>
      <trkpt lat="49.38201" lon="1.20602">
        <ele>194.4</ele>
        <time>2012-05-06T08:48:49.088Z</time>
      </trkpt>
      <trkpt lat="49.38205" lon="1.20609">
        <ele>193.3</ele>
        <time>2012-05-06T08:48:50.087Z</time>
      </trkpt>
      <trkpt lat="49.38204" lon="1.20618">
        <ele>193.1</ele>
        <time>2012-05-06T08:48:51.087Z</time>
      </trkpt>
      <trkpt lat="49.38202" lon="1.20626">
        <ele>193.2</ele>
        <time>2012-05-06T08:48:52.095Z</time>
      </trkpt>
      <trkpt lat="49.38198" lon="1.20633">
        <ele>193.3</ele>
        <time>2012-05-06T08:48:53.085Z</time>
      </trkpt>
      <trkpt lat="49.38193" lon="1.20639">
        <ele>192.9</ele>
        <time>2012-05-06T08:48:54.085Z</time>
      </trkpt>
      <trkpt lat="49.38188" lon="1.20645">
        <ele>192.9</ele>
        <time>2012-05-06T08:48:55.103Z</time>
      </trkpt>
      <trkpt lat="49.38183" lon="1.2065">
        <ele>193</ele>
        <time>2012-05-06T08:48:56.090Z</time>
      </trkpt>
      <trkpt lat="49.38179" lon="1.20657">
        <ele>192.8</ele>
        <time>2012-05-06T08:48:57.083Z</time>
      </trkpt>
      <trkpt lat="49.38174" lon="1.20665">
        <ele>192.8</ele>
        <time>2012-05-06T08:48:58.084Z</time>
      </trkpt>
      <trkpt lat="49.38168" lon="1.20672">
        <ele>193</ele>
        <time>2012-05-06T08:48:59.083Z</time>
      </trkpt>
      <trkpt lat="49.38163" lon="1.20679">
        <ele>192.6</ele>
        <time>2012-05-06T08:49:00.083Z</time>
      </trkpt>
      <trkpt lat="49.38158" lon="1.20686">
        <ele>192.5</ele>
        <time>2012-05-06T08:49:01.083Z</time>
      </trkpt>
      <trkpt lat="49.38153" lon="1.20691">
        <ele>192.1</ele>
        <time>2012-05-06T08:49:02.083Z</time>
      </trkpt>
      <trkpt lat="49.38147" lon="1.207">
        <ele>191.8</ele>
        <time>2012-05-06T08:49:03.084Z</time>
      </trkpt>
      <trkpt lat="49.38143" lon="1.20706">
        <ele>191.6</ele>
        <time>2012-05-06T08:49:04.083Z</time>
      </trkpt>
      <trkpt lat="49.38139" lon="1.20712">
        <ele>190.5</ele>
        <time>2012-05-06T08:49:05.076Z</time>
      </trkpt>
      <trkpt lat="49.38134" lon="1.2072">
        <ele>190.7</ele>
        <time>2012-05-06T08:49:06.087Z</time>
      </trkpt>
      <trkpt lat="49.38128" lon="1.20727">
        <ele>190.6</ele>
        <time>2012-05-06T08:49:07.098Z</time>
      </trkpt>
      <trkpt lat="49.38122" lon="1.20733">
        <ele>190.4</ele>
        <time>2012-05-06T08:49:08.089Z</time>
      </trkpt>
      <trkpt lat="49.38118" lon="1.2074">
        <ele>189.9</ele>
        <time>2012-05-06T08:49:09.106Z</time>
      </trkpt>
      <trkpt lat="49.38114" lon="1.20746">
        <ele>189.7</ele>
        <time>2012-05-06T08:49:10.080Z</time>
      </trkpt>
      <trkpt lat="49.38109" lon="1.20754">
        <ele>190.1</ele>
        <time>2012-05-06T08:49:11.080Z</time>
      </trkpt>
      <trkpt lat="49.38105" lon="1.20761">
        <ele>190</ele>
        <time>2012-05-06T08:49:12.079Z</time>
      </trkpt>
      <trkpt lat="49.381" lon="1.20768">
        <ele>189.8</ele>
        <time>2012-05-06T08:49:13.080Z</time>
      </trkpt>
      <trkpt lat="49.38095" lon="1.20774">
        <ele>189.7</ele>
        <time>2012-05-06T08:49:14.080Z</time>
      </trkpt>
      <trkpt lat="49.38091" lon="1.20782">
        <ele>189.1</ele>
        <time>2012-05-06T08:49:15.081Z</time>
      </trkpt>
      <trkpt lat="49.38087" lon="1.2079">
        <ele>189.5</ele>
        <time>2012-05-06T08:49:16.080Z</time>
      </trkpt>
      <trkpt lat="49.38083" lon="1.20798">
        <ele>189.6</ele>
        <time>2012-05-06T08:49:17.081Z</time>
      </trkpt>
      <trkpt lat="49.3808" lon="1.20807">
        <ele>190.1</ele>
        <time>2012-05-06T08:49:18.080Z</time>
      </trkpt>
      <trkpt lat="49.38076" lon="1.20815">
        <ele>191.1</ele>
        <time>2012-05-06T08:49:19.081Z</time>
      </trkpt>
      <trkpt lat="49.38073" lon="1.20825">
        <ele>191.3</ele>
        <time>2012-05-06T08:49:20.090Z</time>
      </trkpt>
      <trkpt lat="49.3807" lon="1.20834">
        <ele>191.7</ele>
        <time>2012-05-06T08:49:21.083Z</time>
      </trkpt>
      <trkpt lat="49.38067" lon="1.20842">
        <ele>192.5</ele>
        <time>2012-05-06T08:49:22.092Z</time>
      </trkpt>
      <trkpt lat="49.38064" lon="1.2085">
        <ele>192.6</ele>
        <time>2012-05-06T08:49:23.091Z</time>
      </trkpt>
      <trkpt lat="49.38061" lon="1.20858">
        <ele>192.2</ele>
        <time>2012-05-06T08:49:24.089Z</time>
      </trkpt>
      <trkpt lat="49.38058" lon="1.20865">
        <ele>192.9</ele>
        <time>2012-05-06T08:49:25.083Z</time>
      </trkpt>
      <trkpt lat="49.38056" lon="1.20872">
        <ele>193</ele>
        <time>2012-05-06T08:49:26.093Z</time>
      </trkpt>
      <trkpt lat="49.38053" lon="1.20879">
        <ele>193.4</ele>
        <time>2012-05-06T08:49:27.093Z</time>
      </trkpt>
      <trkpt lat="49.3805" lon="1.20886">
        <ele>193.1</ele>
        <time>2012-05-06T08:49:28.093Z</time>
      </trkpt>
      <trkpt lat="49.38048" lon="1.20892">
        <ele>193.1</ele>
        <time>2012-05-06T08:49:29.098Z</time>
      </trkpt>
      <trkpt lat="49.38046" lon="1.20898">
        <ele>193.3</ele>
        <time>2012-05-06T08:49:30.101Z</time>
      </trkpt>
      <trkpt lat="49.38043" lon="1.20905">
        <ele>193.4</ele>
        <time>2012-05-06T08:49:31.089Z</time>
      </trkpt>
      <trkpt lat="49.38042" lon="1.20911">
        <ele>193.6</ele>
        <time>2012-05-06T08:49:32.092Z</time>
      </trkpt>
      <trkpt lat="49.3804" lon="1.20918">
        <ele>193.1</ele>
        <time>2012-05-06T08:49:33.092Z</time>
      </trkpt>
      <trkpt lat="49.38037" lon="1.20924">
        <ele>192.9</ele>
        <time>2012-05-06T08:49:34.092Z</time>
      </trkpt>
      <trkpt lat="49.38032" lon="1.20934">
        <ele>192.8</ele>
        <time>2012-05-06T08:49:36.090Z</time>
      </trkpt>
      <trkpt lat="49.38027" lon="1.20943">
        <ele>192.2</ele>
        <time>2012-05-06T08:49:38.089Z</time>
      </trkpt>
      <trkpt lat="49.38023" lon="1.20953">
        <ele>192.2</ele>
        <time>2012-05-06T08:49:40.104Z</time>
      </trkpt>
      <trkpt lat="49.38018" lon="1.20964">
        <ele>192.1</ele>
        <time>2012-05-06T08:49:42.421Z</time>
      </trkpt>
      <trkpt lat="49.38015" lon="1.2097">
        <ele>192.3</ele>
        <time>2012-05-06T08:49:43.421Z</time>
      </trkpt>
      <trkpt lat="49.38012" lon="1.20979">
        <ele>192.5</ele>
        <time>2012-05-06T08:49:45.092Z</time>
      </trkpt>
      <trkpt lat="49.38007" lon="1.20986">
        <ele>192.4</ele>
        <time>2012-05-06T08:49:47.093Z</time>
      </trkpt>
      <trkpt lat="49.38003" lon="1.20994">
        <ele>192</ele>
        <time>2012-05-06T08:49:49.091Z</time>
      </trkpt>
      <trkpt lat="49.37999" lon="1.21003">
        <ele>192.3</ele>
        <time>2012-05-06T08:49:51.094Z</time>
      </trkpt>
      <trkpt lat="49.37995" lon="1.2101">
        <ele>192.1</ele>
        <time>2012-05-06T08:49:53.094Z</time>
      </trkpt>
      <trkpt lat="49.3799" lon="1.21018">
        <ele>192.2</ele>
        <time>2012-05-06T08:49:55.096Z</time>
      </trkpt>
      <trkpt lat="49.37985" lon="1.21025">
        <ele>191.8</ele>
        <time>2012-05-06T08:49:57.094Z</time>
      </trkpt>
      <trkpt lat="49.3798" lon="1.21032">
        <ele>192</ele>
        <time>2012-05-06T08:49:59.093Z</time>
      </trkpt>
      <trkpt lat="49.37975" lon="1.2104">
        <ele>192</ele>
        <time>2012-05-06T08:50:01.094Z</time>
      </trkpt>
      <trkpt lat="49.37969" lon="1.21048">
        <ele>192.5</ele>
        <time>2012-05-06T08:50:03.090Z</time>
      </trkpt>
      <trkpt lat="49.37963" lon="1.21055">
        <ele>192.3</ele>
        <time>2012-05-06T08:50:05.092Z</time>
      </trkpt>
      <trkpt lat="49.37957" lon="1.21061">
        <ele>192.2</ele>
        <time>2012-05-06T08:50:07.092Z</time>
      </trkpt>
      <trkpt lat="49.37951" lon="1.21067">
        <ele>193.2</ele>
        <time>2012-05-06T08:50:09.093Z</time>
      </trkpt>
      <trkpt lat="49.37945" lon="1.21072">
        <ele>193.5</ele>
        <time>2012-05-06T08:50:11.092Z</time>
      </trkpt>
      <trkpt lat="49.37939" lon="1.21078">
        <ele>194.1</ele>
        <time>2012-05-06T08:50:13.092Z</time>
      </trkpt>
      <trkpt lat="49.37933" lon="1.21084">
        <ele>194</ele>
        <time>2012-05-06T08:50:15.086Z</time>
      </trkpt>
      <trkpt lat="49.37926" lon="1.21089">
        <ele>194.6</ele>
        <time>2012-05-06T08:50:17.089Z</time>
      </trkpt>
      <trkpt lat="49.3792" lon="1.21095">
        <ele>194.8</ele>
        <time>2012-05-06T08:50:19.090Z</time>
      </trkpt>
      <trkpt lat="49.37914" lon="1.21101">
        <ele>195.1</ele>
        <time>2012-05-06T08:50:21.095Z</time>
      </trkpt>
      <trkpt lat="49.37908" lon="1.21106">
        <ele>195.7</ele>
        <time>2012-05-06T08:50:23.092Z</time>
      </trkpt>
      <trkpt lat="49.37902" lon="1.2111">
        <ele>196.4</ele>
        <time>2012-05-06T08:50:25.094Z</time>
      </trkpt>
      <trkpt lat="49.37896" lon="1.21115">
        <ele>196.1</ele>
        <time>2012-05-06T08:50:27.090Z</time>
      </trkpt>
      <trkpt lat="49.3789" lon="1.2112">
        <ele>196.7</ele>
        <time>2012-05-06T08:50:29.096Z</time>
      </trkpt>
      <trkpt lat="49.37884" lon="1.21127">
        <ele>196.7</ele>
        <time>2012-05-06T08:50:31.092Z</time>
      </trkpt>
      <trkpt lat="49.37879" lon="1.21135">
        <ele>196.9</ele>
        <time>2012-05-06T08:50:33.126Z</time>
      </trkpt>
      <trkpt lat="49.37874" lon="1.21142">
        <ele>197.4</ele>
        <time>2012-05-06T08:50:35.088Z</time>
      </trkpt>
      <trkpt lat="49.37869" lon="1.21149">
        <ele>197.9</ele>
        <time>2012-05-06T08:50:37.080Z</time>
      </trkpt>
      <trkpt lat="49.37864" lon="1.21157">
        <ele>198</ele>
        <time>2012-05-06T08:50:39.080Z</time>
      </trkpt>
      <trkpt lat="49.37855" lon="1.2117">
        <ele>198</ele>
        <time>2012-05-06T08:50:42.251Z</time>
      </trkpt>
      <trkpt lat="49.37851" lon="1.21176">
        <ele>198.4</ele>
        <time>2012-05-06T08:50:43.719Z</time>
      </trkpt>
      <trkpt lat="49.37847" lon="1.21182">
        <ele>198.5</ele>
        <time>2012-05-06T08:50:45.081Z</time>
      </trkpt>
      <trkpt lat="49.37841" lon="1.2119">
        <ele>198.2</ele>
        <time>2012-05-06T08:50:47.077Z</time>
      </trkpt>
      <trkpt lat="49.37835" lon="1.21198">
        <ele>198.3</ele>
        <time>2012-05-06T08:50:49.093Z</time>
      </trkpt>
      <trkpt lat="49.37829" lon="1.21206">
        <ele>198.1</ele>
        <time>2012-05-06T08:50:51.079Z</time>
      </trkpt>
      <trkpt lat="49.37826" lon="1.21211">
        <ele>197.8</ele>
        <time>2012-05-06T08:50:52.090Z</time>
      </trkpt>
      <trkpt lat="49.37823" lon="1.21216">
        <ele>197.4</ele>
        <time>2012-05-06T08:50:53.082Z</time>
      </trkpt>
      <trkpt lat="49.37818" lon="1.21221">
        <ele>197.3</ele>
        <time>2012-05-06T08:50:54.095Z</time>
      </trkpt>
      <trkpt lat="49.37811" lon="1.2123">
        <ele>197</ele>
        <time>2012-05-06T08:50:56.093Z</time>
      </trkpt>
      <trkpt lat="49.37808" lon="1.21234">
        <ele>196.5</ele>
        <time>2012-05-06T08:50:57.078Z</time>
      </trkpt>
      <trkpt lat="49.37804" lon="1.21239">
        <ele>196.1</ele>
        <time>2012-05-06T08:50:58.090Z</time>
      </trkpt>
      <trkpt lat="49.37799" lon="1.21244">
        <ele>195.5</ele>
        <time>2012-05-06T08:50:59.088Z</time>
      </trkpt>
      <trkpt lat="49.37795" lon="1.21249">
        <ele>195.2</ele>
        <time>2012-05-06T08:51:00.095Z</time>
      </trkpt>
      <trkpt lat="49.3779" lon="1.21253">
        <ele>194.7</ele>
        <time>2012-05-06T08:51:01.091Z</time>
      </trkpt>
      <trkpt lat="49.37786" lon="1.21257">
        <ele>194.4</ele>
        <time>2012-05-06T08:51:02.081Z</time>
      </trkpt>
      <trkpt lat="49.37782" lon="1.2126">
        <ele>194</ele>
        <time>2012-05-06T08:51:03.084Z</time>
      </trkpt>
      <trkpt lat="49.37778" lon="1.21263">
        <ele>193.6</ele>
        <time>2012-05-06T08:51:04.088Z</time>
      </trkpt>
      <trkpt lat="49.37769" lon="1.21269">
        <ele>192.4</ele>
        <time>2012-05-06T08:51:06.089Z</time>
      </trkpt>
      <trkpt lat="49.37764" lon="1.21272">
        <ele>192.2</ele>
        <time>2012-05-06T08:51:07.084Z</time>
      </trkpt>
      <trkpt lat="49.3776" lon="1.21274">
        <ele>192.2</ele>
        <time>2012-05-06T08:51:08.095Z</time>
      </trkpt>
      <trkpt lat="49.37751" lon="1.21278">
        <ele>192.5</ele>
        <time>2012-05-06T08:51:10.078Z</time>
      </trkpt>
      <trkpt lat="49.37747" lon="1.2128">
        <ele>192.4</ele>
        <time>2012-05-06T08:51:11.087Z</time>
      </trkpt>
      <trkpt lat="49.37742" lon="1.21283">
        <ele>192.2</ele>
        <time>2012-05-06T08:51:12.082Z</time>
      </trkpt>
      <trkpt lat="49.37738" lon="1.21286">
        <ele>192.1</ele>
        <time>2012-05-06T08:51:13.092Z</time>
      </trkpt>
      <trkpt lat="49.37731" lon="1.21289">
        <ele>191.7</ele>
        <time>2012-05-06T08:51:15.086Z</time>
      </trkpt>
      <trkpt lat="49.37726" lon="1.21292">
        <ele>190.8</ele>
        <time>2012-05-06T08:51:17.093Z</time>
      </trkpt>
      <trkpt lat="49.37719" lon="1.21296">
        <ele>190.8</ele>
        <time>2012-05-06T08:51:19.094Z</time>
      </trkpt>
      <trkpt lat="49.37714" lon="1.21299">
        <ele>191.1</ele>
        <time>2012-05-06T08:51:20.092Z</time>
      </trkpt>
      <trkpt lat="49.37709" lon="1.21301">
        <ele>191.1</ele>
        <time>2012-05-06T08:51:21.093Z</time>
      </trkpt>
      <trkpt lat="49.37704" lon="1.21303">
        <ele>191</ele>
        <time>2012-05-06T08:51:22.097Z</time>
      </trkpt>
      <trkpt lat="49.37699" lon="1.21306">
        <ele>190.7</ele>
        <time>2012-05-06T08:51:23.089Z</time>
      </trkpt>
      <trkpt lat="49.37693" lon="1.21309">
        <ele>190.1</ele>
        <time>2012-05-06T08:51:24.095Z</time>
      </trkpt>
      <trkpt lat="49.37688" lon="1.21312">
        <ele>190.1</ele>
        <time>2012-05-06T08:51:25.096Z</time>
      </trkpt>
      <trkpt lat="49.37682" lon="1.21315">
        <ele>190</ele>
        <time>2012-05-06T08:51:26.090Z</time>
      </trkpt>
      <trkpt lat="49.37677" lon="1.21318">
        <ele>189.5</ele>
        <time>2012-05-06T08:51:27.093Z</time>
      </trkpt>
      <trkpt lat="49.37671" lon="1.21321">
        <ele>189.2</ele>
        <time>2012-05-06T08:51:28.097Z</time>
      </trkpt>
      <trkpt lat="49.37666" lon="1.21324">
        <ele>188.3</ele>
        <time>2012-05-06T08:51:29.093Z</time>
      </trkpt>
      <trkpt lat="49.3766" lon="1.21327">
        <ele>187.6</ele>
        <time>2012-05-06T08:51:30.094Z</time>
      </trkpt>
      <trkpt lat="49.37653" lon="1.21329">
        <ele>187.4</ele>
        <time>2012-05-06T08:51:31.090Z</time>
      </trkpt>
      <trkpt lat="49.37647" lon="1.21331">
        <ele>186.6</ele>
        <time>2012-05-06T08:51:32.081Z</time>
      </trkpt>
      <trkpt lat="49.3764" lon="1.21334">
        <ele>186.1</ele>
        <time>2012-05-06T08:51:33.096Z</time>
      </trkpt>
      <trkpt lat="49.37635" lon="1.21336">
        <ele>185.4</ele>
        <time>2012-05-06T08:51:34.095Z</time>
      </trkpt>
      <trkpt lat="49.3763" lon="1.21338">
        <ele>186.1</ele>
        <time>2012-05-06T08:51:35.091Z</time>
      </trkpt>
      <trkpt lat="49.37623" lon="1.21338">
        <ele>186.5</ele>
        <time>2012-05-06T08:51:37.103Z</time>
      </trkpt>
      <trkpt lat="49.37616" lon="1.21337">
        <ele>186.6</ele>
        <time>2012-05-06T08:51:39.092Z</time>
      </trkpt>
      <trkpt lat="49.37605" lon="1.21333">
        <ele>186.6</ele>
        <time>2012-05-06T08:51:42.241Z</time>
      </trkpt>
      <trkpt lat="49.37598" lon="1.21336">
        <ele>186.3</ele>
        <time>2012-05-06T08:51:43.241Z</time>
      </trkpt>
      <trkpt lat="49.37586" lon="1.21341">
        <ele>187.1</ele>
        <time>2012-05-06T08:51:45.080Z</time>
      </trkpt>
      <trkpt lat="49.37579" lon="1.21341">
        <ele>187.2</ele>
        <time>2012-05-06T08:51:47.092Z</time>
      </trkpt>
      <trkpt lat="49.37574" lon="1.21338">
        <ele>186.7</ele>
        <time>2012-05-06T08:51:48.082Z</time>
      </trkpt>
      <trkpt lat="49.37568" lon="1.21337">
        <ele>186.9</ele>
        <time>2012-05-06T08:51:50.095Z</time>
      </trkpt>
      <trkpt lat="49.37559" lon="1.21336">
        <ele>185.8</ele>
        <time>2012-05-06T08:51:52.085Z</time>
      </trkpt>
      <trkpt lat="49.37553" lon="1.21331">
        <ele>185.6</ele>
        <time>2012-05-06T08:51:53.094Z</time>
      </trkpt>
      <trkpt lat="49.37546" lon="1.2133">
        <ele>185.9</ele>
        <time>2012-05-06T08:51:54.090Z</time>
      </trkpt>
      <trkpt lat="49.37535" lon="1.2133">
        <ele>185.6</ele>
        <time>2012-05-06T08:51:56.078Z</time>
      </trkpt>
      <trkpt lat="49.37527" lon="1.21336">
        <ele>186.7</ele>
        <time>2012-05-06T08:51:58.092Z</time>
      </trkpt>
      <trkpt lat="49.3752" lon="1.21336">
        <ele>186.5</ele>
        <time>2012-05-06T08:51:59.078Z</time>
      </trkpt>
      <trkpt lat="49.37515" lon="1.21328">
        <ele>186.1</ele>
        <time>2012-05-06T08:52:01.079Z</time>
      </trkpt>
      <trkpt lat="49.37508" lon="1.21323">
        <ele>184.9</ele>
        <time>2012-05-06T08:52:03.092Z</time>
      </trkpt>
      <trkpt lat="49.375" lon="1.21328">
        <ele>192.4</ele>
        <time>2012-05-06T08:52:05.078Z</time>
      </trkpt>
      <trkpt lat="49.37491" lon="1.21331">
        <ele>189.4</ele>
        <time>2012-05-06T08:52:07.086Z</time>
      </trkpt>
      <trkpt lat="49.37486" lon="1.21333">
        <ele>188.9</ele>
        <time>2012-05-06T08:52:08.090Z</time>
      </trkpt>
      <trkpt lat="49.3748" lon="1.21334">
        <ele>187.6</ele>
        <time>2012-05-06T08:52:09.100Z</time>
      </trkpt>
      <trkpt lat="49.37474" lon="1.21334">
        <ele>186.9</ele>
        <time>2012-05-06T08:52:10.076Z</time>
      </trkpt>
      <trkpt lat="49.37466" lon="1.21337">
        <ele>185.3</ele>
        <time>2012-05-06T08:52:12.087Z</time>
      </trkpt>
      <trkpt lat="49.37461" lon="1.21339">
        <ele>184.8</ele>
        <time>2012-05-06T08:52:13.093Z</time>
      </trkpt>
      <trkpt lat="49.37457" lon="1.21343">
        <ele>184.2</ele>
        <time>2012-05-06T08:52:14.078Z</time>
      </trkpt>
      <trkpt lat="49.37451" lon="1.21348">
        <ele>180.3</ele>
        <time>2012-05-06T08:52:16.088Z</time>
      </trkpt>
      <trkpt lat="49.37445" lon="1.21349">
        <ele>176</ele>
        <time>2012-05-06T08:52:18.094Z</time>
      </trkpt>
      <trkpt lat="49.37439" lon="1.21349">
        <ele>174.3</ele>
        <time>2012-05-06T08:52:20.080Z</time>
      </trkpt>
      <trkpt lat="49.37435" lon="1.21352">
        <ele>174.5</ele>
        <time>2012-05-06T08:52:22.094Z</time>
      </trkpt>
      <trkpt lat="49.37425" lon="1.21356">
        <ele>170.5</ele>
        <time>2012-05-06T08:52:24.092Z</time>
      </trkpt>
      <trkpt lat="49.37418" lon="1.2136">
        <ele>167.3</ele>
        <time>2012-05-06T08:52:26.092Z</time>
      </trkpt>
      <trkpt lat="49.3741" lon="1.21364">
        <ele>166.3</ele>
        <time>2012-05-06T08:52:28.078Z</time>
      </trkpt>
      <trkpt lat="49.37404" lon="1.21364">
        <ele>164.4</ele>
        <time>2012-05-06T08:52:30.094Z</time>
      </trkpt>
      <trkpt lat="49.37399" lon="1.21366">
        <ele>164.3</ele>
        <time>2012-05-06T08:52:35.094Z</time>
      </trkpt>
      <trkpt lat="49.37394" lon="1.2137">
        <ele>156.5</ele>
        <time>2012-05-06T08:52:37.076Z</time>
      </trkpt>
      <trkpt lat="49.37389" lon="1.21369">
        <ele>153</ele>
        <time>2012-05-06T08:52:39.088Z</time>
      </trkpt>
      <trkpt lat="49.37382" lon="1.21367">
        <ele>150.9</ele>
        <time>2012-05-06T08:52:42.301Z</time>
      </trkpt>
      <trkpt lat="49.37376" lon="1.21362">
        <ele>147.3</ele>
        <time>2012-05-06T08:52:46.091Z</time>
      </trkpt>
      <trkpt lat="49.37371" lon="1.21357">
        <ele>150.3</ele>
        <time>2012-05-06T08:52:50.090Z</time>
      </trkpt>
      <trkpt lat="49.37367" lon="1.21352">
        <ele>153.8</ele>
        <time>2012-05-06T08:52:55.119Z</time>
      </trkpt>
      <trkpt lat="49.37362" lon="1.21352">
        <ele>156.6</ele>
        <time>2012-05-06T08:52:59.089Z</time>
      </trkpt>
      <trkpt lat="49.37356" lon="1.2135">
        <ele>156.9</ele>
        <time>2012-05-06T08:53:01.092Z</time>
      </trkpt>
      <trkpt lat="49.37352" lon="1.21348">
        <ele>161.8</ele>
        <time>2012-05-06T08:53:16.092Z</time>
      </trkpt>
      <trkpt lat="49.37349" lon="1.21342">
        <ele>168.1</ele>
        <time>2012-05-06T08:53:38.252Z</time>
      </trkpt>
      <trkpt lat="49.37344" lon="1.2134">
        <ele>167.2</ele>
        <time>2012-05-06T08:53:40.719Z</time>
      </trkpt>
      <trkpt lat="49.37339" lon="1.21339">
        <ele>169</ele>
        <time>2012-05-06T08:53:44.081Z</time>
      </trkpt>
      <trkpt lat="49.37334" lon="1.21339">
        <ele>171.4</ele>
        <time>2012-05-06T08:53:54.099Z</time>
      </trkpt>
      <trkpt lat="49.37329" lon="1.21336">
        <ele>171.9</ele>
        <time>2012-05-06T08:53:57.090Z</time>
      </trkpt>
      <trkpt lat="49.37323" lon="1.21336">
        <ele>172.7</ele>
        <time>2012-05-06T08:54:00.094Z</time>
      </trkpt>
      <trkpt lat="49.37316" lon="1.21342">
        <ele>178.1</ele>
        <time>2012-05-06T08:54:05.093Z</time>
      </trkpt>
      <trkpt lat="49.37314" lon="1.21336">
        <ele>185.2</ele>
        <time>2012-05-06T08:54:07.093Z</time>
      </trkpt>
      <trkpt lat="49.37309" lon="1.21339">
        <ele>186.3</ele>
        <time>2012-05-06T08:54:10.094Z</time>
      </trkpt>
      <trkpt lat="49.37304" lon="1.21344">
        <ele>187.4</ele>
        <time>2012-05-06T08:54:13.077Z</time>
      </trkpt>
      <trkpt lat="49.37297" lon="1.21346">
        <ele>186.3</ele>
        <time>2012-05-06T08:54:16.094Z</time>
      </trkpt>
      <trkpt lat="49.37289" lon="1.21348">
        <ele>186.5</ele>
        <time>2012-05-06T08:54:18.092Z</time>
      </trkpt>
      <trkpt lat="49.37285" lon="1.21353">
        <ele>186.1</ele>
        <time>2012-05-06T08:54:19.092Z</time>
      </trkpt>
      <trkpt lat="49.37282" lon="1.21359">
        <ele>184.1</ele>
        <time>2012-05-06T08:54:21.076Z</time>
      </trkpt>
      <trkpt lat="49.37278" lon="1.21363">
        <ele>182.1</ele>
        <time>2012-05-06T08:54:24.094Z</time>
      </trkpt>
      <trkpt lat="49.37272" lon="1.21364">
        <ele>185.3</ele>
        <time>2012-05-06T08:54:29.093Z</time>
      </trkpt>
      <trkpt lat="49.37265" lon="1.21365">
        <ele>190.1</ele>
        <time>2012-05-06T08:54:31.090Z</time>
      </trkpt>
      <trkpt lat="49.37259" lon="1.21368">
        <ele>191.5</ele>
        <time>2012-05-06T08:54:33.089Z</time>
      </trkpt>
      <trkpt lat="49.37252" lon="1.2137">
        <ele>190.4</ele>
        <time>2012-05-06T08:54:35.094Z</time>
      </trkpt>
      <trkpt lat="49.37245" lon="1.21369">
        <ele>190</ele>
        <time>2012-05-06T08:54:37.118Z</time>
      </trkpt>
      <trkpt lat="49.3724" lon="1.21372">
        <ele>190.7</ele>
        <time>2012-05-06T08:54:39.093Z</time>
      </trkpt>
      <trkpt lat="49.37228" lon="1.21368">
        <ele>190.2</ele>
        <time>2012-05-06T08:54:42.256Z</time>
      </trkpt>
      <trkpt lat="49.37222" lon="1.21369">
        <ele>189.7</ele>
        <time>2012-05-06T08:54:43.256Z</time>
      </trkpt>
      <trkpt lat="49.37217" lon="1.21373">
        <ele>189.5</ele>
        <time>2012-05-06T08:54:45.086Z</time>
      </trkpt>
      <trkpt lat="49.37212" lon="1.21377">
        <ele>189.7</ele>
        <time>2012-05-06T08:54:47.087Z</time>
      </trkpt>
      <trkpt lat="49.37206" lon="1.21381">
        <ele>188.8</ele>
        <time>2012-05-06T08:54:49.099Z</time>
      </trkpt>
      <trkpt lat="49.372" lon="1.21392">
        <ele>187.5</ele>
        <time>2012-05-06T08:54:51.082Z</time>
      </trkpt>
      <trkpt lat="49.37197" lon="1.21398">
        <ele>187.2</ele>
        <time>2012-05-06T08:54:53.094Z</time>
      </trkpt>
      <trkpt lat="49.37194" lon="1.21405">
        <ele>186</ele>
        <time>2012-05-06T08:54:55.087Z</time>
      </trkpt>
      <trkpt lat="49.37188" lon="1.21404">
        <ele>180.8</ele>
        <time>2012-05-06T08:54:57.087Z</time>
      </trkpt>
      <trkpt lat="49.37181" lon="1.21406">
        <ele>177.7</ele>
        <time>2012-05-06T08:54:59.089Z</time>
      </trkpt>
      <trkpt lat="49.37177" lon="1.21404">
        <ele>177.7</ele>
        <time>2012-05-06T08:55:00.083Z</time>
      </trkpt>
      <trkpt lat="49.37172" lon="1.21407">
        <ele>178.9</ele>
        <time>2012-05-06T08:55:01.089Z</time>
      </trkpt>
      <trkpt lat="49.37163" lon="1.21411">
        <ele>180.9</ele>
        <time>2012-05-06T08:55:03.093Z</time>
      </trkpt>
      <trkpt lat="49.37158" lon="1.21414">
        <ele>180.6</ele>
        <time>2012-05-06T08:55:04.091Z</time>
      </trkpt>
      <trkpt lat="49.37153" lon="1.21418">
        <ele>176</ele>
        <time>2012-05-06T08:55:05.090Z</time>
      </trkpt>
      <trkpt lat="49.37144" lon="1.21425">
        <ele>172</ele>
        <time>2012-05-06T08:55:07.081Z</time>
      </trkpt>
      <trkpt lat="49.3714" lon="1.21428">
        <ele>171.8</ele>
        <time>2012-05-06T08:55:08.094Z</time>
      </trkpt>
      <trkpt lat="49.37131" lon="1.21432">
        <ele>171.9</ele>
        <time>2012-05-06T08:55:10.092Z</time>
      </trkpt>
      <trkpt lat="49.37123" lon="1.21436">
        <ele>174.4</ele>
        <time>2012-05-06T08:55:12.095Z</time>
      </trkpt>
      <trkpt lat="49.37112" lon="1.21438">
        <ele>174.3</ele>
        <time>2012-05-06T08:55:14.096Z</time>
      </trkpt>
      <trkpt lat="49.37104" lon="1.21444">
        <ele>174.4</ele>
        <time>2012-05-06T08:55:16.092Z</time>
      </trkpt>
      <trkpt lat="49.371" lon="1.21449">
        <ele>175.4</ele>
        <time>2012-05-06T08:55:17.094Z</time>
      </trkpt>
      <trkpt lat="49.37096" lon="1.21455">
        <ele>176.6</ele>
        <time>2012-05-06T08:55:18.092Z</time>
      </trkpt>
      <trkpt lat="49.37092" lon="1.21461">
        <ele>177.7</ele>
        <time>2012-05-06T08:55:19.097Z</time>
      </trkpt>
      <trkpt lat="49.37084" lon="1.21468">
        <ele>176.8</ele>
        <time>2012-05-06T08:55:21.112Z</time>
      </trkpt>
      <trkpt lat="49.3708" lon="1.21471">
        <ele>177.7</ele>
        <time>2012-05-06T08:55:22.104Z</time>
      </trkpt>
      <trkpt lat="49.37077" lon="1.21477">
        <ele>177.7</ele>
        <time>2012-05-06T08:55:23.086Z</time>
      </trkpt>
      <trkpt lat="49.37073" lon="1.21483">
        <ele>178.1</ele>
        <time>2012-05-06T08:55:24.094Z</time>
      </trkpt>
      <trkpt lat="49.37068" lon="1.21487">
        <ele>179.7</ele>
        <time>2012-05-06T08:55:25.096Z</time>
      </trkpt>
      <trkpt lat="49.37064" lon="1.21492">
        <ele>179.1</ele>
        <time>2012-05-06T08:55:26.097Z</time>
      </trkpt>
      <trkpt lat="49.37057" lon="1.215">
        <ele>179.9</ele>
        <time>2012-05-06T08:55:28.094Z</time>
      </trkpt>
      <trkpt lat="49.37052" lon="1.21504">
        <ele>180.6</ele>
        <time>2012-05-06T08:55:29.090Z</time>
      </trkpt>
      <trkpt lat="49.37048" lon="1.2151">
        <ele>182.2</ele>
        <time>2012-05-06T08:55:30.094Z</time>
      </trkpt>
      <trkpt lat="49.37045" lon="1.21516">
        <ele>181.9</ele>
        <time>2012-05-06T08:55:31.096Z</time>
      </trkpt>
      <trkpt lat="49.3704" lon="1.21525">
        <ele>185.8</ele>
        <time>2012-05-06T08:55:33.092Z</time>
      </trkpt>
      <trkpt lat="49.37037" lon="1.21532">
        <ele>187.2</ele>
        <time>2012-05-06T08:55:34.092Z</time>
      </trkpt>
      <trkpt lat="49.37031" lon="1.21535">
        <ele>186</ele>
        <time>2012-05-06T08:55:36.081Z</time>
      </trkpt>
      <trkpt lat="49.37026" lon="1.21537">
        <ele>186.2</ele>
        <time>2012-05-06T08:55:37.091Z</time>
      </trkpt>
      <trkpt lat="49.37022" lon="1.21541">
        <ele>185.2</ele>
        <time>2012-05-06T08:55:38.094Z</time>
      </trkpt>
      <trkpt lat="49.37012" lon="1.21547">
        <ele>183.9</ele>
        <time>2012-05-06T08:55:40.096Z</time>
      </trkpt>
      <trkpt lat="49.37001" lon="1.21552">
        <ele>183.1</ele>
        <time>2012-05-06T08:55:42.246Z</time>
      </trkpt>
      <trkpt lat="49.36997" lon="1.21556">
        <ele>182.9</ele>
        <time>2012-05-06T08:55:43.246Z</time>
      </trkpt>
      <trkpt lat="49.36989" lon="1.21566">
        <ele>183</ele>
        <time>2012-05-06T08:55:45.092Z</time>
      </trkpt>
      <trkpt lat="49.36985" lon="1.21572">
        <ele>183</ele>
        <time>2012-05-06T08:55:46.087Z</time>
      </trkpt>
      <trkpt lat="49.36981" lon="1.21577">
        <ele>183.7</ele>
        <time>2012-05-06T08:55:47.075Z</time>
      </trkpt>
      <trkpt lat="49.36974" lon="1.21584">
        <ele>181.7</ele>
        <time>2012-05-06T08:55:48.081Z</time>
      </trkpt>
      <trkpt lat="49.3697" lon="1.21589">
        <ele>181.8</ele>
        <time>2012-05-06T08:55:49.093Z</time>
      </trkpt>
      <trkpt lat="49.36964" lon="1.21593">
        <ele>182.6</ele>
        <time>2012-05-06T08:55:50.079Z</time>
      </trkpt>
      <trkpt lat="49.36959" lon="1.21595">
        <ele>182.2</ele>
        <time>2012-05-06T08:55:51.090Z</time>
      </trkpt>
      <trkpt lat="49.36955" lon="1.21602">
        <ele>183</ele>
        <time>2012-05-06T08:55:52.091Z</time>
      </trkpt>
      <trkpt lat="49.36951" lon="1.21609">
        <ele>181.8</ele>
        <time>2012-05-06T08:55:53.099Z</time>
      </trkpt>
      <trkpt lat="49.36946" lon="1.21613">
        <ele>181.7</ele>
        <time>2012-05-06T08:55:54.098Z</time>
      </trkpt>
      <trkpt lat="49.36941" lon="1.2162">
        <ele>180.7</ele>
        <time>2012-05-06T08:55:55.091Z</time>
      </trkpt>
      <trkpt lat="49.36936" lon="1.21624">
        <ele>181.5</ele>
        <time>2012-05-06T08:55:56.096Z</time>
      </trkpt>
      <trkpt lat="49.36932" lon="1.2163">
        <ele>182</ele>
        <time>2012-05-06T08:55:57.092Z</time>
      </trkpt>
      <trkpt lat="49.36927" lon="1.21635">
        <ele>180.4</ele>
        <time>2012-05-06T08:55:58.091Z</time>
      </trkpt>
      <trkpt lat="49.3692" lon="1.21642">
        <ele>181.9</ele>
        <time>2012-05-06T08:56:00.092Z</time>
      </trkpt>
      <trkpt lat="49.36913" lon="1.21647">
        <ele>182.9</ele>
        <time>2012-05-06T08:56:02.093Z</time>
      </trkpt>
      <trkpt lat="49.36905" lon="1.21651">
        <ele>183.7</ele>
        <time>2012-05-06T08:56:04.094Z</time>
      </trkpt>
      <trkpt lat="49.36897" lon="1.21656">
        <ele>183.6</ele>
        <time>2012-05-06T08:56:06.087Z</time>
      </trkpt>
      <trkpt lat="49.36891" lon="1.21663">
        <ele>184.4</ele>
        <time>2012-05-06T08:56:08.096Z</time>
      </trkpt>
      <trkpt lat="49.36884" lon="1.2167">
        <ele>185.3</ele>
        <time>2012-05-06T08:56:10.096Z</time>
      </trkpt>
      <trkpt lat="49.36878" lon="1.21676">
        <ele>186.2</ele>
        <time>2012-05-06T08:56:12.094Z</time>
      </trkpt>
      <trkpt lat="49.36874" lon="1.2168">
        <ele>186.8</ele>
        <time>2012-05-06T08:56:13.081Z</time>
      </trkpt>
      <trkpt lat="49.3687" lon="1.21683">
        <ele>186.8</ele>
        <time>2012-05-06T08:56:14.090Z</time>
      </trkpt>
      <trkpt lat="49.36866" lon="1.21687">
        <ele>186.8</ele>
        <time>2012-05-06T08:56:15.091Z</time>
      </trkpt>
      <trkpt lat="49.3686" lon="1.21693">
        <ele>187.3</ele>
        <time>2012-05-06T08:56:17.091Z</time>
      </trkpt>
      <trkpt lat="49.36852" lon="1.21698">
        <ele>187.8</ele>
        <time>2012-05-06T08:56:19.090Z</time>
      </trkpt>
      <trkpt lat="49.36845" lon="1.21705">
        <ele>188.2</ele>
        <time>2012-05-06T08:56:21.094Z</time>
      </trkpt>
      <trkpt lat="49.36838" lon="1.21712">
        <ele>188.6</ele>
        <time>2012-05-06T08:56:23.088Z</time>
      </trkpt>
      <trkpt lat="49.36831" lon="1.21718">
        <ele>189.4</ele>
        <time>2012-05-06T08:56:25.094Z</time>
      </trkpt>
      <trkpt lat="49.36824" lon="1.21724">
        <ele>190.3</ele>
        <time>2012-05-06T08:56:27.090Z</time>
      </trkpt>
      <trkpt lat="49.36817" lon="1.2173">
        <ele>191</ele>
        <time>2012-05-06T08:56:29.093Z</time>
      </trkpt>
      <trkpt lat="49.36811" lon="1.21736">
        <ele>192</ele>
        <time>2012-05-06T08:56:31.096Z</time>
      </trkpt>
      <trkpt lat="49.36804" lon="1.21742">
        <ele>192.7</ele>
        <time>2012-05-06T08:56:33.087Z</time>
      </trkpt>
      <trkpt lat="49.36798" lon="1.21748">
        <ele>193.4</ele>
        <time>2012-05-06T08:56:35.096Z</time>
      </trkpt>
      <trkpt lat="49.36793" lon="1.21754">
        <ele>193.3</ele>
        <time>2012-05-06T08:56:37.093Z</time>
      </trkpt>
      <trkpt lat="49.36787" lon="1.2176">
        <ele>194.2</ele>
        <time>2012-05-06T08:56:39.093Z</time>
      </trkpt>
      <trkpt lat="49.36777" lon="1.2177">
        <ele>195</ele>
        <time>2012-05-06T08:56:42.262Z</time>
      </trkpt>
      <trkpt lat="49.36773" lon="1.21774">
        <ele>195.2</ele>
        <time>2012-05-06T08:56:43.653Z</time>
      </trkpt>
      <trkpt lat="49.36769" lon="1.21779">
        <ele>195.3</ele>
        <time>2012-05-06T08:56:45.094Z</time>
      </trkpt>
      <trkpt lat="49.36763" lon="1.21784">
        <ele>195.9</ele>
        <time>2012-05-06T08:56:47.094Z</time>
      </trkpt>
      <trkpt lat="49.36757" lon="1.2179">
        <ele>196.1</ele>
        <time>2012-05-06T08:56:49.096Z</time>
      </trkpt>
      <trkpt lat="49.36751" lon="1.21796">
        <ele>196.5</ele>
        <time>2012-05-06T08:56:51.092Z</time>
      </trkpt>
      <trkpt lat="49.36745" lon="1.21802">
        <ele>196.7</ele>
        <time>2012-05-06T08:56:53.093Z</time>
      </trkpt>
      <trkpt lat="49.3674" lon="1.21809">
        <ele>196.4</ele>
        <time>2012-05-06T08:56:55.094Z</time>
      </trkpt>
      <trkpt lat="49.36734" lon="1.21815">
        <ele>197.1</ele>
        <time>2012-05-06T08:56:57.093Z</time>
      </trkpt>
      <trkpt lat="49.36728" lon="1.21821">
        <ele>197</ele>
        <time>2012-05-06T08:56:59.093Z</time>
      </trkpt>
      <trkpt lat="49.36723" lon="1.21829">
        <ele>197.3</ele>
        <time>2012-05-06T08:57:01.088Z</time>
      </trkpt>
      <trkpt lat="49.36718" lon="1.21839">
        <ele>197.6</ele>
        <time>2012-05-06T08:57:03.219Z</time>
      </trkpt>
      <trkpt lat="49.36716" lon="1.2185">
        <ele>198</ele>
        <time>2012-05-06T08:57:05.219Z</time>
      </trkpt>
      <trkpt lat="49.36716" lon="1.21861">
        <ele>197.4</ele>
        <time>2012-05-06T08:57:07.219Z</time>
      </trkpt>
      <trkpt lat="49.36719" lon="1.21872">
        <ele>197.1</ele>
        <time>2012-05-06T08:57:09.219Z</time>
      </trkpt>
      <trkpt lat="49.36722" lon="1.21882">
        <ele>197.1</ele>
        <time>2012-05-06T08:57:11.219Z</time>
      </trkpt>
      <trkpt lat="49.36725" lon="1.21892">
        <ele>197</ele>
        <time>2012-05-06T08:57:13.219Z</time>
      </trkpt>
      <trkpt lat="49.36728" lon="1.21903">
        <ele>196.8</ele>
        <time>2012-05-06T08:57:15.219Z</time>
      </trkpt>
      <trkpt lat="49.36729" lon="1.21911">
        <ele>196.9</ele>
        <time>2012-05-06T08:57:16.689Z</time>
      </trkpt>
      <trkpt lat="49.36731" lon="1.21918">
        <ele>196.7</ele>
        <time>2012-05-06T08:57:18.096Z</time>
      </trkpt>
      <trkpt lat="49.36734" lon="1.21928">
        <ele>195.8</ele>
        <time>2012-05-06T08:57:20.096Z</time>
      </trkpt>
      <trkpt lat="49.36736" lon="1.21939">
        <ele>195.6</ele>
        <time>2012-05-06T08:57:22.092Z</time>
      </trkpt>
      <trkpt lat="49.36739" lon="1.21948">
        <ele>195.2</ele>
        <time>2012-05-06T08:57:24.093Z</time>
      </trkpt>
      <trkpt lat="49.36741" lon="1.2196">
        <ele>195</ele>
        <time>2012-05-06T08:57:26.097Z</time>
      </trkpt>
      <trkpt lat="49.36743" lon="1.2197">
        <ele>195.6</ele>
        <time>2012-05-06T08:57:28.094Z</time>
      </trkpt>
      <trkpt lat="49.36746" lon="1.21978">
        <ele>196.2</ele>
        <time>2012-05-06T08:57:30.098Z</time>
      </trkpt>
      <trkpt lat="49.36751" lon="1.21987">
        <ele>196</ele>
        <time>2012-05-06T08:57:32.095Z</time>
      </trkpt>
      <trkpt lat="49.36756" lon="1.21997">
        <ele>196.2</ele>
        <time>2012-05-06T08:57:34.095Z</time>
      </trkpt>
      <trkpt lat="49.36761" lon="1.22007">
        <ele>196.2</ele>
        <time>2012-05-06T08:57:36.095Z</time>
      </trkpt>
      <trkpt lat="49.36764" lon="1.22013">
        <ele>196.2</ele>
        <time>2012-05-06T08:57:37.094Z</time>
      </trkpt>
      <trkpt lat="49.36766" lon="1.2202">
        <ele>196.2</ele>
        <time>2012-05-06T08:57:38.088Z</time>
      </trkpt>
      <trkpt lat="49.3677" lon="1.22026">
        <ele>196.1</ele>
        <time>2012-05-06T08:57:39.095Z</time>
      </trkpt>
      <trkpt lat="49.36772" lon="1.22033">
        <ele>196</ele>
        <time>2012-05-06T08:57:40.094Z</time>
      </trkpt>
      <trkpt lat="49.36778" lon="1.22048">
        <ele>196.1</ele>
        <time>2012-05-06T08:57:42.222Z</time>
      </trkpt>
      <trkpt lat="49.36781" lon="1.22055">
        <ele>196.1</ele>
        <time>2012-05-06T08:57:43.222Z</time>
      </trkpt>
      <trkpt lat="49.36785" lon="1.22067">
        <ele>196.3</ele>
        <time>2012-05-06T08:57:45.093Z</time>
      </trkpt>
      <trkpt lat="49.36788" lon="1.22075">
        <ele>196.1</ele>
        <time>2012-05-06T08:57:46.095Z</time>
      </trkpt>
      <trkpt lat="49.3679" lon="1.22081">
        <ele>196.1</ele>
        <time>2012-05-06T08:57:47.091Z</time>
      </trkpt>
      <trkpt lat="49.36792" lon="1.22088">
        <ele>196</ele>
        <time>2012-05-06T08:57:48.096Z</time>
      </trkpt>
      <trkpt lat="49.36795" lon="1.22095">
        <ele>195.7</ele>
        <time>2012-05-06T08:57:49.094Z</time>
      </trkpt>
      <trkpt lat="49.36798" lon="1.22101">
        <ele>196.2</ele>
        <time>2012-05-06T08:57:50.096Z</time>
      </trkpt>
      <trkpt lat="49.36801" lon="1.22108">
        <ele>196.2</ele>
        <time>2012-05-06T08:57:51.094Z</time>
      </trkpt>
      <trkpt lat="49.36803" lon="1.22114">
        <ele>195.9</ele>
        <time>2012-05-06T08:57:52.097Z</time>
      </trkpt>
      <trkpt lat="49.36806" lon="1.22121">
        <ele>195.6</ele>
        <time>2012-05-06T08:57:53.097Z</time>
      </trkpt>
      <trkpt lat="49.36808" lon="1.22127">
        <ele>195.6</ele>
        <time>2012-05-06T08:57:54.092Z</time>
      </trkpt>
      <trkpt lat="49.3681" lon="1.22134">
        <ele>196.1</ele>
        <time>2012-05-06T08:57:55.091Z</time>
      </trkpt>
      <trkpt lat="49.36813" lon="1.22141">
        <ele>196.3</ele>
        <time>2012-05-06T08:57:56.094Z</time>
      </trkpt>
      <trkpt lat="49.36815" lon="1.22148">
        <ele>196.4</ele>
        <time>2012-05-06T08:57:57.093Z</time>
      </trkpt>
      <trkpt lat="49.36817" lon="1.22156">
        <ele>196.2</ele>
        <time>2012-05-06T08:57:58.094Z</time>
      </trkpt>
      <trkpt lat="49.36819" lon="1.22163">
        <ele>196.1</ele>
        <time>2012-05-06T08:57:59.092Z</time>
      </trkpt>
      <trkpt lat="49.36821" lon="1.22171">
        <ele>196.1</ele>
        <time>2012-05-06T08:58:00.096Z</time>
      </trkpt>
      <trkpt lat="49.36823" lon="1.22179">
        <ele>196.2</ele>
        <time>2012-05-06T08:58:01.089Z</time>
      </trkpt>
      <trkpt lat="49.36825" lon="1.22188">
        <ele>196.6</ele>
        <time>2012-05-06T08:58:02.095Z</time>
      </trkpt>
      <trkpt lat="49.36827" lon="1.22195">
        <ele>197.1</ele>
        <time>2012-05-06T08:58:03.080Z</time>
      </trkpt>
      <trkpt lat="49.3683" lon="1.22202">
        <ele>196.9</ele>
        <time>2012-05-06T08:58:04.093Z</time>
      </trkpt>
      <trkpt lat="49.36832" lon="1.2221">
        <ele>197</ele>
        <time>2012-05-06T08:58:05.093Z</time>
      </trkpt>
      <trkpt lat="49.36834" lon="1.22218">
        <ele>197.2</ele>
        <time>2012-05-06T08:58:06.095Z</time>
      </trkpt>
      <trkpt lat="49.36837" lon="1.22227">
        <ele>197.5</ele>
        <time>2012-05-06T08:58:07.096Z</time>
      </trkpt>
      <trkpt lat="49.3684" lon="1.22235">
        <ele>198</ele>
        <time>2012-05-06T08:58:08.096Z</time>
      </trkpt>
      <trkpt lat="49.36842" lon="1.22243">
        <ele>198.2</ele>
        <time>2012-05-06T08:58:09.095Z</time>
      </trkpt>
      <trkpt lat="49.36845" lon="1.2225">
        <ele>198.2</ele>
        <time>2012-05-06T08:58:10.094Z</time>
      </trkpt>
      <trkpt lat="49.36847" lon="1.22258">
        <ele>197.9</ele>
        <time>2012-05-06T08:58:11.094Z</time>
      </trkpt>
      <trkpt lat="49.3685" lon="1.22266">
        <ele>197.8</ele>
        <time>2012-05-06T08:58:12.095Z</time>
      </trkpt>
      <trkpt lat="49.36853" lon="1.22273">
        <ele>198.3</ele>
        <time>2012-05-06T08:58:13.095Z</time>
      </trkpt>
      <trkpt lat="49.36855" lon="1.22281">
        <ele>198.2</ele>
        <time>2012-05-06T08:58:14.094Z</time>
      </trkpt>
      <trkpt lat="49.36858" lon="1.22289">
        <ele>197.9</ele>
        <time>2012-05-06T08:58:15.095Z</time>
      </trkpt>
      <trkpt lat="49.36861" lon="1.22296">
        <ele>197.7</ele>
        <time>2012-05-06T08:58:16.094Z</time>
      </trkpt>
      <trkpt lat="49.36864" lon="1.22304">
        <ele>197.8</ele>
        <time>2012-05-06T08:58:17.094Z</time>
      </trkpt>
      <trkpt lat="49.36867" lon="1.22312">
        <ele>197.6</ele>
        <time>2012-05-06T08:58:18.092Z</time>
      </trkpt>
      <trkpt lat="49.3687" lon="1.2232">
        <ele>197.8</ele>
        <time>2012-05-06T08:58:19.083Z</time>
      </trkpt>
      <trkpt lat="49.36873" lon="1.22328">
        <ele>197.8</ele>
        <time>2012-05-06T08:58:20.093Z</time>
      </trkpt>
      <trkpt lat="49.36876" lon="1.22336">
        <ele>197.7</ele>
        <time>2012-05-06T08:58:21.089Z</time>
      </trkpt>
      <trkpt lat="49.36879" lon="1.22344">
        <ele>197.6</ele>
        <time>2012-05-06T08:58:22.094Z</time>
      </trkpt>
      <trkpt lat="49.36882" lon="1.22351">
        <ele>197.4</ele>
        <time>2012-05-06T08:58:23.096Z</time>
      </trkpt>
      <trkpt lat="49.36885" lon="1.2236">
        <ele>197.5</ele>
        <time>2012-05-06T08:58:24.093Z</time>
      </trkpt>
      <trkpt lat="49.36889" lon="1.22367">
        <ele>197.5</ele>
        <time>2012-05-06T08:58:25.088Z</time>
      </trkpt>
      <trkpt lat="49.36892" lon="1.22374">
        <ele>197.5</ele>
        <time>2012-05-06T08:58:26.095Z</time>
      </trkpt>
      <trkpt lat="49.36896" lon="1.22381">
        <ele>197.4</ele>
        <time>2012-05-06T08:58:27.097Z</time>
      </trkpt>
      <trkpt lat="49.369" lon="1.22388">
        <ele>197.3</ele>
        <time>2012-05-06T08:58:28.085Z</time>
      </trkpt>
      <trkpt lat="49.36903" lon="1.22395">
        <ele>197.1</ele>
        <time>2012-05-06T08:58:29.088Z</time>
      </trkpt>
      <trkpt lat="49.36906" lon="1.22402">
        <ele>196.9</ele>
        <time>2012-05-06T08:58:30.096Z</time>
      </trkpt>
      <trkpt lat="49.3691" lon="1.22409">
        <ele>196.6</ele>
        <time>2012-05-06T08:58:31.094Z</time>
      </trkpt>
      <trkpt lat="49.36913" lon="1.22416">
        <ele>196.1</ele>
        <time>2012-05-06T08:58:32.092Z</time>
      </trkpt>
      <trkpt lat="49.36917" lon="1.22423">
        <ele>195.9</ele>
        <time>2012-05-06T08:58:33.091Z</time>
      </trkpt>
      <trkpt lat="49.3692" lon="1.2243">
        <ele>195.5</ele>
        <time>2012-05-06T08:58:34.102Z</time>
      </trkpt>
      <trkpt lat="49.36924" lon="1.22437">
        <ele>195.4</ele>
        <time>2012-05-06T08:58:35.094Z</time>
      </trkpt>
      <trkpt lat="49.36927" lon="1.22444">
        <ele>194.9</ele>
        <time>2012-05-06T08:58:36.093Z</time>
      </trkpt>
      <trkpt lat="49.36931" lon="1.22452">
        <ele>194.4</ele>
        <time>2012-05-06T08:58:37.091Z</time>
      </trkpt>
      <trkpt lat="49.36936" lon="1.22459">
        <ele>194.2</ele>
        <time>2012-05-06T08:58:38.095Z</time>
      </trkpt>
      <trkpt lat="49.3694" lon="1.22465">
        <ele>194.1</ele>
        <time>2012-05-06T08:58:39.093Z</time>
      </trkpt>
      <trkpt lat="49.36944" lon="1.22472">
        <ele>194.1</ele>
        <time>2012-05-06T08:58:40.094Z</time>
      </trkpt>
      <trkpt lat="49.36952" lon="1.22486">
        <ele>194.1</ele>
        <time>2012-05-06T08:58:42.258Z</time>
      </trkpt>
      <trkpt lat="49.36956" lon="1.22493">
        <ele>194.1</ele>
        <time>2012-05-06T08:58:43.258Z</time>
      </trkpt>
      <trkpt lat="49.36965" lon="1.22502">
        <ele>193.8</ele>
        <time>2012-05-06T08:58:45.095Z</time>
      </trkpt>
      <trkpt lat="49.3697" lon="1.22507">
        <ele>193.9</ele>
        <time>2012-05-06T08:58:46.093Z</time>
      </trkpt>
      <trkpt lat="49.36974" lon="1.22513">
        <ele>194.2</ele>
        <time>2012-05-06T08:58:47.096Z</time>
      </trkpt>
      <trkpt lat="49.36979" lon="1.22519">
        <ele>194.6</ele>
        <time>2012-05-06T08:58:48.096Z</time>
      </trkpt>
      <trkpt lat="49.36982" lon="1.22526">
        <ele>194.8</ele>
        <time>2012-05-06T08:58:49.092Z</time>
      </trkpt>
      <trkpt lat="49.36987" lon="1.22531">
        <ele>195.2</ele>
        <time>2012-05-06T08:58:50.096Z</time>
      </trkpt>
      <trkpt lat="49.36991" lon="1.22537">
        <ele>195.8</ele>
        <time>2012-05-06T08:58:51.084Z</time>
      </trkpt>
      <trkpt lat="49.36996" lon="1.22543">
        <ele>195.6</ele>
        <time>2012-05-06T08:58:52.094Z</time>
      </trkpt>
      <trkpt lat="49.37" lon="1.22548">
        <ele>195.9</ele>
        <time>2012-05-06T08:58:53.095Z</time>
      </trkpt>
      <trkpt lat="49.37005" lon="1.22554">
        <ele>195.8</ele>
        <time>2012-05-06T08:58:54.090Z</time>
      </trkpt>
      <trkpt lat="49.37008" lon="1.22563">
        <ele>195.6</ele>
        <time>2012-05-06T08:58:55.093Z</time>
      </trkpt>
      <trkpt lat="49.37012" lon="1.2257">
        <ele>195.1</ele>
        <time>2012-05-06T08:58:56.097Z</time>
      </trkpt>
      <trkpt lat="49.37011" lon="1.22578">
        <ele>195.5</ele>
        <time>2012-05-06T08:58:57.089Z</time>
      </trkpt>
      <trkpt lat="49.37008" lon="1.22584">
        <ele>193.2</ele>
        <time>2012-05-06T08:58:58.077Z</time>
      </trkpt>
      <trkpt lat="49.37004" lon="1.22592">
        <ele>193.3</ele>
        <time>2012-05-06T08:58:59.076Z</time>
      </trkpt>
      <trkpt lat="49.37" lon="1.22598">
        <ele>193.5</ele>
        <time>2012-05-06T08:59:00.093Z</time>
      </trkpt>
      <trkpt lat="49.36996" lon="1.22604">
        <ele>194.1</ele>
        <time>2012-05-06T08:59:01.075Z</time>
      </trkpt>
      <trkpt lat="49.36991" lon="1.2261">
        <ele>194.1</ele>
        <time>2012-05-06T08:59:02.078Z</time>
      </trkpt>
      <trkpt lat="49.36987" lon="1.22616">
        <ele>194.2</ele>
        <time>2012-05-06T08:59:03.090Z</time>
      </trkpt>
      <trkpt lat="49.36982" lon="1.22622">
        <ele>194.3</ele>
        <time>2012-05-06T08:59:04.077Z</time>
      </trkpt>
      <trkpt lat="49.36978" lon="1.22628">
        <ele>194.1</ele>
        <time>2012-05-06T08:59:05.096Z</time>
      </trkpt>
      <trkpt lat="49.36973" lon="1.22634">
        <ele>193.9</ele>
        <time>2012-05-06T08:59:06.081Z</time>
      </trkpt>
      <trkpt lat="49.36969" lon="1.2264">
        <ele>193.8</ele>
        <time>2012-05-06T08:59:07.080Z</time>
      </trkpt>
      <trkpt lat="49.36964" lon="1.22646">
        <ele>193.3</ele>
        <time>2012-05-06T08:59:08.080Z</time>
      </trkpt>
      <trkpt lat="49.36959" lon="1.22652">
        <ele>193.5</ele>
        <time>2012-05-06T08:59:09.093Z</time>
      </trkpt>
      <trkpt lat="49.36954" lon="1.22659">
        <ele>193.5</ele>
        <time>2012-05-06T08:59:10.075Z</time>
      </trkpt>
      <trkpt lat="49.3695" lon="1.22666">
        <ele>193</ele>
        <time>2012-05-06T08:59:11.078Z</time>
      </trkpt>
      <trkpt lat="49.36945" lon="1.22674">
        <ele>192.6</ele>
        <time>2012-05-06T08:59:12.092Z</time>
      </trkpt>
      <trkpt lat="49.3694" lon="1.2268">
        <ele>192.9</ele>
        <time>2012-05-06T08:59:13.084Z</time>
      </trkpt>
      <trkpt lat="49.36935" lon="1.22688">
        <ele>192.7</ele>
        <time>2012-05-06T08:59:14.092Z</time>
      </trkpt>
      <trkpt lat="49.36931" lon="1.22695">
        <ele>192.5</ele>
        <time>2012-05-06T08:59:15.079Z</time>
      </trkpt>
      <trkpt lat="49.36926" lon="1.22701">
        <ele>192.7</ele>
        <time>2012-05-06T08:59:16.077Z</time>
      </trkpt>
      <trkpt lat="49.36921" lon="1.22708">
        <ele>192.3</ele>
        <time>2012-05-06T08:59:17.096Z</time>
      </trkpt>
      <trkpt lat="49.36916" lon="1.22715">
        <ele>192</ele>
        <time>2012-05-06T08:59:18.091Z</time>
      </trkpt>
      <trkpt lat="49.36912" lon="1.2272">
        <ele>192</ele>
        <time>2012-05-06T08:59:19.095Z</time>
      </trkpt>
      <trkpt lat="49.36904" lon="1.22727">
        <ele>193.1</ele>
        <time>2012-05-06T08:59:21.095Z</time>
      </trkpt>
      <trkpt lat="49.36898" lon="1.22731">
        <ele>193.5</ele>
        <time>2012-05-06T08:59:23.089Z</time>
      </trkpt>
      <trkpt lat="49.36894" lon="1.2274">
        <ele>193.4</ele>
        <time>2012-05-06T08:59:25.085Z</time>
      </trkpt>
      <trkpt lat="49.36887" lon="1.22749">
        <ele>192.5</ele>
        <time>2012-05-06T08:59:27.091Z</time>
      </trkpt>
      <trkpt lat="49.36882" lon="1.22754">
        <ele>191.8</ele>
        <time>2012-05-06T08:59:28.078Z</time>
      </trkpt>
      <trkpt lat="49.36879" lon="1.22759">
        <ele>191</ele>
        <time>2012-05-06T08:59:29.089Z</time>
      </trkpt>
      <trkpt lat="49.36877" lon="1.22772">
        <ele>191.5</ele>
        <time>2012-05-06T08:59:31.092Z</time>
      </trkpt>
      <trkpt lat="49.3688" lon="1.22779">
        <ele>191.5</ele>
        <time>2012-05-06T08:59:32.093Z</time>
      </trkpt>
      <trkpt lat="49.36883" lon="1.22784">
        <ele>191.6</ele>
        <time>2012-05-06T08:59:33.089Z</time>
      </trkpt>
      <trkpt lat="49.36888" lon="1.2279">
        <ele>191.2</ele>
        <time>2012-05-06T08:59:34.082Z</time>
      </trkpt>
      <trkpt lat="49.36893" lon="1.22796">
        <ele>190.5</ele>
        <time>2012-05-06T08:59:35.093Z</time>
      </trkpt>
      <trkpt lat="49.36898" lon="1.22802">
        <ele>190.8</ele>
        <time>2012-05-06T08:59:36.092Z</time>
      </trkpt>
      <trkpt lat="49.36903" lon="1.22806">
        <ele>191.2</ele>
        <time>2012-05-06T08:59:37.096Z</time>
      </trkpt>
      <trkpt lat="49.36908" lon="1.22812">
        <ele>191.4</ele>
        <time>2012-05-06T08:59:38.095Z</time>
      </trkpt>
      <trkpt lat="49.36913" lon="1.22818">
        <ele>191.2</ele>
        <time>2012-05-06T08:59:39.087Z</time>
      </trkpt>
      <trkpt lat="49.36918" lon="1.22825">
        <ele>190.7</ele>
        <time>2012-05-06T08:59:40.081Z</time>
      </trkpt>
      <trkpt lat="49.36928" lon="1.22837">
        <ele>190</ele>
        <time>2012-05-06T08:59:42.195Z</time>
      </trkpt>
      <trkpt lat="49.36931" lon="1.22843">
        <ele>189.6</ele>
        <time>2012-05-06T08:59:43.195Z</time>
      </trkpt>
      <trkpt lat="49.3694" lon="1.22855">
        <ele>189</ele>
        <time>2012-05-06T08:59:45.092Z</time>
      </trkpt>
      <trkpt lat="49.36944" lon="1.22862">
        <ele>189</ele>
        <time>2012-05-06T08:59:46.071Z</time>
      </trkpt>
      <trkpt lat="49.36949" lon="1.22868">
        <ele>188.9</ele>
        <time>2012-05-06T08:59:47.082Z</time>
      </trkpt>
      <trkpt lat="49.36954" lon="1.22872">
        <ele>188.8</ele>
        <time>2012-05-06T08:59:48.092Z</time>
      </trkpt>
      <trkpt lat="49.36958" lon="1.22878">
        <ele>189</ele>
        <time>2012-05-06T08:59:49.093Z</time>
      </trkpt>
      <trkpt lat="49.36962" lon="1.22884">
        <ele>189.7</ele>
        <time>2012-05-06T08:59:50.095Z</time>
      </trkpt>
      <trkpt lat="49.36967" lon="1.22888">
        <ele>190.4</ele>
        <time>2012-05-06T08:59:51.095Z</time>
      </trkpt>
      <trkpt lat="49.36972" lon="1.22894">
        <ele>189.9</ele>
        <time>2012-05-06T08:59:52.093Z</time>
      </trkpt>
      <trkpt lat="49.36976" lon="1.22898">
        <ele>190.1</ele>
        <time>2012-05-06T08:59:53.091Z</time>
      </trkpt>
      <trkpt lat="49.36981" lon="1.22902">
        <ele>189.3</ele>
        <time>2012-05-06T08:59:54.092Z</time>
      </trkpt>
      <trkpt lat="49.36985" lon="1.22908">
        <ele>189.4</ele>
        <time>2012-05-06T08:59:55.085Z</time>
      </trkpt>
      <trkpt lat="49.3699" lon="1.22913">
        <ele>190.2</ele>
        <time>2012-05-06T08:59:56.091Z</time>
      </trkpt>
      <trkpt lat="49.36995" lon="1.22918">
        <ele>190.6</ele>
        <time>2012-05-06T08:59:57.079Z</time>
      </trkpt>
      <trkpt lat="49.36999" lon="1.22923">
        <ele>190.7</ele>
        <time>2012-05-06T08:59:58.091Z</time>
      </trkpt>
      <trkpt lat="49.37003" lon="1.22929">
        <ele>190.5</ele>
        <time>2012-05-06T08:59:59.092Z</time>
      </trkpt>
      <trkpt lat="49.37008" lon="1.22934">
        <ele>190.5</ele>
        <time>2012-05-06T09:00:00.093Z</time>
      </trkpt>
      <trkpt lat="49.37012" lon="1.22938">
        <ele>190.4</ele>
        <time>2012-05-06T09:00:01.078Z</time>
      </trkpt>
      <trkpt lat="49.37017" lon="1.22942">
        <ele>190.8</ele>
        <time>2012-05-06T09:00:02.095Z</time>
      </trkpt>
      <trkpt lat="49.37021" lon="1.22947">
        <ele>190.6</ele>
        <time>2012-05-06T09:00:03.092Z</time>
      </trkpt>
      <trkpt lat="49.37026" lon="1.22953">
        <ele>189.9</ele>
        <time>2012-05-06T09:00:04.092Z</time>
      </trkpt>
      <trkpt lat="49.37031" lon="1.22957">
        <ele>190.1</ele>
        <time>2012-05-06T09:00:05.092Z</time>
      </trkpt>
      <trkpt lat="49.37036" lon="1.22962">
        <ele>190</ele>
        <time>2012-05-06T09:00:06.080Z</time>
      </trkpt>
      <trkpt lat="49.37041" lon="1.22966">
        <ele>190.3</ele>
        <time>2012-05-06T09:00:07.087Z</time>
      </trkpt>
      <trkpt lat="49.37045" lon="1.22971">
        <ele>190.2</ele>
        <time>2012-05-06T09:00:08.093Z</time>
      </trkpt>
      <trkpt lat="49.3705" lon="1.22975">
        <ele>190.4</ele>
        <time>2012-05-06T09:00:09.091Z</time>
      </trkpt>
      <trkpt lat="49.37054" lon="1.2298">
        <ele>190.2</ele>
        <time>2012-05-06T09:00:10.100Z</time>
      </trkpt>
      <trkpt lat="49.37059" lon="1.22985">
        <ele>190.2</ele>
        <time>2012-05-06T09:00:11.079Z</time>
      </trkpt>
      <trkpt lat="49.37064" lon="1.22988">
        <ele>189.9</ele>
        <time>2012-05-06T09:00:12.095Z</time>
      </trkpt>
      <trkpt lat="49.37068" lon="1.22993">
        <ele>189.7</ele>
        <time>2012-05-06T09:00:13.092Z</time>
      </trkpt>
      <trkpt lat="49.37073" lon="1.22998">
        <ele>189.3</ele>
        <time>2012-05-06T09:00:14.095Z</time>
      </trkpt>
      <trkpt lat="49.37077" lon="1.23003">
        <ele>189.4</ele>
        <time>2012-05-06T09:00:15.093Z</time>
      </trkpt>
      <trkpt lat="49.37082" lon="1.23006">
        <ele>189.3</ele>
        <time>2012-05-06T09:00:16.092Z</time>
      </trkpt>
      <trkpt lat="49.37087" lon="1.23011">
        <ele>189.3</ele>
        <time>2012-05-06T09:00:17.092Z</time>
      </trkpt>
      <trkpt lat="49.37092" lon="1.23016">
        <ele>189.5</ele>
        <time>2012-05-06T09:00:18.093Z</time>
      </trkpt>
      <trkpt lat="49.37098" lon="1.2302">
        <ele>189.3</ele>
        <time>2012-05-06T09:00:19.093Z</time>
      </trkpt>
      <trkpt lat="49.37103" lon="1.23024">
        <ele>189.6</ele>
        <time>2012-05-06T09:00:20.094Z</time>
      </trkpt>
      <trkpt lat="49.3711" lon="1.23028">
        <ele>189.2</ele>
        <time>2012-05-06T09:00:21.093Z</time>
      </trkpt>
      <trkpt lat="49.37116" lon="1.23032">
        <ele>188.9</ele>
        <time>2012-05-06T09:00:22.092Z</time>
      </trkpt>
      <trkpt lat="49.37123" lon="1.23034">
        <ele>188.6</ele>
        <time>2012-05-06T09:00:23.098Z</time>
      </trkpt>
      <trkpt lat="49.37129" lon="1.23036">
        <ele>188.8</ele>
        <time>2012-05-06T09:00:24.095Z</time>
      </trkpt>
      <trkpt lat="49.37134" lon="1.23038">
        <ele>188.7</ele>
        <time>2012-05-06T09:00:25.090Z</time>
      </trkpt>
      <trkpt lat="49.37138" lon="1.23043">
        <ele>188.8</ele>
        <time>2012-05-06T09:00:26.087Z</time>
      </trkpt>
      <trkpt lat="49.37143" lon="1.23045">
        <ele>189.1</ele>
        <time>2012-05-06T09:00:27.085Z</time>
      </trkpt>
      <trkpt lat="49.37148" lon="1.23046">
        <ele>188.8</ele>
        <time>2012-05-06T09:00:28.090Z</time>
      </trkpt>
      <trkpt lat="49.37156" lon="1.23046">
        <ele>188.4</ele>
        <time>2012-05-06T09:00:30.091Z</time>
      </trkpt>
      <trkpt lat="49.37161" lon="1.23048">
        <ele>188.3</ele>
        <time>2012-05-06T09:00:31.094Z</time>
      </trkpt>
      <trkpt lat="49.37167" lon="1.23051">
        <ele>187.3</ele>
        <time>2012-05-06T09:00:32.095Z</time>
      </trkpt>
      <trkpt lat="49.37172" lon="1.23056">
        <ele>186.2</ele>
        <time>2012-05-06T09:00:33.095Z</time>
      </trkpt>
      <trkpt lat="49.37176" lon="1.2306">
        <ele>185</ele>
        <time>2012-05-06T09:00:34.085Z</time>
      </trkpt>
      <trkpt lat="49.3718" lon="1.23064">
        <ele>184.5</ele>
        <time>2012-05-06T09:00:35.091Z</time>
      </trkpt>
      <trkpt lat="49.37185" lon="1.23069">
        <ele>184.2</ele>
        <time>2012-05-06T09:00:36.092Z</time>
      </trkpt>
      <trkpt lat="49.3719" lon="1.23074">
        <ele>185.1</ele>
        <time>2012-05-06T09:00:37.090Z</time>
      </trkpt>
      <trkpt lat="49.37194" lon="1.23079">
        <ele>185.7</ele>
        <time>2012-05-06T09:00:38.082Z</time>
      </trkpt>
      <trkpt lat="49.37198" lon="1.23084">
        <ele>186</ele>
        <time>2012-05-06T09:00:39.091Z</time>
      </trkpt>
      <trkpt lat="49.37201" lon="1.2309">
        <ele>186.2</ele>
        <time>2012-05-06T09:00:40.092Z</time>
      </trkpt>
      <trkpt lat="49.37209" lon="1.23103">
        <ele>186.7</ele>
        <time>2012-05-06T09:00:42.268Z</time>
      </trkpt>
      <trkpt lat="49.37212" lon="1.2311">
        <ele>186.8</ele>
        <time>2012-05-06T09:00:43.268Z</time>
      </trkpt>
      <trkpt lat="49.37216" lon="1.23121">
        <ele>186.9</ele>
        <time>2012-05-06T09:00:45.092Z</time>
      </trkpt>
      <trkpt lat="49.3722" lon="1.23126">
        <ele>187.1</ele>
        <time>2012-05-06T09:00:46.090Z</time>
      </trkpt>
      <trkpt lat="49.37223" lon="1.23132">
        <ele>187.7</ele>
        <time>2012-05-06T09:00:47.082Z</time>
      </trkpt>
      <trkpt lat="49.37226" lon="1.23138">
        <ele>188.8</ele>
        <time>2012-05-06T09:00:48.092Z</time>
      </trkpt>
      <trkpt lat="49.37229" lon="1.23144">
        <ele>188.7</ele>
        <time>2012-05-06T09:00:49.090Z</time>
      </trkpt>
      <trkpt lat="49.37232" lon="1.2315">
        <ele>189.3</ele>
        <time>2012-05-06T09:00:50.091Z</time>
      </trkpt>
      <trkpt lat="49.37237" lon="1.23156">
        <ele>189.1</ele>
        <time>2012-05-06T09:00:51.094Z</time>
      </trkpt>
      <trkpt lat="49.3724" lon="1.23161">
        <ele>189.1</ele>
        <time>2012-05-06T09:00:52.091Z</time>
      </trkpt>
      <trkpt lat="49.37243" lon="1.23168">
        <ele>189.4</ele>
        <time>2012-05-06T09:00:53.094Z</time>
      </trkpt>
      <trkpt lat="49.37245" lon="1.23174">
        <ele>190.2</ele>
        <time>2012-05-06T09:00:54.092Z</time>
      </trkpt>
      <trkpt lat="49.37247" lon="1.23182">
        <ele>190.5</ele>
        <time>2012-05-06T09:00:55.092Z</time>
      </trkpt>
      <trkpt lat="49.37249" lon="1.23189">
        <ele>190.8</ele>
        <time>2012-05-06T09:00:56.077Z</time>
      </trkpt>
      <trkpt lat="49.3725" lon="1.23197">
        <ele>190.5</ele>
        <time>2012-05-06T09:00:57.095Z</time>
      </trkpt>
      <trkpt lat="49.37255" lon="1.23203">
        <ele>190.6</ele>
        <time>2012-05-06T09:00:58.093Z</time>
      </trkpt>
      <trkpt lat="49.37257" lon="1.2321">
        <ele>190.3</ele>
        <time>2012-05-06T09:00:59.089Z</time>
      </trkpt>
      <trkpt lat="49.3726" lon="1.23219">
        <ele>189.6</ele>
        <time>2012-05-06T09:01:00.095Z</time>
      </trkpt>
      <trkpt lat="49.37263" lon="1.23226">
        <ele>189.1</ele>
        <time>2012-05-06T09:01:01.094Z</time>
      </trkpt>
      <trkpt lat="49.37267" lon="1.23233">
        <ele>188.8</ele>
        <time>2012-05-06T09:01:02.092Z</time>
      </trkpt>
      <trkpt lat="49.37269" lon="1.2324">
        <ele>188.4</ele>
        <time>2012-05-06T09:01:03.092Z</time>
      </trkpt>
      <trkpt lat="49.37272" lon="1.23247">
        <ele>188.5</ele>
        <time>2012-05-06T09:01:04.090Z</time>
      </trkpt>
      <trkpt lat="49.37275" lon="1.23255">
        <ele>188.1</ele>
        <time>2012-05-06T09:01:05.080Z</time>
      </trkpt>
      <trkpt lat="49.37277" lon="1.23264">
        <ele>187.2</ele>
        <time>2012-05-06T09:01:06.093Z</time>
      </trkpt>
      <trkpt lat="49.37279" lon="1.23271">
        <ele>187.7</ele>
        <time>2012-05-06T09:01:07.089Z</time>
      </trkpt>
      <trkpt lat="49.37282" lon="1.23279">
        <ele>187.9</ele>
        <time>2012-05-06T09:01:08.093Z</time>
      </trkpt>
      <trkpt lat="49.37284" lon="1.23286">
        <ele>187.3</ele>
        <time>2012-05-06T09:01:09.095Z</time>
      </trkpt>
      <trkpt lat="49.37286" lon="1.23293">
        <ele>187.3</ele>
        <time>2012-05-06T09:01:10.093Z</time>
      </trkpt>
      <trkpt lat="49.37287" lon="1.23301">
        <ele>187</ele>
        <time>2012-05-06T09:01:11.092Z</time>
      </trkpt>
      <trkpt lat="49.3729" lon="1.23308">
        <ele>186.1</ele>
        <time>2012-05-06T09:01:12.093Z</time>
      </trkpt>
      <trkpt lat="49.37292" lon="1.23314">
        <ele>187.1</ele>
        <time>2012-05-06T09:01:13.098Z</time>
      </trkpt>
      <trkpt lat="49.37294" lon="1.23327">
        <ele>188.1</ele>
        <time>2012-05-06T09:01:15.086Z</time>
      </trkpt>
      <trkpt lat="49.37296" lon="1.2334">
        <ele>188</ele>
        <time>2012-05-06T09:01:17.091Z</time>
      </trkpt>
      <trkpt lat="49.37297" lon="1.23348">
        <ele>188.4</ele>
        <time>2012-05-06T09:01:18.097Z</time>
      </trkpt>
      <trkpt lat="49.37299" lon="1.23354">
        <ele>189</ele>
        <time>2012-05-06T09:01:19.096Z</time>
      </trkpt>
      <trkpt lat="49.37301" lon="1.23361">
        <ele>189</ele>
        <time>2012-05-06T09:01:20.089Z</time>
      </trkpt>
      <trkpt lat="49.37307" lon="1.23363">
        <ele>188.6</ele>
        <time>2012-05-06T09:01:21.091Z</time>
      </trkpt>
      <trkpt lat="49.37312" lon="1.23365">
        <ele>188</ele>
        <time>2012-05-06T09:01:22.088Z</time>
      </trkpt>
      <trkpt lat="49.37322" lon="1.2336">
        <ele>188.3</ele>
        <time>2012-05-06T09:01:24.076Z</time>
      </trkpt>
      <trkpt lat="49.37327" lon="1.23356">
        <ele>188.1</ele>
        <time>2012-05-06T09:01:25.086Z</time>
      </trkpt>
      <trkpt lat="49.37333" lon="1.23352">
        <ele>187.5</ele>
        <time>2012-05-06T09:01:26.078Z</time>
      </trkpt>
      <trkpt lat="49.37339" lon="1.23349">
        <ele>187.3</ele>
        <time>2012-05-06T09:01:27.076Z</time>
      </trkpt>
      <trkpt lat="49.37344" lon="1.23346">
        <ele>187</ele>
        <time>2012-05-06T09:01:28.089Z</time>
      </trkpt>
      <trkpt lat="49.37349" lon="1.23343">
        <ele>187.3</ele>
        <time>2012-05-06T09:01:29.080Z</time>
      </trkpt>
      <trkpt lat="49.37354" lon="1.23338">
        <ele>188</ele>
        <time>2012-05-06T09:01:30.093Z</time>
      </trkpt>
      <trkpt lat="49.3736" lon="1.23334">
        <ele>188.7</ele>
        <time>2012-05-06T09:01:31.089Z</time>
      </trkpt>
      <trkpt lat="49.37365" lon="1.2333">
        <ele>189</ele>
        <time>2012-05-06T09:01:32.094Z</time>
      </trkpt>
      <trkpt lat="49.3737" lon="1.23327">
        <ele>188.8</ele>
        <time>2012-05-06T09:01:33.077Z</time>
      </trkpt>
      <trkpt lat="49.37375" lon="1.23323">
        <ele>188.5</ele>
        <time>2012-05-06T09:01:34.092Z</time>
      </trkpt>
      <trkpt lat="49.37381" lon="1.23319">
        <ele>189.1</ele>
        <time>2012-05-06T09:01:35.094Z</time>
      </trkpt>
      <trkpt lat="49.37386" lon="1.23316">
        <ele>189.5</ele>
        <time>2012-05-06T09:01:36.090Z</time>
      </trkpt>
      <trkpt lat="49.37391" lon="1.23312">
        <ele>189.5</ele>
        <time>2012-05-06T09:01:37.081Z</time>
      </trkpt>
      <trkpt lat="49.37396" lon="1.23309">
        <ele>189.6</ele>
        <time>2012-05-06T09:01:38.088Z</time>
      </trkpt>
      <trkpt lat="49.37402" lon="1.23305">
        <ele>190</ele>
        <time>2012-05-06T09:01:39.090Z</time>
      </trkpt>
      <trkpt lat="49.37407" lon="1.23302">
        <ele>190.5</ele>
        <time>2012-05-06T09:01:40.076Z</time>
      </trkpt>
      <trkpt lat="49.37418" lon="1.23295">
        <ele>191</ele>
        <time>2012-05-06T09:01:42.070Z</time>
      </trkpt>
      <trkpt lat="49.37423" lon="1.23292">
        <ele>191.3</ele>
        <time>2012-05-06T09:01:43.070Z</time>
      </trkpt>
      <trkpt lat="49.37433" lon="1.23285">
        <ele>191.3</ele>
        <time>2012-05-06T09:01:45.100Z</time>
      </trkpt>
      <trkpt lat="49.37442" lon="1.2328">
        <ele>192.3</ele>
        <time>2012-05-06T09:01:47.075Z</time>
      </trkpt>
      <trkpt lat="49.37447" lon="1.23277">
        <ele>192.3</ele>
        <time>2012-05-06T09:01:48.090Z</time>
      </trkpt>
      <trkpt lat="49.37452" lon="1.23274">
        <ele>192.5</ele>
        <time>2012-05-06T09:01:49.076Z</time>
      </trkpt>
      <trkpt lat="49.37457" lon="1.23271">
        <ele>193.3</ele>
        <time>2012-05-06T09:01:50.077Z</time>
      </trkpt>
      <trkpt lat="49.37462" lon="1.23268">
        <ele>194.7</ele>
        <time>2012-05-06T09:01:51.089Z</time>
      </trkpt>
      <trkpt lat="49.37468" lon="1.23265">
        <ele>194.7</ele>
        <time>2012-05-06T09:01:52.080Z</time>
      </trkpt>
      <trkpt lat="49.37472" lon="1.2326">
        <ele>194.6</ele>
        <time>2012-05-06T09:01:53.093Z</time>
      </trkpt>
      <trkpt lat="49.37477" lon="1.23256">
        <ele>194.6</ele>
        <time>2012-05-06T09:01:54.091Z</time>
      </trkpt>
      <trkpt lat="49.37482" lon="1.2325">
        <ele>194.2</ele>
        <time>2012-05-06T09:01:55.079Z</time>
      </trkpt>
      <trkpt lat="49.37487" lon="1.23246">
        <ele>194.5</ele>
        <time>2012-05-06T09:01:56.095Z</time>
      </trkpt>
      <trkpt lat="49.37492" lon="1.23242">
        <ele>194.7</ele>
        <time>2012-05-06T09:01:57.092Z</time>
      </trkpt>
      <trkpt lat="49.37497" lon="1.23237">
        <ele>194.9</ele>
        <time>2012-05-06T09:01:58.096Z</time>
      </trkpt>
      <trkpt lat="49.37502" lon="1.23233">
        <ele>195.3</ele>
        <time>2012-05-06T09:01:59.092Z</time>
      </trkpt>
      <trkpt lat="49.37507" lon="1.23228">
        <ele>195.8</ele>
        <time>2012-05-06T09:02:00.081Z</time>
      </trkpt>
      <trkpt lat="49.37512" lon="1.23225">
        <ele>196.2</ele>
        <time>2012-05-06T09:02:01.092Z</time>
      </trkpt>
      <trkpt lat="49.37518" lon="1.23222">
        <ele>196.1</ele>
        <time>2012-05-06T09:02:02.094Z</time>
      </trkpt>
      <trkpt lat="49.37522" lon="1.23218">
        <ele>196.5</ele>
        <time>2012-05-06T09:02:03.091Z</time>
      </trkpt>
      <trkpt lat="49.37526" lon="1.23214">
        <ele>197.3</ele>
        <time>2012-05-06T09:02:04.095Z</time>
      </trkpt>
      <trkpt lat="49.3753" lon="1.23208">
        <ele>198.5</ele>
        <time>2012-05-06T09:02:05.093Z</time>
      </trkpt>
      <trkpt lat="49.37534" lon="1.23204">
        <ele>198.2</ele>
        <time>2012-05-06T09:02:06.094Z</time>
      </trkpt>
      <trkpt lat="49.37539" lon="1.23199">
        <ele>198.6</ele>
        <time>2012-05-06T09:02:07.095Z</time>
      </trkpt>
      <trkpt lat="49.37544" lon="1.23195">
        <ele>198.8</ele>
        <time>2012-05-06T09:02:08.095Z</time>
      </trkpt>
      <trkpt lat="49.37548" lon="1.23192">
        <ele>199.4</ele>
        <time>2012-05-06T09:02:09.093Z</time>
      </trkpt>
      <trkpt lat="49.37553" lon="1.23187">
        <ele>200.6</ele>
        <time>2012-05-06T09:02:10.095Z</time>
      </trkpt>
      <trkpt lat="49.37558" lon="1.23182">
        <ele>201.8</ele>
        <time>2012-05-06T09:02:11.091Z</time>
      </trkpt>
      <trkpt lat="49.37562" lon="1.23179">
        <ele>202.3</ele>
        <time>2012-05-06T09:02:12.095Z</time>
      </trkpt>
      <trkpt lat="49.37567" lon="1.23174">
        <ele>202.9</ele>
        <time>2012-05-06T09:02:13.094Z</time>
      </trkpt>
      <trkpt lat="49.37571" lon="1.2317">
        <ele>203.3</ele>
        <time>2012-05-06T09:02:14.089Z</time>
      </trkpt>
      <trkpt lat="49.37576" lon="1.2317">
        <ele>202.3</ele>
        <time>2012-05-06T09:02:15.079Z</time>
      </trkpt>
      <trkpt lat="49.37581" lon="1.23171">
        <ele>201.6</ele>
        <time>2012-05-06T09:02:16.091Z</time>
      </trkpt>
      <trkpt lat="49.37586" lon="1.23175">
        <ele>202</ele>
        <time>2012-05-06T09:02:17.107Z</time>
      </trkpt>
      <trkpt lat="49.3759" lon="1.23181">
        <ele>201.9</ele>
        <time>2012-05-06T09:02:18.103Z</time>
      </trkpt>
      <trkpt lat="49.37594" lon="1.23187">
        <ele>202.3</ele>
        <time>2012-05-06T09:02:19.086Z</time>
      </trkpt>
      <trkpt lat="49.37597" lon="1.23192">
        <ele>202.6</ele>
        <time>2012-05-06T09:02:20.086Z</time>
      </trkpt>
      <trkpt lat="49.37601" lon="1.23198">
        <ele>202.9</ele>
        <time>2012-05-06T09:02:21.086Z</time>
      </trkpt>
      <trkpt lat="49.37605" lon="1.23204">
        <ele>203.6</ele>
        <time>2012-05-06T09:02:22.086Z</time>
      </trkpt>
      <trkpt lat="49.37608" lon="1.23209">
        <ele>203.9</ele>
        <time>2012-05-06T09:02:23.086Z</time>
      </trkpt>
      <trkpt lat="49.37612" lon="1.23215">
        <ele>204.1</ele>
        <time>2012-05-06T09:02:24.086Z</time>
      </trkpt>
      <trkpt lat="49.37617" lon="1.23219">
        <ele>203.8</ele>
        <time>2012-05-06T09:02:25.086Z</time>
      </trkpt>
      <trkpt lat="49.37621" lon="1.23223">
        <ele>203.8</ele>
        <time>2012-05-06T09:02:26.129Z</time>
      </trkpt>
      <trkpt lat="49.37626" lon="1.23227">
        <ele>203.4</ele>
        <time>2012-05-06T09:02:27.088Z</time>
      </trkpt>
      <trkpt lat="49.3763" lon="1.23232">
        <ele>203</ele>
        <time>2012-05-06T09:02:28.088Z</time>
      </trkpt>
      <trkpt lat="49.37633" lon="1.23237">
        <ele>202.8</ele>
        <time>2012-05-06T09:02:29.086Z</time>
      </trkpt>
      <trkpt lat="49.37637" lon="1.23242">
        <ele>202.2</ele>
        <time>2012-05-06T09:02:30.088Z</time>
      </trkpt>
      <trkpt lat="49.37641" lon="1.23246">
        <ele>202.1</ele>
        <time>2012-05-06T09:02:31.088Z</time>
      </trkpt>
      <trkpt lat="49.37644" lon="1.23251">
        <ele>202.4</ele>
        <time>2012-05-06T09:02:32.087Z</time>
      </trkpt>
      <trkpt lat="49.37648" lon="1.23256">
        <ele>202.7</ele>
        <time>2012-05-06T09:02:33.085Z</time>
      </trkpt>
      <trkpt lat="49.37652" lon="1.23262">
        <ele>202.8</ele>
        <time>2012-05-06T09:02:34.107Z</time>
      </trkpt>
      <trkpt lat="49.37655" lon="1.23266">
        <ele>202.8</ele>
        <time>2012-05-06T09:02:35.103Z</time>
      </trkpt>
      <trkpt lat="49.37659" lon="1.23271">
        <ele>203.1</ele>
        <time>2012-05-06T09:02:36.086Z</time>
      </trkpt>
      <trkpt lat="49.37663" lon="1.23276">
        <ele>203.2</ele>
        <time>2012-05-06T09:02:37.086Z</time>
      </trkpt>
      <trkpt lat="49.37667" lon="1.23281">
        <ele>203.5</ele>
        <time>2012-05-06T09:02:38.087Z</time>
      </trkpt>
      <trkpt lat="49.37671" lon="1.23286">
        <ele>203.4</ele>
        <time>2012-05-06T09:02:39.086Z</time>
      </trkpt>
      <trkpt lat="49.37674" lon="1.2329">
        <ele>203.5</ele>
        <time>2012-05-06T09:02:40.087Z</time>
      </trkpt>
      <trkpt lat="49.37683" lon="1.23301">
        <ele>204</ele>
        <time>2012-05-06T09:02:42.316Z</time>
      </trkpt>
      <trkpt lat="49.37687" lon="1.23307">
        <ele>204</ele>
        <time>2012-05-06T09:02:43.316Z</time>
      </trkpt>
      <trkpt lat="49.37694" lon="1.23316">
        <ele>204.7</ele>
        <time>2012-05-06T09:02:45.095Z</time>
      </trkpt>
      <trkpt lat="49.37698" lon="1.23321">
        <ele>204.1</ele>
        <time>2012-05-06T09:02:46.093Z</time>
      </trkpt>
      <trkpt lat="49.37702" lon="1.23327">
        <ele>204</ele>
        <time>2012-05-06T09:02:47.092Z</time>
      </trkpt>
      <trkpt lat="49.37706" lon="1.23331">
        <ele>203.7</ele>
        <time>2012-05-06T09:02:48.092Z</time>
      </trkpt>
      <trkpt lat="49.37709" lon="1.23337">
        <ele>203.7</ele>
        <time>2012-05-06T09:02:49.107Z</time>
      </trkpt>
      <trkpt lat="49.37713" lon="1.23342">
        <ele>203.1</ele>
        <time>2012-05-06T09:02:50.100Z</time>
      </trkpt>
      <trkpt lat="49.37716" lon="1.23346">
        <ele>202.7</ele>
        <time>2012-05-06T09:02:51.087Z</time>
      </trkpt>
      <trkpt lat="49.37723" lon="1.23354">
        <ele>202.4</ele>
        <time>2012-05-06T09:02:53.093Z</time>
      </trkpt>
      <trkpt lat="49.3773" lon="1.23362">
        <ele>201.8</ele>
        <time>2012-05-06T09:02:55.096Z</time>
      </trkpt>
      <trkpt lat="49.37734" lon="1.23367">
        <ele>201.8</ele>
        <time>2012-05-06T09:02:56.092Z</time>
      </trkpt>
      <trkpt lat="49.37738" lon="1.23371">
        <ele>201.7</ele>
        <time>2012-05-06T09:02:57.091Z</time>
      </trkpt>
      <trkpt lat="49.37741" lon="1.23376">
        <ele>202.3</ele>
        <time>2012-05-06T09:02:58.094Z</time>
      </trkpt>
      <trkpt lat="49.37744" lon="1.23381">
        <ele>201.9</ele>
        <time>2012-05-06T09:02:59.097Z</time>
      </trkpt>
      <trkpt lat="49.37751" lon="1.2339">
        <ele>202.1</ele>
        <time>2012-05-06T09:03:01.093Z</time>
      </trkpt>
      <trkpt lat="49.37755" lon="1.23395">
        <ele>202</ele>
        <time>2012-05-06T09:03:02.092Z</time>
      </trkpt>
      <trkpt lat="49.37762" lon="1.23403">
        <ele>202.2</ele>
        <time>2012-05-06T09:03:04.088Z</time>
      </trkpt>
      <trkpt lat="49.37765" lon="1.23407">
        <ele>202</ele>
        <time>2012-05-06T09:03:05.091Z</time>
      </trkpt>
      <trkpt lat="49.37772" lon="1.23415">
        <ele>201.8</ele>
        <time>2012-05-06T09:03:07.095Z</time>
      </trkpt>
      <trkpt lat="49.37778" lon="1.23422">
        <ele>201.4</ele>
        <time>2012-05-06T09:03:09.094Z</time>
      </trkpt>
      <trkpt lat="49.37784" lon="1.2343">
        <ele>201.8</ele>
        <time>2012-05-06T09:03:11.092Z</time>
      </trkpt>
      <trkpt lat="49.37791" lon="1.23432">
        <ele>202</ele>
        <time>2012-05-06T09:03:13.078Z</time>
      </trkpt>
      <trkpt lat="49.37796" lon="1.23427">
        <ele>202.2</ele>
        <time>2012-05-06T09:03:15.091Z</time>
      </trkpt>
      <trkpt lat="49.378" lon="1.23416">
        <ele>202.2</ele>
        <time>2012-05-06T09:03:17.094Z</time>
      </trkpt>
      <trkpt lat="49.37805" lon="1.23405">
        <ele>202.8</ele>
        <time>2012-05-06T09:03:19.090Z</time>
      </trkpt>
      <trkpt lat="49.3781" lon="1.23394">
        <ele>202.9</ele>
        <time>2012-05-06T09:03:21.100Z</time>
      </trkpt>
      <trkpt lat="49.37812" lon="1.23388">
        <ele>203.2</ele>
        <time>2012-05-06T09:03:22.099Z</time>
      </trkpt>
      <trkpt lat="49.37816" lon="1.23376">
        <ele>203.2</ele>
        <time>2012-05-06T09:03:24.095Z</time>
      </trkpt>
      <trkpt lat="49.37822" lon="1.23365">
        <ele>202.9</ele>
        <time>2012-05-06T09:03:26.093Z</time>
      </trkpt>
      <trkpt lat="49.37826" lon="1.23358">
        <ele>203.2</ele>
        <time>2012-05-06T09:03:27.082Z</time>
      </trkpt>
      <trkpt lat="49.37828" lon="1.23352">
        <ele>203</ele>
        <time>2012-05-06T09:03:28.091Z</time>
      </trkpt>
      <trkpt lat="49.37832" lon="1.23347">
        <ele>203</ele>
        <time>2012-05-06T09:03:29.087Z</time>
      </trkpt>
      <trkpt lat="49.37837" lon="1.23336">
        <ele>203.9</ele>
        <time>2012-05-06T09:03:31.080Z</time>
      </trkpt>
      <trkpt lat="49.3784" lon="1.2333">
        <ele>204.1</ele>
        <time>2012-05-06T09:03:32.098Z</time>
      </trkpt>
      <trkpt lat="49.37844" lon="1.23325">
        <ele>204</ele>
        <time>2012-05-06T09:03:33.095Z</time>
      </trkpt>
      <trkpt lat="49.37847" lon="1.23321">
        <ele>203.5</ele>
        <time>2012-05-06T09:03:34.091Z</time>
      </trkpt>
      <trkpt lat="49.37851" lon="1.23315">
        <ele>203.6</ele>
        <time>2012-05-06T09:03:35.095Z</time>
      </trkpt>
      <trkpt lat="49.37855" lon="1.2331">
        <ele>203.8</ele>
        <time>2012-05-06T09:03:36.097Z</time>
      </trkpt>
      <trkpt lat="49.37859" lon="1.23306">
        <ele>203.9</ele>
        <time>2012-05-06T09:03:37.086Z</time>
      </trkpt>
      <trkpt lat="49.37863" lon="1.23301">
        <ele>203.9</ele>
        <time>2012-05-06T09:03:38.094Z</time>
      </trkpt>
      <trkpt lat="49.37868" lon="1.23296">
        <ele>204</ele>
        <time>2012-05-06T09:03:39.093Z</time>
      </trkpt>
      <trkpt lat="49.37872" lon="1.23291">
        <ele>204.3</ele>
        <time>2012-05-06T09:03:40.080Z</time>
      </trkpt>
      <trkpt lat="49.37882" lon="1.2328">
        <ele>204.1</ele>
        <time>2012-05-06T09:03:42.234Z</time>
      </trkpt>
      <trkpt lat="49.37885" lon="1.23275">
        <ele>204.2</ele>
        <time>2012-05-06T09:03:43.234Z</time>
      </trkpt>
      <trkpt lat="49.37892" lon="1.23267">
        <ele>204.4</ele>
        <time>2012-05-06T09:03:45.078Z</time>
      </trkpt>
      <trkpt lat="49.37896" lon="1.23261">
        <ele>203.9</ele>
        <time>2012-05-06T09:03:46.093Z</time>
      </trkpt>
      <trkpt lat="49.379" lon="1.23256">
        <ele>203.6</ele>
        <time>2012-05-06T09:03:47.088Z</time>
      </trkpt>
      <trkpt lat="49.37904" lon="1.23252">
        <ele>203.4</ele>
        <time>2012-05-06T09:03:48.090Z</time>
      </trkpt>
      <trkpt lat="49.37908" lon="1.23248">
        <ele>203.5</ele>
        <time>2012-05-06T09:03:49.083Z</time>
      </trkpt>
      <trkpt lat="49.37912" lon="1.23242">
        <ele>203.1</ele>
        <time>2012-05-06T09:03:50.090Z</time>
      </trkpt>
      <trkpt lat="49.37916" lon="1.23237">
        <ele>203.2</ele>
        <time>2012-05-06T09:03:51.094Z</time>
      </trkpt>
      <trkpt lat="49.37921" lon="1.23232">
        <ele>202.6</ele>
        <time>2012-05-06T09:03:52.091Z</time>
      </trkpt>
      <trkpt lat="49.37926" lon="1.23227">
        <ele>202.1</ele>
        <time>2012-05-06T09:03:53.101Z</time>
      </trkpt>
      <trkpt lat="49.37931" lon="1.23222">
        <ele>202.5</ele>
        <time>2012-05-06T09:03:54.101Z</time>
      </trkpt>
      <trkpt lat="49.37936" lon="1.23218">
        <ele>202.9</ele>
        <time>2012-05-06T09:03:55.088Z</time>
      </trkpt>
      <trkpt lat="49.3794" lon="1.23212">
        <ele>202.8</ele>
        <time>2012-05-06T09:03:56.089Z</time>
      </trkpt>
      <trkpt lat="49.37945" lon="1.23206">
        <ele>202.6</ele>
        <time>2012-05-06T09:03:57.090Z</time>
      </trkpt>
      <trkpt lat="49.3795" lon="1.23202">
        <ele>202.4</ele>
        <time>2012-05-06T09:03:58.081Z</time>
      </trkpt>
      <trkpt lat="49.37954" lon="1.23196">
        <ele>202.4</ele>
        <time>2012-05-06T09:03:59.093Z</time>
      </trkpt>
      <trkpt lat="49.37959" lon="1.23191">
        <ele>202.2</ele>
        <time>2012-05-06T09:04:00.094Z</time>
      </trkpt>
      <trkpt lat="49.37963" lon="1.23186">
        <ele>202.2</ele>
        <time>2012-05-06T09:04:01.089Z</time>
      </trkpt>
      <trkpt lat="49.37968" lon="1.2318">
        <ele>202.4</ele>
        <time>2012-05-06T09:04:02.095Z</time>
      </trkpt>
      <trkpt lat="49.37972" lon="1.23176">
        <ele>202.3</ele>
        <time>2012-05-06T09:04:03.089Z</time>
      </trkpt>
      <trkpt lat="49.37977" lon="1.23171">
        <ele>201.9</ele>
        <time>2012-05-06T09:04:04.086Z</time>
      </trkpt>
      <trkpt lat="49.37981" lon="1.23167">
        <ele>202.1</ele>
        <time>2012-05-06T09:04:05.091Z</time>
      </trkpt>
      <trkpt lat="49.37986" lon="1.23163">
        <ele>202.2</ele>
        <time>2012-05-06T09:04:06.090Z</time>
      </trkpt>
      <trkpt lat="49.3799" lon="1.23158">
        <ele>201.7</ele>
        <time>2012-05-06T09:04:07.078Z</time>
      </trkpt>
      <trkpt lat="49.37994" lon="1.23154">
        <ele>201.4</ele>
        <time>2012-05-06T09:04:08.080Z</time>
      </trkpt>
      <trkpt lat="49.38003" lon="1.23154">
        <ele>200.5</ele>
        <time>2012-05-06T09:04:10.094Z</time>
      </trkpt>
      <trkpt lat="49.38007" lon="1.23159">
        <ele>200.2</ele>
        <time>2012-05-06T09:04:11.095Z</time>
      </trkpt>
      <trkpt lat="49.3801" lon="1.23166">
        <ele>200.4</ele>
        <time>2012-05-06T09:04:12.094Z</time>
      </trkpt>
      <trkpt lat="49.38012" lon="1.23175">
        <ele>200.7</ele>
        <time>2012-05-06T09:04:13.092Z</time>
      </trkpt>
      <trkpt lat="49.38015" lon="1.23183">
        <ele>200.5</ele>
        <time>2012-05-06T09:04:14.094Z</time>
      </trkpt>
      <trkpt lat="49.38017" lon="1.23191">
        <ele>200.9</ele>
        <time>2012-05-06T09:04:15.097Z</time>
      </trkpt>
      <trkpt lat="49.3802" lon="1.23198">
        <ele>201.5</ele>
        <time>2012-05-06T09:04:16.095Z</time>
      </trkpt>
      <trkpt lat="49.38023" lon="1.23205">
        <ele>202.2</ele>
        <time>2012-05-06T09:04:17.090Z</time>
      </trkpt>
      <trkpt lat="49.38025" lon="1.23212">
        <ele>201.9</ele>
        <time>2012-05-06T09:04:18.076Z</time>
      </trkpt>
      <trkpt lat="49.38027" lon="1.23219">
        <ele>201.8</ele>
        <time>2012-05-06T09:04:19.091Z</time>
      </trkpt>
      <trkpt lat="49.38029" lon="1.23228">
        <ele>202.2</ele>
        <time>2012-05-06T09:04:20.089Z</time>
      </trkpt>
      <trkpt lat="49.38032" lon="1.23236">
        <ele>202</ele>
        <time>2012-05-06T09:04:21.093Z</time>
      </trkpt>
      <trkpt lat="49.38035" lon="1.23244">
        <ele>202.1</ele>
        <time>2012-05-06T09:04:22.082Z</time>
      </trkpt>
      <trkpt lat="49.38038" lon="1.23251">
        <ele>202.9</ele>
        <time>2012-05-06T09:04:23.086Z</time>
      </trkpt>
      <trkpt lat="49.38041" lon="1.23258">
        <ele>204</ele>
        <time>2012-05-06T09:04:24.095Z</time>
      </trkpt>
      <trkpt lat="49.38046" lon="1.23263">
        <ele>203.3</ele>
        <time>2012-05-06T09:04:25.101Z</time>
      </trkpt>
      <trkpt lat="49.3805" lon="1.23268">
        <ele>203.3</ele>
        <time>2012-05-06T09:04:26.100Z</time>
      </trkpt>
      <trkpt lat="49.38055" lon="1.23272">
        <ele>203.3</ele>
        <time>2012-05-06T09:04:27.090Z</time>
      </trkpt>
      <trkpt lat="49.3806" lon="1.23276">
        <ele>203.3</ele>
        <time>2012-05-06T09:04:28.092Z</time>
      </trkpt>
      <trkpt lat="49.38065" lon="1.23279">
        <ele>202.8</ele>
        <time>2012-05-06T09:04:29.091Z</time>
      </trkpt>
      <trkpt lat="49.3807" lon="1.23283">
        <ele>202.3</ele>
        <time>2012-05-06T09:04:30.094Z</time>
      </trkpt>
      <trkpt lat="49.38076" lon="1.23286">
        <ele>202.2</ele>
        <time>2012-05-06T09:04:31.081Z</time>
      </trkpt>
      <trkpt lat="49.38082" lon="1.23289">
        <ele>202.3</ele>
        <time>2012-05-06T09:04:32.091Z</time>
      </trkpt>
      <trkpt lat="49.38086" lon="1.23291">
        <ele>202.1</ele>
        <time>2012-05-06T09:04:33.090Z</time>
      </trkpt>
      <trkpt lat="49.38091" lon="1.23293">
        <ele>201.7</ele>
        <time>2012-05-06T09:04:34.090Z</time>
      </trkpt>
      <trkpt lat="49.38096" lon="1.23296">
        <ele>201.4</ele>
        <time>2012-05-06T09:04:35.091Z</time>
      </trkpt>
      <trkpt lat="49.38101" lon="1.23298">
        <ele>200.5</ele>
        <time>2012-05-06T09:04:36.077Z</time>
      </trkpt>
      <trkpt lat="49.38106" lon="1.233">
        <ele>199.4</ele>
        <time>2012-05-06T09:04:37.077Z</time>
      </trkpt>
      <trkpt lat="49.38111" lon="1.23301">
        <ele>198.7</ele>
        <time>2012-05-06T09:04:38.077Z</time>
      </trkpt>
      <trkpt lat="49.38116" lon="1.23303">
        <ele>198.9</ele>
        <time>2012-05-06T09:04:39.077Z</time>
      </trkpt>
      <trkpt lat="49.38121" lon="1.23304">
        <ele>198.2</ele>
        <time>2012-05-06T09:04:40.088Z</time>
      </trkpt>
      <trkpt lat="49.38131" lon="1.23306">
        <ele>198.1</ele>
        <time>2012-05-06T09:04:42.188Z</time>
      </trkpt>
      <trkpt lat="49.38135" lon="1.2331">
        <ele>197.5</ele>
        <time>2012-05-06T09:04:43.188Z</time>
      </trkpt>
      <trkpt lat="49.38146" lon="1.23313">
        <ele>196.8</ele>
        <time>2012-05-06T09:04:45.077Z</time>
      </trkpt>
      <trkpt lat="49.38151" lon="1.23314">
        <ele>196.4</ele>
        <time>2012-05-06T09:04:46.092Z</time>
      </trkpt>
      <trkpt lat="49.38156" lon="1.23314">
        <ele>195.9</ele>
        <time>2012-05-06T09:04:47.092Z</time>
      </trkpt>
      <trkpt lat="49.38161" lon="1.23316">
        <ele>196</ele>
        <time>2012-05-06T09:04:48.080Z</time>
      </trkpt>
      <trkpt lat="49.38167" lon="1.23317">
        <ele>195.8</ele>
        <time>2012-05-06T09:04:49.095Z</time>
      </trkpt>
      <trkpt lat="49.38172" lon="1.23319">
        <ele>195.9</ele>
        <time>2012-05-06T09:04:50.087Z</time>
      </trkpt>
      <trkpt lat="49.38178" lon="1.2332">
        <ele>195.4</ele>
        <time>2012-05-06T09:04:51.093Z</time>
      </trkpt>
      <trkpt lat="49.38183" lon="1.23322">
        <ele>195</ele>
        <time>2012-05-06T09:04:52.074Z</time>
      </trkpt>
      <trkpt lat="49.38188" lon="1.23324">
        <ele>195.1</ele>
        <time>2012-05-06T09:04:53.091Z</time>
      </trkpt>
      <trkpt lat="49.38194" lon="1.23326">
        <ele>195.4</ele>
        <time>2012-05-06T09:04:54.081Z</time>
      </trkpt>
      <trkpt lat="49.38199" lon="1.23328">
        <ele>194.9</ele>
        <time>2012-05-06T09:04:55.089Z</time>
      </trkpt>
      <trkpt lat="49.38204" lon="1.2333">
        <ele>194.4</ele>
        <time>2012-05-06T09:04:56.091Z</time>
      </trkpt>
      <trkpt lat="49.3821" lon="1.23333">
        <ele>194.7</ele>
        <time>2012-05-06T09:04:57.100Z</time>
      </trkpt>
      <trkpt lat="49.38214" lon="1.23335">
        <ele>194.5</ele>
        <time>2012-05-06T09:04:58.084Z</time>
      </trkpt>
      <trkpt lat="49.38219" lon="1.2334">
        <ele>194.7</ele>
        <time>2012-05-06T09:04:59.087Z</time>
      </trkpt>
      <trkpt lat="49.38224" lon="1.23343">
        <ele>194.5</ele>
        <time>2012-05-06T09:05:00.091Z</time>
      </trkpt>
      <trkpt lat="49.38228" lon="1.23347">
        <ele>193.4</ele>
        <time>2012-05-06T09:05:01.095Z</time>
      </trkpt>
      <trkpt lat="49.38232" lon="1.23353">
        <ele>193</ele>
        <time>2012-05-06T09:05:02.091Z</time>
      </trkpt>
      <trkpt lat="49.38237" lon="1.23359">
        <ele>192.8</ele>
        <time>2012-05-06T09:05:03.080Z</time>
      </trkpt>
      <trkpt lat="49.3824" lon="1.23364">
        <ele>192.9</ele>
        <time>2012-05-06T09:05:04.091Z</time>
      </trkpt>
      <trkpt lat="49.38244" lon="1.2337">
        <ele>192.4</ele>
        <time>2012-05-06T09:05:05.094Z</time>
      </trkpt>
      <trkpt lat="49.38248" lon="1.23376">
        <ele>192.7</ele>
        <time>2012-05-06T09:05:06.092Z</time>
      </trkpt>
      <trkpt lat="49.38252" lon="1.23383">
        <ele>192.8</ele>
        <time>2012-05-06T09:05:07.088Z</time>
      </trkpt>
      <trkpt lat="49.38256" lon="1.2339">
        <ele>192.5</ele>
        <time>2012-05-06T09:05:08.085Z</time>
      </trkpt>
      <trkpt lat="49.38259" lon="1.23397">
        <ele>192.3</ele>
        <time>2012-05-06T09:05:09.091Z</time>
      </trkpt>
      <trkpt lat="49.38263" lon="1.23403">
        <ele>192.3</ele>
        <time>2012-05-06T09:05:10.092Z</time>
      </trkpt>
      <trkpt lat="49.38266" lon="1.23409">
        <ele>192.5</ele>
        <time>2012-05-06T09:05:11.077Z</time>
      </trkpt>
      <trkpt lat="49.38269" lon="1.23416">
        <ele>193.1</ele>
        <time>2012-05-06T09:05:12.095Z</time>
      </trkpt>
      <trkpt lat="49.38272" lon="1.23424">
        <ele>193.5</ele>
        <time>2012-05-06T09:05:13.096Z</time>
      </trkpt>
      <trkpt lat="49.38277" lon="1.23435">
        <ele>193.5</ele>
        <time>2012-05-06T09:05:15.091Z</time>
      </trkpt>
      <trkpt lat="49.38279" lon="1.23441">
        <ele>193.4</ele>
        <time>2012-05-06T09:05:16.078Z</time>
      </trkpt>
      <trkpt lat="49.38282" lon="1.23446">
        <ele>193.4</ele>
        <time>2012-05-06T09:05:17.093Z</time>
      </trkpt>
      <trkpt lat="49.38284" lon="1.23454">
        <ele>193.6</ele>
        <time>2012-05-06T09:05:18.088Z</time>
      </trkpt>
      <trkpt lat="49.38287" lon="1.2346">
        <ele>194</ele>
        <time>2012-05-06T09:05:19.093Z</time>
      </trkpt>
      <trkpt lat="49.3829" lon="1.23468">
        <ele>193.9</ele>
        <time>2012-05-06T09:05:20.095Z</time>
      </trkpt>
      <trkpt lat="49.38294" lon="1.23474">
        <ele>194</ele>
        <time>2012-05-06T09:05:21.091Z</time>
      </trkpt>
      <trkpt lat="49.38298" lon="1.2348">
        <ele>194</ele>
        <time>2012-05-06T09:05:22.094Z</time>
      </trkpt>
      <trkpt lat="49.38302" lon="1.23486">
        <ele>193.4</ele>
        <time>2012-05-06T09:05:23.090Z</time>
      </trkpt>
      <trkpt lat="49.38306" lon="1.23491">
        <ele>192.8</ele>
        <time>2012-05-06T09:05:24.092Z</time>
      </trkpt>
      <trkpt lat="49.38311" lon="1.23496">
        <ele>192.2</ele>
        <time>2012-05-06T09:05:25.081Z</time>
      </trkpt>
      <trkpt lat="49.38318" lon="1.23499">
        <ele>192.5</ele>
        <time>2012-05-06T09:05:26.074Z</time>
      </trkpt>
      <trkpt lat="49.38324" lon="1.23504">
        <ele>193</ele>
        <time>2012-05-06T09:05:27.091Z</time>
      </trkpt>
      <trkpt lat="49.38329" lon="1.23509">
        <ele>192.6</ele>
        <time>2012-05-06T09:05:28.094Z</time>
      </trkpt>
      <trkpt lat="49.38335" lon="1.23512">
        <ele>192.4</ele>
        <time>2012-05-06T09:05:29.100Z</time>
      </trkpt>
      <trkpt lat="49.38341" lon="1.23516">
        <ele>192.3</ele>
        <time>2012-05-06T09:05:30.105Z</time>
      </trkpt>
      <trkpt lat="49.38346" lon="1.2352">
        <ele>192.1</ele>
        <time>2012-05-06T09:05:31.084Z</time>
      </trkpt>
      <trkpt lat="49.3835" lon="1.23524">
        <ele>191.6</ele>
        <time>2012-05-06T09:05:32.091Z</time>
      </trkpt>
      <trkpt lat="49.38356" lon="1.23528">
        <ele>191.8</ele>
        <time>2012-05-06T09:05:33.095Z</time>
      </trkpt>
      <trkpt lat="49.38361" lon="1.23532">
        <ele>191.7</ele>
        <time>2012-05-06T09:05:34.096Z</time>
      </trkpt>
      <trkpt lat="49.38366" lon="1.23537">
        <ele>191.4</ele>
        <time>2012-05-06T09:05:35.094Z</time>
      </trkpt>
      <trkpt lat="49.38371" lon="1.23542">
        <ele>190.4</ele>
        <time>2012-05-06T09:05:36.090Z</time>
      </trkpt>
      <trkpt lat="49.38375" lon="1.23546">
        <ele>190.3</ele>
        <time>2012-05-06T09:05:37.094Z</time>
      </trkpt>
      <trkpt lat="49.3838" lon="1.2355">
        <ele>189.6</ele>
        <time>2012-05-06T09:05:38.091Z</time>
      </trkpt>
      <trkpt lat="49.38385" lon="1.23553">
        <ele>188.7</ele>
        <time>2012-05-06T09:05:39.078Z</time>
      </trkpt>
      <trkpt lat="49.3839" lon="1.23558">
        <ele>187.7</ele>
        <time>2012-05-06T09:05:40.091Z</time>
      </trkpt>
      <trkpt lat="49.38401" lon="1.23566">
        <ele>186.5</ele>
        <time>2012-05-06T09:05:42.237Z</time>
      </trkpt>
      <trkpt lat="49.38406" lon="1.23571">
        <ele>186.3</ele>
        <time>2012-05-06T09:05:43.237Z</time>
      </trkpt>
      <trkpt lat="49.38415" lon="1.23581">
        <ele>185</ele>
        <time>2012-05-06T09:05:45.092Z</time>
      </trkpt>
      <trkpt lat="49.3842" lon="1.23585">
        <ele>184.6</ele>
        <time>2012-05-06T09:05:46.093Z</time>
      </trkpt>
      <trkpt lat="49.38426" lon="1.23591">
        <ele>184.7</ele>
        <time>2012-05-06T09:05:47.089Z</time>
      </trkpt>
      <trkpt lat="49.38431" lon="1.23595">
        <ele>185.2</ele>
        <time>2012-05-06T09:05:48.092Z</time>
      </trkpt>
      <trkpt lat="49.38437" lon="1.236">
        <ele>185.3</ele>
        <time>2012-05-06T09:05:49.091Z</time>
      </trkpt>
      <trkpt lat="49.38442" lon="1.23604">
        <ele>185</ele>
        <time>2012-05-06T09:05:50.093Z</time>
      </trkpt>
      <trkpt lat="49.38447" lon="1.23608">
        <ele>184.5</ele>
        <time>2012-05-06T09:05:51.093Z</time>
      </trkpt>
      <trkpt lat="49.38452" lon="1.23612">
        <ele>183.7</ele>
        <time>2012-05-06T09:05:52.078Z</time>
      </trkpt>
      <trkpt lat="49.38456" lon="1.23617">
        <ele>182.7</ele>
        <time>2012-05-06T09:05:53.091Z</time>
      </trkpt>
      <trkpt lat="49.38462" lon="1.2362">
        <ele>183.3</ele>
        <time>2012-05-06T09:05:54.091Z</time>
      </trkpt>
      <trkpt lat="49.38466" lon="1.23624">
        <ele>183</ele>
        <time>2012-05-06T09:05:55.078Z</time>
      </trkpt>
      <trkpt lat="49.38472" lon="1.23628">
        <ele>182.3</ele>
        <time>2012-05-06T09:05:56.095Z</time>
      </trkpt>
      <trkpt lat="49.38476" lon="1.23633">
        <ele>182</ele>
        <time>2012-05-06T09:05:57.090Z</time>
      </trkpt>
      <trkpt lat="49.38481" lon="1.23638">
        <ele>181.6</ele>
        <time>2012-05-06T09:05:58.081Z</time>
      </trkpt>
      <trkpt lat="49.38486" lon="1.23642">
        <ele>182</ele>
        <time>2012-05-06T09:05:59.093Z</time>
      </trkpt>
      <trkpt lat="49.38491" lon="1.23645">
        <ele>182.4</ele>
        <time>2012-05-06T09:06:00.087Z</time>
      </trkpt>
      <trkpt lat="49.38496" lon="1.23649">
        <ele>182.9</ele>
        <time>2012-05-06T09:06:01.107Z</time>
      </trkpt>
      <trkpt lat="49.38503" lon="1.23653">
        <ele>183.1</ele>
        <time>2012-05-06T09:06:02.269Z</time>
      </trkpt>
      <trkpt lat="49.38508" lon="1.23657">
        <ele>182.9</ele>
        <time>2012-05-06T09:06:03.269Z</time>
      </trkpt>
      <trkpt lat="49.38512" lon="1.23661">
        <ele>182.8</ele>
        <time>2012-05-06T09:06:04.269Z</time>
      </trkpt>
      <trkpt lat="49.38517" lon="1.23665">
        <ele>182.9</ele>
        <time>2012-05-06T09:06:05.269Z</time>
      </trkpt>
      <trkpt lat="49.38522" lon="1.23668">
        <ele>183.2</ele>
        <time>2012-05-06T09:06:06.269Z</time>
      </trkpt>
      <trkpt lat="49.38526" lon="1.23672">
        <ele>183.1</ele>
        <time>2012-05-06T09:06:07.269Z</time>
      </trkpt>
      <trkpt lat="49.38531" lon="1.23675">
        <ele>183</ele>
        <time>2012-05-06T09:06:08.269Z</time>
      </trkpt>
      <trkpt lat="49.38535" lon="1.23679">
        <ele>183.1</ele>
        <time>2012-05-06T09:06:09.269Z</time>
      </trkpt>
      <trkpt lat="49.38539" lon="1.23682">
        <ele>183.3</ele>
        <time>2012-05-06T09:06:10.269Z</time>
      </trkpt>
      <trkpt lat="49.38546" lon="1.23688">
        <ele>184.8</ele>
        <time>2012-05-06T09:06:12.094Z</time>
      </trkpt>
      <trkpt lat="49.38554" lon="1.23694">
        <ele>184.7</ele>
        <time>2012-05-06T09:06:14.094Z</time>
      </trkpt>
      <trkpt lat="49.38558" lon="1.23697">
        <ele>185.4</ele>
        <time>2012-05-06T09:06:15.095Z</time>
      </trkpt>
      <trkpt lat="49.38562" lon="1.237">
        <ele>185</ele>
        <time>2012-05-06T09:06:16.092Z</time>
      </trkpt>
      <trkpt lat="49.38566" lon="1.23704">
        <ele>184.9</ele>
        <time>2012-05-06T09:06:17.093Z</time>
      </trkpt>
      <trkpt lat="49.38574" lon="1.23709">
        <ele>184.8</ele>
        <time>2012-05-06T09:06:19.090Z</time>
      </trkpt>
      <trkpt lat="49.38581" lon="1.23714">
        <ele>184.6</ele>
        <time>2012-05-06T09:06:21.093Z</time>
      </trkpt>
      <trkpt lat="49.38588" lon="1.23719">
        <ele>184.7</ele>
        <time>2012-05-06T09:06:23.090Z</time>
      </trkpt>
      <trkpt lat="49.38595" lon="1.23723">
        <ele>185.2</ele>
        <time>2012-05-06T09:06:25.092Z</time>
      </trkpt>
      <trkpt lat="49.38602" lon="1.23728">
        <ele>185.8</ele>
        <time>2012-05-06T09:06:27.079Z</time>
      </trkpt>
      <trkpt lat="49.38608" lon="1.23734">
        <ele>186.2</ele>
        <time>2012-05-06T09:06:29.088Z</time>
      </trkpt>
      <trkpt lat="49.38614" lon="1.23737">
        <ele>185.7</ele>
        <time>2012-05-06T09:06:31.095Z</time>
      </trkpt>
      <trkpt lat="49.3862" lon="1.23741">
        <ele>185.1</ele>
        <time>2012-05-06T09:06:33.098Z</time>
      </trkpt>
      <trkpt lat="49.38625" lon="1.23743">
        <ele>185.6</ele>
        <time>2012-05-06T09:06:35.083Z</time>
      </trkpt>
      <trkpt lat="49.38631" lon="1.23749">
        <ele>184.7</ele>
        <time>2012-05-06T09:06:37.095Z</time>
      </trkpt>
      <trkpt lat="49.38636" lon="1.23752">
        <ele>184.8</ele>
        <time>2012-05-06T09:06:38.090Z</time>
      </trkpt>
      <trkpt lat="49.38641" lon="1.23755">
        <ele>184.8</ele>
        <time>2012-05-06T09:06:39.078Z</time>
      </trkpt>
      <trkpt lat="49.38646" lon="1.23759">
        <ele>185</ele>
        <time>2012-05-06T09:06:40.090Z</time>
      </trkpt>
      <trkpt lat="49.38657" lon="1.23766">
        <ele>185.1</ele>
        <time>2012-05-06T09:06:42.231Z</time>
      </trkpt>
      <trkpt lat="49.38662" lon="1.2377">
        <ele>184.8</ele>
        <time>2012-05-06T09:06:43.231Z</time>
      </trkpt>
      <trkpt lat="49.38671" lon="1.23777">
        <ele>184</ele>
        <time>2012-05-06T09:06:45.091Z</time>
      </trkpt>
      <trkpt lat="49.38676" lon="1.23781">
        <ele>183.5</ele>
        <time>2012-05-06T09:06:46.092Z</time>
      </trkpt>
      <trkpt lat="49.38682" lon="1.23782">
        <ele>183.1</ele>
        <time>2012-05-06T09:06:47.079Z</time>
      </trkpt>
      <trkpt lat="49.38687" lon="1.23784">
        <ele>183.1</ele>
        <time>2012-05-06T09:06:48.089Z</time>
      </trkpt>
      <trkpt lat="49.38692" lon="1.23785">
        <ele>183.5</ele>
        <time>2012-05-06T09:06:49.083Z</time>
      </trkpt>
      <trkpt lat="49.38697" lon="1.23787">
        <ele>183</ele>
        <time>2012-05-06T09:06:50.089Z</time>
      </trkpt>
      <trkpt lat="49.38702" lon="1.23789">
        <ele>182.7</ele>
        <time>2012-05-06T09:06:51.089Z</time>
      </trkpt>
      <trkpt lat="49.38708" lon="1.23792">
        <ele>182.9</ele>
        <time>2012-05-06T09:06:52.086Z</time>
      </trkpt>
      <trkpt lat="49.38713" lon="1.23795">
        <ele>182.7</ele>
        <time>2012-05-06T09:06:53.084Z</time>
      </trkpt>
      <trkpt lat="49.38718" lon="1.23796">
        <ele>181.8</ele>
        <time>2012-05-06T09:06:54.090Z</time>
      </trkpt>
      <trkpt lat="49.38723" lon="1.23798">
        <ele>181.7</ele>
        <time>2012-05-06T09:06:55.092Z</time>
      </trkpt>
      <trkpt lat="49.38729" lon="1.23802">
        <ele>181.2</ele>
        <time>2012-05-06T09:06:56.075Z</time>
      </trkpt>
      <trkpt lat="49.38735" lon="1.23804">
        <ele>181.1</ele>
        <time>2012-05-06T09:06:57.077Z</time>
      </trkpt>
      <trkpt lat="49.3874" lon="1.23806">
        <ele>181.7</ele>
        <time>2012-05-06T09:06:58.093Z</time>
      </trkpt>
      <trkpt lat="49.38746" lon="1.23808">
        <ele>181.8</ele>
        <time>2012-05-06T09:06:59.092Z</time>
      </trkpt>
      <trkpt lat="49.38751" lon="1.23811">
        <ele>181.4</ele>
        <time>2012-05-06T09:07:00.091Z</time>
      </trkpt>
      <trkpt lat="49.38757" lon="1.23815">
        <ele>181.8</ele>
        <time>2012-05-06T09:07:01.081Z</time>
      </trkpt>
      <trkpt lat="49.38763" lon="1.23819">
        <ele>181.2</ele>
        <time>2012-05-06T09:07:02.092Z</time>
      </trkpt>
      <trkpt lat="49.38768" lon="1.23822">
        <ele>181.1</ele>
        <time>2012-05-06T09:07:03.090Z</time>
      </trkpt>
      <trkpt lat="49.38773" lon="1.23824">
        <ele>181.4</ele>
        <time>2012-05-06T09:07:04.090Z</time>
      </trkpt>
      <trkpt lat="49.38778" lon="1.23827">
        <ele>181.5</ele>
        <time>2012-05-06T09:07:05.102Z</time>
      </trkpt>
      <trkpt lat="49.38783" lon="1.2383">
        <ele>181.3</ele>
        <time>2012-05-06T09:07:06.086Z</time>
      </trkpt>
      <trkpt lat="49.38788" lon="1.23833">
        <ele>180.9</ele>
        <time>2012-05-06T09:07:07.084Z</time>
      </trkpt>
      <trkpt lat="49.38794" lon="1.23836">
        <ele>180.9</ele>
        <time>2012-05-06T09:07:08.093Z</time>
      </trkpt>
      <trkpt lat="49.388" lon="1.23837">
        <ele>181.1</ele>
        <time>2012-05-06T09:07:09.094Z</time>
      </trkpt>
      <trkpt lat="49.38806" lon="1.2384">
        <ele>180.6</ele>
        <time>2012-05-06T09:07:10.093Z</time>
      </trkpt>
      <trkpt lat="49.38812" lon="1.23843">
        <ele>180.2</ele>
        <time>2012-05-06T09:07:11.076Z</time>
      </trkpt>
      <trkpt lat="49.38818" lon="1.23846">
        <ele>180.1</ele>
        <time>2012-05-06T09:07:12.091Z</time>
      </trkpt>
      <trkpt lat="49.38825" lon="1.23848">
        <ele>180.2</ele>
        <time>2012-05-06T09:07:13.087Z</time>
      </trkpt>
      <trkpt lat="49.3883" lon="1.23852">
        <ele>180.3</ele>
        <time>2012-05-06T09:07:14.082Z</time>
      </trkpt>
      <trkpt lat="49.38836" lon="1.23855">
        <ele>180</ele>
        <time>2012-05-06T09:07:15.092Z</time>
      </trkpt>
      <trkpt lat="49.38842" lon="1.23857">
        <ele>180.2</ele>
        <time>2012-05-06T09:07:16.080Z</time>
      </trkpt>
      <trkpt lat="49.38848" lon="1.23859">
        <ele>180.2</ele>
        <time>2012-05-06T09:07:17.093Z</time>
      </trkpt>
      <trkpt lat="49.38854" lon="1.23862">
        <ele>180</ele>
        <time>2012-05-06T09:07:18.093Z</time>
      </trkpt>
      <trkpt lat="49.38858" lon="1.23865">
        <ele>180</ele>
        <time>2012-05-06T09:07:19.091Z</time>
      </trkpt>
      <trkpt lat="49.38862" lon="1.23869">
        <ele>179.4</ele>
        <time>2012-05-06T09:07:20.081Z</time>
      </trkpt>
      <trkpt lat="49.38868" lon="1.23871">
        <ele>179.2</ele>
        <time>2012-05-06T09:07:21.094Z</time>
      </trkpt>
      <trkpt lat="49.38874" lon="1.23875">
        <ele>178.7</ele>
        <time>2012-05-06T09:07:22.090Z</time>
      </trkpt>
      <trkpt lat="49.38879" lon="1.23876">
        <ele>177.6</ele>
        <time>2012-05-06T09:07:23.090Z</time>
      </trkpt>
      <trkpt lat="49.38884" lon="1.2388">
        <ele>177.2</ele>
        <time>2012-05-06T09:07:24.076Z</time>
      </trkpt>
      <trkpt lat="49.38889" lon="1.2388">
        <ele>176.7</ele>
        <time>2012-05-06T09:07:25.073Z</time>
      </trkpt>
      <trkpt lat="49.38893" lon="1.23883">
        <ele>176</ele>
        <time>2012-05-06T09:07:26.076Z</time>
      </trkpt>
      <trkpt lat="49.389" lon="1.23884">
        <ele>176.1</ele>
        <time>2012-05-06T09:07:27.081Z</time>
      </trkpt>
      <trkpt lat="49.38907" lon="1.23879">
        <ele>177.9</ele>
        <time>2012-05-06T09:07:29.085Z</time>
      </trkpt>
      <trkpt lat="49.38914" lon="1.2387">
        <ele>180.1</ele>
        <time>2012-05-06T09:07:31.092Z</time>
      </trkpt>
      <trkpt lat="49.3892" lon="1.23859">
        <ele>181</ele>
        <time>2012-05-06T09:07:33.092Z</time>
      </trkpt>
      <trkpt lat="49.38922" lon="1.23852">
        <ele>180.9</ele>
        <time>2012-05-06T09:07:34.095Z</time>
      </trkpt>
      <trkpt lat="49.38925" lon="1.23843">
        <ele>181.1</ele>
        <time>2012-05-06T09:07:35.094Z</time>
      </trkpt>
      <trkpt lat="49.38928" lon="1.23836">
        <ele>181.4</ele>
        <time>2012-05-06T09:07:36.098Z</time>
      </trkpt>
      <trkpt lat="49.38934" lon="1.23828">
        <ele>181.9</ele>
        <time>2012-05-06T09:07:37.096Z</time>
      </trkpt>
      <trkpt lat="49.38939" lon="1.2382">
        <ele>182.2</ele>
        <time>2012-05-06T09:07:38.086Z</time>
      </trkpt>
      <trkpt lat="49.3894" lon="1.23813">
        <ele>182.4</ele>
        <time>2012-05-06T09:07:39.088Z</time>
      </trkpt>
      <trkpt lat="49.38946" lon="1.23789">
        <ele>184.8</ele>
        <time>2012-05-06T09:07:42.058Z</time>
      </trkpt>
      <trkpt lat="49.38949" lon="1.23782">
        <ele>185.2</ele>
        <time>2012-05-06T09:07:43.058Z</time>
      </trkpt>
      <trkpt lat="49.38955" lon="1.23767">
        <ele>187.2</ele>
        <time>2012-05-06T09:07:45.085Z</time>
      </trkpt>
      <trkpt lat="49.38958" lon="1.23759">
        <ele>187.4</ele>
        <time>2012-05-06T09:07:46.085Z</time>
      </trkpt>
      <trkpt lat="49.38961" lon="1.23751">
        <ele>187.8</ele>
        <time>2012-05-06T09:07:47.086Z</time>
      </trkpt>
      <trkpt lat="49.38964" lon="1.23743">
        <ele>187.4</ele>
        <time>2012-05-06T09:07:48.092Z</time>
      </trkpt>
      <trkpt lat="49.38966" lon="1.23735">
        <ele>187.7</ele>
        <time>2012-05-06T09:07:49.091Z</time>
      </trkpt>
      <trkpt lat="49.38969" lon="1.23728">
        <ele>189.1</ele>
        <time>2012-05-06T09:07:50.089Z</time>
      </trkpt>
      <trkpt lat="49.38971" lon="1.2372">
        <ele>188.8</ele>
        <time>2012-05-06T09:07:51.089Z</time>
      </trkpt>
      <trkpt lat="49.38972" lon="1.23713">
        <ele>189.1</ele>
        <time>2012-05-06T09:07:52.091Z</time>
      </trkpt>
      <trkpt lat="49.38975" lon="1.23706">
        <ele>189.2</ele>
        <time>2012-05-06T09:07:53.088Z</time>
      </trkpt>
      <trkpt lat="49.38977" lon="1.23699">
        <ele>189.6</ele>
        <time>2012-05-06T09:07:54.088Z</time>
      </trkpt>
      <trkpt lat="49.38979" lon="1.23692">
        <ele>189.2</ele>
        <time>2012-05-06T09:07:55.092Z</time>
      </trkpt>
      <trkpt lat="49.38984" lon="1.2368">
        <ele>189.4</ele>
        <time>2012-05-06T09:07:57.088Z</time>
      </trkpt>
      <trkpt lat="49.38988" lon="1.2367">
        <ele>191</ele>
        <time>2012-05-06T09:07:59.088Z</time>
      </trkpt>
      <trkpt lat="49.38992" lon="1.23665">
        <ele>189.8</ele>
        <time>2012-05-06T09:08:01.087Z</time>
      </trkpt>
      <trkpt lat="49.38996" lon="1.23671">
        <ele>186.1</ele>
        <time>2012-05-06T09:08:05.089Z</time>
      </trkpt>
      <trkpt lat="49.38999" lon="1.23676">
        <ele>185.1</ele>
        <time>2012-05-06T09:08:07.090Z</time>
      </trkpt>
      <trkpt lat="49.39003" lon="1.2368">
        <ele>184.8</ele>
        <time>2012-05-06T09:08:08.088Z</time>
      </trkpt>
      <trkpt lat="49.39007" lon="1.23684">
        <ele>184.9</ele>
        <time>2012-05-06T09:08:09.100Z</time>
      </trkpt>
      <trkpt lat="49.39012" lon="1.2369">
        <ele>185</ele>
        <time>2012-05-06T09:08:10.100Z</time>
      </trkpt>
      <trkpt lat="49.39016" lon="1.23695">
        <ele>185.8</ele>
        <time>2012-05-06T09:08:11.092Z</time>
      </trkpt>
      <trkpt lat="49.39021" lon="1.237">
        <ele>186.7</ele>
        <time>2012-05-06T09:08:12.095Z</time>
      </trkpt>
      <trkpt lat="49.39029" lon="1.23703">
        <ele>187.5</ele>
        <time>2012-05-06T09:08:14.079Z</time>
      </trkpt>
      <trkpt lat="49.39038" lon="1.23704">
        <ele>188.2</ele>
        <time>2012-05-06T09:08:16.091Z</time>
      </trkpt>
      <trkpt lat="49.39042" lon="1.23706">
        <ele>188.8</ele>
        <time>2012-05-06T09:08:17.096Z</time>
      </trkpt>
      <trkpt lat="49.39051" lon="1.23704">
        <ele>188.2</ele>
        <time>2012-05-06T09:08:19.088Z</time>
      </trkpt>
      <trkpt lat="49.39056" lon="1.23702">
        <ele>188.6</ele>
        <time>2012-05-06T09:08:20.087Z</time>
      </trkpt>
      <trkpt lat="49.3906" lon="1.23702">
        <ele>187.3</ele>
        <time>2012-05-06T09:08:21.090Z</time>
      </trkpt>
      <trkpt lat="49.39064" lon="1.23702">
        <ele>188.3</ele>
        <time>2012-05-06T09:08:22.093Z</time>
      </trkpt>
      <trkpt lat="49.39073" lon="1.23702">
        <ele>188</ele>
        <time>2012-05-06T09:08:24.092Z</time>
      </trkpt>
      <trkpt lat="49.39082" lon="1.23702">
        <ele>188.9</ele>
        <time>2012-05-06T09:08:26.088Z</time>
      </trkpt>
      <trkpt lat="49.39087" lon="1.23701">
        <ele>189.1</ele>
        <time>2012-05-06T09:08:27.088Z</time>
      </trkpt>
      <trkpt lat="49.39092" lon="1.23701">
        <ele>188.9</ele>
        <time>2012-05-06T09:08:28.089Z</time>
      </trkpt>
      <trkpt lat="49.39097" lon="1.23701">
        <ele>189.5</ele>
        <time>2012-05-06T09:08:29.089Z</time>
      </trkpt>
      <trkpt lat="49.39101" lon="1.237">
        <ele>190.2</ele>
        <time>2012-05-06T09:08:30.089Z</time>
      </trkpt>
      <trkpt lat="49.39106" lon="1.237">
        <ele>190.2</ele>
        <time>2012-05-06T09:08:31.090Z</time>
      </trkpt>
      <trkpt lat="49.39111" lon="1.23699">
        <ele>189.9</ele>
        <time>2012-05-06T09:08:32.090Z</time>
      </trkpt>
      <trkpt lat="49.39116" lon="1.23699">
        <ele>190</ele>
        <time>2012-05-06T09:08:33.089Z</time>
      </trkpt>
      <trkpt lat="49.39121" lon="1.23698">
        <ele>190.5</ele>
        <time>2012-05-06T09:08:34.127Z</time>
      </trkpt>
      <trkpt lat="49.39126" lon="1.23697">
        <ele>190.4</ele>
        <time>2012-05-06T09:08:35.092Z</time>
      </trkpt>
      <trkpt lat="49.39131" lon="1.23696">
        <ele>190.9</ele>
        <time>2012-05-06T09:08:36.093Z</time>
      </trkpt>
      <trkpt lat="49.39136" lon="1.23696">
        <ele>191.2</ele>
        <time>2012-05-06T09:08:37.117Z</time>
      </trkpt>
      <trkpt lat="49.39145" lon="1.23694">
        <ele>191.2</ele>
        <time>2012-05-06T09:08:39.095Z</time>
      </trkpt>
      <trkpt lat="49.39149" lon="1.23692">
        <ele>191.4</ele>
        <time>2012-05-06T09:08:40.092Z</time>
      </trkpt>
      <trkpt lat="49.39159" lon="1.23689">
        <ele>191.4</ele>
        <time>2012-05-06T09:08:42.420Z</time>
      </trkpt>
      <trkpt lat="49.39164" lon="1.23687">
        <ele>190.7</ele>
        <time>2012-05-06T09:08:43.882Z</time>
      </trkpt>
      <trkpt lat="49.39172" lon="1.23682">
        <ele>192.3</ele>
        <time>2012-05-06T09:08:46.091Z</time>
      </trkpt>
      <trkpt lat="49.39179" lon="1.23677">
        <ele>192.3</ele>
        <time>2012-05-06T09:08:48.091Z</time>
      </trkpt>
      <trkpt lat="49.39188" lon="1.23672">
        <ele>191.9</ele>
        <time>2012-05-06T09:08:50.092Z</time>
      </trkpt>
      <trkpt lat="49.39192" lon="1.23668">
        <ele>191.9</ele>
        <time>2012-05-06T09:08:51.092Z</time>
      </trkpt>
      <trkpt lat="49.39197" lon="1.23666">
        <ele>191.8</ele>
        <time>2012-05-06T09:08:52.091Z</time>
      </trkpt>
      <trkpt lat="49.39201" lon="1.23663">
        <ele>191.9</ele>
        <time>2012-05-06T09:08:53.095Z</time>
      </trkpt>
      <trkpt lat="49.39206" lon="1.2366">
        <ele>192.2</ele>
        <time>2012-05-06T09:08:54.094Z</time>
      </trkpt>
      <trkpt lat="49.3921" lon="1.23657">
        <ele>192.6</ele>
        <time>2012-05-06T09:08:55.091Z</time>
      </trkpt>
      <trkpt lat="49.39216" lon="1.2365">
        <ele>192.8</ele>
        <time>2012-05-06T09:08:57.132Z</time>
      </trkpt>
      <trkpt lat="49.39224" lon="1.23644">
        <ele>192.9</ele>
        <time>2012-05-06T09:08:59.095Z</time>
      </trkpt>
      <trkpt lat="49.39232" lon="1.23639">
        <ele>193.2</ele>
        <time>2012-05-06T09:09:01.091Z</time>
      </trkpt>
      <trkpt lat="49.39237" lon="1.23638">
        <ele>193.6</ele>
        <time>2012-05-06T09:09:02.091Z</time>
      </trkpt>
      <trkpt lat="49.39242" lon="1.23638">
        <ele>193.8</ele>
        <time>2012-05-06T09:09:03.086Z</time>
      </trkpt>
      <trkpt lat="49.39246" lon="1.23639">
        <ele>194.3</ele>
        <time>2012-05-06T09:09:04.091Z</time>
      </trkpt>
      <trkpt lat="49.39252" lon="1.23641">
        <ele>194.2</ele>
        <time>2012-05-06T09:09:05.092Z</time>
      </trkpt>
      <trkpt lat="49.39256" lon="1.23642">
        <ele>193.9</ele>
        <time>2012-05-06T09:09:06.092Z</time>
      </trkpt>
      <trkpt lat="49.39261" lon="1.23643">
        <ele>193.2</ele>
        <time>2012-05-06T09:09:07.092Z</time>
      </trkpt>
      <trkpt lat="49.39267" lon="1.23645">
        <ele>192.7</ele>
        <time>2012-05-06T09:09:08.092Z</time>
      </trkpt>
      <trkpt lat="49.39272" lon="1.23647">
        <ele>192.7</ele>
        <time>2012-05-06T09:09:09.093Z</time>
      </trkpt>
      <trkpt lat="49.39277" lon="1.23647">
        <ele>193.2</ele>
        <time>2012-05-06T09:09:10.095Z</time>
      </trkpt>
      <trkpt lat="49.39282" lon="1.23648">
        <ele>193.1</ele>
        <time>2012-05-06T09:09:11.094Z</time>
      </trkpt>
      <trkpt lat="49.39286" lon="1.2365">
        <ele>192.8</ele>
        <time>2012-05-06T09:09:12.092Z</time>
      </trkpt>
      <trkpt lat="49.39291" lon="1.2365">
        <ele>192.8</ele>
        <time>2012-05-06T09:09:13.097Z</time>
      </trkpt>
      <trkpt lat="49.39297" lon="1.23651">
        <ele>192.2</ele>
        <time>2012-05-06T09:09:14.106Z</time>
      </trkpt>
      <trkpt lat="49.39301" lon="1.23653">
        <ele>192.3</ele>
        <time>2012-05-06T09:09:15.086Z</time>
      </trkpt>
      <trkpt lat="49.39306" lon="1.23654">
        <ele>191.9</ele>
        <time>2012-05-06T09:09:16.092Z</time>
      </trkpt>
      <trkpt lat="49.39312" lon="1.23655">
        <ele>191.5</ele>
        <time>2012-05-06T09:09:17.093Z</time>
      </trkpt>
      <trkpt lat="49.39317" lon="1.23657">
        <ele>191.1</ele>
        <time>2012-05-06T09:09:18.093Z</time>
      </trkpt>
      <trkpt lat="49.39323" lon="1.23658">
        <ele>191</ele>
        <time>2012-05-06T09:09:19.096Z</time>
      </trkpt>
      <trkpt lat="49.39328" lon="1.23659">
        <ele>190.6</ele>
        <time>2012-05-06T09:09:20.084Z</time>
      </trkpt>
      <trkpt lat="49.39334" lon="1.23661">
        <ele>189.9</ele>
        <time>2012-05-06T09:09:21.094Z</time>
      </trkpt>
      <trkpt lat="49.3934" lon="1.23663">
        <ele>189.4</ele>
        <time>2012-05-06T09:09:22.087Z</time>
      </trkpt>
      <trkpt lat="49.39346" lon="1.23665">
        <ele>189.7</ele>
        <time>2012-05-06T09:09:23.093Z</time>
      </trkpt>
      <trkpt lat="49.39352" lon="1.23667">
        <ele>189.6</ele>
        <time>2012-05-06T09:09:24.088Z</time>
      </trkpt>
      <trkpt lat="49.39358" lon="1.23669">
        <ele>189.6</ele>
        <time>2012-05-06T09:09:25.076Z</time>
      </trkpt>
      <trkpt lat="49.39363" lon="1.23671">
        <ele>189.7</ele>
        <time>2012-05-06T09:09:26.088Z</time>
      </trkpt>
      <trkpt lat="49.39368" lon="1.23672">
        <ele>189.7</ele>
        <time>2012-05-06T09:09:27.088Z</time>
      </trkpt>
      <trkpt lat="49.39373" lon="1.23674">
        <ele>189.1</ele>
        <time>2012-05-06T09:09:28.082Z</time>
      </trkpt>
      <trkpt lat="49.3938" lon="1.23677">
        <ele>189.5</ele>
        <time>2012-05-06T09:09:30.090Z</time>
      </trkpt>
      <trkpt lat="49.39388" lon="1.23681">
        <ele>189</ele>
        <time>2012-05-06T09:09:32.077Z</time>
      </trkpt>
      <trkpt lat="49.39393" lon="1.23682">
        <ele>189.3</ele>
        <time>2012-05-06T09:09:33.235Z</time>
      </trkpt>
      <trkpt lat="49.394" lon="1.23686">
        <ele>189.8</ele>
        <time>2012-05-06T09:09:35.235Z</time>
      </trkpt>
      <trkpt lat="49.39408" lon="1.23692">
        <ele>189.9</ele>
        <time>2012-05-06T09:09:37.235Z</time>
      </trkpt>
      <trkpt lat="49.39415" lon="1.23698">
        <ele>190.2</ele>
        <time>2012-05-06T09:09:39.235Z</time>
      </trkpt>
      <trkpt lat="49.39426" lon="1.23707">
        <ele>190.3</ele>
        <time>2012-05-06T09:09:42.219Z</time>
      </trkpt>
      <trkpt lat="49.39432" lon="1.23712">
        <ele>190.5</ele>
        <time>2012-05-06T09:09:44.219Z</time>
      </trkpt>
      <trkpt lat="49.39439" lon="1.23718">
        <ele>190.6</ele>
        <time>2012-05-06T09:09:46.219Z</time>
      </trkpt>
      <trkpt lat="49.39444" lon="1.23723">
        <ele>190.1</ele>
        <time>2012-05-06T09:09:48.094Z</time>
      </trkpt>
      <trkpt lat="49.39451" lon="1.23729">
        <ele>190.7</ele>
        <time>2012-05-06T09:09:50.081Z</time>
      </trkpt>
      <trkpt lat="49.39454" lon="1.23733">
        <ele>190.7</ele>
        <time>2012-05-06T09:09:51.093Z</time>
      </trkpt>
      <trkpt lat="49.39462" lon="1.23741">
        <ele>191</ele>
        <time>2012-05-06T09:09:53.095Z</time>
      </trkpt>
      <trkpt lat="49.39465" lon="1.23745">
        <ele>191.1</ele>
        <time>2012-05-06T09:09:54.091Z</time>
      </trkpt>
      <trkpt lat="49.39472" lon="1.23754">
        <ele>190.7</ele>
        <time>2012-05-06T09:09:56.083Z</time>
      </trkpt>
      <trkpt lat="49.39476" lon="1.23759">
        <ele>190.6</ele>
        <time>2012-05-06T09:09:57.090Z</time>
      </trkpt>
      <trkpt lat="49.39483" lon="1.23766">
        <ele>190.2</ele>
        <time>2012-05-06T09:09:59.080Z</time>
      </trkpt>
      <trkpt lat="49.39487" lon="1.2377">
        <ele>190.1</ele>
        <time>2012-05-06T09:10:00.090Z</time>
      </trkpt>
      <trkpt lat="49.39492" lon="1.23773">
        <ele>190.1</ele>
        <time>2012-05-06T09:10:01.077Z</time>
      </trkpt>
      <trkpt lat="49.39496" lon="1.23776">
        <ele>190.1</ele>
        <time>2012-05-06T09:10:02.094Z</time>
      </trkpt>
      <trkpt lat="49.39505" lon="1.23777">
        <ele>190.6</ele>
        <time>2012-05-06T09:10:04.096Z</time>
      </trkpt>
      <trkpt lat="49.3951" lon="1.23779">
        <ele>190</ele>
        <time>2012-05-06T09:10:05.091Z</time>
      </trkpt>
      <trkpt lat="49.39514" lon="1.23781">
        <ele>190.1</ele>
        <time>2012-05-06T09:10:06.077Z</time>
      </trkpt>
      <trkpt lat="49.39522" lon="1.23783">
        <ele>191.1</ele>
        <time>2012-05-06T09:10:08.093Z</time>
      </trkpt>
      <trkpt lat="49.39529" lon="1.23787">
        <ele>191.4</ele>
        <time>2012-05-06T09:10:10.089Z</time>
      </trkpt>
      <trkpt lat="49.39537" lon="1.23792">
        <ele>191.7</ele>
        <time>2012-05-06T09:10:12.097Z</time>
      </trkpt>
      <trkpt lat="49.39545" lon="1.23797">
        <ele>192.4</ele>
        <time>2012-05-06T09:10:14.080Z</time>
      </trkpt>
      <trkpt lat="49.39552" lon="1.23801">
        <ele>192.6</ele>
        <time>2012-05-06T09:10:16.070Z</time>
      </trkpt>
      <trkpt lat="49.39559" lon="1.23806">
        <ele>191.9</ele>
        <time>2012-05-06T09:10:18.077Z</time>
      </trkpt>
      <trkpt lat="49.39568" lon="1.23812">
        <ele>191.9</ele>
        <time>2012-05-06T09:10:20.091Z</time>
      </trkpt>
      <trkpt lat="49.39575" lon="1.23816">
        <ele>191.4</ele>
        <time>2012-05-06T09:10:22.079Z</time>
      </trkpt>
      <trkpt lat="49.3958" lon="1.23821">
        <ele>192.7</ele>
        <time>2012-05-06T09:10:24.076Z</time>
      </trkpt>
      <trkpt lat="49.39586" lon="1.23826">
        <ele>191.7</ele>
        <time>2012-05-06T09:10:26.076Z</time>
      </trkpt>
      <trkpt lat="49.39595" lon="1.23831">
        <ele>192.8</ele>
        <time>2012-05-06T09:10:28.077Z</time>
      </trkpt>
      <trkpt lat="49.396" lon="1.23834">
        <ele>193</ele>
        <time>2012-05-06T09:10:29.090Z</time>
      </trkpt>
      <trkpt lat="49.39604" lon="1.23836">
        <ele>193.4</ele>
        <time>2012-05-06T09:10:30.075Z</time>
      </trkpt>
      <trkpt lat="49.39611" lon="1.23843">
        <ele>194.3</ele>
        <time>2012-05-06T09:10:32.076Z</time>
      </trkpt>
      <trkpt lat="49.39617" lon="1.23853">
        <ele>194.6</ele>
        <time>2012-05-06T09:10:34.089Z</time>
      </trkpt>
      <trkpt lat="49.39622" lon="1.23863">
        <ele>194.5</ele>
        <time>2012-05-06T09:10:36.086Z</time>
      </trkpt>
      <trkpt lat="49.39626" lon="1.23871">
        <ele>194.7</ele>
        <time>2012-05-06T09:10:38.087Z</time>
      </trkpt>
      <trkpt lat="49.39628" lon="1.23879">
        <ele>195</ele>
        <time>2012-05-06T09:10:39.078Z</time>
      </trkpt>
      <trkpt lat="49.39633" lon="1.23882">
        <ele>194.5</ele>
        <time>2012-05-06T09:10:40.076Z</time>
      </trkpt>
      <trkpt lat="49.39635" lon="1.23891">
        <ele>195</ele>
        <time>2012-05-06T09:10:42.245Z</time>
      </trkpt>
      <trkpt lat="49.39638" lon="1.23899">
        <ele>196.2</ele>
        <time>2012-05-06T09:10:43.652Z</time>
      </trkpt>
      <trkpt lat="49.39646" lon="1.23899">
        <ele>198.1</ele>
        <time>2012-05-06T09:10:46.083Z</time>
      </trkpt>
      <trkpt lat="49.39651" lon="1.23902">
        <ele>200.2</ele>
        <time>2012-05-06T09:10:48.090Z</time>
      </trkpt>
      <trkpt lat="49.39653" lon="1.23909">
        <ele>200.7</ele>
        <time>2012-05-06T09:10:50.088Z</time>
      </trkpt>
      <trkpt lat="49.39658" lon="1.23918">
        <ele>202.3</ele>
        <time>2012-05-06T09:10:52.093Z</time>
      </trkpt>
      <trkpt lat="49.39661" lon="1.23928">
        <ele>203.3</ele>
        <time>2012-05-06T09:10:54.076Z</time>
      </trkpt>
      <trkpt lat="49.39663" lon="1.23938">
        <ele>203.7</ele>
        <time>2012-05-06T09:10:56.078Z</time>
      </trkpt>
      <trkpt lat="49.39672" lon="1.23942">
        <ele>200.7</ele>
        <time>2012-05-06T09:10:58.088Z</time>
      </trkpt>
      <trkpt lat="49.39676" lon="1.23947">
        <ele>200.4</ele>
        <time>2012-05-06T09:10:59.083Z</time>
      </trkpt>
      <trkpt lat="49.3968" lon="1.2395">
        <ele>199</ele>
        <time>2012-05-06T09:11:00.076Z</time>
      </trkpt>
      <trkpt lat="49.39683" lon="1.23958">
        <ele>197.4</ele>
        <time>2012-05-06T09:11:02.092Z</time>
      </trkpt>
      <trkpt lat="49.39686" lon="1.23964">
        <ele>197.8</ele>
        <time>2012-05-06T09:11:04.076Z</time>
      </trkpt>
      <trkpt lat="49.3969" lon="1.23974">
        <ele>197.5</ele>
        <time>2012-05-06T09:11:06.088Z</time>
      </trkpt>
      <trkpt lat="49.39693" lon="1.2398">
        <ele>197.6</ele>
        <time>2012-05-06T09:11:08.093Z</time>
      </trkpt>
      <trkpt lat="49.39696" lon="1.23986">
        <ele>197.6</ele>
        <time>2012-05-06T09:11:09.096Z</time>
      </trkpt>
      <trkpt lat="49.397" lon="1.24001">
        <ele>200.1</ele>
        <time>2012-05-06T09:11:11.090Z</time>
      </trkpt>
      <trkpt lat="49.39706" lon="1.24004">
        <ele>198.1</ele>
        <time>2012-05-06T09:11:13.091Z</time>
      </trkpt>
      <trkpt lat="49.39708" lon="1.24016">
        <ele>198.4</ele>
        <time>2012-05-06T09:11:15.092Z</time>
      </trkpt>
      <trkpt lat="49.3971" lon="1.24026">
        <ele>197.7</ele>
        <time>2012-05-06T09:11:17.077Z</time>
      </trkpt>
      <trkpt lat="49.39713" lon="1.24036">
        <ele>198.5</ele>
        <time>2012-05-06T09:11:19.090Z</time>
      </trkpt>
      <trkpt lat="49.39716" lon="1.24045">
        <ele>197.3</ele>
        <time>2012-05-06T09:11:21.097Z</time>
      </trkpt>
      <trkpt lat="49.39718" lon="1.24052">
        <ele>197.6</ele>
        <time>2012-05-06T09:11:22.076Z</time>
      </trkpt>
      <trkpt lat="49.39722" lon="1.24064">
        <ele>197.2</ele>
        <time>2012-05-06T09:11:24.089Z</time>
      </trkpt>
      <trkpt lat="49.39723" lon="1.24071">
        <ele>196.8</ele>
        <time>2012-05-06T09:11:25.094Z</time>
      </trkpt>
      <trkpt lat="49.39727" lon="1.24079">
        <ele>196.6</ele>
        <time>2012-05-06T09:11:26.076Z</time>
      </trkpt>
      <trkpt lat="49.39731" lon="1.24089">
        <ele>194.4</ele>
        <time>2012-05-06T09:11:28.092Z</time>
      </trkpt>
      <trkpt lat="49.39731" lon="1.241">
        <ele>188.7</ele>
        <time>2012-05-06T09:11:30.090Z</time>
      </trkpt>
      <trkpt lat="49.39731" lon="1.24113">
        <ele>188.3</ele>
        <time>2012-05-06T09:11:32.076Z</time>
      </trkpt>
      <trkpt lat="49.39734" lon="1.24125">
        <ele>188.7</ele>
        <time>2012-05-06T09:11:34.093Z</time>
      </trkpt>
      <trkpt lat="49.3974" lon="1.2413">
        <ele>188.7</ele>
        <time>2012-05-06T09:11:35.089Z</time>
      </trkpt>
      <trkpt lat="49.39745" lon="1.24138">
        <ele>188.4</ele>
        <time>2012-05-06T09:11:36.083Z</time>
      </trkpt>
      <trkpt lat="49.3975" lon="1.24144">
        <ele>188.1</ele>
        <time>2012-05-06T09:11:37.091Z</time>
      </trkpt>
      <trkpt lat="49.39758" lon="1.24148">
        <ele>186.3</ele>
        <time>2012-05-06T09:11:38.090Z</time>
      </trkpt>
      <trkpt lat="49.39765" lon="1.24149">
        <ele>186.9</ele>
        <time>2012-05-06T09:11:39.075Z</time>
      </trkpt>
      <trkpt lat="49.39774" lon="1.24152">
        <ele>187.2</ele>
        <time>2012-05-06T09:11:40.078Z</time>
      </trkpt>
      <trkpt lat="49.39788" lon="1.24155">
        <ele>186.3</ele>
        <time>2012-05-06T09:11:42.235Z</time>
      </trkpt>
      <trkpt lat="49.39792" lon="1.24151">
        <ele>187</ele>
        <time>2012-05-06T09:11:43.235Z</time>
      </trkpt>
      <trkpt lat="49.39797" lon="1.24148">
        <ele>186.1</ele>
        <time>2012-05-06T09:11:43.743Z</time>
      </trkpt>
      <trkpt lat="49.39808" lon="1.24151">
        <ele>185.7</ele>
        <time>2012-05-06T09:11:45.077Z</time>
      </trkpt>
      <trkpt lat="49.39812" lon="1.24154">
        <ele>184.7</ele>
        <time>2012-05-06T09:11:46.085Z</time>
      </trkpt>
      <trkpt lat="49.39823" lon="1.24165">
        <ele>186.7</ele>
        <time>2012-05-06T09:11:48.092Z</time>
      </trkpt>
      <trkpt lat="49.39826" lon="1.2417">
        <ele>183.4</ele>
        <time>2012-05-06T09:11:49.088Z</time>
      </trkpt>
      <trkpt lat="49.39832" lon="1.24175">
        <ele>181.2</ele>
        <time>2012-05-06T09:11:50.077Z</time>
      </trkpt>
      <trkpt lat="49.39839" lon="1.24176">
        <ele>180.3</ele>
        <time>2012-05-06T09:11:51.090Z</time>
      </trkpt>
      <trkpt lat="49.39846" lon="1.24179">
        <ele>180.9</ele>
        <time>2012-05-06T09:11:52.089Z</time>
      </trkpt>
      <trkpt lat="49.39851" lon="1.24181">
        <ele>178.3</ele>
        <time>2012-05-06T09:11:53.090Z</time>
      </trkpt>
      <trkpt lat="49.39857" lon="1.24185">
        <ele>176.7</ele>
        <time>2012-05-06T09:11:54.095Z</time>
      </trkpt>
      <trkpt lat="49.39863" lon="1.24185">
        <ele>176.7</ele>
        <time>2012-05-06T09:11:55.088Z</time>
      </trkpt>
      <trkpt lat="49.39871" lon="1.24188">
        <ele>175.9</ele>
        <time>2012-05-06T09:11:57.094Z</time>
      </trkpt>
      <trkpt lat="49.39877" lon="1.24188">
        <ele>175.2</ele>
        <time>2012-05-06T09:11:58.092Z</time>
      </trkpt>
      <trkpt lat="49.39885" lon="1.24195">
        <ele>173.8</ele>
        <time>2012-05-06T09:12:00.094Z</time>
      </trkpt>
      <trkpt lat="49.3989" lon="1.24198">
        <ele>174.2</ele>
        <time>2012-05-06T09:12:01.092Z</time>
      </trkpt>
      <trkpt lat="49.39895" lon="1.24198">
        <ele>173.3</ele>
        <time>2012-05-06T09:12:02.097Z</time>
      </trkpt>
      <trkpt lat="49.39906" lon="1.24193">
        <ele>171.2</ele>
        <time>2012-05-06T09:12:04.090Z</time>
      </trkpt>
      <trkpt lat="49.39915" lon="1.24187">
        <ele>169.4</ele>
        <time>2012-05-06T09:12:06.094Z</time>
      </trkpt>
      <trkpt lat="49.3992" lon="1.24185">
        <ele>168.5</ele>
        <time>2012-05-06T09:12:07.095Z</time>
      </trkpt>
      <trkpt lat="49.39927" lon="1.24183">
        <ele>168</ele>
        <time>2012-05-06T09:12:08.096Z</time>
      </trkpt>
      <trkpt lat="49.39934" lon="1.2418">
        <ele>167.3</ele>
        <time>2012-05-06T09:12:09.091Z</time>
      </trkpt>
      <trkpt lat="49.3994" lon="1.24179">
        <ele>167.4</ele>
        <time>2012-05-06T09:12:10.092Z</time>
      </trkpt>
      <trkpt lat="49.39942" lon="1.24186">
        <ele>163.2</ele>
        <time>2012-05-06T09:12:12.091Z</time>
      </trkpt>
      <trkpt lat="49.39948" lon="1.24192">
        <ele>160.9</ele>
        <time>2012-05-06T09:12:14.088Z</time>
      </trkpt>
      <trkpt lat="49.39951" lon="1.24198">
        <ele>160.6</ele>
        <time>2012-05-06T09:12:15.098Z</time>
      </trkpt>
      <trkpt lat="49.39952" lon="1.24211">
        <ele>156.6</ele>
        <time>2012-05-06T09:12:16.086Z</time>
      </trkpt>
      <trkpt lat="49.39954" lon="1.24218">
        <ele>154.7</ele>
        <time>2012-05-06T09:12:17.094Z</time>
      </trkpt>
      <trkpt lat="49.39957" lon="1.24228">
        <ele>154.4</ele>
        <time>2012-05-06T09:12:18.093Z</time>
      </trkpt>
      <trkpt lat="49.39962" lon="1.24238">
        <ele>154.8</ele>
        <time>2012-05-06T09:12:19.094Z</time>
      </trkpt>
      <trkpt lat="49.39965" lon="1.24247">
        <ele>154.8</ele>
        <time>2012-05-06T09:12:20.089Z</time>
      </trkpt>
      <trkpt lat="49.39968" lon="1.24254">
        <ele>154.7</ele>
        <time>2012-05-06T09:12:21.087Z</time>
      </trkpt>
      <trkpt lat="49.39972" lon="1.2426">
        <ele>156</ele>
        <time>2012-05-06T09:12:22.084Z</time>
      </trkpt>
      <trkpt lat="49.39977" lon="1.2427">
        <ele>158.7</ele>
        <time>2012-05-06T09:12:24.084Z</time>
      </trkpt>
      <trkpt lat="49.39982" lon="1.24274">
        <ele>160.2</ele>
        <time>2012-05-06T09:12:25.091Z</time>
      </trkpt>
      <trkpt lat="49.39986" lon="1.24279">
        <ele>161.9</ele>
        <time>2012-05-06T09:12:26.095Z</time>
      </trkpt>
      <trkpt lat="49.3999" lon="1.24281">
        <ele>162.7</ele>
        <time>2012-05-06T09:12:27.092Z</time>
      </trkpt>
      <trkpt lat="49.39993" lon="1.2429">
        <ele>164.4</ele>
        <time>2012-05-06T09:12:30.077Z</time>
      </trkpt>
      <trkpt lat="49.39998" lon="1.24288">
        <ele>163.3</ele>
        <time>2012-05-06T09:12:32.083Z</time>
      </trkpt>
      <trkpt lat="49.40003" lon="1.2429">
        <ele>164.6</ele>
        <time>2012-05-06T09:12:34.089Z</time>
      </trkpt>
      <trkpt lat="49.4001" lon="1.24293">
        <ele>164.6</ele>
        <time>2012-05-06T09:12:36.076Z</time>
      </trkpt>
      <trkpt lat="49.40015" lon="1.24288">
        <ele>167.5</ele>
        <time>2012-05-06T09:12:38.075Z</time>
      </trkpt>
      <trkpt lat="49.40017" lon="1.24279">
        <ele>168.2</ele>
        <time>2012-05-06T09:12:40.078Z</time>
      </trkpt>
      <trkpt lat="49.4002" lon="1.2427">
        <ele>168.4</ele>
        <time>2012-05-06T09:12:42.157Z</time>
      </trkpt>
      <trkpt lat="49.4002" lon="1.24262">
        <ele>167.5</ele>
        <time>2012-05-06T09:12:43.605Z</time>
      </trkpt>
      <trkpt lat="49.40029" lon="1.24253">
        <ele>155.4</ele>
        <time>2012-05-06T09:12:45.076Z</time>
      </trkpt>
      <trkpt lat="49.4003" lon="1.24241">
        <ele>154.3</ele>
        <time>2012-05-06T09:12:47.093Z</time>
      </trkpt>
      <trkpt lat="49.40031" lon="1.24234">
        <ele>153.6</ele>
        <time>2012-05-06T09:12:48.078Z</time>
      </trkpt>
      <trkpt lat="49.40031" lon="1.24226">
        <ele>153.4</ele>
        <time>2012-05-06T09:12:49.092Z</time>
      </trkpt>
      <trkpt lat="49.4003" lon="1.24219">
        <ele>153.1</ele>
        <time>2012-05-06T09:12:50.081Z</time>
      </trkpt>
      <trkpt lat="49.40027" lon="1.24208">
        <ele>154.4</ele>
        <time>2012-05-06T09:12:52.076Z</time>
      </trkpt>
      <trkpt lat="49.40029" lon="1.24198">
        <ele>153.8</ele>
        <time>2012-05-06T09:12:53.076Z</time>
      </trkpt>
      <trkpt lat="49.40027" lon="1.24189">
        <ele>154.9</ele>
        <time>2012-05-06T09:12:54.088Z</time>
      </trkpt>
      <trkpt lat="49.40026" lon="1.24172">
        <ele>155.2</ele>
        <time>2012-05-06T09:12:56.076Z</time>
      </trkpt>
      <trkpt lat="49.4003" lon="1.24161">
        <ele>155.5</ele>
        <time>2012-05-06T09:12:57.090Z</time>
      </trkpt>
      <trkpt lat="49.40032" lon="1.24152">
        <ele>155.2</ele>
        <time>2012-05-06T09:12:58.079Z</time>
      </trkpt>
      <trkpt lat="49.40035" lon="1.2414">
        <ele>155.6</ele>
        <time>2012-05-06T09:13:00.078Z</time>
      </trkpt>
      <trkpt lat="49.4004" lon="1.24128">
        <ele>158.2</ele>
        <time>2012-05-06T09:13:02.092Z</time>
      </trkpt>
      <trkpt lat="49.40045" lon="1.24123">
        <ele>159.3</ele>
        <time>2012-05-06T09:13:03.076Z</time>
      </trkpt>
      <trkpt lat="49.40049" lon="1.24114">
        <ele>158.5</ele>
        <time>2012-05-06T09:13:05.076Z</time>
      </trkpt>
      <trkpt lat="49.40052" lon="1.24105">
        <ele>159.5</ele>
        <time>2012-05-06T09:13:07.091Z</time>
      </trkpt>
      <trkpt lat="49.40056" lon="1.241">
        <ele>161</ele>
        <time>2012-05-06T09:13:08.076Z</time>
      </trkpt>
      <trkpt lat="49.4006" lon="1.24095">
        <ele>167.7</ele>
        <time>2012-05-06T09:13:09.089Z</time>
      </trkpt>
      <trkpt lat="49.40064" lon="1.2409">
        <ele>169.1</ele>
        <time>2012-05-06T09:13:10.082Z</time>
      </trkpt>
      <trkpt lat="49.40071" lon="1.24085">
        <ele>171.7</ele>
        <time>2012-05-06T09:13:12.090Z</time>
      </trkpt>
      <trkpt lat="49.40077" lon="1.2408">
        <ele>174.1</ele>
        <time>2012-05-06T09:13:14.090Z</time>
      </trkpt>
      <trkpt lat="49.40084" lon="1.24073">
        <ele>172.7</ele>
        <time>2012-05-06T09:13:16.089Z</time>
      </trkpt>
      <trkpt lat="49.4009" lon="1.24063">
        <ele>171.5</ele>
        <time>2012-05-06T09:13:18.087Z</time>
      </trkpt>
      <trkpt lat="49.40096" lon="1.24053">
        <ele>171.1</ele>
        <time>2012-05-06T09:13:19.080Z</time>
      </trkpt>
      <trkpt lat="49.40095" lon="1.24045">
        <ele>169.5</ele>
        <time>2012-05-06T09:13:20.089Z</time>
      </trkpt>
      <trkpt lat="49.40099" lon="1.24034">
        <ele>170</ele>
        <time>2012-05-06T09:13:21.079Z</time>
      </trkpt>
      <trkpt lat="49.40104" lon="1.24026">
        <ele>168</ele>
        <time>2012-05-06T09:13:23.080Z</time>
      </trkpt>
      <trkpt lat="49.40106" lon="1.24018">
        <ele>167.5</ele>
        <time>2012-05-06T09:13:24.089Z</time>
      </trkpt>
      <trkpt lat="49.40109" lon="1.24007">
        <ele>167.9</ele>
        <time>2012-05-06T09:13:25.078Z</time>
      </trkpt>
      <trkpt lat="49.40111" lon="1.24">
        <ele>167.5</ele>
        <time>2012-05-06T09:13:26.076Z</time>
      </trkpt>
      <trkpt lat="49.40113" lon="1.23992">
        <ele>168.4</ele>
        <time>2012-05-06T09:13:27.090Z</time>
      </trkpt>
      <trkpt lat="49.40116" lon="1.23985">
        <ele>167.9</ele>
        <time>2012-05-06T09:13:28.081Z</time>
      </trkpt>
      <trkpt lat="49.40116" lon="1.23973">
        <ele>177.7</ele>
        <time>2012-05-06T09:13:30.089Z</time>
      </trkpt>
      <trkpt lat="49.40118" lon="1.23965">
        <ele>178.7</ele>
        <time>2012-05-06T09:13:31.081Z</time>
      </trkpt>
      <trkpt lat="49.4012" lon="1.23951">
        <ele>179.7</ele>
        <time>2012-05-06T09:13:33.081Z</time>
      </trkpt>
      <trkpt lat="49.4012" lon="1.23942">
        <ele>179.9</ele>
        <time>2012-05-06T09:13:34.075Z</time>
      </trkpt>
      <trkpt lat="49.40125" lon="1.23934">
        <ele>179.5</ele>
        <time>2012-05-06T09:13:35.091Z</time>
      </trkpt>
      <trkpt lat="49.40128" lon="1.23922">
        <ele>179.5</ele>
        <time>2012-05-06T09:13:36.079Z</time>
      </trkpt>
      <trkpt lat="49.40132" lon="1.23915">
        <ele>178</ele>
        <time>2012-05-06T09:13:37.092Z</time>
      </trkpt>
      <trkpt lat="49.40135" lon="1.23906">
        <ele>180.5</ele>
        <time>2012-05-06T09:13:38.075Z</time>
      </trkpt>
      <trkpt lat="49.40138" lon="1.239">
        <ele>181.4</ele>
        <time>2012-05-06T09:13:39.077Z</time>
      </trkpt>
      <trkpt lat="49.40146" lon="1.23888">
        <ele>182.3</ele>
        <time>2012-05-06T09:13:42.199Z</time>
      </trkpt>
      <trkpt lat="49.40149" lon="1.23883">
        <ele>183</ele>
        <time>2012-05-06T09:13:43.199Z</time>
      </trkpt>
      <trkpt lat="49.40162" lon="1.2387">
        <ele>178.8</ele>
        <time>2012-05-06T09:13:45.088Z</time>
      </trkpt>
      <trkpt lat="49.40168" lon="1.23863">
        <ele>177</ele>
        <time>2012-05-06T09:13:46.078Z</time>
      </trkpt>
      <trkpt lat="49.40174" lon="1.23855">
        <ele>177.2</ele>
        <time>2012-05-06T09:13:47.089Z</time>
      </trkpt>
      <trkpt lat="49.40182" lon="1.23842">
        <ele>177.2</ele>
        <time>2012-05-06T09:13:49.081Z</time>
      </trkpt>
      <trkpt lat="49.40185" lon="1.23834">
        <ele>177.9</ele>
        <time>2012-05-06T09:13:50.086Z</time>
      </trkpt>
      <trkpt lat="49.4019" lon="1.23827">
        <ele>176</ele>
        <time>2012-05-06T09:13:51.079Z</time>
      </trkpt>
      <trkpt lat="49.40194" lon="1.23816">
        <ele>175.6</ele>
        <time>2012-05-06T09:13:52.080Z</time>
      </trkpt>
      <trkpt lat="49.402" lon="1.23809">
        <ele>175.1</ele>
        <time>2012-05-06T09:13:53.088Z</time>
      </trkpt>
      <trkpt lat="49.40201" lon="1.23799">
        <ele>174.4</ele>
        <time>2012-05-06T09:13:55.069Z</time>
      </trkpt>
      <trkpt lat="49.40201" lon="1.23785">
        <ele>172.9</ele>
        <time>2012-05-06T09:13:57.078Z</time>
      </trkpt>
      <trkpt lat="49.40203" lon="1.23772">
        <ele>171.9</ele>
        <time>2012-05-06T09:13:59.080Z</time>
      </trkpt>
      <trkpt lat="49.40208" lon="1.23762">
        <ele>173.7</ele>
        <time>2012-05-06T09:14:01.080Z</time>
      </trkpt>
      <trkpt lat="49.40209" lon="1.23755">
        <ele>173.8</ele>
        <time>2012-05-06T09:14:02.075Z</time>
      </trkpt>
      <trkpt lat="49.40208" lon="1.23747">
        <ele>173.3</ele>
        <time>2012-05-06T09:14:03.096Z</time>
      </trkpt>
      <trkpt lat="49.40209" lon="1.23737">
        <ele>173.4</ele>
        <time>2012-05-06T09:14:04.097Z</time>
      </trkpt>
      <trkpt lat="49.4021" lon="1.23727">
        <ele>173.8</ele>
        <time>2012-05-06T09:14:05.091Z</time>
      </trkpt>
      <trkpt lat="49.40209" lon="1.23718">
        <ele>173.9</ele>
        <time>2012-05-06T09:14:06.087Z</time>
      </trkpt>
      <trkpt lat="49.40208" lon="1.23709">
        <ele>173.2</ele>
        <time>2012-05-06T09:14:07.082Z</time>
      </trkpt>
      <trkpt lat="49.402" lon="1.23707">
        <ele>176.5</ele>
        <time>2012-05-06T09:14:08.094Z</time>
      </trkpt>
      <trkpt lat="49.40197" lon="1.237">
        <ele>178.7</ele>
        <time>2012-05-06T09:14:09.089Z</time>
      </trkpt>
      <trkpt lat="49.40195" lon="1.23692">
        <ele>180.6</ele>
        <time>2012-05-06T09:14:10.083Z</time>
      </trkpt>
      <trkpt lat="49.40193" lon="1.23685">
        <ele>179</ele>
        <time>2012-05-06T09:14:11.098Z</time>
      </trkpt>
      <trkpt lat="49.40192" lon="1.23676">
        <ele>177.3</ele>
        <time>2012-05-06T09:14:12.077Z</time>
      </trkpt>
      <trkpt lat="49.40192" lon="1.23662">
        <ele>178</ele>
        <time>2012-05-06T09:14:14.096Z</time>
      </trkpt>
      <trkpt lat="49.40191" lon="1.23654">
        <ele>177.5</ele>
        <time>2012-05-06T09:14:15.086Z</time>
      </trkpt>
      <trkpt lat="49.40196" lon="1.23645">
        <ele>177</ele>
        <time>2012-05-06T09:14:16.075Z</time>
      </trkpt>
      <trkpt lat="49.40197" lon="1.23635">
        <ele>176.1</ele>
        <time>2012-05-06T09:14:17.079Z</time>
      </trkpt>
      <trkpt lat="49.40203" lon="1.23623">
        <ele>176.1</ele>
        <time>2012-05-06T09:14:18.090Z</time>
      </trkpt>
      <trkpt lat="49.40205" lon="1.23614">
        <ele>176.5</ele>
        <time>2012-05-06T09:14:19.079Z</time>
      </trkpt>
      <trkpt lat="49.40211" lon="1.23606">
        <ele>176.3</ele>
        <time>2012-05-06T09:14:20.087Z</time>
      </trkpt>
      <trkpt lat="49.40214" lon="1.236">
        <ele>175.8</ele>
        <time>2012-05-06T09:14:21.081Z</time>
      </trkpt>
      <trkpt lat="49.40219" lon="1.23596">
        <ele>174.8</ele>
        <time>2012-05-06T09:14:22.087Z</time>
      </trkpt>
      <trkpt lat="49.40227" lon="1.23587">
        <ele>172.6</ele>
        <time>2012-05-06T09:14:24.076Z</time>
      </trkpt>
      <trkpt lat="49.40232" lon="1.23581">
        <ele>171.1</ele>
        <time>2012-05-06T09:14:25.075Z</time>
      </trkpt>
      <trkpt lat="49.40238" lon="1.23572">
        <ele>170.4</ele>
        <time>2012-05-06T09:14:26.089Z</time>
      </trkpt>
      <trkpt lat="49.40243" lon="1.23565">
        <ele>171.5</ele>
        <time>2012-05-06T09:14:27.082Z</time>
      </trkpt>
      <trkpt lat="49.40246" lon="1.23559">
        <ele>170.3</ele>
        <time>2012-05-06T09:14:28.091Z</time>
      </trkpt>
      <trkpt lat="49.40252" lon="1.2355">
        <ele>170.2</ele>
        <time>2012-05-06T09:14:29.076Z</time>
      </trkpt>
      <trkpt lat="49.40259" lon="1.23542">
        <ele>169.5</ele>
        <time>2012-05-06T09:14:31.094Z</time>
      </trkpt>
      <trkpt lat="49.40264" lon="1.23537">
        <ele>169.7</ele>
        <time>2012-05-06T09:14:32.076Z</time>
      </trkpt>
      <trkpt lat="49.4027" lon="1.2353">
        <ele>168.9</ele>
        <time>2012-05-06T09:14:33.091Z</time>
      </trkpt>
      <trkpt lat="49.40273" lon="1.23521">
        <ele>168.4</ele>
        <time>2012-05-06T09:14:34.089Z</time>
      </trkpt>
      <trkpt lat="49.40284" lon="1.23512">
        <ele>166.7</ele>
        <time>2012-05-06T09:14:36.094Z</time>
      </trkpt>
      <trkpt lat="49.40291" lon="1.23508">
        <ele>165.8</ele>
        <time>2012-05-06T09:14:37.091Z</time>
      </trkpt>
      <trkpt lat="49.40298" lon="1.23498">
        <ele>164.7</ele>
        <time>2012-05-06T09:14:38.092Z</time>
      </trkpt>
      <trkpt lat="49.40304" lon="1.23495">
        <ele>162.2</ele>
        <time>2012-05-06T09:14:39.080Z</time>
      </trkpt>
      <trkpt lat="49.40309" lon="1.23492">
        <ele>161.1</ele>
        <time>2012-05-06T09:14:40.076Z</time>
      </trkpt>
      <trkpt lat="49.40321" lon="1.23483">
        <ele>160</ele>
        <time>2012-05-06T09:14:42.182Z</time>
      </trkpt>
      <trkpt lat="49.40325" lon="1.23477">
        <ele>159.6</ele>
        <time>2012-05-06T09:14:43.182Z</time>
      </trkpt>
      <trkpt lat="49.40331" lon="1.23464">
        <ele>160.2</ele>
        <time>2012-05-06T09:14:45.075Z</time>
      </trkpt>
      <trkpt lat="49.40338" lon="1.23453">
        <ele>159.2</ele>
        <time>2012-05-06T09:14:47.086Z</time>
      </trkpt>
      <trkpt lat="49.40345" lon="1.23444">
        <ele>158.6</ele>
        <time>2012-05-06T09:14:48.075Z</time>
      </trkpt>
      <trkpt lat="49.4035" lon="1.2344">
        <ele>158.6</ele>
        <time>2012-05-06T09:14:49.090Z</time>
      </trkpt>
      <trkpt lat="49.40356" lon="1.23433">
        <ele>159</ele>
        <time>2012-05-06T09:14:50.078Z</time>
      </trkpt>
      <trkpt lat="49.40363" lon="1.23424">
        <ele>157.9</ele>
        <time>2012-05-06T09:14:51.087Z</time>
      </trkpt>
      <trkpt lat="49.40368" lon="1.23418">
        <ele>157.4</ele>
        <time>2012-05-06T09:14:52.082Z</time>
      </trkpt>
      <trkpt lat="49.40375" lon="1.23411">
        <ele>156.2</ele>
        <time>2012-05-06T09:14:53.076Z</time>
      </trkpt>
      <trkpt lat="49.40381" lon="1.23404">
        <ele>156.1</ele>
        <time>2012-05-06T09:14:54.089Z</time>
      </trkpt>
      <trkpt lat="49.40386" lon="1.23399">
        <ele>155.9</ele>
        <time>2012-05-06T09:14:55.081Z</time>
      </trkpt>
      <trkpt lat="49.40388" lon="1.23391">
        <ele>156</ele>
        <time>2012-05-06T09:14:56.088Z</time>
      </trkpt>
      <trkpt lat="49.40393" lon="1.23385">
        <ele>155.2</ele>
        <time>2012-05-06T09:14:57.081Z</time>
      </trkpt>
      <trkpt lat="49.40397" lon="1.2338">
        <ele>153.9</ele>
        <time>2012-05-06T09:14:58.076Z</time>
      </trkpt>
      <trkpt lat="49.404" lon="1.23372">
        <ele>153.2</ele>
        <time>2012-05-06T09:15:00.079Z</time>
      </trkpt>
      <trkpt lat="49.40405" lon="1.23365">
        <ele>151.3</ele>
        <time>2012-05-06T09:15:01.089Z</time>
      </trkpt>
      <trkpt lat="49.4041" lon="1.23361">
        <ele>149.7</ele>
        <time>2012-05-06T09:15:02.079Z</time>
      </trkpt>
      <trkpt lat="49.40414" lon="1.23357">
        <ele>150.4</ele>
        <time>2012-05-06T09:15:03.088Z</time>
      </trkpt>
      <trkpt lat="49.40414" lon="1.23349">
        <ele>150.5</ele>
        <time>2012-05-06T09:15:05.076Z</time>
      </trkpt>
      <trkpt lat="49.40418" lon="1.23339">
        <ele>146.6</ele>
        <time>2012-05-06T09:15:08.090Z</time>
      </trkpt>
      <trkpt lat="49.40421" lon="1.23329">
        <ele>146.2</ele>
        <time>2012-05-06T09:15:10.077Z</time>
      </trkpt>
      <trkpt lat="49.40424" lon="1.23318">
        <ele>147.2</ele>
        <time>2012-05-06T09:15:12.093Z</time>
      </trkpt>
      <trkpt lat="49.40425" lon="1.23305">
        <ele>151.9</ele>
        <time>2012-05-06T09:15:14.088Z</time>
      </trkpt>
      <trkpt lat="49.40428" lon="1.23292">
        <ele>153.6</ele>
        <time>2012-05-06T09:15:16.077Z</time>
      </trkpt>
      <trkpt lat="49.4043" lon="1.2328">
        <ele>153.9</ele>
        <time>2012-05-06T09:15:18.079Z</time>
      </trkpt>
      <trkpt lat="49.40433" lon="1.23273">
        <ele>153.7</ele>
        <time>2012-05-06T09:15:19.093Z</time>
      </trkpt>
      <trkpt lat="49.40434" lon="1.23265">
        <ele>153.6</ele>
        <time>2012-05-06T09:15:20.077Z</time>
      </trkpt>
      <trkpt lat="49.40434" lon="1.23255">
        <ele>154.1</ele>
        <time>2012-05-06T09:15:21.087Z</time>
      </trkpt>
      <trkpt lat="49.40435" lon="1.23247">
        <ele>153.7</ele>
        <time>2012-05-06T09:15:22.089Z</time>
      </trkpt>
      <trkpt lat="49.40436" lon="1.23236">
        <ele>154.1</ele>
        <time>2012-05-06T09:15:24.092Z</time>
      </trkpt>
      <trkpt lat="49.40436" lon="1.23227">
        <ele>154.5</ele>
        <time>2012-05-06T09:15:25.078Z</time>
      </trkpt>
      <trkpt lat="49.40439" lon="1.23221">
        <ele>154.8</ele>
        <time>2012-05-06T09:15:26.089Z</time>
      </trkpt>
      <trkpt lat="49.40441" lon="1.23215">
        <ele>154.7</ele>
        <time>2012-05-06T09:15:27.078Z</time>
      </trkpt>
      <trkpt lat="49.40443" lon="1.23208">
        <ele>154.2</ele>
        <time>2012-05-06T09:15:28.075Z</time>
      </trkpt>
      <trkpt lat="49.40441" lon="1.23198">
        <ele>154</ele>
        <time>2012-05-06T09:15:29.088Z</time>
      </trkpt>
      <trkpt lat="49.40447" lon="1.23187">
        <ele>152.5</ele>
        <time>2012-05-06T09:15:30.081Z</time>
      </trkpt>
      <trkpt lat="49.4045" lon="1.23177">
        <ele>151.5</ele>
        <time>2012-05-06T09:15:31.090Z</time>
      </trkpt>
      <trkpt lat="49.40452" lon="1.23169">
        <ele>150.9</ele>
        <time>2012-05-06T09:15:32.078Z</time>
      </trkpt>
      <trkpt lat="49.40455" lon="1.23163">
        <ele>150.3</ele>
        <time>2012-05-06T09:15:33.090Z</time>
      </trkpt>
      <trkpt lat="49.40456" lon="1.23156">
        <ele>151.2</ele>
        <time>2012-05-06T09:15:34.079Z</time>
      </trkpt>
      <trkpt lat="49.40459" lon="1.23146">
        <ele>150</ele>
        <time>2012-05-06T09:15:36.075Z</time>
      </trkpt>
      <trkpt lat="49.40462" lon="1.23133">
        <ele>150.6</ele>
        <time>2012-05-06T09:15:38.082Z</time>
      </trkpt>
      <trkpt lat="49.4046" lon="1.2312">
        <ele>148.7</ele>
        <time>2012-05-06T09:15:40.088Z</time>
      </trkpt>
      <trkpt lat="49.40461" lon="1.2311">
        <ele>159.3</ele>
        <time>2012-05-06T09:15:45.095Z</time>
      </trkpt>
      <trkpt lat="49.4046" lon="1.23102">
        <ele>162.2</ele>
        <time>2012-05-06T09:15:47.089Z</time>
      </trkpt>
      <trkpt lat="49.40462" lon="1.23095">
        <ele>161.4</ele>
        <time>2012-05-06T09:15:49.073Z</time>
      </trkpt>
      <trkpt lat="49.4046" lon="1.23084">
        <ele>162.8</ele>
        <time>2012-05-06T09:15:51.075Z</time>
      </trkpt>
      <trkpt lat="49.40461" lon="1.23075">
        <ele>163.7</ele>
        <time>2012-05-06T09:15:53.082Z</time>
      </trkpt>
      <trkpt lat="49.40463" lon="1.23063">
        <ele>160.1</ele>
        <time>2012-05-06T09:15:55.090Z</time>
      </trkpt>
      <trkpt lat="49.40465" lon="1.23056">
        <ele>158.1</ele>
        <time>2012-05-06T09:15:56.081Z</time>
      </trkpt>
      <trkpt lat="49.40462" lon="1.23044">
        <ele>155.9</ele>
        <time>2012-05-06T09:15:58.090Z</time>
      </trkpt>
      <trkpt lat="49.40463" lon="1.23036">
        <ele>157.4</ele>
        <time>2012-05-06T09:16:00.091Z</time>
      </trkpt>
      <trkpt lat="49.4046" lon="1.23027">
        <ele>159.1</ele>
        <time>2012-05-06T09:16:02.091Z</time>
      </trkpt>
      <trkpt lat="49.4046" lon="1.23018">
        <ele>160</ele>
        <time>2012-05-06T09:16:03.075Z</time>
      </trkpt>
      <trkpt lat="49.40462" lon="1.23011">
        <ele>161.2</ele>
        <time>2012-05-06T09:16:04.089Z</time>
      </trkpt>
      <trkpt lat="49.4046" lon="1.22999">
        <ele>161.9</ele>
        <time>2012-05-06T09:16:06.077Z</time>
      </trkpt>
      <trkpt lat="49.4046" lon="1.2299">
        <ele>161.5</ele>
        <time>2012-05-06T09:16:08.092Z</time>
      </trkpt>
      <trkpt lat="49.40458" lon="1.22982">
        <ele>159.6</ele>
        <time>2012-05-06T09:16:09.077Z</time>
      </trkpt>
      <trkpt lat="49.4046" lon="1.2297">
        <ele>158.1</ele>
        <time>2012-05-06T09:16:10.090Z</time>
      </trkpt>
      <trkpt lat="49.40459" lon="1.2296">
        <ele>160.1</ele>
        <time>2012-05-06T09:16:11.086Z</time>
      </trkpt>
      <trkpt lat="49.40459" lon="1.22952">
        <ele>160.2</ele>
        <time>2012-05-06T09:16:12.088Z</time>
      </trkpt>
      <trkpt lat="49.40456" lon="1.22944">
        <ele>162.2</ele>
        <time>2012-05-06T09:16:14.089Z</time>
      </trkpt>
      <trkpt lat="49.40456" lon="1.2293">
        <ele>160.8</ele>
        <time>2012-05-06T09:16:16.077Z</time>
      </trkpt>
      <trkpt lat="49.40453" lon="1.22919">
        <ele>161.3</ele>
        <time>2012-05-06T09:16:17.090Z</time>
      </trkpt>
      <trkpt lat="49.40449" lon="1.22904">
        <ele>161.8</ele>
        <time>2012-05-06T09:16:19.092Z</time>
      </trkpt>
      <trkpt lat="49.40446" lon="1.22896">
        <ele>160.6</ele>
        <time>2012-05-06T09:16:20.091Z</time>
      </trkpt>
      <trkpt lat="49.40446" lon="1.22884">
        <ele>159.7</ele>
        <time>2012-05-06T09:16:21.078Z</time>
      </trkpt>
      <trkpt lat="49.40451" lon="1.22869">
        <ele>158</ele>
        <time>2012-05-06T09:16:22.076Z</time>
      </trkpt>
      <trkpt lat="49.40448" lon="1.22864">
        <ele>159.1</ele>
        <time>2012-05-06T09:16:23.093Z</time>
      </trkpt>
      <trkpt lat="49.40448" lon="1.22856">
        <ele>159.8</ele>
        <time>2012-05-06T09:16:24.095Z</time>
      </trkpt>
      <trkpt lat="49.4045" lon="1.22847">
        <ele>159.6</ele>
        <time>2012-05-06T09:16:25.089Z</time>
      </trkpt>
      <trkpt lat="49.40452" lon="1.22838">
        <ele>160</ele>
        <time>2012-05-06T09:16:26.076Z</time>
      </trkpt>
      <trkpt lat="49.40455" lon="1.22826">
        <ele>159.9</ele>
        <time>2012-05-06T09:16:27.088Z</time>
      </trkpt>
      <trkpt lat="49.4046" lon="1.22816">
        <ele>159.5</ele>
        <time>2012-05-06T09:16:28.081Z</time>
      </trkpt>
      <trkpt lat="49.40464" lon="1.22811">
        <ele>157.7</ele>
        <time>2012-05-06T09:16:29.092Z</time>
      </trkpt>
      <trkpt lat="49.40467" lon="1.22802">
        <ele>157.5</ele>
        <time>2012-05-06T09:16:30.081Z</time>
      </trkpt>
      <trkpt lat="49.40469" lon="1.22793">
        <ele>156.6</ele>
        <time>2012-05-06T09:16:31.092Z</time>
      </trkpt>
      <trkpt lat="49.40473" lon="1.22788">
        <ele>157.4</ele>
        <time>2012-05-06T09:16:33.089Z</time>
      </trkpt>
      <trkpt lat="49.40478" lon="1.22781">
        <ele>157.4</ele>
        <time>2012-05-06T09:16:34.092Z</time>
      </trkpt>
      <trkpt lat="49.40487" lon="1.22777">
        <ele>156.6</ele>
        <time>2012-05-06T09:16:35.089Z</time>
      </trkpt>
      <trkpt lat="49.40493" lon="1.22771">
        <ele>155.5</ele>
        <time>2012-05-06T09:16:36.094Z</time>
      </trkpt>
      <trkpt lat="49.40499" lon="1.22768">
        <ele>155.3</ele>
        <time>2012-05-06T09:16:37.089Z</time>
      </trkpt>
      <trkpt lat="49.40507" lon="1.22764">
        <ele>153.2</ele>
        <time>2012-05-06T09:16:38.080Z</time>
      </trkpt>
      <trkpt lat="49.40513" lon="1.22762">
        <ele>151.8</ele>
        <time>2012-05-06T09:16:39.072Z</time>
      </trkpt>
      <trkpt lat="49.40518" lon="1.2276">
        <ele>150.7</ele>
        <time>2012-05-06T09:16:40.075Z</time>
      </trkpt>
      <trkpt lat="49.4053" lon="1.22759">
        <ele>150.2</ele>
        <time>2012-05-06T09:16:42.211Z</time>
      </trkpt>
      <trkpt lat="49.40535" lon="1.22759">
        <ele>149.2</ele>
        <time>2012-05-06T09:16:43.211Z</time>
      </trkpt>
      <trkpt lat="49.40542" lon="1.22759">
        <ele>147.1</ele>
        <time>2012-05-06T09:16:45.086Z</time>
      </trkpt>
      <trkpt lat="49.4055" lon="1.2276">
        <ele>146.1</ele>
        <time>2012-05-06T09:16:46.081Z</time>
      </trkpt>
      <trkpt lat="49.40556" lon="1.2276">
        <ele>145.2</ele>
        <time>2012-05-06T09:16:47.088Z</time>
      </trkpt>
      <trkpt lat="49.40562" lon="1.22759">
        <ele>144.3</ele>
        <time>2012-05-06T09:16:48.076Z</time>
      </trkpt>
      <trkpt lat="49.4057" lon="1.22757">
        <ele>143.6</ele>
        <time>2012-05-06T09:16:49.081Z</time>
      </trkpt>
      <trkpt lat="49.40577" lon="1.22757">
        <ele>143.1</ele>
        <time>2012-05-06T09:16:50.091Z</time>
      </trkpt>
      <trkpt lat="49.40583" lon="1.22757">
        <ele>141.9</ele>
        <time>2012-05-06T09:16:51.078Z</time>
      </trkpt>
      <trkpt lat="49.40589" lon="1.22754">
        <ele>142.4</ele>
        <time>2012-05-06T09:16:52.075Z</time>
      </trkpt>
      <trkpt lat="49.40595" lon="1.22751">
        <ele>142.1</ele>
        <time>2012-05-06T09:16:53.093Z</time>
      </trkpt>
      <trkpt lat="49.40601" lon="1.2275">
        <ele>141.8</ele>
        <time>2012-05-06T09:16:54.093Z</time>
      </trkpt>
      <trkpt lat="49.40608" lon="1.2275">
        <ele>140.3</ele>
        <time>2012-05-06T09:16:55.075Z</time>
      </trkpt>
      <trkpt lat="49.40615" lon="1.22749">
        <ele>139.8</ele>
        <time>2012-05-06T09:16:56.088Z</time>
      </trkpt>
      <trkpt lat="49.40621" lon="1.22749">
        <ele>140.2</ele>
        <time>2012-05-06T09:16:57.080Z</time>
      </trkpt>
      <trkpt lat="49.40628" lon="1.22749">
        <ele>140.8</ele>
        <time>2012-05-06T09:16:58.075Z</time>
      </trkpt>
      <trkpt lat="49.40635" lon="1.22747">
        <ele>141.2</ele>
        <time>2012-05-06T09:16:59.089Z</time>
      </trkpt>
      <trkpt lat="49.40642" lon="1.22745">
        <ele>140.6</ele>
        <time>2012-05-06T09:17:00.085Z</time>
      </trkpt>
      <trkpt lat="49.40649" lon="1.22743">
        <ele>140.1</ele>
        <time>2012-05-06T09:17:01.090Z</time>
      </trkpt>
      <trkpt lat="49.40655" lon="1.22741">
        <ele>139.5</ele>
        <time>2012-05-06T09:17:02.075Z</time>
      </trkpt>
      <trkpt lat="49.40662" lon="1.2274">
        <ele>140</ele>
        <time>2012-05-06T09:17:03.075Z</time>
      </trkpt>
      <trkpt lat="49.40669" lon="1.22739">
        <ele>139.3</ele>
        <time>2012-05-06T09:17:04.097Z</time>
      </trkpt>
      <trkpt lat="49.40674" lon="1.22739">
        <ele>138</ele>
        <time>2012-05-06T09:17:05.076Z</time>
      </trkpt>
      <trkpt lat="49.40679" lon="1.22739">
        <ele>137.5</ele>
        <time>2012-05-06T09:17:06.089Z</time>
      </trkpt>
      <trkpt lat="49.40688" lon="1.2274">
        <ele>137.7</ele>
        <time>2012-05-06T09:17:08.095Z</time>
      </trkpt>
      <trkpt lat="49.40693" lon="1.22739">
        <ele>137.2</ele>
        <time>2012-05-06T09:17:09.086Z</time>
      </trkpt>
      <trkpt lat="49.40698" lon="1.22738">
        <ele>136.9</ele>
        <time>2012-05-06T09:17:10.076Z</time>
      </trkpt>
      <trkpt lat="49.40703" lon="1.22734">
        <ele>136.5</ele>
        <time>2012-05-06T09:17:11.088Z</time>
      </trkpt>
      <trkpt lat="49.40707" lon="1.2273">
        <ele>135.8</ele>
        <time>2012-05-06T09:17:12.085Z</time>
      </trkpt>
      <trkpt lat="49.40713" lon="1.22728">
        <ele>135.4</ele>
        <time>2012-05-06T09:17:13.090Z</time>
      </trkpt>
      <trkpt lat="49.4072" lon="1.22726">
        <ele>135</ele>
        <time>2012-05-06T09:17:15.076Z</time>
      </trkpt>
      <trkpt lat="49.40726" lon="1.22721">
        <ele>136.2</ele>
        <time>2012-05-06T09:17:17.079Z</time>
      </trkpt>
      <trkpt lat="49.40733" lon="1.22714">
        <ele>136.1</ele>
        <time>2012-05-06T09:17:19.089Z</time>
      </trkpt>
      <trkpt lat="49.40739" lon="1.22706">
        <ele>135.7</ele>
        <time>2012-05-06T09:17:21.091Z</time>
      </trkpt>
      <trkpt lat="49.40743" lon="1.22701">
        <ele>136.1</ele>
        <time>2012-05-06T09:17:22.080Z</time>
      </trkpt>
      <trkpt lat="49.40749" lon="1.22691">
        <ele>135.9</ele>
        <time>2012-05-06T09:17:24.092Z</time>
      </trkpt>
      <trkpt lat="49.40754" lon="1.22688">
        <ele>136.2</ele>
        <time>2012-05-06T09:17:25.080Z</time>
      </trkpt>
      <trkpt lat="49.40758" lon="1.22682">
        <ele>136.3</ele>
        <time>2012-05-06T09:17:26.086Z</time>
      </trkpt>
      <trkpt lat="49.40764" lon="1.22678">
        <ele>136.6</ele>
        <time>2012-05-06T09:17:27.075Z</time>
      </trkpt>
      <trkpt lat="49.40768" lon="1.2267">
        <ele>136.2</ele>
        <time>2012-05-06T09:17:28.075Z</time>
      </trkpt>
      <trkpt lat="49.40772" lon="1.22662">
        <ele>136.2</ele>
        <time>2012-05-06T09:17:29.092Z</time>
      </trkpt>
      <trkpt lat="49.40776" lon="1.22656">
        <ele>136.4</ele>
        <time>2012-05-06T09:17:30.078Z</time>
      </trkpt>
      <trkpt lat="49.4078" lon="1.2265">
        <ele>136.3</ele>
        <time>2012-05-06T09:17:31.075Z</time>
      </trkpt>
      <trkpt lat="49.40781" lon="1.2264">
        <ele>136.1</ele>
        <time>2012-05-06T09:17:32.074Z</time>
      </trkpt>
      <trkpt lat="49.40781" lon="1.22629">
        <ele>137</ele>
        <time>2012-05-06T09:17:33.078Z</time>
      </trkpt>
      <trkpt lat="49.40784" lon="1.22619">
        <ele>137.5</ele>
        <time>2012-05-06T09:17:34.095Z</time>
      </trkpt>
      <trkpt lat="49.40785" lon="1.2261">
        <ele>137.2</ele>
        <time>2012-05-06T09:17:35.090Z</time>
      </trkpt>
      <trkpt lat="49.40785" lon="1.22599">
        <ele>137.3</ele>
        <time>2012-05-06T09:17:36.076Z</time>
      </trkpt>
      <trkpt lat="49.40787" lon="1.22592">
        <ele>137</ele>
        <time>2012-05-06T09:17:37.091Z</time>
      </trkpt>
      <trkpt lat="49.40788" lon="1.22582">
        <ele>137.5</ele>
        <time>2012-05-06T09:17:38.079Z</time>
      </trkpt>
      <trkpt lat="49.40791" lon="1.22574">
        <ele>137.4</ele>
        <time>2012-05-06T09:17:39.089Z</time>
      </trkpt>
      <trkpt lat="49.40792" lon="1.22565">
        <ele>138</ele>
        <time>2012-05-06T09:17:40.079Z</time>
      </trkpt>
      <trkpt lat="49.40797" lon="1.22548">
        <ele>138.2</ele>
        <time>2012-05-06T09:17:42.186Z</time>
      </trkpt>
      <trkpt lat="49.40799" lon="1.22541">
        <ele>138.4</ele>
        <time>2012-05-06T09:17:43.186Z</time>
      </trkpt>
      <trkpt lat="49.40802" lon="1.22532">
        <ele>136.9</ele>
        <time>2012-05-06T09:17:45.091Z</time>
      </trkpt>
      <trkpt lat="49.40808" lon="1.22526">
        <ele>136.9</ele>
        <time>2012-05-06T09:17:46.078Z</time>
      </trkpt>
      <trkpt lat="49.40813" lon="1.2252">
        <ele>137.5</ele>
        <time>2012-05-06T09:17:47.088Z</time>
      </trkpt>
      <trkpt lat="49.40817" lon="1.22515">
        <ele>138</ele>
        <time>2012-05-06T09:17:48.082Z</time>
      </trkpt>
      <trkpt lat="49.4082" lon="1.22508">
        <ele>138.1</ele>
        <time>2012-05-06T09:17:49.090Z</time>
      </trkpt>
      <trkpt lat="49.40825" lon="1.22505">
        <ele>138.6</ele>
        <time>2012-05-06T09:17:50.075Z</time>
      </trkpt>
      <trkpt lat="49.4083" lon="1.22497">
        <ele>138.7</ele>
        <time>2012-05-06T09:17:52.093Z</time>
      </trkpt>
      <trkpt lat="49.40835" lon="1.22492">
        <ele>138.7</ele>
        <time>2012-05-06T09:17:53.075Z</time>
      </trkpt>
      <trkpt lat="49.4084" lon="1.22487">
        <ele>138.8</ele>
        <time>2012-05-06T09:17:54.081Z</time>
      </trkpt>
      <trkpt lat="49.40842" lon="1.22481">
        <ele>139.3</ele>
        <time>2012-05-06T09:17:55.075Z</time>
      </trkpt>
      <trkpt lat="49.40843" lon="1.22474">
        <ele>139.7</ele>
        <time>2012-05-06T09:17:57.093Z</time>
      </trkpt>
      <trkpt lat="49.40849" lon="1.22465">
        <ele>141.1</ele>
        <time>2012-05-06T09:17:58.077Z</time>
      </trkpt>
      <trkpt lat="49.40852" lon="1.22456">
        <ele>141.9</ele>
        <time>2012-05-06T09:17:59.092Z</time>
      </trkpt>
      <trkpt lat="49.40857" lon="1.22449">
        <ele>141.7</ele>
        <time>2012-05-06T09:18:00.075Z</time>
      </trkpt>
      <trkpt lat="49.40863" lon="1.22443">
        <ele>141.6</ele>
        <time>2012-05-06T09:18:01.078Z</time>
      </trkpt>
      <trkpt lat="49.4087" lon="1.22438">
        <ele>144.5</ele>
        <time>2012-05-06T09:18:02.093Z</time>
      </trkpt>
      <trkpt lat="49.40873" lon="1.22431">
        <ele>144.9</ele>
        <time>2012-05-06T09:18:03.087Z</time>
      </trkpt>
      <trkpt lat="49.40878" lon="1.22428">
        <ele>145.9</ele>
        <time>2012-05-06T09:18:04.089Z</time>
      </trkpt>
      <trkpt lat="49.40885" lon="1.22425">
        <ele>146.7</ele>
        <time>2012-05-06T09:18:05.078Z</time>
      </trkpt>
      <trkpt lat="49.40889" lon="1.22421">
        <ele>146.7</ele>
        <time>2012-05-06T09:18:06.076Z</time>
      </trkpt>
      <trkpt lat="49.40894" lon="1.22414">
        <ele>146.9</ele>
        <time>2012-05-06T09:18:07.089Z</time>
      </trkpt>
      <trkpt lat="49.40902" lon="1.22413">
        <ele>146.6</ele>
        <time>2012-05-06T09:18:08.084Z</time>
      </trkpt>
      <trkpt lat="49.40909" lon="1.22409">
        <ele>146.2</ele>
        <time>2012-05-06T09:18:09.093Z</time>
      </trkpt>
      <trkpt lat="49.40914" lon="1.22407">
        <ele>146.5</ele>
        <time>2012-05-06T09:18:10.092Z</time>
      </trkpt>
      <trkpt lat="49.4092" lon="1.22405">
        <ele>145.6</ele>
        <time>2012-05-06T09:18:11.088Z</time>
      </trkpt>
      <trkpt lat="49.40927" lon="1.22402">
        <ele>144.7</ele>
        <time>2012-05-06T09:18:12.080Z</time>
      </trkpt>
      <trkpt lat="49.40934" lon="1.224">
        <ele>144.3</ele>
        <time>2012-05-06T09:18:13.075Z</time>
      </trkpt>
      <trkpt lat="49.40942" lon="1.22398">
        <ele>143.5</ele>
        <time>2012-05-06T09:18:14.075Z</time>
      </trkpt>
      <trkpt lat="49.40947" lon="1.22396">
        <ele>142</ele>
        <time>2012-05-06T09:18:15.075Z</time>
      </trkpt>
      <trkpt lat="49.40954" lon="1.22393">
        <ele>141.6</ele>
        <time>2012-05-06T09:18:16.077Z</time>
      </trkpt>
      <trkpt lat="49.4096" lon="1.22394">
        <ele>141.1</ele>
        <time>2012-05-06T09:18:17.086Z</time>
      </trkpt>
      <trkpt lat="49.40967" lon="1.22391">
        <ele>140.8</ele>
        <time>2012-05-06T09:18:18.082Z</time>
      </trkpt>
      <trkpt lat="49.40975" lon="1.22386">
        <ele>140.5</ele>
        <time>2012-05-06T09:18:19.089Z</time>
      </trkpt>
      <trkpt lat="49.40981" lon="1.22384">
        <ele>141.1</ele>
        <time>2012-05-06T09:18:20.079Z</time>
      </trkpt>
      <trkpt lat="49.40986" lon="1.2238">
        <ele>140.5</ele>
        <time>2012-05-06T09:18:21.077Z</time>
      </trkpt>
      <trkpt lat="49.40992" lon="1.22375">
        <ele>140.8</ele>
        <time>2012-05-06T09:18:22.089Z</time>
      </trkpt>
      <trkpt lat="49.41" lon="1.22372">
        <ele>142.1</ele>
        <time>2012-05-06T09:18:24.076Z</time>
      </trkpt>
      <trkpt lat="49.41005" lon="1.22357">
        <ele>144.9</ele>
        <time>2012-05-06T09:18:26.082Z</time>
      </trkpt>
      <trkpt lat="49.41012" lon="1.22351">
        <ele>145.7</ele>
        <time>2012-05-06T09:18:27.075Z</time>
      </trkpt>
      <trkpt lat="49.41019" lon="1.22344">
        <ele>145.2</ele>
        <time>2012-05-06T09:18:28.074Z</time>
      </trkpt>
      <trkpt lat="49.41023" lon="1.22337">
        <ele>144.3</ele>
        <time>2012-05-06T09:18:29.077Z</time>
      </trkpt>
      <trkpt lat="49.41028" lon="1.22328">
        <ele>145.7</ele>
        <time>2012-05-06T09:18:30.089Z</time>
      </trkpt>
      <trkpt lat="49.41032" lon="1.22322">
        <ele>147.5</ele>
        <time>2012-05-06T09:18:31.079Z</time>
      </trkpt>
      <trkpt lat="49.41034" lon="1.22314">
        <ele>146.5</ele>
        <time>2012-05-06T09:18:32.086Z</time>
      </trkpt>
      <trkpt lat="49.41037" lon="1.22306">
        <ele>146</ele>
        <time>2012-05-06T09:18:33.259Z</time>
      </trkpt>
      <trkpt lat="49.41041" lon="1.22299">
        <ele>145.1</ele>
        <time>2012-05-06T09:18:34.259Z</time>
      </trkpt>
      <trkpt lat="49.41044" lon="1.2229">
        <ele>144.4</ele>
        <time>2012-05-06T09:18:35.259Z</time>
      </trkpt>
      <trkpt lat="49.41046" lon="1.22282">
        <ele>144</ele>
        <time>2012-05-06T09:18:36.259Z</time>
      </trkpt>
      <trkpt lat="49.41049" lon="1.22274">
        <ele>143.2</ele>
        <time>2012-05-06T09:18:37.259Z</time>
      </trkpt>
      <trkpt lat="49.41051" lon="1.22265">
        <ele>143</ele>
        <time>2012-05-06T09:18:38.259Z</time>
      </trkpt>
      <trkpt lat="49.41053" lon="1.22257">
        <ele>142.3</ele>
        <time>2012-05-06T09:18:39.259Z</time>
      </trkpt>
      <trkpt lat="49.41053" lon="1.22249">
        <ele>140.9</ele>
        <time>2012-05-06T09:18:40.259Z</time>
      </trkpt>
      <trkpt lat="49.41054" lon="1.22237">
        <ele>139.9</ele>
        <time>2012-05-06T09:18:42.078Z</time>
      </trkpt>
      <trkpt lat="49.41055" lon="1.2223">
        <ele>140.2</ele>
        <time>2012-05-06T09:18:43.092Z</time>
      </trkpt>
      <trkpt lat="49.41055" lon="1.22221">
        <ele>140.5</ele>
        <time>2012-05-06T09:18:44.080Z</time>
      </trkpt>
      <trkpt lat="49.41057" lon="1.22211">
        <ele>140</ele>
        <time>2012-05-06T09:18:45.096Z</time>
      </trkpt>
      <trkpt lat="49.41054" lon="1.22205">
        <ele>139.8</ele>
        <time>2012-05-06T09:18:46.092Z</time>
      </trkpt>
      <trkpt lat="49.4105" lon="1.22193">
        <ele>140.3</ele>
        <time>2012-05-06T09:18:48.093Z</time>
      </trkpt>
      <trkpt lat="49.4105" lon="1.22184">
        <ele>141</ele>
        <time>2012-05-06T09:18:49.075Z</time>
      </trkpt>
      <trkpt lat="49.41049" lon="1.22173">
        <ele>140.8</ele>
        <time>2012-05-06T09:18:51.100Z</time>
      </trkpt>
      <trkpt lat="49.41047" lon="1.22166">
        <ele>139.1</ele>
        <time>2012-05-06T09:18:52.089Z</time>
      </trkpt>
      <trkpt lat="49.41044" lon="1.22158">
        <ele>138</ele>
        <time>2012-05-06T09:18:53.090Z</time>
      </trkpt>
      <trkpt lat="49.41049" lon="1.22146">
        <ele>136.9</ele>
        <time>2012-05-06T09:18:54.090Z</time>
      </trkpt>
      <trkpt lat="49.41051" lon="1.22136">
        <ele>135.5</ele>
        <time>2012-05-06T09:18:55.076Z</time>
      </trkpt>
      <trkpt lat="49.41052" lon="1.22124">
        <ele>134.6</ele>
        <time>2012-05-06T09:18:56.075Z</time>
      </trkpt>
      <trkpt lat="49.4105" lon="1.22116">
        <ele>134.2</ele>
        <time>2012-05-06T09:18:57.091Z</time>
      </trkpt>
      <trkpt lat="49.4105" lon="1.22107">
        <ele>131.6</ele>
        <time>2012-05-06T09:18:58.081Z</time>
      </trkpt>
      <trkpt lat="49.41053" lon="1.22098">
        <ele>130.5</ele>
        <time>2012-05-06T09:18:59.090Z</time>
      </trkpt>
      <trkpt lat="49.41055" lon="1.22091">
        <ele>130.6</ele>
        <time>2012-05-06T09:19:00.078Z</time>
      </trkpt>
      <trkpt lat="49.41057" lon="1.22081">
        <ele>131.4</ele>
        <time>2012-05-06T09:19:01.095Z</time>
      </trkpt>
      <trkpt lat="49.41058" lon="1.22073">
        <ele>130.6</ele>
        <time>2012-05-06T09:19:02.093Z</time>
      </trkpt>
      <trkpt lat="49.41058" lon="1.22066">
        <ele>130.3</ele>
        <time>2012-05-06T09:19:03.095Z</time>
      </trkpt>
      <trkpt lat="49.41059" lon="1.22057">
        <ele>131</ele>
        <time>2012-05-06T09:19:04.087Z</time>
      </trkpt>
      <trkpt lat="49.4106" lon="1.22048">
        <ele>130.7</ele>
        <time>2012-05-06T09:19:05.083Z</time>
      </trkpt>
      <trkpt lat="49.41059" lon="1.2204">
        <ele>130.7</ele>
        <time>2012-05-06T09:19:06.076Z</time>
      </trkpt>
      <trkpt lat="49.4106" lon="1.22029">
        <ele>131.3</ele>
        <time>2012-05-06T09:19:07.092Z</time>
      </trkpt>
      <trkpt lat="49.4106" lon="1.22019">
        <ele>132.5</ele>
        <time>2012-05-06T09:19:08.078Z</time>
      </trkpt>
      <trkpt lat="49.41062" lon="1.22012">
        <ele>133.1</ele>
        <time>2012-05-06T09:19:09.076Z</time>
      </trkpt>
      <trkpt lat="49.41066" lon="1.22004">
        <ele>134.1</ele>
        <time>2012-05-06T09:19:10.089Z</time>
      </trkpt>
      <trkpt lat="49.41068" lon="1.21997">
        <ele>133.1</ele>
        <time>2012-05-06T09:19:11.079Z</time>
      </trkpt>
      <trkpt lat="49.4107" lon="1.21986">
        <ele>131.9</ele>
        <time>2012-05-06T09:19:12.086Z</time>
      </trkpt>
      <trkpt lat="49.41075" lon="1.21977">
        <ele>131</ele>
        <time>2012-05-06T09:19:13.073Z</time>
      </trkpt>
      <trkpt lat="49.41078" lon="1.21964">
        <ele>131.7</ele>
        <time>2012-05-06T09:19:15.077Z</time>
      </trkpt>
      <trkpt lat="49.4108" lon="1.21957">
        <ele>131.5</ele>
        <time>2012-05-06T09:19:16.076Z</time>
      </trkpt>
      <trkpt lat="49.41082" lon="1.21949">
        <ele>133.1</ele>
        <time>2012-05-06T09:19:17.075Z</time>
      </trkpt>
      <trkpt lat="49.41085" lon="1.21941">
        <ele>133.8</ele>
        <time>2012-05-06T09:19:18.089Z</time>
      </trkpt>
      <trkpt lat="49.41088" lon="1.21934">
        <ele>133.9</ele>
        <time>2012-05-06T09:19:19.081Z</time>
      </trkpt>
      <trkpt lat="49.41093" lon="1.2192">
        <ele>134.2</ele>
        <time>2012-05-06T09:19:21.093Z</time>
      </trkpt>
      <trkpt lat="49.41094" lon="1.21911">
        <ele>133.6</ele>
        <time>2012-05-06T09:19:22.086Z</time>
      </trkpt>
      <trkpt lat="49.41099" lon="1.21902">
        <ele>133.7</ele>
        <time>2012-05-06T09:19:23.081Z</time>
      </trkpt>
      <trkpt lat="49.41101" lon="1.21893">
        <ele>133.1</ele>
        <time>2012-05-06T09:19:24.074Z</time>
      </trkpt>
      <trkpt lat="49.41106" lon="1.21885">
        <ele>132.5</ele>
        <time>2012-05-06T09:19:25.077Z</time>
      </trkpt>
      <trkpt lat="49.4111" lon="1.21878">
        <ele>132.3</ele>
        <time>2012-05-06T09:19:26.090Z</time>
      </trkpt>
      <trkpt lat="49.41113" lon="1.2187">
        <ele>131.9</ele>
        <time>2012-05-06T09:19:27.079Z</time>
      </trkpt>
      <trkpt lat="49.41117" lon="1.21862">
        <ele>131.9</ele>
        <time>2012-05-06T09:19:28.094Z</time>
      </trkpt>
      <trkpt lat="49.41122" lon="1.21851">
        <ele>131.9</ele>
        <time>2012-05-06T09:19:30.090Z</time>
      </trkpt>
      <trkpt lat="49.41127" lon="1.21845">
        <ele>132.6</ele>
        <time>2012-05-06T09:19:31.081Z</time>
      </trkpt>
      <trkpt lat="49.41132" lon="1.2184">
        <ele>133.7</ele>
        <time>2012-05-06T09:19:32.088Z</time>
      </trkpt>
      <trkpt lat="49.41138" lon="1.21834">
        <ele>133.6</ele>
        <time>2012-05-06T09:19:33.080Z</time>
      </trkpt>
      <trkpt lat="49.41144" lon="1.21826">
        <ele>133</ele>
        <time>2012-05-06T09:19:34.089Z</time>
      </trkpt>
      <trkpt lat="49.41151" lon="1.2182">
        <ele>133.1</ele>
        <time>2012-05-06T09:19:35.079Z</time>
      </trkpt>
      <trkpt lat="49.41157" lon="1.21817">
        <ele>132.1</ele>
        <time>2012-05-06T09:19:36.092Z</time>
      </trkpt>
      <trkpt lat="49.41164" lon="1.21812">
        <ele>131.3</ele>
        <time>2012-05-06T09:19:37.078Z</time>
      </trkpt>
      <trkpt lat="49.41169" lon="1.2181">
        <ele>130.6</ele>
        <time>2012-05-06T09:19:38.088Z</time>
      </trkpt>
      <trkpt lat="49.41175" lon="1.21807">
        <ele>129.9</ele>
        <time>2012-05-06T09:19:39.080Z</time>
      </trkpt>
      <trkpt lat="49.41181" lon="1.21804">
        <ele>130.2</ele>
        <time>2012-05-06T09:19:40.090Z</time>
      </trkpt>
      <trkpt lat="49.41193" lon="1.21797">
        <ele>130</ele>
        <time>2012-05-06T09:19:42.196Z</time>
      </trkpt>
      <trkpt lat="49.41198" lon="1.21794">
        <ele>129.5</ele>
        <time>2012-05-06T09:19:43.196Z</time>
      </trkpt>
      <trkpt lat="49.41209" lon="1.218">
        <ele>128</ele>
        <time>2012-05-06T09:19:45.090Z</time>
      </trkpt>
      <trkpt lat="49.41215" lon="1.21804">
        <ele>127.2</ele>
        <time>2012-05-06T09:19:46.078Z</time>
      </trkpt>
      <trkpt lat="49.4122" lon="1.21807">
        <ele>127.4</ele>
        <time>2012-05-06T09:19:47.097Z</time>
      </trkpt>
      <trkpt lat="49.41224" lon="1.2181">
        <ele>126.8</ele>
        <time>2012-05-06T09:19:48.073Z</time>
      </trkpt>
      <trkpt lat="49.41229" lon="1.21812">
        <ele>125.8</ele>
        <time>2012-05-06T09:19:49.096Z</time>
      </trkpt>
      <trkpt lat="49.41236" lon="1.21815">
        <ele>124.3</ele>
        <time>2012-05-06T09:19:50.075Z</time>
      </trkpt>
      <trkpt lat="49.4124" lon="1.21821">
        <ele>123.1</ele>
        <time>2012-05-06T09:19:51.095Z</time>
      </trkpt>
      <trkpt lat="49.41245" lon="1.21826">
        <ele>122.5</ele>
        <time>2012-05-06T09:19:52.091Z</time>
      </trkpt>
      <trkpt lat="49.41249" lon="1.21831">
        <ele>122</ele>
        <time>2012-05-06T09:19:53.078Z</time>
      </trkpt>
      <trkpt lat="49.41256" lon="1.21838">
        <ele>121.7</ele>
        <time>2012-05-06T09:19:54.094Z</time>
      </trkpt>
      <trkpt lat="49.41261" lon="1.21844">
        <ele>121.7</ele>
        <time>2012-05-06T09:19:55.088Z</time>
      </trkpt>
      <trkpt lat="49.41267" lon="1.21849">
        <ele>121.4</ele>
        <time>2012-05-06T09:19:56.091Z</time>
      </trkpt>
      <trkpt lat="49.41272" lon="1.21852">
        <ele>122</ele>
        <time>2012-05-06T09:19:57.075Z</time>
      </trkpt>
      <trkpt lat="49.41278" lon="1.21858">
        <ele>121.7</ele>
        <time>2012-05-06T09:19:58.075Z</time>
      </trkpt>
      <trkpt lat="49.41284" lon="1.21862">
        <ele>121.4</ele>
        <time>2012-05-06T09:19:59.092Z</time>
      </trkpt>
      <trkpt lat="49.4129" lon="1.21866">
        <ele>121.1</ele>
        <time>2012-05-06T09:20:00.075Z</time>
      </trkpt>
      <trkpt lat="49.41294" lon="1.21871">
        <ele>120.4</ele>
        <time>2012-05-06T09:20:01.093Z</time>
      </trkpt>
      <trkpt lat="49.413" lon="1.21876">
        <ele>120</ele>
        <time>2012-05-06T09:20:02.090Z</time>
      </trkpt>
      <trkpt lat="49.41306" lon="1.21881">
        <ele>118.9</ele>
        <time>2012-05-06T09:20:03.078Z</time>
      </trkpt>
      <trkpt lat="49.41311" lon="1.21886">
        <ele>117.5</ele>
        <time>2012-05-06T09:20:04.092Z</time>
      </trkpt>
      <trkpt lat="49.41317" lon="1.21892">
        <ele>115.5</ele>
        <time>2012-05-06T09:20:05.081Z</time>
      </trkpt>
      <trkpt lat="49.41324" lon="1.21897">
        <ele>114.7</ele>
        <time>2012-05-06T09:20:06.091Z</time>
      </trkpt>
      <trkpt lat="49.41331" lon="1.21904">
        <ele>114.6</ele>
        <time>2012-05-06T09:20:07.092Z</time>
      </trkpt>
      <trkpt lat="49.41337" lon="1.21907">
        <ele>114</ele>
        <time>2012-05-06T09:20:08.091Z</time>
      </trkpt>
      <trkpt lat="49.41343" lon="1.2191">
        <ele>113.6</ele>
        <time>2012-05-06T09:20:09.076Z</time>
      </trkpt>
      <trkpt lat="49.4135" lon="1.21913">
        <ele>114.5</ele>
        <time>2012-05-06T09:20:10.077Z</time>
      </trkpt>
      <trkpt lat="49.41356" lon="1.21916">
        <ele>113.1</ele>
        <time>2012-05-06T09:20:11.091Z</time>
      </trkpt>
      <trkpt lat="49.41362" lon="1.21919">
        <ele>112.4</ele>
        <time>2012-05-06T09:20:12.079Z</time>
      </trkpt>
      <trkpt lat="49.4137" lon="1.21922">
        <ele>112.1</ele>
        <time>2012-05-06T09:20:13.090Z</time>
      </trkpt>
      <trkpt lat="49.41376" lon="1.21925">
        <ele>111.5</ele>
        <time>2012-05-06T09:20:14.080Z</time>
      </trkpt>
      <trkpt lat="49.41382" lon="1.21928">
        <ele>111</ele>
        <time>2012-05-06T09:20:15.091Z</time>
      </trkpt>
      <trkpt lat="49.41389" lon="1.21931">
        <ele>111.1</ele>
        <time>2012-05-06T09:20:16.080Z</time>
      </trkpt>
      <trkpt lat="49.41396" lon="1.21935">
        <ele>111.5</ele>
        <time>2012-05-06T09:20:17.094Z</time>
      </trkpt>
      <trkpt lat="49.41402" lon="1.21938">
        <ele>110.3</ele>
        <time>2012-05-06T09:20:18.095Z</time>
      </trkpt>
      <trkpt lat="49.41409" lon="1.21942">
        <ele>109.4</ele>
        <time>2012-05-06T09:20:19.088Z</time>
      </trkpt>
      <trkpt lat="49.41415" lon="1.21946">
        <ele>108.8</ele>
        <time>2012-05-06T09:20:20.089Z</time>
      </trkpt>
      <trkpt lat="49.41421" lon="1.2195">
        <ele>109.8</ele>
        <time>2012-05-06T09:20:21.083Z</time>
      </trkpt>
      <trkpt lat="49.41425" lon="1.21955">
        <ele>109.9</ele>
        <time>2012-05-06T09:20:22.094Z</time>
      </trkpt>
      <trkpt lat="49.41431" lon="1.21961">
        <ele>109.8</ele>
        <time>2012-05-06T09:20:23.089Z</time>
      </trkpt>
      <trkpt lat="49.41436" lon="1.21966">
        <ele>110.8</ele>
        <time>2012-05-06T09:20:24.080Z</time>
      </trkpt>
      <trkpt lat="49.41441" lon="1.21972">
        <ele>111.1</ele>
        <time>2012-05-06T09:20:25.088Z</time>
      </trkpt>
      <trkpt lat="49.41445" lon="1.21978">
        <ele>111.8</ele>
        <time>2012-05-06T09:20:26.082Z</time>
      </trkpt>
      <trkpt lat="49.41449" lon="1.21985">
        <ele>112.1</ele>
        <time>2012-05-06T09:20:27.093Z</time>
      </trkpt>
      <trkpt lat="49.41453" lon="1.21992">
        <ele>112.3</ele>
        <time>2012-05-06T09:20:28.079Z</time>
      </trkpt>
      <trkpt lat="49.41456" lon="1.21998">
        <ele>112.8</ele>
        <time>2012-05-06T09:20:29.089Z</time>
      </trkpt>
      <trkpt lat="49.4146" lon="1.22002">
        <ele>113.2</ele>
        <time>2012-05-06T09:20:30.094Z</time>
      </trkpt>
      <trkpt lat="49.41464" lon="1.22011">
        <ele>114.4</ele>
        <time>2012-05-06T09:20:32.080Z</time>
      </trkpt>
      <trkpt lat="49.4147" lon="1.22016">
        <ele>116</ele>
        <time>2012-05-06T09:20:34.093Z</time>
      </trkpt>
      <trkpt lat="49.41475" lon="1.22013">
        <ele>116.9</ele>
        <time>2012-05-06T09:20:36.082Z</time>
      </trkpt>
      <trkpt lat="49.4148" lon="1.22003">
        <ele>117.3</ele>
        <time>2012-05-06T09:20:38.092Z</time>
      </trkpt>
      <trkpt lat="49.41482" lon="1.21996">
        <ele>117.4</ele>
        <time>2012-05-06T09:20:39.081Z</time>
      </trkpt>
      <trkpt lat="49.41484" lon="1.21989">
        <ele>117.3</ele>
        <time>2012-05-06T09:20:40.087Z</time>
      </trkpt>
      <trkpt lat="49.41488" lon="1.2197">
        <ele>117.3</ele>
        <time>2012-05-06T09:20:42.262Z</time>
      </trkpt>
      <trkpt lat="49.4149" lon="1.21961">
        <ele>117.2</ele>
        <time>2012-05-06T09:20:43.262Z</time>
      </trkpt>
      <trkpt lat="49.41494" lon="1.21942">
        <ele>115.2</ele>
        <time>2012-05-06T09:20:45.091Z</time>
      </trkpt>
      <trkpt lat="49.41496" lon="1.21932">
        <ele>114.7</ele>
        <time>2012-05-06T09:20:46.088Z</time>
      </trkpt>
      <trkpt lat="49.41498" lon="1.2192">
        <ele>114.6</ele>
        <time>2012-05-06T09:20:47.081Z</time>
      </trkpt>
      <trkpt lat="49.41501" lon="1.21908">
        <ele>113.6</ele>
        <time>2012-05-06T09:20:48.089Z</time>
      </trkpt>
      <trkpt lat="49.41503" lon="1.21897">
        <ele>114.2</ele>
        <time>2012-05-06T09:20:49.083Z</time>
      </trkpt>
      <trkpt lat="49.41505" lon="1.21884">
        <ele>114.2</ele>
        <time>2012-05-06T09:20:50.092Z</time>
      </trkpt>
      <trkpt lat="49.41506" lon="1.21872">
        <ele>114.4</ele>
        <time>2012-05-06T09:20:51.076Z</time>
      </trkpt>
      <trkpt lat="49.41507" lon="1.21857">
        <ele>114.5</ele>
        <time>2012-05-06T09:20:52.090Z</time>
      </trkpt>
      <trkpt lat="49.41507" lon="1.21844">
        <ele>114.6</ele>
        <time>2012-05-06T09:20:53.081Z</time>
      </trkpt>
      <trkpt lat="49.41506" lon="1.21831">
        <ele>114.3</ele>
        <time>2012-05-06T09:20:54.090Z</time>
      </trkpt>
      <trkpt lat="49.41506" lon="1.21818">
        <ele>114</ele>
        <time>2012-05-06T09:20:55.081Z</time>
      </trkpt>
      <trkpt lat="49.41504" lon="1.21804">
        <ele>114.3</ele>
        <time>2012-05-06T09:20:56.075Z</time>
      </trkpt>
      <trkpt lat="49.41503" lon="1.21791">
        <ele>114</ele>
        <time>2012-05-06T09:20:57.095Z</time>
      </trkpt>
      <trkpt lat="49.415" lon="1.21778">
        <ele>114</ele>
        <time>2012-05-06T09:20:58.093Z</time>
      </trkpt>
      <trkpt lat="49.41497" lon="1.21766">
        <ele>114.1</ele>
        <time>2012-05-06T09:20:59.094Z</time>
      </trkpt>
      <trkpt lat="49.41493" lon="1.21753">
        <ele>114.5</ele>
        <time>2012-05-06T09:21:00.095Z</time>
      </trkpt>
      <trkpt lat="49.41489" lon="1.2174">
        <ele>114.4</ele>
        <time>2012-05-06T09:21:01.094Z</time>
      </trkpt>
      <trkpt lat="49.41484" lon="1.21728">
        <ele>114.6</ele>
        <time>2012-05-06T09:21:02.096Z</time>
      </trkpt>
      <trkpt lat="49.4148" lon="1.21715">
        <ele>115</ele>
        <time>2012-05-06T09:21:03.093Z</time>
      </trkpt>
      <trkpt lat="49.41475" lon="1.21703">
        <ele>115.5</ele>
        <time>2012-05-06T09:21:04.089Z</time>
      </trkpt>
      <trkpt lat="49.4147" lon="1.21692">
        <ele>115.8</ele>
        <time>2012-05-06T09:21:05.083Z</time>
      </trkpt>
      <trkpt lat="49.41466" lon="1.21679">
        <ele>115.5</ele>
        <time>2012-05-06T09:21:06.090Z</time>
      </trkpt>
      <trkpt lat="49.41462" lon="1.21667">
        <ele>115.5</ele>
        <time>2012-05-06T09:21:07.085Z</time>
      </trkpt>
      <trkpt lat="49.41458" lon="1.21655">
        <ele>115.1</ele>
        <time>2012-05-06T09:21:08.088Z</time>
      </trkpt>
      <trkpt lat="49.41455" lon="1.21642">
        <ele>114.8</ele>
        <time>2012-05-06T09:21:09.086Z</time>
      </trkpt>
      <trkpt lat="49.41452" lon="1.2163">
        <ele>114.2</ele>
        <time>2012-05-06T09:21:10.079Z</time>
      </trkpt>
      <trkpt lat="49.41449" lon="1.21618">
        <ele>113.9</ele>
        <time>2012-05-06T09:21:11.080Z</time>
      </trkpt>
      <trkpt lat="49.41447" lon="1.21604">
        <ele>114</ele>
        <time>2012-05-06T09:21:12.083Z</time>
      </trkpt>
      <trkpt lat="49.41445" lon="1.2159">
        <ele>113.9</ele>
        <time>2012-05-06T09:21:13.083Z</time>
      </trkpt>
      <trkpt lat="49.41443" lon="1.21577">
        <ele>113.6</ele>
        <time>2012-05-06T09:21:14.083Z</time>
      </trkpt>
      <trkpt lat="49.41442" lon="1.21564">
        <ele>113.8</ele>
        <time>2012-05-06T09:21:15.083Z</time>
      </trkpt>
      <trkpt lat="49.4144" lon="1.2155">
        <ele>113.8</ele>
        <time>2012-05-06T09:21:16.083Z</time>
      </trkpt>
      <trkpt lat="49.4144" lon="1.21537">
        <ele>114.2</ele>
        <time>2012-05-06T09:21:17.083Z</time>
      </trkpt>
      <trkpt lat="49.41438" lon="1.21522">
        <ele>113.9</ele>
        <time>2012-05-06T09:21:18.084Z</time>
      </trkpt>
      <trkpt lat="49.41438" lon="1.21509">
        <ele>114.2</ele>
        <time>2012-05-06T09:21:19.083Z</time>
      </trkpt>
      <trkpt lat="49.41436" lon="1.21494">
        <ele>114.3</ele>
        <time>2012-05-06T09:21:20.094Z</time>
      </trkpt>
      <trkpt lat="49.41436" lon="1.2148">
        <ele>113.9</ele>
        <time>2012-05-06T09:21:21.090Z</time>
      </trkpt>
      <trkpt lat="49.41435" lon="1.21466">
        <ele>114.5</ele>
        <time>2012-05-06T09:21:22.087Z</time>
      </trkpt>
      <trkpt lat="49.41434" lon="1.21451">
        <ele>114.7</ele>
        <time>2012-05-06T09:21:23.089Z</time>
      </trkpt>
      <trkpt lat="49.41434" lon="1.21438">
        <ele>115.1</ele>
        <time>2012-05-06T09:21:24.082Z</time>
      </trkpt>
      <trkpt lat="49.41434" lon="1.21423">
        <ele>114.3</ele>
        <time>2012-05-06T09:21:25.090Z</time>
      </trkpt>
      <trkpt lat="49.41435" lon="1.21409">
        <ele>113.9</ele>
        <time>2012-05-06T09:21:26.073Z</time>
      </trkpt>
      <trkpt lat="49.41436" lon="1.21394">
        <ele>113.9</ele>
        <time>2012-05-06T09:21:27.080Z</time>
      </trkpt>
      <trkpt lat="49.41437" lon="1.2138">
        <ele>113.8</ele>
        <time>2012-05-06T09:21:28.075Z</time>
      </trkpt>
      <trkpt lat="49.4144" lon="1.21367">
        <ele>113.8</ele>
        <time>2012-05-06T09:21:29.091Z</time>
      </trkpt>
      <trkpt lat="49.41442" lon="1.21353">
        <ele>113.9</ele>
        <time>2012-05-06T09:21:30.094Z</time>
      </trkpt>
      <trkpt lat="49.41445" lon="1.2134">
        <ele>114</ele>
        <time>2012-05-06T09:21:31.102Z</time>
      </trkpt>
      <trkpt lat="49.41448" lon="1.21327">
        <ele>114.3</ele>
        <time>2012-05-06T09:21:32.080Z</time>
      </trkpt>
      <trkpt lat="49.4145" lon="1.21314">
        <ele>114.7</ele>
        <time>2012-05-06T09:21:33.083Z</time>
      </trkpt>
      <trkpt lat="49.41453" lon="1.21301">
        <ele>114.6</ele>
        <time>2012-05-06T09:21:34.092Z</time>
      </trkpt>
      <trkpt lat="49.41456" lon="1.21288">
        <ele>114.4</ele>
        <time>2012-05-06T09:21:35.091Z</time>
      </trkpt>
      <trkpt lat="49.41458" lon="1.21275">
        <ele>114.5</ele>
        <time>2012-05-06T09:21:36.091Z</time>
      </trkpt>
      <trkpt lat="49.4146" lon="1.21262">
        <ele>114.6</ele>
        <time>2012-05-06T09:21:37.091Z</time>
      </trkpt>
      <trkpt lat="49.41463" lon="1.21248">
        <ele>115.3</ele>
        <time>2012-05-06T09:21:38.091Z</time>
      </trkpt>
      <trkpt lat="49.41466" lon="1.21236">
        <ele>115.4</ele>
        <time>2012-05-06T09:21:39.091Z</time>
      </trkpt>
      <trkpt lat="49.41469" lon="1.21224">
        <ele>115.6</ele>
        <time>2012-05-06T09:21:40.091Z</time>
      </trkpt>
      <trkpt lat="49.41474" lon="1.21197">
        <ele>115.4</ele>
        <time>2012-05-06T09:21:42.422Z</time>
      </trkpt>
      <trkpt lat="49.41477" lon="1.21188">
        <ele>115.1</ele>
        <time>2012-05-06T09:21:43.422Z</time>
      </trkpt>
      <trkpt lat="49.41479" lon="1.21179">
        <ele>114.4</ele>
        <time>2012-05-06T09:21:45.091Z</time>
      </trkpt>
      <trkpt lat="49.4148" lon="1.21172">
        <ele>113.9</ele>
        <time>2012-05-06T09:21:46.093Z</time>
      </trkpt>
      <trkpt lat="49.41475" lon="1.21169">
        <ele>114.4</ele>
        <time>2012-05-06T09:21:47.081Z</time>
      </trkpt>
      <trkpt lat="49.41469" lon="1.21164">
        <ele>114.8</ele>
        <time>2012-05-06T09:21:49.092Z</time>
      </trkpt>
      <trkpt lat="49.41463" lon="1.21164">
        <ele>115.5</ele>
        <time>2012-05-06T09:21:51.081Z</time>
      </trkpt>
      <trkpt lat="49.41457" lon="1.21162">
        <ele>116.1</ele>
        <time>2012-05-06T09:21:53.092Z</time>
      </trkpt>
      <trkpt lat="49.41451" lon="1.21161">
        <ele>117.5</ele>
        <time>2012-05-06T09:21:55.084Z</time>
      </trkpt>
      <trkpt lat="49.41445" lon="1.21159">
        <ele>118.1</ele>
        <time>2012-05-06T09:21:57.092Z</time>
      </trkpt>
      <trkpt lat="49.4144" lon="1.21158">
        <ele>119.5</ele>
        <time>2012-05-06T09:21:59.095Z</time>
      </trkpt>
      <trkpt lat="49.41435" lon="1.21158">
        <ele>119.6</ele>
        <time>2012-05-06T09:22:01.078Z</time>
      </trkpt>
      <trkpt lat="49.41428" lon="1.21158">
        <ele>120.2</ele>
        <time>2012-05-06T09:22:03.240Z</time>
      </trkpt>
      <trkpt lat="49.41423" lon="1.21156">
        <ele>120.9</ele>
        <time>2012-05-06T09:22:05.240Z</time>
      </trkpt>
      <trkpt lat="49.41417" lon="1.21155">
        <ele>122</ele>
        <time>2012-05-06T09:22:07.240Z</time>
      </trkpt>
      <trkpt lat="49.41412" lon="1.21156">
        <ele>122.8</ele>
        <time>2012-05-06T09:22:09.240Z</time>
      </trkpt>
      <trkpt lat="49.41407" lon="1.21161">
        <ele>123.7</ele>
        <time>2012-05-06T09:22:11.240Z</time>
      </trkpt>
      <trkpt lat="49.41402" lon="1.21169">
        <ele>124.3</ele>
        <time>2012-05-06T09:22:14.240Z</time>
      </trkpt>
      <trkpt lat="49.41403" lon="1.21177">
        <ele>124.8</ele>
        <time>2012-05-06T09:22:16.925Z</time>
      </trkpt>
      <trkpt lat="49.41407" lon="1.21181">
        <ele>125.6</ele>
        <time>2012-05-06T09:22:19.089Z</time>
      </trkpt>
      <trkpt lat="49.41404" lon="1.2119">
        <ele>126.5</ele>
        <time>2012-05-06T09:22:21.090Z</time>
      </trkpt>
      <trkpt lat="49.41405" lon="1.21201">
        <ele>127.2</ele>
        <time>2012-05-06T09:22:23.090Z</time>
      </trkpt>
      <trkpt lat="49.41404" lon="1.21209">
        <ele>127.4</ele>
        <time>2012-05-06T09:22:25.087Z</time>
      </trkpt>
      <trkpt lat="49.41405" lon="1.21219">
        <ele>128.8</ele>
        <time>2012-05-06T09:22:27.086Z</time>
      </trkpt>
      <trkpt lat="49.41406" lon="1.21228">
        <ele>129.3</ele>
        <time>2012-05-06T09:22:29.087Z</time>
      </trkpt>
      <trkpt lat="49.41405" lon="1.21237">
        <ele>130.5</ele>
        <time>2012-05-06T09:22:31.088Z</time>
      </trkpt>
      <trkpt lat="49.41405" lon="1.21246">
        <ele>130.9</ele>
        <time>2012-05-06T09:22:33.088Z</time>
      </trkpt>
      <trkpt lat="49.41404" lon="1.21254">
        <ele>132.2</ele>
        <time>2012-05-06T09:22:35.128Z</time>
      </trkpt>
      <trkpt lat="49.41404" lon="1.21262">
        <ele>132.9</ele>
        <time>2012-05-06T09:22:37.087Z</time>
      </trkpt>
      <trkpt lat="49.41403" lon="1.2127">
        <ele>133.5</ele>
        <time>2012-05-06T09:22:39.088Z</time>
      </trkpt>
      <trkpt lat="49.41402" lon="1.21284">
        <ele>134.6</ele>
        <time>2012-05-06T09:22:42.358Z</time>
      </trkpt>
      <trkpt lat="49.41401" lon="1.21291">
        <ele>134.6</ele>
        <time>2012-05-06T09:22:43.847Z</time>
      </trkpt>
      <trkpt lat="49.414" lon="1.213">
        <ele>135.6</ele>
        <time>2012-05-06T09:22:46.098Z</time>
      </trkpt>
      <trkpt lat="49.41398" lon="1.21309">
        <ele>137</ele>
        <time>2012-05-06T09:22:49.093Z</time>
      </trkpt>
      <trkpt lat="49.41395" lon="1.21317">
        <ele>137.8</ele>
        <time>2012-05-06T09:22:53.091Z</time>
      </trkpt>
      <trkpt lat="49.41396" lon="1.21324">
        <ele>139.4</ele>
        <time>2012-05-06T09:22:56.081Z</time>
      </trkpt>
      <trkpt lat="49.41393" lon="1.21331">
        <ele>139.8</ele>
        <time>2012-05-06T09:22:58.093Z</time>
      </trkpt>
      <trkpt lat="49.4139" lon="1.21341">
        <ele>138.8</ele>
        <time>2012-05-06T09:23:01.088Z</time>
      </trkpt>
      <trkpt lat="49.4139" lon="1.21348">
        <ele>144.8</ele>
        <time>2012-05-06T09:23:05.094Z</time>
      </trkpt>
      <trkpt lat="49.41394" lon="1.21355">
        <ele>151.1</ele>
        <time>2012-05-06T09:23:10.091Z</time>
      </trkpt>
      <trkpt lat="49.4139" lon="1.21364">
        <ele>151</ele>
        <time>2012-05-06T09:23:12.093Z</time>
      </trkpt>
      <trkpt lat="49.41387" lon="1.2137">
        <ele>154.8</ele>
        <time>2012-05-06T09:23:16.094Z</time>
      </trkpt>
      <trkpt lat="49.41384" lon="1.21376">
        <ele>154.6</ele>
        <time>2012-05-06T09:23:22.077Z</time>
      </trkpt>
      <trkpt lat="49.41385" lon="1.21383">
        <ele>154.7</ele>
        <time>2012-05-06T09:23:25.092Z</time>
      </trkpt>
      <trkpt lat="49.41384" lon="1.2139">
        <ele>155.7</ele>
        <time>2012-05-06T09:23:30.088Z</time>
      </trkpt>
      <trkpt lat="49.4138" lon="1.21397">
        <ele>155</ele>
        <time>2012-05-06T09:23:34.089Z</time>
      </trkpt>
      <trkpt lat="49.41378" lon="1.21404">
        <ele>155.2</ele>
        <time>2012-05-06T09:23:38.090Z</time>
      </trkpt>
      <trkpt lat="49.41374" lon="1.21403">
        <ele>151.9</ele>
        <time>2012-05-06T09:23:47.077Z</time>
      </trkpt>
      <trkpt lat="49.41369" lon="1.21404">
        <ele>152.6</ele>
        <time>2012-05-06T09:23:59.096Z</time>
      </trkpt>
      <trkpt lat="49.41366" lon="1.21411">
        <ele>152.7</ele>
        <time>2012-05-06T09:24:03.093Z</time>
      </trkpt>
      <trkpt lat="49.41363" lon="1.21419">
        <ele>153.9</ele>
        <time>2012-05-06T09:24:09.093Z</time>
      </trkpt>
      <trkpt lat="49.41363" lon="1.21426">
        <ele>159</ele>
        <time>2012-05-06T09:24:15.095Z</time>
      </trkpt>
      <trkpt lat="49.41362" lon="1.21434">
        <ele>165.2</ele>
        <time>2012-05-06T09:24:22.100Z</time>
      </trkpt>
      <trkpt lat="49.4136" lon="1.21441">
        <ele>164.4</ele>
        <time>2012-05-06T09:24:26.097Z</time>
      </trkpt>
      <trkpt lat="49.41361" lon="1.21448">
        <ele>162.7</ele>
        <time>2012-05-06T09:24:37.109Z</time>
      </trkpt>
      <trkpt lat="49.4136" lon="1.21455">
        <ele>155.3</ele>
        <time>2012-05-06T09:25:14.084Z</time>
      </trkpt>
      <trkpt lat="49.41362" lon="1.21462">
        <ele>152.9</ele>
        <time>2012-05-06T09:25:21.092Z</time>
      </trkpt>
      <trkpt lat="49.4136" lon="1.2147">
        <ele>155.2</ele>
        <time>2012-05-06T09:25:29.093Z</time>
      </trkpt>
      <trkpt lat="49.41357" lon="1.21475">
        <ele>158</ele>
        <time>2012-05-06T09:25:39.095Z</time>
      </trkpt>
      <trkpt lat="49.41351" lon="1.21477">
        <ele>157</ele>
        <time>2012-05-06T09:25:42.377Z</time>
      </trkpt>
      <trkpt lat="49.41345" lon="1.21476">
        <ele>154.5</ele>
        <time>2012-05-06T09:25:45.087Z</time>
      </trkpt>
      <trkpt lat="49.41339" lon="1.21474">
        <ele>153.4</ele>
        <time>2012-05-06T09:25:49.089Z</time>
      </trkpt>
      <trkpt lat="49.41335" lon="1.21471">
        <ele>152</ele>
        <time>2012-05-06T09:25:52.092Z</time>
      </trkpt>
      <trkpt lat="49.41329" lon="1.21466">
        <ele>151.1</ele>
        <time>2012-05-06T09:25:57.089Z</time>
      </trkpt>
      <trkpt lat="49.41326" lon="1.21461">
        <ele>150.5</ele>
        <time>2012-05-06T09:26:00.077Z</time>
      </trkpt>
      <trkpt lat="49.41322" lon="1.21456">
        <ele>151</ele>
        <time>2012-05-06T09:26:03.102Z</time>
      </trkpt>
      <trkpt lat="49.41318" lon="1.2145">
        <ele>151.2</ele>
        <time>2012-05-06T09:26:06.092Z</time>
      </trkpt>
      <trkpt lat="49.41314" lon="1.21445">
        <ele>151.5</ele>
        <time>2012-05-06T09:26:08.091Z</time>
      </trkpt>
      <trkpt lat="49.41309" lon="1.21438">
        <ele>152.3</ele>
        <time>2012-05-06T09:26:11.079Z</time>
      </trkpt>
      <trkpt lat="49.41306" lon="1.21433">
        <ele>152.4</ele>
        <time>2012-05-06T09:26:13.088Z</time>
      </trkpt>
      <trkpt lat="49.41303" lon="1.21427">
        <ele>152.9</ele>
        <time>2012-05-06T09:26:15.091Z</time>
      </trkpt>
      <trkpt lat="49.413" lon="1.21422">
        <ele>153.2</ele>
        <time>2012-05-06T09:26:17.094Z</time>
      </trkpt>
      <trkpt lat="49.41296" lon="1.21417">
        <ele>153.1</ele>
        <time>2012-05-06T09:26:19.090Z</time>
      </trkpt>
      <trkpt lat="49.4129" lon="1.21414">
        <ele>154.4</ele>
        <time>2012-05-06T09:26:22.092Z</time>
      </trkpt>
      <trkpt lat="49.41285" lon="1.21411">
        <ele>155.4</ele>
        <time>2012-05-06T09:26:25.092Z</time>
      </trkpt>
      <trkpt lat="49.41278" lon="1.2141">
        <ele>155.6</ele>
        <time>2012-05-06T09:26:28.087Z</time>
      </trkpt>
      <trkpt lat="49.41272" lon="1.21408">
        <ele>156</ele>
        <time>2012-05-06T09:26:31.078Z</time>
      </trkpt>
      <trkpt lat="49.41266" lon="1.21406">
        <ele>155.8</ele>
        <time>2012-05-06T09:26:34.090Z</time>
      </trkpt>
      <trkpt lat="49.41259" lon="1.21403">
        <ele>156.7</ele>
        <time>2012-05-06T09:26:37.081Z</time>
      </trkpt>
      <trkpt lat="49.41253" lon="1.21404">
        <ele>157.3</ele>
        <time>2012-05-06T09:26:40.089Z</time>
      </trkpt>
      <trkpt lat="49.41248" lon="1.21402">
        <ele>158</ele>
        <time>2012-05-06T09:26:42.416Z</time>
      </trkpt>
      <trkpt lat="49.41242" lon="1.21399">
        <ele>158.5</ele>
        <time>2012-05-06T09:26:45.077Z</time>
      </trkpt>
      <trkpt lat="49.41238" lon="1.21398">
        <ele>158.6</ele>
        <time>2012-05-06T09:26:47.089Z</time>
      </trkpt>
      <trkpt lat="49.41232" lon="1.21397">
        <ele>159.6</ele>
        <time>2012-05-06T09:26:50.087Z</time>
      </trkpt>
      <trkpt lat="49.41226" lon="1.21397">
        <ele>159.7</ele>
        <time>2012-05-06T09:26:52.194Z</time>
      </trkpt>
      <trkpt lat="49.41222" lon="1.21396">
        <ele>160.9</ele>
        <time>2012-05-06T09:26:54.093Z</time>
      </trkpt>
      <trkpt lat="49.41216" lon="1.21392">
        <ele>161.4</ele>
        <time>2012-05-06T09:26:57.099Z</time>
      </trkpt>
      <trkpt lat="49.41211" lon="1.2139">
        <ele>161.6</ele>
        <time>2012-05-06T09:27:00.096Z</time>
      </trkpt>
      <trkpt lat="49.41205" lon="1.21387">
        <ele>162.8</ele>
        <time>2012-05-06T09:27:03.098Z</time>
      </trkpt>
      <trkpt lat="49.41199" lon="1.21384">
        <ele>163.4</ele>
        <time>2012-05-06T09:27:06.092Z</time>
      </trkpt>
      <trkpt lat="49.41193" lon="1.21383">
        <ele>164.1</ele>
        <time>2012-05-06T09:27:09.092Z</time>
      </trkpt>
      <trkpt lat="49.41187" lon="1.2138">
        <ele>164.2</ele>
        <time>2012-05-06T09:27:12.092Z</time>
      </trkpt>
      <trkpt lat="49.41182" lon="1.2138">
        <ele>165.2</ele>
        <time>2012-05-06T09:27:14.092Z</time>
      </trkpt>
      <trkpt lat="49.41176" lon="1.21378">
        <ele>165.5</ele>
        <time>2012-05-06T09:27:17.094Z</time>
      </trkpt>
      <trkpt lat="49.41171" lon="1.21374">
        <ele>166.6</ele>
        <time>2012-05-06T09:27:20.093Z</time>
      </trkpt>
      <trkpt lat="49.41167" lon="1.21371">
        <ele>167.1</ele>
        <time>2012-05-06T09:27:23.093Z</time>
      </trkpt>
      <trkpt lat="49.41161" lon="1.21369">
        <ele>168.6</ele>
        <time>2012-05-06T09:27:26.091Z</time>
      </trkpt>
      <trkpt lat="49.41156" lon="1.21366">
        <ele>168.7</ele>
        <time>2012-05-06T09:27:29.090Z</time>
      </trkpt>
      <trkpt lat="49.4115" lon="1.21363">
        <ele>169.4</ele>
        <time>2012-05-06T09:27:32.092Z</time>
      </trkpt>
      <trkpt lat="49.41145" lon="1.21366">
        <ele>170.2</ele>
        <time>2012-05-06T09:27:34.077Z</time>
      </trkpt>
      <trkpt lat="49.4114" lon="1.21369">
        <ele>170.4</ele>
        <time>2012-05-06T09:27:36.077Z</time>
      </trkpt>
      <trkpt lat="49.41134" lon="1.21372">
        <ele>170.6</ele>
        <time>2012-05-06T09:27:39.106Z</time>
      </trkpt>
      <trkpt lat="49.41127" lon="1.21376">
        <ele>171.4</ele>
        <time>2012-05-06T09:27:42.511Z</time>
      </trkpt>
      <trkpt lat="49.4112" lon="1.2138">
        <ele>169.9</ele>
        <time>2012-05-06T09:27:46.080Z</time>
      </trkpt>
      <trkpt lat="49.41116" lon="1.21383">
        <ele>169.3</ele>
        <time>2012-05-06T09:27:48.080Z</time>
      </trkpt>
      <trkpt lat="49.4111" lon="1.21385">
        <ele>169.7</ele>
        <time>2012-05-06T09:27:50.079Z</time>
      </trkpt>
      <trkpt lat="49.41105" lon="1.21387">
        <ele>168.9</ele>
        <time>2012-05-06T09:27:52.091Z</time>
      </trkpt>
      <trkpt lat="49.41101" lon="1.21391">
        <ele>169.4</ele>
        <time>2012-05-06T09:27:54.089Z</time>
      </trkpt>
      <trkpt lat="49.41095" lon="1.21394">
        <ele>168.8</ele>
        <time>2012-05-06T09:27:56.089Z</time>
      </trkpt>
      <trkpt lat="49.4109" lon="1.21396">
        <ele>169.5</ele>
        <time>2012-05-06T09:27:58.089Z</time>
      </trkpt>
      <trkpt lat="49.41083" lon="1.21399">
        <ele>170.1</ele>
        <time>2012-05-06T09:28:01.092Z</time>
      </trkpt>
      <trkpt lat="49.41077" lon="1.214">
        <ele>170.9</ele>
        <time>2012-05-06T09:28:03.092Z</time>
      </trkpt>
      <trkpt lat="49.4107" lon="1.21402">
        <ele>173.2</ele>
        <time>2012-05-06T09:28:06.088Z</time>
      </trkpt>
      <trkpt lat="49.41065" lon="1.21403">
        <ele>173.4</ele>
        <time>2012-05-06T09:28:08.087Z</time>
      </trkpt>
      <trkpt lat="49.41059" lon="1.21405">
        <ele>173.1</ele>
        <time>2012-05-06T09:28:10.085Z</time>
      </trkpt>
      <trkpt lat="49.41053" lon="1.21407">
        <ele>172.3</ele>
        <time>2012-05-06T09:28:12.089Z</time>
      </trkpt>
      <trkpt lat="49.41047" lon="1.21409">
        <ele>172.8</ele>
        <time>2012-05-06T09:28:14.084Z</time>
      </trkpt>
      <trkpt lat="49.4104" lon="1.21411">
        <ele>173.9</ele>
        <time>2012-05-06T09:28:16.084Z</time>
      </trkpt>
      <trkpt lat="49.41034" lon="1.21411">
        <ele>176.7</ele>
        <time>2012-05-06T09:28:18.085Z</time>
      </trkpt>
      <trkpt lat="49.41028" lon="1.21412">
        <ele>176.6</ele>
        <time>2012-05-06T09:28:20.093Z</time>
      </trkpt>
      <trkpt lat="49.41024" lon="1.21413">
        <ele>175.1</ele>
        <time>2012-05-06T09:28:22.083Z</time>
      </trkpt>
      <trkpt lat="49.41019" lon="1.21414">
        <ele>175.2</ele>
        <time>2012-05-06T09:28:24.097Z</time>
      </trkpt>
      <trkpt lat="49.41014" lon="1.21415">
        <ele>175.6</ele>
        <time>2012-05-06T09:28:26.085Z</time>
      </trkpt>
      <trkpt lat="49.41008" lon="1.21412">
        <ele>175.9</ele>
        <time>2012-05-06T09:28:28.088Z</time>
      </trkpt>
      <trkpt lat="49.41001" lon="1.21415">
        <ele>177</ele>
        <time>2012-05-06T09:28:31.093Z</time>
      </trkpt>
      <trkpt lat="49.40993" lon="1.21413">
        <ele>183.4</ele>
        <time>2012-05-06T09:28:33.081Z</time>
      </trkpt>
      <trkpt lat="49.40988" lon="1.21413">
        <ele>183.5</ele>
        <time>2012-05-06T09:28:34.101Z</time>
      </trkpt>
      <trkpt lat="49.40982" lon="1.21414">
        <ele>183.7</ele>
        <time>2012-05-06T09:28:36.082Z</time>
      </trkpt>
      <trkpt lat="49.40975" lon="1.21415">
        <ele>183.6</ele>
        <time>2012-05-06T09:28:38.090Z</time>
      </trkpt>
      <trkpt lat="49.40969" lon="1.21416">
        <ele>183.3</ele>
        <time>2012-05-06T09:28:40.076Z</time>
      </trkpt>
      <trkpt lat="49.40963" lon="1.21415">
        <ele>183.1</ele>
        <time>2012-05-06T09:28:42.182Z</time>
      </trkpt>
      <trkpt lat="49.40958" lon="1.21415">
        <ele>182.2</ele>
        <time>2012-05-06T09:28:43.610Z</time>
      </trkpt>
      <trkpt lat="49.40952" lon="1.21412">
        <ele>183.2</ele>
        <time>2012-05-06T09:28:46.093Z</time>
      </trkpt>
      <trkpt lat="49.40948" lon="1.21411">
        <ele>182.9</ele>
        <time>2012-05-06T09:28:48.096Z</time>
      </trkpt>
      <trkpt lat="49.40942" lon="1.2141">
        <ele>183</ele>
        <time>2012-05-06T09:28:50.090Z</time>
      </trkpt>
      <trkpt lat="49.40936" lon="1.21411">
        <ele>183</ele>
        <time>2012-05-06T09:28:52.092Z</time>
      </trkpt>
      <trkpt lat="49.4093" lon="1.21411">
        <ele>183</ele>
        <time>2012-05-06T09:28:54.095Z</time>
      </trkpt>
      <trkpt lat="49.40924" lon="1.2141">
        <ele>184.8</ele>
        <time>2012-05-06T09:28:56.094Z</time>
      </trkpt>
      <trkpt lat="49.40918" lon="1.2141">
        <ele>185.1</ele>
        <time>2012-05-06T09:28:58.092Z</time>
      </trkpt>
      <trkpt lat="49.40912" lon="1.2141">
        <ele>184.7</ele>
        <time>2012-05-06T09:29:00.092Z</time>
      </trkpt>
      <trkpt lat="49.40906" lon="1.21408">
        <ele>183.5</ele>
        <time>2012-05-06T09:29:02.093Z</time>
      </trkpt>
      <trkpt lat="49.40901" lon="1.21408">
        <ele>182.4</ele>
        <time>2012-05-06T09:29:04.093Z</time>
      </trkpt>
      <trkpt lat="49.40896" lon="1.21409">
        <ele>182.5</ele>
        <time>2012-05-06T09:29:06.096Z</time>
      </trkpt>
      <trkpt lat="49.40891" lon="1.21407">
        <ele>183.6</ele>
        <time>2012-05-06T09:29:08.079Z</time>
      </trkpt>
      <trkpt lat="49.40886" lon="1.21407">
        <ele>183.5</ele>
        <time>2012-05-06T09:29:10.092Z</time>
      </trkpt>
      <trkpt lat="49.40881" lon="1.21406">
        <ele>182.8</ele>
        <time>2012-05-06T09:29:12.090Z</time>
      </trkpt>
      <trkpt lat="49.40874" lon="1.21407">
        <ele>184.7</ele>
        <time>2012-05-06T09:29:14.094Z</time>
      </trkpt>
      <trkpt lat="49.40869" lon="1.21406">
        <ele>184.2</ele>
        <time>2012-05-06T09:29:16.086Z</time>
      </trkpt>
      <trkpt lat="49.40862" lon="1.21406">
        <ele>185.2</ele>
        <time>2012-05-06T09:29:18.090Z</time>
      </trkpt>
      <trkpt lat="49.40856" lon="1.21406">
        <ele>185.5</ele>
        <time>2012-05-06T09:29:20.076Z</time>
      </trkpt>
      <trkpt lat="49.4085" lon="1.21406">
        <ele>186.2</ele>
        <time>2012-05-06T09:29:22.093Z</time>
      </trkpt>
      <trkpt lat="49.40844" lon="1.21406">
        <ele>186.4</ele>
        <time>2012-05-06T09:29:24.092Z</time>
      </trkpt>
      <trkpt lat="49.40837" lon="1.21407">
        <ele>187.1</ele>
        <time>2012-05-06T09:29:26.083Z</time>
      </trkpt>
      <trkpt lat="49.40831" lon="1.21407">
        <ele>188.6</ele>
        <time>2012-05-06T09:29:28.092Z</time>
      </trkpt>
      <trkpt lat="49.40824" lon="1.21406">
        <ele>188.8</ele>
        <time>2012-05-06T09:29:30.080Z</time>
      </trkpt>
      <trkpt lat="49.40819" lon="1.21405">
        <ele>188</ele>
        <time>2012-05-06T09:29:32.092Z</time>
      </trkpt>
      <trkpt lat="49.40812" lon="1.21404">
        <ele>188</ele>
        <time>2012-05-06T09:29:34.089Z</time>
      </trkpt>
      <trkpt lat="49.40806" lon="1.21405">
        <ele>188.7</ele>
        <time>2012-05-06T09:29:36.086Z</time>
      </trkpt>
      <trkpt lat="49.40801" lon="1.21406">
        <ele>188.6</ele>
        <time>2012-05-06T09:29:38.097Z</time>
      </trkpt>
      <trkpt lat="49.40795" lon="1.21407">
        <ele>188.9</ele>
        <time>2012-05-06T09:29:40.075Z</time>
      </trkpt>
      <trkpt lat="49.40788" lon="1.21407">
        <ele>188.6</ele>
        <time>2012-05-06T09:29:42.330Z</time>
      </trkpt>
      <trkpt lat="49.40783" lon="1.21408">
        <ele>188</ele>
        <time>2012-05-06T09:29:43.796Z</time>
      </trkpt>
      <trkpt lat="49.40778" lon="1.21408">
        <ele>188.2</ele>
        <time>2012-05-06T09:29:45.090Z</time>
      </trkpt>
      <trkpt lat="49.40773" lon="1.2141">
        <ele>188</ele>
        <time>2012-05-06T09:29:47.090Z</time>
      </trkpt>
      <trkpt lat="49.40767" lon="1.21409">
        <ele>187.5</ele>
        <time>2012-05-06T09:29:49.079Z</time>
      </trkpt>
      <trkpt lat="49.40762" lon="1.21407">
        <ele>188.6</ele>
        <time>2012-05-06T09:29:50.089Z</time>
      </trkpt>
      <trkpt lat="49.40754" lon="1.21408">
        <ele>189</ele>
        <time>2012-05-06T09:29:53.078Z</time>
      </trkpt>
      <trkpt lat="49.40748" lon="1.21409">
        <ele>189.7</ele>
        <time>2012-05-06T09:29:55.093Z</time>
      </trkpt>
      <trkpt lat="49.4074" lon="1.2141">
        <ele>188.5</ele>
        <time>2012-05-06T09:29:57.078Z</time>
      </trkpt>
      <trkpt lat="49.40734" lon="1.21411">
        <ele>188.7</ele>
        <time>2012-05-06T09:29:59.091Z</time>
      </trkpt>
      <trkpt lat="49.40726" lon="1.21412">
        <ele>188.4</ele>
        <time>2012-05-06T09:30:01.078Z</time>
      </trkpt>
      <trkpt lat="49.40719" lon="1.21412">
        <ele>188.3</ele>
        <time>2012-05-06T09:30:03.087Z</time>
      </trkpt>
      <trkpt lat="49.40711" lon="1.21413">
        <ele>186</ele>
        <time>2012-05-06T09:30:05.093Z</time>
      </trkpt>
      <trkpt lat="49.40704" lon="1.21412">
        <ele>184.8</ele>
        <time>2012-05-06T09:30:07.078Z</time>
      </trkpt>
      <trkpt lat="49.40697" lon="1.21413">
        <ele>184.9</ele>
        <time>2012-05-06T09:30:09.091Z</time>
      </trkpt>
      <trkpt lat="49.4069" lon="1.21412">
        <ele>185</ele>
        <time>2012-05-06T09:30:11.094Z</time>
      </trkpt>
      <trkpt lat="49.40682" lon="1.21412">
        <ele>184</ele>
        <time>2012-05-06T09:30:13.093Z</time>
      </trkpt>
      <trkpt lat="49.40675" lon="1.21412">
        <ele>184.6</ele>
        <time>2012-05-06T09:30:15.078Z</time>
      </trkpt>
      <trkpt lat="49.40667" lon="1.21415">
        <ele>183.8</ele>
        <time>2012-05-06T09:30:17.093Z</time>
      </trkpt>
      <trkpt lat="49.4066" lon="1.21413">
        <ele>184.3</ele>
        <time>2012-05-06T09:30:19.093Z</time>
      </trkpt>
      <trkpt lat="49.40654" lon="1.21412">
        <ele>184</ele>
        <time>2012-05-06T09:30:21.086Z</time>
      </trkpt>
      <trkpt lat="49.40648" lon="1.21412">
        <ele>183.5</ele>
        <time>2012-05-06T09:30:22.089Z</time>
      </trkpt>
      <trkpt lat="49.40642" lon="1.21409">
        <ele>183</ele>
        <time>2012-05-06T09:30:24.078Z</time>
      </trkpt>
      <trkpt lat="49.40635" lon="1.21408">
        <ele>183</ele>
        <time>2012-05-06T09:30:26.094Z</time>
      </trkpt>
      <trkpt lat="49.40627" lon="1.21405">
        <ele>183.5</ele>
        <time>2012-05-06T09:30:28.093Z</time>
      </trkpt>
      <trkpt lat="49.40622" lon="1.21403">
        <ele>183</ele>
        <time>2012-05-06T09:30:29.092Z</time>
      </trkpt>
      <trkpt lat="49.40614" lon="1.21401">
        <ele>184.1</ele>
        <time>2012-05-06T09:30:31.093Z</time>
      </trkpt>
      <trkpt lat="49.40608" lon="1.21398">
        <ele>183.7</ele>
        <time>2012-05-06T09:30:33.078Z</time>
      </trkpt>
      <trkpt lat="49.40601" lon="1.21397">
        <ele>184.7</ele>
        <time>2012-05-06T09:30:35.092Z</time>
      </trkpt>
      <trkpt lat="49.40595" lon="1.21395">
        <ele>184.8</ele>
        <time>2012-05-06T09:30:37.076Z</time>
      </trkpt>
      <trkpt lat="49.40587" lon="1.21391">
        <ele>185.9</ele>
        <time>2012-05-06T09:30:39.085Z</time>
      </trkpt>
      <trkpt lat="49.40577" lon="1.21382">
        <ele>186.5</ele>
        <time>2012-05-06T09:30:42.373Z</time>
      </trkpt>
      <trkpt lat="49.40571" lon="1.21377">
        <ele>186.9</ele>
        <time>2012-05-06T09:30:43.855Z</time>
      </trkpt>
      <trkpt lat="49.40563" lon="1.21373">
        <ele>186.8</ele>
        <time>2012-05-06T09:30:46.091Z</time>
      </trkpt>
      <trkpt lat="49.40556" lon="1.21369">
        <ele>187.4</ele>
        <time>2012-05-06T09:30:48.084Z</time>
      </trkpt>
      <trkpt lat="49.4055" lon="1.21363">
        <ele>188</ele>
        <time>2012-05-06T09:30:50.090Z</time>
      </trkpt>
      <trkpt lat="49.40545" lon="1.2136">
        <ele>187.9</ele>
        <time>2012-05-06T09:30:51.103Z</time>
      </trkpt>
      <trkpt lat="49.40538" lon="1.21355">
        <ele>189.4</ele>
        <time>2012-05-06T09:30:53.084Z</time>
      </trkpt>
      <trkpt lat="49.4053" lon="1.21349">
        <ele>190.7</ele>
        <time>2012-05-06T09:30:55.092Z</time>
      </trkpt>
      <trkpt lat="49.40524" lon="1.21344">
        <ele>190.2</ele>
        <time>2012-05-06T09:30:57.077Z</time>
      </trkpt>
      <trkpt lat="49.40516" lon="1.2134">
        <ele>191.8</ele>
        <time>2012-05-06T09:30:59.091Z</time>
      </trkpt>
      <trkpt lat="49.40508" lon="1.21334">
        <ele>192.9</ele>
        <time>2012-05-06T09:31:01.085Z</time>
      </trkpt>
      <trkpt lat="49.40503" lon="1.21331">
        <ele>193.1</ele>
        <time>2012-05-06T09:31:02.086Z</time>
      </trkpt>
      <trkpt lat="49.40498" lon="1.21328">
        <ele>193.2</ele>
        <time>2012-05-06T09:31:03.257Z</time>
      </trkpt>
      <trkpt lat="49.40492" lon="1.21325">
        <ele>193.3</ele>
        <time>2012-05-06T09:31:04.257Z</time>
      </trkpt>
      <trkpt lat="49.40488" lon="1.21321">
        <ele>193.6</ele>
        <time>2012-05-06T09:31:05.257Z</time>
      </trkpt>
      <trkpt lat="49.40484" lon="1.21318">
        <ele>193.7</ele>
        <time>2012-05-06T09:31:06.257Z</time>
      </trkpt>
      <trkpt lat="49.40479" lon="1.21314">
        <ele>194.5</ele>
        <time>2012-05-06T09:31:07.257Z</time>
      </trkpt>
      <trkpt lat="49.40475" lon="1.21311">
        <ele>194.7</ele>
        <time>2012-05-06T09:31:08.257Z</time>
      </trkpt>
      <trkpt lat="49.4047" lon="1.21308">
        <ele>194.8</ele>
        <time>2012-05-06T09:31:09.257Z</time>
      </trkpt>
      <trkpt lat="49.40466" lon="1.21305">
        <ele>195.5</ele>
        <time>2012-05-06T09:31:10.257Z</time>
      </trkpt>
      <trkpt lat="49.40459" lon="1.213">
        <ele>195.8</ele>
        <time>2012-05-06T09:31:12.085Z</time>
      </trkpt>
      <trkpt lat="49.40451" lon="1.21295">
        <ele>196.2</ele>
        <time>2012-05-06T09:31:14.095Z</time>
      </trkpt>
      <trkpt lat="49.40446" lon="1.21292">
        <ele>195.5</ele>
        <time>2012-05-06T09:31:15.097Z</time>
      </trkpt>
      <trkpt lat="49.40441" lon="1.2129">
        <ele>195.1</ele>
        <time>2012-05-06T09:31:16.090Z</time>
      </trkpt>
      <trkpt lat="49.40437" lon="1.21287">
        <ele>195.4</ele>
        <time>2012-05-06T09:31:17.094Z</time>
      </trkpt>
      <trkpt lat="49.40428" lon="1.21282">
        <ele>195.6</ele>
        <time>2012-05-06T09:31:19.095Z</time>
      </trkpt>
      <trkpt lat="49.4042" lon="1.21277">
        <ele>195.7</ele>
        <time>2012-05-06T09:31:21.098Z</time>
      </trkpt>
      <trkpt lat="49.40415" lon="1.21274">
        <ele>195.6</ele>
        <time>2012-05-06T09:31:22.093Z</time>
      </trkpt>
      <trkpt lat="49.4041" lon="1.21272">
        <ele>195.9</ele>
        <time>2012-05-06T09:31:23.093Z</time>
      </trkpt>
      <trkpt lat="49.40406" lon="1.21268">
        <ele>195.9</ele>
        <time>2012-05-06T09:31:24.090Z</time>
      </trkpt>
      <trkpt lat="49.40401" lon="1.21265">
        <ele>195.9</ele>
        <time>2012-05-06T09:31:25.092Z</time>
      </trkpt>
      <trkpt lat="49.40396" lon="1.21262">
        <ele>196.2</ele>
        <time>2012-05-06T09:31:26.090Z</time>
      </trkpt>
      <trkpt lat="49.40391" lon="1.2126">
        <ele>196.1</ele>
        <time>2012-05-06T09:31:27.093Z</time>
      </trkpt>
      <trkpt lat="49.40386" lon="1.21257">
        <ele>196.3</ele>
        <time>2012-05-06T09:31:28.090Z</time>
      </trkpt>
      <trkpt lat="49.4038" lon="1.21254">
        <ele>195.7</ele>
        <time>2012-05-06T09:31:30.090Z</time>
      </trkpt>
      <trkpt lat="49.40374" lon="1.21251">
        <ele>195.9</ele>
        <time>2012-05-06T09:31:33.097Z</time>
      </trkpt>
      <trkpt lat="49.40367" lon="1.21248">
        <ele>196.1</ele>
        <time>2012-05-06T09:31:35.093Z</time>
      </trkpt>
      <trkpt lat="49.40359" lon="1.21242">
        <ele>197</ele>
        <time>2012-05-06T09:31:37.092Z</time>
      </trkpt>
      <trkpt lat="49.40354" lon="1.21239">
        <ele>197.3</ele>
        <time>2012-05-06T09:31:38.092Z</time>
      </trkpt>
      <trkpt lat="49.4035" lon="1.21236">
        <ele>197.4</ele>
        <time>2012-05-06T09:31:39.077Z</time>
      </trkpt>
      <trkpt lat="49.40345" lon="1.21233">
        <ele>197.6</ele>
        <time>2012-05-06T09:31:40.094Z</time>
      </trkpt>
      <trkpt lat="49.40333" lon="1.21226">
        <ele>197.5</ele>
        <time>2012-05-06T09:31:42.436Z</time>
      </trkpt>
      <trkpt lat="49.40328" lon="1.21224">
        <ele>197.4</ele>
        <time>2012-05-06T09:31:43.436Z</time>
      </trkpt>
      <trkpt lat="49.4032" lon="1.21219">
        <ele>196.9</ele>
        <time>2012-05-06T09:31:45.077Z</time>
      </trkpt>
      <trkpt lat="49.40315" lon="1.21215">
        <ele>197.1</ele>
        <time>2012-05-06T09:31:46.095Z</time>
      </trkpt>
      <trkpt lat="49.40309" lon="1.21211">
        <ele>196.7</ele>
        <time>2012-05-06T09:31:47.092Z</time>
      </trkpt>
      <trkpt lat="49.40304" lon="1.21208">
        <ele>197</ele>
        <time>2012-05-06T09:31:48.094Z</time>
      </trkpt>
      <trkpt lat="49.40298" lon="1.21204">
        <ele>197.2</ele>
        <time>2012-05-06T09:31:49.097Z</time>
      </trkpt>
      <trkpt lat="49.40292" lon="1.21201">
        <ele>197.2</ele>
        <time>2012-05-06T09:31:50.094Z</time>
      </trkpt>
      <trkpt lat="49.40286" lon="1.21198">
        <ele>196.6</ele>
        <time>2012-05-06T09:31:51.084Z</time>
      </trkpt>
      <trkpt lat="49.4028" lon="1.21195">
        <ele>196.6</ele>
        <time>2012-05-06T09:31:52.092Z</time>
      </trkpt>
      <trkpt lat="49.40274" lon="1.21192">
        <ele>196.2</ele>
        <time>2012-05-06T09:31:53.091Z</time>
      </trkpt>
      <trkpt lat="49.40268" lon="1.21188">
        <ele>196.4</ele>
        <time>2012-05-06T09:31:54.097Z</time>
      </trkpt>
      <trkpt lat="49.40262" lon="1.21185">
        <ele>196.5</ele>
        <time>2012-05-06T09:31:55.096Z</time>
      </trkpt>
      <trkpt lat="49.40256" lon="1.21182">
        <ele>195.9</ele>
        <time>2012-05-06T09:31:56.089Z</time>
      </trkpt>
      <trkpt lat="49.40249" lon="1.21179">
        <ele>195.8</ele>
        <time>2012-05-06T09:31:57.091Z</time>
      </trkpt>
      <trkpt lat="49.40243" lon="1.21175">
        <ele>195.1</ele>
        <time>2012-05-06T09:31:58.093Z</time>
      </trkpt>
      <trkpt lat="49.40236" lon="1.21172">
        <ele>195.4</ele>
        <time>2012-05-06T09:31:59.098Z</time>
      </trkpt>
      <trkpt lat="49.4023" lon="1.21169">
        <ele>195.7</ele>
        <time>2012-05-06T09:32:00.088Z</time>
      </trkpt>
      <trkpt lat="49.40223" lon="1.21165">
        <ele>195.4</ele>
        <time>2012-05-06T09:32:01.091Z</time>
      </trkpt>
      <trkpt lat="49.40216" lon="1.21162">
        <ele>195.3</ele>
        <time>2012-05-06T09:32:02.090Z</time>
      </trkpt>
      <trkpt lat="49.4021" lon="1.21159">
        <ele>195.4</ele>
        <time>2012-05-06T09:32:03.092Z</time>
      </trkpt>
      <trkpt lat="49.40203" lon="1.21157">
        <ele>195.3</ele>
        <time>2012-05-06T09:32:04.081Z</time>
      </trkpt>
      <trkpt lat="49.40196" lon="1.21157">
        <ele>195.4</ele>
        <time>2012-05-06T09:32:05.092Z</time>
      </trkpt>
      <trkpt lat="49.40189" lon="1.21156">
        <ele>195.1</ele>
        <time>2012-05-06T09:32:06.089Z</time>
      </trkpt>
      <trkpt lat="49.40182" lon="1.21156">
        <ele>194.9</ele>
        <time>2012-05-06T09:32:07.092Z</time>
      </trkpt>
      <trkpt lat="49.40176" lon="1.21155">
        <ele>194.7</ele>
        <time>2012-05-06T09:32:08.079Z</time>
      </trkpt>
      <trkpt lat="49.40169" lon="1.21154">
        <ele>194.9</ele>
        <time>2012-05-06T09:32:09.095Z</time>
      </trkpt>
      <trkpt lat="49.40162" lon="1.21153">
        <ele>194.9</ele>
        <time>2012-05-06T09:32:10.091Z</time>
      </trkpt>
      <trkpt lat="49.40156" lon="1.21152">
        <ele>194.5</ele>
        <time>2012-05-06T09:32:11.097Z</time>
      </trkpt>
      <trkpt lat="49.40149" lon="1.21151">
        <ele>194.6</ele>
        <time>2012-05-06T09:32:12.092Z</time>
      </trkpt>
      <trkpt lat="49.40143" lon="1.21151">
        <ele>194.9</ele>
        <time>2012-05-06T09:32:13.088Z</time>
      </trkpt>
      <trkpt lat="49.40136" lon="1.2115">
        <ele>194.7</ele>
        <time>2012-05-06T09:32:14.096Z</time>
      </trkpt>
      <trkpt lat="49.4013" lon="1.2115">
        <ele>194.3</ele>
        <time>2012-05-06T09:32:15.090Z</time>
      </trkpt>
      <trkpt lat="49.40123" lon="1.2115">
        <ele>193.9</ele>
        <time>2012-05-06T09:32:16.077Z</time>
      </trkpt>
      <trkpt lat="49.40117" lon="1.21148">
        <ele>193.9</ele>
        <time>2012-05-06T09:32:17.082Z</time>
      </trkpt>
      <trkpt lat="49.40111" lon="1.21147">
        <ele>193.7</ele>
        <time>2012-05-06T09:32:18.091Z</time>
      </trkpt>
      <trkpt lat="49.40106" lon="1.21146">
        <ele>193.9</ele>
        <time>2012-05-06T09:32:19.076Z</time>
      </trkpt>
      <trkpt lat="49.40101" lon="1.21144">
        <ele>193.6</ele>
        <time>2012-05-06T09:32:20.092Z</time>
      </trkpt>
      <trkpt lat="49.40097" lon="1.21139">
        <ele>194</ele>
        <time>2012-05-06T09:32:21.077Z</time>
      </trkpt>
      <trkpt lat="49.40093" lon="1.21133">
        <ele>193.6</ele>
        <time>2012-05-06T09:32:22.077Z</time>
      </trkpt>
      <trkpt lat="49.4009" lon="1.21125">
        <ele>193.6</ele>
        <time>2012-05-06T09:32:23.094Z</time>
      </trkpt>
      <trkpt lat="49.40088" lon="1.21117">
        <ele>192.7</ele>
        <time>2012-05-06T09:32:24.093Z</time>
      </trkpt>
      <trkpt lat="49.40088" lon="1.21107">
        <ele>192.4</ele>
        <time>2012-05-06T09:32:25.094Z</time>
      </trkpt>
      <trkpt lat="49.40086" lon="1.21097">
        <ele>191.9</ele>
        <time>2012-05-06T09:32:26.071Z</time>
      </trkpt>
      <trkpt lat="49.40084" lon="1.21086">
        <ele>191.4</ele>
        <time>2012-05-06T09:32:27.082Z</time>
      </trkpt>
      <trkpt lat="49.40082" lon="1.21075">
        <ele>191.3</ele>
        <time>2012-05-06T09:32:28.096Z</time>
      </trkpt>
      <trkpt lat="49.4008" lon="1.21064">
        <ele>190.4</ele>
        <time>2012-05-06T09:32:29.093Z</time>
      </trkpt>
      <trkpt lat="49.40077" lon="1.21053">
        <ele>190.3</ele>
        <time>2012-05-06T09:32:30.091Z</time>
      </trkpt>
      <trkpt lat="49.40075" lon="1.21041">
        <ele>189.7</ele>
        <time>2012-05-06T09:32:31.096Z</time>
      </trkpt>
      <trkpt lat="49.40072" lon="1.21029">
        <ele>189.3</ele>
        <time>2012-05-06T09:32:32.093Z</time>
      </trkpt>
      <trkpt lat="49.40069" lon="1.21016">
        <ele>188.4</ele>
        <time>2012-05-06T09:32:33.094Z</time>
      </trkpt>
      <trkpt lat="49.40066" lon="1.21004">
        <ele>187.7</ele>
        <time>2012-05-06T09:32:34.094Z</time>
      </trkpt>
      <trkpt lat="49.40064" lon="1.2099">
        <ele>187</ele>
        <time>2012-05-06T09:32:35.096Z</time>
      </trkpt>
      <trkpt lat="49.40062" lon="1.20977">
        <ele>186.3</ele>
        <time>2012-05-06T09:32:36.092Z</time>
      </trkpt>
      <trkpt lat="49.4006" lon="1.20963">
        <ele>185.4</ele>
        <time>2012-05-06T09:32:37.091Z</time>
      </trkpt>
      <trkpt lat="49.40059" lon="1.20951">
        <ele>184.4</ele>
        <time>2012-05-06T09:32:38.094Z</time>
      </trkpt>
      <trkpt lat="49.40058" lon="1.20939">
        <ele>184</ele>
        <time>2012-05-06T09:32:39.091Z</time>
      </trkpt>
      <trkpt lat="49.40056" lon="1.20928">
        <ele>183.4</ele>
        <time>2012-05-06T09:32:40.077Z</time>
      </trkpt>
      <trkpt lat="49.40054" lon="1.20905">
        <ele>182.5</ele>
        <time>2012-05-06T09:32:42.352Z</time>
      </trkpt>
      <trkpt lat="49.40054" lon="1.20896">
        <ele>182.5</ele>
        <time>2012-05-06T09:32:43.352Z</time>
      </trkpt>
      <trkpt lat="49.4006" lon="1.20885">
        <ele>182.6</ele>
        <time>2012-05-06T09:32:43.841Z</time>
      </trkpt>
      <trkpt lat="49.40064" lon="1.20876">
        <ele>182.4</ele>
        <time>2012-05-06T09:32:45.093Z</time>
      </trkpt>
      <trkpt lat="49.40067" lon="1.2087">
        <ele>182.7</ele>
        <time>2012-05-06T09:32:46.089Z</time>
      </trkpt>
      <trkpt lat="49.40071" lon="1.20865">
        <ele>182.7</ele>
        <time>2012-05-06T09:32:47.093Z</time>
      </trkpt>
      <trkpt lat="49.40073" lon="1.20858">
        <ele>181.2</ele>
        <time>2012-05-06T09:32:48.087Z</time>
      </trkpt>
      <trkpt lat="49.40078" lon="1.2085">
        <ele>181.1</ele>
        <time>2012-05-06T09:32:49.091Z</time>
      </trkpt>
      <trkpt lat="49.40082" lon="1.20842">
        <ele>180.5</ele>
        <time>2012-05-06T09:32:50.080Z</time>
      </trkpt>
      <trkpt lat="49.40086" lon="1.20835">
        <ele>180.2</ele>
        <time>2012-05-06T09:32:51.092Z</time>
      </trkpt>
      <trkpt lat="49.4009" lon="1.20829">
        <ele>180.1</ele>
        <time>2012-05-06T09:32:52.087Z</time>
      </trkpt>
      <trkpt lat="49.40096" lon="1.20821">
        <ele>180.3</ele>
        <time>2012-05-06T09:32:53.082Z</time>
      </trkpt>
      <trkpt lat="49.40101" lon="1.20813">
        <ele>179.3</ele>
        <time>2012-05-06T09:32:54.076Z</time>
      </trkpt>
      <trkpt lat="49.40105" lon="1.20805">
        <ele>178.5</ele>
        <time>2012-05-06T09:32:55.091Z</time>
      </trkpt>
      <trkpt lat="49.4011" lon="1.20799">
        <ele>178.4</ele>
        <time>2012-05-06T09:32:56.091Z</time>
      </trkpt>
      <trkpt lat="49.40115" lon="1.20793">
        <ele>177.5</ele>
        <time>2012-05-06T09:32:57.077Z</time>
      </trkpt>
      <trkpt lat="49.4012" lon="1.20784">
        <ele>177</ele>
        <time>2012-05-06T09:32:58.089Z</time>
      </trkpt>
      <trkpt lat="49.40124" lon="1.20777">
        <ele>176</ele>
        <time>2012-05-06T09:32:59.082Z</time>
      </trkpt>
      <trkpt lat="49.40128" lon="1.2077">
        <ele>175.6</ele>
        <time>2012-05-06T09:33:00.086Z</time>
      </trkpt>
      <trkpt lat="49.40131" lon="1.20763">
        <ele>174.9</ele>
        <time>2012-05-06T09:33:01.075Z</time>
      </trkpt>
      <trkpt lat="49.40135" lon="1.20756">
        <ele>175</ele>
        <time>2012-05-06T09:33:02.089Z</time>
      </trkpt>
      <trkpt lat="49.4014" lon="1.20748">
        <ele>175.5</ele>
        <time>2012-05-06T09:33:03.082Z</time>
      </trkpt>
      <trkpt lat="49.40144" lon="1.20741">
        <ele>175.5</ele>
        <time>2012-05-06T09:33:04.090Z</time>
      </trkpt>
      <trkpt lat="49.40148" lon="1.20734">
        <ele>175.9</ele>
        <time>2012-05-06T09:33:05.078Z</time>
      </trkpt>
      <trkpt lat="49.40152" lon="1.20728">
        <ele>175.9</ele>
        <time>2012-05-06T09:33:06.091Z</time>
      </trkpt>
      <trkpt lat="49.40154" lon="1.20721">
        <ele>176.2</ele>
        <time>2012-05-06T09:33:07.075Z</time>
      </trkpt>
      <trkpt lat="49.40155" lon="1.2071">
        <ele>180</ele>
        <time>2012-05-06T09:33:08.078Z</time>
      </trkpt>
      <trkpt lat="49.40157" lon="1.20702">
        <ele>182</ele>
        <time>2012-05-06T09:33:09.094Z</time>
      </trkpt>
      <trkpt lat="49.40161" lon="1.20694">
        <ele>179.6</ele>
        <time>2012-05-06T09:33:10.090Z</time>
      </trkpt>
      <trkpt lat="49.40164" lon="1.20687">
        <ele>177.9</ele>
        <time>2012-05-06T09:33:11.091Z</time>
      </trkpt>
      <trkpt lat="49.40168" lon="1.20678">
        <ele>177.5</ele>
        <time>2012-05-06T09:33:12.076Z</time>
      </trkpt>
      <trkpt lat="49.40169" lon="1.2067">
        <ele>176.9</ele>
        <time>2012-05-06T09:33:13.074Z</time>
      </trkpt>
      <trkpt lat="49.40171" lon="1.20659">
        <ele>177.2</ele>
        <time>2012-05-06T09:33:14.094Z</time>
      </trkpt>
      <trkpt lat="49.40177" lon="1.20648">
        <ele>176.7</ele>
        <time>2012-05-06T09:33:15.093Z</time>
      </trkpt>
      <trkpt lat="49.4018" lon="1.20636">
        <ele>176.3</ele>
        <time>2012-05-06T09:33:16.075Z</time>
      </trkpt>
      <trkpt lat="49.40183" lon="1.20628">
        <ele>177.3</ele>
        <time>2012-05-06T09:33:17.078Z</time>
      </trkpt>
      <trkpt lat="49.40186" lon="1.20617">
        <ele>176.9</ele>
        <time>2012-05-06T09:33:18.088Z</time>
      </trkpt>
      <trkpt lat="49.40191" lon="1.20607">
        <ele>175.5</ele>
        <time>2012-05-06T09:33:19.078Z</time>
      </trkpt>
      <trkpt lat="49.40194" lon="1.20595">
        <ele>174.7</ele>
        <time>2012-05-06T09:33:20.092Z</time>
      </trkpt>
      <trkpt lat="49.40198" lon="1.20586">
        <ele>174.3</ele>
        <time>2012-05-06T09:33:21.076Z</time>
      </trkpt>
      <trkpt lat="49.40201" lon="1.20576">
        <ele>174</ele>
        <time>2012-05-06T09:33:22.076Z</time>
      </trkpt>
      <trkpt lat="49.40206" lon="1.20568">
        <ele>174.4</ele>
        <time>2012-05-06T09:33:23.091Z</time>
      </trkpt>
      <trkpt lat="49.40211" lon="1.20561">
        <ele>173.2</ele>
        <time>2012-05-06T09:33:24.088Z</time>
      </trkpt>
      <trkpt lat="49.40216" lon="1.20554">
        <ele>172.6</ele>
        <time>2012-05-06T09:33:25.075Z</time>
      </trkpt>
      <trkpt lat="49.40221" lon="1.20549">
        <ele>171.9</ele>
        <time>2012-05-06T09:33:26.077Z</time>
      </trkpt>
      <trkpt lat="49.40226" lon="1.20542">
        <ele>170.8</ele>
        <time>2012-05-06T09:33:27.088Z</time>
      </trkpt>
      <trkpt lat="49.40233" lon="1.20536">
        <ele>170.3</ele>
        <time>2012-05-06T09:33:28.092Z</time>
      </trkpt>
      <trkpt lat="49.40238" lon="1.20531">
        <ele>169.8</ele>
        <time>2012-05-06T09:33:29.088Z</time>
      </trkpt>
      <trkpt lat="49.40242" lon="1.20526">
        <ele>169.1</ele>
        <time>2012-05-06T09:33:30.077Z</time>
      </trkpt>
      <trkpt lat="49.40247" lon="1.2052">
        <ele>168.6</ele>
        <time>2012-05-06T09:33:31.078Z</time>
      </trkpt>
      <trkpt lat="49.40252" lon="1.20514">
        <ele>168.6</ele>
        <time>2012-05-06T09:33:32.086Z</time>
      </trkpt>
      <trkpt lat="49.40256" lon="1.20507">
        <ele>168.5</ele>
        <time>2012-05-06T09:33:33.071Z</time>
      </trkpt>
      <trkpt lat="49.40261" lon="1.20502">
        <ele>169.2</ele>
        <time>2012-05-06T09:33:34.090Z</time>
      </trkpt>
      <trkpt lat="49.40264" lon="1.20496">
        <ele>168.5</ele>
        <time>2012-05-06T09:33:35.078Z</time>
      </trkpt>
      <trkpt lat="49.40266" lon="1.20486">
        <ele>168.3</ele>
        <time>2012-05-06T09:33:36.091Z</time>
      </trkpt>
      <trkpt lat="49.40266" lon="1.20477">
        <ele>167.7</ele>
        <time>2012-05-06T09:33:37.089Z</time>
      </trkpt>
      <trkpt lat="49.40267" lon="1.20464">
        <ele>166.9</ele>
        <time>2012-05-06T09:33:38.081Z</time>
      </trkpt>
      <trkpt lat="49.40267" lon="1.20455">
        <ele>165.8</ele>
        <time>2012-05-06T09:33:39.091Z</time>
      </trkpt>
      <trkpt lat="49.40268" lon="1.20445">
        <ele>164.5</ele>
        <time>2012-05-06T09:33:40.083Z</time>
      </trkpt>
      <trkpt lat="49.4027" lon="1.20422">
        <ele>163.2</ele>
        <time>2012-05-06T09:33:42.412Z</time>
      </trkpt>
      <trkpt lat="49.40271" lon="1.20412">
        <ele>162.9</ele>
        <time>2012-05-06T09:33:43.412Z</time>
      </trkpt>
      <trkpt lat="49.40275" lon="1.20396">
        <ele>162.2</ele>
        <time>2012-05-06T09:33:45.089Z</time>
      </trkpt>
      <trkpt lat="49.40284" lon="1.20384">
        <ele>162.1</ele>
        <time>2012-05-06T09:33:47.090Z</time>
      </trkpt>
      <trkpt lat="49.40294" lon="1.20373">
        <ele>161.8</ele>
        <time>2012-05-06T09:33:48.082Z</time>
      </trkpt>
      <trkpt lat="49.40299" lon="1.20366">
        <ele>161.8</ele>
        <time>2012-05-06T09:33:49.093Z</time>
      </trkpt>
      <trkpt lat="49.40299" lon="1.20356">
        <ele>161.5</ele>
        <time>2012-05-06T09:33:50.091Z</time>
      </trkpt>
      <trkpt lat="49.40302" lon="1.20348">
        <ele>161.5</ele>
        <time>2012-05-06T09:33:51.090Z</time>
      </trkpt>
      <trkpt lat="49.40308" lon="1.20338">
        <ele>161.1</ele>
        <time>2012-05-06T09:33:52.090Z</time>
      </trkpt>
      <trkpt lat="49.40315" lon="1.20328">
        <ele>162.4</ele>
        <time>2012-05-06T09:33:53.077Z</time>
      </trkpt>
      <trkpt lat="49.40319" lon="1.20321">
        <ele>162.6</ele>
        <time>2012-05-06T09:33:54.092Z</time>
      </trkpt>
      <trkpt lat="49.40324" lon="1.20314">
        <ele>161.7</ele>
        <time>2012-05-06T09:33:55.089Z</time>
      </trkpt>
      <trkpt lat="49.40328" lon="1.20309">
        <ele>160.6</ele>
        <time>2012-05-06T09:33:56.092Z</time>
      </trkpt>
      <trkpt lat="49.40331" lon="1.20301">
        <ele>159.7</ele>
        <time>2012-05-06T09:33:57.087Z</time>
      </trkpt>
      <trkpt lat="49.40334" lon="1.20293">
        <ele>159</ele>
        <time>2012-05-06T09:33:58.088Z</time>
      </trkpt>
      <trkpt lat="49.40336" lon="1.20286">
        <ele>158.2</ele>
        <time>2012-05-06T09:33:59.087Z</time>
      </trkpt>
      <trkpt lat="49.4034" lon="1.20279">
        <ele>158.7</ele>
        <time>2012-05-06T09:34:00.091Z</time>
      </trkpt>
      <trkpt lat="49.40344" lon="1.20275">
        <ele>158.3</ele>
        <time>2012-05-06T09:34:01.091Z</time>
      </trkpt>
      <trkpt lat="49.4035" lon="1.20267">
        <ele>156.7</ele>
        <time>2012-05-06T09:34:03.085Z</time>
      </trkpt>
      <trkpt lat="49.40356" lon="1.20259">
        <ele>158.5</ele>
        <time>2012-05-06T09:34:05.094Z</time>
      </trkpt>
      <trkpt lat="49.40362" lon="1.20255">
        <ele>158.4</ele>
        <time>2012-05-06T09:34:07.089Z</time>
      </trkpt>
      <trkpt lat="49.40367" lon="1.20253">
        <ele>158.1</ele>
        <time>2012-05-06T09:34:09.086Z</time>
      </trkpt>
      <trkpt lat="49.40372" lon="1.2025">
        <ele>160</ele>
        <time>2012-05-06T09:34:12.092Z</time>
      </trkpt>
      <trkpt lat="49.40374" lon="1.20244">
        <ele>161.3</ele>
        <time>2012-05-06T09:34:13.088Z</time>
      </trkpt>
      <trkpt lat="49.40378" lon="1.20235">
        <ele>162.8</ele>
        <time>2012-05-06T09:34:17.082Z</time>
      </trkpt>
      <trkpt lat="49.40381" lon="1.20229">
        <ele>163.6</ele>
        <time>2012-05-06T09:34:20.075Z</time>
      </trkpt>
      <trkpt lat="49.40385" lon="1.20219">
        <ele>164.3</ele>
        <time>2012-05-06T09:34:24.091Z</time>
      </trkpt>
      <trkpt lat="49.40387" lon="1.20208">
        <ele>162.9</ele>
        <time>2012-05-06T09:34:27.091Z</time>
      </trkpt>
      <trkpt lat="49.40391" lon="1.20204">
        <ele>165.7</ele>
        <time>2012-05-06T09:34:32.092Z</time>
      </trkpt>
      <trkpt lat="49.40393" lon="1.20195">
        <ele>165.9</ele>
        <time>2012-05-06T09:34:35.248Z</time>
      </trkpt>
      <trkpt lat="49.40394" lon="1.20187">
        <ele>166.8</ele>
        <time>2012-05-06T09:34:37.248Z</time>
      </trkpt>
      <trkpt lat="49.40396" lon="1.20177">
        <ele>167.9</ele>
        <time>2012-05-06T09:34:39.248Z</time>
      </trkpt>
      <trkpt lat="49.40398" lon="1.20165">
        <ele>167.7</ele>
        <time>2012-05-06T09:34:42.341Z</time>
      </trkpt>
      <trkpt lat="49.40401" lon="1.20158">
        <ele>168.4</ele>
        <time>2012-05-06T09:34:44.341Z</time>
      </trkpt>
      <trkpt lat="49.40402" lon="1.2015">
        <ele>169.3</ele>
        <time>2012-05-06T09:34:46.341Z</time>
      </trkpt>
      <trkpt lat="49.40403" lon="1.20142">
        <ele>169.5</ele>
        <time>2012-05-06T09:34:48.081Z</time>
      </trkpt>
      <trkpt lat="49.40405" lon="1.20135">
        <ele>170.3</ele>
        <time>2012-05-06T09:34:50.089Z</time>
      </trkpt>
      <trkpt lat="49.40405" lon="1.20127">
        <ele>171.7</ele>
        <time>2012-05-06T09:34:54.090Z</time>
      </trkpt>
      <trkpt lat="49.40407" lon="1.20117">
        <ele>173</ele>
        <time>2012-05-06T09:34:56.093Z</time>
      </trkpt>
      <trkpt lat="49.40408" lon="1.2011">
        <ele>172.9</ele>
        <time>2012-05-06T09:34:58.077Z</time>
      </trkpt>
      <trkpt lat="49.40411" lon="1.201">
        <ele>175.2</ele>
        <time>2012-05-06T09:35:01.075Z</time>
      </trkpt>
      <trkpt lat="49.40411" lon="1.20091">
        <ele>176.4</ele>
        <time>2012-05-06T09:35:04.090Z</time>
      </trkpt>
      <trkpt lat="49.40413" lon="1.2008">
        <ele>176.4</ele>
        <time>2012-05-06T09:35:07.076Z</time>
      </trkpt>
      <trkpt lat="49.4041" lon="1.20074">
        <ele>177.7</ele>
        <time>2012-05-06T09:35:10.092Z</time>
      </trkpt>
      <trkpt lat="49.40405" lon="1.2007">
        <ele>176.6</ele>
        <time>2012-05-06T09:35:13.085Z</time>
      </trkpt>
      <trkpt lat="49.40404" lon="1.2006">
        <ele>177.1</ele>
        <time>2012-05-06T09:35:15.071Z</time>
      </trkpt>
      <trkpt lat="49.40403" lon="1.20048">
        <ele>175.1</ele>
        <time>2012-05-06T09:35:17.091Z</time>
      </trkpt>
      <trkpt lat="49.40403" lon="1.20039">
        <ele>175.4</ele>
        <time>2012-05-06T09:35:21.089Z</time>
      </trkpt>
      <trkpt lat="49.40404" lon="1.20029">
        <ele>175.7</ele>
        <time>2012-05-06T09:35:24.076Z</time>
      </trkpt>
      <trkpt lat="49.40403" lon="1.20022">
        <ele>175.8</ele>
        <time>2012-05-06T09:35:26.093Z</time>
      </trkpt>
      <trkpt lat="49.40403" lon="1.20012">
        <ele>176.3</ele>
        <time>2012-05-06T09:35:29.076Z</time>
      </trkpt>
      <trkpt lat="49.40402" lon="1.20003">
        <ele>176.6</ele>
        <time>2012-05-06T09:35:32.092Z</time>
      </trkpt>
      <trkpt lat="49.40402" lon="1.19993">
        <ele>177.4</ele>
        <time>2012-05-06T09:35:35.086Z</time>
      </trkpt>
      <trkpt lat="49.404" lon="1.19983">
        <ele>177</ele>
        <time>2012-05-06T09:35:38.078Z</time>
      </trkpt>
      <trkpt lat="49.404" lon="1.1997">
        <ele>178.2</ele>
        <time>2012-05-06T09:35:42.363Z</time>
      </trkpt>
      <trkpt lat="49.40397" lon="1.19962">
        <ele>176.4</ele>
        <time>2012-05-06T09:35:46.088Z</time>
      </trkpt>
      <trkpt lat="49.40398" lon="1.19953">
        <ele>175.6</ele>
        <time>2012-05-06T09:35:48.089Z</time>
      </trkpt>
      <trkpt lat="49.40397" lon="1.19944">
        <ele>174.2</ele>
        <time>2012-05-06T09:35:50.093Z</time>
      </trkpt>
      <trkpt lat="49.40399" lon="1.19935">
        <ele>174.9</ele>
        <time>2012-05-06T09:35:52.094Z</time>
      </trkpt>
      <trkpt lat="49.40401" lon="1.19926">
        <ele>177.9</ele>
        <time>2012-05-06T09:35:56.094Z</time>
      </trkpt>
      <trkpt lat="49.40396" lon="1.19922">
        <ele>180.9</ele>
        <time>2012-05-06T09:35:58.093Z</time>
      </trkpt>
      <trkpt lat="49.40396" lon="1.19915">
        <ele>180.1</ele>
        <time>2012-05-06T09:36:00.177Z</time>
      </trkpt>
      <trkpt lat="49.40395" lon="1.19906">
        <ele>180.7</ele>
        <time>2012-05-06T09:36:03.079Z</time>
      </trkpt>
      <trkpt lat="49.40396" lon="1.19896">
        <ele>182.5</ele>
        <time>2012-05-06T09:36:06.079Z</time>
      </trkpt>
      <trkpt lat="49.40392" lon="1.19888">
        <ele>188.1</ele>
        <time>2012-05-06T09:36:08.080Z</time>
      </trkpt>
      <trkpt lat="49.40389" lon="1.19881">
        <ele>189.5</ele>
        <time>2012-05-06T09:36:10.088Z</time>
      </trkpt>
      <trkpt lat="49.40388" lon="1.19875">
        <ele>188.6</ele>
        <time>2012-05-06T09:36:13.090Z</time>
      </trkpt>
      <trkpt lat="49.40388" lon="1.19865">
        <ele>189.5</ele>
        <time>2012-05-06T09:36:16.094Z</time>
      </trkpt>
      <trkpt lat="49.40387" lon="1.19854">
        <ele>189.5</ele>
        <time>2012-05-06T09:36:19.089Z</time>
      </trkpt>
      <trkpt lat="49.40385" lon="1.19845">
        <ele>190.8</ele>
        <time>2012-05-06T09:36:22.092Z</time>
      </trkpt>
      <trkpt lat="49.40383" lon="1.19837">
        <ele>189.8</ele>
        <time>2012-05-06T09:36:25.077Z</time>
      </trkpt>
      <trkpt lat="49.40381" lon="1.19829">
        <ele>189.7</ele>
        <time>2012-05-06T09:36:28.090Z</time>
      </trkpt>
      <trkpt lat="49.40379" lon="1.19822">
        <ele>189.9</ele>
        <time>2012-05-06T09:36:30.093Z</time>
      </trkpt>
      <trkpt lat="49.40378" lon="1.19816">
        <ele>190.5</ele>
        <time>2012-05-06T09:36:32.092Z</time>
      </trkpt>
      <trkpt lat="49.40374" lon="1.19807">
        <ele>190.5</ele>
        <time>2012-05-06T09:36:35.086Z</time>
      </trkpt>
      <trkpt lat="49.40373" lon="1.198">
        <ele>190.6</ele>
        <time>2012-05-06T09:36:37.076Z</time>
      </trkpt>
      <trkpt lat="49.4037" lon="1.1979">
        <ele>189.8</ele>
        <time>2012-05-06T09:36:40.075Z</time>
      </trkpt>
      <trkpt lat="49.40369" lon="1.19783">
        <ele>189.5</ele>
        <time>2012-05-06T09:36:42.369Z</time>
      </trkpt>
      <trkpt lat="49.40368" lon="1.19775">
        <ele>189.8</ele>
        <time>2012-05-06T09:36:45.089Z</time>
      </trkpt>
      <trkpt lat="49.40366" lon="1.19766">
        <ele>190.4</ele>
        <time>2012-05-06T09:36:48.086Z</time>
      </trkpt>
      <trkpt lat="49.40368" lon="1.19759">
        <ele>191.5</ele>
        <time>2012-05-06T09:36:50.090Z</time>
      </trkpt>
      <trkpt lat="49.40371" lon="1.19753">
        <ele>191.5</ele>
        <time>2012-05-06T09:36:52.077Z</time>
      </trkpt>
      <trkpt lat="49.40376" lon="1.19749">
        <ele>191.8</ele>
        <time>2012-05-06T09:36:54.094Z</time>
      </trkpt>
      <trkpt lat="49.40381" lon="1.19746">
        <ele>191.9</ele>
        <time>2012-05-06T09:36:56.089Z</time>
      </trkpt>
      <trkpt lat="49.40386" lon="1.19743">
        <ele>192.2</ele>
        <time>2012-05-06T09:36:58.090Z</time>
      </trkpt>
      <trkpt lat="49.4039" lon="1.1974">
        <ele>192.3</ele>
        <time>2012-05-06T09:37:00.076Z</time>
      </trkpt>
      <trkpt lat="49.40395" lon="1.19736">
        <ele>192.8</ele>
        <time>2012-05-06T09:37:02.080Z</time>
      </trkpt>
      <trkpt lat="49.404" lon="1.19732">
        <ele>193.3</ele>
        <time>2012-05-06T09:37:04.093Z</time>
      </trkpt>
      <trkpt lat="49.40404" lon="1.19728">
        <ele>193.7</ele>
        <time>2012-05-06T09:37:06.082Z</time>
      </trkpt>
      <trkpt lat="49.40409" lon="1.19724">
        <ele>194.1</ele>
        <time>2012-05-06T09:37:08.094Z</time>
      </trkpt>
      <trkpt lat="49.40413" lon="1.1972">
        <ele>194</ele>
        <time>2012-05-06T09:37:10.079Z</time>
      </trkpt>
      <trkpt lat="49.40418" lon="1.19718">
        <ele>194.4</ele>
        <time>2012-05-06T09:37:12.094Z</time>
      </trkpt>
      <trkpt lat="49.40422" lon="1.19715">
        <ele>194.5</ele>
        <time>2012-05-06T09:37:14.075Z</time>
      </trkpt>
      <trkpt lat="49.40427" lon="1.19712">
        <ele>194.1</ele>
        <time>2012-05-06T09:37:16.090Z</time>
      </trkpt>
      <trkpt lat="49.40431" lon="1.19709">
        <ele>194.3</ele>
        <time>2012-05-06T09:37:18.091Z</time>
      </trkpt>
      <trkpt lat="49.40436" lon="1.19705">
        <ele>194.3</ele>
        <time>2012-05-06T09:37:20.089Z</time>
      </trkpt>
      <trkpt lat="49.4044" lon="1.19702">
        <ele>194.2</ele>
        <time>2012-05-06T09:37:22.092Z</time>
      </trkpt>
      <trkpt lat="49.40445" lon="1.197">
        <ele>193.9</ele>
        <time>2012-05-06T09:37:24.082Z</time>
      </trkpt>
      <trkpt lat="49.40449" lon="1.19697">
        <ele>193.5</ele>
        <time>2012-05-06T09:37:26.090Z</time>
      </trkpt>
      <trkpt lat="49.40454" lon="1.19694">
        <ele>193</ele>
        <time>2012-05-06T09:37:28.076Z</time>
      </trkpt>
      <trkpt lat="49.40458" lon="1.19692">
        <ele>192.8</ele>
        <time>2012-05-06T09:37:30.077Z</time>
      </trkpt>
      <trkpt lat="49.40463" lon="1.1969">
        <ele>193</ele>
        <time>2012-05-06T09:37:32.082Z</time>
      </trkpt>
      <trkpt lat="49.40468" lon="1.19688">
        <ele>192.9</ele>
        <time>2012-05-06T09:37:34.094Z</time>
      </trkpt>
      <trkpt lat="49.40473" lon="1.19686">
        <ele>192.9</ele>
        <time>2012-05-06T09:37:36.093Z</time>
      </trkpt>
      <trkpt lat="49.40478" lon="1.19684">
        <ele>192.2</ele>
        <time>2012-05-06T09:37:38.082Z</time>
      </trkpt>
      <trkpt lat="49.40484" lon="1.19682">
        <ele>192.3</ele>
        <time>2012-05-06T09:37:40.090Z</time>
      </trkpt>
      <trkpt lat="49.4049" lon="1.1968">
        <ele>192.4</ele>
        <time>2012-05-06T09:37:42.320Z</time>
      </trkpt>
      <trkpt lat="49.40498" lon="1.19679">
        <ele>192.2</ele>
        <time>2012-05-06T09:37:45.096Z</time>
      </trkpt>
      <trkpt lat="49.40504" lon="1.19678">
        <ele>192.7</ele>
        <time>2012-05-06T09:37:47.077Z</time>
      </trkpt>
      <trkpt lat="49.4051" lon="1.19676">
        <ele>192.5</ele>
        <time>2012-05-06T09:37:49.092Z</time>
      </trkpt>
      <trkpt lat="49.40516" lon="1.19674">
        <ele>192.6</ele>
        <time>2012-05-06T09:37:51.079Z</time>
      </trkpt>
      <trkpt lat="49.40522" lon="1.19674">
        <ele>192.3</ele>
        <time>2012-05-06T09:37:53.094Z</time>
      </trkpt>
      <trkpt lat="49.40528" lon="1.19678">
        <ele>192.2</ele>
        <time>2012-05-06T09:37:55.093Z</time>
      </trkpt>
      <trkpt lat="49.40535" lon="1.19683">
        <ele>192</ele>
        <time>2012-05-06T09:37:57.097Z</time>
      </trkpt>
      <trkpt lat="49.40542" lon="1.19688">
        <ele>191.9</ele>
        <time>2012-05-06T09:37:59.087Z</time>
      </trkpt>
      <trkpt lat="49.4055" lon="1.19693">
        <ele>191.9</ele>
        <time>2012-05-06T09:38:01.077Z</time>
      </trkpt>
      <trkpt lat="49.40554" lon="1.19696">
        <ele>192</ele>
        <time>2012-05-06T09:38:02.095Z</time>
      </trkpt>
      <trkpt lat="49.40559" lon="1.19699">
        <ele>191.8</ele>
        <time>2012-05-06T09:38:03.090Z</time>
      </trkpt>
      <trkpt lat="49.40563" lon="1.19702">
        <ele>191.6</ele>
        <time>2012-05-06T09:38:04.094Z</time>
      </trkpt>
      <trkpt lat="49.40567" lon="1.19704">
        <ele>190.9</ele>
        <time>2012-05-06T09:38:05.076Z</time>
      </trkpt>
      <trkpt lat="49.40572" lon="1.19707">
        <ele>190.8</ele>
        <time>2012-05-06T09:38:06.094Z</time>
      </trkpt>
      <trkpt lat="49.40576" lon="1.1971">
        <ele>190.9</ele>
        <time>2012-05-06T09:38:07.091Z</time>
      </trkpt>
      <trkpt lat="49.40581" lon="1.19714">
        <ele>191.1</ele>
        <time>2012-05-06T09:38:08.076Z</time>
      </trkpt>
      <trkpt lat="49.40586" lon="1.19718">
        <ele>191.2</ele>
        <time>2012-05-06T09:38:09.091Z</time>
      </trkpt>
      <trkpt lat="49.40591" lon="1.19721">
        <ele>190.5</ele>
        <time>2012-05-06T09:38:10.083Z</time>
      </trkpt>
      <trkpt lat="49.40596" lon="1.19725">
        <ele>190.4</ele>
        <time>2012-05-06T09:38:11.091Z</time>
      </trkpt>
      <trkpt lat="49.40602" lon="1.19729">
        <ele>190.4</ele>
        <time>2012-05-06T09:38:12.094Z</time>
      </trkpt>
      <trkpt lat="49.40606" lon="1.19733">
        <ele>190.5</ele>
        <time>2012-05-06T09:38:13.090Z</time>
      </trkpt>
      <trkpt lat="49.40612" lon="1.19737">
        <ele>190</ele>
        <time>2012-05-06T09:38:14.082Z</time>
      </trkpt>
      <trkpt lat="49.40617" lon="1.19741">
        <ele>189.8</ele>
        <time>2012-05-06T09:38:15.090Z</time>
      </trkpt>
      <trkpt lat="49.40623" lon="1.19745">
        <ele>189.5</ele>
        <time>2012-05-06T09:38:16.093Z</time>
      </trkpt>
      <trkpt lat="49.40628" lon="1.1975">
        <ele>189.3</ele>
        <time>2012-05-06T09:38:17.085Z</time>
      </trkpt>
      <trkpt lat="49.40634" lon="1.19755">
        <ele>189.5</ele>
        <time>2012-05-06T09:38:18.078Z</time>
      </trkpt>
      <trkpt lat="49.4064" lon="1.1976">
        <ele>189.6</ele>
        <time>2012-05-06T09:38:19.077Z</time>
      </trkpt>
      <trkpt lat="49.40646" lon="1.19765">
        <ele>189.4</ele>
        <time>2012-05-06T09:38:20.085Z</time>
      </trkpt>
      <trkpt lat="49.40652" lon="1.1977">
        <ele>189.3</ele>
        <time>2012-05-06T09:38:21.090Z</time>
      </trkpt>
      <trkpt lat="49.40658" lon="1.19775">
        <ele>189.2</ele>
        <time>2012-05-06T09:38:22.079Z</time>
      </trkpt>
      <trkpt lat="49.40664" lon="1.19781">
        <ele>188.7</ele>
        <time>2012-05-06T09:38:23.078Z</time>
      </trkpt>
      <trkpt lat="49.4067" lon="1.19788">
        <ele>188.8</ele>
        <time>2012-05-06T09:38:24.094Z</time>
      </trkpt>
      <trkpt lat="49.40676" lon="1.19793">
        <ele>188.7</ele>
        <time>2012-05-06T09:38:25.096Z</time>
      </trkpt>
      <trkpt lat="49.40682" lon="1.19799">
        <ele>188.6</ele>
        <time>2012-05-06T09:38:26.086Z</time>
      </trkpt>
      <trkpt lat="49.40688" lon="1.19805">
        <ele>188.4</ele>
        <time>2012-05-06T09:38:27.077Z</time>
      </trkpt>
      <trkpt lat="49.40694" lon="1.19811">
        <ele>188.2</ele>
        <time>2012-05-06T09:38:28.091Z</time>
      </trkpt>
      <trkpt lat="49.40699" lon="1.19817">
        <ele>188.3</ele>
        <time>2012-05-06T09:38:29.076Z</time>
      </trkpt>
      <trkpt lat="49.40705" lon="1.19823">
        <ele>187.7</ele>
        <time>2012-05-06T09:38:30.095Z</time>
      </trkpt>
      <trkpt lat="49.40711" lon="1.19829">
        <ele>187.8</ele>
        <time>2012-05-06T09:38:31.086Z</time>
      </trkpt>
      <trkpt lat="49.40717" lon="1.19835">
        <ele>187.6</ele>
        <time>2012-05-06T09:38:32.077Z</time>
      </trkpt>
      <trkpt lat="49.40723" lon="1.19841">
        <ele>187.1</ele>
        <time>2012-05-06T09:38:33.077Z</time>
      </trkpt>
      <trkpt lat="49.40728" lon="1.19848">
        <ele>186.8</ele>
        <time>2012-05-06T09:38:34.094Z</time>
      </trkpt>
      <trkpt lat="49.40734" lon="1.19854">
        <ele>186.9</ele>
        <time>2012-05-06T09:38:35.091Z</time>
      </trkpt>
      <trkpt lat="49.4074" lon="1.1986">
        <ele>187</ele>
        <time>2012-05-06T09:38:36.078Z</time>
      </trkpt>
      <trkpt lat="49.40746" lon="1.19866">
        <ele>187</ele>
        <time>2012-05-06T09:38:37.092Z</time>
      </trkpt>
      <trkpt lat="49.40752" lon="1.19873">
        <ele>187</ele>
        <time>2012-05-06T09:38:38.091Z</time>
      </trkpt>
      <trkpt lat="49.40758" lon="1.19879">
        <ele>187</ele>
        <time>2012-05-06T09:38:39.093Z</time>
      </trkpt>
      <trkpt lat="49.40764" lon="1.19886">
        <ele>187.1</ele>
        <time>2012-05-06T09:38:40.093Z</time>
      </trkpt>
      <trkpt lat="49.40778" lon="1.19902">
        <ele>186.7</ele>
        <time>2012-05-06T09:38:42.361Z</time>
      </trkpt>
      <trkpt lat="49.40784" lon="1.19909">
        <ele>186.7</ele>
        <time>2012-05-06T09:38:43.361Z</time>
      </trkpt>
      <trkpt lat="49.40793" lon="1.19921">
        <ele>186.4</ele>
        <time>2012-05-06T09:38:45.094Z</time>
      </trkpt>
      <trkpt lat="49.40798" lon="1.19928">
        <ele>186.7</ele>
        <time>2012-05-06T09:38:46.090Z</time>
      </trkpt>
      <trkpt lat="49.40804" lon="1.19936">
        <ele>186.8</ele>
        <time>2012-05-06T09:38:47.090Z</time>
      </trkpt>
      <trkpt lat="49.4081" lon="1.19943">
        <ele>186.9</ele>
        <time>2012-05-06T09:38:48.089Z</time>
      </trkpt>
      <trkpt lat="49.40815" lon="1.19952">
        <ele>186.8</ele>
        <time>2012-05-06T09:38:49.079Z</time>
      </trkpt>
      <trkpt lat="49.40821" lon="1.1996">
        <ele>186.8</ele>
        <time>2012-05-06T09:38:50.095Z</time>
      </trkpt>
      <trkpt lat="49.40826" lon="1.19968">
        <ele>186.8</ele>
        <time>2012-05-06T09:38:51.090Z</time>
      </trkpt>
      <trkpt lat="49.40831" lon="1.19977">
        <ele>186.3</ele>
        <time>2012-05-06T09:38:52.077Z</time>
      </trkpt>
      <trkpt lat="49.40836" lon="1.19985">
        <ele>186.7</ele>
        <time>2012-05-06T09:38:53.095Z</time>
      </trkpt>
      <trkpt lat="49.4084" lon="1.19995">
        <ele>187</ele>
        <time>2012-05-06T09:38:54.089Z</time>
      </trkpt>
      <trkpt lat="49.40843" lon="1.20005">
        <ele>186.5</ele>
        <time>2012-05-06T09:38:55.094Z</time>
      </trkpt>
      <trkpt lat="49.40847" lon="1.20014">
        <ele>186.2</ele>
        <time>2012-05-06T09:38:56.089Z</time>
      </trkpt>
      <trkpt lat="49.4085" lon="1.20023">
        <ele>186</ele>
        <time>2012-05-06T09:38:57.077Z</time>
      </trkpt>
      <trkpt lat="49.40854" lon="1.20033">
        <ele>186.2</ele>
        <time>2012-05-06T09:38:58.094Z</time>
      </trkpt>
      <trkpt lat="49.40858" lon="1.20043">
        <ele>186.5</ele>
        <time>2012-05-06T09:38:59.098Z</time>
      </trkpt>
      <trkpt lat="49.40862" lon="1.20053">
        <ele>187</ele>
        <time>2012-05-06T09:39:00.095Z</time>
      </trkpt>
      <trkpt lat="49.40865" lon="1.20063">
        <ele>186.6</ele>
        <time>2012-05-06T09:39:01.085Z</time>
      </trkpt>
      <trkpt lat="49.40868" lon="1.20073">
        <ele>186.7</ele>
        <time>2012-05-06T09:39:02.090Z</time>
      </trkpt>
      <trkpt lat="49.40871" lon="1.20084">
        <ele>186.3</ele>
        <time>2012-05-06T09:39:03.090Z</time>
      </trkpt>
      <trkpt lat="49.40874" lon="1.20093">
        <ele>185.8</ele>
        <time>2012-05-06T09:39:04.100Z</time>
      </trkpt>
      <trkpt lat="49.40877" lon="1.20102">
        <ele>185.4</ele>
        <time>2012-05-06T09:39:05.090Z</time>
      </trkpt>
      <trkpt lat="49.4088" lon="1.20112">
        <ele>185.3</ele>
        <time>2012-05-06T09:39:06.101Z</time>
      </trkpt>
      <trkpt lat="49.40885" lon="1.2012">
        <ele>185</ele>
        <time>2012-05-06T09:39:07.088Z</time>
      </trkpt>
      <trkpt lat="49.40889" lon="1.20128">
        <ele>184.9</ele>
        <time>2012-05-06T09:39:08.093Z</time>
      </trkpt>
      <trkpt lat="49.40895" lon="1.20135">
        <ele>184.4</ele>
        <time>2012-05-06T09:39:09.077Z</time>
      </trkpt>
      <trkpt lat="49.40901" lon="1.20141">
        <ele>184.7</ele>
        <time>2012-05-06T09:39:10.077Z</time>
      </trkpt>
      <trkpt lat="49.40908" lon="1.20146">
        <ele>183.9</ele>
        <time>2012-05-06T09:39:11.077Z</time>
      </trkpt>
      <trkpt lat="49.40914" lon="1.20148">
        <ele>182.9</ele>
        <time>2012-05-06T09:39:12.076Z</time>
      </trkpt>
      <trkpt lat="49.40922" lon="1.20148">
        <ele>182</ele>
        <time>2012-05-06T09:39:13.076Z</time>
      </trkpt>
      <trkpt lat="49.40928" lon="1.20148">
        <ele>181.6</ele>
        <time>2012-05-06T09:39:14.073Z</time>
      </trkpt>
      <trkpt lat="49.40935" lon="1.20146">
        <ele>181.2</ele>
        <time>2012-05-06T09:39:15.079Z</time>
      </trkpt>
      <trkpt lat="49.4094" lon="1.20145">
        <ele>181.7</ele>
        <time>2012-05-06T09:39:16.076Z</time>
      </trkpt>
      <trkpt lat="49.40946" lon="1.20139">
        <ele>182.6</ele>
        <time>2012-05-06T09:39:18.077Z</time>
      </trkpt>
      <trkpt lat="49.4095" lon="1.20133">
        <ele>182</ele>
        <time>2012-05-06T09:39:20.076Z</time>
      </trkpt>
      <trkpt lat="49.40952" lon="1.20126">
        <ele>181.4</ele>
        <time>2012-05-06T09:39:23.076Z</time>
      </trkpt>
      <trkpt lat="49.40955" lon="1.20119">
        <ele>181</ele>
        <time>2012-05-06T09:39:26.076Z</time>
      </trkpt>
      <trkpt lat="49.40957" lon="1.20111">
        <ele>181.3</ele>
        <time>2012-05-06T09:39:28.089Z</time>
      </trkpt>
      <trkpt lat="49.40959" lon="1.20103">
        <ele>182.3</ele>
        <time>2012-05-06T09:39:30.089Z</time>
      </trkpt>
      <trkpt lat="49.40963" lon="1.20094">
        <ele>182.4</ele>
        <time>2012-05-06T09:39:32.088Z</time>
      </trkpt>
      <trkpt lat="49.40967" lon="1.20083">
        <ele>181.9</ele>
        <time>2012-05-06T09:39:34.079Z</time>
      </trkpt>
      <trkpt lat="49.40971" lon="1.20072">
        <ele>181.7</ele>
        <time>2012-05-06T09:39:36.084Z</time>
      </trkpt>
      <trkpt lat="49.40974" lon="1.20065">
        <ele>182</ele>
        <time>2012-05-06T09:39:37.092Z</time>
      </trkpt>
      <trkpt lat="49.40976" lon="1.20059">
        <ele>182.1</ele>
        <time>2012-05-06T09:39:38.092Z</time>
      </trkpt>
      <trkpt lat="49.4098" lon="1.20048">
        <ele>182</ele>
        <time>2012-05-06T09:39:40.096Z</time>
      </trkpt>
      <trkpt lat="49.40986" lon="1.20036">
        <ele>182.1</ele>
        <time>2012-05-06T09:39:42.333Z</time>
      </trkpt>
      <trkpt lat="49.40988" lon="1.20029">
        <ele>182.2</ele>
        <time>2012-05-06T09:39:43.333Z</time>
      </trkpt>
      <trkpt lat="49.40993" lon="1.20018">
        <ele>181.5</ele>
        <time>2012-05-06T09:39:45.090Z</time>
      </trkpt>
      <trkpt lat="49.40995" lon="1.2001">
        <ele>181.7</ele>
        <time>2012-05-06T09:39:46.086Z</time>
      </trkpt>
      <trkpt lat="49.40998" lon="1.20002">
        <ele>181.6</ele>
        <time>2012-05-06T09:39:47.093Z</time>
      </trkpt>
      <trkpt lat="49.41001" lon="1.19994">
        <ele>181.6</ele>
        <time>2012-05-06T09:39:48.095Z</time>
      </trkpt>
      <trkpt lat="49.41004" lon="1.19987">
        <ele>181</ele>
        <time>2012-05-06T09:39:49.093Z</time>
      </trkpt>
      <trkpt lat="49.41006" lon="1.1998">
        <ele>181.1</ele>
        <time>2012-05-06T09:39:50.077Z</time>
      </trkpt>
      <trkpt lat="49.41009" lon="1.19972">
        <ele>181.3</ele>
        <time>2012-05-06T09:39:51.093Z</time>
      </trkpt>
      <trkpt lat="49.4101" lon="1.19964">
        <ele>180.6</ele>
        <time>2012-05-06T09:39:52.094Z</time>
      </trkpt>
      <trkpt lat="49.41011" lon="1.19956">
        <ele>180.2</ele>
        <time>2012-05-06T09:39:53.091Z</time>
      </trkpt>
      <trkpt lat="49.41012" lon="1.19948">
        <ele>179.9</ele>
        <time>2012-05-06T09:39:54.094Z</time>
      </trkpt>
      <trkpt lat="49.41012" lon="1.1994">
        <ele>179.6</ele>
        <time>2012-05-06T09:39:55.077Z</time>
      </trkpt>
      <trkpt lat="49.41013" lon="1.19931">
        <ele>179.6</ele>
        <time>2012-05-06T09:39:56.091Z</time>
      </trkpt>
      <trkpt lat="49.41014" lon="1.19922">
        <ele>179.6</ele>
        <time>2012-05-06T09:39:57.090Z</time>
      </trkpt>
      <trkpt lat="49.41014" lon="1.19913">
        <ele>178.6</ele>
        <time>2012-05-06T09:39:58.082Z</time>
      </trkpt>
      <trkpt lat="49.41015" lon="1.19904">
        <ele>177.9</ele>
        <time>2012-05-06T09:39:59.088Z</time>
      </trkpt>
      <trkpt lat="49.41015" lon="1.19895">
        <ele>177.9</ele>
        <time>2012-05-06T09:40:00.077Z</time>
      </trkpt>
      <trkpt lat="49.41016" lon="1.19886">
        <ele>177.6</ele>
        <time>2012-05-06T09:40:01.093Z</time>
      </trkpt>
      <trkpt lat="49.41016" lon="1.19877">
        <ele>177.4</ele>
        <time>2012-05-06T09:40:02.094Z</time>
      </trkpt>
      <trkpt lat="49.41016" lon="1.19869">
        <ele>177.2</ele>
        <time>2012-05-06T09:40:03.090Z</time>
      </trkpt>
      <trkpt lat="49.41016" lon="1.19862">
        <ele>177.4</ele>
        <time>2012-05-06T09:40:04.082Z</time>
      </trkpt>
      <trkpt lat="49.41016" lon="1.19854">
        <ele>177.9</ele>
        <time>2012-05-06T09:40:05.094Z</time>
      </trkpt>
      <trkpt lat="49.41016" lon="1.19846">
        <ele>177.8</ele>
        <time>2012-05-06T09:40:06.085Z</time>
      </trkpt>
      <trkpt lat="49.41016" lon="1.19837">
        <ele>177.3</ele>
        <time>2012-05-06T09:40:07.079Z</time>
      </trkpt>
      <trkpt lat="49.41016" lon="1.19828">
        <ele>177.1</ele>
        <time>2012-05-06T09:40:08.077Z</time>
      </trkpt>
      <trkpt lat="49.41016" lon="1.1982">
        <ele>176.8</ele>
        <time>2012-05-06T09:40:09.091Z</time>
      </trkpt>
      <trkpt lat="49.41016" lon="1.19811">
        <ele>177.2</ele>
        <time>2012-05-06T09:40:10.092Z</time>
      </trkpt>
      <trkpt lat="49.41016" lon="1.19803">
        <ele>176.8</ele>
        <time>2012-05-06T09:40:11.093Z</time>
      </trkpt>
      <trkpt lat="49.41016" lon="1.19794">
        <ele>176.3</ele>
        <time>2012-05-06T09:40:12.098Z</time>
      </trkpt>
      <trkpt lat="49.41015" lon="1.19785">
        <ele>176.2</ele>
        <time>2012-05-06T09:40:13.094Z</time>
      </trkpt>
      <trkpt lat="49.41014" lon="1.19776">
        <ele>175.9</ele>
        <time>2012-05-06T09:40:14.089Z</time>
      </trkpt>
      <trkpt lat="49.41014" lon="1.19768">
        <ele>176.1</ele>
        <time>2012-05-06T09:40:15.082Z</time>
      </trkpt>
      <trkpt lat="49.41013" lon="1.1976">
        <ele>176.5</ele>
        <time>2012-05-06T09:40:16.086Z</time>
      </trkpt>
      <trkpt lat="49.41012" lon="1.19753">
        <ele>177</ele>
        <time>2012-05-06T09:40:17.089Z</time>
      </trkpt>
      <trkpt lat="49.41012" lon="1.19746">
        <ele>176.9</ele>
        <time>2012-05-06T09:40:18.102Z</time>
      </trkpt>
      <trkpt lat="49.4101" lon="1.19731">
        <ele>177.3</ele>
        <time>2012-05-06T09:40:20.099Z</time>
      </trkpt>
      <trkpt lat="49.41008" lon="1.19723">
        <ele>177.5</ele>
        <time>2012-05-06T09:40:21.085Z</time>
      </trkpt>
      <trkpt lat="49.41007" lon="1.19716">
        <ele>177.7</ele>
        <time>2012-05-06T09:40:22.091Z</time>
      </trkpt>
      <trkpt lat="49.41005" lon="1.19709">
        <ele>177.7</ele>
        <time>2012-05-06T09:40:23.088Z</time>
      </trkpt>
      <trkpt lat="49.41004" lon="1.19702">
        <ele>177.6</ele>
        <time>2012-05-06T09:40:24.086Z</time>
      </trkpt>
      <trkpt lat="49.41002" lon="1.19695">
        <ele>177.7</ele>
        <time>2012-05-06T09:40:25.091Z</time>
      </trkpt>
      <trkpt lat="49.41001" lon="1.19688">
        <ele>177.7</ele>
        <time>2012-05-06T09:40:26.091Z</time>
      </trkpt>
      <trkpt lat="49.41" lon="1.1968">
        <ele>177.9</ele>
        <time>2012-05-06T09:40:27.090Z</time>
      </trkpt>
      <trkpt lat="49.40998" lon="1.19674">
        <ele>177.9</ele>
        <time>2012-05-06T09:40:28.081Z</time>
      </trkpt>
      <trkpt lat="49.40996" lon="1.19666">
        <ele>178.2</ele>
        <time>2012-05-06T09:40:29.091Z</time>
      </trkpt>
      <trkpt lat="49.40993" lon="1.19653">
        <ele>178.5</ele>
        <time>2012-05-06T09:40:31.085Z</time>
      </trkpt>
      <trkpt lat="49.40991" lon="1.19646">
        <ele>178.6</ele>
        <time>2012-05-06T09:40:32.090Z</time>
      </trkpt>
      <trkpt lat="49.4099" lon="1.19638">
        <ele>178.7</ele>
        <time>2012-05-06T09:40:33.088Z</time>
      </trkpt>
      <trkpt lat="49.40988" lon="1.19624">
        <ele>178.9</ele>
        <time>2012-05-06T09:40:35.090Z</time>
      </trkpt>
      <trkpt lat="49.40986" lon="1.19618">
        <ele>179.1</ele>
        <time>2012-05-06T09:40:36.095Z</time>
      </trkpt>
      <trkpt lat="49.40984" lon="1.19611">
        <ele>179.2</ele>
        <time>2012-05-06T09:40:37.095Z</time>
      </trkpt>
      <trkpt lat="49.40981" lon="1.19597">
        <ele>178.9</ele>
        <time>2012-05-06T09:40:39.100Z</time>
      </trkpt>
      <trkpt lat="49.40975" lon="1.19573">
        <ele>178.4</ele>
        <time>2012-05-06T09:40:42.614Z</time>
      </trkpt>
      <trkpt lat="49.40974" lon="1.19566">
        <ele>178</ele>
        <time>2012-05-06T09:40:43.614Z</time>
      </trkpt>
      <trkpt lat="49.40972" lon="1.19556">
        <ele>176.2</ele>
        <time>2012-05-06T09:40:45.105Z</time>
      </trkpt>
      <trkpt lat="49.40968" lon="1.19543">
        <ele>178.8</ele>
        <time>2012-05-06T09:40:47.106Z</time>
      </trkpt>
      <trkpt lat="49.40967" lon="1.19536">
        <ele>178.4</ele>
        <time>2012-05-06T09:40:48.094Z</time>
      </trkpt>
      <trkpt lat="49.40964" lon="1.19529">
        <ele>178.2</ele>
        <time>2012-05-06T09:40:49.084Z</time>
      </trkpt>
      <trkpt lat="49.4096" lon="1.19516">
        <ele>177.7</ele>
        <time>2012-05-06T09:40:51.088Z</time>
      </trkpt>
      <trkpt lat="49.40957" lon="1.19503">
        <ele>177.5</ele>
        <time>2012-05-06T09:40:53.086Z</time>
      </trkpt>
      <trkpt lat="49.40952" lon="1.19491">
        <ele>178.2</ele>
        <time>2012-05-06T09:40:55.082Z</time>
      </trkpt>
      <trkpt lat="49.40949" lon="1.19479">
        <ele>178.8</ele>
        <time>2012-05-06T09:40:57.083Z</time>
      </trkpt>
      <trkpt lat="49.40944" lon="1.19468">
        <ele>179.4</ele>
        <time>2012-05-06T09:40:59.103Z</time>
      </trkpt>
      <trkpt lat="49.40942" lon="1.19457">
        <ele>180.5</ele>
        <time>2012-05-06T09:41:01.082Z</time>
      </trkpt>
      <trkpt lat="49.40946" lon="1.19446">
        <ele>180.4</ele>
        <time>2012-05-06T09:41:03.094Z</time>
      </trkpt>
      <trkpt lat="49.40954" lon="1.19439">
        <ele>180</ele>
        <time>2012-05-06T09:41:05.082Z</time>
      </trkpt>
      <trkpt lat="49.40957" lon="1.19435">
        <ele>180.2</ele>
        <time>2012-05-06T09:41:06.095Z</time>
      </trkpt>
      <trkpt lat="49.40961" lon="1.19431">
        <ele>180.3</ele>
        <time>2012-05-06T09:41:07.091Z</time>
      </trkpt>
      <trkpt lat="49.40964" lon="1.19426">
        <ele>180.2</ele>
        <time>2012-05-06T09:41:08.094Z</time>
      </trkpt>
      <trkpt lat="49.40971" lon="1.19417">
        <ele>180.8</ele>
        <time>2012-05-06T09:41:10.082Z</time>
      </trkpt>
      <trkpt lat="49.40979" lon="1.1941">
        <ele>180.4</ele>
        <time>2012-05-06T09:41:12.095Z</time>
      </trkpt>
      <trkpt lat="49.40983" lon="1.19407">
        <ele>180.3</ele>
        <time>2012-05-06T09:41:13.091Z</time>
      </trkpt>
      <trkpt lat="49.40991" lon="1.19402">
        <ele>179.6</ele>
        <time>2012-05-06T09:41:15.092Z</time>
      </trkpt>
      <trkpt lat="49.40995" lon="1.19399">
        <ele>179.4</ele>
        <time>2012-05-06T09:41:16.093Z</time>
      </trkpt>
      <trkpt lat="49.41" lon="1.19397">
        <ele>178.9</ele>
        <time>2012-05-06T09:41:17.094Z</time>
      </trkpt>
      <trkpt lat="49.41004" lon="1.19395">
        <ele>178.8</ele>
        <time>2012-05-06T09:41:18.076Z</time>
      </trkpt>
      <trkpt lat="49.4101" lon="1.19394">
        <ele>178.3</ele>
        <time>2012-05-06T09:41:19.089Z</time>
      </trkpt>
      <trkpt lat="49.41014" lon="1.19391">
        <ele>177.4</ele>
        <time>2012-05-06T09:41:20.077Z</time>
      </trkpt>
      <trkpt lat="49.4102" lon="1.1939">
        <ele>177</ele>
        <time>2012-05-06T09:41:21.078Z</time>
      </trkpt>
      <trkpt lat="49.41025" lon="1.19388">
        <ele>175.7</ele>
        <time>2012-05-06T09:41:22.097Z</time>
      </trkpt>
      <trkpt lat="49.41031" lon="1.19387">
        <ele>175.4</ele>
        <time>2012-05-06T09:41:23.092Z</time>
      </trkpt>
      <trkpt lat="49.41036" lon="1.19384">
        <ele>175.5</ele>
        <time>2012-05-06T09:41:24.077Z</time>
      </trkpt>
      <trkpt lat="49.41041" lon="1.19383">
        <ele>174.9</ele>
        <time>2012-05-06T09:41:25.079Z</time>
      </trkpt>
      <trkpt lat="49.41047" lon="1.19381">
        <ele>174.2</ele>
        <time>2012-05-06T09:41:26.077Z</time>
      </trkpt>
      <trkpt lat="49.41052" lon="1.19379">
        <ele>174.1</ele>
        <time>2012-05-06T09:41:27.079Z</time>
      </trkpt>
      <trkpt lat="49.41057" lon="1.19377">
        <ele>173.8</ele>
        <time>2012-05-06T09:41:28.077Z</time>
      </trkpt>
      <trkpt lat="49.41062" lon="1.19376">
        <ele>173.2</ele>
        <time>2012-05-06T09:41:29.079Z</time>
      </trkpt>
      <trkpt lat="49.41068" lon="1.19374">
        <ele>172.8</ele>
        <time>2012-05-06T09:41:30.091Z</time>
      </trkpt>
      <trkpt lat="49.41073" lon="1.19372">
        <ele>172.5</ele>
        <time>2012-05-06T09:41:31.094Z</time>
      </trkpt>
      <trkpt lat="49.41078" lon="1.1937">
        <ele>172.1</ele>
        <time>2012-05-06T09:41:32.089Z</time>
      </trkpt>
      <trkpt lat="49.41084" lon="1.19368">
        <ele>171.3</ele>
        <time>2012-05-06T09:41:33.083Z</time>
      </trkpt>
      <trkpt lat="49.41088" lon="1.19366">
        <ele>171</ele>
        <time>2012-05-06T09:41:34.090Z</time>
      </trkpt>
      <trkpt lat="49.41093" lon="1.19364">
        <ele>170.2</ele>
        <time>2012-05-06T09:41:35.071Z</time>
      </trkpt>
      <trkpt lat="49.41098" lon="1.19362">
        <ele>169</ele>
        <time>2012-05-06T09:41:36.096Z</time>
      </trkpt>
      <trkpt lat="49.41103" lon="1.1936">
        <ele>168.8</ele>
        <time>2012-05-06T09:41:37.092Z</time>
      </trkpt>
      <trkpt lat="49.41109" lon="1.19359">
        <ele>169</ele>
        <time>2012-05-06T09:41:38.098Z</time>
      </trkpt>
      <trkpt lat="49.41114" lon="1.19357">
        <ele>168.7</ele>
        <time>2012-05-06T09:41:39.095Z</time>
      </trkpt>
      <trkpt lat="49.4112" lon="1.19355">
        <ele>168.6</ele>
        <time>2012-05-06T09:41:40.093Z</time>
      </trkpt>
      <trkpt lat="49.41132" lon="1.1935">
        <ele>168.2</ele>
        <time>2012-05-06T09:41:42.379Z</time>
      </trkpt>
      <trkpt lat="49.41138" lon="1.19349">
        <ele>167.9</ele>
        <time>2012-05-06T09:41:43.379Z</time>
      </trkpt>
      <trkpt lat="49.41148" lon="1.19346">
        <ele>167.6</ele>
        <time>2012-05-06T09:41:45.095Z</time>
      </trkpt>
      <trkpt lat="49.41154" lon="1.19344">
        <ele>167.2</ele>
        <time>2012-05-06T09:41:46.092Z</time>
      </trkpt>
      <trkpt lat="49.41161" lon="1.19342">
        <ele>167</ele>
        <time>2012-05-06T09:41:47.091Z</time>
      </trkpt>
      <trkpt lat="49.41168" lon="1.1934">
        <ele>166</ele>
        <time>2012-05-06T09:41:48.077Z</time>
      </trkpt>
      <trkpt lat="49.41174" lon="1.19338">
        <ele>165.7</ele>
        <time>2012-05-06T09:41:49.091Z</time>
      </trkpt>
      <trkpt lat="49.41181" lon="1.19336">
        <ele>165.5</ele>
        <time>2012-05-06T09:41:50.089Z</time>
      </trkpt>
      <trkpt lat="49.41186" lon="1.19335">
        <ele>164.6</ele>
        <time>2012-05-06T09:41:51.078Z</time>
      </trkpt>
      <trkpt lat="49.41192" lon="1.19334">
        <ele>164.4</ele>
        <time>2012-05-06T09:41:52.092Z</time>
      </trkpt>
      <trkpt lat="49.41197" lon="1.19334">
        <ele>164</ele>
        <time>2012-05-06T09:41:53.095Z</time>
      </trkpt>
      <trkpt lat="49.41202" lon="1.19333">
        <ele>164.2</ele>
        <time>2012-05-06T09:41:54.092Z</time>
      </trkpt>
      <trkpt lat="49.41208" lon="1.19332">
        <ele>163.7</ele>
        <time>2012-05-06T09:41:55.092Z</time>
      </trkpt>
      <trkpt lat="49.41214" lon="1.19331">
        <ele>162.8</ele>
        <time>2012-05-06T09:41:56.091Z</time>
      </trkpt>
      <trkpt lat="49.4122" lon="1.19331">
        <ele>162.8</ele>
        <time>2012-05-06T09:41:57.093Z</time>
      </trkpt>
      <trkpt lat="49.41226" lon="1.1933">
        <ele>162.2</ele>
        <time>2012-05-06T09:41:58.091Z</time>
      </trkpt>
      <trkpt lat="49.41232" lon="1.19329">
        <ele>161.9</ele>
        <time>2012-05-06T09:41:59.092Z</time>
      </trkpt>
      <trkpt lat="49.41237" lon="1.19327">
        <ele>161.9</ele>
        <time>2012-05-06T09:42:00.093Z</time>
      </trkpt>
      <trkpt lat="49.41243" lon="1.19325">
        <ele>162</ele>
        <time>2012-05-06T09:42:01.093Z</time>
      </trkpt>
      <trkpt lat="49.41248" lon="1.19325">
        <ele>162.2</ele>
        <time>2012-05-06T09:42:02.093Z</time>
      </trkpt>
      <trkpt lat="49.41255" lon="1.1932">
        <ele>162.8</ele>
        <time>2012-05-06T09:42:04.094Z</time>
      </trkpt>
      <trkpt lat="49.41261" lon="1.19318">
        <ele>163.4</ele>
        <time>2012-05-06T09:42:05.094Z</time>
      </trkpt>
      <trkpt lat="49.41266" lon="1.19318">
        <ele>163.3</ele>
        <time>2012-05-06T09:42:06.094Z</time>
      </trkpt>
      <trkpt lat="49.41271" lon="1.19321">
        <ele>163.6</ele>
        <time>2012-05-06T09:42:07.094Z</time>
      </trkpt>
      <trkpt lat="49.41277" lon="1.1932">
        <ele>163.6</ele>
        <time>2012-05-06T09:42:08.093Z</time>
      </trkpt>
      <trkpt lat="49.41281" lon="1.19324">
        <ele>163.8</ele>
        <time>2012-05-06T09:42:09.087Z</time>
      </trkpt>
      <trkpt lat="49.41287" lon="1.1932">
        <ele>164</ele>
        <time>2012-05-06T09:42:10.094Z</time>
      </trkpt>
      <trkpt lat="49.41291" lon="1.19318">
        <ele>164.1</ele>
        <time>2012-05-06T09:42:11.096Z</time>
      </trkpt>
      <trkpt lat="49.41296" lon="1.19321">
        <ele>164.4</ele>
        <time>2012-05-06T09:42:12.089Z</time>
      </trkpt>
      <trkpt lat="49.41303" lon="1.1932">
        <ele>165.2</ele>
        <time>2012-05-06T09:42:14.083Z</time>
      </trkpt>
      <trkpt lat="49.41309" lon="1.19317">
        <ele>167.8</ele>
        <time>2012-05-06T09:42:16.085Z</time>
      </trkpt>
      <trkpt lat="49.41313" lon="1.19312">
        <ele>166.9</ele>
        <time>2012-05-06T09:42:18.082Z</time>
      </trkpt>
      <trkpt lat="49.41318" lon="1.19309">
        <ele>165.5</ele>
        <time>2012-05-06T09:42:20.082Z</time>
      </trkpt>
      <trkpt lat="49.41322" lon="1.19297">
        <ele>163.8</ele>
        <time>2012-05-06T09:42:22.086Z</time>
      </trkpt>
      <trkpt lat="49.41326" lon="1.19285">
        <ele>161.2</ele>
        <time>2012-05-06T09:42:24.086Z</time>
      </trkpt>
      <trkpt lat="49.41332" lon="1.19274">
        <ele>160.4</ele>
        <time>2012-05-06T09:42:26.090Z</time>
      </trkpt>
      <trkpt lat="49.4134" lon="1.19263">
        <ele>160.3</ele>
        <time>2012-05-06T09:42:28.084Z</time>
      </trkpt>
      <trkpt lat="49.4135" lon="1.19263">
        <ele>161</ele>
        <time>2012-05-06T09:42:29.092Z</time>
      </trkpt>
      <trkpt lat="49.41357" lon="1.19259">
        <ele>161.9</ele>
        <time>2012-05-06T09:42:30.092Z</time>
      </trkpt>
      <trkpt lat="49.41362" lon="1.19257">
        <ele>162.1</ele>
        <time>2012-05-06T09:42:31.077Z</time>
      </trkpt>
      <trkpt lat="49.41368" lon="1.1925">
        <ele>161.9</ele>
        <time>2012-05-06T09:42:33.091Z</time>
      </trkpt>
      <trkpt lat="49.41377" lon="1.19242">
        <ele>159.1</ele>
        <time>2012-05-06T09:42:35.093Z</time>
      </trkpt>
      <trkpt lat="49.41383" lon="1.19239">
        <ele>158.4</ele>
        <time>2012-05-06T09:42:36.077Z</time>
      </trkpt>
      <trkpt lat="49.41388" lon="1.19238">
        <ele>157.9</ele>
        <time>2012-05-06T09:42:37.092Z</time>
      </trkpt>
      <trkpt lat="49.41393" lon="1.19238">
        <ele>158.3</ele>
        <time>2012-05-06T09:42:38.077Z</time>
      </trkpt>
      <trkpt lat="49.41398" lon="1.19238">
        <ele>158.9</ele>
        <time>2012-05-06T09:42:39.092Z</time>
      </trkpt>
      <trkpt lat="49.41403" lon="1.1924">
        <ele>156.6</ele>
        <time>2012-05-06T09:42:40.077Z</time>
      </trkpt>
      <trkpt lat="49.41417" lon="1.19239">
        <ele>154.8</ele>
        <time>2012-05-06T09:42:42.361Z</time>
      </trkpt>
      <trkpt lat="49.41424" lon="1.19238">
        <ele>153.3</ele>
        <time>2012-05-06T09:42:43.361Z</time>
      </trkpt>
      <trkpt lat="49.41438" lon="1.19233">
        <ele>151.2</ele>
        <time>2012-05-06T09:42:45.080Z</time>
      </trkpt>
      <trkpt lat="49.41446" lon="1.19227">
        <ele>150.5</ele>
        <time>2012-05-06T09:42:46.078Z</time>
      </trkpt>
      <trkpt lat="49.41452" lon="1.19221">
        <ele>150</ele>
        <time>2012-05-06T09:42:47.090Z</time>
      </trkpt>
      <trkpt lat="49.41461" lon="1.19213">
        <ele>149.9</ele>
        <time>2012-05-06T09:42:48.092Z</time>
      </trkpt>
      <trkpt lat="49.41464" lon="1.19206">
        <ele>147.9</ele>
        <time>2012-05-06T09:42:49.078Z</time>
      </trkpt>
      <trkpt lat="49.41469" lon="1.19196">
        <ele>147.3</ele>
        <time>2012-05-06T09:42:50.075Z</time>
      </trkpt>
      <trkpt lat="49.41474" lon="1.19191">
        <ele>146.2</ele>
        <time>2012-05-06T09:42:51.090Z</time>
      </trkpt>
      <trkpt lat="49.41479" lon="1.19184">
        <ele>146.3</ele>
        <time>2012-05-06T09:42:52.086Z</time>
      </trkpt>
      <trkpt lat="49.41484" lon="1.19177">
        <ele>146.3</ele>
        <time>2012-05-06T09:42:53.076Z</time>
      </trkpt>
      <trkpt lat="49.41497" lon="1.19177">
        <ele>143.4</ele>
        <time>2012-05-06T09:42:55.089Z</time>
      </trkpt>
      <trkpt lat="49.41505" lon="1.19176">
        <ele>138.5</ele>
        <time>2012-05-06T09:42:56.095Z</time>
      </trkpt>
      <trkpt lat="49.41512" lon="1.19176">
        <ele>137.4</ele>
        <time>2012-05-06T09:42:57.087Z</time>
      </trkpt>
      <trkpt lat="49.41518" lon="1.19176">
        <ele>135.7</ele>
        <time>2012-05-06T09:42:58.086Z</time>
      </trkpt>
      <trkpt lat="49.41526" lon="1.19176">
        <ele>135.6</ele>
        <time>2012-05-06T09:42:59.078Z</time>
      </trkpt>
      <trkpt lat="49.41531" lon="1.19174">
        <ele>133.8</ele>
        <time>2012-05-06T09:43:00.079Z</time>
      </trkpt>
      <trkpt lat="49.41537" lon="1.19168">
        <ele>132.2</ele>
        <time>2012-05-06T09:43:01.080Z</time>
      </trkpt>
      <trkpt lat="49.41544" lon="1.19162">
        <ele>131</ele>
        <time>2012-05-06T09:43:02.080Z</time>
      </trkpt>
      <trkpt lat="49.41549" lon="1.19155">
        <ele>127.6</ele>
        <time>2012-05-06T09:43:03.079Z</time>
      </trkpt>
      <trkpt lat="49.41556" lon="1.19151">
        <ele>125.1</ele>
        <time>2012-05-06T09:43:04.078Z</time>
      </trkpt>
      <trkpt lat="49.41562" lon="1.19149">
        <ele>122.7</ele>
        <time>2012-05-06T09:43:05.086Z</time>
      </trkpt>
      <trkpt lat="49.4157" lon="1.1915">
        <ele>121.5</ele>
        <time>2012-05-06T09:43:06.086Z</time>
      </trkpt>
      <trkpt lat="49.41578" lon="1.19152">
        <ele>120</ele>
        <time>2012-05-06T09:43:07.083Z</time>
      </trkpt>
      <trkpt lat="49.41585" lon="1.19156">
        <ele>119.5</ele>
        <time>2012-05-06T09:43:08.086Z</time>
      </trkpt>
      <trkpt lat="49.41592" lon="1.19162">
        <ele>117.5</ele>
        <time>2012-05-06T09:43:09.083Z</time>
      </trkpt>
      <trkpt lat="49.41598" lon="1.19168">
        <ele>115.3</ele>
        <time>2012-05-06T09:43:10.083Z</time>
      </trkpt>
      <trkpt lat="49.41605" lon="1.19175">
        <ele>114.4</ele>
        <time>2012-05-06T09:43:11.084Z</time>
      </trkpt>
      <trkpt lat="49.41612" lon="1.19181">
        <ele>112.6</ele>
        <time>2012-05-06T09:43:12.085Z</time>
      </trkpt>
      <trkpt lat="49.4162" lon="1.19187">
        <ele>111.5</ele>
        <time>2012-05-06T09:43:13.084Z</time>
      </trkpt>
      <trkpt lat="49.41629" lon="1.19194">
        <ele>110.2</ele>
        <time>2012-05-06T09:43:14.084Z</time>
      </trkpt>
      <trkpt lat="49.41637" lon="1.19199">
        <ele>109</ele>
        <time>2012-05-06T09:43:15.082Z</time>
      </trkpt>
      <trkpt lat="49.41645" lon="1.19203">
        <ele>108.2</ele>
        <time>2012-05-06T09:43:16.084Z</time>
      </trkpt>
      <trkpt lat="49.41652" lon="1.19207">
        <ele>106.9</ele>
        <time>2012-05-06T09:43:17.081Z</time>
      </trkpt>
      <trkpt lat="49.41659" lon="1.19209">
        <ele>106.1</ele>
        <time>2012-05-06T09:43:18.083Z</time>
      </trkpt>
      <trkpt lat="49.41665" lon="1.19211">
        <ele>105.3</ele>
        <time>2012-05-06T09:43:19.091Z</time>
      </trkpt>
      <trkpt lat="49.4167" lon="1.19213">
        <ele>104.2</ele>
        <time>2012-05-06T09:43:20.092Z</time>
      </trkpt>
      <trkpt lat="49.41676" lon="1.19209">
        <ele>102.9</ele>
        <time>2012-05-06T09:43:22.086Z</time>
      </trkpt>
      <trkpt lat="49.4168" lon="1.19197">
        <ele>102</ele>
        <time>2012-05-06T09:43:24.094Z</time>
      </trkpt>
      <trkpt lat="49.41681" lon="1.19189">
        <ele>101.8</ele>
        <time>2012-05-06T09:43:25.094Z</time>
      </trkpt>
      <trkpt lat="49.41684" lon="1.19182">
        <ele>101.8</ele>
        <time>2012-05-06T09:43:26.094Z</time>
      </trkpt>
      <trkpt lat="49.41685" lon="1.19174">
        <ele>101</ele>
        <time>2012-05-06T09:43:27.077Z</time>
      </trkpt>
      <trkpt lat="49.41687" lon="1.19165">
        <ele>101.4</ele>
        <time>2012-05-06T09:43:28.086Z</time>
      </trkpt>
      <trkpt lat="49.4169" lon="1.19157">
        <ele>101.2</ele>
        <time>2012-05-06T09:43:29.094Z</time>
      </trkpt>
      <trkpt lat="49.41692" lon="1.19148">
        <ele>100.7</ele>
        <time>2012-05-06T09:43:30.101Z</time>
      </trkpt>
      <trkpt lat="49.41694" lon="1.19139">
        <ele>99.8</ele>
        <time>2012-05-06T09:43:31.091Z</time>
      </trkpt>
      <trkpt lat="49.41696" lon="1.1913">
        <ele>99.5</ele>
        <time>2012-05-06T09:43:32.083Z</time>
      </trkpt>
      <trkpt lat="49.41698" lon="1.19118">
        <ele>99.2</ele>
        <time>2012-05-06T09:43:33.221Z</time>
      </trkpt>
      <trkpt lat="49.41699" lon="1.19108">
        <ele>99.2</ele>
        <time>2012-05-06T09:43:34.221Z</time>
      </trkpt>
      <trkpt lat="49.41701" lon="1.19098">
        <ele>99.1</ele>
        <time>2012-05-06T09:43:35.221Z</time>
      </trkpt>
      <trkpt lat="49.41703" lon="1.19088">
        <ele>99</ele>
        <time>2012-05-06T09:43:36.221Z</time>
      </trkpt>
      <trkpt lat="49.41705" lon="1.19078">
        <ele>98.7</ele>
        <time>2012-05-06T09:43:37.221Z</time>
      </trkpt>
      <trkpt lat="49.41707" lon="1.1907">
        <ele>98.6</ele>
        <time>2012-05-06T09:43:38.221Z</time>
      </trkpt>
      <trkpt lat="49.41709" lon="1.19062">
        <ele>98.3</ele>
        <time>2012-05-06T09:43:39.221Z</time>
      </trkpt>
      <trkpt lat="49.41711" lon="1.19054">
        <ele>98.5</ele>
        <time>2012-05-06T09:43:40.221Z</time>
      </trkpt>
      <trkpt lat="49.41717" lon="1.19041">
        <ele>95.5</ele>
        <time>2012-05-06T09:43:42.091Z</time>
      </trkpt>
      <trkpt lat="49.4172" lon="1.19033">
        <ele>95.2</ele>
        <time>2012-05-06T09:43:43.094Z</time>
      </trkpt>
      <trkpt lat="49.41723" lon="1.19025">
        <ele>95.5</ele>
        <time>2012-05-06T09:43:44.089Z</time>
      </trkpt>
      <trkpt lat="49.41727" lon="1.19017">
        <ele>95.1</ele>
        <time>2012-05-06T09:43:45.083Z</time>
      </trkpt>
      <trkpt lat="49.4173" lon="1.19008">
        <ele>95.3</ele>
        <time>2012-05-06T09:43:46.086Z</time>
      </trkpt>
      <trkpt lat="49.41734" lon="1.19">
        <ele>95.6</ele>
        <time>2012-05-06T09:43:47.094Z</time>
      </trkpt>
      <trkpt lat="49.41737" lon="1.18991">
        <ele>95.8</ele>
        <time>2012-05-06T09:43:48.093Z</time>
      </trkpt>
      <trkpt lat="49.4174" lon="1.18981">
        <ele>95.9</ele>
        <time>2012-05-06T09:43:49.081Z</time>
      </trkpt>
      <trkpt lat="49.41742" lon="1.18972">
        <ele>95.8</ele>
        <time>2012-05-06T09:43:50.091Z</time>
      </trkpt>
      <trkpt lat="49.41743" lon="1.18962">
        <ele>95.5</ele>
        <time>2012-05-06T09:43:51.088Z</time>
      </trkpt>
      <trkpt lat="49.41744" lon="1.18951">
        <ele>95.3</ele>
        <time>2012-05-06T09:43:52.091Z</time>
      </trkpt>
      <trkpt lat="49.41744" lon="1.18941">
        <ele>95.1</ele>
        <time>2012-05-06T09:43:53.076Z</time>
      </trkpt>
      <trkpt lat="49.41746" lon="1.18931">
        <ele>95</ele>
        <time>2012-05-06T09:43:54.086Z</time>
      </trkpt>
      <trkpt lat="49.41747" lon="1.1892">
        <ele>94.6</ele>
        <time>2012-05-06T09:43:55.080Z</time>
      </trkpt>
      <trkpt lat="49.41749" lon="1.1891">
        <ele>95</ele>
        <time>2012-05-06T09:43:56.090Z</time>
      </trkpt>
      <trkpt lat="49.41752" lon="1.18901">
        <ele>95</ele>
        <time>2012-05-06T09:43:57.090Z</time>
      </trkpt>
      <trkpt lat="49.41754" lon="1.1889">
        <ele>94.7</ele>
        <time>2012-05-06T09:43:58.086Z</time>
      </trkpt>
      <trkpt lat="49.41758" lon="1.1888">
        <ele>95.4</ele>
        <time>2012-05-06T09:43:59.087Z</time>
      </trkpt>
      <trkpt lat="49.41761" lon="1.18871">
        <ele>94.9</ele>
        <time>2012-05-06T09:44:00.087Z</time>
      </trkpt>
      <trkpt lat="49.41765" lon="1.18861">
        <ele>94.5</ele>
        <time>2012-05-06T09:44:01.093Z</time>
      </trkpt>
      <trkpt lat="49.41769" lon="1.18851">
        <ele>94.8</ele>
        <time>2012-05-06T09:44:02.094Z</time>
      </trkpt>
      <trkpt lat="49.41773" lon="1.18841">
        <ele>95</ele>
        <time>2012-05-06T09:44:03.090Z</time>
      </trkpt>
      <trkpt lat="49.41778" lon="1.1883">
        <ele>95.2</ele>
        <time>2012-05-06T09:44:04.083Z</time>
      </trkpt>
      <trkpt lat="49.41782" lon="1.1882">
        <ele>95.5</ele>
        <time>2012-05-06T09:44:05.093Z</time>
      </trkpt>
      <trkpt lat="49.41787" lon="1.18811">
        <ele>95.5</ele>
        <time>2012-05-06T09:44:06.094Z</time>
      </trkpt>
      <trkpt lat="49.41791" lon="1.18802">
        <ele>95.5</ele>
        <time>2012-05-06T09:44:07.076Z</time>
      </trkpt>
      <trkpt lat="49.41796" lon="1.18792">
        <ele>95.5</ele>
        <time>2012-05-06T09:44:08.091Z</time>
      </trkpt>
      <trkpt lat="49.41801" lon="1.18783">
        <ele>95.4</ele>
        <time>2012-05-06T09:44:09.079Z</time>
      </trkpt>
      <trkpt lat="49.41805" lon="1.18773">
        <ele>94.6</ele>
        <time>2012-05-06T09:44:10.092Z</time>
      </trkpt>
      <trkpt lat="49.4181" lon="1.18765">
        <ele>94.5</ele>
        <time>2012-05-06T09:44:11.094Z</time>
      </trkpt>
      <trkpt lat="49.41816" lon="1.18757">
        <ele>94.2</ele>
        <time>2012-05-06T09:44:12.079Z</time>
      </trkpt>
      <trkpt lat="49.41822" lon="1.18748">
        <ele>94.4</ele>
        <time>2012-05-06T09:44:13.094Z</time>
      </trkpt>
      <trkpt lat="49.41827" lon="1.18741">
        <ele>93.9</ele>
        <time>2012-05-06T09:44:14.094Z</time>
      </trkpt>
      <trkpt lat="49.41832" lon="1.18734">
        <ele>93.6</ele>
        <time>2012-05-06T09:44:15.091Z</time>
      </trkpt>
      <trkpt lat="49.41838" lon="1.18727">
        <ele>93.4</ele>
        <time>2012-05-06T09:44:16.080Z</time>
      </trkpt>
      <trkpt lat="49.41842" lon="1.18721">
        <ele>93.5</ele>
        <time>2012-05-06T09:44:17.087Z</time>
      </trkpt>
      <trkpt lat="49.41845" lon="1.18716">
        <ele>94</ele>
        <time>2012-05-06T09:44:18.080Z</time>
      </trkpt>
      <trkpt lat="49.41851" lon="1.18709">
        <ele>92.7</ele>
        <time>2012-05-06T09:44:20.091Z</time>
      </trkpt>
      <trkpt lat="49.41854" lon="1.18705">
        <ele>91.9</ele>
        <time>2012-05-06T09:44:22.076Z</time>
      </trkpt>
      <trkpt lat="49.41858" lon="1.18697">
        <ele>91.3</ele>
        <time>2012-05-06T09:44:25.078Z</time>
      </trkpt>
      <trkpt lat="49.41862" lon="1.18689">
        <ele>91.3</ele>
        <time>2012-05-06T09:44:27.086Z</time>
      </trkpt>
      <trkpt lat="49.41867" lon="1.18679">
        <ele>92.3</ele>
        <time>2012-05-06T09:44:29.078Z</time>
      </trkpt>
      <trkpt lat="49.41873" lon="1.18668">
        <ele>92.8</ele>
        <time>2012-05-06T09:44:31.093Z</time>
      </trkpt>
      <trkpt lat="49.41877" lon="1.18661">
        <ele>92.5</ele>
        <time>2012-05-06T09:44:32.086Z</time>
      </trkpt>
      <trkpt lat="49.41879" lon="1.18655">
        <ele>91.8</ele>
        <time>2012-05-06T09:44:33.092Z</time>
      </trkpt>
      <trkpt lat="49.41883" lon="1.18648">
        <ele>91.3</ele>
        <time>2012-05-06T09:44:34.104Z</time>
      </trkpt>
      <trkpt lat="49.41886" lon="1.18641">
        <ele>91</ele>
        <time>2012-05-06T09:44:35.092Z</time>
      </trkpt>
      <trkpt lat="49.41889" lon="1.18634">
        <ele>90.9</ele>
        <time>2012-05-06T09:44:36.082Z</time>
      </trkpt>
      <trkpt lat="49.41891" lon="1.18626">
        <ele>90.9</ele>
        <time>2012-05-06T09:44:37.090Z</time>
      </trkpt>
      <trkpt lat="49.41894" lon="1.1862">
        <ele>91.5</ele>
        <time>2012-05-06T09:44:38.090Z</time>
      </trkpt>
      <trkpt lat="49.41894" lon="1.18612">
        <ele>90.7</ele>
        <time>2012-05-06T09:44:39.084Z</time>
      </trkpt>
      <trkpt lat="49.41896" lon="1.18603">
        <ele>90.3</ele>
        <time>2012-05-06T09:44:40.091Z</time>
      </trkpt>
      <trkpt lat="49.419" lon="1.18586">
        <ele>90.4</ele>
        <time>2012-05-06T09:44:42.342Z</time>
      </trkpt>
      <trkpt lat="49.41901" lon="1.18578">
        <ele>90.4</ele>
        <time>2012-05-06T09:44:43.342Z</time>
      </trkpt>
      <trkpt lat="49.41903" lon="1.18566">
        <ele>89.3</ele>
        <time>2012-05-06T09:44:45.072Z</time>
      </trkpt>
      <trkpt lat="49.41907" lon="1.18553">
        <ele>89.7</ele>
        <time>2012-05-06T09:44:47.088Z</time>
      </trkpt>
      <trkpt lat="49.41908" lon="1.18544">
        <ele>88.7</ele>
        <time>2012-05-06T09:44:49.081Z</time>
      </trkpt>
      <trkpt lat="49.41904" lon="1.18534">
        <ele>87.5</ele>
        <time>2012-05-06T09:44:52.076Z</time>
      </trkpt>
      <trkpt lat="49.41898" lon="1.18528">
        <ele>87.9</ele>
        <time>2012-05-06T09:44:54.080Z</time>
      </trkpt>
      <trkpt lat="49.41889" lon="1.18523">
        <ele>88.1</ele>
        <time>2012-05-06T09:44:56.091Z</time>
      </trkpt>
      <trkpt lat="49.41885" lon="1.1852">
        <ele>88.8</ele>
        <time>2012-05-06T09:44:57.076Z</time>
      </trkpt>
      <trkpt lat="49.4188" lon="1.18518">
        <ele>89.6</ele>
        <time>2012-05-06T09:44:58.081Z</time>
      </trkpt>
      <trkpt lat="49.41876" lon="1.18516">
        <ele>89.7</ele>
        <time>2012-05-06T09:44:59.084Z</time>
      </trkpt>
      <trkpt lat="49.41871" lon="1.18513">
        <ele>89</ele>
        <time>2012-05-06T09:45:00.089Z</time>
      </trkpt>
      <trkpt lat="49.41867" lon="1.1851">
        <ele>88.7</ele>
        <time>2012-05-06T09:45:01.081Z</time>
      </trkpt>
      <trkpt lat="49.41862" lon="1.18506">
        <ele>87.9</ele>
        <time>2012-05-06T09:45:02.089Z</time>
      </trkpt>
      <trkpt lat="49.41857" lon="1.18494">
        <ele>87.5</ele>
        <time>2012-05-06T09:45:04.086Z</time>
      </trkpt>
      <trkpt lat="49.41856" lon="1.18487">
        <ele>87.7</ele>
        <time>2012-05-06T09:45:05.091Z</time>
      </trkpt>
      <trkpt lat="49.41856" lon="1.18478">
        <ele>87.6</ele>
        <time>2012-05-06T09:45:06.086Z</time>
      </trkpt>
      <trkpt lat="49.41857" lon="1.1847">
        <ele>88.8</ele>
        <time>2012-05-06T09:45:07.092Z</time>
      </trkpt>
      <trkpt lat="49.4186" lon="1.18463">
        <ele>89.3</ele>
        <time>2012-05-06T09:45:08.083Z</time>
      </trkpt>
      <trkpt lat="49.41862" lon="1.18456">
        <ele>90.2</ele>
        <time>2012-05-06T09:45:09.090Z</time>
      </trkpt>
      <trkpt lat="49.41865" lon="1.18449">
        <ele>90.8</ele>
        <time>2012-05-06T09:45:10.086Z</time>
      </trkpt>
      <trkpt lat="49.41868" lon="1.18443">
        <ele>90.7</ele>
        <time>2012-05-06T09:45:11.085Z</time>
      </trkpt>
      <trkpt lat="49.41874" lon="1.18434">
        <ele>92.2</ele>
        <time>2012-05-06T09:45:13.091Z</time>
      </trkpt>
      <trkpt lat="49.41879" lon="1.18427">
        <ele>92.3</ele>
        <time>2012-05-06T09:45:15.091Z</time>
      </trkpt>
      <trkpt lat="49.41883" lon="1.18422">
        <ele>92.1</ele>
        <time>2012-05-06T09:45:16.090Z</time>
      </trkpt>
      <trkpt lat="49.41886" lon="1.18416">
        <ele>92.1</ele>
        <time>2012-05-06T09:45:17.085Z</time>
      </trkpt>
      <trkpt lat="49.41889" lon="1.1841">
        <ele>91</ele>
        <time>2012-05-06T09:45:18.092Z</time>
      </trkpt>
      <trkpt lat="49.4189" lon="1.18402">
        <ele>89.4</ele>
        <time>2012-05-06T09:45:19.094Z</time>
      </trkpt>
      <trkpt lat="49.4189" lon="1.18395">
        <ele>89.7</ele>
        <time>2012-05-06T09:45:20.086Z</time>
      </trkpt>
      <trkpt lat="49.41888" lon="1.1838">
        <ele>91.9</ele>
        <time>2012-05-06T09:45:22.091Z</time>
      </trkpt>
      <trkpt lat="49.41885" lon="1.18374">
        <ele>91.2</ele>
        <time>2012-05-06T09:45:23.093Z</time>
      </trkpt>
      <trkpt lat="49.41883" lon="1.18368">
        <ele>91.2</ele>
        <time>2012-05-06T09:45:24.091Z</time>
      </trkpt>
      <trkpt lat="49.4188" lon="1.18361">
        <ele>91.8</ele>
        <time>2012-05-06T09:45:25.078Z</time>
      </trkpt>
      <trkpt lat="49.41877" lon="1.18354">
        <ele>92.5</ele>
        <time>2012-05-06T09:45:26.077Z</time>
      </trkpt>
      <trkpt lat="49.41874" lon="1.18347">
        <ele>92.5</ele>
        <time>2012-05-06T09:45:27.090Z</time>
      </trkpt>
      <trkpt lat="49.41872" lon="1.1834">
        <ele>92.9</ele>
        <time>2012-05-06T09:45:28.091Z</time>
      </trkpt>
      <trkpt lat="49.41869" lon="1.18334">
        <ele>93.2</ele>
        <time>2012-05-06T09:45:29.080Z</time>
      </trkpt>
      <trkpt lat="49.41865" lon="1.18322">
        <ele>93.1</ele>
        <time>2012-05-06T09:45:31.086Z</time>
      </trkpt>
      <trkpt lat="49.41861" lon="1.18312">
        <ele>92.6</ele>
        <time>2012-05-06T09:45:33.091Z</time>
      </trkpt>
      <trkpt lat="49.41858" lon="1.18303">
        <ele>93.5</ele>
        <time>2012-05-06T09:45:35.090Z</time>
      </trkpt>
      <trkpt lat="49.41854" lon="1.18297">
        <ele>94.3</ele>
        <time>2012-05-06T09:45:37.093Z</time>
      </trkpt>
      <trkpt lat="49.41851" lon="1.18291">
        <ele>95.4</ele>
        <time>2012-05-06T09:45:43.855Z</time>
      </trkpt>
      <trkpt lat="49.41847" lon="1.18287">
        <ele>97.4</ele>
        <time>2012-05-06T09:45:50.077Z</time>
      </trkpt>
      <trkpt lat="49.41848" lon="1.18279">
        <ele>98.2</ele>
        <time>2012-05-06T09:46:04.092Z</time>
      </trkpt>
      <trkpt lat="49.4185" lon="1.1827">
        <ele>94.5</ele>
        <time>2012-05-06T09:46:08.087Z</time>
      </trkpt>
      <trkpt lat="49.41852" lon="1.18262">
        <ele>95.4</ele>
        <time>2012-05-06T09:46:12.078Z</time>
      </trkpt>
      <trkpt lat="49.41854" lon="1.18255">
        <ele>97.4</ele>
        <time>2012-05-06T09:46:15.086Z</time>
      </trkpt>
      <trkpt lat="49.41854" lon="1.18248">
        <ele>100.7</ele>
        <time>2012-05-06T09:46:19.091Z</time>
      </trkpt>
      <trkpt lat="49.41855" lon="1.18241">
        <ele>102</ele>
        <time>2012-05-06T09:46:22.095Z</time>
      </trkpt>
      <trkpt lat="49.41857" lon="1.18234">
        <ele>103.2</ele>
        <time>2012-05-06T09:46:25.077Z</time>
      </trkpt>
      <trkpt lat="49.41853" lon="1.18231">
        <ele>100.8</ele>
        <time>2012-05-06T09:46:32.091Z</time>
      </trkpt>
      <trkpt lat="49.41853" lon="1.18222">
        <ele>99.1</ele>
        <time>2012-05-06T09:46:39.086Z</time>
      </trkpt>
      <trkpt lat="49.41852" lon="1.18214">
        <ele>99.6</ele>
        <time>2012-05-06T09:46:43.374Z</time>
      </trkpt>
      <trkpt lat="49.41848" lon="1.1821">
        <ele>103</ele>
        <time>2012-05-06T09:46:51.092Z</time>
      </trkpt>
      <trkpt lat="49.41846" lon="1.18202">
        <ele>102.4</ele>
        <time>2012-05-06T09:46:57.087Z</time>
      </trkpt>
      <trkpt lat="49.41844" lon="1.18195">
        <ele>99</ele>
        <time>2012-05-06T09:47:04.245Z</time>
      </trkpt>
      <trkpt lat="49.41846" lon="1.18187">
        <ele>102.4</ele>
        <time>2012-05-06T09:47:08.245Z</time>
      </trkpt>
      <trkpt lat="49.41844" lon="1.18177">
        <ele>102.3</ele>
        <time>2012-05-06T09:47:12.245Z</time>
      </trkpt>
      <trkpt lat="49.41844" lon="1.18167">
        <ele>104.4</ele>
        <time>2012-05-06T09:47:15.245Z</time>
      </trkpt>
      <trkpt lat="49.41839" lon="1.18163">
        <ele>103.6</ele>
        <time>2012-05-06T09:47:19.079Z</time>
      </trkpt>
      <trkpt lat="49.41835" lon="1.18159">
        <ele>105.1</ele>
        <time>2012-05-06T09:47:24.078Z</time>
      </trkpt>
      <trkpt lat="49.41835" lon="1.18148">
        <ele>106.8</ele>
        <time>2012-05-06T09:47:28.088Z</time>
      </trkpt>
      <trkpt lat="49.41835" lon="1.1814">
        <ele>108.4</ele>
        <time>2012-05-06T09:47:34.089Z</time>
      </trkpt>
      <trkpt lat="49.41835" lon="1.18149">
        <ele>115.2</ele>
        <time>2012-05-06T09:48:07.077Z</time>
      </trkpt>
      <trkpt lat="49.41832" lon="1.18157">
        <ele>115.2</ele>
        <time>2012-05-06T09:48:11.079Z</time>
      </trkpt>
      <trkpt lat="49.41829" lon="1.18164">
        <ele>113.6</ele>
        <time>2012-05-06T09:48:13.092Z</time>
      </trkpt>
      <trkpt lat="49.41825" lon="1.18172">
        <ele>115.8</ele>
        <time>2012-05-06T09:48:16.093Z</time>
      </trkpt>
      <trkpt lat="49.41822" lon="1.18179">
        <ele>118.1</ele>
        <time>2012-05-06T09:48:19.084Z</time>
      </trkpt>
      <trkpt lat="49.41819" lon="1.18186">
        <ele>121.5</ele>
        <time>2012-05-06T09:48:22.093Z</time>
      </trkpt>
      <trkpt lat="49.41816" lon="1.18194">
        <ele>124</ele>
        <time>2012-05-06T09:48:25.093Z</time>
      </trkpt>
      <trkpt lat="49.41813" lon="1.18199">
        <ele>123.7</ele>
        <time>2012-05-06T09:48:27.093Z</time>
      </trkpt>
      <trkpt lat="49.41809" lon="1.18204">
        <ele>123</ele>
        <time>2012-05-06T09:48:29.085Z</time>
      </trkpt>
      <trkpt lat="49.41804" lon="1.18211">
        <ele>124.5</ele>
        <time>2012-05-06T09:48:32.088Z</time>
      </trkpt>
      <trkpt lat="49.418" lon="1.18215">
        <ele>125.2</ele>
        <time>2012-05-06T09:48:34.084Z</time>
      </trkpt>
      <trkpt lat="49.41796" lon="1.1822">
        <ele>126.1</ele>
        <time>2012-05-06T09:48:38.082Z</time>
      </trkpt>
      <trkpt lat="49.41794" lon="1.18227">
        <ele>127.7</ele>
        <time>2012-05-06T09:48:42.367Z</time>
      </trkpt>
      <trkpt lat="49.4179" lon="1.18236">
        <ele>131.2</ele>
        <time>2012-05-06T09:48:46.087Z</time>
      </trkpt>
      <trkpt lat="49.41785" lon="1.18238">
        <ele>131.9</ele>
        <time>2012-05-06T09:48:49.090Z</time>
      </trkpt>
      <trkpt lat="49.4178" lon="1.18239">
        <ele>133.4</ele>
        <time>2012-05-06T09:48:52.077Z</time>
      </trkpt>
      <trkpt lat="49.41777" lon="1.18243">
        <ele>133.8</ele>
        <time>2012-05-06T09:48:55.077Z</time>
      </trkpt>
      <trkpt lat="49.41772" lon="1.18244">
        <ele>138.1</ele>
        <time>2012-05-06T09:49:00.083Z</time>
      </trkpt>
      <trkpt lat="49.4177" lon="1.18237">
        <ele>142.6</ele>
        <time>2012-05-06T09:49:09.094Z</time>
      </trkpt>
      <trkpt lat="49.41765" lon="1.18234">
        <ele>143.7</ele>
        <time>2012-05-06T09:49:14.077Z</time>
      </trkpt>
      <trkpt lat="49.41761" lon="1.18238">
        <ele>140</ele>
        <time>2012-05-06T09:49:18.079Z</time>
      </trkpt>
      <trkpt lat="49.41757" lon="1.1824">
        <ele>144.4</ele>
        <time>2012-05-06T09:49:24.085Z</time>
      </trkpt>
      <trkpt lat="49.41751" lon="1.18242">
        <ele>145.3</ele>
        <time>2012-05-06T09:49:27.077Z</time>
      </trkpt>
      <trkpt lat="49.41747" lon="1.18246">
        <ele>148.2</ele>
        <time>2012-05-06T09:49:34.094Z</time>
      </trkpt>
      <trkpt lat="49.41742" lon="1.18246">
        <ele>146.8</ele>
        <time>2012-05-06T09:49:38.094Z</time>
      </trkpt>
      <trkpt lat="49.41736" lon="1.18244">
        <ele>151.8</ele>
        <time>2012-05-06T09:49:42.326Z</time>
      </trkpt>
      <trkpt lat="49.41732" lon="1.18242">
        <ele>152.5</ele>
        <time>2012-05-06T09:49:45.092Z</time>
      </trkpt>
      <trkpt lat="49.41727" lon="1.18245">
        <ele>152.9</ele>
        <time>2012-05-06T09:49:51.077Z</time>
      </trkpt>
      <trkpt lat="49.41722" lon="1.18244">
        <ele>153.8</ele>
        <time>2012-05-06T09:49:55.093Z</time>
      </trkpt>
      <trkpt lat="49.4172" lon="1.1825">
        <ele>154.7</ele>
        <time>2012-05-06T09:50:05.085Z</time>
      </trkpt>
      <trkpt lat="49.41715" lon="1.18251">
        <ele>152.9</ele>
        <time>2012-05-06T09:50:10.091Z</time>
      </trkpt>
      <trkpt lat="49.4171" lon="1.18252">
        <ele>154.7</ele>
        <time>2012-05-06T09:50:13.082Z</time>
      </trkpt>
      <trkpt lat="49.41704" lon="1.18254">
        <ele>156.9</ele>
        <time>2012-05-06T09:50:17.082Z</time>
      </trkpt>
      <trkpt lat="49.417" lon="1.18252">
        <ele>161.6</ele>
        <time>2012-05-06T09:50:23.087Z</time>
      </trkpt>
      <trkpt lat="49.41695" lon="1.1825">
        <ele>158.5</ele>
        <time>2012-05-06T09:50:26.096Z</time>
      </trkpt>
      <trkpt lat="49.4169" lon="1.18247">
        <ele>160.6</ele>
        <time>2012-05-06T09:50:30.095Z</time>
      </trkpt>
      <trkpt lat="49.41685" lon="1.18245">
        <ele>161.7</ele>
        <time>2012-05-06T09:50:34.094Z</time>
      </trkpt>
      <trkpt lat="49.4168" lon="1.18248">
        <ele>164.9</ele>
        <time>2012-05-06T09:50:39.091Z</time>
      </trkpt>
      <trkpt lat="49.41676" lon="1.1825">
        <ele>165.4</ele>
        <time>2012-05-06T09:50:42.390Z</time>
      </trkpt>
      <trkpt lat="49.41671" lon="1.18253">
        <ele>163.3</ele>
        <time>2012-05-06T09:50:45.079Z</time>
      </trkpt>
      <trkpt lat="49.41666" lon="1.18257">
        <ele>163.5</ele>
        <time>2012-05-06T09:50:48.091Z</time>
      </trkpt>
      <trkpt lat="49.41662" lon="1.18262">
        <ele>162.3</ele>
        <time>2012-05-06T09:50:50.092Z</time>
      </trkpt>
      <trkpt lat="49.41653" lon="1.18261">
        <ele>162.5</ele>
        <time>2012-05-06T09:50:52.093Z</time>
      </trkpt>
      <trkpt lat="49.41651" lon="1.18255">
        <ele>166</ele>
        <time>2012-05-06T09:50:56.092Z</time>
      </trkpt>
      <trkpt lat="49.41648" lon="1.18248">
        <ele>163.4</ele>
        <time>2012-05-06T09:50:59.075Z</time>
      </trkpt>
      <trkpt lat="49.41644" lon="1.18248">
        <ele>162.8</ele>
        <time>2012-05-06T09:51:02.092Z</time>
      </trkpt>
      <trkpt lat="49.4164" lon="1.18254">
        <ele>162.3</ele>
        <time>2012-05-06T09:51:05.093Z</time>
      </trkpt>
      <trkpt lat="49.41635" lon="1.18252">
        <ele>163.3</ele>
        <time>2012-05-06T09:51:10.095Z</time>
      </trkpt>
      <trkpt lat="49.4163" lon="1.1825">
        <ele>165.4</ele>
        <time>2012-05-06T09:51:14.092Z</time>
      </trkpt>
      <trkpt lat="49.41625" lon="1.18245">
        <ele>166.8</ele>
        <time>2012-05-06T09:51:24.091Z</time>
      </trkpt>
      <trkpt lat="49.41621" lon="1.18239">
        <ele>170.2</ele>
        <time>2012-05-06T09:51:28.093Z</time>
      </trkpt>
      <trkpt lat="49.41616" lon="1.18238">
        <ele>166.7</ele>
        <time>2012-05-06T09:51:32.081Z</time>
      </trkpt>
      <trkpt lat="49.41613" lon="1.18233">
        <ele>166.6</ele>
        <time>2012-05-06T09:51:34.092Z</time>
      </trkpt>
      <trkpt lat="49.4161" lon="1.18228">
        <ele>163.4</ele>
        <time>2012-05-06T09:51:38.086Z</time>
      </trkpt>
      <trkpt lat="49.41606" lon="1.18222">
        <ele>165.8</ele>
        <time>2012-05-06T09:51:42.371Z</time>
      </trkpt>
      <trkpt lat="49.416" lon="1.18223">
        <ele>163.4</ele>
        <time>2012-05-06T09:51:45.087Z</time>
      </trkpt>
      <trkpt lat="49.41595" lon="1.18218">
        <ele>162.1</ele>
        <time>2012-05-06T09:51:49.076Z</time>
      </trkpt>
      <trkpt lat="49.41589" lon="1.18216">
        <ele>160.4</ele>
        <time>2012-05-06T09:51:52.078Z</time>
      </trkpt>
      <trkpt lat="49.41585" lon="1.18214">
        <ele>159.8</ele>
        <time>2012-05-06T09:51:55.076Z</time>
      </trkpt>
      <trkpt lat="49.4158" lon="1.18212">
        <ele>158.3</ele>
        <time>2012-05-06T09:51:59.076Z</time>
      </trkpt>
      <trkpt lat="49.41575" lon="1.18214">
        <ele>160.5</ele>
        <time>2012-05-06T09:52:02.095Z</time>
      </trkpt>
      <trkpt lat="49.4157" lon="1.18214">
        <ele>162.1</ele>
        <time>2012-05-06T09:52:06.089Z</time>
      </trkpt>
      <trkpt lat="49.41565" lon="1.18218">
        <ele>164</ele>
        <time>2012-05-06T09:52:08.087Z</time>
      </trkpt>
      <trkpt lat="49.41559" lon="1.18217">
        <ele>168</ele>
        <time>2012-05-06T09:52:12.091Z</time>
      </trkpt>
      <trkpt lat="49.41558" lon="1.18209">
        <ele>167.4</ele>
        <time>2012-05-06T09:52:16.087Z</time>
      </trkpt>
      <trkpt lat="49.41553" lon="1.18206">
        <ele>167.4</ele>
        <time>2012-05-06T09:52:19.091Z</time>
      </trkpt>
      <trkpt lat="49.41551" lon="1.18199">
        <ele>166.5</ele>
        <time>2012-05-06T09:52:23.085Z</time>
      </trkpt>
      <trkpt lat="49.41546" lon="1.18195">
        <ele>167.2</ele>
        <time>2012-05-06T09:52:27.084Z</time>
      </trkpt>
      <trkpt lat="49.41543" lon="1.18191">
        <ele>166.9</ele>
        <time>2012-05-06T09:52:31.086Z</time>
      </trkpt>
      <trkpt lat="49.41538" lon="1.18188">
        <ele>166.2</ele>
        <time>2012-05-06T09:52:35.081Z</time>
      </trkpt>
      <trkpt lat="49.41533" lon="1.18185">
        <ele>167.5</ele>
        <time>2012-05-06T09:52:39.097Z</time>
      </trkpt>
      <trkpt lat="49.41527" lon="1.18184">
        <ele>170.1</ele>
        <time>2012-05-06T09:52:43.096Z</time>
      </trkpt>
      <trkpt lat="49.41522" lon="1.18178">
        <ele>169.1</ele>
        <time>2012-05-06T09:52:47.091Z</time>
      </trkpt>
      <trkpt lat="49.41518" lon="1.18171">
        <ele>167.6</ele>
        <time>2012-05-06T09:52:59.093Z</time>
      </trkpt>
      <trkpt lat="49.41514" lon="1.18164">
        <ele>168.6</ele>
        <time>2012-05-06T09:53:03.095Z</time>
      </trkpt>
      <trkpt lat="49.4151" lon="1.18159">
        <ele>169</ele>
        <time>2012-05-06T09:53:07.092Z</time>
      </trkpt>
      <trkpt lat="49.41506" lon="1.18156">
        <ele>173.4</ele>
        <time>2012-05-06T09:53:12.101Z</time>
      </trkpt>
      <trkpt lat="49.41501" lon="1.18154">
        <ele>177</ele>
        <time>2012-05-06T09:53:17.080Z</time>
      </trkpt>
      <trkpt lat="49.41496" lon="1.18152">
        <ele>179.1</ele>
        <time>2012-05-06T09:53:22.078Z</time>
      </trkpt>
      <trkpt lat="49.41492" lon="1.18146">
        <ele>187.5</ele>
        <time>2012-05-06T09:53:35.076Z</time>
      </trkpt>
      <trkpt lat="49.41487" lon="1.18144">
        <ele>187</ele>
        <time>2012-05-06T09:53:41.077Z</time>
      </trkpt>
      <trkpt lat="49.41484" lon="1.18139">
        <ele>189.4</ele>
        <time>2012-05-06T09:53:48.092Z</time>
      </trkpt>
      <trkpt lat="49.41482" lon="1.18132">
        <ele>190.4</ele>
        <time>2012-05-06T09:53:54.091Z</time>
      </trkpt>
      <trkpt lat="49.41477" lon="1.1813">
        <ele>192</ele>
        <time>2012-05-06T09:54:04.086Z</time>
      </trkpt>
      <trkpt lat="49.41473" lon="1.18126">
        <ele>189.2</ele>
        <time>2012-05-06T09:54:11.094Z</time>
      </trkpt>
      <trkpt lat="49.41469" lon="1.18122">
        <ele>188.5</ele>
        <time>2012-05-06T09:54:16.092Z</time>
      </trkpt>
      <trkpt lat="49.41465" lon="1.18119">
        <ele>189.1</ele>
        <time>2012-05-06T09:54:20.087Z</time>
      </trkpt>
      <trkpt lat="49.41461" lon="1.18115">
        <ele>189.9</ele>
        <time>2012-05-06T09:54:24.085Z</time>
      </trkpt>
      <trkpt lat="49.41456" lon="1.18113">
        <ele>189.2</ele>
        <time>2012-05-06T09:54:27.078Z</time>
      </trkpt>
      <trkpt lat="49.41452" lon="1.1811">
        <ele>189.2</ele>
        <time>2012-05-06T09:54:31.091Z</time>
      </trkpt>
      <trkpt lat="49.41448" lon="1.18105">
        <ele>191.2</ele>
        <time>2012-05-06T09:54:35.093Z</time>
      </trkpt>
      <trkpt lat="49.41445" lon="1.181">
        <ele>192.8</ele>
        <time>2012-05-06T09:54:39.092Z</time>
      </trkpt>
      <trkpt lat="49.41444" lon="1.18093">
        <ele>192</ele>
        <time>2012-05-06T09:54:57.093Z</time>
      </trkpt>
      <trkpt lat="49.41439" lon="1.18089">
        <ele>193.2</ele>
        <time>2012-05-06T09:55:00.084Z</time>
      </trkpt>
      <trkpt lat="49.41434" lon="1.18083">
        <ele>191.8</ele>
        <time>2012-05-06T09:55:03.093Z</time>
      </trkpt>
      <trkpt lat="49.4143" lon="1.18077">
        <ele>192.1</ele>
        <time>2012-05-06T09:55:07.093Z</time>
      </trkpt>
      <trkpt lat="49.41426" lon="1.18072">
        <ele>191.1</ele>
        <time>2012-05-06T09:55:10.092Z</time>
      </trkpt>
      <trkpt lat="49.4142" lon="1.18068">
        <ele>191</ele>
        <time>2012-05-06T09:55:14.097Z</time>
      </trkpt>
      <trkpt lat="49.41416" lon="1.18062">
        <ele>191.5</ele>
        <time>2012-05-06T09:55:17.096Z</time>
      </trkpt>
      <trkpt lat="49.41411" lon="1.18057">
        <ele>193.1</ele>
        <time>2012-05-06T09:55:22.089Z</time>
      </trkpt>
      <trkpt lat="49.41406" lon="1.18056">
        <ele>192.1</ele>
        <time>2012-05-06T09:55:24.091Z</time>
      </trkpt>
      <trkpt lat="49.41401" lon="1.18056">
        <ele>191.3</ele>
        <time>2012-05-06T09:55:27.085Z</time>
      </trkpt>
      <trkpt lat="49.41395" lon="1.18055">
        <ele>190.1</ele>
        <time>2012-05-06T09:55:30.090Z</time>
      </trkpt>
      <trkpt lat="49.41395" lon="1.18047">
        <ele>190.7</ele>
        <time>2012-05-06T09:55:33.094Z</time>
      </trkpt>
      <trkpt lat="49.41393" lon="1.18038">
        <ele>188.3</ele>
        <time>2012-05-06T09:55:37.084Z</time>
      </trkpt>
      <trkpt lat="49.41394" lon="1.18031">
        <ele>186.3</ele>
        <time>2012-05-06T09:55:41.086Z</time>
      </trkpt>
      <trkpt lat="49.41397" lon="1.18025">
        <ele>185</ele>
        <time>2012-05-06T09:55:44.087Z</time>
      </trkpt>
      <trkpt lat="49.414" lon="1.18018">
        <ele>184.6</ele>
        <time>2012-05-06T09:55:48.079Z</time>
      </trkpt>
      <trkpt lat="49.41404" lon="1.18014">
        <ele>183.7</ele>
        <time>2012-05-06T09:55:51.086Z</time>
      </trkpt>
      <trkpt lat="49.41409" lon="1.18009">
        <ele>184.1</ele>
        <time>2012-05-06T09:55:55.088Z</time>
      </trkpt>
      <trkpt lat="49.41413" lon="1.18003">
        <ele>185.1</ele>
        <time>2012-05-06T09:55:58.088Z</time>
      </trkpt>
      <trkpt lat="49.41416" lon="1.17995">
        <ele>185.9</ele>
        <time>2012-05-06T09:56:01.091Z</time>
      </trkpt>
      <trkpt lat="49.41419" lon="1.17987">
        <ele>187.3</ele>
        <time>2012-05-06T09:56:04.268Z</time>
      </trkpt>
      <trkpt lat="49.41424" lon="1.1798">
        <ele>186.4</ele>
        <time>2012-05-06T09:56:06.268Z</time>
      </trkpt>
      <trkpt lat="49.41428" lon="1.17971">
        <ele>186.5</ele>
        <time>2012-05-06T09:56:08.268Z</time>
      </trkpt>
      <trkpt lat="49.4143" lon="1.17962">
        <ele>186.9</ele>
        <time>2012-05-06T09:56:10.268Z</time>
      </trkpt>
      <trkpt lat="49.41434" lon="1.17953">
        <ele>187.8</ele>
        <time>2012-05-06T09:56:12.086Z</time>
      </trkpt>
      <trkpt lat="49.41437" lon="1.17945">
        <ele>187.3</ele>
        <time>2012-05-06T09:56:14.093Z</time>
      </trkpt>
      <trkpt lat="49.4144" lon="1.17936">
        <ele>187.5</ele>
        <time>2012-05-06T09:56:16.094Z</time>
      </trkpt>
      <trkpt lat="49.41443" lon="1.17926">
        <ele>188.5</ele>
        <time>2012-05-06T09:56:18.085Z</time>
      </trkpt>
      <trkpt lat="49.41446" lon="1.17917">
        <ele>188.4</ele>
        <time>2012-05-06T09:56:20.092Z</time>
      </trkpt>
      <trkpt lat="49.41448" lon="1.17908">
        <ele>188.1</ele>
        <time>2012-05-06T09:56:22.079Z</time>
      </trkpt>
      <trkpt lat="49.4145" lon="1.17899">
        <ele>188.8</ele>
        <time>2012-05-06T09:56:24.093Z</time>
      </trkpt>
      <trkpt lat="49.41452" lon="1.1789">
        <ele>189.5</ele>
        <time>2012-05-06T09:56:26.094Z</time>
      </trkpt>
      <trkpt lat="49.41454" lon="1.17881">
        <ele>189.8</ele>
        <time>2012-05-06T09:56:28.089Z</time>
      </trkpt>
      <trkpt lat="49.41456" lon="1.1787">
        <ele>190.1</ele>
        <time>2012-05-06T09:56:30.096Z</time>
      </trkpt>
      <trkpt lat="49.41457" lon="1.1786">
        <ele>190.2</ele>
        <time>2012-05-06T09:56:32.079Z</time>
      </trkpt>
      <trkpt lat="49.41458" lon="1.17848">
        <ele>190.6</ele>
        <time>2012-05-06T09:56:34.092Z</time>
      </trkpt>
      <trkpt lat="49.41458" lon="1.17835">
        <ele>190.9</ele>
        <time>2012-05-06T09:56:36.086Z</time>
      </trkpt>
      <trkpt lat="49.4146" lon="1.17822">
        <ele>191.3</ele>
        <time>2012-05-06T09:56:38.088Z</time>
      </trkpt>
      <trkpt lat="49.41462" lon="1.1781">
        <ele>191.7</ele>
        <time>2012-05-06T09:56:40.089Z</time>
      </trkpt>
      <trkpt lat="49.41463" lon="1.17791">
        <ele>191.5</ele>
        <time>2012-05-06T09:56:42.936Z</time>
      </trkpt>
      <trkpt lat="49.41464" lon="1.17784">
        <ele>191.6</ele>
        <time>2012-05-06T09:56:43.936Z</time>
      </trkpt>
      <trkpt lat="49.41466" lon="1.17767">
        <ele>192.1</ele>
        <time>2012-05-06T09:56:46.092Z</time>
      </trkpt>
      <trkpt lat="49.41467" lon="1.1776">
        <ele>191.8</ele>
        <time>2012-05-06T09:56:47.092Z</time>
      </trkpt>
      <trkpt lat="49.41468" lon="1.17753">
        <ele>191.7</ele>
        <time>2012-05-06T09:56:48.092Z</time>
      </trkpt>
      <trkpt lat="49.41469" lon="1.17745">
        <ele>191.4</ele>
        <time>2012-05-06T09:56:49.090Z</time>
      </trkpt>
      <trkpt lat="49.41469" lon="1.17737">
        <ele>191.5</ele>
        <time>2012-05-06T09:56:50.086Z</time>
      </trkpt>
      <trkpt lat="49.4147" lon="1.1773">
        <ele>191.5</ele>
        <time>2012-05-06T09:56:51.089Z</time>
      </trkpt>
      <trkpt lat="49.41471" lon="1.17716">
        <ele>191.3</ele>
        <time>2012-05-06T09:56:53.095Z</time>
      </trkpt>
      <trkpt lat="49.41471" lon="1.17709">
        <ele>191</ele>
        <time>2012-05-06T09:56:54.100Z</time>
      </trkpt>
      <trkpt lat="49.41472" lon="1.17701">
        <ele>191.1</ele>
        <time>2012-05-06T09:56:55.087Z</time>
      </trkpt>
      <trkpt lat="49.41473" lon="1.17693">
        <ele>190.5</ele>
        <time>2012-05-06T09:56:56.090Z</time>
      </trkpt>
      <trkpt lat="49.41474" lon="1.17686">
        <ele>190.6</ele>
        <time>2012-05-06T09:56:57.091Z</time>
      </trkpt>
      <trkpt lat="49.41475" lon="1.17678">
        <ele>190.9</ele>
        <time>2012-05-06T09:56:58.092Z</time>
      </trkpt>
      <trkpt lat="49.41476" lon="1.1767">
        <ele>191.3</ele>
        <time>2012-05-06T09:56:59.084Z</time>
      </trkpt>
      <trkpt lat="49.41476" lon="1.17662">
        <ele>191.5</ele>
        <time>2012-05-06T09:57:00.089Z</time>
      </trkpt>
      <trkpt lat="49.41477" lon="1.17654">
        <ele>191.3</ele>
        <time>2012-05-06T09:57:01.094Z</time>
      </trkpt>
      <trkpt lat="49.41478" lon="1.17645">
        <ele>191.5</ele>
        <time>2012-05-06T09:57:02.092Z</time>
      </trkpt>
      <trkpt lat="49.41479" lon="1.17637">
        <ele>191.4</ele>
        <time>2012-05-06T09:57:03.094Z</time>
      </trkpt>
      <trkpt lat="49.41479" lon="1.1763">
        <ele>191.1</ele>
        <time>2012-05-06T09:57:04.081Z</time>
      </trkpt>
      <trkpt lat="49.4148" lon="1.17621">
        <ele>191.2</ele>
        <time>2012-05-06T09:57:05.092Z</time>
      </trkpt>
      <trkpt lat="49.41481" lon="1.17613">
        <ele>191.2</ele>
        <time>2012-05-06T09:57:06.090Z</time>
      </trkpt>
      <trkpt lat="49.41482" lon="1.17605">
        <ele>191.1</ele>
        <time>2012-05-06T09:57:07.090Z</time>
      </trkpt>
      <trkpt lat="49.41482" lon="1.17597">
        <ele>190.3</ele>
        <time>2012-05-06T09:57:08.087Z</time>
      </trkpt>
      <trkpt lat="49.41483" lon="1.17589">
        <ele>189.5</ele>
        <time>2012-05-06T09:57:09.086Z</time>
      </trkpt>
      <trkpt lat="49.41484" lon="1.17581">
        <ele>189.1</ele>
        <time>2012-05-06T09:57:10.092Z</time>
      </trkpt>
      <trkpt lat="49.41485" lon="1.17572">
        <ele>189.5</ele>
        <time>2012-05-06T09:57:11.089Z</time>
      </trkpt>
      <trkpt lat="49.41485" lon="1.17563">
        <ele>189.3</ele>
        <time>2012-05-06T09:57:12.094Z</time>
      </trkpt>
      <trkpt lat="49.41486" lon="1.17553">
        <ele>189.1</ele>
        <time>2012-05-06T09:57:13.092Z</time>
      </trkpt>
      <trkpt lat="49.41487" lon="1.17544">
        <ele>189.2</ele>
        <time>2012-05-06T09:57:14.089Z</time>
      </trkpt>
      <trkpt lat="49.41488" lon="1.17534">
        <ele>188.9</ele>
        <time>2012-05-06T09:57:15.092Z</time>
      </trkpt>
      <trkpt lat="49.4149" lon="1.17523">
        <ele>188.3</ele>
        <time>2012-05-06T09:57:16.089Z</time>
      </trkpt>
      <trkpt lat="49.41491" lon="1.17513">
        <ele>187.8</ele>
        <time>2012-05-06T09:57:17.086Z</time>
      </trkpt>
      <trkpt lat="49.41492" lon="1.17502">
        <ele>187.5</ele>
        <time>2012-05-06T09:57:18.108Z</time>
      </trkpt>
      <trkpt lat="49.41494" lon="1.17492">
        <ele>187.1</ele>
        <time>2012-05-06T09:57:19.091Z</time>
      </trkpt>
      <trkpt lat="49.41495" lon="1.17482">
        <ele>186.6</ele>
        <time>2012-05-06T09:57:20.089Z</time>
      </trkpt>
      <trkpt lat="49.41497" lon="1.17472">
        <ele>186.2</ele>
        <time>2012-05-06T09:57:21.085Z</time>
      </trkpt>
      <trkpt lat="49.41498" lon="1.17461">
        <ele>186</ele>
        <time>2012-05-06T09:57:22.091Z</time>
      </trkpt>
      <trkpt lat="49.41499" lon="1.1745">
        <ele>185.9</ele>
        <time>2012-05-06T09:57:23.084Z</time>
      </trkpt>
      <trkpt lat="49.415" lon="1.1744">
        <ele>185.5</ele>
        <time>2012-05-06T09:57:24.084Z</time>
      </trkpt>
      <trkpt lat="49.41501" lon="1.1743">
        <ele>185.9</ele>
        <time>2012-05-06T09:57:25.085Z</time>
      </trkpt>
      <trkpt lat="49.41503" lon="1.1742">
        <ele>185.5</ele>
        <time>2012-05-06T09:57:26.085Z</time>
      </trkpt>
      <trkpt lat="49.41504" lon="1.17411">
        <ele>185.7</ele>
        <time>2012-05-06T09:57:27.085Z</time>
      </trkpt>
      <trkpt lat="49.41505" lon="1.17401">
        <ele>185.9</ele>
        <time>2012-05-06T09:57:28.088Z</time>
      </trkpt>
      <trkpt lat="49.41506" lon="1.17392">
        <ele>185.7</ele>
        <time>2012-05-06T09:57:29.085Z</time>
      </trkpt>
      <trkpt lat="49.41506" lon="1.17382">
        <ele>186.4</ele>
        <time>2012-05-06T09:57:30.085Z</time>
      </trkpt>
      <trkpt lat="49.41504" lon="1.17374">
        <ele>186.4</ele>
        <time>2012-05-06T09:57:31.085Z</time>
      </trkpt>
      <trkpt lat="49.41501" lon="1.17368">
        <ele>186.8</ele>
        <time>2012-05-06T09:57:32.085Z</time>
      </trkpt>
      <trkpt lat="49.41496" lon="1.17365">
        <ele>187.1</ele>
        <time>2012-05-06T09:57:33.086Z</time>
      </trkpt>
      <trkpt lat="49.41491" lon="1.17363">
        <ele>187.2</ele>
        <time>2012-05-06T09:57:34.086Z</time>
      </trkpt>
      <trkpt lat="49.41486" lon="1.17363">
        <ele>187.9</ele>
        <time>2012-05-06T09:57:35.087Z</time>
      </trkpt>
      <trkpt lat="49.41481" lon="1.17362">
        <ele>188.3</ele>
        <time>2012-05-06T09:57:36.085Z</time>
      </trkpt>
      <trkpt lat="49.41476" lon="1.17361">
        <ele>188.7</ele>
        <time>2012-05-06T09:57:37.085Z</time>
      </trkpt>
      <trkpt lat="49.41467" lon="1.17361">
        <ele>189.4</ele>
        <time>2012-05-06T09:57:39.084Z</time>
      </trkpt>
      <trkpt lat="49.41458" lon="1.1736">
        <ele>189.2</ele>
        <time>2012-05-06T09:57:41.085Z</time>
      </trkpt>
      <trkpt lat="49.41454" lon="1.17361">
        <ele>189</ele>
        <time>2012-05-06T09:57:42.086Z</time>
      </trkpt>
      <trkpt lat="49.41445" lon="1.1736">
        <ele>189.2</ele>
        <time>2012-05-06T09:57:44.085Z</time>
      </trkpt>
      <trkpt lat="49.41437" lon="1.1736">
        <ele>190</ele>
        <time>2012-05-06T09:57:46.086Z</time>
      </trkpt>
      <trkpt lat="49.41429" lon="1.17359">
        <ele>190.5</ele>
        <time>2012-05-06T09:57:48.085Z</time>
      </trkpt>
      <trkpt lat="49.41421" lon="1.17359">
        <ele>191.3</ele>
        <time>2012-05-06T09:57:50.085Z</time>
      </trkpt>
      <trkpt lat="49.41412" lon="1.17357">
        <ele>191.8</ele>
        <time>2012-05-06T09:57:52.085Z</time>
      </trkpt>
      <trkpt lat="49.41407" lon="1.17356">
        <ele>191.6</ele>
        <time>2012-05-06T09:57:53.085Z</time>
      </trkpt>
      <trkpt lat="49.41403" lon="1.17356">
        <ele>192.2</ele>
        <time>2012-05-06T09:57:54.086Z</time>
      </trkpt>
      <trkpt lat="49.41398" lon="1.17356">
        <ele>192.3</ele>
        <time>2012-05-06T09:57:55.085Z</time>
      </trkpt>
      <trkpt lat="49.41389" lon="1.17355">
        <ele>192.5</ele>
        <time>2012-05-06T09:57:57.085Z</time>
      </trkpt>
      <trkpt lat="49.4138" lon="1.17354">
        <ele>192.9</ele>
        <time>2012-05-06T09:57:59.085Z</time>
      </trkpt>
      <trkpt lat="49.41371" lon="1.17352">
        <ele>193.3</ele>
        <time>2012-05-06T09:58:01.085Z</time>
      </trkpt>
      <trkpt lat="49.41367" lon="1.17352">
        <ele>193.3</ele>
        <time>2012-05-06T09:58:02.090Z</time>
      </trkpt>
      <trkpt lat="49.41358" lon="1.17351">
        <ele>194.4</ele>
        <time>2012-05-06T09:58:04.088Z</time>
      </trkpt>
      <trkpt lat="49.4135" lon="1.17351">
        <ele>194.8</ele>
        <time>2012-05-06T09:58:06.092Z</time>
      </trkpt>
      <trkpt lat="49.41345" lon="1.17351">
        <ele>195.1</ele>
        <time>2012-05-06T09:58:07.092Z</time>
      </trkpt>
      <trkpt lat="49.41336" lon="1.17352">
        <ele>195.2</ele>
        <time>2012-05-06T09:58:09.082Z</time>
      </trkpt>
      <trkpt lat="49.41332" lon="1.17352">
        <ele>194.8</ele>
        <time>2012-05-06T09:58:10.094Z</time>
      </trkpt>
      <trkpt lat="49.41327" lon="1.1735">
        <ele>194.9</ele>
        <time>2012-05-06T09:58:11.091Z</time>
      </trkpt>
      <trkpt lat="49.41318" lon="1.1735">
        <ele>195.1</ele>
        <time>2012-05-06T09:58:13.082Z</time>
      </trkpt>
      <trkpt lat="49.4131" lon="1.1735">
        <ele>195.5</ele>
        <time>2012-05-06T09:58:15.092Z</time>
      </trkpt>
      <trkpt lat="49.41301" lon="1.1735">
        <ele>196.2</ele>
        <time>2012-05-06T09:58:17.089Z</time>
      </trkpt>
      <trkpt lat="49.41293" lon="1.17349">
        <ele>196.4</ele>
        <time>2012-05-06T09:58:19.089Z</time>
      </trkpt>
      <trkpt lat="49.41286" lon="1.17348">
        <ele>196.9</ele>
        <time>2012-05-06T09:58:21.087Z</time>
      </trkpt>
      <trkpt lat="49.4128" lon="1.17346">
        <ele>197.7</ele>
        <time>2012-05-06T09:58:23.077Z</time>
      </trkpt>
      <trkpt lat="49.41274" lon="1.17344">
        <ele>197.1</ele>
        <time>2012-05-06T09:58:25.089Z</time>
      </trkpt>
      <trkpt lat="49.41267" lon="1.17343">
        <ele>197.6</ele>
        <time>2012-05-06T09:58:27.082Z</time>
      </trkpt>
      <trkpt lat="49.4126" lon="1.17342">
        <ele>197.7</ele>
        <time>2012-05-06T09:58:29.092Z</time>
      </trkpt>
      <trkpt lat="49.41255" lon="1.1734">
        <ele>199.1</ele>
        <time>2012-05-06T09:58:32.092Z</time>
      </trkpt>
      <trkpt lat="49.41257" lon="1.17332">
        <ele>197.8</ele>
        <time>2012-05-06T09:58:35.089Z</time>
      </trkpt>
      <trkpt lat="49.41263" lon="1.17328">
        <ele>197.1</ele>
        <time>2012-05-06T09:58:37.093Z</time>
      </trkpt>
      <trkpt lat="49.41269" lon="1.17324">
        <ele>196.3</ele>
        <time>2012-05-06T09:58:39.093Z</time>
      </trkpt>
      <trkpt lat="49.41276" lon="1.1732">
        <ele>193.1</ele>
        <time>2012-05-06T09:58:41.091Z</time>
      </trkpt>
      <trkpt lat="49.4128" lon="1.17317">
        <ele>192.4</ele>
        <time>2012-05-06T09:58:42.089Z</time>
      </trkpt>
      <trkpt lat="49.41286" lon="1.17313">
        <ele>192.5</ele>
        <time>2012-05-06T09:58:43.089Z</time>
      </trkpt>
      <trkpt lat="49.4129" lon="1.1731">
        <ele>191.9</ele>
        <time>2012-05-06T09:58:44.081Z</time>
      </trkpt>
      <trkpt lat="49.41295" lon="1.17306">
        <ele>191.8</ele>
        <time>2012-05-06T09:58:45.079Z</time>
      </trkpt>
      <trkpt lat="49.413" lon="1.17302">
        <ele>191.4</ele>
        <time>2012-05-06T09:58:46.089Z</time>
      </trkpt>
      <trkpt lat="49.41305" lon="1.17298">
        <ele>191.7</ele>
        <time>2012-05-06T09:58:47.078Z</time>
      </trkpt>
      <trkpt lat="49.4131" lon="1.17294">
        <ele>191.9</ele>
        <time>2012-05-06T09:58:48.076Z</time>
      </trkpt>
      <trkpt lat="49.41315" lon="1.1729">
        <ele>191.9</ele>
        <time>2012-05-06T09:58:49.077Z</time>
      </trkpt>
      <trkpt lat="49.41321" lon="1.17285">
        <ele>191.6</ele>
        <time>2012-05-06T09:58:50.077Z</time>
      </trkpt>
      <trkpt lat="49.41326" lon="1.17282">
        <ele>191.1</ele>
        <time>2012-05-06T09:58:51.093Z</time>
      </trkpt>
      <trkpt lat="49.41332" lon="1.17278">
        <ele>191</ele>
        <time>2012-05-06T09:58:52.086Z</time>
      </trkpt>
      <trkpt lat="49.41337" lon="1.17273">
        <ele>191</ele>
        <time>2012-05-06T09:58:53.078Z</time>
      </trkpt>
      <trkpt lat="49.41344" lon="1.17269">
        <ele>191</ele>
        <time>2012-05-06T09:58:54.080Z</time>
      </trkpt>
      <trkpt lat="49.41349" lon="1.17265">
        <ele>191</ele>
        <time>2012-05-06T09:58:55.081Z</time>
      </trkpt>
      <trkpt lat="49.41356" lon="1.1726">
        <ele>191.1</ele>
        <time>2012-05-06T09:58:56.090Z</time>
      </trkpt>
      <trkpt lat="49.41362" lon="1.17255">
        <ele>190.8</ele>
        <time>2012-05-06T09:58:57.095Z</time>
      </trkpt>
      <trkpt lat="49.41369" lon="1.1725">
        <ele>190.8</ele>
        <time>2012-05-06T09:58:58.087Z</time>
      </trkpt>
      <trkpt lat="49.41375" lon="1.17245">
        <ele>190.6</ele>
        <time>2012-05-06T09:58:59.085Z</time>
      </trkpt>
      <trkpt lat="49.41382" lon="1.1724">
        <ele>190.2</ele>
        <time>2012-05-06T09:59:00.087Z</time>
      </trkpt>
      <trkpt lat="49.41388" lon="1.17234">
        <ele>189.8</ele>
        <time>2012-05-06T09:59:01.092Z</time>
      </trkpt>
      <trkpt lat="49.41395" lon="1.17229">
        <ele>189.7</ele>
        <time>2012-05-06T09:59:02.092Z</time>
      </trkpt>
      <trkpt lat="49.41402" lon="1.17224">
        <ele>190.1</ele>
        <time>2012-05-06T09:59:03.086Z</time>
      </trkpt>
      <trkpt lat="49.41408" lon="1.17218">
        <ele>190.1</ele>
        <time>2012-05-06T09:59:04.086Z</time>
      </trkpt>
      <trkpt lat="49.41415" lon="1.17213">
        <ele>190</ele>
        <time>2012-05-06T09:59:05.087Z</time>
      </trkpt>
      <trkpt lat="49.41422" lon="1.17208">
        <ele>189.5</ele>
        <time>2012-05-06T09:59:06.090Z</time>
      </trkpt>
      <trkpt lat="49.41429" lon="1.17202">
        <ele>189.6</ele>
        <time>2012-05-06T09:59:07.098Z</time>
      </trkpt>
      <trkpt lat="49.41435" lon="1.17197">
        <ele>189.4</ele>
        <time>2012-05-06T09:59:08.091Z</time>
      </trkpt>
      <trkpt lat="49.41442" lon="1.17193">
        <ele>189</ele>
        <time>2012-05-06T09:59:09.084Z</time>
      </trkpt>
      <trkpt lat="49.41448" lon="1.17188">
        <ele>188.4</ele>
        <time>2012-05-06T09:59:10.090Z</time>
      </trkpt>
      <trkpt lat="49.41455" lon="1.17183">
        <ele>188</ele>
        <time>2012-05-06T09:59:11.091Z</time>
      </trkpt>
      <trkpt lat="49.41461" lon="1.17178">
        <ele>188.1</ele>
        <time>2012-05-06T09:59:12.091Z</time>
      </trkpt>
      <trkpt lat="49.41468" lon="1.17174">
        <ele>187.9</ele>
        <time>2012-05-06T09:59:13.083Z</time>
      </trkpt>
      <trkpt lat="49.41475" lon="1.17169">
        <ele>187.7</ele>
        <time>2012-05-06T09:59:14.088Z</time>
      </trkpt>
      <trkpt lat="49.41482" lon="1.17164">
        <ele>187.4</ele>
        <time>2012-05-06T09:59:15.093Z</time>
      </trkpt>
      <trkpt lat="49.41488" lon="1.17158">
        <ele>187</ele>
        <time>2012-05-06T09:59:16.094Z</time>
      </trkpt>
      <trkpt lat="49.41495" lon="1.17154">
        <ele>187.1</ele>
        <time>2012-05-06T09:59:17.094Z</time>
      </trkpt>
      <trkpt lat="49.41502" lon="1.17148">
        <ele>186.6</ele>
        <time>2012-05-06T09:59:18.080Z</time>
      </trkpt>
      <trkpt lat="49.41509" lon="1.17142">
        <ele>186.3</ele>
        <time>2012-05-06T09:59:19.089Z</time>
      </trkpt>
      <trkpt lat="49.41516" lon="1.17136">
        <ele>185.7</ele>
        <time>2012-05-06T09:59:20.092Z</time>
      </trkpt>
      <trkpt lat="49.41523" lon="1.17131">
        <ele>185.4</ele>
        <time>2012-05-06T09:59:21.078Z</time>
      </trkpt>
      <trkpt lat="49.4153" lon="1.17126">
        <ele>185.1</ele>
        <time>2012-05-06T09:59:22.088Z</time>
      </trkpt>
      <trkpt lat="49.41537" lon="1.1712">
        <ele>185.2</ele>
        <time>2012-05-06T09:59:23.087Z</time>
      </trkpt>
      <trkpt lat="49.41544" lon="1.17114">
        <ele>185.3</ele>
        <time>2012-05-06T09:59:24.075Z</time>
      </trkpt>
      <trkpt lat="49.41551" lon="1.17109">
        <ele>185.2</ele>
        <time>2012-05-06T09:59:25.093Z</time>
      </trkpt>
      <trkpt lat="49.41558" lon="1.17104">
        <ele>185</ele>
        <time>2012-05-06T09:59:26.094Z</time>
      </trkpt>
      <trkpt lat="49.41565" lon="1.171">
        <ele>184.7</ele>
        <time>2012-05-06T09:59:27.088Z</time>
      </trkpt>
      <trkpt lat="49.41571" lon="1.17095">
        <ele>183.9</ele>
        <time>2012-05-06T09:59:28.090Z</time>
      </trkpt>
      <trkpt lat="49.41578" lon="1.1709">
        <ele>183.4</ele>
        <time>2012-05-06T09:59:29.088Z</time>
      </trkpt>
      <trkpt lat="49.41585" lon="1.17087">
        <ele>183.3</ele>
        <time>2012-05-06T09:59:30.084Z</time>
      </trkpt>
      <trkpt lat="49.41593" lon="1.17086">
        <ele>182.6</ele>
        <time>2012-05-06T09:59:31.087Z</time>
      </trkpt>
      <trkpt lat="49.41601" lon="1.17086">
        <ele>182.4</ele>
        <time>2012-05-06T09:59:32.079Z</time>
      </trkpt>
      <trkpt lat="49.4161" lon="1.17086">
        <ele>182.2</ele>
        <time>2012-05-06T09:59:33.244Z</time>
      </trkpt>
      <trkpt lat="49.41619" lon="1.17087">
        <ele>182.2</ele>
        <time>2012-05-06T09:59:34.244Z</time>
      </trkpt>
      <trkpt lat="49.41627" lon="1.1709">
        <ele>181.6</ele>
        <time>2012-05-06T09:59:35.244Z</time>
      </trkpt>
      <trkpt lat="49.41636" lon="1.17092">
        <ele>181.4</ele>
        <time>2012-05-06T09:59:36.244Z</time>
      </trkpt>
      <trkpt lat="49.41643" lon="1.17093">
        <ele>181</ele>
        <time>2012-05-06T09:59:37.244Z</time>
      </trkpt>
      <trkpt lat="49.41652" lon="1.17095">
        <ele>181.1</ele>
        <time>2012-05-06T09:59:38.244Z</time>
      </trkpt>
      <trkpt lat="49.4166" lon="1.17098">
        <ele>181.1</ele>
        <time>2012-05-06T09:59:39.244Z</time>
      </trkpt>
      <trkpt lat="49.41669" lon="1.17099">
        <ele>180.9</ele>
        <time>2012-05-06T09:59:40.244Z</time>
      </trkpt>
      <trkpt lat="49.41678" lon="1.17101">
        <ele>180.6</ele>
        <time>2012-05-06T09:59:41.244Z</time>
      </trkpt>
      <trkpt lat="49.41686" lon="1.17104">
        <ele>180.6</ele>
        <time>2012-05-06T09:59:42.244Z</time>
      </trkpt>
      <trkpt lat="49.41697" lon="1.17107">
        <ele>176.3</ele>
        <time>2012-05-06T09:59:43.244Z</time>
      </trkpt>
      <trkpt lat="49.41706" lon="1.17109">
        <ele>176.3</ele>
        <time>2012-05-06T09:59:44.244Z</time>
      </trkpt>
      <trkpt lat="49.41715" lon="1.1711">
        <ele>176.1</ele>
        <time>2012-05-06T09:59:45.244Z</time>
      </trkpt>
      <trkpt lat="49.41724" lon="1.17112">
        <ele>175.6</ele>
        <time>2012-05-06T09:59:46.244Z</time>
      </trkpt>
      <trkpt lat="49.41732" lon="1.17113">
        <ele>175.8</ele>
        <time>2012-05-06T09:59:47.011Z</time>
      </trkpt>
      <trkpt lat="49.41743" lon="1.17116">
        <ele>175.5</ele>
        <time>2012-05-06T09:59:48.092Z</time>
      </trkpt>
      <trkpt lat="49.41752" lon="1.17117">
        <ele>175.5</ele>
        <time>2012-05-06T09:59:49.092Z</time>
      </trkpt>
      <trkpt lat="49.4176" lon="1.1712">
        <ele>175.2</ele>
        <time>2012-05-06T09:59:50.092Z</time>
      </trkpt>
      <trkpt lat="49.41771" lon="1.17122">
        <ele>175.4</ele>
        <time>2012-05-06T09:59:51.093Z</time>
      </trkpt>
      <trkpt lat="49.41777" lon="1.17123">
        <ele>174.7</ele>
        <time>2012-05-06T09:59:52.092Z</time>
      </trkpt>
      <trkpt lat="49.41784" lon="1.17124">
        <ele>174.8</ele>
        <time>2012-05-06T09:59:53.106Z</time>
      </trkpt>
      <trkpt lat="49.41793" lon="1.17124">
        <ele>174.7</ele>
        <time>2012-05-06T09:59:54.079Z</time>
      </trkpt>
      <trkpt lat="49.41802" lon="1.17126">
        <ele>174.2</ele>
        <time>2012-05-06T09:59:55.090Z</time>
      </trkpt>
      <trkpt lat="49.41812" lon="1.17126">
        <ele>174.4</ele>
        <time>2012-05-06T09:59:56.091Z</time>
      </trkpt>
      <trkpt lat="49.4182" lon="1.1713">
        <ele>174.4</ele>
        <time>2012-05-06T09:59:57.095Z</time>
      </trkpt>
      <trkpt lat="49.41829" lon="1.17137">
        <ele>176.4</ele>
        <time>2012-05-06T09:59:58.082Z</time>
      </trkpt>
      <trkpt lat="49.41838" lon="1.17143">
        <ele>176.9</ele>
        <time>2012-05-06T09:59:59.104Z</time>
      </trkpt>
      <trkpt lat="49.41846" lon="1.17147">
        <ele>177.5</ele>
        <time>2012-05-06T10:00:00.099Z</time>
      </trkpt>
      <trkpt lat="49.41855" lon="1.17146">
        <ele>177.5</ele>
        <time>2012-05-06T10:00:01.092Z</time>
      </trkpt>
      <trkpt lat="49.41866" lon="1.17152">
        <ele>177.9</ele>
        <time>2012-05-06T10:00:02.084Z</time>
      </trkpt>
      <trkpt lat="49.41874" lon="1.1715">
        <ele>177.8</ele>
        <time>2012-05-06T10:00:03.082Z</time>
      </trkpt>
      <trkpt lat="49.41886" lon="1.1715">
        <ele>177.6</ele>
        <time>2012-05-06T10:00:04.084Z</time>
      </trkpt>
      <trkpt lat="49.41895" lon="1.17154">
        <ele>177.8</ele>
        <time>2012-05-06T10:00:05.097Z</time>
      </trkpt>
      <trkpt lat="49.41907" lon="1.17161">
        <ele>176.8</ele>
        <time>2012-05-06T10:00:06.084Z</time>
      </trkpt>
      <trkpt lat="49.41918" lon="1.17168">
        <ele>177.3</ele>
        <time>2012-05-06T10:00:07.081Z</time>
      </trkpt>
      <trkpt lat="49.4193" lon="1.17173">
        <ele>179.1</ele>
        <time>2012-05-06T10:00:08.084Z</time>
      </trkpt>
      <trkpt lat="49.41943" lon="1.17176">
        <ele>181.3</ele>
        <time>2012-05-06T10:00:09.083Z</time>
      </trkpt>
      <trkpt lat="49.41952" lon="1.17177">
        <ele>182.1</ele>
        <time>2012-05-06T10:00:10.085Z</time>
      </trkpt>
      <trkpt lat="49.41962" lon="1.17184">
        <ele>181.9</ele>
        <time>2012-05-06T10:00:11.083Z</time>
      </trkpt>
      <trkpt lat="49.41974" lon="1.17188">
        <ele>181.3</ele>
        <time>2012-05-06T10:00:12.090Z</time>
      </trkpt>
      <trkpt lat="49.41983" lon="1.17196">
        <ele>180.7</ele>
        <time>2012-05-06T10:00:13.094Z</time>
      </trkpt>
      <trkpt lat="49.4199" lon="1.17203">
        <ele>179.2</ele>
        <time>2012-05-06T10:00:14.089Z</time>
      </trkpt>
      <trkpt lat="49.42" lon="1.17209">
        <ele>178.1</ele>
        <time>2012-05-06T10:00:15.078Z</time>
      </trkpt>
      <trkpt lat="49.42009" lon="1.17214">
        <ele>175.8</ele>
        <time>2012-05-06T10:00:16.086Z</time>
      </trkpt>
      <trkpt lat="49.42017" lon="1.17218">
        <ele>173.6</ele>
        <time>2012-05-06T10:00:17.096Z</time>
      </trkpt>
      <trkpt lat="49.42025" lon="1.17226">
        <ele>173.7</ele>
        <time>2012-05-06T10:00:18.090Z</time>
      </trkpt>
      <trkpt lat="49.42034" lon="1.17231">
        <ele>172.3</ele>
        <time>2012-05-06T10:00:19.077Z</time>
      </trkpt>
      <trkpt lat="49.42042" lon="1.17237">
        <ele>172.3</ele>
        <time>2012-05-06T10:00:20.091Z</time>
      </trkpt>
      <trkpt lat="49.42052" lon="1.17244">
        <ele>172.7</ele>
        <time>2012-05-06T10:00:21.077Z</time>
      </trkpt>
      <trkpt lat="49.42062" lon="1.17251">
        <ele>172.6</ele>
        <time>2012-05-06T10:00:22.090Z</time>
      </trkpt>
      <trkpt lat="49.42068" lon="1.17258">
        <ele>172.8</ele>
        <time>2012-05-06T10:00:23.090Z</time>
      </trkpt>
      <trkpt lat="49.42077" lon="1.17265">
        <ele>172.4</ele>
        <time>2012-05-06T10:00:24.081Z</time>
      </trkpt>
      <trkpt lat="49.42084" lon="1.17275">
        <ele>171.8</ele>
        <time>2012-05-06T10:00:25.090Z</time>
      </trkpt>
      <trkpt lat="49.42092" lon="1.17279">
        <ele>171.8</ele>
        <time>2012-05-06T10:00:26.093Z</time>
      </trkpt>
      <trkpt lat="49.421" lon="1.17294">
        <ele>170.2</ele>
        <time>2012-05-06T10:00:27.094Z</time>
      </trkpt>
      <trkpt lat="49.42108" lon="1.17303">
        <ele>167.9</ele>
        <time>2012-05-06T10:00:28.089Z</time>
      </trkpt>
      <trkpt lat="49.42116" lon="1.17312">
        <ele>166.7</ele>
        <time>2012-05-06T10:00:29.080Z</time>
      </trkpt>
      <trkpt lat="49.42125" lon="1.17321">
        <ele>166.2</ele>
        <time>2012-05-06T10:00:30.090Z</time>
      </trkpt>
      <trkpt lat="49.42134" lon="1.1733">
        <ele>167.2</ele>
        <time>2012-05-06T10:00:31.095Z</time>
      </trkpt>
      <trkpt lat="49.42143" lon="1.17339">
        <ele>168.1</ele>
        <time>2012-05-06T10:00:32.091Z</time>
      </trkpt>
      <trkpt lat="49.42151" lon="1.17346">
        <ele>168.8</ele>
        <time>2012-05-06T10:00:33.077Z</time>
      </trkpt>
      <trkpt lat="49.42159" lon="1.17356">
        <ele>168</ele>
        <time>2012-05-06T10:00:34.078Z</time>
      </trkpt>
      <trkpt lat="49.42167" lon="1.17362">
        <ele>168</ele>
        <time>2012-05-06T10:00:35.077Z</time>
      </trkpt>
      <trkpt lat="49.42175" lon="1.17367">
        <ele>168.8</ele>
        <time>2012-05-06T10:00:36.094Z</time>
      </trkpt>
      <trkpt lat="49.42182" lon="1.17372">
        <ele>168.4</ele>
        <time>2012-05-06T10:00:37.096Z</time>
      </trkpt>
      <trkpt lat="49.42193" lon="1.17366">
        <ele>168.2</ele>
        <time>2012-05-06T10:00:38.084Z</time>
      </trkpt>
      <trkpt lat="49.422" lon="1.17371">
        <ele>168.4</ele>
        <time>2012-05-06T10:00:39.096Z</time>
      </trkpt>
      <trkpt lat="49.42206" lon="1.1737">
        <ele>168.8</ele>
        <time>2012-05-06T10:00:40.089Z</time>
      </trkpt>
      <trkpt lat="49.42215" lon="1.17373">
        <ele>168.6</ele>
        <time>2012-05-06T10:00:41.128Z</time>
      </trkpt>
      <trkpt lat="49.42228" lon="1.17353">
        <ele>167.9</ele>
        <time>2012-05-06T10:00:42.088Z</time>
      </trkpt>
      <trkpt lat="49.42241" lon="1.1734">
        <ele>167.8</ele>
        <time>2012-05-06T10:00:43.087Z</time>
      </trkpt>
      <trkpt lat="49.42258" lon="1.17331">
        <ele>169.2</ele>
        <time>2012-05-06T10:00:44.088Z</time>
      </trkpt>
      <trkpt lat="49.42271" lon="1.17325">
        <ele>171</ele>
        <time>2012-05-06T10:00:45.088Z</time>
      </trkpt>
      <trkpt lat="49.42282" lon="1.17317">
        <ele>170.5</ele>
        <time>2012-05-06T10:00:46.088Z</time>
      </trkpt>
      <trkpt lat="49.42294" lon="1.17309">
        <ele>169.3</ele>
        <time>2012-05-06T10:00:47.088Z</time>
      </trkpt>
      <trkpt lat="49.42304" lon="1.173">
        <ele>169.7</ele>
        <time>2012-05-06T10:00:48.088Z</time>
      </trkpt>
      <trkpt lat="49.42315" lon="1.1729">
        <ele>169.8</ele>
        <time>2012-05-06T10:00:49.089Z</time>
      </trkpt>
      <trkpt lat="49.42322" lon="1.17277">
        <ele>171.1</ele>
        <time>2012-05-06T10:00:50.092Z</time>
      </trkpt>
      <trkpt lat="49.42329" lon="1.17262">
        <ele>168.9</ele>
        <time>2012-05-06T10:00:51.090Z</time>
      </trkpt>
      <trkpt lat="49.42337" lon="1.17252">
        <ele>166.8</ele>
        <time>2012-05-06T10:00:52.076Z</time>
      </trkpt>
      <trkpt lat="49.42342" lon="1.17238">
        <ele>163.8</ele>
        <time>2012-05-06T10:00:53.075Z</time>
      </trkpt>
      <trkpt lat="49.42352" lon="1.17231">
        <ele>161.3</ele>
        <time>2012-05-06T10:00:54.076Z</time>
      </trkpt>
      <trkpt lat="49.42361" lon="1.17224">
        <ele>158.5</ele>
        <time>2012-05-06T10:00:55.089Z</time>
      </trkpt>
      <trkpt lat="49.4237" lon="1.17215">
        <ele>154.9</ele>
        <time>2012-05-06T10:00:56.077Z</time>
      </trkpt>
      <trkpt lat="49.4238" lon="1.17205">
        <ele>154.3</ele>
        <time>2012-05-06T10:00:57.077Z</time>
      </trkpt>
      <trkpt lat="49.42387" lon="1.17196">
        <ele>155.4</ele>
        <time>2012-05-06T10:00:58.077Z</time>
      </trkpt>
      <trkpt lat="49.42394" lon="1.17184">
        <ele>156.5</ele>
        <time>2012-05-06T10:00:59.090Z</time>
      </trkpt>
      <trkpt lat="49.42397" lon="1.17173">
        <ele>155.6</ele>
        <time>2012-05-06T10:01:00.077Z</time>
      </trkpt>
      <trkpt lat="49.42399" lon="1.1716">
        <ele>155.1</ele>
        <time>2012-05-06T10:01:01.089Z</time>
      </trkpt>
      <trkpt lat="49.42398" lon="1.17143">
        <ele>153.8</ele>
        <time>2012-05-06T10:01:02.082Z</time>
      </trkpt>
      <trkpt lat="49.42394" lon="1.17123">
        <ele>152.4</ele>
        <time>2012-05-06T10:01:03.075Z</time>
      </trkpt>
      <trkpt lat="49.42391" lon="1.17105">
        <ele>151.7</ele>
        <time>2012-05-06T10:01:04.092Z</time>
      </trkpt>
      <trkpt lat="49.42381" lon="1.17091">
        <ele>147.9</ele>
        <time>2012-05-06T10:01:05.088Z</time>
      </trkpt>
      <trkpt lat="49.42377" lon="1.17078">
        <ele>146.5</ele>
        <time>2012-05-06T10:01:06.091Z</time>
      </trkpt>
      <trkpt lat="49.42372" lon="1.17064">
        <ele>146.7</ele>
        <time>2012-05-06T10:01:07.082Z</time>
      </trkpt>
      <trkpt lat="49.42367" lon="1.17054">
        <ele>147.3</ele>
        <time>2012-05-06T10:01:08.085Z</time>
      </trkpt>
      <trkpt lat="49.42364" lon="1.17043">
        <ele>147.8</ele>
        <time>2012-05-06T10:01:09.089Z</time>
      </trkpt>
      <trkpt lat="49.42368" lon="1.17033">
        <ele>145</ele>
        <time>2012-05-06T10:01:11.077Z</time>
      </trkpt>
      <trkpt lat="49.42374" lon="1.17027">
        <ele>144.5</ele>
        <time>2012-05-06T10:01:13.091Z</time>
      </trkpt>
      <trkpt lat="49.4238" lon="1.17024">
        <ele>144.8</ele>
        <time>2012-05-06T10:01:14.074Z</time>
      </trkpt>
      <trkpt lat="49.42388" lon="1.17023">
        <ele>145.3</ele>
        <time>2012-05-06T10:01:15.088Z</time>
      </trkpt>
      <trkpt lat="49.42393" lon="1.17027">
        <ele>145.4</ele>
        <time>2012-05-06T10:01:16.081Z</time>
      </trkpt>
      <trkpt lat="49.424" lon="1.17036">
        <ele>145.3</ele>
        <time>2012-05-06T10:01:18.088Z</time>
      </trkpt>
      <trkpt lat="49.42406" lon="1.17045">
        <ele>145.4</ele>
        <time>2012-05-06T10:01:19.077Z</time>
      </trkpt>
      <trkpt lat="49.42413" lon="1.17057">
        <ele>146</ele>
        <time>2012-05-06T10:01:20.077Z</time>
      </trkpt>
      <trkpt lat="49.42419" lon="1.17068">
        <ele>146</ele>
        <time>2012-05-06T10:01:21.077Z</time>
      </trkpt>
      <trkpt lat="49.42425" lon="1.17084">
        <ele>145.6</ele>
        <time>2012-05-06T10:01:22.090Z</time>
      </trkpt>
      <trkpt lat="49.42427" lon="1.17097">
        <ele>146.7</ele>
        <time>2012-05-06T10:01:23.076Z</time>
      </trkpt>
      <trkpt lat="49.42431" lon="1.17108">
        <ele>147.7</ele>
        <time>2012-05-06T10:01:24.087Z</time>
      </trkpt>
      <trkpt lat="49.42435" lon="1.17122">
        <ele>146.8</ele>
        <time>2012-05-06T10:01:25.082Z</time>
      </trkpt>
      <trkpt lat="49.42437" lon="1.17138">
        <ele>146.8</ele>
        <time>2012-05-06T10:01:26.076Z</time>
      </trkpt>
      <trkpt lat="49.42439" lon="1.17155">
        <ele>146.2</ele>
        <time>2012-05-06T10:01:27.094Z</time>
      </trkpt>
      <trkpt lat="49.4244" lon="1.17175">
        <ele>143.9</ele>
        <time>2012-05-06T10:01:28.089Z</time>
      </trkpt>
      <trkpt lat="49.42441" lon="1.17194">
        <ele>141.6</ele>
        <time>2012-05-06T10:01:29.079Z</time>
      </trkpt>
      <trkpt lat="49.4243" lon="1.17208">
        <ele>138.5</ele>
        <time>2012-05-06T10:01:30.075Z</time>
      </trkpt>
      <trkpt lat="49.42424" lon="1.17225">
        <ele>138.3</ele>
        <time>2012-05-06T10:01:31.087Z</time>
      </trkpt>
      <trkpt lat="49.42417" lon="1.17237">
        <ele>137.6</ele>
        <time>2012-05-06T10:01:32.077Z</time>
      </trkpt>
      <trkpt lat="49.42409" lon="1.1725">
        <ele>137.3</ele>
        <time>2012-05-06T10:01:33.087Z</time>
      </trkpt>
      <trkpt lat="49.42402" lon="1.17262">
        <ele>138.9</ele>
        <time>2012-05-06T10:01:34.077Z</time>
      </trkpt>
      <trkpt lat="49.42396" lon="1.17272">
        <ele>138.6</ele>
        <time>2012-05-06T10:01:35.076Z</time>
      </trkpt>
      <trkpt lat="49.42388" lon="1.1728">
        <ele>139.5</ele>
        <time>2012-05-06T10:01:36.091Z</time>
      </trkpt>
      <trkpt lat="49.42381" lon="1.1729">
        <ele>139.7</ele>
        <time>2012-05-06T10:01:37.091Z</time>
      </trkpt>
      <trkpt lat="49.42374" lon="1.17296">
        <ele>140.9</ele>
        <time>2012-05-06T10:01:38.100Z</time>
      </trkpt>
      <trkpt lat="49.42371" lon="1.17304">
        <ele>140.8</ele>
        <time>2012-05-06T10:01:39.089Z</time>
      </trkpt>
      <trkpt lat="49.42373" lon="1.17315">
        <ele>140.6</ele>
        <time>2012-05-06T10:01:40.086Z</time>
      </trkpt>
      <trkpt lat="49.42372" lon="1.17326">
        <ele>138</ele>
        <time>2012-05-06T10:01:41.073Z</time>
      </trkpt>
      <trkpt lat="49.42375" lon="1.17335">
        <ele>138.6</ele>
        <time>2012-05-06T10:01:42.074Z</time>
      </trkpt>
      <trkpt lat="49.42376" lon="1.17342">
        <ele>137.6</ele>
        <time>2012-05-06T10:01:43.075Z</time>
      </trkpt>
      <trkpt lat="49.42388" lon="1.17336">
        <ele>135.6</ele>
        <time>2012-05-06T10:01:44.076Z</time>
      </trkpt>
      <trkpt lat="49.42396" lon="1.17333">
        <ele>134</ele>
        <time>2012-05-06T10:01:45.089Z</time>
      </trkpt>
      <trkpt lat="49.42404" lon="1.17328">
        <ele>133.4</ele>
        <time>2012-05-06T10:01:46.092Z</time>
      </trkpt>
      <trkpt lat="49.42411" lon="1.1732">
        <ele>131.8</ele>
        <time>2012-05-06T10:01:47.088Z</time>
      </trkpt>
      <trkpt lat="49.42419" lon="1.17314">
        <ele>131.4</ele>
        <time>2012-05-06T10:01:48.080Z</time>
      </trkpt>
      <trkpt lat="49.42427" lon="1.17307">
        <ele>130.2</ele>
        <time>2012-05-06T10:01:49.075Z</time>
      </trkpt>
      <trkpt lat="49.42436" lon="1.17297">
        <ele>130.3</ele>
        <time>2012-05-06T10:01:50.088Z</time>
      </trkpt>
      <trkpt lat="49.42445" lon="1.1729">
        <ele>131.1</ele>
        <time>2012-05-06T10:01:51.077Z</time>
      </trkpt>
      <trkpt lat="49.42453" lon="1.1728">
        <ele>132.3</ele>
        <time>2012-05-06T10:01:52.076Z</time>
      </trkpt>
      <trkpt lat="49.42461" lon="1.17273">
        <ele>132.4</ele>
        <time>2012-05-06T10:01:53.077Z</time>
      </trkpt>
      <trkpt lat="49.42469" lon="1.17265">
        <ele>131.3</ele>
        <time>2012-05-06T10:01:54.088Z</time>
      </trkpt>
      <trkpt lat="49.42477" lon="1.17257">
        <ele>130.5</ele>
        <time>2012-05-06T10:01:55.091Z</time>
      </trkpt>
      <trkpt lat="49.42483" lon="1.17247">
        <ele>131</ele>
        <time>2012-05-06T10:01:56.088Z</time>
      </trkpt>
      <trkpt lat="49.4249" lon="1.17237">
        <ele>131.7</ele>
        <time>2012-05-06T10:01:57.077Z</time>
      </trkpt>
      <trkpt lat="49.42497" lon="1.17225">
        <ele>131.6</ele>
        <time>2012-05-06T10:01:58.076Z</time>
      </trkpt>
      <trkpt lat="49.42504" lon="1.17216">
        <ele>129.1</ele>
        <time>2012-05-06T10:01:59.089Z</time>
      </trkpt>
      <trkpt lat="49.4251" lon="1.17204">
        <ele>126.8</ele>
        <time>2012-05-06T10:02:00.078Z</time>
      </trkpt>
      <trkpt lat="49.42515" lon="1.17194">
        <ele>125.9</ele>
        <time>2012-05-06T10:02:01.077Z</time>
      </trkpt>
      <trkpt lat="49.42522" lon="1.17182">
        <ele>125.5</ele>
        <time>2012-05-06T10:02:02.075Z</time>
      </trkpt>
      <trkpt lat="49.42527" lon="1.17171">
        <ele>123.5</ele>
        <time>2012-05-06T10:02:03.076Z</time>
      </trkpt>
      <trkpt lat="49.42532" lon="1.17163">
        <ele>119.8</ele>
        <time>2012-05-06T10:02:04.068Z</time>
      </trkpt>
      <trkpt lat="49.42536" lon="1.17155">
        <ele>117.8</ele>
        <time>2012-05-06T10:02:05.075Z</time>
      </trkpt>
      <trkpt lat="49.42543" lon="1.17147">
        <ele>117.3</ele>
        <time>2012-05-06T10:02:06.081Z</time>
      </trkpt>
      <trkpt lat="49.4255" lon="1.17143">
        <ele>116.5</ele>
        <time>2012-05-06T10:02:07.077Z</time>
      </trkpt>
      <trkpt lat="49.42558" lon="1.17143">
        <ele>115.9</ele>
        <time>2012-05-06T10:02:08.089Z</time>
      </trkpt>
      <trkpt lat="49.42565" lon="1.17147">
        <ele>116.3</ele>
        <time>2012-05-06T10:02:09.076Z</time>
      </trkpt>
      <trkpt lat="49.42568" lon="1.1716">
        <ele>116.7</ele>
        <time>2012-05-06T10:02:10.101Z</time>
      </trkpt>
      <trkpt lat="49.42569" lon="1.1717">
        <ele>116</ele>
        <time>2012-05-06T10:02:11.092Z</time>
      </trkpt>
      <trkpt lat="49.42568" lon="1.17181">
        <ele>115.4</ele>
        <time>2012-05-06T10:02:12.086Z</time>
      </trkpt>
      <trkpt lat="49.42565" lon="1.17192">
        <ele>114.1</ele>
        <time>2012-05-06T10:02:13.092Z</time>
      </trkpt>
      <trkpt lat="49.42563" lon="1.17201">
        <ele>113.5</ele>
        <time>2012-05-06T10:02:14.093Z</time>
      </trkpt>
      <trkpt lat="49.4256" lon="1.17206">
        <ele>113.4</ele>
        <time>2012-05-06T10:02:15.078Z</time>
      </trkpt>
      <trkpt lat="49.42556" lon="1.17215">
        <ele>113.1</ele>
        <time>2012-05-06T10:02:17.077Z</time>
      </trkpt>
      <trkpt lat="49.42559" lon="1.1722">
        <ele>111.9</ele>
        <time>2012-05-06T10:02:19.076Z</time>
      </trkpt>
      <trkpt lat="49.42566" lon="1.17214">
        <ele>106.5</ele>
        <time>2012-05-06T10:02:22.089Z</time>
      </trkpt>
      <trkpt lat="49.42573" lon="1.17204">
        <ele>104.2</ele>
        <time>2012-05-06T10:02:24.076Z</time>
      </trkpt>
      <trkpt lat="49.42576" lon="1.17197">
        <ele>104</ele>
        <time>2012-05-06T10:02:25.077Z</time>
      </trkpt>
      <trkpt lat="49.42581" lon="1.1719">
        <ele>103.6</ele>
        <time>2012-05-06T10:02:26.092Z</time>
      </trkpt>
      <trkpt lat="49.42585" lon="1.17184">
        <ele>103.8</ele>
        <time>2012-05-06T10:02:27.088Z</time>
      </trkpt>
      <trkpt lat="49.42591" lon="1.17177">
        <ele>102</ele>
        <time>2012-05-06T10:02:28.075Z</time>
      </trkpt>
      <trkpt lat="49.42596" lon="1.17168">
        <ele>101.6</ele>
        <time>2012-05-06T10:02:29.076Z</time>
      </trkpt>
      <trkpt lat="49.42602" lon="1.17159">
        <ele>100.5</ele>
        <time>2012-05-06T10:02:30.077Z</time>
      </trkpt>
      <trkpt lat="49.4261" lon="1.17151">
        <ele>99.9</ele>
        <time>2012-05-06T10:02:31.092Z</time>
      </trkpt>
      <trkpt lat="49.42618" lon="1.17145">
        <ele>98.5</ele>
        <time>2012-05-06T10:02:32.092Z</time>
      </trkpt>
      <trkpt lat="49.42626" lon="1.1714">
        <ele>97.5</ele>
        <time>2012-05-06T10:02:33.077Z</time>
      </trkpt>
      <trkpt lat="49.42634" lon="1.17134">
        <ele>98.1</ele>
        <time>2012-05-06T10:02:34.076Z</time>
      </trkpt>
      <trkpt lat="49.42643" lon="1.17128">
        <ele>97.9</ele>
        <time>2012-05-06T10:02:35.090Z</time>
      </trkpt>
      <trkpt lat="49.4265" lon="1.17122">
        <ele>96.2</ele>
        <time>2012-05-06T10:02:36.077Z</time>
      </trkpt>
      <trkpt lat="49.42656" lon="1.17115">
        <ele>95.8</ele>
        <time>2012-05-06T10:02:37.092Z</time>
      </trkpt>
      <trkpt lat="49.42664" lon="1.17108">
        <ele>95.2</ele>
        <time>2012-05-06T10:02:38.076Z</time>
      </trkpt>
      <trkpt lat="49.42671" lon="1.171">
        <ele>94.7</ele>
        <time>2012-05-06T10:02:39.077Z</time>
      </trkpt>
      <trkpt lat="49.42678" lon="1.17091">
        <ele>94.1</ele>
        <time>2012-05-06T10:02:40.091Z</time>
      </trkpt>
      <trkpt lat="49.42684" lon="1.17082">
        <ele>94.2</ele>
        <time>2012-05-06T10:02:41.093Z</time>
      </trkpt>
      <trkpt lat="49.4269" lon="1.17074">
        <ele>94.2</ele>
        <time>2012-05-06T10:02:42.089Z</time>
      </trkpt>
      <trkpt lat="49.42697" lon="1.17064">
        <ele>94.8</ele>
        <time>2012-05-06T10:02:43.084Z</time>
      </trkpt>
      <trkpt lat="49.42703" lon="1.17057">
        <ele>93.5</ele>
        <time>2012-05-06T10:02:44.082Z</time>
      </trkpt>
      <trkpt lat="49.4271" lon="1.17051">
        <ele>92.2</ele>
        <time>2012-05-06T10:02:45.092Z</time>
      </trkpt>
      <trkpt lat="49.42717" lon="1.17043">
        <ele>92.3</ele>
        <time>2012-05-06T10:02:46.091Z</time>
      </trkpt>
      <trkpt lat="49.42723" lon="1.17036">
        <ele>92.2</ele>
        <time>2012-05-06T10:02:47.077Z</time>
      </trkpt>
      <trkpt lat="49.42729" lon="1.17031">
        <ele>91.4</ele>
        <time>2012-05-06T10:02:48.076Z</time>
      </trkpt>
      <trkpt lat="49.42735" lon="1.17026">
        <ele>90.3</ele>
        <time>2012-05-06T10:02:49.089Z</time>
      </trkpt>
      <trkpt lat="49.42741" lon="1.1702">
        <ele>90.1</ele>
        <time>2012-05-06T10:02:50.077Z</time>
      </trkpt>
      <trkpt lat="49.42747" lon="1.17013">
        <ele>90.9</ele>
        <time>2012-05-06T10:02:51.088Z</time>
      </trkpt>
      <trkpt lat="49.42752" lon="1.17006">
        <ele>90.6</ele>
        <time>2012-05-06T10:02:52.082Z</time>
      </trkpt>
      <trkpt lat="49.42762" lon="1.16999">
        <ele>93.5</ele>
        <time>2012-05-06T10:02:53.075Z</time>
      </trkpt>
      <trkpt lat="49.42769" lon="1.16992">
        <ele>95</ele>
        <time>2012-05-06T10:02:54.087Z</time>
      </trkpt>
      <trkpt lat="49.42776" lon="1.16987">
        <ele>97.7</ele>
        <time>2012-05-06T10:02:55.080Z</time>
      </trkpt>
      <trkpt lat="49.42782" lon="1.1698">
        <ele>99.1</ele>
        <time>2012-05-06T10:02:56.075Z</time>
      </trkpt>
      <trkpt lat="49.42789" lon="1.16974">
        <ele>99.3</ele>
        <time>2012-05-06T10:02:57.076Z</time>
      </trkpt>
      <trkpt lat="49.42796" lon="1.16967">
        <ele>99.7</ele>
        <time>2012-05-06T10:02:58.089Z</time>
      </trkpt>
      <trkpt lat="49.42803" lon="1.16956">
        <ele>100.1</ele>
        <time>2012-05-06T10:03:00.093Z</time>
      </trkpt>
      <trkpt lat="49.42807" lon="1.16949">
        <ele>100.7</ele>
        <time>2012-05-06T10:03:01.076Z</time>
      </trkpt>
      <trkpt lat="49.4281" lon="1.16941">
        <ele>100.5</ele>
        <time>2012-05-06T10:03:02.076Z</time>
      </trkpt>
      <trkpt lat="49.42816" lon="1.16932">
        <ele>100.7</ele>
        <time>2012-05-06T10:03:03.090Z</time>
      </trkpt>
      <trkpt lat="49.42821" lon="1.16923">
        <ele>99.3</ele>
        <time>2012-05-06T10:03:04.076Z</time>
      </trkpt>
      <trkpt lat="49.42824" lon="1.16914">
        <ele>99</ele>
        <time>2012-05-06T10:03:05.076Z</time>
      </trkpt>
      <trkpt lat="49.4283" lon="1.16906">
        <ele>97.6</ele>
        <time>2012-05-06T10:03:06.075Z</time>
      </trkpt>
      <trkpt lat="49.42833" lon="1.16899">
        <ele>98.5</ele>
        <time>2012-05-06T10:03:07.089Z</time>
      </trkpt>
      <trkpt lat="49.42838" lon="1.16896">
        <ele>99.5</ele>
        <time>2012-05-06T10:03:08.076Z</time>
      </trkpt>
      <trkpt lat="49.42842" lon="1.1689">
        <ele>100.4</ele>
        <time>2012-05-06T10:03:09.089Z</time>
      </trkpt>
      <trkpt lat="49.42846" lon="1.16886">
        <ele>100.7</ele>
        <time>2012-05-06T10:03:10.082Z</time>
      </trkpt>
      <trkpt lat="49.42849" lon="1.1688">
        <ele>99.8</ele>
        <time>2012-05-06T10:03:11.074Z</time>
      </trkpt>
      <trkpt lat="49.42854" lon="1.16868">
        <ele>99.8</ele>
        <time>2012-05-06T10:03:13.081Z</time>
      </trkpt>
      <trkpt lat="49.42857" lon="1.16857">
        <ele>100.3</ele>
        <time>2012-05-06T10:03:15.081Z</time>
      </trkpt>
      <trkpt lat="49.42862" lon="1.16848">
        <ele>100.5</ele>
        <time>2012-05-06T10:03:17.089Z</time>
      </trkpt>
      <trkpt lat="49.42861" lon="1.16841">
        <ele>98.7</ele>
        <time>2012-05-06T10:03:19.078Z</time>
      </trkpt>
      <trkpt lat="49.4286" lon="1.16848">
        <ele>95.4</ele>
        <time>2012-05-06T10:03:22.078Z</time>
      </trkpt>
      <trkpt lat="49.42856" lon="1.16855">
        <ele>95.3</ele>
        <time>2012-05-06T10:03:24.082Z</time>
      </trkpt>
      <trkpt lat="49.42852" lon="1.16862">
        <ele>98</ele>
        <time>2012-05-06T10:03:26.092Z</time>
      </trkpt>
      <trkpt lat="49.42848" lon="1.16872">
        <ele>99.3</ele>
        <time>2012-05-06T10:03:28.079Z</time>
      </trkpt>
      <trkpt lat="49.42845" lon="1.1688">
        <ele>99.1</ele>
        <time>2012-05-06T10:03:30.090Z</time>
      </trkpt>
      <trkpt lat="49.42842" lon="1.16887">
        <ele>98.9</ele>
        <time>2012-05-06T10:03:32.090Z</time>
      </trkpt>
      <trkpt lat="49.42838" lon="1.16892">
        <ele>99.9</ele>
        <time>2012-05-06T10:03:34.076Z</time>
      </trkpt>
      <trkpt lat="49.42834" lon="1.16899">
        <ele>100.4</ele>
        <time>2012-05-06T10:03:36.092Z</time>
      </trkpt>
      <trkpt lat="49.4283" lon="1.16906">
        <ele>101</ele>
        <time>2012-05-06T10:03:39.092Z</time>
      </trkpt>
      <trkpt lat="49.42826" lon="1.16904">
        <ele>101.2</ele>
        <time>2012-05-06T10:03:43.077Z</time>
      </trkpt>
      <trkpt lat="49.42821" lon="1.169">
        <ele>103.4</ele>
        <time>2012-05-06T10:03:47.089Z</time>
      </trkpt>
      <trkpt lat="49.42816" lon="1.16896">
        <ele>103.2</ele>
        <time>2012-05-06T10:03:52.091Z</time>
      </trkpt>
      <trkpt lat="49.4281" lon="1.16894">
        <ele>99</ele>
        <time>2012-05-06T10:03:56.081Z</time>
      </trkpt>
      <trkpt lat="49.42806" lon="1.16889">
        <ele>99.4</ele>
        <time>2012-05-06T10:03:59.088Z</time>
      </trkpt>
      <trkpt lat="49.42801" lon="1.16885">
        <ele>99.8</ele>
        <time>2012-05-06T10:04:03.088Z</time>
      </trkpt>
      <trkpt lat="49.42797" lon="1.16881">
        <ele>99.7</ele>
        <time>2012-05-06T10:04:06.074Z</time>
      </trkpt>
      <trkpt lat="49.42792" lon="1.16875">
        <ele>98.5</ele>
        <time>2012-05-06T10:04:08.089Z</time>
      </trkpt>
      <trkpt lat="49.42789" lon="1.16868">
        <ele>99.2</ele>
        <time>2012-05-06T10:04:13.094Z</time>
      </trkpt>
      <trkpt lat="49.42784" lon="1.16862">
        <ele>100.2</ele>
        <time>2012-05-06T10:04:17.076Z</time>
      </trkpt>
      <trkpt lat="49.42781" lon="1.16858">
        <ele>101.2</ele>
        <time>2012-05-06T10:04:22.076Z</time>
      </trkpt>
      <trkpt lat="49.4277" lon="1.16856">
        <ele>101.1</ele>
        <time>2012-05-06T10:04:27.074Z</time>
      </trkpt>
      <trkpt lat="49.42765" lon="1.16855">
        <ele>98.4</ele>
        <time>2012-05-06T10:04:29.077Z</time>
      </trkpt>
      <trkpt lat="49.42761" lon="1.16851">
        <ele>105.4</ele>
        <time>2012-05-06T10:04:33.076Z</time>
      </trkpt>
      <trkpt lat="49.42758" lon="1.16846">
        <ele>106.1</ele>
        <time>2012-05-06T10:04:36.087Z</time>
      </trkpt>
      <trkpt lat="49.42754" lon="1.16841">
        <ele>109.2</ele>
        <time>2012-05-06T10:04:42.077Z</time>
      </trkpt>
      <trkpt lat="49.4275" lon="1.16837">
        <ele>113.5</ele>
        <time>2012-05-06T10:04:48.093Z</time>
      </trkpt>
      <trkpt lat="49.42746" lon="1.16833">
        <ele>117.2</ele>
        <time>2012-05-06T10:04:54.077Z</time>
      </trkpt>
      <trkpt lat="49.42741" lon="1.16832">
        <ele>114.3</ele>
        <time>2012-05-06T10:05:00.077Z</time>
      </trkpt>
      <trkpt lat="49.42735" lon="1.16831">
        <ele>112.3</ele>
        <time>2012-05-06T10:05:03.088Z</time>
      </trkpt>
      <trkpt lat="49.4273" lon="1.16833">
        <ele>113.4</ele>
        <time>2012-05-06T10:05:10.089Z</time>
      </trkpt>
      <trkpt lat="49.42726" lon="1.16836">
        <ele>113</ele>
        <time>2012-05-06T10:05:23.080Z</time>
      </trkpt>
      <trkpt lat="49.42719" lon="1.16838">
        <ele>110.6</ele>
        <time>2012-05-06T10:05:28.082Z</time>
      </trkpt>
      <trkpt lat="49.42712" lon="1.1684">
        <ele>111.5</ele>
        <time>2012-05-06T10:05:30.077Z</time>
      </trkpt>
      <trkpt lat="49.42707" lon="1.16843">
        <ele>110.4</ele>
        <time>2012-05-06T10:05:32.077Z</time>
      </trkpt>
      <trkpt lat="49.427" lon="1.16846">
        <ele>109.3</ele>
        <time>2012-05-06T10:05:34.093Z</time>
      </trkpt>
      <trkpt lat="49.42696" lon="1.16849">
        <ele>108.5</ele>
        <time>2012-05-06T10:05:43.093Z</time>
      </trkpt>
      <trkpt lat="49.42688" lon="1.16853">
        <ele>105.1</ele>
        <time>2012-05-06T10:05:47.087Z</time>
      </trkpt>
      <trkpt lat="49.42679" lon="1.16853">
        <ele>104.7</ele>
        <time>2012-05-06T10:05:49.083Z</time>
      </trkpt>
      <trkpt lat="49.42674" lon="1.16853">
        <ele>104.2</ele>
        <time>2012-05-06T10:05:51.077Z</time>
      </trkpt>
      <trkpt lat="49.42671" lon="1.1686">
        <ele>112</ele>
        <time>2012-05-06T10:06:11.088Z</time>
      </trkpt>
      <trkpt lat="49.42666" lon="1.16858">
        <ele>113.3</ele>
        <time>2012-05-06T10:06:24.090Z</time>
      </trkpt>
      <trkpt lat="49.4266" lon="1.16856">
        <ele>113.7</ele>
        <time>2012-05-06T10:06:26.104Z</time>
      </trkpt>
      <trkpt lat="49.42655" lon="1.16852">
        <ele>118.1</ele>
        <time>2012-05-06T10:06:30.092Z</time>
      </trkpt>
      <trkpt lat="49.42652" lon="1.16848">
        <ele>111.3</ele>
        <time>2012-05-06T10:06:45.087Z</time>
      </trkpt>
      <trkpt lat="49.42647" lon="1.16845">
        <ele>112.5</ele>
        <time>2012-05-06T10:06:51.086Z</time>
      </trkpt>
      <trkpt lat="49.42642" lon="1.16845">
        <ele>113</ele>
        <time>2012-05-06T10:06:54.077Z</time>
      </trkpt>
      <trkpt lat="49.42636" lon="1.16841">
        <ele>114.8</ele>
        <time>2012-05-06T10:06:57.087Z</time>
      </trkpt>
      <trkpt lat="49.4263" lon="1.16842">
        <ele>116.2</ele>
        <time>2012-05-06T10:07:00.077Z</time>
      </trkpt>
      <trkpt lat="49.42626" lon="1.16838">
        <ele>125.6</ele>
        <time>2012-05-06T10:07:13.077Z</time>
      </trkpt>
      <trkpt lat="49.42623" lon="1.16831">
        <ele>124.7</ele>
        <time>2012-05-06T10:07:26.075Z</time>
      </trkpt>
      <trkpt lat="49.42617" lon="1.16829">
        <ele>124.5</ele>
        <time>2012-05-06T10:07:30.091Z</time>
      </trkpt>
      <trkpt lat="49.42612" lon="1.16827">
        <ele>124.6</ele>
        <time>2012-05-06T10:07:31.094Z</time>
      </trkpt>
      <trkpt lat="49.42607" lon="1.16828">
        <ele>125.4</ele>
        <time>2012-05-06T10:07:33.787Z</time>
      </trkpt>
      <trkpt lat="49.42603" lon="1.16825">
        <ele>126.2</ele>
        <time>2012-05-06T10:07:35.787Z</time>
      </trkpt>
      <trkpt lat="49.426" lon="1.1682">
        <ele>124.6</ele>
        <time>2012-05-06T10:07:43.093Z</time>
      </trkpt>
      <trkpt lat="49.42594" lon="1.16816">
        <ele>125.7</ele>
        <time>2012-05-06T10:07:47.092Z</time>
      </trkpt>
      <trkpt lat="49.42591" lon="1.16822">
        <ele>121.3</ele>
        <time>2012-05-06T10:07:50.075Z</time>
      </trkpt>
      <trkpt lat="49.42586" lon="1.16822">
        <ele>127.4</ele>
        <time>2012-05-06T10:07:58.077Z</time>
      </trkpt>
      <trkpt lat="49.4258" lon="1.1682">
        <ele>138.9</ele>
        <time>2012-05-06T10:08:09.089Z</time>
      </trkpt>
      <trkpt lat="49.42577" lon="1.16813">
        <ele>134.4</ele>
        <time>2012-05-06T10:08:18.089Z</time>
      </trkpt>
      <trkpt lat="49.42571" lon="1.16807">
        <ele>133.2</ele>
        <time>2012-05-06T10:08:21.076Z</time>
      </trkpt>
      <trkpt lat="49.42569" lon="1.16801">
        <ele>134.5</ele>
        <time>2012-05-06T10:08:23.070Z</time>
      </trkpt>
      <trkpt lat="49.42565" lon="1.16795">
        <ele>135.3</ele>
        <time>2012-05-06T10:08:25.076Z</time>
      </trkpt>
      <trkpt lat="49.42564" lon="1.16788">
        <ele>135</ele>
        <time>2012-05-06T10:08:29.089Z</time>
      </trkpt>
      <trkpt lat="49.42562" lon="1.16781">
        <ele>133.1</ele>
        <time>2012-05-06T10:08:34.211Z</time>
      </trkpt>
      <trkpt lat="49.42558" lon="1.16779">
        <ele>134.8</ele>
        <time>2012-05-06T10:08:42.088Z</time>
      </trkpt>
      <trkpt lat="49.42553" lon="1.16777">
        <ele>144.3</ele>
        <time>2012-05-06T10:08:55.093Z</time>
      </trkpt>
      <trkpt lat="49.42548" lon="1.16773">
        <ele>144.4</ele>
        <time>2012-05-06T10:08:58.077Z</time>
      </trkpt>
      <trkpt lat="49.42541" lon="1.1677">
        <ele>143.8</ele>
        <time>2012-05-06T10:09:02.081Z</time>
      </trkpt>
      <trkpt lat="49.42537" lon="1.16773">
        <ele>143.4</ele>
        <time>2012-05-06T10:09:06.093Z</time>
      </trkpt>
      <trkpt lat="49.4253" lon="1.16771">
        <ele>139.8</ele>
        <time>2012-05-06T10:09:10.088Z</time>
      </trkpt>
      <trkpt lat="49.42524" lon="1.16776">
        <ele>141.5</ele>
        <time>2012-05-06T10:09:12.077Z</time>
      </trkpt>
      <trkpt lat="49.42521" lon="1.16779">
        <ele>141.3</ele>
        <time>2012-05-06T10:09:14.077Z</time>
      </trkpt>
      <trkpt lat="49.42516" lon="1.16783">
        <ele>143.9</ele>
        <time>2012-05-06T10:09:19.075Z</time>
      </trkpt>
      <trkpt lat="49.4251" lon="1.16786">
        <ele>143.3</ele>
        <time>2012-05-06T10:09:26.076Z</time>
      </trkpt>
      <trkpt lat="49.42515" lon="1.16788">
        <ele>141.2</ele>
        <time>2012-05-06T10:09:32.078Z</time>
      </trkpt>
      <trkpt lat="49.4251" lon="1.1679">
        <ele>145.8</ele>
        <time>2012-05-06T10:09:43.076Z</time>
      </trkpt>
      <trkpt lat="49.42504" lon="1.16789">
        <ele>148.4</ele>
        <time>2012-05-06T10:09:49.090Z</time>
      </trkpt>
      <trkpt lat="49.42499" lon="1.16785">
        <ele>146.4</ele>
        <time>2012-05-06T10:10:00.088Z</time>
      </trkpt>
      <trkpt lat="49.42494" lon="1.16789">
        <ele>145.9</ele>
        <time>2012-05-06T10:10:03.087Z</time>
      </trkpt>
      <trkpt lat="49.42491" lon="1.16782">
        <ele>148.6</ele>
        <time>2012-05-06T10:10:09.088Z</time>
      </trkpt>
      <trkpt lat="49.42486" lon="1.16781">
        <ele>147.3</ele>
        <time>2012-05-06T10:10:14.088Z</time>
      </trkpt>
      <trkpt lat="49.4248" lon="1.16782">
        <ele>153.6</ele>
        <time>2012-05-06T10:10:17.092Z</time>
      </trkpt>
      <trkpt lat="49.42476" lon="1.16778">
        <ele>154.1</ele>
        <time>2012-05-06T10:10:20.082Z</time>
      </trkpt>
      <trkpt lat="49.4247" lon="1.16777">
        <ele>149.7</ele>
        <time>2012-05-06T10:10:23.087Z</time>
      </trkpt>
      <trkpt lat="49.42465" lon="1.16774">
        <ele>153</ele>
        <time>2012-05-06T10:10:34.076Z</time>
      </trkpt>
      <trkpt lat="49.4246" lon="1.16775">
        <ele>155.4</ele>
        <time>2012-05-06T10:10:43.096Z</time>
      </trkpt>
      <trkpt lat="49.42455" lon="1.16773">
        <ele>156.3</ele>
        <time>2012-05-06T10:10:49.087Z</time>
      </trkpt>
      <trkpt lat="49.42448" lon="1.16774">
        <ele>160.5</ele>
        <time>2012-05-06T10:10:56.076Z</time>
      </trkpt>
      <trkpt lat="49.42444" lon="1.16776">
        <ele>161.4</ele>
        <time>2012-05-06T10:10:59.094Z</time>
      </trkpt>
      <trkpt lat="49.42439" lon="1.16774">
        <ele>165.6</ele>
        <time>2012-05-06T10:11:15.095Z</time>
      </trkpt>
      <trkpt lat="49.42434" lon="1.16771">
        <ele>168.1</ele>
        <time>2012-05-06T10:11:19.084Z</time>
      </trkpt>
      <trkpt lat="49.4243" lon="1.16774">
        <ele>169.5</ele>
        <time>2012-05-06T10:11:27.087Z</time>
      </trkpt>
      <trkpt lat="49.42425" lon="1.1677">
        <ele>168.1</ele>
        <time>2012-05-06T10:11:32.077Z</time>
      </trkpt>
      <trkpt lat="49.42421" lon="1.16768">
        <ele>168.2</ele>
        <time>2012-05-06T10:11:38.090Z</time>
      </trkpt>
      <trkpt lat="49.42416" lon="1.16765">
        <ele>166.2</ele>
        <time>2012-05-06T10:11:47.085Z</time>
      </trkpt>
      <trkpt lat="49.42411" lon="1.16767">
        <ele>164</ele>
        <time>2012-05-06T10:11:51.081Z</time>
      </trkpt>
      <trkpt lat="49.42407" lon="1.16763">
        <ele>165.4</ele>
        <time>2012-05-06T10:11:56.080Z</time>
      </trkpt>
      <trkpt lat="49.42397" lon="1.16759">
        <ele>163.8</ele>
        <time>2012-05-06T10:12:04.225Z</time>
      </trkpt>
      <trkpt lat="49.42392" lon="1.16756">
        <ele>161.1</ele>
        <time>2012-05-06T10:12:07.225Z</time>
      </trkpt>
      <trkpt lat="49.42386" lon="1.16753">
        <ele>161.2</ele>
        <time>2012-05-06T10:12:11.225Z</time>
      </trkpt>
      <trkpt lat="49.4238" lon="1.16753">
        <ele>161.2</ele>
        <time>2012-05-06T10:12:14.225Z</time>
      </trkpt>
      <trkpt lat="49.42375" lon="1.16753">
        <ele>154.9</ele>
        <time>2012-05-06T10:12:18.108Z</time>
      </trkpt>
      <trkpt lat="49.4237" lon="1.16755">
        <ele>150.7</ele>
        <time>2012-05-06T10:12:21.091Z</time>
      </trkpt>
      <trkpt lat="49.42364" lon="1.16754">
        <ele>149.9</ele>
        <time>2012-05-06T10:12:24.075Z</time>
      </trkpt>
      <trkpt lat="49.42359" lon="1.16753">
        <ele>151.2</ele>
        <time>2012-05-06T10:12:26.092Z</time>
      </trkpt>
      <trkpt lat="49.42351" lon="1.16749">
        <ele>152.2</ele>
        <time>2012-05-06T10:12:28.083Z</time>
      </trkpt>
      <trkpt lat="49.42343" lon="1.1675">
        <ele>153.6</ele>
        <time>2012-05-06T10:12:30.077Z</time>
      </trkpt>
      <trkpt lat="49.42338" lon="1.16751">
        <ele>150.5</ele>
        <time>2012-05-06T10:12:35.077Z</time>
      </trkpt>
      <trkpt lat="49.42332" lon="1.16748">
        <ele>154.4</ele>
        <time>2012-05-06T10:12:40.086Z</time>
      </trkpt>
      <trkpt lat="49.42328" lon="1.16751">
        <ele>155.9</ele>
        <time>2012-05-06T10:12:41.078Z</time>
      </trkpt>
      <trkpt lat="49.42322" lon="1.16748">
        <ele>158.4</ele>
        <time>2012-05-06T10:12:43.929Z</time>
      </trkpt>
      <trkpt lat="49.42321" lon="1.16742">
        <ele>161.5</ele>
        <time>2012-05-06T10:12:48.077Z</time>
      </trkpt>
      <trkpt lat="49.42318" lon="1.16733">
        <ele>164</ele>
        <time>2012-05-06T10:12:52.078Z</time>
      </trkpt>
      <trkpt lat="49.42312" lon="1.1673">
        <ele>164.6</ele>
        <time>2012-05-06T10:12:54.079Z</time>
      </trkpt>
      <trkpt lat="49.42306" lon="1.16729">
        <ele>164</ele>
        <time>2012-05-06T10:12:56.082Z</time>
      </trkpt>
      <trkpt lat="49.42301" lon="1.16723">
        <ele>162.9</ele>
        <time>2012-05-06T10:12:59.076Z</time>
      </trkpt>
      <trkpt lat="49.42296" lon="1.16721">
        <ele>162.2</ele>
        <time>2012-05-06T10:13:00.092Z</time>
      </trkpt>
      <trkpt lat="49.42292" lon="1.16715">
        <ele>161.9</ele>
        <time>2012-05-06T10:13:03.087Z</time>
      </trkpt>
      <trkpt lat="49.42298" lon="1.16711">
        <ele>165.3</ele>
        <time>2012-05-06T10:13:04.079Z</time>
      </trkpt>
      <trkpt lat="49.42298" lon="1.16702">
        <ele>170.5</ele>
        <time>2012-05-06T10:13:08.077Z</time>
      </trkpt>
      <trkpt lat="49.4229" lon="1.167">
        <ele>168.7</ele>
        <time>2012-05-06T10:13:11.087Z</time>
      </trkpt>
      <trkpt lat="49.42285" lon="1.16701">
        <ele>168.3</ele>
        <time>2012-05-06T10:13:13.081Z</time>
      </trkpt>
      <trkpt lat="49.42281" lon="1.16694">
        <ele>168</ele>
        <time>2012-05-06T10:13:15.086Z</time>
      </trkpt>
      <trkpt lat="49.42275" lon="1.16692">
        <ele>166.8</ele>
        <time>2012-05-06T10:13:16.078Z</time>
      </trkpt>
      <trkpt lat="49.4227" lon="1.16688">
        <ele>166.2</ele>
        <time>2012-05-06T10:13:18.081Z</time>
      </trkpt>
      <trkpt lat="49.42272" lon="1.16678">
        <ele>165.3</ele>
        <time>2012-05-06T10:13:20.087Z</time>
      </trkpt>
      <trkpt lat="49.42266" lon="1.16674">
        <ele>165.5</ele>
        <time>2012-05-06T10:13:22.082Z</time>
      </trkpt>
      <trkpt lat="49.42261" lon="1.16667">
        <ele>165.8</ele>
        <time>2012-05-06T10:13:24.094Z</time>
      </trkpt>
      <trkpt lat="49.42252" lon="1.1666">
        <ele>168</ele>
        <time>2012-05-06T10:13:26.077Z</time>
      </trkpt>
      <trkpt lat="49.42247" lon="1.16657">
        <ele>168.1</ele>
        <time>2012-05-06T10:13:28.079Z</time>
      </trkpt>
      <trkpt lat="49.42244" lon="1.1665">
        <ele>168.7</ele>
        <time>2012-05-06T10:13:30.078Z</time>
      </trkpt>
      <trkpt lat="49.42235" lon="1.16644">
        <ele>168.4</ele>
        <time>2012-05-06T10:13:32.083Z</time>
      </trkpt>
      <trkpt lat="49.4223" lon="1.16642">
        <ele>168</ele>
        <time>2012-05-06T10:13:33.075Z</time>
      </trkpt>
      <trkpt lat="49.42224" lon="1.16642">
        <ele>167.5</ele>
        <time>2012-05-06T10:13:34.076Z</time>
      </trkpt>
      <trkpt lat="49.42216" lon="1.16638">
        <ele>167</ele>
        <time>2012-05-06T10:13:36.076Z</time>
      </trkpt>
      <trkpt lat="49.4221" lon="1.16636">
        <ele>150.2</ele>
        <time>2012-05-06T10:13:39.075Z</time>
      </trkpt>
      <trkpt lat="49.42204" lon="1.16635">
        <ele>148.7</ele>
        <time>2012-05-06T10:13:41.076Z</time>
      </trkpt>
      <trkpt lat="49.42199" lon="1.16632">
        <ele>148.1</ele>
        <time>2012-05-06T10:13:42.944Z</time>
      </trkpt>
      <trkpt lat="49.42197" lon="1.16625">
        <ele>153.6</ele>
        <time>2012-05-06T10:13:44.448Z</time>
      </trkpt>
      <trkpt lat="49.42194" lon="1.16618">
        <ele>156.3</ele>
        <time>2012-05-06T10:13:46.077Z</time>
      </trkpt>
      <trkpt lat="49.42191" lon="1.1661">
        <ele>158.6</ele>
        <time>2012-05-06T10:13:48.088Z</time>
      </trkpt>
      <trkpt lat="49.42185" lon="1.16605">
        <ele>160.2</ele>
        <time>2012-05-06T10:13:50.078Z</time>
      </trkpt>
      <trkpt lat="49.42177" lon="1.166">
        <ele>160.5</ele>
        <time>2012-05-06T10:13:52.082Z</time>
      </trkpt>
      <trkpt lat="49.42169" lon="1.16598">
        <ele>161.9</ele>
        <time>2012-05-06T10:13:54.101Z</time>
      </trkpt>
      <trkpt lat="49.42164" lon="1.16597">
        <ele>162.7</ele>
        <time>2012-05-06T10:13:56.089Z</time>
      </trkpt>
      <trkpt lat="49.4216" lon="1.16596">
        <ele>162.6</ele>
        <time>2012-05-06T10:13:57.127Z</time>
      </trkpt>
      <trkpt lat="49.42153" lon="1.16593">
        <ele>165.5</ele>
        <time>2012-05-06T10:13:59.078Z</time>
      </trkpt>
      <trkpt lat="49.42148" lon="1.16588">
        <ele>158.9</ele>
        <time>2012-05-06T10:14:05.083Z</time>
      </trkpt>
      <trkpt lat="49.4214" lon="1.16584">
        <ele>159.3</ele>
        <time>2012-05-06T10:14:07.087Z</time>
      </trkpt>
      <trkpt lat="49.42134" lon="1.16583">
        <ele>159.3</ele>
        <time>2012-05-06T10:14:08.080Z</time>
      </trkpt>
      <trkpt lat="49.42128" lon="1.16582">
        <ele>159.2</ele>
        <time>2012-05-06T10:14:09.076Z</time>
      </trkpt>
      <trkpt lat="49.42121" lon="1.16585">
        <ele>159.9</ele>
        <time>2012-05-06T10:14:11.074Z</time>
      </trkpt>
      <trkpt lat="49.42111" lon="1.16586">
        <ele>161.7</ele>
        <time>2012-05-06T10:14:13.074Z</time>
      </trkpt>
      <trkpt lat="49.42105" lon="1.16591">
        <ele>158.5</ele>
        <time>2012-05-06T10:14:15.094Z</time>
      </trkpt>
      <trkpt lat="49.42097" lon="1.16594">
        <ele>157.7</ele>
        <time>2012-05-06T10:14:17.077Z</time>
      </trkpt>
      <trkpt lat="49.42088" lon="1.166">
        <ele>157.2</ele>
        <time>2012-05-06T10:14:19.092Z</time>
      </trkpt>
      <trkpt lat="49.42084" lon="1.16603">
        <ele>157.3</ele>
        <time>2012-05-06T10:14:20.088Z</time>
      </trkpt>
      <trkpt lat="49.42078" lon="1.16606">
        <ele>157.9</ele>
        <time>2012-05-06T10:14:21.076Z</time>
      </trkpt>
      <trkpt lat="49.42069" lon="1.16613">
        <ele>158.6</ele>
        <time>2012-05-06T10:14:23.074Z</time>
      </trkpt>
      <trkpt lat="49.42065" lon="1.16618">
        <ele>159.8</ele>
        <time>2012-05-06T10:14:25.075Z</time>
      </trkpt>
      <trkpt lat="49.42058" lon="1.1662">
        <ele>161.5</ele>
        <time>2012-05-06T10:14:27.078Z</time>
      </trkpt>
      <trkpt lat="49.42057" lon="1.16627">
        <ele>158.7</ele>
        <time>2012-05-06T10:14:31.076Z</time>
      </trkpt>
      <trkpt lat="49.4205" lon="1.16627">
        <ele>160.1</ele>
        <time>2012-05-06T10:14:35.095Z</time>
      </trkpt>
      <trkpt lat="49.42044" lon="1.16626">
        <ele>163.4</ele>
        <time>2012-05-06T10:14:39.088Z</time>
      </trkpt>
      <trkpt lat="49.4204" lon="1.16626">
        <ele>163.6</ele>
        <time>2012-05-06T10:14:41.076Z</time>
      </trkpt>
      <trkpt lat="49.42033" lon="1.16625">
        <ele>156.1</ele>
        <time>2012-05-06T10:14:43.088Z</time>
      </trkpt>
      <trkpt lat="49.42027" lon="1.16628">
        <ele>151.3</ele>
        <time>2012-05-06T10:14:46.092Z</time>
      </trkpt>
      <trkpt lat="49.42022" lon="1.16632">
        <ele>151.1</ele>
        <time>2012-05-06T10:14:48.088Z</time>
      </trkpt>
      <trkpt lat="49.42018" lon="1.16629">
        <ele>155.4</ele>
        <time>2012-05-06T10:14:50.076Z</time>
      </trkpt>
      <trkpt lat="49.42013" lon="1.1663">
        <ele>157.4</ele>
        <time>2012-05-06T10:14:52.095Z</time>
      </trkpt>
      <trkpt lat="49.42008" lon="1.16633">
        <ele>159.2</ele>
        <time>2012-05-06T10:14:54.080Z</time>
      </trkpt>
      <trkpt lat="49.42012" lon="1.16635">
        <ele>151.5</ele>
        <time>2012-05-06T10:14:56.089Z</time>
      </trkpt>
      <trkpt lat="49.42006" lon="1.16635">
        <ele>149.2</ele>
        <time>2012-05-06T10:14:59.073Z</time>
      </trkpt>
      <trkpt lat="49.41999" lon="1.16635">
        <ele>149.3</ele>
        <time>2012-05-06T10:15:01.088Z</time>
      </trkpt>
      <trkpt lat="49.41993" lon="1.16636">
        <ele>151.2</ele>
        <time>2012-05-06T10:15:02.077Z</time>
      </trkpt>
      <trkpt lat="49.41989" lon="1.1664">
        <ele>151.1</ele>
        <time>2012-05-06T10:15:03.075Z</time>
      </trkpt>
      <trkpt lat="49.41979" lon="1.16641">
        <ele>151</ele>
        <time>2012-05-06T10:15:05.087Z</time>
      </trkpt>
      <trkpt lat="49.41972" lon="1.16643">
        <ele>152.2</ele>
        <time>2012-05-06T10:15:08.095Z</time>
      </trkpt>
      <trkpt lat="49.41964" lon="1.16648">
        <ele>154.9</ele>
        <time>2012-05-06T10:15:10.077Z</time>
      </trkpt>
      <trkpt lat="49.41959" lon="1.16651">
        <ele>166.3</ele>
        <time>2012-05-06T10:15:17.082Z</time>
      </trkpt>
      <trkpt lat="49.41955" lon="1.16648">
        <ele>169.3</ele>
        <time>2012-05-06T10:15:19.084Z</time>
      </trkpt>
      <trkpt lat="49.4195" lon="1.16648">
        <ele>169.7</ele>
        <time>2012-05-06T10:15:21.079Z</time>
      </trkpt>
      <trkpt lat="49.41945" lon="1.16648">
        <ele>169.8</ele>
        <time>2012-05-06T10:15:23.102Z</time>
      </trkpt>
      <trkpt lat="49.41937" lon="1.16651">
        <ele>171.8</ele>
        <time>2012-05-06T10:15:25.080Z</time>
      </trkpt>
      <trkpt lat="49.41929" lon="1.16649">
        <ele>167.8</ele>
        <time>2012-05-06T10:15:26.079Z</time>
      </trkpt>
      <trkpt lat="49.41923" lon="1.16649">
        <ele>167.5</ele>
        <time>2012-05-06T10:15:27.077Z</time>
      </trkpt>
      <trkpt lat="49.41916" lon="1.16649">
        <ele>167.1</ele>
        <time>2012-05-06T10:15:29.087Z</time>
      </trkpt>
      <trkpt lat="49.41911" lon="1.16648">
        <ele>170</ele>
        <time>2012-05-06T10:15:30.079Z</time>
      </trkpt>
      <trkpt lat="49.41907" lon="1.1665">
        <ele>170.6</ele>
        <time>2012-05-06T10:15:31.077Z</time>
      </trkpt>
      <trkpt lat="49.419" lon="1.16647">
        <ele>170.2</ele>
        <time>2012-05-06T10:15:33.077Z</time>
      </trkpt>
      <trkpt lat="49.41892" lon="1.16642">
        <ele>167</ele>
        <time>2012-05-06T10:15:34.078Z</time>
      </trkpt>
      <trkpt lat="49.41896" lon="1.16629">
        <ele>161.6</ele>
        <time>2012-05-06T10:15:35.072Z</time>
      </trkpt>
      <trkpt lat="49.41892" lon="1.16621">
        <ele>160.2</ele>
        <time>2012-05-06T10:15:36.080Z</time>
      </trkpt>
      <trkpt lat="49.4189" lon="1.16613">
        <ele>161</ele>
        <time>2012-05-06T10:15:38.076Z</time>
      </trkpt>
      <trkpt lat="49.41886" lon="1.16604">
        <ele>161.8</ele>
        <time>2012-05-06T10:15:41.076Z</time>
      </trkpt>
      <trkpt lat="49.41882" lon="1.166">
        <ele>163.9</ele>
        <time>2012-05-06T10:15:45.088Z</time>
      </trkpt>
      <trkpt lat="49.41876" lon="1.16596">
        <ele>163.3</ele>
        <time>2012-05-06T10:15:47.081Z</time>
      </trkpt>
      <trkpt lat="49.4187" lon="1.16588">
        <ele>165.7</ele>
        <time>2012-05-06T10:15:50.089Z</time>
      </trkpt>
      <trkpt lat="49.41862" lon="1.16582">
        <ele>165.9</ele>
        <time>2012-05-06T10:15:52.076Z</time>
      </trkpt>
      <trkpt lat="49.41857" lon="1.16578">
        <ele>163.8</ele>
        <time>2012-05-06T10:15:53.087Z</time>
      </trkpt>
      <trkpt lat="49.41851" lon="1.16572">
        <ele>162.5</ele>
        <time>2012-05-06T10:15:54.089Z</time>
      </trkpt>
      <trkpt lat="49.41845" lon="1.16563">
        <ele>164.6</ele>
        <time>2012-05-06T10:15:56.077Z</time>
      </trkpt>
      <trkpt lat="49.41838" lon="1.16559">
        <ele>167.5</ele>
        <time>2012-05-06T10:15:58.089Z</time>
      </trkpt>
      <trkpt lat="49.41833" lon="1.16552">
        <ele>167.3</ele>
        <time>2012-05-06T10:15:59.077Z</time>
      </trkpt>
      <trkpt lat="49.41828" lon="1.16545">
        <ele>167.2</ele>
        <time>2012-05-06T10:16:00.101Z</time>
      </trkpt>
      <trkpt lat="49.41824" lon="1.16538">
        <ele>167.1</ele>
        <time>2012-05-06T10:16:01.082Z</time>
      </trkpt>
      <trkpt lat="49.41817" lon="1.1654">
        <ele>168.6</ele>
        <time>2012-05-06T10:16:02.079Z</time>
      </trkpt>
      <trkpt lat="49.41814" lon="1.16533">
        <ele>168.9</ele>
        <time>2012-05-06T10:16:04.101Z</time>
      </trkpt>
      <trkpt lat="49.41815" lon="1.16522">
        <ele>168.9</ele>
        <time>2012-05-06T10:16:06.096Z</time>
      </trkpt>
      <trkpt lat="49.41811" lon="1.16512">
        <ele>170.3</ele>
        <time>2012-05-06T10:16:09.089Z</time>
      </trkpt>
      <trkpt lat="49.41801" lon="1.16508">
        <ele>170.4</ele>
        <time>2012-05-06T10:16:11.089Z</time>
      </trkpt>
      <trkpt lat="49.4179" lon="1.16505">
        <ele>173.1</ele>
        <time>2012-05-06T10:16:13.088Z</time>
      </trkpt>
      <trkpt lat="49.41782" lon="1.16504">
        <ele>175.4</ele>
        <time>2012-05-06T10:16:15.086Z</time>
      </trkpt>
      <trkpt lat="49.41772" lon="1.165">
        <ele>172.9</ele>
        <time>2012-05-06T10:16:16.089Z</time>
      </trkpt>
      <trkpt lat="49.41763" lon="1.16496">
        <ele>173.8</ele>
        <time>2012-05-06T10:16:18.089Z</time>
      </trkpt>
      <trkpt lat="49.41753" lon="1.16491">
        <ele>175</ele>
        <time>2012-05-06T10:16:20.089Z</time>
      </trkpt>
      <trkpt lat="49.41744" lon="1.16488">
        <ele>175.3</ele>
        <time>2012-05-06T10:16:22.089Z</time>
      </trkpt>
      <trkpt lat="49.41738" lon="1.16487">
        <ele>175.3</ele>
        <time>2012-05-06T10:16:23.087Z</time>
      </trkpt>
      <trkpt lat="49.41729" lon="1.16484">
        <ele>176.2</ele>
        <time>2012-05-06T10:16:25.088Z</time>
      </trkpt>
      <trkpt lat="49.41724" lon="1.16484">
        <ele>176.7</ele>
        <time>2012-05-06T10:16:26.089Z</time>
      </trkpt>
      <trkpt lat="49.41713" lon="1.16482">
        <ele>176</ele>
        <time>2012-05-06T10:16:28.089Z</time>
      </trkpt>
      <trkpt lat="49.41708" lon="1.16482">
        <ele>177.4</ele>
        <time>2012-05-06T10:16:29.087Z</time>
      </trkpt>
      <trkpt lat="49.41703" lon="1.1648">
        <ele>177.4</ele>
        <time>2012-05-06T10:16:30.089Z</time>
      </trkpt>
      <trkpt lat="49.41699" lon="1.16477">
        <ele>178</ele>
        <time>2012-05-06T10:16:31.087Z</time>
      </trkpt>
      <trkpt lat="49.41694" lon="1.16476">
        <ele>178</ele>
        <time>2012-05-06T10:16:32.087Z</time>
      </trkpt>
      <trkpt lat="49.4169" lon="1.16475">
        <ele>178.5</ele>
        <time>2012-05-06T10:16:33.087Z</time>
      </trkpt>
      <trkpt lat="49.41685" lon="1.16473">
        <ele>178.4</ele>
        <time>2012-05-06T10:16:34.089Z</time>
      </trkpt>
      <trkpt lat="49.41676" lon="1.1647">
        <ele>178.6</ele>
        <time>2012-05-06T10:16:36.083Z</time>
      </trkpt>
      <trkpt lat="49.41669" lon="1.16467">
        <ele>177.5</ele>
        <time>2012-05-06T10:16:38.089Z</time>
      </trkpt>
      <trkpt lat="49.41662" lon="1.16462">
        <ele>178.8</ele>
        <time>2012-05-06T10:16:40.088Z</time>
      </trkpt>
      <trkpt lat="49.41654" lon="1.16457">
        <ele>180.3</ele>
        <time>2012-05-06T10:16:42.077Z</time>
      </trkpt>
      <trkpt lat="49.41648" lon="1.1645">
        <ele>181.6</ele>
        <time>2012-05-06T10:16:44.082Z</time>
      </trkpt>
      <trkpt lat="49.4164" lon="1.16444">
        <ele>182.5</ele>
        <time>2012-05-06T10:16:46.079Z</time>
      </trkpt>
      <trkpt lat="49.41636" lon="1.16442">
        <ele>182.5</ele>
        <time>2012-05-06T10:16:47.080Z</time>
      </trkpt>
      <trkpt lat="49.41634" lon="1.16435">
        <ele>181.6</ele>
        <time>2012-05-06T10:16:48.080Z</time>
      </trkpt>
      <trkpt lat="49.4163" lon="1.1643">
        <ele>180.6</ele>
        <time>2012-05-06T10:16:49.081Z</time>
      </trkpt>
      <trkpt lat="49.41624" lon="1.1642">
        <ele>180.3</ele>
        <time>2012-05-06T10:16:51.081Z</time>
      </trkpt>
      <trkpt lat="49.41618" lon="1.1641">
        <ele>181</ele>
        <time>2012-05-06T10:16:53.080Z</time>
      </trkpt>
      <trkpt lat="49.41613" lon="1.16401">
        <ele>181.3</ele>
        <time>2012-05-06T10:16:55.081Z</time>
      </trkpt>
      <trkpt lat="49.41601" lon="1.16397">
        <ele>182.4</ele>
        <time>2012-05-06T10:16:57.080Z</time>
      </trkpt>
      <trkpt lat="49.41597" lon="1.16394">
        <ele>182.8</ele>
        <time>2012-05-06T10:16:58.081Z</time>
      </trkpt>
      <trkpt lat="49.4159" lon="1.1639">
        <ele>182.2</ele>
        <time>2012-05-06T10:17:00.080Z</time>
      </trkpt>
      <trkpt lat="49.41585" lon="1.16383">
        <ele>183.3</ele>
        <time>2012-05-06T10:17:02.081Z</time>
      </trkpt>
      <trkpt lat="49.41579" lon="1.1638">
        <ele>183.7</ele>
        <time>2012-05-06T10:17:04.084Z</time>
      </trkpt>
      <trkpt lat="49.41573" lon="1.16378">
        <ele>183.8</ele>
        <time>2012-05-06T10:17:06.100Z</time>
      </trkpt>
      <trkpt lat="49.41568" lon="1.16375">
        <ele>183.8</ele>
        <time>2012-05-06T10:17:08.081Z</time>
      </trkpt>
      <trkpt lat="49.41562" lon="1.1637">
        <ele>182.2</ele>
        <time>2012-05-06T10:17:10.081Z</time>
      </trkpt>
      <trkpt lat="49.41556" lon="1.16365">
        <ele>182.1</ele>
        <time>2012-05-06T10:17:12.080Z</time>
      </trkpt>
      <trkpt lat="49.4155" lon="1.16362">
        <ele>182.8</ele>
        <time>2012-05-06T10:17:14.081Z</time>
      </trkpt>
      <trkpt lat="49.41543" lon="1.16358">
        <ele>181.6</ele>
        <time>2012-05-06T10:17:16.082Z</time>
      </trkpt>
      <trkpt lat="49.41535" lon="1.16355">
        <ele>181.5</ele>
        <time>2012-05-06T10:17:18.081Z</time>
      </trkpt>
      <trkpt lat="49.4153" lon="1.16349">
        <ele>181.9</ele>
        <time>2012-05-06T10:17:20.080Z</time>
      </trkpt>
      <trkpt lat="49.41526" lon="1.16344">
        <ele>182.4</ele>
        <time>2012-05-06T10:17:21.080Z</time>
      </trkpt>
      <trkpt lat="49.4152" lon="1.16342">
        <ele>182.2</ele>
        <time>2012-05-06T10:17:23.161Z</time>
      </trkpt>
      <trkpt lat="49.41513" lon="1.16336">
        <ele>181.5</ele>
        <time>2012-05-06T10:17:25.081Z</time>
      </trkpt>
      <trkpt lat="49.41508" lon="1.16335">
        <ele>180.8</ele>
        <time>2012-05-06T10:17:26.081Z</time>
      </trkpt>
      <trkpt lat="49.415" lon="1.1633">
        <ele>181.4</ele>
        <time>2012-05-06T10:17:28.080Z</time>
      </trkpt>
      <trkpt lat="49.41494" lon="1.16326">
        <ele>180</ele>
        <time>2012-05-06T10:17:29.081Z</time>
      </trkpt>
      <trkpt lat="49.41486" lon="1.16318">
        <ele>178.9</ele>
        <time>2012-05-06T10:17:31.080Z</time>
      </trkpt>
      <trkpt lat="49.41482" lon="1.16309">
        <ele>178.5</ele>
        <time>2012-05-06T10:17:33.087Z</time>
      </trkpt>
      <trkpt lat="49.41477" lon="1.16302">
        <ele>178.7</ele>
        <time>2012-05-06T10:17:34.078Z</time>
      </trkpt>
      <trkpt lat="49.41474" lon="1.16295">
        <ele>176.7</ele>
        <time>2012-05-06T10:17:35.078Z</time>
      </trkpt>
      <trkpt lat="49.41471" lon="1.16287">
        <ele>176.5</ele>
        <time>2012-05-06T10:17:36.087Z</time>
      </trkpt>
      <trkpt lat="49.41469" lon="1.16278">
        <ele>176.1</ele>
        <time>2012-05-06T10:17:37.089Z</time>
      </trkpt>
      <trkpt lat="49.41467" lon="1.16271">
        <ele>176.8</ele>
        <time>2012-05-06T10:17:38.080Z</time>
      </trkpt>
      <trkpt lat="49.41465" lon="1.16264">
        <ele>176.2</ele>
        <time>2012-05-06T10:17:39.078Z</time>
      </trkpt>
      <trkpt lat="49.41462" lon="1.16253">
        <ele>177</ele>
        <time>2012-05-06T10:17:41.086Z</time>
      </trkpt>
      <trkpt lat="49.4146" lon="1.1624">
        <ele>176.9</ele>
        <time>2012-05-06T10:17:43.086Z</time>
      </trkpt>
      <trkpt lat="49.41457" lon="1.16227">
        <ele>175.2</ele>
        <time>2012-05-06T10:17:45.087Z</time>
      </trkpt>
      <trkpt lat="49.41456" lon="1.16213">
        <ele>174.2</ele>
        <time>2012-05-06T10:17:47.088Z</time>
      </trkpt>
      <trkpt lat="49.41456" lon="1.16204">
        <ele>174.1</ele>
        <time>2012-05-06T10:17:48.088Z</time>
      </trkpt>
      <trkpt lat="49.41455" lon="1.16197">
        <ele>173.8</ele>
        <time>2012-05-06T10:17:49.148Z</time>
      </trkpt>
      <trkpt lat="49.41454" lon="1.16182">
        <ele>174</ele>
        <time>2012-05-06T10:17:51.087Z</time>
      </trkpt>
      <trkpt lat="49.41453" lon="1.16175">
        <ele>173.7</ele>
        <time>2012-05-06T10:17:52.087Z</time>
      </trkpt>
      <trkpt lat="49.41452" lon="1.16168">
        <ele>173.6</ele>
        <time>2012-05-06T10:17:53.088Z</time>
      </trkpt>
      <trkpt lat="49.41451" lon="1.16161">
        <ele>173.3</ele>
        <time>2012-05-06T10:17:54.087Z</time>
      </trkpt>
      <trkpt lat="49.41451" lon="1.16153">
        <ele>173.5</ele>
        <time>2012-05-06T10:17:55.088Z</time>
      </trkpt>
      <trkpt lat="49.4145" lon="1.16146">
        <ele>173.9</ele>
        <time>2012-05-06T10:17:56.088Z</time>
      </trkpt>
      <trkpt lat="49.41449" lon="1.16139">
        <ele>174.3</ele>
        <time>2012-05-06T10:17:57.088Z</time>
      </trkpt>
      <trkpt lat="49.41448" lon="1.16131">
        <ele>174.5</ele>
        <time>2012-05-06T10:17:58.087Z</time>
      </trkpt>
      <trkpt lat="49.41447" lon="1.16117">
        <ele>173.8</ele>
        <time>2012-05-06T10:18:00.078Z</time>
      </trkpt>
      <trkpt lat="49.41446" lon="1.1611">
        <ele>173.7</ele>
        <time>2012-05-06T10:18:01.090Z</time>
      </trkpt>
      <trkpt lat="49.41446" lon="1.16102">
        <ele>174.1</ele>
        <time>2012-05-06T10:18:02.088Z</time>
      </trkpt>
      <trkpt lat="49.41445" lon="1.16094">
        <ele>174.2</ele>
        <time>2012-05-06T10:18:03.088Z</time>
      </trkpt>
      <trkpt lat="49.41444" lon="1.16087">
        <ele>174.1</ele>
        <time>2012-05-06T10:18:04.090Z</time>
      </trkpt>
      <trkpt lat="49.41442" lon="1.16074">
        <ele>173.3</ele>
        <time>2012-05-06T10:18:06.091Z</time>
      </trkpt>
      <trkpt lat="49.41441" lon="1.16061">
        <ele>173.5</ele>
        <time>2012-05-06T10:18:08.095Z</time>
      </trkpt>
      <trkpt lat="49.41439" lon="1.16049">
        <ele>173.4</ele>
        <time>2012-05-06T10:18:10.091Z</time>
      </trkpt>
      <trkpt lat="49.41438" lon="1.16039">
        <ele>174.4</ele>
        <time>2012-05-06T10:18:12.091Z</time>
      </trkpt>
      <trkpt lat="49.41436" lon="1.16028">
        <ele>174.8</ele>
        <time>2012-05-06T10:18:14.097Z</time>
      </trkpt>
      <trkpt lat="49.41435" lon="1.16013">
        <ele>174.7</ele>
        <time>2012-05-06T10:18:16.075Z</time>
      </trkpt>
      <trkpt lat="49.41434" lon="1.16004">
        <ele>175.1</ele>
        <time>2012-05-06T10:18:17.076Z</time>
      </trkpt>
      <trkpt lat="49.41434" lon="1.15996">
        <ele>175.7</ele>
        <time>2012-05-06T10:18:18.075Z</time>
      </trkpt>
      <trkpt lat="49.41433" lon="1.15987">
        <ele>175.7</ele>
        <time>2012-05-06T10:18:19.095Z</time>
      </trkpt>
      <trkpt lat="49.41432" lon="1.1598">
        <ele>175.6</ele>
        <time>2012-05-06T10:18:20.085Z</time>
      </trkpt>
      <trkpt lat="49.41431" lon="1.15971">
        <ele>175.1</ele>
        <time>2012-05-06T10:18:21.075Z</time>
      </trkpt>
      <trkpt lat="49.4143" lon="1.15963">
        <ele>175.4</ele>
        <time>2012-05-06T10:18:22.076Z</time>
      </trkpt>
      <trkpt lat="49.41428" lon="1.15956">
        <ele>175.9</ele>
        <time>2012-05-06T10:18:23.075Z</time>
      </trkpt>
      <trkpt lat="49.41427" lon="1.15949">
        <ele>175.7</ele>
        <time>2012-05-06T10:18:24.075Z</time>
      </trkpt>
      <trkpt lat="49.41426" lon="1.15941">
        <ele>175.8</ele>
        <time>2012-05-06T10:18:25.076Z</time>
      </trkpt>
      <trkpt lat="49.41424" lon="1.15933">
        <ele>175.9</ele>
        <time>2012-05-06T10:18:26.075Z</time>
      </trkpt>
      <trkpt lat="49.41423" lon="1.15926">
        <ele>176.4</ele>
        <time>2012-05-06T10:18:27.078Z</time>
      </trkpt>
      <trkpt lat="49.41421" lon="1.15918">
        <ele>176.5</ele>
        <time>2012-05-06T10:18:28.076Z</time>
      </trkpt>
      <trkpt lat="49.4142" lon="1.1591">
        <ele>176.6</ele>
        <time>2012-05-06T10:18:29.075Z</time>
      </trkpt>
      <trkpt lat="49.41418" lon="1.15903">
        <ele>176.9</ele>
        <time>2012-05-06T10:18:30.076Z</time>
      </trkpt>
      <trkpt lat="49.41417" lon="1.15896">
        <ele>176.3</ele>
        <time>2012-05-06T10:18:31.092Z</time>
      </trkpt>
      <trkpt lat="49.41416" lon="1.15888">
        <ele>176</ele>
        <time>2012-05-06T10:18:32.075Z</time>
      </trkpt>
      <trkpt lat="49.41412" lon="1.15875">
        <ele>176.6</ele>
        <time>2012-05-06T10:18:34.076Z</time>
      </trkpt>
      <trkpt lat="49.41411" lon="1.15868">
        <ele>177.2</ele>
        <time>2012-05-06T10:18:35.076Z</time>
      </trkpt>
      <trkpt lat="49.41408" lon="1.15856">
        <ele>178</ele>
        <time>2012-05-06T10:18:37.075Z</time>
      </trkpt>
      <trkpt lat="49.41404" lon="1.15844">
        <ele>178.3</ele>
        <time>2012-05-06T10:18:39.076Z</time>
      </trkpt>
      <trkpt lat="49.41403" lon="1.15837">
        <ele>178.5</ele>
        <time>2012-05-06T10:18:40.074Z</time>
      </trkpt>
      <trkpt lat="49.414" lon="1.15831">
        <ele>178</ele>
        <time>2012-05-06T10:18:41.088Z</time>
      </trkpt>
      <trkpt lat="49.41396" lon="1.15819">
        <ele>178.4</ele>
        <time>2012-05-06T10:18:43.076Z</time>
      </trkpt>
      <trkpt lat="49.41393" lon="1.15807">
        <ele>177.9</ele>
        <time>2012-05-06T10:18:45.090Z</time>
      </trkpt>
      <trkpt lat="49.41389" lon="1.15796">
        <ele>177.1</ele>
        <time>2012-05-06T10:18:47.080Z</time>
      </trkpt>
      <trkpt lat="49.41384" lon="1.15784">
        <ele>176.9</ele>
        <time>2012-05-06T10:18:49.082Z</time>
      </trkpt>
      <trkpt lat="49.4138" lon="1.15772">
        <ele>176.9</ele>
        <time>2012-05-06T10:18:51.086Z</time>
      </trkpt>
      <trkpt lat="49.41377" lon="1.15765">
        <ele>176.5</ele>
        <time>2012-05-06T10:18:52.083Z</time>
      </trkpt>
      <trkpt lat="49.41376" lon="1.15758">
        <ele>176.8</ele>
        <time>2012-05-06T10:18:53.088Z</time>
      </trkpt>
      <trkpt lat="49.4137" lon="1.15746">
        <ele>177.4</ele>
        <time>2012-05-06T10:18:55.081Z</time>
      </trkpt>
      <trkpt lat="49.41369" lon="1.15739">
        <ele>177.7</ele>
        <time>2012-05-06T10:18:56.070Z</time>
      </trkpt>
      <trkpt lat="49.41366" lon="1.15733">
        <ele>177.8</ele>
        <time>2012-05-06T10:18:57.079Z</time>
      </trkpt>
      <trkpt lat="49.41363" lon="1.15726">
        <ele>177.7</ele>
        <time>2012-05-06T10:18:58.078Z</time>
      </trkpt>
      <trkpt lat="49.41361" lon="1.15719">
        <ele>178</ele>
        <time>2012-05-06T10:18:59.088Z</time>
      </trkpt>
      <trkpt lat="49.41357" lon="1.15705">
        <ele>177.7</ele>
        <time>2012-05-06T10:19:01.075Z</time>
      </trkpt>
      <trkpt lat="49.41355" lon="1.15698">
        <ele>177.8</ele>
        <time>2012-05-06T10:19:02.076Z</time>
      </trkpt>
      <trkpt lat="49.41352" lon="1.1569">
        <ele>177.9</ele>
        <time>2012-05-06T10:19:03.089Z</time>
      </trkpt>
      <trkpt lat="49.4135" lon="1.15684">
        <ele>177.6</ele>
        <time>2012-05-06T10:19:04.076Z</time>
      </trkpt>
      <trkpt lat="49.41347" lon="1.15676">
        <ele>177.2</ele>
        <time>2012-05-06T10:19:05.076Z</time>
      </trkpt>
      <trkpt lat="49.41344" lon="1.15669">
        <ele>177.4</ele>
        <time>2012-05-06T10:19:06.077Z</time>
      </trkpt>
      <trkpt lat="49.41342" lon="1.15662">
        <ele>177.4</ele>
        <time>2012-05-06T10:19:07.090Z</time>
      </trkpt>
      <trkpt lat="49.41339" lon="1.15655">
        <ele>176.9</ele>
        <time>2012-05-06T10:19:08.077Z</time>
      </trkpt>
      <trkpt lat="49.41336" lon="1.15648">
        <ele>176</ele>
        <time>2012-05-06T10:19:09.089Z</time>
      </trkpt>
      <trkpt lat="49.41334" lon="1.15641">
        <ele>175.9</ele>
        <time>2012-05-06T10:19:10.079Z</time>
      </trkpt>
      <trkpt lat="49.41332" lon="1.15634">
        <ele>176</ele>
        <time>2012-05-06T10:19:11.077Z</time>
      </trkpt>
      <trkpt lat="49.41326" lon="1.15623">
        <ele>175.7</ele>
        <time>2012-05-06T10:19:13.089Z</time>
      </trkpt>
      <trkpt lat="49.41322" lon="1.15613">
        <ele>175.4</ele>
        <time>2012-05-06T10:19:15.089Z</time>
      </trkpt>
      <trkpt lat="49.41316" lon="1.15602">
        <ele>175.3</ele>
        <time>2012-05-06T10:19:17.089Z</time>
      </trkpt>
      <trkpt lat="49.41311" lon="1.15593">
        <ele>175.6</ele>
        <time>2012-05-06T10:19:19.089Z</time>
      </trkpt>
      <trkpt lat="49.41307" lon="1.15584">
        <ele>176.2</ele>
        <time>2012-05-06T10:19:21.090Z</time>
      </trkpt>
      <trkpt lat="49.41304" lon="1.15575">
        <ele>176.8</ele>
        <time>2012-05-06T10:19:23.090Z</time>
      </trkpt>
      <trkpt lat="49.41301" lon="1.15567">
        <ele>177.3</ele>
        <time>2012-05-06T10:19:25.090Z</time>
      </trkpt>
      <trkpt lat="49.41299" lon="1.1556">
        <ele>177.5</ele>
        <time>2012-05-06T10:19:27.090Z</time>
      </trkpt>
      <trkpt lat="49.41297" lon="1.15552">
        <ele>176.8</ele>
        <time>2012-05-06T10:19:29.090Z</time>
      </trkpt>
      <trkpt lat="49.41295" lon="1.15546">
        <ele>176.6</ele>
        <time>2012-05-06T10:19:31.089Z</time>
      </trkpt>
      <trkpt lat="49.41291" lon="1.1555">
        <ele>178.6</ele>
        <time>2012-05-06T10:21:00.079Z</time>
      </trkpt>
      <trkpt lat="49.41288" lon="1.15546">
        <ele>176</ele>
        <time>2012-05-06T10:22:31.083Z</time>
      </trkpt>
      <trkpt lat="49.41286" lon="1.15536">
        <ele>175.9</ele>
        <time>2012-05-06T10:22:38.088Z</time>
      </trkpt>
      <trkpt lat="49.41283" lon="1.1553">
        <ele>176.4</ele>
        <time>2012-05-06T10:22:40.081Z</time>
      </trkpt>
      <trkpt lat="49.41279" lon="1.15524">
        <ele>176.6</ele>
        <time>2012-05-06T10:22:42.089Z</time>
      </trkpt>
      <trkpt lat="49.41275" lon="1.15517">
        <ele>176.8</ele>
        <time>2012-05-06T10:22:44.087Z</time>
      </trkpt>
      <trkpt lat="49.41272" lon="1.15509">
        <ele>176.7</ele>
        <time>2012-05-06T10:22:46.078Z</time>
      </trkpt>
      <trkpt lat="49.41268" lon="1.15502">
        <ele>177.1</ele>
        <time>2012-05-06T10:22:48.087Z</time>
      </trkpt>
      <trkpt lat="49.41264" lon="1.15494">
        <ele>176.9</ele>
        <time>2012-05-06T10:22:50.078Z</time>
      </trkpt>
      <trkpt lat="49.4126" lon="1.15485">
        <ele>176.8</ele>
        <time>2012-05-06T10:22:52.089Z</time>
      </trkpt>
      <trkpt lat="49.41258" lon="1.15475">
        <ele>176.7</ele>
        <time>2012-05-06T10:22:54.087Z</time>
      </trkpt>
      <trkpt lat="49.41256" lon="1.15466">
        <ele>177.2</ele>
        <time>2012-05-06T10:22:56.089Z</time>
      </trkpt>
      <trkpt lat="49.41255" lon="1.15458">
        <ele>177</ele>
        <time>2012-05-06T10:22:58.079Z</time>
      </trkpt>
      <trkpt lat="49.41254" lon="1.15451">
        <ele>177.3</ele>
        <time>2012-05-06T10:23:00.087Z</time>
      </trkpt>
      <trkpt lat="49.41256" lon="1.15441">
        <ele>177.1</ele>
        <time>2012-05-06T10:23:02.083Z</time>
      </trkpt>
      <trkpt lat="49.41256" lon="1.15431">
        <ele>177.5</ele>
        <time>2012-05-06T10:23:04.078Z</time>
      </trkpt>
      <trkpt lat="49.41256" lon="1.15422">
        <ele>177.4</ele>
        <time>2012-05-06T10:23:06.090Z</time>
      </trkpt>
      <trkpt lat="49.41252" lon="1.15413">
        <ele>177.5</ele>
        <time>2012-05-06T10:23:08.088Z</time>
      </trkpt>
      <trkpt lat="49.41247" lon="1.15405">
        <ele>177.3</ele>
        <time>2012-05-06T10:23:10.088Z</time>
      </trkpt>
      <trkpt lat="49.4124" lon="1.15398">
        <ele>177.3</ele>
        <time>2012-05-06T10:23:12.087Z</time>
      </trkpt>
      <trkpt lat="49.41232" lon="1.15392">
        <ele>177.1</ele>
        <time>2012-05-06T10:23:14.087Z</time>
      </trkpt>
      <trkpt lat="49.41226" lon="1.15384">
        <ele>177</ele>
        <time>2012-05-06T10:23:16.087Z</time>
      </trkpt>
      <trkpt lat="49.4122" lon="1.15374">
        <ele>176.8</ele>
        <time>2012-05-06T10:23:18.088Z</time>
      </trkpt>
      <trkpt lat="49.41216" lon="1.1537">
        <ele>177</ele>
        <time>2012-05-06T10:23:19.087Z</time>
      </trkpt>
      <trkpt lat="49.41213" lon="1.15364">
        <ele>177.1</ele>
        <time>2012-05-06T10:23:20.088Z</time>
      </trkpt>
      <trkpt lat="49.4121" lon="1.15359">
        <ele>177.1</ele>
        <time>2012-05-06T10:23:21.086Z</time>
      </trkpt>
      <trkpt lat="49.41204" lon="1.15349">
        <ele>177.1</ele>
        <time>2012-05-06T10:23:23.088Z</time>
      </trkpt>
      <trkpt lat="49.41198" lon="1.15339">
        <ele>177.4</ele>
        <time>2012-05-06T10:23:25.088Z</time>
      </trkpt>
      <trkpt lat="49.41193" lon="1.15331">
        <ele>177.7</ele>
        <time>2012-05-06T10:23:27.087Z</time>
      </trkpt>
      <trkpt lat="49.41187" lon="1.15337">
        <ele>178.3</ele>
        <time>2012-05-06T10:23:29.085Z</time>
      </trkpt>
      <trkpt lat="49.41184" lon="1.15342">
        <ele>178.2</ele>
        <time>2012-05-06T10:23:30.083Z</time>
      </trkpt>
      <trkpt lat="49.41181" lon="1.15349">
        <ele>178.3</ele>
        <time>2012-05-06T10:23:31.077Z</time>
      </trkpt>
      <trkpt lat="49.41178" lon="1.15355">
        <ele>178.2</ele>
        <time>2012-05-06T10:23:32.087Z</time>
      </trkpt>
      <trkpt lat="49.41175" lon="1.15361">
        <ele>178.3</ele>
        <time>2012-05-06T10:23:33.078Z</time>
      </trkpt>
      <trkpt lat="49.41172" lon="1.15367">
        <ele>178.4</ele>
        <time>2012-05-06T10:23:34.087Z</time>
      </trkpt>
      <trkpt lat="49.41169" lon="1.15373">
        <ele>178.6</ele>
        <time>2012-05-06T10:23:35.082Z</time>
      </trkpt>
      <trkpt lat="49.41166" lon="1.15379">
        <ele>178.7</ele>
        <time>2012-05-06T10:23:36.078Z</time>
      </trkpt>
      <trkpt lat="49.4116" lon="1.15391">
        <ele>179.2</ele>
        <time>2012-05-06T10:23:38.088Z</time>
      </trkpt>
      <trkpt lat="49.41157" lon="1.15397">
        <ele>179.5</ele>
        <time>2012-05-06T10:23:39.078Z</time>
      </trkpt>
      <trkpt lat="49.41154" lon="1.15404">
        <ele>179.6</ele>
        <time>2012-05-06T10:23:40.080Z</time>
      </trkpt>
      <trkpt lat="49.4115" lon="1.1541">
        <ele>179.7</ele>
        <time>2012-05-06T10:23:41.087Z</time>
      </trkpt>
      <trkpt lat="49.41148" lon="1.15416">
        <ele>179.9</ele>
        <time>2012-05-06T10:23:42.078Z</time>
      </trkpt>
      <trkpt lat="49.41145" lon="1.15423">
        <ele>180.1</ele>
        <time>2012-05-06T10:23:43.088Z</time>
      </trkpt>
      <trkpt lat="49.41142" lon="1.1543">
        <ele>180.4</ele>
        <time>2012-05-06T10:23:44.080Z</time>
      </trkpt>
      <trkpt lat="49.4114" lon="1.15436">
        <ele>180.7</ele>
        <time>2012-05-06T10:23:45.076Z</time>
      </trkpt>
      <trkpt lat="49.41136" lon="1.15443">
        <ele>181</ele>
        <time>2012-05-06T10:23:46.087Z</time>
      </trkpt>
      <trkpt lat="49.41133" lon="1.15448">
        <ele>181.5</ele>
        <time>2012-05-06T10:23:47.089Z</time>
      </trkpt>
      <trkpt lat="49.4113" lon="1.15453">
        <ele>181.8</ele>
        <time>2012-05-06T10:23:48.074Z</time>
      </trkpt>
      <trkpt lat="49.41124" lon="1.15464">
        <ele>182.5</ele>
        <time>2012-05-06T10:23:50.073Z</time>
      </trkpt>
      <trkpt lat="49.41119" lon="1.15469">
        <ele>182.4</ele>
        <time>2012-05-06T10:23:51.073Z</time>
      </trkpt>
      <trkpt lat="49.41116" lon="1.15474">
        <ele>182.9</ele>
        <time>2012-05-06T10:23:52.074Z</time>
      </trkpt>
      <trkpt lat="49.41112" lon="1.15479">
        <ele>183.1</ele>
        <time>2012-05-06T10:23:53.077Z</time>
      </trkpt>
      <trkpt lat="49.41108" lon="1.15483">
        <ele>183.5</ele>
        <time>2012-05-06T10:23:54.077Z</time>
      </trkpt>
      <trkpt lat="49.41103" lon="1.15488">
        <ele>183.9</ele>
        <time>2012-05-06T10:23:55.087Z</time>
      </trkpt>
      <trkpt lat="49.41099" lon="1.15492">
        <ele>184.3</ele>
        <time>2012-05-06T10:23:56.086Z</time>
      </trkpt>
      <trkpt lat="49.41095" lon="1.15496">
        <ele>184.3</ele>
        <time>2012-05-06T10:23:57.076Z</time>
      </trkpt>
      <trkpt lat="49.4109" lon="1.15499">
        <ele>184.1</ele>
        <time>2012-05-06T10:23:58.078Z</time>
      </trkpt>
      <trkpt lat="49.41086" lon="1.15502">
        <ele>184.1</ele>
        <time>2012-05-06T10:23:59.087Z</time>
      </trkpt>
      <trkpt lat="49.41081" lon="1.15504">
        <ele>184.2</ele>
        <time>2012-05-06T10:24:00.090Z</time>
      </trkpt>
      <trkpt lat="49.41077" lon="1.15508">
        <ele>183.9</ele>
        <time>2012-05-06T10:24:01.087Z</time>
      </trkpt>
      <trkpt lat="49.41073" lon="1.15519">
        <ele>184.1</ele>
        <time>2012-05-06T10:24:03.077Z</time>
      </trkpt>
      <trkpt lat="49.41072" lon="1.15526">
        <ele>183.6</ele>
        <time>2012-05-06T10:24:04.088Z</time>
      </trkpt>
      <trkpt lat="49.41071" lon="1.15539">
        <ele>184.1</ele>
        <time>2012-05-06T10:24:06.089Z</time>
      </trkpt>
      <trkpt lat="49.4107" lon="1.15546">
        <ele>184.5</ele>
        <time>2012-05-06T10:24:07.080Z</time>
      </trkpt>
      <trkpt lat="49.41069" lon="1.15553">
        <ele>184.2</ele>
        <time>2012-05-06T10:24:08.076Z</time>
      </trkpt>
      <trkpt lat="49.41068" lon="1.1556">
        <ele>184.5</ele>
        <time>2012-05-06T10:24:09.088Z</time>
      </trkpt>
      <trkpt lat="49.41068" lon="1.15567">
        <ele>184.7</ele>
        <time>2012-05-06T10:24:10.077Z</time>
      </trkpt>
      <trkpt lat="49.41067" lon="1.15574">
        <ele>184.8</ele>
        <time>2012-05-06T10:24:11.087Z</time>
      </trkpt>
      <trkpt lat="49.41068" lon="1.15587">
        <ele>184.6</ele>
        <time>2012-05-06T10:24:13.078Z</time>
      </trkpt>
      <trkpt lat="49.41068" lon="1.15595">
        <ele>184.4</ele>
        <time>2012-05-06T10:24:14.120Z</time>
      </trkpt>
      <trkpt lat="49.41068" lon="1.15602">
        <ele>184.6</ele>
        <time>2012-05-06T10:24:15.077Z</time>
      </trkpt>
      <trkpt lat="49.41068" lon="1.15616">
        <ele>184.8</ele>
        <time>2012-05-06T10:24:17.077Z</time>
      </trkpt>
      <trkpt lat="49.41066" lon="1.15626">
        <ele>185</ele>
        <time>2012-05-06T10:24:19.078Z</time>
      </trkpt>
      <trkpt lat="49.41062" lon="1.15633">
        <ele>185.1</ele>
        <time>2012-05-06T10:24:21.077Z</time>
      </trkpt>
      <trkpt lat="49.41056" lon="1.15639">
        <ele>185.2</ele>
        <time>2012-05-06T10:24:23.077Z</time>
      </trkpt>
      <trkpt lat="49.41051" lon="1.15646">
        <ele>185.9</ele>
        <time>2012-05-06T10:24:25.090Z</time>
      </trkpt>
      <trkpt lat="49.41047" lon="1.15656">
        <ele>185</ele>
        <time>2012-05-06T10:24:27.075Z</time>
      </trkpt>
      <trkpt lat="49.41044" lon="1.15667">
        <ele>184.6</ele>
        <time>2012-05-06T10:24:29.088Z</time>
      </trkpt>
      <trkpt lat="49.41041" lon="1.15678">
        <ele>184.1</ele>
        <time>2012-05-06T10:24:31.089Z</time>
      </trkpt>
      <trkpt lat="49.41038" lon="1.15691">
        <ele>184.3</ele>
        <time>2012-05-06T10:24:33.217Z</time>
      </trkpt>
      <trkpt lat="49.41034" lon="1.15702">
        <ele>184.3</ele>
        <time>2012-05-06T10:24:35.217Z</time>
      </trkpt>
      <trkpt lat="49.4103" lon="1.15713">
        <ele>185.1</ele>
        <time>2012-05-06T10:24:37.217Z</time>
      </trkpt>
      <trkpt lat="49.41026" lon="1.15724">
        <ele>185.9</ele>
        <time>2012-05-06T10:24:39.217Z</time>
      </trkpt>
      <trkpt lat="49.41022" lon="1.15735">
        <ele>186.5</ele>
        <time>2012-05-06T10:24:41.217Z</time>
      </trkpt>
      <trkpt lat="49.41018" lon="1.15746">
        <ele>187.1</ele>
        <time>2012-05-06T10:24:43.217Z</time>
      </trkpt>
      <trkpt lat="49.41014" lon="1.15757">
        <ele>187.3</ele>
        <time>2012-05-06T10:24:45.217Z</time>
      </trkpt>
      <trkpt lat="49.4101" lon="1.15764">
        <ele>187.6</ele>
        <time>2012-05-06T10:24:46.687Z</time>
      </trkpt>
      <trkpt lat="49.41007" lon="1.15771">
        <ele>187</ele>
        <time>2012-05-06T10:24:48.088Z</time>
      </trkpt>
      <trkpt lat="49.41001" lon="1.15779">
        <ele>187.4</ele>
        <time>2012-05-06T10:24:50.089Z</time>
      </trkpt>
      <trkpt lat="49.40994" lon="1.15786">
        <ele>187.3</ele>
        <time>2012-05-06T10:24:52.090Z</time>
      </trkpt>
      <trkpt lat="49.40987" lon="1.15792">
        <ele>186.6</ele>
        <time>2012-05-06T10:24:54.089Z</time>
      </trkpt>
      <trkpt lat="49.4098" lon="1.15797">
        <ele>187.8</ele>
        <time>2012-05-06T10:24:56.090Z</time>
      </trkpt>
      <trkpt lat="49.40972" lon="1.15802">
        <ele>188</ele>
        <time>2012-05-06T10:24:58.089Z</time>
      </trkpt>
      <trkpt lat="49.40964" lon="1.15806">
        <ele>187.8</ele>
        <time>2012-05-06T10:25:00.089Z</time>
      </trkpt>
      <trkpt lat="49.40958" lon="1.15812">
        <ele>188.4</ele>
        <time>2012-05-06T10:25:02.089Z</time>
      </trkpt>
      <trkpt lat="49.40953" lon="1.1582">
        <ele>189.1</ele>
        <time>2012-05-06T10:25:04.090Z</time>
      </trkpt>
      <trkpt lat="49.40948" lon="1.1583">
        <ele>189.8</ele>
        <time>2012-05-06T10:25:06.093Z</time>
      </trkpt>
      <trkpt lat="49.40942" lon="1.15834">
        <ele>190.2</ele>
        <time>2012-05-06T10:25:08.086Z</time>
      </trkpt>
      <trkpt lat="49.40936" lon="1.15837">
        <ele>191.3</ele>
        <time>2012-05-06T10:25:10.078Z</time>
      </trkpt>
      <trkpt lat="49.40929" lon="1.15838">
        <ele>193.3</ele>
        <time>2012-05-06T10:25:12.075Z</time>
      </trkpt>
      <trkpt lat="49.40923" lon="1.15839">
        <ele>194.5</ele>
        <time>2012-05-06T10:25:14.074Z</time>
      </trkpt>
      <trkpt lat="49.40916" lon="1.1584">
        <ele>195.4</ele>
        <time>2012-05-06T10:25:16.077Z</time>
      </trkpt>
      <trkpt lat="49.40909" lon="1.1584">
        <ele>196.9</ele>
        <time>2012-05-06T10:25:18.089Z</time>
      </trkpt>
      <trkpt lat="49.40903" lon="1.15841">
        <ele>197.5</ele>
        <time>2012-05-06T10:25:20.081Z</time>
      </trkpt>
      <trkpt lat="49.40898" lon="1.1584">
        <ele>198.3</ele>
        <time>2012-05-06T10:25:22.091Z</time>
      </trkpt>
      <trkpt lat="49.40891" lon="1.15843">
        <ele>199.4</ele>
        <time>2012-05-06T10:25:24.075Z</time>
      </trkpt>
      <trkpt lat="49.40885" lon="1.15844">
        <ele>199.3</ele>
        <time>2012-05-06T10:25:26.078Z</time>
      </trkpt>
      <trkpt lat="49.4088" lon="1.15843">
        <ele>199.4</ele>
        <time>2012-05-06T10:25:28.089Z</time>
      </trkpt>
      <trkpt lat="49.40874" lon="1.15842">
        <ele>200</ele>
        <time>2012-05-06T10:25:31.092Z</time>
      </trkpt>
      <trkpt lat="49.4087" lon="1.1584">
        <ele>199.5</ele>
        <time>2012-05-06T10:25:33.081Z</time>
      </trkpt>
      <trkpt lat="49.40863" lon="1.1584">
        <ele>200</ele>
        <time>2012-05-06T10:25:35.083Z</time>
      </trkpt>
      <trkpt lat="49.40856" lon="1.1584">
        <ele>198.8</ele>
        <time>2012-05-06T10:25:37.087Z</time>
      </trkpt>
      <trkpt lat="49.40845" lon="1.15841">
        <ele>197.5</ele>
        <time>2012-05-06T10:25:40.088Z</time>
      </trkpt>
      <trkpt lat="49.40839" lon="1.15839">
        <ele>197.7</ele>
        <time>2012-05-06T10:25:41.090Z</time>
      </trkpt>
      <trkpt lat="49.40828" lon="1.15836">
        <ele>198</ele>
        <time>2012-05-06T10:25:43.158Z</time>
      </trkpt>
      <trkpt lat="49.4082" lon="1.15836">
        <ele>196.9</ele>
        <time>2012-05-06T10:25:44.158Z</time>
      </trkpt>
      <trkpt lat="49.40813" lon="1.15835">
        <ele>196.2</ele>
        <time>2012-05-06T10:25:44.603Z</time>
      </trkpt>
      <trkpt lat="49.40807" lon="1.15832">
        <ele>197.9</ele>
        <time>2012-05-06T10:25:46.091Z</time>
      </trkpt>
      <trkpt lat="49.40802" lon="1.15832">
        <ele>197.7</ele>
        <time>2012-05-06T10:25:47.089Z</time>
      </trkpt>
      <trkpt lat="49.40793" lon="1.15829">
        <ele>197.1</ele>
        <time>2012-05-06T10:25:49.074Z</time>
      </trkpt>
      <trkpt lat="49.40787" lon="1.15827">
        <ele>197.8</ele>
        <time>2012-05-06T10:25:51.077Z</time>
      </trkpt>
      <trkpt lat="49.40783" lon="1.15827">
        <ele>202.3</ele>
        <time>2012-05-06T10:25:52.077Z</time>
      </trkpt>
      <trkpt lat="49.40773" lon="1.15826">
        <ele>204.8</ele>
        <time>2012-05-06T10:25:54.087Z</time>
      </trkpt>
      <trkpt lat="49.40765" lon="1.15824">
        <ele>205.5</ele>
        <time>2012-05-06T10:25:56.088Z</time>
      </trkpt>
      <trkpt lat="49.4076" lon="1.15821">
        <ele>204.9</ele>
        <time>2012-05-06T10:25:57.079Z</time>
      </trkpt>
      <trkpt lat="49.40753" lon="1.15821">
        <ele>204.1</ele>
        <time>2012-05-06T10:25:59.088Z</time>
      </trkpt>
      <trkpt lat="49.40748" lon="1.15816">
        <ele>205.5</ele>
        <time>2012-05-06T10:26:01.074Z</time>
      </trkpt>
      <trkpt lat="49.40742" lon="1.15813">
        <ele>204.7</ele>
        <time>2012-05-06T10:26:02.077Z</time>
      </trkpt>
      <trkpt lat="49.40738" lon="1.15806">
        <ele>204</ele>
        <time>2012-05-06T10:26:04.085Z</time>
      </trkpt>
      <trkpt lat="49.40733" lon="1.15804">
        <ele>202.8</ele>
        <time>2012-05-06T10:26:05.084Z</time>
      </trkpt>
      <trkpt lat="49.40725" lon="1.15802">
        <ele>206.8</ele>
        <time>2012-05-06T10:26:07.085Z</time>
      </trkpt>
      <trkpt lat="49.40718" lon="1.158">
        <ele>209</ele>
        <time>2012-05-06T10:26:09.084Z</time>
      </trkpt>
      <trkpt lat="49.4071" lon="1.15798">
        <ele>209.7</ele>
        <time>2012-05-06T10:26:11.091Z</time>
      </trkpt>
      <trkpt lat="49.40702" lon="1.15798">
        <ele>211.6</ele>
        <time>2012-05-06T10:26:13.087Z</time>
      </trkpt>
      <trkpt lat="49.40696" lon="1.15804">
        <ele>218</ele>
        <time>2012-05-06T10:26:15.074Z</time>
      </trkpt>
      <trkpt lat="49.40688" lon="1.15802">
        <ele>218.6</ele>
        <time>2012-05-06T10:26:17.093Z</time>
      </trkpt>
      <trkpt lat="49.40683" lon="1.158">
        <ele>217.1</ele>
        <time>2012-05-06T10:26:18.093Z</time>
      </trkpt>
      <trkpt lat="49.40676" lon="1.15798">
        <ele>216.8</ele>
        <time>2012-05-06T10:26:20.079Z</time>
      </trkpt>
      <trkpt lat="49.4067" lon="1.15796">
        <ele>217.6</ele>
        <time>2012-05-06T10:26:22.091Z</time>
      </trkpt>
      <trkpt lat="49.40664" lon="1.15797">
        <ele>218</ele>
        <time>2012-05-06T10:26:23.090Z</time>
      </trkpt>
      <trkpt lat="49.4066" lon="1.15798">
        <ele>218.1</ele>
        <time>2012-05-06T10:26:24.080Z</time>
      </trkpt>
      <trkpt lat="49.40653" lon="1.158">
        <ele>218</ele>
        <time>2012-05-06T10:26:26.089Z</time>
      </trkpt>
      <trkpt lat="49.40648" lon="1.15803">
        <ele>222.8</ele>
        <time>2012-05-06T10:26:28.125Z</time>
      </trkpt>
      <trkpt lat="49.40643" lon="1.15806">
        <ele>225.4</ele>
        <time>2012-05-06T10:26:30.077Z</time>
      </trkpt>
      <trkpt lat="49.40635" lon="1.15808">
        <ele>224.6</ele>
        <time>2012-05-06T10:26:32.078Z</time>
      </trkpt>
      <trkpt lat="49.40629" lon="1.15812">
        <ele>221.2</ele>
        <time>2012-05-06T10:26:33.077Z</time>
      </trkpt>
      <trkpt lat="49.40624" lon="1.15814">
        <ele>220.2</ele>
        <time>2012-05-06T10:26:34.077Z</time>
      </trkpt>
      <trkpt lat="49.40617" lon="1.1582">
        <ele>217.7</ele>
        <time>2012-05-06T10:26:36.076Z</time>
      </trkpt>
      <trkpt lat="49.40609" lon="1.1582">
        <ele>217.3</ele>
        <time>2012-05-06T10:26:38.087Z</time>
      </trkpt>
      <trkpt lat="49.406" lon="1.15818">
        <ele>217.7</ele>
        <time>2012-05-06T10:26:40.090Z</time>
      </trkpt>
      <trkpt lat="49.40594" lon="1.15813">
        <ele>217.1</ele>
        <time>2012-05-06T10:26:42.088Z</time>
      </trkpt>
      <trkpt lat="49.40594" lon="1.15803">
        <ele>216.9</ele>
        <time>2012-05-06T10:26:43.075Z</time>
      </trkpt>
      <trkpt lat="49.40591" lon="1.15798">
        <ele>215.1</ele>
        <time>2012-05-06T10:26:44.088Z</time>
      </trkpt>
      <trkpt lat="49.40587" lon="1.15786">
        <ele>211.9</ele>
        <time>2012-05-06T10:26:46.075Z</time>
      </trkpt>
      <trkpt lat="49.40586" lon="1.15774">
        <ele>211.6</ele>
        <time>2012-05-06T10:26:48.089Z</time>
      </trkpt>
      <trkpt lat="49.40585" lon="1.15764">
        <ele>211.4</ele>
        <time>2012-05-06T10:26:50.077Z</time>
      </trkpt>
      <trkpt lat="49.40582" lon="1.15754">
        <ele>210</ele>
        <time>2012-05-06T10:26:52.089Z</time>
      </trkpt>
      <trkpt lat="49.4058" lon="1.15742">
        <ele>207</ele>
        <time>2012-05-06T10:26:54.074Z</time>
      </trkpt>
      <trkpt lat="49.40579" lon="1.1573">
        <ele>205.5</ele>
        <time>2012-05-06T10:26:56.089Z</time>
      </trkpt>
      <trkpt lat="49.40578" lon="1.15718">
        <ele>205</ele>
        <time>2012-05-06T10:26:58.087Z</time>
      </trkpt>
      <trkpt lat="49.40576" lon="1.15707">
        <ele>204.2</ele>
        <time>2012-05-06T10:27:00.076Z</time>
      </trkpt>
      <trkpt lat="49.40574" lon="1.15695">
        <ele>203.4</ele>
        <time>2012-05-06T10:27:02.091Z</time>
      </trkpt>
      <trkpt lat="49.40574" lon="1.15686">
        <ele>204.4</ele>
        <time>2012-05-06T10:27:05.091Z</time>
      </trkpt>
      <trkpt lat="49.40571" lon="1.15676">
        <ele>203.6</ele>
        <time>2012-05-06T10:27:08.076Z</time>
      </trkpt>
      <trkpt lat="49.40572" lon="1.15669">
        <ele>204</ele>
        <time>2012-05-06T10:27:10.089Z</time>
      </trkpt>
      <trkpt lat="49.40567" lon="1.15674">
        <ele>203.4</ele>
        <time>2012-05-06T10:27:18.076Z</time>
      </trkpt>
      <trkpt lat="49.40564" lon="1.1568">
        <ele>203.6</ele>
        <time>2012-05-06T10:27:29.087Z</time>
      </trkpt>
      <trkpt lat="49.40561" lon="1.15692">
        <ele>203.3</ele>
        <time>2012-05-06T10:27:32.076Z</time>
      </trkpt>
      <trkpt lat="49.40558" lon="1.15703">
        <ele>204</ele>
        <time>2012-05-06T10:27:34.093Z</time>
      </trkpt>
      <trkpt lat="49.40556" lon="1.15709">
        <ele>204.1</ele>
        <time>2012-05-06T10:27:35.077Z</time>
      </trkpt>
      <trkpt lat="49.40553" lon="1.15716">
        <ele>203.7</ele>
        <time>2012-05-06T10:27:36.088Z</time>
      </trkpt>
      <trkpt lat="49.40551" lon="1.15723">
        <ele>203.4</ele>
        <time>2012-05-06T10:27:37.094Z</time>
      </trkpt>
      <trkpt lat="49.40548" lon="1.15729">
        <ele>202.3</ele>
        <time>2012-05-06T10:27:38.079Z</time>
      </trkpt>
      <trkpt lat="49.40545" lon="1.15736">
        <ele>202.1</ele>
        <time>2012-05-06T10:27:39.089Z</time>
      </trkpt>
      <trkpt lat="49.40542" lon="1.15743">
        <ele>202.3</ele>
        <time>2012-05-06T10:27:40.079Z</time>
      </trkpt>
      <trkpt lat="49.40538" lon="1.1575">
        <ele>201.2</ele>
        <time>2012-05-06T10:27:41.087Z</time>
      </trkpt>
      <trkpt lat="49.40534" lon="1.15757">
        <ele>200.5</ele>
        <time>2012-05-06T10:27:42.077Z</time>
      </trkpt>
      <trkpt lat="49.40533" lon="1.15766">
        <ele>200.4</ele>
        <time>2012-05-06T10:27:43.089Z</time>
      </trkpt>
      <trkpt lat="49.40532" lon="1.15774">
        <ele>199.8</ele>
        <time>2012-05-06T10:27:44.096Z</time>
      </trkpt>
      <trkpt lat="49.40532" lon="1.15783">
        <ele>199.3</ele>
        <time>2012-05-06T10:27:45.088Z</time>
      </trkpt>
      <trkpt lat="49.40533" lon="1.15792">
        <ele>198.2</ele>
        <time>2012-05-06T10:27:46.088Z</time>
      </trkpt>
      <trkpt lat="49.40533" lon="1.158">
        <ele>198.2</ele>
        <time>2012-05-06T10:27:47.090Z</time>
      </trkpt>
      <trkpt lat="49.40533" lon="1.15809">
        <ele>197.7</ele>
        <time>2012-05-06T10:27:48.091Z</time>
      </trkpt>
      <trkpt lat="49.40531" lon="1.15818">
        <ele>197.1</ele>
        <time>2012-05-06T10:27:49.082Z</time>
      </trkpt>
      <trkpt lat="49.40528" lon="1.15825">
        <ele>197.3</ele>
        <time>2012-05-06T10:27:50.093Z</time>
      </trkpt>
      <trkpt lat="49.40523" lon="1.15831">
        <ele>197.1</ele>
        <time>2012-05-06T10:27:51.091Z</time>
      </trkpt>
      <trkpt lat="49.40517" lon="1.15836">
        <ele>196.5</ele>
        <time>2012-05-06T10:27:52.089Z</time>
      </trkpt>
      <trkpt lat="49.40512" lon="1.15841">
        <ele>196.7</ele>
        <time>2012-05-06T10:27:53.088Z</time>
      </trkpt>
      <trkpt lat="49.40506" lon="1.15845">
        <ele>196.9</ele>
        <time>2012-05-06T10:27:54.082Z</time>
      </trkpt>
      <trkpt lat="49.40499" lon="1.15851">
        <ele>196.9</ele>
        <time>2012-05-06T10:27:55.074Z</time>
      </trkpt>
      <trkpt lat="49.40493" lon="1.15855">
        <ele>196.9</ele>
        <time>2012-05-06T10:27:56.091Z</time>
      </trkpt>
      <trkpt lat="49.40488" lon="1.15857">
        <ele>197</ele>
        <time>2012-05-06T10:27:57.091Z</time>
      </trkpt>
      <trkpt lat="49.40485" lon="1.15865">
        <ele>196.8</ele>
        <time>2012-05-06T10:27:59.077Z</time>
      </trkpt>
      <trkpt lat="49.4048" lon="1.15868">
        <ele>195.7</ele>
        <time>2012-05-06T10:28:00.089Z</time>
      </trkpt>
      <trkpt lat="49.40473" lon="1.15874">
        <ele>195.3</ele>
        <time>2012-05-06T10:28:02.091Z</time>
      </trkpt>
      <trkpt lat="49.40465" lon="1.15876">
        <ele>195.4</ele>
        <time>2012-05-06T10:28:04.075Z</time>
      </trkpt>
      <trkpt lat="49.40457" lon="1.15874">
        <ele>195.9</ele>
        <time>2012-05-06T10:28:06.084Z</time>
      </trkpt>
      <trkpt lat="49.40449" lon="1.15869">
        <ele>196.7</ele>
        <time>2012-05-06T10:28:08.077Z</time>
      </trkpt>
      <trkpt lat="49.40442" lon="1.15864">
        <ele>196.8</ele>
        <time>2012-05-06T10:28:10.086Z</time>
      </trkpt>
      <trkpt lat="49.40434" lon="1.15861">
        <ele>196.7</ele>
        <time>2012-05-06T10:28:12.076Z</time>
      </trkpt>
      <trkpt lat="49.40426" lon="1.15859">
        <ele>197.1</ele>
        <time>2012-05-06T10:28:14.088Z</time>
      </trkpt>
      <trkpt lat="49.40419" lon="1.15858">
        <ele>197.6</ele>
        <time>2012-05-06T10:28:16.098Z</time>
      </trkpt>
      <trkpt lat="49.40415" lon="1.15857">
        <ele>198.3</ele>
        <time>2012-05-06T10:28:18.089Z</time>
      </trkpt>
      <trkpt lat="49.40413" lon="1.1585">
        <ele>198.8</ele>
        <time>2012-05-06T10:28:20.094Z</time>
      </trkpt>
      <trkpt lat="49.4041" lon="1.15845">
        <ele>199.7</ele>
        <time>2012-05-06T10:28:23.082Z</time>
      </trkpt>
      <trkpt lat="49.40401" lon="1.15844">
        <ele>200.6</ele>
        <time>2012-05-06T10:28:24.090Z</time>
      </trkpt>
      <trkpt lat="49.4039" lon="1.15843">
        <ele>201.3</ele>
        <time>2012-05-06T10:28:26.083Z</time>
      </trkpt>
      <trkpt lat="49.40385" lon="1.15841">
        <ele>202.2</ele>
        <time>2012-05-06T10:28:27.078Z</time>
      </trkpt>
      <trkpt lat="49.40378" lon="1.15841">
        <ele>202.8</ele>
        <time>2012-05-06T10:28:28.089Z</time>
      </trkpt>
      <trkpt lat="49.40373" lon="1.15839">
        <ele>203.2</ele>
        <time>2012-05-06T10:28:29.087Z</time>
      </trkpt>
      <trkpt lat="49.40364" lon="1.15837">
        <ele>204.4</ele>
        <time>2012-05-06T10:28:31.076Z</time>
      </trkpt>
      <trkpt lat="49.40359" lon="1.15836">
        <ele>204</ele>
        <time>2012-05-06T10:28:32.090Z</time>
      </trkpt>
      <trkpt lat="49.4035" lon="1.15836">
        <ele>205.5</ele>
        <time>2012-05-06T10:28:34.091Z</time>
      </trkpt>
      <trkpt lat="49.40341" lon="1.15836">
        <ele>206.3</ele>
        <time>2012-05-06T10:28:36.089Z</time>
      </trkpt>
      <trkpt lat="49.40333" lon="1.15833">
        <ele>204.8</ele>
        <time>2012-05-06T10:28:38.093Z</time>
      </trkpt>
      <trkpt lat="49.40326" lon="1.15832">
        <ele>204.1</ele>
        <time>2012-05-06T10:28:40.092Z</time>
      </trkpt>
      <trkpt lat="49.4032" lon="1.15831">
        <ele>204.7</ele>
        <time>2012-05-06T10:28:42.080Z</time>
      </trkpt>
      <trkpt lat="49.40315" lon="1.15828">
        <ele>205.8</ele>
        <time>2012-05-06T10:28:44.079Z</time>
      </trkpt>
      <trkpt lat="49.40309" lon="1.15828">
        <ele>206.5</ele>
        <time>2012-05-06T10:28:46.089Z</time>
      </trkpt>
      <trkpt lat="49.40302" lon="1.15828">
        <ele>206.1</ele>
        <time>2012-05-06T10:28:48.099Z</time>
      </trkpt>
      <trkpt lat="49.40294" lon="1.15828">
        <ele>205</ele>
        <time>2012-05-06T10:28:50.083Z</time>
      </trkpt>
      <trkpt lat="49.4029" lon="1.15828">
        <ele>207.2</ele>
        <time>2012-05-06T10:28:51.091Z</time>
      </trkpt>
      <trkpt lat="49.40285" lon="1.15828">
        <ele>207.3</ele>
        <time>2012-05-06T10:28:52.078Z</time>
      </trkpt>
      <trkpt lat="49.40276" lon="1.15827">
        <ele>206.7</ele>
        <time>2012-05-06T10:28:54.078Z</time>
      </trkpt>
      <trkpt lat="49.40268" lon="1.15825">
        <ele>206.2</ele>
        <time>2012-05-06T10:28:56.078Z</time>
      </trkpt>
      <trkpt lat="49.40263" lon="1.15824">
        <ele>205.4</ele>
        <time>2012-05-06T10:28:57.079Z</time>
      </trkpt>
      <trkpt lat="49.40258" lon="1.15822">
        <ele>205</ele>
        <time>2012-05-06T10:28:58.078Z</time>
      </trkpt>
      <trkpt lat="49.40253" lon="1.1582">
        <ele>205</ele>
        <time>2012-05-06T10:28:59.078Z</time>
      </trkpt>
      <trkpt lat="49.40246" lon="1.15816">
        <ele>205.4</ele>
        <time>2012-05-06T10:29:01.078Z</time>
      </trkpt>
      <trkpt lat="49.40242" lon="1.15809">
        <ele>206.3</ele>
        <time>2012-05-06T10:29:03.085Z</time>
      </trkpt>
      <trkpt lat="49.40231" lon="1.15802">
        <ele>205.6</ele>
        <time>2012-05-06T10:29:05.089Z</time>
      </trkpt>
      <trkpt lat="49.40227" lon="1.15798">
        <ele>205.6</ele>
        <time>2012-05-06T10:29:06.082Z</time>
      </trkpt>
      <trkpt lat="49.40222" lon="1.15794">
        <ele>205.8</ele>
        <time>2012-05-06T10:29:07.093Z</time>
      </trkpt>
      <trkpt lat="49.40216" lon="1.15787">
        <ele>205.1</ele>
        <time>2012-05-06T10:29:09.081Z</time>
      </trkpt>
      <trkpt lat="49.40209" lon="1.15778">
        <ele>206.4</ele>
        <time>2012-05-06T10:29:11.082Z</time>
      </trkpt>
      <trkpt lat="49.40202" lon="1.1577">
        <ele>206.2</ele>
        <time>2012-05-06T10:29:13.082Z</time>
      </trkpt>
      <trkpt lat="49.40199" lon="1.15765">
        <ele>205.8</ele>
        <time>2012-05-06T10:29:14.082Z</time>
      </trkpt>
      <trkpt lat="49.40195" lon="1.15761">
        <ele>205.3</ele>
        <time>2012-05-06T10:29:15.082Z</time>
      </trkpt>
      <trkpt lat="49.4019" lon="1.15749">
        <ele>205</ele>
        <time>2012-05-06T10:29:17.082Z</time>
      </trkpt>
      <trkpt lat="49.40187" lon="1.15743">
        <ele>204</ele>
        <time>2012-05-06T10:29:18.090Z</time>
      </trkpt>
      <trkpt lat="49.40183" lon="1.15736">
        <ele>204.3</ele>
        <time>2012-05-06T10:29:19.090Z</time>
      </trkpt>
      <trkpt lat="49.40179" lon="1.15731">
        <ele>203.2</ele>
        <time>2012-05-06T10:29:20.084Z</time>
      </trkpt>
      <trkpt lat="49.40175" lon="1.15726">
        <ele>202.4</ele>
        <time>2012-05-06T10:29:21.085Z</time>
      </trkpt>
      <trkpt lat="49.40171" lon="1.1572">
        <ele>203</ele>
        <time>2012-05-06T10:29:22.085Z</time>
      </trkpt>
      <trkpt lat="49.40167" lon="1.15713">
        <ele>203.3</ele>
        <time>2012-05-06T10:29:23.093Z</time>
      </trkpt>
      <trkpt lat="49.40164" lon="1.15707">
        <ele>203.1</ele>
        <time>2012-05-06T10:29:24.089Z</time>
      </trkpt>
      <trkpt lat="49.4016" lon="1.15701">
        <ele>202.5</ele>
        <time>2012-05-06T10:29:25.077Z</time>
      </trkpt>
      <trkpt lat="49.40156" lon="1.15694">
        <ele>202.9</ele>
        <time>2012-05-06T10:29:26.078Z</time>
      </trkpt>
      <trkpt lat="49.40153" lon="1.15686">
        <ele>202.7</ele>
        <time>2012-05-06T10:29:27.079Z</time>
      </trkpt>
      <trkpt lat="49.4015" lon="1.1568">
        <ele>202.4</ele>
        <time>2012-05-06T10:29:28.090Z</time>
      </trkpt>
      <trkpt lat="49.40146" lon="1.15673">
        <ele>202.1</ele>
        <time>2012-05-06T10:29:29.076Z</time>
      </trkpt>
      <trkpt lat="49.40144" lon="1.15666">
        <ele>201.3</ele>
        <time>2012-05-06T10:29:30.077Z</time>
      </trkpt>
      <trkpt lat="49.40141" lon="1.15661">
        <ele>201.7</ele>
        <time>2012-05-06T10:29:31.075Z</time>
      </trkpt>
      <trkpt lat="49.40138" lon="1.15654">
        <ele>200.7</ele>
        <time>2012-05-06T10:29:32.075Z</time>
      </trkpt>
      <trkpt lat="49.40132" lon="1.15646">
        <ele>200.1</ele>
        <time>2012-05-06T10:29:34.073Z</time>
      </trkpt>
      <trkpt lat="49.40126" lon="1.15634">
        <ele>199</ele>
        <time>2012-05-06T10:29:36.091Z</time>
      </trkpt>
      <trkpt lat="49.40123" lon="1.15628">
        <ele>198.3</ele>
        <time>2012-05-06T10:29:37.074Z</time>
      </trkpt>
      <trkpt lat="49.40121" lon="1.15622">
        <ele>198.2</ele>
        <time>2012-05-06T10:29:38.073Z</time>
      </trkpt>
      <trkpt lat="49.40118" lon="1.15616">
        <ele>198.5</ele>
        <time>2012-05-06T10:29:39.075Z</time>
      </trkpt>
      <trkpt lat="49.40115" lon="1.15609">
        <ele>199</ele>
        <time>2012-05-06T10:29:40.080Z</time>
      </trkpt>
      <trkpt lat="49.40112" lon="1.15602">
        <ele>197.9</ele>
        <time>2012-05-06T10:29:41.088Z</time>
      </trkpt>
      <trkpt lat="49.40109" lon="1.15596">
        <ele>197.3</ele>
        <time>2012-05-06T10:29:42.076Z</time>
      </trkpt>
      <trkpt lat="49.40106" lon="1.1559">
        <ele>196.7</ele>
        <time>2012-05-06T10:29:43.077Z</time>
      </trkpt>
      <trkpt lat="49.40102" lon="1.15583">
        <ele>196.8</ele>
        <time>2012-05-06T10:29:44.076Z</time>
      </trkpt>
      <trkpt lat="49.40099" lon="1.15577">
        <ele>196.9</ele>
        <time>2012-05-06T10:29:45.089Z</time>
      </trkpt>
      <trkpt lat="49.40096" lon="1.1557">
        <ele>196.4</ele>
        <time>2012-05-06T10:29:46.089Z</time>
      </trkpt>
      <trkpt lat="49.40092" lon="1.15563">
        <ele>195.9</ele>
        <time>2012-05-06T10:29:47.077Z</time>
      </trkpt>
      <trkpt lat="49.40089" lon="1.15555">
        <ele>195.7</ele>
        <time>2012-05-06T10:29:48.076Z</time>
      </trkpt>
      <trkpt lat="49.40086" lon="1.15548">
        <ele>195.8</ele>
        <time>2012-05-06T10:29:49.076Z</time>
      </trkpt>
      <trkpt lat="49.40082" lon="1.15541">
        <ele>195</ele>
        <time>2012-05-06T10:29:50.093Z</time>
      </trkpt>
      <trkpt lat="49.40078" lon="1.15534">
        <ele>195.1</ele>
        <time>2012-05-06T10:29:51.088Z</time>
      </trkpt>
      <trkpt lat="49.40075" lon="1.15526">
        <ele>195</ele>
        <time>2012-05-06T10:29:52.082Z</time>
      </trkpt>
      <trkpt lat="49.40072" lon="1.15518">
        <ele>194.6</ele>
        <time>2012-05-06T10:29:53.084Z</time>
      </trkpt>
      <trkpt lat="49.40067" lon="1.1551">
        <ele>194.3</ele>
        <time>2012-05-06T10:29:54.087Z</time>
      </trkpt>
      <trkpt lat="49.40064" lon="1.15502">
        <ele>194.1</ele>
        <time>2012-05-06T10:29:55.089Z</time>
      </trkpt>
      <trkpt lat="49.4006" lon="1.15495">
        <ele>193.9</ele>
        <time>2012-05-06T10:29:56.075Z</time>
      </trkpt>
      <trkpt lat="49.40056" lon="1.15487">
        <ele>194.1</ele>
        <time>2012-05-06T10:29:57.080Z</time>
      </trkpt>
      <trkpt lat="49.40052" lon="1.15479">
        <ele>194.1</ele>
        <time>2012-05-06T10:29:58.075Z</time>
      </trkpt>
      <trkpt lat="49.40049" lon="1.15473">
        <ele>194.5</ele>
        <time>2012-05-06T10:29:59.089Z</time>
      </trkpt>
      <trkpt lat="49.40046" lon="1.15465">
        <ele>194.4</ele>
        <time>2012-05-06T10:30:00.089Z</time>
      </trkpt>
      <trkpt lat="49.40042" lon="1.15459">
        <ele>193.8</ele>
        <time>2012-05-06T10:30:01.075Z</time>
      </trkpt>
      <trkpt lat="49.40038" lon="1.15452">
        <ele>193.5</ele>
        <time>2012-05-06T10:30:02.075Z</time>
      </trkpt>
      <trkpt lat="49.40034" lon="1.15446">
        <ele>193.2</ele>
        <time>2012-05-06T10:30:03.077Z</time>
      </trkpt>
      <trkpt lat="49.4003" lon="1.15437">
        <ele>193.5</ele>
        <time>2012-05-06T10:30:04.074Z</time>
      </trkpt>
      <trkpt lat="49.40027" lon="1.1543">
        <ele>193.2</ele>
        <time>2012-05-06T10:30:05.090Z</time>
      </trkpt>
      <trkpt lat="49.40023" lon="1.15422">
        <ele>193.1</ele>
        <time>2012-05-06T10:30:06.080Z</time>
      </trkpt>
      <trkpt lat="49.4002" lon="1.15414">
        <ele>192.2</ele>
        <time>2012-05-06T10:30:07.076Z</time>
      </trkpt>
      <trkpt lat="49.40016" lon="1.15407">
        <ele>191.9</ele>
        <time>2012-05-06T10:30:08.070Z</time>
      </trkpt>
      <trkpt lat="49.40013" lon="1.15399">
        <ele>191.7</ele>
        <time>2012-05-06T10:30:09.077Z</time>
      </trkpt>
      <trkpt lat="49.40009" lon="1.15391">
        <ele>191.4</ele>
        <time>2012-05-06T10:30:10.073Z</time>
      </trkpt>
      <trkpt lat="49.40006" lon="1.15383">
        <ele>191.3</ele>
        <time>2012-05-06T10:30:11.076Z</time>
      </trkpt>
      <trkpt lat="49.40003" lon="1.15377">
        <ele>191.2</ele>
        <time>2012-05-06T10:30:12.076Z</time>
      </trkpt>
      <trkpt lat="49.39999" lon="1.1537">
        <ele>191.4</ele>
        <time>2012-05-06T10:30:13.075Z</time>
      </trkpt>
      <trkpt lat="49.39994" lon="1.15365">
        <ele>191.2</ele>
        <time>2012-05-06T10:30:14.073Z</time>
      </trkpt>
      <trkpt lat="49.39989" lon="1.15361">
        <ele>190.6</ele>
        <time>2012-05-06T10:30:15.076Z</time>
      </trkpt>
      <trkpt lat="49.39985" lon="1.15357">
        <ele>190.6</ele>
        <time>2012-05-06T10:30:16.075Z</time>
      </trkpt>
      <trkpt lat="49.3998" lon="1.15352">
        <ele>190.3</ele>
        <time>2012-05-06T10:30:17.091Z</time>
      </trkpt>
      <trkpt lat="49.39976" lon="1.15348">
        <ele>190.2</ele>
        <time>2012-05-06T10:30:18.075Z</time>
      </trkpt>
      <trkpt lat="49.39972" lon="1.15345">
        <ele>190.5</ele>
        <time>2012-05-06T10:30:19.085Z</time>
      </trkpt>
      <trkpt lat="49.39965" lon="1.15336">
        <ele>189.8</ele>
        <time>2012-05-06T10:30:21.075Z</time>
      </trkpt>
      <trkpt lat="49.39959" lon="1.15332">
        <ele>189.3</ele>
        <time>2012-05-06T10:30:22.075Z</time>
      </trkpt>
      <trkpt lat="49.39955" lon="1.15326">
        <ele>189.6</ele>
        <time>2012-05-06T10:30:23.088Z</time>
      </trkpt>
      <trkpt lat="49.39951" lon="1.15318">
        <ele>190</ele>
        <time>2012-05-06T10:30:24.081Z</time>
      </trkpt>
      <trkpt lat="49.39946" lon="1.15313">
        <ele>189.4</ele>
        <time>2012-05-06T10:30:25.081Z</time>
      </trkpt>
      <trkpt lat="49.39941" lon="1.15308">
        <ele>188.1</ele>
        <time>2012-05-06T10:30:26.088Z</time>
      </trkpt>
      <trkpt lat="49.39937" lon="1.15302">
        <ele>187.4</ele>
        <time>2012-05-06T10:30:27.084Z</time>
      </trkpt>
      <trkpt lat="49.39932" lon="1.15296">
        <ele>187.3</ele>
        <time>2012-05-06T10:30:28.079Z</time>
      </trkpt>
      <trkpt lat="49.39928" lon="1.15291">
        <ele>187.8</ele>
        <time>2012-05-06T10:30:29.075Z</time>
      </trkpt>
      <trkpt lat="49.39923" lon="1.15285">
        <ele>186.8</ele>
        <time>2012-05-06T10:30:30.075Z</time>
      </trkpt>
      <trkpt lat="49.39919" lon="1.15279">
        <ele>186.4</ele>
        <time>2012-05-06T10:30:31.074Z</time>
      </trkpt>
      <trkpt lat="49.39914" lon="1.15273">
        <ele>185.7</ele>
        <time>2012-05-06T10:30:32.074Z</time>
      </trkpt>
      <trkpt lat="49.39908" lon="1.15266">
        <ele>185.6</ele>
        <time>2012-05-06T10:30:33.088Z</time>
      </trkpt>
      <trkpt lat="49.39904" lon="1.15259">
        <ele>185.6</ele>
        <time>2012-05-06T10:30:34.082Z</time>
      </trkpt>
      <trkpt lat="49.399" lon="1.15252">
        <ele>185.7</ele>
        <time>2012-05-06T10:30:35.075Z</time>
      </trkpt>
      <trkpt lat="49.39896" lon="1.15248">
        <ele>186</ele>
        <time>2012-05-06T10:30:36.085Z</time>
      </trkpt>
      <trkpt lat="49.3989" lon="1.15242">
        <ele>185.4</ele>
        <time>2012-05-06T10:30:37.081Z</time>
      </trkpt>
      <trkpt lat="49.39886" lon="1.15238">
        <ele>186.1</ele>
        <time>2012-05-06T10:30:38.075Z</time>
      </trkpt>
      <trkpt lat="49.39882" lon="1.15232">
        <ele>186.4</ele>
        <time>2012-05-06T10:30:39.075Z</time>
      </trkpt>
      <trkpt lat="49.39878" lon="1.15227">
        <ele>187</ele>
        <time>2012-05-06T10:30:40.074Z</time>
      </trkpt>
      <trkpt lat="49.39874" lon="1.15222">
        <ele>187.1</ele>
        <time>2012-05-06T10:30:41.084Z</time>
      </trkpt>
      <trkpt lat="49.39869" lon="1.15219">
        <ele>187.2</ele>
        <time>2012-05-06T10:30:42.081Z</time>
      </trkpt>
      <trkpt lat="49.39866" lon="1.15214">
        <ele>187.1</ele>
        <time>2012-05-06T10:30:43.076Z</time>
      </trkpt>
      <trkpt lat="49.39861" lon="1.15205">
        <ele>187.1</ele>
        <time>2012-05-06T10:30:44.075Z</time>
      </trkpt>
      <trkpt lat="49.39858" lon="1.15198">
        <ele>187.2</ele>
        <time>2012-05-06T10:30:45.075Z</time>
      </trkpt>
      <trkpt lat="49.39855" lon="1.15192">
        <ele>187.2</ele>
        <time>2012-05-06T10:30:46.087Z</time>
      </trkpt>
      <trkpt lat="49.39851" lon="1.15185">
        <ele>188</ele>
        <time>2012-05-06T10:30:47.075Z</time>
      </trkpt>
      <trkpt lat="49.39847" lon="1.15178">
        <ele>188</ele>
        <time>2012-05-06T10:30:48.076Z</time>
      </trkpt>
      <trkpt lat="49.39843" lon="1.15171">
        <ele>188.2</ele>
        <time>2012-05-06T10:30:49.093Z</time>
      </trkpt>
      <trkpt lat="49.3984" lon="1.15164">
        <ele>188.2</ele>
        <time>2012-05-06T10:30:50.089Z</time>
      </trkpt>
      <trkpt lat="49.39836" lon="1.15158">
        <ele>188.6</ele>
        <time>2012-05-06T10:30:51.075Z</time>
      </trkpt>
      <trkpt lat="49.39839" lon="1.1515">
        <ele>189.1</ele>
        <time>2012-05-06T10:30:52.080Z</time>
      </trkpt>
      <trkpt lat="49.39834" lon="1.15138">
        <ele>189.6</ele>
        <time>2012-05-06T10:30:54.090Z</time>
      </trkpt>
      <trkpt lat="49.39828" lon="1.15134">
        <ele>189.5</ele>
        <time>2012-05-06T10:30:55.075Z</time>
      </trkpt>
      <trkpt lat="49.39824" lon="1.1513">
        <ele>189.8</ele>
        <time>2012-05-06T10:30:56.098Z</time>
      </trkpt>
      <trkpt lat="49.39822" lon="1.15123">
        <ele>189.8</ele>
        <time>2012-05-06T10:30:57.084Z</time>
      </trkpt>
      <trkpt lat="49.39815" lon="1.1512">
        <ele>188</ele>
        <time>2012-05-06T10:30:58.089Z</time>
      </trkpt>
      <trkpt lat="49.3981" lon="1.15115">
        <ele>188.3</ele>
        <time>2012-05-06T10:30:59.094Z</time>
      </trkpt>
      <trkpt lat="49.39808" lon="1.15108">
        <ele>187</ele>
        <time>2012-05-06T10:31:01.076Z</time>
      </trkpt>
      <trkpt lat="49.39803" lon="1.15096">
        <ele>185.8</ele>
        <time>2012-05-06T10:31:03.074Z</time>
      </trkpt>
      <trkpt lat="49.39803" lon="1.15088">
        <ele>184.7</ele>
        <time>2012-05-06T10:31:04.093Z</time>
      </trkpt>
      <trkpt lat="49.39801" lon="1.15081">
        <ele>184.8</ele>
        <time>2012-05-06T10:31:05.091Z</time>
      </trkpt>
      <trkpt lat="49.398" lon="1.15073">
        <ele>184.3</ele>
        <time>2012-05-06T10:31:06.076Z</time>
      </trkpt>
      <trkpt lat="49.39799" lon="1.15064">
        <ele>183.3</ele>
        <time>2012-05-06T10:31:07.077Z</time>
      </trkpt>
      <trkpt lat="49.39798" lon="1.15055">
        <ele>183.1</ele>
        <time>2012-05-06T10:31:08.075Z</time>
      </trkpt>
      <trkpt lat="49.39796" lon="1.15047">
        <ele>182.9</ele>
        <time>2012-05-06T10:31:09.093Z</time>
      </trkpt>
      <trkpt lat="49.39794" lon="1.15038">
        <ele>182.6</ele>
        <time>2012-05-06T10:31:10.075Z</time>
      </trkpt>
      <trkpt lat="49.39792" lon="1.1503">
        <ele>182.2</ele>
        <time>2012-05-06T10:31:11.076Z</time>
      </trkpt>
      <trkpt lat="49.3979" lon="1.15021">
        <ele>182.5</ele>
        <time>2012-05-06T10:31:12.074Z</time>
      </trkpt>
      <trkpt lat="49.39789" lon="1.15012">
        <ele>182.2</ele>
        <time>2012-05-06T10:31:13.073Z</time>
      </trkpt>
      <trkpt lat="49.39788" lon="1.15004">
        <ele>181.9</ele>
        <time>2012-05-06T10:31:14.085Z</time>
      </trkpt>
      <trkpt lat="49.39787" lon="1.14992">
        <ele>181.2</ele>
        <time>2012-05-06T10:31:16.077Z</time>
      </trkpt>
      <trkpt lat="49.39788" lon="1.14982">
        <ele>180.7</ele>
        <time>2012-05-06T10:31:18.085Z</time>
      </trkpt>
      <trkpt lat="49.3979" lon="1.14972">
        <ele>179.3</ele>
        <time>2012-05-06T10:31:20.077Z</time>
      </trkpt>
      <trkpt lat="49.39789" lon="1.14961">
        <ele>178.8</ele>
        <time>2012-05-06T10:31:22.073Z</time>
      </trkpt>
      <trkpt lat="49.39783" lon="1.14951">
        <ele>178.4</ele>
        <time>2012-05-06T10:31:24.077Z</time>
      </trkpt>
      <trkpt lat="49.39776" lon="1.14944">
        <ele>178.5</ele>
        <time>2012-05-06T10:31:26.077Z</time>
      </trkpt>
      <trkpt lat="49.3977" lon="1.14946">
        <ele>179</ele>
        <time>2012-05-06T10:31:27.093Z</time>
      </trkpt>
      <trkpt lat="49.39764" lon="1.14949">
        <ele>179.8</ele>
        <time>2012-05-06T10:31:28.097Z</time>
      </trkpt>
      <trkpt lat="49.39758" lon="1.14952">
        <ele>179.8</ele>
        <time>2012-05-06T10:31:29.085Z</time>
      </trkpt>
      <trkpt lat="49.39752" lon="1.14953">
        <ele>180.1</ele>
        <time>2012-05-06T10:31:30.087Z</time>
      </trkpt>
      <trkpt lat="49.39747" lon="1.14953">
        <ele>180.9</ele>
        <time>2012-05-06T10:31:31.073Z</time>
      </trkpt>
      <trkpt lat="49.39742" lon="1.14951">
        <ele>181</ele>
        <time>2012-05-06T10:31:32.074Z</time>
      </trkpt>
      <trkpt lat="49.39736" lon="1.14946">
        <ele>180.3</ele>
        <time>2012-05-06T10:31:33.075Z</time>
      </trkpt>
      <trkpt lat="49.39731" lon="1.14941">
        <ele>180.1</ele>
        <time>2012-05-06T10:31:34.076Z</time>
      </trkpt>
      <trkpt lat="49.39725" lon="1.14936">
        <ele>179.3</ele>
        <time>2012-05-06T10:31:35.092Z</time>
      </trkpt>
      <trkpt lat="49.3972" lon="1.1493">
        <ele>179.3</ele>
        <time>2012-05-06T10:31:36.072Z</time>
      </trkpt>
      <trkpt lat="49.39716" lon="1.14926">
        <ele>178.9</ele>
        <time>2012-05-06T10:31:37.073Z</time>
      </trkpt>
      <trkpt lat="49.39711" lon="1.1492">
        <ele>178.6</ele>
        <time>2012-05-06T10:31:38.077Z</time>
      </trkpt>
      <trkpt lat="49.39707" lon="1.14915">
        <ele>178.2</ele>
        <time>2012-05-06T10:31:39.076Z</time>
      </trkpt>
      <trkpt lat="49.39703" lon="1.14908">
        <ele>178.3</ele>
        <time>2012-05-06T10:31:40.085Z</time>
      </trkpt>
      <trkpt lat="49.39699" lon="1.14902">
        <ele>179.2</ele>
        <time>2012-05-06T10:31:41.083Z</time>
      </trkpt>
      <trkpt lat="49.39695" lon="1.14894">
        <ele>178.7</ele>
        <time>2012-05-06T10:31:42.076Z</time>
      </trkpt>
      <trkpt lat="49.39692" lon="1.14887">
        <ele>179</ele>
        <time>2012-05-06T10:31:43.076Z</time>
      </trkpt>
      <trkpt lat="49.39686" lon="1.14878">
        <ele>179</ele>
        <time>2012-05-06T10:31:44.090Z</time>
      </trkpt>
      <trkpt lat="49.39683" lon="1.14872">
        <ele>178.8</ele>
        <time>2012-05-06T10:31:45.094Z</time>
      </trkpt>
      <trkpt lat="49.39678" lon="1.14864">
        <ele>178.5</ele>
        <time>2012-05-06T10:31:46.094Z</time>
      </trkpt>
      <trkpt lat="49.39674" lon="1.14857">
        <ele>177.8</ele>
        <time>2012-05-06T10:31:47.073Z</time>
      </trkpt>
      <trkpt lat="49.39668" lon="1.14849">
        <ele>177</ele>
        <time>2012-05-06T10:31:48.075Z</time>
      </trkpt>
      <trkpt lat="49.39661" lon="1.14842">
        <ele>176.2</ele>
        <time>2012-05-06T10:31:49.074Z</time>
      </trkpt>
      <trkpt lat="49.39657" lon="1.14834">
        <ele>176.4</ele>
        <time>2012-05-06T10:31:50.088Z</time>
      </trkpt>
      <trkpt lat="49.39653" lon="1.14827">
        <ele>176.7</ele>
        <time>2012-05-06T10:31:51.082Z</time>
      </trkpt>
      <trkpt lat="49.39649" lon="1.14819">
        <ele>176.1</ele>
        <time>2012-05-06T10:31:52.075Z</time>
      </trkpt>
      <trkpt lat="49.39645" lon="1.14812">
        <ele>176.1</ele>
        <time>2012-05-06T10:31:53.088Z</time>
      </trkpt>
      <trkpt lat="49.39641" lon="1.14805">
        <ele>176.2</ele>
        <time>2012-05-06T10:31:54.090Z</time>
      </trkpt>
      <trkpt lat="49.39636" lon="1.14799">
        <ele>175.6</ele>
        <time>2012-05-06T10:31:55.077Z</time>
      </trkpt>
      <trkpt lat="49.39632" lon="1.14792">
        <ele>175.1</ele>
        <time>2012-05-06T10:31:56.077Z</time>
      </trkpt>
      <trkpt lat="49.39626" lon="1.14786">
        <ele>176.2</ele>
        <time>2012-05-06T10:31:57.077Z</time>
      </trkpt>
      <trkpt lat="49.39621" lon="1.14778">
        <ele>175.8</ele>
        <time>2012-05-06T10:31:58.088Z</time>
      </trkpt>
      <trkpt lat="49.39614" lon="1.14772">
        <ele>174.9</ele>
        <time>2012-05-06T10:31:59.093Z</time>
      </trkpt>
      <trkpt lat="49.39609" lon="1.14766">
        <ele>175.1</ele>
        <time>2012-05-06T10:32:00.095Z</time>
      </trkpt>
      <trkpt lat="49.39604" lon="1.1476">
        <ele>175.8</ele>
        <time>2012-05-06T10:32:01.086Z</time>
      </trkpt>
      <trkpt lat="49.39599" lon="1.14753">
        <ele>176.4</ele>
        <time>2012-05-06T10:32:02.089Z</time>
      </trkpt>
      <trkpt lat="49.39594" lon="1.14746">
        <ele>176.2</ele>
        <time>2012-05-06T10:32:03.086Z</time>
      </trkpt>
      <trkpt lat="49.39587" lon="1.1474">
        <ele>175.7</ele>
        <time>2012-05-06T10:32:04.080Z</time>
      </trkpt>
      <trkpt lat="49.3958" lon="1.14735">
        <ele>174.9</ele>
        <time>2012-05-06T10:32:05.073Z</time>
      </trkpt>
      <trkpt lat="49.39574" lon="1.14729">
        <ele>175</ele>
        <time>2012-05-06T10:32:06.080Z</time>
      </trkpt>
      <trkpt lat="49.39568" lon="1.14724">
        <ele>174.8</ele>
        <time>2012-05-06T10:32:07.077Z</time>
      </trkpt>
      <trkpt lat="49.39562" lon="1.14718">
        <ele>174.9</ele>
        <time>2012-05-06T10:32:08.093Z</time>
      </trkpt>
      <trkpt lat="49.39555" lon="1.14713">
        <ele>175.6</ele>
        <time>2012-05-06T10:32:09.070Z</time>
      </trkpt>
      <trkpt lat="49.39549" lon="1.14709">
        <ele>175.5</ele>
        <time>2012-05-06T10:32:10.080Z</time>
      </trkpt>
      <trkpt lat="49.39543" lon="1.14703">
        <ele>175.9</ele>
        <time>2012-05-06T10:32:11.080Z</time>
      </trkpt>
      <trkpt lat="49.39537" lon="1.14699">
        <ele>176.1</ele>
        <time>2012-05-06T10:32:12.090Z</time>
      </trkpt>
      <trkpt lat="49.39531" lon="1.14695">
        <ele>176.2</ele>
        <time>2012-05-06T10:32:13.076Z</time>
      </trkpt>
      <trkpt lat="49.39525" lon="1.1469">
        <ele>176.7</ele>
        <time>2012-05-06T10:32:14.077Z</time>
      </trkpt>
      <trkpt lat="49.39519" lon="1.14686">
        <ele>177.1</ele>
        <time>2012-05-06T10:32:15.077Z</time>
      </trkpt>
      <trkpt lat="49.39513" lon="1.14681">
        <ele>177.1</ele>
        <time>2012-05-06T10:32:16.091Z</time>
      </trkpt>
      <trkpt lat="49.39507" lon="1.14676">
        <ele>177</ele>
        <time>2012-05-06T10:32:17.075Z</time>
      </trkpt>
      <trkpt lat="49.395" lon="1.14672">
        <ele>176.6</ele>
        <time>2012-05-06T10:32:18.095Z</time>
      </trkpt>
      <trkpt lat="49.39495" lon="1.14668">
        <ele>176.3</ele>
        <time>2012-05-06T10:32:19.093Z</time>
      </trkpt>
      <trkpt lat="49.39489" lon="1.14663">
        <ele>176.4</ele>
        <time>2012-05-06T10:32:20.075Z</time>
      </trkpt>
      <trkpt lat="49.39484" lon="1.14658">
        <ele>176.2</ele>
        <time>2012-05-06T10:32:21.076Z</time>
      </trkpt>
      <trkpt lat="49.39478" lon="1.14654">
        <ele>176.2</ele>
        <time>2012-05-06T10:32:22.089Z</time>
      </trkpt>
      <trkpt lat="49.39472" lon="1.14649">
        <ele>176.2</ele>
        <time>2012-05-06T10:32:23.076Z</time>
      </trkpt>
      <trkpt lat="49.39466" lon="1.14645">
        <ele>176.3</ele>
        <time>2012-05-06T10:32:24.075Z</time>
      </trkpt>
      <trkpt lat="49.3946" lon="1.14641">
        <ele>176</ele>
        <time>2012-05-06T10:32:25.089Z</time>
      </trkpt>
      <trkpt lat="49.39455" lon="1.14636">
        <ele>175.7</ele>
        <time>2012-05-06T10:32:26.089Z</time>
      </trkpt>
      <trkpt lat="49.39449" lon="1.14631">
        <ele>175.5</ele>
        <time>2012-05-06T10:32:27.076Z</time>
      </trkpt>
      <trkpt lat="49.39442" lon="1.14626">
        <ele>175.7</ele>
        <time>2012-05-06T10:32:28.082Z</time>
      </trkpt>
      <trkpt lat="49.39437" lon="1.14622">
        <ele>176.4</ele>
        <time>2012-05-06T10:32:29.087Z</time>
      </trkpt>
      <trkpt lat="49.39431" lon="1.14618">
        <ele>176.3</ele>
        <time>2012-05-06T10:32:30.078Z</time>
      </trkpt>
      <trkpt lat="49.39425" lon="1.14612">
        <ele>176.5</ele>
        <time>2012-05-06T10:32:31.088Z</time>
      </trkpt>
      <trkpt lat="49.3942" lon="1.14607">
        <ele>176.9</ele>
        <time>2012-05-06T10:32:32.083Z</time>
      </trkpt>
      <trkpt lat="49.39416" lon="1.14603">
        <ele>177.1</ele>
        <time>2012-05-06T10:32:33.092Z</time>
      </trkpt>
      <trkpt lat="49.3941" lon="1.14596">
        <ele>177</ele>
        <time>2012-05-06T10:32:34.078Z</time>
      </trkpt>
      <trkpt lat="49.39406" lon="1.1459">
        <ele>177.1</ele>
        <time>2012-05-06T10:32:35.090Z</time>
      </trkpt>
      <trkpt lat="49.39399" lon="1.14588">
        <ele>177.4</ele>
        <time>2012-05-06T10:32:36.073Z</time>
      </trkpt>
      <trkpt lat="49.39394" lon="1.14585">
        <ele>177.7</ele>
        <time>2012-05-06T10:32:37.076Z</time>
      </trkpt>
      <trkpt lat="49.39388" lon="1.14581">
        <ele>178.1</ele>
        <time>2012-05-06T10:32:38.078Z</time>
      </trkpt>
      <trkpt lat="49.39382" lon="1.14576">
        <ele>178.5</ele>
        <time>2012-05-06T10:32:39.091Z</time>
      </trkpt>
      <trkpt lat="49.39377" lon="1.14572">
        <ele>178.2</ele>
        <time>2012-05-06T10:32:40.091Z</time>
      </trkpt>
      <trkpt lat="49.39371" lon="1.14569">
        <ele>178</ele>
        <time>2012-05-06T10:32:41.085Z</time>
      </trkpt>
      <trkpt lat="49.39365" lon="1.14565">
        <ele>178.8</ele>
        <time>2012-05-06T10:32:42.086Z</time>
      </trkpt>
      <trkpt lat="49.39359" lon="1.1456">
        <ele>178.4</ele>
        <time>2012-05-06T10:32:43.074Z</time>
      </trkpt>
      <trkpt lat="49.39353" lon="1.14556">
        <ele>178.9</ele>
        <time>2012-05-06T10:32:44.093Z</time>
      </trkpt>
      <trkpt lat="49.39348" lon="1.14551">
        <ele>178.9</ele>
        <time>2012-05-06T10:32:45.075Z</time>
      </trkpt>
      <trkpt lat="49.39342" lon="1.14546">
        <ele>179.1</ele>
        <time>2012-05-06T10:32:46.078Z</time>
      </trkpt>
      <trkpt lat="49.39337" lon="1.14541">
        <ele>179</ele>
        <time>2012-05-06T10:32:47.076Z</time>
      </trkpt>
      <trkpt lat="49.39331" lon="1.14536">
        <ele>179.3</ele>
        <time>2012-05-06T10:32:48.089Z</time>
      </trkpt>
      <trkpt lat="49.39325" lon="1.14533">
        <ele>179.3</ele>
        <time>2012-05-06T10:32:49.076Z</time>
      </trkpt>
      <trkpt lat="49.39318" lon="1.14528">
        <ele>179.1</ele>
        <time>2012-05-06T10:32:50.092Z</time>
      </trkpt>
      <trkpt lat="49.39312" lon="1.14524">
        <ele>179</ele>
        <time>2012-05-06T10:32:51.078Z</time>
      </trkpt>
      <trkpt lat="49.39305" lon="1.1452">
        <ele>178.9</ele>
        <time>2012-05-06T10:32:52.079Z</time>
      </trkpt>
      <trkpt lat="49.39298" lon="1.14515">
        <ele>178.2</ele>
        <time>2012-05-06T10:32:53.089Z</time>
      </trkpt>
      <trkpt lat="49.39293" lon="1.14511">
        <ele>177.7</ele>
        <time>2012-05-06T10:32:54.094Z</time>
      </trkpt>
      <trkpt lat="49.39288" lon="1.14506">
        <ele>177.5</ele>
        <time>2012-05-06T10:32:55.089Z</time>
      </trkpt>
      <trkpt lat="49.39282" lon="1.145">
        <ele>177.2</ele>
        <time>2012-05-06T10:32:56.083Z</time>
      </trkpt>
      <trkpt lat="49.39275" lon="1.14495">
        <ele>177.1</ele>
        <time>2012-05-06T10:32:57.088Z</time>
      </trkpt>
      <trkpt lat="49.3927" lon="1.14492">
        <ele>177.3</ele>
        <time>2012-05-06T10:32:58.087Z</time>
      </trkpt>
      <trkpt lat="49.39264" lon="1.14486">
        <ele>176.6</ele>
        <time>2012-05-06T10:32:59.080Z</time>
      </trkpt>
      <trkpt lat="49.39259" lon="1.14481">
        <ele>176.5</ele>
        <time>2012-05-06T10:33:00.076Z</time>
      </trkpt>
      <trkpt lat="49.39253" lon="1.14476">
        <ele>176.2</ele>
        <time>2012-05-06T10:33:01.076Z</time>
      </trkpt>
      <trkpt lat="49.39246" lon="1.14472">
        <ele>176.2</ele>
        <time>2012-05-06T10:33:02.091Z</time>
      </trkpt>
      <trkpt lat="49.39241" lon="1.14467">
        <ele>175.9</ele>
        <time>2012-05-06T10:33:03.089Z</time>
      </trkpt>
      <trkpt lat="49.39235" lon="1.14463">
        <ele>176.3</ele>
        <time>2012-05-06T10:33:04.084Z</time>
      </trkpt>
      <trkpt lat="49.3923" lon="1.14459">
        <ele>176.3</ele>
        <time>2012-05-06T10:33:05.089Z</time>
      </trkpt>
      <trkpt lat="49.39223" lon="1.14456">
        <ele>176.1</ele>
        <time>2012-05-06T10:33:06.083Z</time>
      </trkpt>
      <trkpt lat="49.39216" lon="1.14453">
        <ele>176.5</ele>
        <time>2012-05-06T10:33:07.089Z</time>
      </trkpt>
      <trkpt lat="49.39209" lon="1.14449">
        <ele>176</ele>
        <time>2012-05-06T10:33:08.090Z</time>
      </trkpt>
      <trkpt lat="49.39203" lon="1.14447">
        <ele>175.9</ele>
        <time>2012-05-06T10:33:09.087Z</time>
      </trkpt>
      <trkpt lat="49.39195" lon="1.14446">
        <ele>176.3</ele>
        <time>2012-05-06T10:33:10.084Z</time>
      </trkpt>
      <trkpt lat="49.39188" lon="1.14444">
        <ele>176.9</ele>
        <time>2012-05-06T10:33:11.089Z</time>
      </trkpt>
      <trkpt lat="49.3918" lon="1.14444">
        <ele>177.5</ele>
        <time>2012-05-06T10:33:12.094Z</time>
      </trkpt>
      <trkpt lat="49.39174" lon="1.14444">
        <ele>177.3</ele>
        <time>2012-05-06T10:33:13.090Z</time>
      </trkpt>
      <trkpt lat="49.39166" lon="1.14444">
        <ele>177.4</ele>
        <time>2012-05-06T10:33:14.077Z</time>
      </trkpt>
      <trkpt lat="49.39158" lon="1.14444">
        <ele>177.4</ele>
        <time>2012-05-06T10:33:15.077Z</time>
      </trkpt>
      <trkpt lat="49.39151" lon="1.14445">
        <ele>178.6</ele>
        <time>2012-05-06T10:33:16.092Z</time>
      </trkpt>
      <trkpt lat="49.39144" lon="1.14445">
        <ele>178.3</ele>
        <time>2012-05-06T10:33:17.089Z</time>
      </trkpt>
      <trkpt lat="49.39139" lon="1.14445">
        <ele>178.1</ele>
        <time>2012-05-06T10:33:18.080Z</time>
      </trkpt>
      <trkpt lat="49.39132" lon="1.14446">
        <ele>178.2</ele>
        <time>2012-05-06T10:33:19.075Z</time>
      </trkpt>
      <trkpt lat="49.39125" lon="1.14448">
        <ele>178.5</ele>
        <time>2012-05-06T10:33:20.091Z</time>
      </trkpt>
      <trkpt lat="49.3912" lon="1.14448">
        <ele>179</ele>
        <time>2012-05-06T10:33:21.092Z</time>
      </trkpt>
      <trkpt lat="49.39112" lon="1.14449">
        <ele>178.8</ele>
        <time>2012-05-06T10:33:22.075Z</time>
      </trkpt>
      <trkpt lat="49.39104" lon="1.1445">
        <ele>178.3</ele>
        <time>2012-05-06T10:33:23.074Z</time>
      </trkpt>
      <trkpt lat="49.39098" lon="1.14451">
        <ele>178.6</ele>
        <time>2012-05-06T10:33:24.076Z</time>
      </trkpt>
      <trkpt lat="49.39091" lon="1.14452">
        <ele>179.3</ele>
        <time>2012-05-06T10:33:25.085Z</time>
      </trkpt>
      <trkpt lat="49.39084" lon="1.14451">
        <ele>179.2</ele>
        <time>2012-05-06T10:33:26.084Z</time>
      </trkpt>
      <trkpt lat="49.39077" lon="1.14451">
        <ele>179.3</ele>
        <time>2012-05-06T10:33:27.087Z</time>
      </trkpt>
      <trkpt lat="49.39071" lon="1.1445">
        <ele>179.6</ele>
        <time>2012-05-06T10:33:28.084Z</time>
      </trkpt>
      <trkpt lat="49.39063" lon="1.14449">
        <ele>179.6</ele>
        <time>2012-05-06T10:33:29.085Z</time>
      </trkpt>
      <trkpt lat="49.39056" lon="1.14444">
        <ele>178.9</ele>
        <time>2012-05-06T10:33:30.092Z</time>
      </trkpt>
      <trkpt lat="49.39053" lon="1.14434">
        <ele>178.8</ele>
        <time>2012-05-06T10:33:31.089Z</time>
      </trkpt>
      <trkpt lat="49.39048" lon="1.14423">
        <ele>178.8</ele>
        <time>2012-05-06T10:33:32.075Z</time>
      </trkpt>
      <trkpt lat="49.39044" lon="1.14412">
        <ele>178.9</ele>
        <time>2012-05-06T10:33:33.235Z</time>
      </trkpt>
      <trkpt lat="49.39038" lon="1.14403">
        <ele>178.2</ele>
        <time>2012-05-06T10:33:34.235Z</time>
      </trkpt>
      <trkpt lat="49.39034" lon="1.14392">
        <ele>178</ele>
        <time>2012-05-06T10:33:35.235Z</time>
      </trkpt>
      <trkpt lat="49.39032" lon="1.1438">
        <ele>177.9</ele>
        <time>2012-05-06T10:33:36.235Z</time>
      </trkpt>
      <trkpt lat="49.39028" lon="1.1437">
        <ele>177.6</ele>
        <time>2012-05-06T10:33:37.235Z</time>
      </trkpt>
      <trkpt lat="49.39025" lon="1.1436">
        <ele>177.5</ele>
        <time>2012-05-06T10:33:38.235Z</time>
      </trkpt>
      <trkpt lat="49.39019" lon="1.14349">
        <ele>176.6</ele>
        <time>2012-05-06T10:33:39.235Z</time>
      </trkpt>
      <trkpt lat="49.39016" lon="1.14339">
        <ele>176.5</ele>
        <time>2012-05-06T10:33:40.235Z</time>
      </trkpt>
      <trkpt lat="49.39012" lon="1.14331">
        <ele>175.5</ele>
        <time>2012-05-06T10:33:41.043Z</time>
      </trkpt>
      <trkpt lat="49.39008" lon="1.1432">
        <ele>175.7</ele>
        <time>2012-05-06T10:33:42.076Z</time>
      </trkpt>
      <trkpt lat="49.39005" lon="1.14309">
        <ele>174.6</ele>
        <time>2012-05-06T10:33:43.089Z</time>
      </trkpt>
      <trkpt lat="49.39002" lon="1.14298">
        <ele>173.5</ele>
        <time>2012-05-06T10:33:44.094Z</time>
      </trkpt>
      <trkpt lat="49.38999" lon="1.14288">
        <ele>173.6</ele>
        <time>2012-05-06T10:33:45.076Z</time>
      </trkpt>
      <trkpt lat="49.38997" lon="1.14276">
        <ele>173.3</ele>
        <time>2012-05-06T10:33:46.075Z</time>
      </trkpt>
      <trkpt lat="49.38994" lon="1.14266">
        <ele>173.6</ele>
        <time>2012-05-06T10:33:47.076Z</time>
      </trkpt>
      <trkpt lat="49.3899" lon="1.14256">
        <ele>173.5</ele>
        <time>2012-05-06T10:33:48.089Z</time>
      </trkpt>
      <trkpt lat="49.38987" lon="1.14245">
        <ele>173.8</ele>
        <time>2012-05-06T10:33:49.080Z</time>
      </trkpt>
      <trkpt lat="49.38984" lon="1.14235">
        <ele>173.4</ele>
        <time>2012-05-06T10:33:50.076Z</time>
      </trkpt>
      <trkpt lat="49.38981" lon="1.14225">
        <ele>173.2</ele>
        <time>2012-05-06T10:33:51.076Z</time>
      </trkpt>
      <trkpt lat="49.38978" lon="1.14214">
        <ele>173.7</ele>
        <time>2012-05-06T10:33:52.090Z</time>
      </trkpt>
      <trkpt lat="49.38974" lon="1.14203">
        <ele>174</ele>
        <time>2012-05-06T10:33:53.088Z</time>
      </trkpt>
      <trkpt lat="49.38971" lon="1.14193">
        <ele>173.1</ele>
        <time>2012-05-06T10:33:54.092Z</time>
      </trkpt>
      <trkpt lat="49.38967" lon="1.14181">
        <ele>173</ele>
        <time>2012-05-06T10:33:55.082Z</time>
      </trkpt>
      <trkpt lat="49.38964" lon="1.1417">
        <ele>172.6</ele>
        <time>2012-05-06T10:33:56.075Z</time>
      </trkpt>
      <trkpt lat="49.3896" lon="1.1416">
        <ele>172.5</ele>
        <time>2012-05-06T10:33:57.091Z</time>
      </trkpt>
      <trkpt lat="49.38956" lon="1.14151">
        <ele>173.5</ele>
        <time>2012-05-06T10:33:58.077Z</time>
      </trkpt>
      <trkpt lat="49.38952" lon="1.14141">
        <ele>174.3</ele>
        <time>2012-05-06T10:33:59.086Z</time>
      </trkpt>
      <trkpt lat="49.38949" lon="1.1413">
        <ele>174.1</ele>
        <time>2012-05-06T10:34:00.084Z</time>
      </trkpt>
      <trkpt lat="49.38946" lon="1.14121">
        <ele>173.7</ele>
        <time>2012-05-06T10:34:01.073Z</time>
      </trkpt>
      <trkpt lat="49.38943" lon="1.1411">
        <ele>173.1</ele>
        <time>2012-05-06T10:34:02.094Z</time>
      </trkpt>
      <trkpt lat="49.3894" lon="1.141">
        <ele>172.5</ele>
        <time>2012-05-06T10:34:03.087Z</time>
      </trkpt>
      <trkpt lat="49.38938" lon="1.14088">
        <ele>172.8</ele>
        <time>2012-05-06T10:34:04.077Z</time>
      </trkpt>
      <trkpt lat="49.38935" lon="1.14078">
        <ele>173</ele>
        <time>2012-05-06T10:34:05.077Z</time>
      </trkpt>
      <trkpt lat="49.38932" lon="1.14067">
        <ele>173</ele>
        <time>2012-05-06T10:34:06.092Z</time>
      </trkpt>
      <trkpt lat="49.38929" lon="1.14058">
        <ele>172.5</ele>
        <time>2012-05-06T10:34:07.088Z</time>
      </trkpt>
      <trkpt lat="49.38926" lon="1.14048">
        <ele>172.8</ele>
        <time>2012-05-06T10:34:08.079Z</time>
      </trkpt>
      <trkpt lat="49.38923" lon="1.1404">
        <ele>172.8</ele>
        <time>2012-05-06T10:34:09.083Z</time>
      </trkpt>
      <trkpt lat="49.38921" lon="1.14033">
        <ele>172.3</ele>
        <time>2012-05-06T10:34:10.077Z</time>
      </trkpt>
      <trkpt lat="49.38916" lon="1.14031">
        <ele>172.4</ele>
        <time>2012-05-06T10:34:11.090Z</time>
      </trkpt>
      <trkpt lat="49.38909" lon="1.14033">
        <ele>173</ele>
        <time>2012-05-06T10:34:12.088Z</time>
      </trkpt>
      <trkpt lat="49.38904" lon="1.14032">
        <ele>173</ele>
        <time>2012-05-06T10:34:13.076Z</time>
      </trkpt>
      <trkpt lat="49.38898" lon="1.14036">
        <ele>173.2</ele>
        <time>2012-05-06T10:34:15.077Z</time>
      </trkpt>
      <trkpt lat="49.38894" lon="1.14039">
        <ele>173.9</ele>
        <time>2012-05-06T10:34:17.075Z</time>
      </trkpt>
      <trkpt lat="49.38888" lon="1.1404">
        <ele>175.2</ele>
        <time>2012-05-06T10:34:19.077Z</time>
      </trkpt>
      <trkpt lat="49.3889" lon="1.14046">
        <ele>176.6</ele>
        <time>2012-05-06T10:35:17.074Z</time>
      </trkpt>
      <trkpt lat="49.38884" lon="1.14046">
        <ele>180.6</ele>
        <time>2012-05-06T10:36:56.091Z</time>
      </trkpt>
      <trkpt lat="49.38882" lon="1.14052">
        <ele>177.8</ele>
        <time>2012-05-06T10:36:59.091Z</time>
      </trkpt>
      <trkpt lat="49.38877" lon="1.14058">
        <ele>179.5</ele>
        <time>2012-05-06T10:37:06.222Z</time>
      </trkpt>
      <trkpt lat="49.38873" lon="1.14062">
        <ele>181.2</ele>
        <time>2012-05-06T10:37:11.222Z</time>
      </trkpt>
      <trkpt lat="49.3887" lon="1.14072">
        <ele>179.7</ele>
        <time>2012-05-06T10:37:39.222Z</time>
      </trkpt>
      <trkpt lat="49.3887" lon="1.1408">
        <ele>178.9</ele>
        <time>2012-05-06T10:37:42.222Z</time>
      </trkpt>
      <trkpt lat="49.38872" lon="1.14085">
        <ele>176.5</ele>
        <time>2012-05-06T10:37:44.222Z</time>
      </trkpt>
      <trkpt lat="49.38874" lon="1.14092">
        <ele>173.2</ele>
        <time>2012-05-06T10:37:49.456Z</time>
      </trkpt>
    </trkseg>
  </trk>
</gpx>